<?xml version="1.0" encoding="UTF-8" standalone="no" ?>
<gpx xmlns="http://www.topografix.com/GPX/1/1" xmlns:xsi="http://www.w3.org/2001/XMLSchema-instance" xsi:schemaLocation="http://www.topografix.com/GPX/1/1 http://www.topografix.com/GPX/1/1/gpx.xsd" version="1.1" creator="VisuGPX - https://www.visugpx.com">
  <metadata>
    <name>MALVES EN MINERVOIS le 23.06.2019 - ACFC</name>
    <desc><![CDATA[Belle sortie dans les alentours de MALVES EN MINERVOIS sans grosses difficultés.]]></desc>
  </metadata>
  <trk>
    <name><![CDATA[TrailRunning]]></name>
    <trkseg>
      <trkpt lat="43.25355" lon="2.44115">
        <ele>122.8</ele>
        <time>2019-06-23T06:00:51.000Z</time>
      </trkpt>
      <trkpt lat="43.25355" lon="2.44115">
        <ele>122.8</ele>
        <time>2019-06-23T06:00:52.000Z</time>
      </trkpt>
      <trkpt lat="43.25354" lon="2.44114">
        <ele>122.8</ele>
        <time>2019-06-23T06:00:53.000Z</time>
      </trkpt>
      <trkpt lat="43.25354" lon="2.44113">
        <ele>122.7</ele>
        <time>2019-06-23T06:00:54.000Z</time>
      </trkpt>
      <trkpt lat="43.25353" lon="2.44111">
        <ele>122.6</ele>
        <time>2019-06-23T06:00:55.000Z</time>
      </trkpt>
      <trkpt lat="43.25352" lon="2.44109">
        <ele>122.6</ele>
        <time>2019-06-23T06:00:56.000Z</time>
      </trkpt>
      <trkpt lat="43.25351" lon="2.44107">
        <ele>122.5</ele>
        <time>2019-06-23T06:00:57.000Z</time>
      </trkpt>
      <trkpt lat="43.2535" lon="2.44105">
        <ele>122.4</ele>
        <time>2019-06-23T06:00:58.000Z</time>
      </trkpt>
      <trkpt lat="43.25349" lon="2.44103">
        <ele>122.4</ele>
        <time>2019-06-23T06:00:59.000Z</time>
      </trkpt>
      <trkpt lat="43.25348" lon="2.44101">
        <ele>122.3</ele>
        <time>2019-06-23T06:01:00.000Z</time>
      </trkpt>
      <trkpt lat="43.25347" lon="2.44099">
        <ele>122.3</ele>
        <time>2019-06-23T06:01:01.000Z</time>
      </trkpt>
      <trkpt lat="43.25345" lon="2.44097">
        <ele>122.2</ele>
        <time>2019-06-23T06:01:02.000Z</time>
      </trkpt>
      <trkpt lat="43.25344" lon="2.44095">
        <ele>122.2</ele>
        <time>2019-06-23T06:01:03.000Z</time>
      </trkpt>
      <trkpt lat="43.25343" lon="2.44093">
        <ele>122.1</ele>
        <time>2019-06-23T06:01:04.000Z</time>
      </trkpt>
      <trkpt lat="43.25342" lon="2.44091">
        <ele>122</ele>
        <time>2019-06-23T06:01:05.000Z</time>
      </trkpt>
      <trkpt lat="43.25342" lon="2.44089">
        <ele>121.9</ele>
        <time>2019-06-23T06:01:06.000Z</time>
      </trkpt>
      <trkpt lat="43.25342" lon="2.44086">
        <ele>121.8</ele>
        <time>2019-06-23T06:01:07.000Z</time>
      </trkpt>
      <trkpt lat="43.25342" lon="2.44084">
        <ele>121.6</ele>
        <time>2019-06-23T06:01:08.000Z</time>
      </trkpt>
      <trkpt lat="43.25343" lon="2.44082">
        <ele>121.4</ele>
        <time>2019-06-23T06:01:09.000Z</time>
      </trkpt>
      <trkpt lat="43.25344" lon="2.44079">
        <ele>121.2</ele>
        <time>2019-06-23T06:01:10.000Z</time>
      </trkpt>
      <trkpt lat="43.25345" lon="2.44077">
        <ele>121</ele>
        <time>2019-06-23T06:01:11.000Z</time>
      </trkpt>
      <trkpt lat="43.25346" lon="2.44075">
        <ele>120.7</ele>
        <time>2019-06-23T06:01:12.000Z</time>
      </trkpt>
      <trkpt lat="43.25348" lon="2.44073">
        <ele>120.5</ele>
        <time>2019-06-23T06:01:13.000Z</time>
      </trkpt>
      <trkpt lat="43.2535" lon="2.44072">
        <ele>120.3</ele>
        <time>2019-06-23T06:01:14.000Z</time>
      </trkpt>
      <trkpt lat="43.25352" lon="2.44071">
        <ele>120.1</ele>
        <time>2019-06-23T06:01:15.000Z</time>
      </trkpt>
      <trkpt lat="43.25354" lon="2.4407">
        <ele>120</ele>
        <time>2019-06-23T06:01:16.000Z</time>
      </trkpt>
      <trkpt lat="43.25356" lon="2.4407">
        <ele>119.9</ele>
        <time>2019-06-23T06:01:17.000Z</time>
      </trkpt>
      <trkpt lat="43.25359" lon="2.4407">
        <ele>119.8</ele>
        <time>2019-06-23T06:01:18.000Z</time>
      </trkpt>
      <trkpt lat="43.25361" lon="2.44071">
        <ele>119.8</ele>
        <time>2019-06-23T06:01:19.000Z</time>
      </trkpt>
      <trkpt lat="43.25363" lon="2.44072">
        <ele>119.7</ele>
        <time>2019-06-23T06:01:20.000Z</time>
      </trkpt>
      <trkpt lat="43.25365" lon="2.44073">
        <ele>119.7</ele>
        <time>2019-06-23T06:01:21.000Z</time>
      </trkpt>
      <trkpt lat="43.25367" lon="2.44074">
        <ele>119.7</ele>
        <time>2019-06-23T06:01:22.000Z</time>
      </trkpt>
      <trkpt lat="43.25369" lon="2.44075">
        <ele>119.7</ele>
        <time>2019-06-23T06:01:23.000Z</time>
      </trkpt>
      <trkpt lat="43.25371" lon="2.44076">
        <ele>119.7</ele>
        <time>2019-06-23T06:01:24.000Z</time>
      </trkpt>
      <trkpt lat="43.25373" lon="2.44077">
        <ele>119.6</ele>
        <time>2019-06-23T06:01:25.000Z</time>
      </trkpt>
      <trkpt lat="43.25375" lon="2.44078">
        <ele>119.6</ele>
        <time>2019-06-23T06:01:26.000Z</time>
      </trkpt>
      <trkpt lat="43.25377" lon="2.44078">
        <ele>119.6</ele>
        <time>2019-06-23T06:01:27.000Z</time>
      </trkpt>
      <trkpt lat="43.25379" lon="2.44078">
        <ele>119.5</ele>
        <time>2019-06-23T06:01:28.000Z</time>
      </trkpt>
      <trkpt lat="43.25381" lon="2.44078">
        <ele>119.4</ele>
        <time>2019-06-23T06:01:29.000Z</time>
      </trkpt>
      <trkpt lat="43.25383" lon="2.44078">
        <ele>119.3</ele>
        <time>2019-06-23T06:01:30.000Z</time>
      </trkpt>
      <trkpt lat="43.25385" lon="2.44077">
        <ele>119.1</ele>
        <time>2019-06-23T06:01:31.000Z</time>
      </trkpt>
      <trkpt lat="43.25386" lon="2.44075">
        <ele>118.9</ele>
        <time>2019-06-23T06:01:32.000Z</time>
      </trkpt>
      <trkpt lat="43.25388" lon="2.44073">
        <ele>118.7</ele>
        <time>2019-06-23T06:01:33.000Z</time>
      </trkpt>
      <trkpt lat="43.2539" lon="2.44071">
        <ele>118.5</ele>
        <time>2019-06-23T06:01:34.000Z</time>
      </trkpt>
      <trkpt lat="43.25392" lon="2.44068">
        <ele>118.3</ele>
        <time>2019-06-23T06:01:35.000Z</time>
      </trkpt>
      <trkpt lat="43.25393" lon="2.44065">
        <ele>118</ele>
        <time>2019-06-23T06:01:36.000Z</time>
      </trkpt>
      <trkpt lat="43.25394" lon="2.44061">
        <ele>117.8</ele>
        <time>2019-06-23T06:01:37.000Z</time>
      </trkpt>
      <trkpt lat="43.25395" lon="2.44058">
        <ele>117.6</ele>
        <time>2019-06-23T06:01:38.000Z</time>
      </trkpt>
      <trkpt lat="43.25396" lon="2.44054">
        <ele>117.3</ele>
        <time>2019-06-23T06:01:39.000Z</time>
      </trkpt>
      <trkpt lat="43.25396" lon="2.4405">
        <ele>117.1</ele>
        <time>2019-06-23T06:01:40.000Z</time>
      </trkpt>
      <trkpt lat="43.25397" lon="2.44047">
        <ele>116.9</ele>
        <time>2019-06-23T06:01:41.000Z</time>
      </trkpt>
      <trkpt lat="43.25397" lon="2.44043">
        <ele>116.6</ele>
        <time>2019-06-23T06:01:42.000Z</time>
      </trkpt>
      <trkpt lat="43.25398" lon="2.44039">
        <ele>116.4</ele>
        <time>2019-06-23T06:01:43.000Z</time>
      </trkpt>
      <trkpt lat="43.25399" lon="2.44036">
        <ele>116.2</ele>
        <time>2019-06-23T06:01:44.000Z</time>
      </trkpt>
      <trkpt lat="43.25401" lon="2.44033">
        <ele>116</ele>
        <time>2019-06-23T06:01:45.000Z</time>
      </trkpt>
      <trkpt lat="43.25402" lon="2.4403">
        <ele>115.8</ele>
        <time>2019-06-23T06:01:46.000Z</time>
      </trkpt>
      <trkpt lat="43.25403" lon="2.44027">
        <ele>115.6</ele>
        <time>2019-06-23T06:01:47.000Z</time>
      </trkpt>
      <trkpt lat="43.25404" lon="2.44023">
        <ele>115.4</ele>
        <time>2019-06-23T06:01:48.000Z</time>
      </trkpt>
      <trkpt lat="43.25406" lon="2.4402">
        <ele>115.2</ele>
        <time>2019-06-23T06:01:49.000Z</time>
      </trkpt>
      <trkpt lat="43.25407" lon="2.44017">
        <ele>115</ele>
        <time>2019-06-23T06:01:50.000Z</time>
      </trkpt>
      <trkpt lat="43.25408" lon="2.44014">
        <ele>114.8</ele>
        <time>2019-06-23T06:01:51.000Z</time>
      </trkpt>
      <trkpt lat="43.25409" lon="2.4401">
        <ele>114.6</ele>
        <time>2019-06-23T06:01:52.000Z</time>
      </trkpt>
      <trkpt lat="43.25411" lon="2.44007">
        <ele>114.4</ele>
        <time>2019-06-23T06:01:53.000Z</time>
      </trkpt>
      <trkpt lat="43.25412" lon="2.44004">
        <ele>114.2</ele>
        <time>2019-06-23T06:01:54.000Z</time>
      </trkpt>
      <trkpt lat="43.25413" lon="2.44001">
        <ele>114.1</ele>
        <time>2019-06-23T06:01:55.000Z</time>
      </trkpt>
      <trkpt lat="43.25414" lon="2.43997">
        <ele>114</ele>
        <time>2019-06-23T06:01:56.000Z</time>
      </trkpt>
      <trkpt lat="43.25415" lon="2.43994">
        <ele>113.9</ele>
        <time>2019-06-23T06:01:57.000Z</time>
      </trkpt>
      <trkpt lat="43.25416" lon="2.43991">
        <ele>113.8</ele>
        <time>2019-06-23T06:01:58.000Z</time>
      </trkpt>
      <trkpt lat="43.25417" lon="2.43987">
        <ele>113.7</ele>
        <time>2019-06-23T06:01:59.000Z</time>
      </trkpt>
      <trkpt lat="43.25418" lon="2.43984">
        <ele>113.6</ele>
        <time>2019-06-23T06:02:00.000Z</time>
      </trkpt>
      <trkpt lat="43.25419" lon="2.43981">
        <ele>113.5</ele>
        <time>2019-06-23T06:02:01.000Z</time>
      </trkpt>
      <trkpt lat="43.2542" lon="2.43977">
        <ele>113.4</ele>
        <time>2019-06-23T06:02:02.000Z</time>
      </trkpt>
      <trkpt lat="43.25421" lon="2.43974">
        <ele>113.3</ele>
        <time>2019-06-23T06:02:03.000Z</time>
      </trkpt>
      <trkpt lat="43.25422" lon="2.43971">
        <ele>113.2</ele>
        <time>2019-06-23T06:02:04.000Z</time>
      </trkpt>
      <trkpt lat="43.25422" lon="2.43968">
        <ele>113.1</ele>
        <time>2019-06-23T06:02:05.000Z</time>
      </trkpt>
      <trkpt lat="43.25423" lon="2.43964">
        <ele>113</ele>
        <time>2019-06-23T06:02:06.000Z</time>
      </trkpt>
      <trkpt lat="43.25424" lon="2.43961">
        <ele>112.9</ele>
        <time>2019-06-23T06:02:07.000Z</time>
      </trkpt>
      <trkpt lat="43.25425" lon="2.43958">
        <ele>112.8</ele>
        <time>2019-06-23T06:02:08.000Z</time>
      </trkpt>
      <trkpt lat="43.25426" lon="2.43955">
        <ele>112.7</ele>
        <time>2019-06-23T06:02:09.000Z</time>
      </trkpt>
      <trkpt lat="43.25427" lon="2.43952">
        <ele>112.6</ele>
        <time>2019-06-23T06:02:10.000Z</time>
      </trkpt>
      <trkpt lat="43.25428" lon="2.43949">
        <ele>112.5</ele>
        <time>2019-06-23T06:02:11.000Z</time>
      </trkpt>
      <trkpt lat="43.25429" lon="2.43946">
        <ele>112.4</ele>
        <time>2019-06-23T06:02:12.000Z</time>
      </trkpt>
      <trkpt lat="43.2543" lon="2.43943">
        <ele>112.4</ele>
        <time>2019-06-23T06:02:13.000Z</time>
      </trkpt>
      <trkpt lat="43.25431" lon="2.4394">
        <ele>112.3</ele>
        <time>2019-06-23T06:02:14.000Z</time>
      </trkpt>
      <trkpt lat="43.25432" lon="2.43937">
        <ele>112.2</ele>
        <time>2019-06-23T06:02:15.000Z</time>
      </trkpt>
      <trkpt lat="43.25433" lon="2.43934">
        <ele>112.1</ele>
        <time>2019-06-23T06:02:16.000Z</time>
      </trkpt>
      <trkpt lat="43.25434" lon="2.43931">
        <ele>112.1</ele>
        <time>2019-06-23T06:02:17.000Z</time>
      </trkpt>
      <trkpt lat="43.25435" lon="2.43928">
        <ele>112</ele>
        <time>2019-06-23T06:02:18.000Z</time>
      </trkpt>
      <trkpt lat="43.25436" lon="2.43925">
        <ele>111.9</ele>
        <time>2019-06-23T06:02:19.000Z</time>
      </trkpt>
      <trkpt lat="43.25437" lon="2.43922">
        <ele>111.8</ele>
        <time>2019-06-23T06:02:20.000Z</time>
      </trkpt>
      <trkpt lat="43.25438" lon="2.43919">
        <ele>111.8</ele>
        <time>2019-06-23T06:02:21.000Z</time>
      </trkpt>
      <trkpt lat="43.25439" lon="2.43916">
        <ele>111.7</ele>
        <time>2019-06-23T06:02:22.000Z</time>
      </trkpt>
      <trkpt lat="43.2544" lon="2.43913">
        <ele>111.6</ele>
        <time>2019-06-23T06:02:23.000Z</time>
      </trkpt>
      <trkpt lat="43.25441" lon="2.4391">
        <ele>111.5</ele>
        <time>2019-06-23T06:02:24.000Z</time>
      </trkpt>
      <trkpt lat="43.25441" lon="2.43907">
        <ele>111.5</ele>
        <time>2019-06-23T06:02:25.000Z</time>
      </trkpt>
      <trkpt lat="43.25442" lon="2.43904">
        <ele>111.4</ele>
        <time>2019-06-23T06:02:26.000Z</time>
      </trkpt>
      <trkpt lat="43.25443" lon="2.43901">
        <ele>111.3</ele>
        <time>2019-06-23T06:02:27.000Z</time>
      </trkpt>
      <trkpt lat="43.25444" lon="2.43898">
        <ele>111.2</ele>
        <time>2019-06-23T06:02:28.000Z</time>
      </trkpt>
      <trkpt lat="43.25444" lon="2.43894">
        <ele>111.1</ele>
        <time>2019-06-23T06:02:29.000Z</time>
      </trkpt>
      <trkpt lat="43.25445" lon="2.43891">
        <ele>111.1</ele>
        <time>2019-06-23T06:02:30.000Z</time>
      </trkpt>
      <trkpt lat="43.25446" lon="2.43888">
        <ele>111</ele>
        <time>2019-06-23T06:02:31.000Z</time>
      </trkpt>
      <trkpt lat="43.25447" lon="2.43885">
        <ele>110.9</ele>
        <time>2019-06-23T06:02:32.000Z</time>
      </trkpt>
      <trkpt lat="43.25447" lon="2.43882">
        <ele>110.8</ele>
        <time>2019-06-23T06:02:33.000Z</time>
      </trkpt>
      <trkpt lat="43.25448" lon="2.43879">
        <ele>110.8</ele>
        <time>2019-06-23T06:02:34.000Z</time>
      </trkpt>
      <trkpt lat="43.25449" lon="2.43876">
        <ele>110.7</ele>
        <time>2019-06-23T06:02:35.000Z</time>
      </trkpt>
      <trkpt lat="43.2545" lon="2.43873">
        <ele>110.6</ele>
        <time>2019-06-23T06:02:36.000Z</time>
      </trkpt>
      <trkpt lat="43.25451" lon="2.4387">
        <ele>110.6</ele>
        <time>2019-06-23T06:02:37.000Z</time>
      </trkpt>
      <trkpt lat="43.25451" lon="2.43866">
        <ele>110.5</ele>
        <time>2019-06-23T06:02:38.000Z</time>
      </trkpt>
      <trkpt lat="43.25452" lon="2.43863">
        <ele>110.5</ele>
        <time>2019-06-23T06:02:39.000Z</time>
      </trkpt>
      <trkpt lat="43.25453" lon="2.4386">
        <ele>110.4</ele>
        <time>2019-06-23T06:02:40.000Z</time>
      </trkpt>
      <trkpt lat="43.25454" lon="2.43857">
        <ele>110.4</ele>
        <time>2019-06-23T06:02:41.000Z</time>
      </trkpt>
      <trkpt lat="43.25456" lon="2.43854">
        <ele>110.3</ele>
        <time>2019-06-23T06:02:42.000Z</time>
      </trkpt>
      <trkpt lat="43.25457" lon="2.43852">
        <ele>110.3</ele>
        <time>2019-06-23T06:02:43.000Z</time>
      </trkpt>
      <trkpt lat="43.25458" lon="2.43849">
        <ele>110.3</ele>
        <time>2019-06-23T06:02:44.000Z</time>
      </trkpt>
      <trkpt lat="43.25459" lon="2.43846">
        <ele>110.2</ele>
        <time>2019-06-23T06:02:45.000Z</time>
      </trkpt>
      <trkpt lat="43.2546" lon="2.43843">
        <ele>110.2</ele>
        <time>2019-06-23T06:02:46.000Z</time>
      </trkpt>
      <trkpt lat="43.25462" lon="2.4384">
        <ele>110.2</ele>
        <time>2019-06-23T06:02:47.000Z</time>
      </trkpt>
      <trkpt lat="43.25463" lon="2.43837">
        <ele>110.2</ele>
        <time>2019-06-23T06:02:48.000Z</time>
      </trkpt>
      <trkpt lat="43.25464" lon="2.43835">
        <ele>110.1</ele>
        <time>2019-06-23T06:02:49.000Z</time>
      </trkpt>
      <trkpt lat="43.25465" lon="2.43832">
        <ele>110.2</ele>
        <time>2019-06-23T06:02:50.000Z</time>
      </trkpt>
      <trkpt lat="43.25466" lon="2.43829">
        <ele>110.2</ele>
        <time>2019-06-23T06:02:51.000Z</time>
      </trkpt>
      <trkpt lat="43.25467" lon="2.43826">
        <ele>110.3</ele>
        <time>2019-06-23T06:02:52.000Z</time>
      </trkpt>
      <trkpt lat="43.25468" lon="2.43823">
        <ele>110.3</ele>
        <time>2019-06-23T06:02:53.000Z</time>
      </trkpt>
      <trkpt lat="43.25469" lon="2.43821">
        <ele>110.4</ele>
        <time>2019-06-23T06:02:54.000Z</time>
      </trkpt>
      <trkpt lat="43.2547" lon="2.43818">
        <ele>110.4</ele>
        <time>2019-06-23T06:02:55.000Z</time>
      </trkpt>
      <trkpt lat="43.25471" lon="2.43815">
        <ele>110.4</ele>
        <time>2019-06-23T06:02:56.000Z</time>
      </trkpt>
      <trkpt lat="43.25472" lon="2.43812">
        <ele>110.5</ele>
        <time>2019-06-23T06:02:57.000Z</time>
      </trkpt>
      <trkpt lat="43.25473" lon="2.43809">
        <ele>110.5</ele>
        <time>2019-06-23T06:02:58.000Z</time>
      </trkpt>
      <trkpt lat="43.25474" lon="2.43806">
        <ele>110.6</ele>
        <time>2019-06-23T06:02:59.000Z</time>
      </trkpt>
      <trkpt lat="43.25475" lon="2.43803">
        <ele>110.6</ele>
        <time>2019-06-23T06:03:00.000Z</time>
      </trkpt>
      <trkpt lat="43.25476" lon="2.43801">
        <ele>110.7</ele>
        <time>2019-06-23T06:03:01.000Z</time>
      </trkpt>
      <trkpt lat="43.25477" lon="2.43798">
        <ele>110.7</ele>
        <time>2019-06-23T06:03:02.000Z</time>
      </trkpt>
      <trkpt lat="43.25478" lon="2.43796">
        <ele>110.8</ele>
        <time>2019-06-23T06:03:03.000Z</time>
      </trkpt>
      <trkpt lat="43.2548" lon="2.43794">
        <ele>110.9</ele>
        <time>2019-06-23T06:03:04.000Z</time>
      </trkpt>
      <trkpt lat="43.25482" lon="2.43793">
        <ele>110.9</ele>
        <time>2019-06-23T06:03:05.000Z</time>
      </trkpt>
      <trkpt lat="43.25484" lon="2.43791">
        <ele>111</ele>
        <time>2019-06-23T06:03:06.000Z</time>
      </trkpt>
      <trkpt lat="43.25486" lon="2.4379">
        <ele>111.1</ele>
        <time>2019-06-23T06:03:07.000Z</time>
      </trkpt>
      <trkpt lat="43.25488" lon="2.43789">
        <ele>111.1</ele>
        <time>2019-06-23T06:03:08.000Z</time>
      </trkpt>
      <trkpt lat="43.2549" lon="2.43789">
        <ele>111.2</ele>
        <time>2019-06-23T06:03:09.000Z</time>
      </trkpt>
      <trkpt lat="43.25492" lon="2.43789">
        <ele>111.3</ele>
        <time>2019-06-23T06:03:10.000Z</time>
      </trkpt>
      <trkpt lat="43.25494" lon="2.43789">
        <ele>111.4</ele>
        <time>2019-06-23T06:03:11.000Z</time>
      </trkpt>
      <trkpt lat="43.25496" lon="2.43789">
        <ele>111.4</ele>
        <time>2019-06-23T06:03:12.000Z</time>
      </trkpt>
      <trkpt lat="43.25498" lon="2.4379">
        <ele>111.5</ele>
        <time>2019-06-23T06:03:13.000Z</time>
      </trkpt>
      <trkpt lat="43.255" lon="2.4379">
        <ele>111.5</ele>
        <time>2019-06-23T06:03:14.000Z</time>
      </trkpt>
      <trkpt lat="43.25503" lon="2.43791">
        <ele>111.7</ele>
        <time>2019-06-23T06:03:15.000Z</time>
      </trkpt>
      <trkpt lat="43.25505" lon="2.43792">
        <ele>111.8</ele>
        <time>2019-06-23T06:03:16.000Z</time>
      </trkpt>
      <trkpt lat="43.25507" lon="2.43793">
        <ele>111.9</ele>
        <time>2019-06-23T06:03:17.000Z</time>
      </trkpt>
      <trkpt lat="43.25509" lon="2.43794">
        <ele>112</ele>
        <time>2019-06-23T06:03:18.000Z</time>
      </trkpt>
      <trkpt lat="43.25511" lon="2.43795">
        <ele>112.1</ele>
        <time>2019-06-23T06:03:19.000Z</time>
      </trkpt>
      <trkpt lat="43.25513" lon="2.43796">
        <ele>112.2</ele>
        <time>2019-06-23T06:03:20.000Z</time>
      </trkpt>
      <trkpt lat="43.25515" lon="2.43796">
        <ele>112.3</ele>
        <time>2019-06-23T06:03:21.000Z</time>
      </trkpt>
      <trkpt lat="43.25517" lon="2.43797">
        <ele>112.4</ele>
        <time>2019-06-23T06:03:22.000Z</time>
      </trkpt>
      <trkpt lat="43.25519" lon="2.43797">
        <ele>112.5</ele>
        <time>2019-06-23T06:03:23.000Z</time>
      </trkpt>
      <trkpt lat="43.25521" lon="2.43798">
        <ele>112.6</ele>
        <time>2019-06-23T06:03:24.000Z</time>
      </trkpt>
      <trkpt lat="43.25523" lon="2.43799">
        <ele>112.7</ele>
        <time>2019-06-23T06:03:25.000Z</time>
      </trkpt>
      <trkpt lat="43.25525" lon="2.43799">
        <ele>112.8</ele>
        <time>2019-06-23T06:03:26.000Z</time>
      </trkpt>
      <trkpt lat="43.25527" lon="2.438">
        <ele>112.9</ele>
        <time>2019-06-23T06:03:27.000Z</time>
      </trkpt>
      <trkpt lat="43.25529" lon="2.43802">
        <ele>113</ele>
        <time>2019-06-23T06:03:28.000Z</time>
      </trkpt>
      <trkpt lat="43.25531" lon="2.43803">
        <ele>113</ele>
        <time>2019-06-23T06:03:29.000Z</time>
      </trkpt>
      <trkpt lat="43.25532" lon="2.43803">
        <ele>113.1</ele>
        <time>2019-06-23T06:03:30.000Z</time>
      </trkpt>
      <trkpt lat="43.25534" lon="2.43804">
        <ele>113.2</ele>
        <time>2019-06-23T06:03:31.000Z</time>
      </trkpt>
      <trkpt lat="43.25536" lon="2.43805">
        <ele>113.2</ele>
        <time>2019-06-23T06:03:32.000Z</time>
      </trkpt>
      <trkpt lat="43.25538" lon="2.43805">
        <ele>113.3</ele>
        <time>2019-06-23T06:03:33.000Z</time>
      </trkpt>
      <trkpt lat="43.2554" lon="2.43805">
        <ele>113.4</ele>
        <time>2019-06-23T06:03:34.000Z</time>
      </trkpt>
      <trkpt lat="43.25541" lon="2.43806">
        <ele>113.5</ele>
        <time>2019-06-23T06:03:35.000Z</time>
      </trkpt>
      <trkpt lat="43.25543" lon="2.43807">
        <ele>113.5</ele>
        <time>2019-06-23T06:03:36.000Z</time>
      </trkpt>
      <trkpt lat="43.25545" lon="2.43807">
        <ele>113.6</ele>
        <time>2019-06-23T06:03:37.000Z</time>
      </trkpt>
      <trkpt lat="43.25547" lon="2.43808">
        <ele>113.7</ele>
        <time>2019-06-23T06:03:38.000Z</time>
      </trkpt>
      <trkpt lat="43.25549" lon="2.43809">
        <ele>113.7</ele>
        <time>2019-06-23T06:03:39.000Z</time>
      </trkpt>
      <trkpt lat="43.25551" lon="2.4381">
        <ele>113.8</ele>
        <time>2019-06-23T06:03:40.000Z</time>
      </trkpt>
      <trkpt lat="43.25553" lon="2.43811">
        <ele>113.9</ele>
        <time>2019-06-23T06:03:41.000Z</time>
      </trkpt>
      <trkpt lat="43.25555" lon="2.43812">
        <ele>113.9</ele>
        <time>2019-06-23T06:03:42.000Z</time>
      </trkpt>
      <trkpt lat="43.25558" lon="2.43813">
        <ele>114</ele>
        <time>2019-06-23T06:03:43.000Z</time>
      </trkpt>
      <trkpt lat="43.2556" lon="2.43814">
        <ele>114.1</ele>
        <time>2019-06-23T06:03:44.000Z</time>
      </trkpt>
      <trkpt lat="43.25562" lon="2.43815">
        <ele>114.1</ele>
        <time>2019-06-23T06:03:45.000Z</time>
      </trkpt>
      <trkpt lat="43.25564" lon="2.43816">
        <ele>114.2</ele>
        <time>2019-06-23T06:03:46.000Z</time>
      </trkpt>
      <trkpt lat="43.25567" lon="2.43817">
        <ele>114.2</ele>
        <time>2019-06-23T06:03:47.000Z</time>
      </trkpt>
      <trkpt lat="43.25569" lon="2.43817">
        <ele>114.3</ele>
        <time>2019-06-23T06:03:48.000Z</time>
      </trkpt>
      <trkpt lat="43.25571" lon="2.43818">
        <ele>114.4</ele>
        <time>2019-06-23T06:03:49.000Z</time>
      </trkpt>
      <trkpt lat="43.25573" lon="2.43819">
        <ele>114.4</ele>
        <time>2019-06-23T06:03:50.000Z</time>
      </trkpt>
      <trkpt lat="43.25576" lon="2.43819">
        <ele>114.5</ele>
        <time>2019-06-23T06:03:51.000Z</time>
      </trkpt>
      <trkpt lat="43.25578" lon="2.4382">
        <ele>114.6</ele>
        <time>2019-06-23T06:03:52.000Z</time>
      </trkpt>
      <trkpt lat="43.2558" lon="2.4382">
        <ele>114.6</ele>
        <time>2019-06-23T06:03:53.000Z</time>
      </trkpt>
      <trkpt lat="43.25582" lon="2.43821">
        <ele>114.7</ele>
        <time>2019-06-23T06:03:54.000Z</time>
      </trkpt>
      <trkpt lat="43.25584" lon="2.43821">
        <ele>114.8</ele>
        <time>2019-06-23T06:03:55.000Z</time>
      </trkpt>
      <trkpt lat="43.25587" lon="2.43821">
        <ele>114.8</ele>
        <time>2019-06-23T06:03:56.000Z</time>
      </trkpt>
      <trkpt lat="43.25589" lon="2.43822">
        <ele>114.8</ele>
        <time>2019-06-23T06:03:57.000Z</time>
      </trkpt>
      <trkpt lat="43.25591" lon="2.43822">
        <ele>114.8</ele>
        <time>2019-06-23T06:03:58.000Z</time>
      </trkpt>
      <trkpt lat="43.25593" lon="2.43823">
        <ele>114.8</ele>
        <time>2019-06-23T06:03:59.000Z</time>
      </trkpt>
      <trkpt lat="43.25595" lon="2.43823">
        <ele>114.8</ele>
        <time>2019-06-23T06:04:00.000Z</time>
      </trkpt>
      <trkpt lat="43.25598" lon="2.43823">
        <ele>114.8</ele>
        <time>2019-06-23T06:04:01.000Z</time>
      </trkpt>
      <trkpt lat="43.256" lon="2.43824">
        <ele>114.8</ele>
        <time>2019-06-23T06:04:02.000Z</time>
      </trkpt>
      <trkpt lat="43.25602" lon="2.43824">
        <ele>114.8</ele>
        <time>2019-06-23T06:04:03.000Z</time>
      </trkpt>
      <trkpt lat="43.25604" lon="2.43825">
        <ele>114.9</ele>
        <time>2019-06-23T06:04:04.000Z</time>
      </trkpt>
      <trkpt lat="43.25606" lon="2.43825">
        <ele>114.9</ele>
        <time>2019-06-23T06:04:05.000Z</time>
      </trkpt>
      <trkpt lat="43.25609" lon="2.43825">
        <ele>114.9</ele>
        <time>2019-06-23T06:04:06.000Z</time>
      </trkpt>
      <trkpt lat="43.25611" lon="2.43826">
        <ele>114.9</ele>
        <time>2019-06-23T06:04:07.000Z</time>
      </trkpt>
      <trkpt lat="43.25613" lon="2.43826">
        <ele>114.9</ele>
        <time>2019-06-23T06:04:08.000Z</time>
      </trkpt>
      <trkpt lat="43.25615" lon="2.43826">
        <ele>114.9</ele>
        <time>2019-06-23T06:04:09.000Z</time>
      </trkpt>
      <trkpt lat="43.25617" lon="2.43826">
        <ele>115</ele>
        <time>2019-06-23T06:04:10.000Z</time>
      </trkpt>
      <trkpt lat="43.2562" lon="2.43826">
        <ele>115</ele>
        <time>2019-06-23T06:04:11.000Z</time>
      </trkpt>
      <trkpt lat="43.25622" lon="2.43826">
        <ele>115</ele>
        <time>2019-06-23T06:04:12.000Z</time>
      </trkpt>
      <trkpt lat="43.25624" lon="2.43826">
        <ele>115.1</ele>
        <time>2019-06-23T06:04:13.000Z</time>
      </trkpt>
      <trkpt lat="43.25626" lon="2.43825">
        <ele>115.1</ele>
        <time>2019-06-23T06:04:14.000Z</time>
      </trkpt>
      <trkpt lat="43.25628" lon="2.43825">
        <ele>115.2</ele>
        <time>2019-06-23T06:04:15.000Z</time>
      </trkpt>
      <trkpt lat="43.2563" lon="2.43824">
        <ele>115.3</ele>
        <time>2019-06-23T06:04:16.000Z</time>
      </trkpt>
      <trkpt lat="43.25632" lon="2.43823">
        <ele>115.4</ele>
        <time>2019-06-23T06:04:17.000Z</time>
      </trkpt>
      <trkpt lat="43.25634" lon="2.43822">
        <ele>115.5</ele>
        <time>2019-06-23T06:04:18.000Z</time>
      </trkpt>
      <trkpt lat="43.25635" lon="2.43821">
        <ele>115.6</ele>
        <time>2019-06-23T06:04:19.000Z</time>
      </trkpt>
      <trkpt lat="43.25637" lon="2.4382">
        <ele>115.7</ele>
        <time>2019-06-23T06:04:20.000Z</time>
      </trkpt>
      <trkpt lat="43.25638" lon="2.43819">
        <ele>115.9</ele>
        <time>2019-06-23T06:04:21.000Z</time>
      </trkpt>
      <trkpt lat="43.25639" lon="2.43818">
        <ele>116</ele>
        <time>2019-06-23T06:04:22.000Z</time>
      </trkpt>
      <trkpt lat="43.2564" lon="2.43816">
        <ele>116.1</ele>
        <time>2019-06-23T06:04:23.000Z</time>
      </trkpt>
      <trkpt lat="43.25641" lon="2.43815">
        <ele>116.2</ele>
        <time>2019-06-23T06:04:24.000Z</time>
      </trkpt>
      <trkpt lat="43.25643" lon="2.43814">
        <ele>116.4</ele>
        <time>2019-06-23T06:04:25.000Z</time>
      </trkpt>
      <trkpt lat="43.25644" lon="2.43813">
        <ele>116.5</ele>
        <time>2019-06-23T06:04:26.000Z</time>
      </trkpt>
      <trkpt lat="43.25646" lon="2.43812">
        <ele>116.6</ele>
        <time>2019-06-23T06:04:27.000Z</time>
      </trkpt>
      <trkpt lat="43.25648" lon="2.43811">
        <ele>116.8</ele>
        <time>2019-06-23T06:04:28.000Z</time>
      </trkpt>
      <trkpt lat="43.2565" lon="2.4381">
        <ele>116.9</ele>
        <time>2019-06-23T06:04:29.000Z</time>
      </trkpt>
      <trkpt lat="43.25652" lon="2.43808">
        <ele>117.1</ele>
        <time>2019-06-23T06:04:30.000Z</time>
      </trkpt>
      <trkpt lat="43.25654" lon="2.43807">
        <ele>117.2</ele>
        <time>2019-06-23T06:04:31.000Z</time>
      </trkpt>
      <trkpt lat="43.25656" lon="2.43806">
        <ele>117.4</ele>
        <time>2019-06-23T06:04:32.000Z</time>
      </trkpt>
      <trkpt lat="43.25659" lon="2.43804">
        <ele>117.6</ele>
        <time>2019-06-23T06:04:33.000Z</time>
      </trkpt>
      <trkpt lat="43.25661" lon="2.43803">
        <ele>117.8</ele>
        <time>2019-06-23T06:04:34.000Z</time>
      </trkpt>
      <trkpt lat="43.25664" lon="2.43802">
        <ele>118</ele>
        <time>2019-06-23T06:04:35.000Z</time>
      </trkpt>
      <trkpt lat="43.25666" lon="2.43801">
        <ele>118.1</ele>
        <time>2019-06-23T06:04:36.000Z</time>
      </trkpt>
      <trkpt lat="43.25668" lon="2.43799">
        <ele>118.2</ele>
        <time>2019-06-23T06:04:37.000Z</time>
      </trkpt>
      <trkpt lat="43.25671" lon="2.43798">
        <ele>118.3</ele>
        <time>2019-06-23T06:04:38.000Z</time>
      </trkpt>
      <trkpt lat="43.25673" lon="2.43797">
        <ele>118.4</ele>
        <time>2019-06-23T06:04:39.000Z</time>
      </trkpt>
      <trkpt lat="43.25675" lon="2.43796">
        <ele>118.4</ele>
        <time>2019-06-23T06:04:40.000Z</time>
      </trkpt>
      <trkpt lat="43.25676" lon="2.43794">
        <ele>118.5</ele>
        <time>2019-06-23T06:04:41.000Z</time>
      </trkpt>
      <trkpt lat="43.25678" lon="2.43793">
        <ele>118.5</ele>
        <time>2019-06-23T06:04:42.000Z</time>
      </trkpt>
      <trkpt lat="43.2568" lon="2.43792">
        <ele>118.6</ele>
        <time>2019-06-23T06:04:43.000Z</time>
      </trkpt>
      <trkpt lat="43.25682" lon="2.43791">
        <ele>118.7</ele>
        <time>2019-06-23T06:04:44.000Z</time>
      </trkpt>
      <trkpt lat="43.25683" lon="2.43789">
        <ele>118.7</ele>
        <time>2019-06-23T06:04:45.000Z</time>
      </trkpt>
      <trkpt lat="43.25685" lon="2.43788">
        <ele>118.8</ele>
        <time>2019-06-23T06:04:46.000Z</time>
      </trkpt>
      <trkpt lat="43.25686" lon="2.43787">
        <ele>118.8</ele>
        <time>2019-06-23T06:04:47.000Z</time>
      </trkpt>
      <trkpt lat="43.25688" lon="2.43786">
        <ele>118.9</ele>
        <time>2019-06-23T06:04:48.000Z</time>
      </trkpt>
      <trkpt lat="43.2569" lon="2.43784">
        <ele>119</ele>
        <time>2019-06-23T06:04:49.000Z</time>
      </trkpt>
      <trkpt lat="43.25691" lon="2.43783">
        <ele>119</ele>
        <time>2019-06-23T06:04:50.000Z</time>
      </trkpt>
      <trkpt lat="43.25693" lon="2.43781">
        <ele>119.1</ele>
        <time>2019-06-23T06:04:51.000Z</time>
      </trkpt>
      <trkpt lat="43.25695" lon="2.4378">
        <ele>119.1</ele>
        <time>2019-06-23T06:04:52.000Z</time>
      </trkpt>
      <trkpt lat="43.25697" lon="2.43778">
        <ele>119.2</ele>
        <time>2019-06-23T06:04:53.000Z</time>
      </trkpt>
      <trkpt lat="43.25699" lon="2.43777">
        <ele>119.2</ele>
        <time>2019-06-23T06:04:54.000Z</time>
      </trkpt>
      <trkpt lat="43.25701" lon="2.43775">
        <ele>119.3</ele>
        <time>2019-06-23T06:04:55.000Z</time>
      </trkpt>
      <trkpt lat="43.25703" lon="2.43774">
        <ele>119.3</ele>
        <time>2019-06-23T06:04:56.000Z</time>
      </trkpt>
      <trkpt lat="43.25705" lon="2.43773">
        <ele>119.4</ele>
        <time>2019-06-23T06:04:57.000Z</time>
      </trkpt>
      <trkpt lat="43.25707" lon="2.43771">
        <ele>119.4</ele>
        <time>2019-06-23T06:04:58.000Z</time>
      </trkpt>
      <trkpt lat="43.25709" lon="2.4377">
        <ele>119.4</ele>
        <time>2019-06-23T06:04:59.000Z</time>
      </trkpt>
      <trkpt lat="43.2571" lon="2.43769">
        <ele>119.5</ele>
        <time>2019-06-23T06:05:00.000Z</time>
      </trkpt>
      <trkpt lat="43.25711" lon="2.43768">
        <ele>119.5</ele>
        <time>2019-06-23T06:05:01.000Z</time>
      </trkpt>
      <trkpt lat="43.25713" lon="2.43767">
        <ele>119.5</ele>
        <time>2019-06-23T06:05:02.000Z</time>
      </trkpt>
      <trkpt lat="43.25714" lon="2.43765">
        <ele>119.6</ele>
        <time>2019-06-23T06:05:03.000Z</time>
      </trkpt>
      <trkpt lat="43.25716" lon="2.43764">
        <ele>119.6</ele>
        <time>2019-06-23T06:05:04.000Z</time>
      </trkpt>
      <trkpt lat="43.25717" lon="2.43763">
        <ele>119.6</ele>
        <time>2019-06-23T06:05:05.000Z</time>
      </trkpt>
      <trkpt lat="43.25719" lon="2.43762">
        <ele>119.6</ele>
        <time>2019-06-23T06:05:06.000Z</time>
      </trkpt>
      <trkpt lat="43.25721" lon="2.4376">
        <ele>119.7</ele>
        <time>2019-06-23T06:05:07.000Z</time>
      </trkpt>
      <trkpt lat="43.25723" lon="2.43758">
        <ele>119.7</ele>
        <time>2019-06-23T06:05:08.000Z</time>
      </trkpt>
      <trkpt lat="43.25726" lon="2.43756">
        <ele>119.7</ele>
        <time>2019-06-23T06:05:09.000Z</time>
      </trkpt>
      <trkpt lat="43.25728" lon="2.43755">
        <ele>119.7</ele>
        <time>2019-06-23T06:05:10.000Z</time>
      </trkpt>
      <trkpt lat="43.2573" lon="2.43753">
        <ele>119.8</ele>
        <time>2019-06-23T06:05:11.000Z</time>
      </trkpt>
      <trkpt lat="43.25733" lon="2.43751">
        <ele>119.8</ele>
        <time>2019-06-23T06:05:12.000Z</time>
      </trkpt>
      <trkpt lat="43.25735" lon="2.43749">
        <ele>119.8</ele>
        <time>2019-06-23T06:05:13.000Z</time>
      </trkpt>
      <trkpt lat="43.25737" lon="2.43747">
        <ele>119.9</ele>
        <time>2019-06-23T06:05:14.000Z</time>
      </trkpt>
      <trkpt lat="43.2574" lon="2.43745">
        <ele>120</ele>
        <time>2019-06-23T06:05:15.000Z</time>
      </trkpt>
      <trkpt lat="43.25742" lon="2.43743">
        <ele>120</ele>
        <time>2019-06-23T06:05:16.000Z</time>
      </trkpt>
      <trkpt lat="43.25744" lon="2.43741">
        <ele>120.1</ele>
        <time>2019-06-23T06:05:17.000Z</time>
      </trkpt>
      <trkpt lat="43.25745" lon="2.4374">
        <ele>120.2</ele>
        <time>2019-06-23T06:05:18.000Z</time>
      </trkpt>
      <trkpt lat="43.25747" lon="2.43738">
        <ele>120.3</ele>
        <time>2019-06-23T06:05:19.000Z</time>
      </trkpt>
      <trkpt lat="43.25749" lon="2.43736">
        <ele>120.4</ele>
        <time>2019-06-23T06:05:20.000Z</time>
      </trkpt>
      <trkpt lat="43.25751" lon="2.43735">
        <ele>120.5</ele>
        <time>2019-06-23T06:05:21.000Z</time>
      </trkpt>
      <trkpt lat="43.25752" lon="2.43733">
        <ele>120.6</ele>
        <time>2019-06-23T06:05:22.000Z</time>
      </trkpt>
      <trkpt lat="43.25754" lon="2.43732">
        <ele>120.7</ele>
        <time>2019-06-23T06:05:23.000Z</time>
      </trkpt>
      <trkpt lat="43.25756" lon="2.4373">
        <ele>120.9</ele>
        <time>2019-06-23T06:05:24.000Z</time>
      </trkpt>
      <trkpt lat="43.25757" lon="2.43728">
        <ele>121</ele>
        <time>2019-06-23T06:05:25.000Z</time>
      </trkpt>
      <trkpt lat="43.25759" lon="2.43727">
        <ele>121.1</ele>
        <time>2019-06-23T06:05:26.000Z</time>
      </trkpt>
      <trkpt lat="43.25761" lon="2.43726">
        <ele>121.2</ele>
        <time>2019-06-23T06:05:27.000Z</time>
      </trkpt>
      <trkpt lat="43.25763" lon="2.43724">
        <ele>121.3</ele>
        <time>2019-06-23T06:05:28.000Z</time>
      </trkpt>
      <trkpt lat="43.25765" lon="2.43723">
        <ele>121.4</ele>
        <time>2019-06-23T06:05:29.000Z</time>
      </trkpt>
      <trkpt lat="43.25767" lon="2.43722">
        <ele>121.5</ele>
        <time>2019-06-23T06:05:30.000Z</time>
      </trkpt>
      <trkpt lat="43.25769" lon="2.43721">
        <ele>121.5</ele>
        <time>2019-06-23T06:05:31.000Z</time>
      </trkpt>
      <trkpt lat="43.25771" lon="2.43721">
        <ele>121.6</ele>
        <time>2019-06-23T06:05:32.000Z</time>
      </trkpt>
      <trkpt lat="43.25773" lon="2.4372">
        <ele>121.6</ele>
        <time>2019-06-23T06:05:33.000Z</time>
      </trkpt>
      <trkpt lat="43.25775" lon="2.4372">
        <ele>121.6</ele>
        <time>2019-06-23T06:05:34.000Z</time>
      </trkpt>
      <trkpt lat="43.25777" lon="2.4372">
        <ele>121.6</ele>
        <time>2019-06-23T06:05:35.000Z</time>
      </trkpt>
      <trkpt lat="43.25779" lon="2.43719">
        <ele>121.6</ele>
        <time>2019-06-23T06:05:36.000Z</time>
      </trkpt>
      <trkpt lat="43.25781" lon="2.43719">
        <ele>121.6</ele>
        <time>2019-06-23T06:05:37.000Z</time>
      </trkpt>
      <trkpt lat="43.25783" lon="2.43719">
        <ele>121.6</ele>
        <time>2019-06-23T06:05:38.000Z</time>
      </trkpt>
      <trkpt lat="43.25785" lon="2.43719">
        <ele>121.5</ele>
        <time>2019-06-23T06:05:39.000Z</time>
      </trkpt>
      <trkpt lat="43.25788" lon="2.43719">
        <ele>121.5</ele>
        <time>2019-06-23T06:05:40.000Z</time>
      </trkpt>
      <trkpt lat="43.2579" lon="2.4372">
        <ele>121.5</ele>
        <time>2019-06-23T06:05:41.000Z</time>
      </trkpt>
      <trkpt lat="43.25792" lon="2.4372">
        <ele>121.4</ele>
        <time>2019-06-23T06:05:42.000Z</time>
      </trkpt>
      <trkpt lat="43.25794" lon="2.4372">
        <ele>121.4</ele>
        <time>2019-06-23T06:05:43.000Z</time>
      </trkpt>
      <trkpt lat="43.25796" lon="2.4372">
        <ele>121.3</ele>
        <time>2019-06-23T06:05:44.000Z</time>
      </trkpt>
      <trkpt lat="43.25798" lon="2.43721">
        <ele>121.2</ele>
        <time>2019-06-23T06:05:45.000Z</time>
      </trkpt>
      <trkpt lat="43.25801" lon="2.43721">
        <ele>121.2</ele>
        <time>2019-06-23T06:05:46.000Z</time>
      </trkpt>
      <trkpt lat="43.25803" lon="2.43721">
        <ele>121.1</ele>
        <time>2019-06-23T06:05:47.000Z</time>
      </trkpt>
      <trkpt lat="43.25805" lon="2.43722">
        <ele>121.1</ele>
        <time>2019-06-23T06:05:48.000Z</time>
      </trkpt>
      <trkpt lat="43.25807" lon="2.43722">
        <ele>121</ele>
        <time>2019-06-23T06:05:49.000Z</time>
      </trkpt>
      <trkpt lat="43.25809" lon="2.43722">
        <ele>120.9</ele>
        <time>2019-06-23T06:05:50.000Z</time>
      </trkpt>
      <trkpt lat="43.25811" lon="2.43723">
        <ele>120.9</ele>
        <time>2019-06-23T06:05:51.000Z</time>
      </trkpt>
      <trkpt lat="43.25813" lon="2.43723">
        <ele>120.8</ele>
        <time>2019-06-23T06:05:52.000Z</time>
      </trkpt>
      <trkpt lat="43.25815" lon="2.43724">
        <ele>120.8</ele>
        <time>2019-06-23T06:05:53.000Z</time>
      </trkpt>
      <trkpt lat="43.25818" lon="2.43724">
        <ele>120.7</ele>
        <time>2019-06-23T06:05:54.000Z</time>
      </trkpt>
      <trkpt lat="43.2582" lon="2.43724">
        <ele>120.6</ele>
        <time>2019-06-23T06:05:55.000Z</time>
      </trkpt>
      <trkpt lat="43.25822" lon="2.43725">
        <ele>120.6</ele>
        <time>2019-06-23T06:05:56.000Z</time>
      </trkpt>
      <trkpt lat="43.25824" lon="2.43725">
        <ele>120.5</ele>
        <time>2019-06-23T06:05:57.000Z</time>
      </trkpt>
      <trkpt lat="43.25826" lon="2.43725">
        <ele>120.4</ele>
        <time>2019-06-23T06:05:58.000Z</time>
      </trkpt>
      <trkpt lat="43.25828" lon="2.43726">
        <ele>120.4</ele>
        <time>2019-06-23T06:05:59.000Z</time>
      </trkpt>
      <trkpt lat="43.2583" lon="2.43726">
        <ele>120.3</ele>
        <time>2019-06-23T06:06:00.000Z</time>
      </trkpt>
      <trkpt lat="43.25833" lon="2.43727">
        <ele>120.3</ele>
        <time>2019-06-23T06:06:01.000Z</time>
      </trkpt>
      <trkpt lat="43.25835" lon="2.43727">
        <ele>120.2</ele>
        <time>2019-06-23T06:06:02.000Z</time>
      </trkpt>
      <trkpt lat="43.25837" lon="2.43727">
        <ele>120.2</ele>
        <time>2019-06-23T06:06:03.000Z</time>
      </trkpt>
      <trkpt lat="43.25839" lon="2.43728">
        <ele>120.2</ele>
        <time>2019-06-23T06:06:04.000Z</time>
      </trkpt>
      <trkpt lat="43.25841" lon="2.43728">
        <ele>120.2</ele>
        <time>2019-06-23T06:06:05.000Z</time>
      </trkpt>
      <trkpt lat="43.25844" lon="2.43728">
        <ele>120.1</ele>
        <time>2019-06-23T06:06:06.000Z</time>
      </trkpt>
      <trkpt lat="43.25846" lon="2.43729">
        <ele>120.1</ele>
        <time>2019-06-23T06:06:07.000Z</time>
      </trkpt>
      <trkpt lat="43.25848" lon="2.43729">
        <ele>120.1</ele>
        <time>2019-06-23T06:06:08.000Z</time>
      </trkpt>
      <trkpt lat="43.2585" lon="2.43729">
        <ele>120.1</ele>
        <time>2019-06-23T06:06:09.000Z</time>
      </trkpt>
      <trkpt lat="43.25853" lon="2.4373">
        <ele>120.1</ele>
        <time>2019-06-23T06:06:10.000Z</time>
      </trkpt>
      <trkpt lat="43.25855" lon="2.4373">
        <ele>120</ele>
        <time>2019-06-23T06:06:11.000Z</time>
      </trkpt>
      <trkpt lat="43.25857" lon="2.43731">
        <ele>120</ele>
        <time>2019-06-23T06:06:12.000Z</time>
      </trkpt>
      <trkpt lat="43.2586" lon="2.43731">
        <ele>120</ele>
        <time>2019-06-23T06:06:13.000Z</time>
      </trkpt>
      <trkpt lat="43.25862" lon="2.43731">
        <ele>120</ele>
        <time>2019-06-23T06:06:14.000Z</time>
      </trkpt>
      <trkpt lat="43.25864" lon="2.43732">
        <ele>120</ele>
        <time>2019-06-23T06:06:15.000Z</time>
      </trkpt>
      <trkpt lat="43.25867" lon="2.43732">
        <ele>120</ele>
        <time>2019-06-23T06:06:16.000Z</time>
      </trkpt>
      <trkpt lat="43.25869" lon="2.43732">
        <ele>120</ele>
        <time>2019-06-23T06:06:17.000Z</time>
      </trkpt>
      <trkpt lat="43.25871" lon="2.43733">
        <ele>119.9</ele>
        <time>2019-06-23T06:06:18.000Z</time>
      </trkpt>
      <trkpt lat="43.25873" lon="2.43733">
        <ele>119.9</ele>
        <time>2019-06-23T06:06:19.000Z</time>
      </trkpt>
      <trkpt lat="43.25876" lon="2.43733">
        <ele>119.9</ele>
        <time>2019-06-23T06:06:20.000Z</time>
      </trkpt>
      <trkpt lat="43.25878" lon="2.43734">
        <ele>119.9</ele>
        <time>2019-06-23T06:06:21.000Z</time>
      </trkpt>
      <trkpt lat="43.2588" lon="2.43734">
        <ele>119.9</ele>
        <time>2019-06-23T06:06:22.000Z</time>
      </trkpt>
      <trkpt lat="43.25883" lon="2.43734">
        <ele>119.9</ele>
        <time>2019-06-23T06:06:23.000Z</time>
      </trkpt>
      <trkpt lat="43.25885" lon="2.43735">
        <ele>119.9</ele>
        <time>2019-06-23T06:06:24.000Z</time>
      </trkpt>
      <trkpt lat="43.25887" lon="2.43735">
        <ele>119.8</ele>
        <time>2019-06-23T06:06:25.000Z</time>
      </trkpt>
      <trkpt lat="43.2589" lon="2.43736">
        <ele>119.8</ele>
        <time>2019-06-23T06:06:26.000Z</time>
      </trkpt>
      <trkpt lat="43.25892" lon="2.43736">
        <ele>119.8</ele>
        <time>2019-06-23T06:06:27.000Z</time>
      </trkpt>
      <trkpt lat="43.25894" lon="2.43736">
        <ele>119.8</ele>
        <time>2019-06-23T06:06:28.000Z</time>
      </trkpt>
      <trkpt lat="43.25896" lon="2.43737">
        <ele>119.8</ele>
        <time>2019-06-23T06:06:29.000Z</time>
      </trkpt>
      <trkpt lat="43.25899" lon="2.43737">
        <ele>119.8</ele>
        <time>2019-06-23T06:06:30.000Z</time>
      </trkpt>
      <trkpt lat="43.25901" lon="2.43737">
        <ele>119.8</ele>
        <time>2019-06-23T06:06:31.000Z</time>
      </trkpt>
      <trkpt lat="43.25903" lon="2.43738">
        <ele>119.8</ele>
        <time>2019-06-23T06:06:32.000Z</time>
      </trkpt>
      <trkpt lat="43.25905" lon="2.43738">
        <ele>119.8</ele>
        <time>2019-06-23T06:06:33.000Z</time>
      </trkpt>
      <trkpt lat="43.25908" lon="2.43739">
        <ele>119.7</ele>
        <time>2019-06-23T06:06:34.000Z</time>
      </trkpt>
      <trkpt lat="43.2591" lon="2.43739">
        <ele>119.7</ele>
        <time>2019-06-23T06:06:35.000Z</time>
      </trkpt>
      <trkpt lat="43.25912" lon="2.43739">
        <ele>119.7</ele>
        <time>2019-06-23T06:06:36.000Z</time>
      </trkpt>
      <trkpt lat="43.25914" lon="2.4374">
        <ele>119.7</ele>
        <time>2019-06-23T06:06:37.000Z</time>
      </trkpt>
      <trkpt lat="43.25916" lon="2.4374">
        <ele>119.7</ele>
        <time>2019-06-23T06:06:38.000Z</time>
      </trkpt>
      <trkpt lat="43.25918" lon="2.43741">
        <ele>119.7</ele>
        <time>2019-06-23T06:06:39.000Z</time>
      </trkpt>
      <trkpt lat="43.25921" lon="2.43742">
        <ele>119.7</ele>
        <time>2019-06-23T06:06:40.000Z</time>
      </trkpt>
      <trkpt lat="43.25923" lon="2.43742">
        <ele>119.8</ele>
        <time>2019-06-23T06:06:41.000Z</time>
      </trkpt>
      <trkpt lat="43.25925" lon="2.43743">
        <ele>119.8</ele>
        <time>2019-06-23T06:06:42.000Z</time>
      </trkpt>
      <trkpt lat="43.25927" lon="2.43744">
        <ele>119.8</ele>
        <time>2019-06-23T06:06:43.000Z</time>
      </trkpt>
      <trkpt lat="43.25929" lon="2.43744">
        <ele>119.8</ele>
        <time>2019-06-23T06:06:44.000Z</time>
      </trkpt>
      <trkpt lat="43.25931" lon="2.43745">
        <ele>119.8</ele>
        <time>2019-06-23T06:06:45.000Z</time>
      </trkpt>
      <trkpt lat="43.25933" lon="2.43746">
        <ele>119.9</ele>
        <time>2019-06-23T06:06:46.000Z</time>
      </trkpt>
      <trkpt lat="43.25936" lon="2.43747">
        <ele>119.9</ele>
        <time>2019-06-23T06:06:47.000Z</time>
      </trkpt>
      <trkpt lat="43.25938" lon="2.43748">
        <ele>119.9</ele>
        <time>2019-06-23T06:06:48.000Z</time>
      </trkpt>
      <trkpt lat="43.2594" lon="2.43749">
        <ele>119.9</ele>
        <time>2019-06-23T06:06:49.000Z</time>
      </trkpt>
      <trkpt lat="43.25942" lon="2.4375">
        <ele>119.9</ele>
        <time>2019-06-23T06:06:50.000Z</time>
      </trkpt>
      <trkpt lat="43.25944" lon="2.43751">
        <ele>119.9</ele>
        <time>2019-06-23T06:06:51.000Z</time>
      </trkpt>
      <trkpt lat="43.25946" lon="2.43752">
        <ele>119.9</ele>
        <time>2019-06-23T06:06:52.000Z</time>
      </trkpt>
      <trkpt lat="43.25949" lon="2.43754">
        <ele>119.9</ele>
        <time>2019-06-23T06:06:53.000Z</time>
      </trkpt>
      <trkpt lat="43.25951" lon="2.43755">
        <ele>119.9</ele>
        <time>2019-06-23T06:06:54.000Z</time>
      </trkpt>
      <trkpt lat="43.25953" lon="2.43756">
        <ele>120</ele>
        <time>2019-06-23T06:06:55.000Z</time>
      </trkpt>
      <trkpt lat="43.25955" lon="2.43757">
        <ele>120</ele>
        <time>2019-06-23T06:06:56.000Z</time>
      </trkpt>
      <trkpt lat="43.25957" lon="2.43758">
        <ele>120</ele>
        <time>2019-06-23T06:06:57.000Z</time>
      </trkpt>
      <trkpt lat="43.25959" lon="2.43759">
        <ele>120</ele>
        <time>2019-06-23T06:06:58.000Z</time>
      </trkpt>
      <trkpt lat="43.25962" lon="2.4376">
        <ele>120</ele>
        <time>2019-06-23T06:06:59.000Z</time>
      </trkpt>
      <trkpt lat="43.25964" lon="2.4376">
        <ele>120.1</ele>
        <time>2019-06-23T06:07:00.000Z</time>
      </trkpt>
      <trkpt lat="43.25966" lon="2.43761">
        <ele>120.1</ele>
        <time>2019-06-23T06:07:01.000Z</time>
      </trkpt>
      <trkpt lat="43.25968" lon="2.43762">
        <ele>120.2</ele>
        <time>2019-06-23T06:07:02.000Z</time>
      </trkpt>
      <trkpt lat="43.25971" lon="2.43762">
        <ele>120.2</ele>
        <time>2019-06-23T06:07:03.000Z</time>
      </trkpt>
      <trkpt lat="43.25973" lon="2.43762">
        <ele>120.3</ele>
        <time>2019-06-23T06:07:04.000Z</time>
      </trkpt>
      <trkpt lat="43.25975" lon="2.43763">
        <ele>120.3</ele>
        <time>2019-06-23T06:07:05.000Z</time>
      </trkpt>
      <trkpt lat="43.25977" lon="2.43763">
        <ele>120.4</ele>
        <time>2019-06-23T06:07:06.000Z</time>
      </trkpt>
      <trkpt lat="43.2598" lon="2.43763">
        <ele>120.5</ele>
        <time>2019-06-23T06:07:07.000Z</time>
      </trkpt>
      <trkpt lat="43.25982" lon="2.43763">
        <ele>120.6</ele>
        <time>2019-06-23T06:07:08.000Z</time>
      </trkpt>
      <trkpt lat="43.25984" lon="2.43763">
        <ele>120.7</ele>
        <time>2019-06-23T06:07:09.000Z</time>
      </trkpt>
      <trkpt lat="43.25987" lon="2.43762">
        <ele>120.8</ele>
        <time>2019-06-23T06:07:10.000Z</time>
      </trkpt>
      <trkpt lat="43.25989" lon="2.43762">
        <ele>120.9</ele>
        <time>2019-06-23T06:07:11.000Z</time>
      </trkpt>
      <trkpt lat="43.25991" lon="2.43762">
        <ele>121</ele>
        <time>2019-06-23T06:07:12.000Z</time>
      </trkpt>
      <trkpt lat="43.25993" lon="2.43761">
        <ele>121.1</ele>
        <time>2019-06-23T06:07:13.000Z</time>
      </trkpt>
      <trkpt lat="43.25995" lon="2.4376">
        <ele>121.2</ele>
        <time>2019-06-23T06:07:14.000Z</time>
      </trkpt>
      <trkpt lat="43.25998" lon="2.4376">
        <ele>121.3</ele>
        <time>2019-06-23T06:07:15.000Z</time>
      </trkpt>
      <trkpt lat="43.26" lon="2.43759">
        <ele>121.4</ele>
        <time>2019-06-23T06:07:16.000Z</time>
      </trkpt>
      <trkpt lat="43.26002" lon="2.43758">
        <ele>121.5</ele>
        <time>2019-06-23T06:07:17.000Z</time>
      </trkpt>
      <trkpt lat="43.26004" lon="2.43757">
        <ele>121.5</ele>
        <time>2019-06-23T06:07:18.000Z</time>
      </trkpt>
      <trkpt lat="43.26006" lon="2.43756">
        <ele>121.6</ele>
        <time>2019-06-23T06:07:19.000Z</time>
      </trkpt>
      <trkpt lat="43.26008" lon="2.43755">
        <ele>121.6</ele>
        <time>2019-06-23T06:07:20.000Z</time>
      </trkpt>
      <trkpt lat="43.2601" lon="2.43754">
        <ele>121.6</ele>
        <time>2019-06-23T06:07:21.000Z</time>
      </trkpt>
      <trkpt lat="43.26012" lon="2.43753">
        <ele>121.7</ele>
        <time>2019-06-23T06:07:22.000Z</time>
      </trkpt>
      <trkpt lat="43.26014" lon="2.43752">
        <ele>121.7</ele>
        <time>2019-06-23T06:07:23.000Z</time>
      </trkpt>
      <trkpt lat="43.26016" lon="2.43751">
        <ele>121.8</ele>
        <time>2019-06-23T06:07:24.000Z</time>
      </trkpt>
      <trkpt lat="43.26018" lon="2.4375">
        <ele>121.8</ele>
        <time>2019-06-23T06:07:25.000Z</time>
      </trkpt>
      <trkpt lat="43.2602" lon="2.43749">
        <ele>121.8</ele>
        <time>2019-06-23T06:07:26.000Z</time>
      </trkpt>
      <trkpt lat="43.26022" lon="2.43748">
        <ele>121.8</ele>
        <time>2019-06-23T06:07:27.000Z</time>
      </trkpt>
      <trkpt lat="43.26024" lon="2.43747">
        <ele>121.9</ele>
        <time>2019-06-23T06:07:28.000Z</time>
      </trkpt>
      <trkpt lat="43.26026" lon="2.43746">
        <ele>121.9</ele>
        <time>2019-06-23T06:07:29.000Z</time>
      </trkpt>
      <trkpt lat="43.26027" lon="2.43745">
        <ele>121.9</ele>
        <time>2019-06-23T06:07:30.000Z</time>
      </trkpt>
      <trkpt lat="43.26029" lon="2.43744">
        <ele>121.9</ele>
        <time>2019-06-23T06:07:31.000Z</time>
      </trkpt>
      <trkpt lat="43.26031" lon="2.43743">
        <ele>122</ele>
        <time>2019-06-23T06:07:32.000Z</time>
      </trkpt>
      <trkpt lat="43.26033" lon="2.43742">
        <ele>122</ele>
        <time>2019-06-23T06:07:33.000Z</time>
      </trkpt>
      <trkpt lat="43.26035" lon="2.43741">
        <ele>122</ele>
        <time>2019-06-23T06:07:34.000Z</time>
      </trkpt>
      <trkpt lat="43.26037" lon="2.4374">
        <ele>122.1</ele>
        <time>2019-06-23T06:07:35.000Z</time>
      </trkpt>
      <trkpt lat="43.26038" lon="2.4374">
        <ele>122.1</ele>
        <time>2019-06-23T06:07:36.000Z</time>
      </trkpt>
      <trkpt lat="43.2604" lon="2.43739">
        <ele>122.1</ele>
        <time>2019-06-23T06:07:37.000Z</time>
      </trkpt>
      <trkpt lat="43.26042" lon="2.43738">
        <ele>122.2</ele>
        <time>2019-06-23T06:07:38.000Z</time>
      </trkpt>
      <trkpt lat="43.26044" lon="2.43737">
        <ele>122.2</ele>
        <time>2019-06-23T06:07:39.000Z</time>
      </trkpt>
      <trkpt lat="43.26046" lon="2.43736">
        <ele>122.2</ele>
        <time>2019-06-23T06:07:40.000Z</time>
      </trkpt>
      <trkpt lat="43.26048" lon="2.43735">
        <ele>122.3</ele>
        <time>2019-06-23T06:07:41.000Z</time>
      </trkpt>
      <trkpt lat="43.2605" lon="2.43734">
        <ele>122.3</ele>
        <time>2019-06-23T06:07:42.000Z</time>
      </trkpt>
      <trkpt lat="43.26052" lon="2.43733">
        <ele>122.4</ele>
        <time>2019-06-23T06:07:43.000Z</time>
      </trkpt>
      <trkpt lat="43.26053" lon="2.43732">
        <ele>122.4</ele>
        <time>2019-06-23T06:07:44.000Z</time>
      </trkpt>
      <trkpt lat="43.26055" lon="2.43731">
        <ele>122.5</ele>
        <time>2019-06-23T06:07:45.000Z</time>
      </trkpt>
      <trkpt lat="43.26057" lon="2.4373">
        <ele>122.5</ele>
        <time>2019-06-23T06:07:46.000Z</time>
      </trkpt>
      <trkpt lat="43.26059" lon="2.43729">
        <ele>122.6</ele>
        <time>2019-06-23T06:07:47.000Z</time>
      </trkpt>
      <trkpt lat="43.26061" lon="2.43729">
        <ele>122.6</ele>
        <time>2019-06-23T06:07:48.000Z</time>
      </trkpt>
      <trkpt lat="43.26063" lon="2.43728">
        <ele>122.7</ele>
        <time>2019-06-23T06:07:49.000Z</time>
      </trkpt>
      <trkpt lat="43.26065" lon="2.43727">
        <ele>122.7</ele>
        <time>2019-06-23T06:07:50.000Z</time>
      </trkpt>
      <trkpt lat="43.26067" lon="2.43726">
        <ele>122.8</ele>
        <time>2019-06-23T06:07:51.000Z</time>
      </trkpt>
      <trkpt lat="43.26069" lon="2.43725">
        <ele>122.8</ele>
        <time>2019-06-23T06:07:52.000Z</time>
      </trkpt>
      <trkpt lat="43.26071" lon="2.43724">
        <ele>122.9</ele>
        <time>2019-06-23T06:07:53.000Z</time>
      </trkpt>
      <trkpt lat="43.26073" lon="2.43723">
        <ele>123</ele>
        <time>2019-06-23T06:07:54.000Z</time>
      </trkpt>
      <trkpt lat="43.26075" lon="2.43722">
        <ele>123</ele>
        <time>2019-06-23T06:07:55.000Z</time>
      </trkpt>
      <trkpt lat="43.26077" lon="2.43721">
        <ele>123.1</ele>
        <time>2019-06-23T06:07:56.000Z</time>
      </trkpt>
      <trkpt lat="43.2608" lon="2.4372">
        <ele>123.1</ele>
        <time>2019-06-23T06:07:57.000Z</time>
      </trkpt>
      <trkpt lat="43.26082" lon="2.4372">
        <ele>123.2</ele>
        <time>2019-06-23T06:07:58.000Z</time>
      </trkpt>
      <trkpt lat="43.26084" lon="2.43719">
        <ele>123.2</ele>
        <time>2019-06-23T06:07:59.000Z</time>
      </trkpt>
      <trkpt lat="43.26086" lon="2.43718">
        <ele>123.3</ele>
        <time>2019-06-23T06:08:00.000Z</time>
      </trkpt>
      <trkpt lat="43.26088" lon="2.43718">
        <ele>123.3</ele>
        <time>2019-06-23T06:08:01.000Z</time>
      </trkpt>
      <trkpt lat="43.2609" lon="2.43718">
        <ele>123.4</ele>
        <time>2019-06-23T06:08:02.000Z</time>
      </trkpt>
      <trkpt lat="43.26092" lon="2.43717">
        <ele>123.4</ele>
        <time>2019-06-23T06:08:03.000Z</time>
      </trkpt>
      <trkpt lat="43.26094" lon="2.43717">
        <ele>123.4</ele>
        <time>2019-06-23T06:08:04.000Z</time>
      </trkpt>
      <trkpt lat="43.26096" lon="2.43717">
        <ele>123.4</ele>
        <time>2019-06-23T06:08:05.000Z</time>
      </trkpt>
      <trkpt lat="43.26098" lon="2.43717">
        <ele>123.4</ele>
        <time>2019-06-23T06:08:06.000Z</time>
      </trkpt>
      <trkpt lat="43.261" lon="2.43717">
        <ele>123.4</ele>
        <time>2019-06-23T06:08:07.000Z</time>
      </trkpt>
      <trkpt lat="43.26102" lon="2.43717">
        <ele>123.4</ele>
        <time>2019-06-23T06:08:08.000Z</time>
      </trkpt>
      <trkpt lat="43.26104" lon="2.43718">
        <ele>123.4</ele>
        <time>2019-06-23T06:08:09.000Z</time>
      </trkpt>
      <trkpt lat="43.26106" lon="2.43718">
        <ele>123.4</ele>
        <time>2019-06-23T06:08:10.000Z</time>
      </trkpt>
      <trkpt lat="43.26109" lon="2.43718">
        <ele>123.4</ele>
        <time>2019-06-23T06:08:11.000Z</time>
      </trkpt>
      <trkpt lat="43.26111" lon="2.43719">
        <ele>123.3</ele>
        <time>2019-06-23T06:08:12.000Z</time>
      </trkpt>
      <trkpt lat="43.26113" lon="2.43719">
        <ele>123.3</ele>
        <time>2019-06-23T06:08:13.000Z</time>
      </trkpt>
      <trkpt lat="43.26115" lon="2.4372">
        <ele>123.3</ele>
        <time>2019-06-23T06:08:14.000Z</time>
      </trkpt>
      <trkpt lat="43.26117" lon="2.4372">
        <ele>123.2</ele>
        <time>2019-06-23T06:08:15.000Z</time>
      </trkpt>
      <trkpt lat="43.26119" lon="2.43721">
        <ele>123.2</ele>
        <time>2019-06-23T06:08:16.000Z</time>
      </trkpt>
      <trkpt lat="43.26121" lon="2.43722">
        <ele>123.2</ele>
        <time>2019-06-23T06:08:17.000Z</time>
      </trkpt>
      <trkpt lat="43.26123" lon="2.43722">
        <ele>123.1</ele>
        <time>2019-06-23T06:08:18.000Z</time>
      </trkpt>
      <trkpt lat="43.26125" lon="2.43723">
        <ele>123.1</ele>
        <time>2019-06-23T06:08:19.000Z</time>
      </trkpt>
      <trkpt lat="43.26128" lon="2.43724">
        <ele>123.1</ele>
        <time>2019-06-23T06:08:20.000Z</time>
      </trkpt>
      <trkpt lat="43.2613" lon="2.43725">
        <ele>123</ele>
        <time>2019-06-23T06:08:21.000Z</time>
      </trkpt>
      <trkpt lat="43.26132" lon="2.43725">
        <ele>123</ele>
        <time>2019-06-23T06:08:22.000Z</time>
      </trkpt>
      <trkpt lat="43.26134" lon="2.43726">
        <ele>123</ele>
        <time>2019-06-23T06:08:23.000Z</time>
      </trkpt>
      <trkpt lat="43.26137" lon="2.43727">
        <ele>123</ele>
        <time>2019-06-23T06:08:24.000Z</time>
      </trkpt>
      <trkpt lat="43.26139" lon="2.43728">
        <ele>122.9</ele>
        <time>2019-06-23T06:08:25.000Z</time>
      </trkpt>
      <trkpt lat="43.26141" lon="2.43728">
        <ele>122.9</ele>
        <time>2019-06-23T06:08:26.000Z</time>
      </trkpt>
      <trkpt lat="43.26143" lon="2.43729">
        <ele>122.9</ele>
        <time>2019-06-23T06:08:27.000Z</time>
      </trkpt>
      <trkpt lat="43.26145" lon="2.4373">
        <ele>122.8</ele>
        <time>2019-06-23T06:08:28.000Z</time>
      </trkpt>
      <trkpt lat="43.26148" lon="2.43731">
        <ele>122.8</ele>
        <time>2019-06-23T06:08:29.000Z</time>
      </trkpt>
      <trkpt lat="43.2615" lon="2.43732">
        <ele>122.8</ele>
        <time>2019-06-23T06:08:30.000Z</time>
      </trkpt>
      <trkpt lat="43.26152" lon="2.43732">
        <ele>122.7</ele>
        <time>2019-06-23T06:08:31.000Z</time>
      </trkpt>
      <trkpt lat="43.26154" lon="2.43733">
        <ele>122.7</ele>
        <time>2019-06-23T06:08:32.000Z</time>
      </trkpt>
      <trkpt lat="43.26156" lon="2.43734">
        <ele>122.7</ele>
        <time>2019-06-23T06:08:33.000Z</time>
      </trkpt>
      <trkpt lat="43.26158" lon="2.43735">
        <ele>122.7</ele>
        <time>2019-06-23T06:08:34.000Z</time>
      </trkpt>
      <trkpt lat="43.2616" lon="2.43735">
        <ele>122.6</ele>
        <time>2019-06-23T06:08:35.000Z</time>
      </trkpt>
      <trkpt lat="43.26162" lon="2.43736">
        <ele>122.6</ele>
        <time>2019-06-23T06:08:36.000Z</time>
      </trkpt>
      <trkpt lat="43.26164" lon="2.43737">
        <ele>122.6</ele>
        <time>2019-06-23T06:08:37.000Z</time>
      </trkpt>
      <trkpt lat="43.26166" lon="2.43738">
        <ele>122.6</ele>
        <time>2019-06-23T06:08:38.000Z</time>
      </trkpt>
      <trkpt lat="43.26168" lon="2.43739">
        <ele>122.6</ele>
        <time>2019-06-23T06:08:39.000Z</time>
      </trkpt>
      <trkpt lat="43.2617" lon="2.43739">
        <ele>122.7</ele>
        <time>2019-06-23T06:08:40.000Z</time>
      </trkpt>
      <trkpt lat="43.26172" lon="2.4374">
        <ele>122.7</ele>
        <time>2019-06-23T06:08:41.000Z</time>
      </trkpt>
      <trkpt lat="43.26174" lon="2.43741">
        <ele>122.8</ele>
        <time>2019-06-23T06:08:42.000Z</time>
      </trkpt>
      <trkpt lat="43.26176" lon="2.43742">
        <ele>122.8</ele>
        <time>2019-06-23T06:08:43.000Z</time>
      </trkpt>
      <trkpt lat="43.26178" lon="2.43743">
        <ele>122.9</ele>
        <time>2019-06-23T06:08:44.000Z</time>
      </trkpt>
      <trkpt lat="43.2618" lon="2.43744">
        <ele>122.9</ele>
        <time>2019-06-23T06:08:45.000Z</time>
      </trkpt>
      <trkpt lat="43.26183" lon="2.43744">
        <ele>123</ele>
        <time>2019-06-23T06:08:46.000Z</time>
      </trkpt>
      <trkpt lat="43.26185" lon="2.43745">
        <ele>123.1</ele>
        <time>2019-06-23T06:08:47.000Z</time>
      </trkpt>
      <trkpt lat="43.26187" lon="2.43745">
        <ele>123.2</ele>
        <time>2019-06-23T06:08:48.000Z</time>
      </trkpt>
      <trkpt lat="43.26189" lon="2.43744">
        <ele>123.3</ele>
        <time>2019-06-23T06:08:49.000Z</time>
      </trkpt>
      <trkpt lat="43.26191" lon="2.43744">
        <ele>123.5</ele>
        <time>2019-06-23T06:08:50.000Z</time>
      </trkpt>
      <trkpt lat="43.26194" lon="2.43742">
        <ele>123.6</ele>
        <time>2019-06-23T06:08:51.000Z</time>
      </trkpt>
      <trkpt lat="43.26196" lon="2.43741">
        <ele>123.8</ele>
        <time>2019-06-23T06:08:52.000Z</time>
      </trkpt>
      <trkpt lat="43.26197" lon="2.43739">
        <ele>124</ele>
        <time>2019-06-23T06:08:53.000Z</time>
      </trkpt>
      <trkpt lat="43.26199" lon="2.43737">
        <ele>124.1</ele>
        <time>2019-06-23T06:08:54.000Z</time>
      </trkpt>
      <trkpt lat="43.26201" lon="2.43735">
        <ele>124.3</ele>
        <time>2019-06-23T06:08:55.000Z</time>
      </trkpt>
      <trkpt lat="43.26202" lon="2.43732">
        <ele>124.5</ele>
        <time>2019-06-23T06:08:56.000Z</time>
      </trkpt>
      <trkpt lat="43.26204" lon="2.4373">
        <ele>124.6</ele>
        <time>2019-06-23T06:08:57.000Z</time>
      </trkpt>
      <trkpt lat="43.26205" lon="2.43727">
        <ele>124.8</ele>
        <time>2019-06-23T06:08:58.000Z</time>
      </trkpt>
      <trkpt lat="43.26206" lon="2.43725">
        <ele>124.9</ele>
        <time>2019-06-23T06:08:59.000Z</time>
      </trkpt>
      <trkpt lat="43.26207" lon="2.43722">
        <ele>125.1</ele>
        <time>2019-06-23T06:09:00.000Z</time>
      </trkpt>
      <trkpt lat="43.26207" lon="2.4372">
        <ele>125.2</ele>
        <time>2019-06-23T06:09:01.000Z</time>
      </trkpt>
      <trkpt lat="43.26208" lon="2.43717">
        <ele>125.4</ele>
        <time>2019-06-23T06:09:02.000Z</time>
      </trkpt>
      <trkpt lat="43.26209" lon="2.43715">
        <ele>125.5</ele>
        <time>2019-06-23T06:09:03.000Z</time>
      </trkpt>
      <trkpt lat="43.26209" lon="2.43712">
        <ele>125.6</ele>
        <time>2019-06-23T06:09:04.000Z</time>
      </trkpt>
      <trkpt lat="43.2621" lon="2.4371">
        <ele>125.8</ele>
        <time>2019-06-23T06:09:05.000Z</time>
      </trkpt>
      <trkpt lat="43.26211" lon="2.43707">
        <ele>125.9</ele>
        <time>2019-06-23T06:09:06.000Z</time>
      </trkpt>
      <trkpt lat="43.26212" lon="2.43705">
        <ele>126.1</ele>
        <time>2019-06-23T06:09:07.000Z</time>
      </trkpt>
      <trkpt lat="43.26213" lon="2.43702">
        <ele>126.2</ele>
        <time>2019-06-23T06:09:08.000Z</time>
      </trkpt>
      <trkpt lat="43.26214" lon="2.437">
        <ele>126.3</ele>
        <time>2019-06-23T06:09:09.000Z</time>
      </trkpt>
      <trkpt lat="43.26215" lon="2.43697">
        <ele>126.5</ele>
        <time>2019-06-23T06:09:10.000Z</time>
      </trkpt>
      <trkpt lat="43.26216" lon="2.43695">
        <ele>126.6</ele>
        <time>2019-06-23T06:09:11.000Z</time>
      </trkpt>
      <trkpt lat="43.26217" lon="2.43692">
        <ele>126.8</ele>
        <time>2019-06-23T06:09:12.000Z</time>
      </trkpt>
      <trkpt lat="43.26218" lon="2.43689">
        <ele>126.9</ele>
        <time>2019-06-23T06:09:13.000Z</time>
      </trkpt>
      <trkpt lat="43.2622" lon="2.43687">
        <ele>127.1</ele>
        <time>2019-06-23T06:09:14.000Z</time>
      </trkpt>
      <trkpt lat="43.26221" lon="2.43684">
        <ele>127.2</ele>
        <time>2019-06-23T06:09:15.000Z</time>
      </trkpt>
      <trkpt lat="43.26222" lon="2.43682">
        <ele>127.4</ele>
        <time>2019-06-23T06:09:16.000Z</time>
      </trkpt>
      <trkpt lat="43.26223" lon="2.43679">
        <ele>127.5</ele>
        <time>2019-06-23T06:09:17.000Z</time>
      </trkpt>
      <trkpt lat="43.26225" lon="2.43677">
        <ele>127.7</ele>
        <time>2019-06-23T06:09:18.000Z</time>
      </trkpt>
      <trkpt lat="43.26226" lon="2.43674">
        <ele>127.8</ele>
        <time>2019-06-23T06:09:19.000Z</time>
      </trkpt>
      <trkpt lat="43.26227" lon="2.43671">
        <ele>128</ele>
        <time>2019-06-23T06:09:20.000Z</time>
      </trkpt>
      <trkpt lat="43.26228" lon="2.43669">
        <ele>128.1</ele>
        <time>2019-06-23T06:09:21.000Z</time>
      </trkpt>
      <trkpt lat="43.26229" lon="2.43666">
        <ele>128.3</ele>
        <time>2019-06-23T06:09:22.000Z</time>
      </trkpt>
      <trkpt lat="43.26231" lon="2.43664">
        <ele>128.4</ele>
        <time>2019-06-23T06:09:23.000Z</time>
      </trkpt>
      <trkpt lat="43.26232" lon="2.43661">
        <ele>128.5</ele>
        <time>2019-06-23T06:09:24.000Z</time>
      </trkpt>
      <trkpt lat="43.26233" lon="2.43658">
        <ele>128.5</ele>
        <time>2019-06-23T06:09:25.000Z</time>
      </trkpt>
      <trkpt lat="43.26234" lon="2.43656">
        <ele>128.6</ele>
        <time>2019-06-23T06:09:26.000Z</time>
      </trkpt>
      <trkpt lat="43.26235" lon="2.43653">
        <ele>128.7</ele>
        <time>2019-06-23T06:09:27.000Z</time>
      </trkpt>
      <trkpt lat="43.26236" lon="2.4365">
        <ele>128.8</ele>
        <time>2019-06-23T06:09:28.000Z</time>
      </trkpt>
      <trkpt lat="43.26237" lon="2.43648">
        <ele>128.9</ele>
        <time>2019-06-23T06:09:29.000Z</time>
      </trkpt>
      <trkpt lat="43.26239" lon="2.43645">
        <ele>129</ele>
        <time>2019-06-23T06:09:30.000Z</time>
      </trkpt>
      <trkpt lat="43.2624" lon="2.43643">
        <ele>129</ele>
        <time>2019-06-23T06:09:31.000Z</time>
      </trkpt>
      <trkpt lat="43.26241" lon="2.4364">
        <ele>129.1</ele>
        <time>2019-06-23T06:09:32.000Z</time>
      </trkpt>
      <trkpt lat="43.26242" lon="2.43637">
        <ele>129.2</ele>
        <time>2019-06-23T06:09:33.000Z</time>
      </trkpt>
      <trkpt lat="43.26243" lon="2.43635">
        <ele>129.2</ele>
        <time>2019-06-23T06:09:34.000Z</time>
      </trkpt>
      <trkpt lat="43.26244" lon="2.43632">
        <ele>129.3</ele>
        <time>2019-06-23T06:09:35.000Z</time>
      </trkpt>
      <trkpt lat="43.26245" lon="2.4363">
        <ele>129.3</ele>
        <time>2019-06-23T06:09:36.000Z</time>
      </trkpt>
      <trkpt lat="43.26246" lon="2.43627">
        <ele>129.4</ele>
        <time>2019-06-23T06:09:37.000Z</time>
      </trkpt>
      <trkpt lat="43.26247" lon="2.43625">
        <ele>129.5</ele>
        <time>2019-06-23T06:09:38.000Z</time>
      </trkpt>
      <trkpt lat="43.26249" lon="2.43622">
        <ele>129.5</ele>
        <time>2019-06-23T06:09:39.000Z</time>
      </trkpt>
      <trkpt lat="43.2625" lon="2.4362">
        <ele>129.6</ele>
        <time>2019-06-23T06:09:40.000Z</time>
      </trkpt>
      <trkpt lat="43.26251" lon="2.43617">
        <ele>129.6</ele>
        <time>2019-06-23T06:09:41.000Z</time>
      </trkpt>
      <trkpt lat="43.26252" lon="2.43615">
        <ele>129.7</ele>
        <time>2019-06-23T06:09:42.000Z</time>
      </trkpt>
      <trkpt lat="43.26253" lon="2.43612">
        <ele>129.8</ele>
        <time>2019-06-23T06:09:43.000Z</time>
      </trkpt>
      <trkpt lat="43.26254" lon="2.4361">
        <ele>129.8</ele>
        <time>2019-06-23T06:09:44.000Z</time>
      </trkpt>
      <trkpt lat="43.26256" lon="2.43607">
        <ele>129.9</ele>
        <time>2019-06-23T06:09:45.000Z</time>
      </trkpt>
      <trkpt lat="43.26257" lon="2.43605">
        <ele>130</ele>
        <time>2019-06-23T06:09:46.000Z</time>
      </trkpt>
      <trkpt lat="43.26258" lon="2.43603">
        <ele>130.1</ele>
        <time>2019-06-23T06:09:47.000Z</time>
      </trkpt>
      <trkpt lat="43.26259" lon="2.436">
        <ele>130.1</ele>
        <time>2019-06-23T06:09:48.000Z</time>
      </trkpt>
      <trkpt lat="43.26261" lon="2.43598">
        <ele>130.2</ele>
        <time>2019-06-23T06:09:49.000Z</time>
      </trkpt>
      <trkpt lat="43.26262" lon="2.43595">
        <ele>130.3</ele>
        <time>2019-06-23T06:09:50.000Z</time>
      </trkpt>
      <trkpt lat="43.26263" lon="2.43593">
        <ele>130.4</ele>
        <time>2019-06-23T06:09:51.000Z</time>
      </trkpt>
      <trkpt lat="43.26265" lon="2.43591">
        <ele>130.4</ele>
        <time>2019-06-23T06:09:52.000Z</time>
      </trkpt>
      <trkpt lat="43.26266" lon="2.43588">
        <ele>130.5</ele>
        <time>2019-06-23T06:09:53.000Z</time>
      </trkpt>
      <trkpt lat="43.26268" lon="2.43586">
        <ele>130.6</ele>
        <time>2019-06-23T06:09:54.000Z</time>
      </trkpt>
      <trkpt lat="43.26269" lon="2.43584">
        <ele>130.7</ele>
        <time>2019-06-23T06:09:55.000Z</time>
      </trkpt>
      <trkpt lat="43.2627" lon="2.43581">
        <ele>130.7</ele>
        <time>2019-06-23T06:09:56.000Z</time>
      </trkpt>
      <trkpt lat="43.26271" lon="2.43579">
        <ele>130.7</ele>
        <time>2019-06-23T06:09:57.000Z</time>
      </trkpt>
      <trkpt lat="43.26273" lon="2.43576">
        <ele>130.8</ele>
        <time>2019-06-23T06:09:58.000Z</time>
      </trkpt>
      <trkpt lat="43.26274" lon="2.43574">
        <ele>130.8</ele>
        <time>2019-06-23T06:09:59.000Z</time>
      </trkpt>
      <trkpt lat="43.26274" lon="2.43571">
        <ele>130.8</ele>
        <time>2019-06-23T06:10:00.000Z</time>
      </trkpt>
      <trkpt lat="43.26275" lon="2.43568">
        <ele>130.8</ele>
        <time>2019-06-23T06:10:01.000Z</time>
      </trkpt>
      <trkpt lat="43.26276" lon="2.43565">
        <ele>130.8</ele>
        <time>2019-06-23T06:10:02.000Z</time>
      </trkpt>
      <trkpt lat="43.26277" lon="2.43563">
        <ele>130.8</ele>
        <time>2019-06-23T06:10:03.000Z</time>
      </trkpt>
      <trkpt lat="43.26278" lon="2.4356">
        <ele>130.8</ele>
        <time>2019-06-23T06:10:04.000Z</time>
      </trkpt>
      <trkpt lat="43.26279" lon="2.43557">
        <ele>130.8</ele>
        <time>2019-06-23T06:10:05.000Z</time>
      </trkpt>
      <trkpt lat="43.2628" lon="2.43555">
        <ele>130.8</ele>
        <time>2019-06-23T06:10:06.000Z</time>
      </trkpt>
      <trkpt lat="43.26281" lon="2.43552">
        <ele>130.8</ele>
        <time>2019-06-23T06:10:07.000Z</time>
      </trkpt>
      <trkpt lat="43.26282" lon="2.4355">
        <ele>130.8</ele>
        <time>2019-06-23T06:10:08.000Z</time>
      </trkpt>
      <trkpt lat="43.26284" lon="2.43548">
        <ele>130.9</ele>
        <time>2019-06-23T06:10:09.000Z</time>
      </trkpt>
      <trkpt lat="43.26285" lon="2.43545">
        <ele>130.9</ele>
        <time>2019-06-23T06:10:10.000Z</time>
      </trkpt>
      <trkpt lat="43.26286" lon="2.43543">
        <ele>130.9</ele>
        <time>2019-06-23T06:10:11.000Z</time>
      </trkpt>
      <trkpt lat="43.26288" lon="2.43541">
        <ele>130.9</ele>
        <time>2019-06-23T06:10:12.000Z</time>
      </trkpt>
      <trkpt lat="43.26289" lon="2.43538">
        <ele>130.9</ele>
        <time>2019-06-23T06:10:13.000Z</time>
      </trkpt>
      <trkpt lat="43.2629" lon="2.43536">
        <ele>130.9</ele>
        <time>2019-06-23T06:10:14.000Z</time>
      </trkpt>
      <trkpt lat="43.26291" lon="2.43533">
        <ele>130.9</ele>
        <time>2019-06-23T06:10:15.000Z</time>
      </trkpt>
      <trkpt lat="43.26292" lon="2.4353">
        <ele>130.9</ele>
        <time>2019-06-23T06:10:16.000Z</time>
      </trkpt>
      <trkpt lat="43.26292" lon="2.43528">
        <ele>130.8</ele>
        <time>2019-06-23T06:10:17.000Z</time>
      </trkpt>
      <trkpt lat="43.26293" lon="2.43525">
        <ele>130.8</ele>
        <time>2019-06-23T06:10:18.000Z</time>
      </trkpt>
      <trkpt lat="43.26293" lon="2.43522">
        <ele>130.8</ele>
        <time>2019-06-23T06:10:19.000Z</time>
      </trkpt>
      <trkpt lat="43.26293" lon="2.43519">
        <ele>130.8</ele>
        <time>2019-06-23T06:10:20.000Z</time>
      </trkpt>
      <trkpt lat="43.26294" lon="2.43517">
        <ele>130.7</ele>
        <time>2019-06-23T06:10:21.000Z</time>
      </trkpt>
      <trkpt lat="43.26294" lon="2.43514">
        <ele>130.7</ele>
        <time>2019-06-23T06:10:22.000Z</time>
      </trkpt>
      <trkpt lat="43.26295" lon="2.43511">
        <ele>130.7</ele>
        <time>2019-06-23T06:10:23.000Z</time>
      </trkpt>
      <trkpt lat="43.26296" lon="2.43509">
        <ele>130.7</ele>
        <time>2019-06-23T06:10:24.000Z</time>
      </trkpt>
      <trkpt lat="43.26296" lon="2.43507">
        <ele>130.6</ele>
        <time>2019-06-23T06:10:25.000Z</time>
      </trkpt>
      <trkpt lat="43.26297" lon="2.43505">
        <ele>130.6</ele>
        <time>2019-06-23T06:10:26.000Z</time>
      </trkpt>
      <trkpt lat="43.26298" lon="2.43503">
        <ele>130.6</ele>
        <time>2019-06-23T06:10:27.000Z</time>
      </trkpt>
      <trkpt lat="43.26299" lon="2.43501">
        <ele>130.6</ele>
        <time>2019-06-23T06:10:28.000Z</time>
      </trkpt>
      <trkpt lat="43.263" lon="2.43499">
        <ele>130.6</ele>
        <time>2019-06-23T06:10:29.000Z</time>
      </trkpt>
      <trkpt lat="43.26301" lon="2.43497">
        <ele>130.7</ele>
        <time>2019-06-23T06:10:30.000Z</time>
      </trkpt>
      <trkpt lat="43.26302" lon="2.43495">
        <ele>130.7</ele>
        <time>2019-06-23T06:10:31.000Z</time>
      </trkpt>
      <trkpt lat="43.26304" lon="2.43493">
        <ele>130.8</ele>
        <time>2019-06-23T06:10:32.000Z</time>
      </trkpt>
      <trkpt lat="43.26305" lon="2.4349">
        <ele>130.8</ele>
        <time>2019-06-23T06:10:33.000Z</time>
      </trkpt>
      <trkpt lat="43.26306" lon="2.43488">
        <ele>130.9</ele>
        <time>2019-06-23T06:10:34.000Z</time>
      </trkpt>
      <trkpt lat="43.26307" lon="2.43486">
        <ele>131</ele>
        <time>2019-06-23T06:10:35.000Z</time>
      </trkpt>
      <trkpt lat="43.26308" lon="2.43484">
        <ele>131</ele>
        <time>2019-06-23T06:10:36.000Z</time>
      </trkpt>
      <trkpt lat="43.26309" lon="2.43481">
        <ele>131.1</ele>
        <time>2019-06-23T06:10:37.000Z</time>
      </trkpt>
      <trkpt lat="43.2631" lon="2.43479">
        <ele>131.1</ele>
        <time>2019-06-23T06:10:38.000Z</time>
      </trkpt>
      <trkpt lat="43.26311" lon="2.43476">
        <ele>131.2</ele>
        <time>2019-06-23T06:10:39.000Z</time>
      </trkpt>
      <trkpt lat="43.26312" lon="2.43473">
        <ele>131.2</ele>
        <time>2019-06-23T06:10:40.000Z</time>
      </trkpt>
      <trkpt lat="43.26313" lon="2.4347">
        <ele>131.3</ele>
        <time>2019-06-23T06:10:41.000Z</time>
      </trkpt>
      <trkpt lat="43.26314" lon="2.43467">
        <ele>131.3</ele>
        <time>2019-06-23T06:10:42.000Z</time>
      </trkpt>
      <trkpt lat="43.26315" lon="2.43464">
        <ele>131.4</ele>
        <time>2019-06-23T06:10:43.000Z</time>
      </trkpt>
      <trkpt lat="43.26316" lon="2.43461">
        <ele>131.4</ele>
        <time>2019-06-23T06:10:44.000Z</time>
      </trkpt>
      <trkpt lat="43.26318" lon="2.43459">
        <ele>131.5</ele>
        <time>2019-06-23T06:10:45.000Z</time>
      </trkpt>
      <trkpt lat="43.26319" lon="2.43456">
        <ele>131.5</ele>
        <time>2019-06-23T06:10:46.000Z</time>
      </trkpt>
      <trkpt lat="43.2632" lon="2.43453">
        <ele>131.6</ele>
        <time>2019-06-23T06:10:47.000Z</time>
      </trkpt>
      <trkpt lat="43.26321" lon="2.43451">
        <ele>131.6</ele>
        <time>2019-06-23T06:10:48.000Z</time>
      </trkpt>
      <trkpt lat="43.26322" lon="2.43449">
        <ele>131.6</ele>
        <time>2019-06-23T06:10:49.000Z</time>
      </trkpt>
      <trkpt lat="43.26323" lon="2.43447">
        <ele>131.7</ele>
        <time>2019-06-23T06:10:50.000Z</time>
      </trkpt>
      <trkpt lat="43.26324" lon="2.43445">
        <ele>131.7</ele>
        <time>2019-06-23T06:10:51.000Z</time>
      </trkpt>
      <trkpt lat="43.26325" lon="2.43443">
        <ele>131.7</ele>
        <time>2019-06-23T06:10:52.000Z</time>
      </trkpt>
      <trkpt lat="43.26326" lon="2.43441">
        <ele>131.7</ele>
        <time>2019-06-23T06:10:53.000Z</time>
      </trkpt>
      <trkpt lat="43.26327" lon="2.4344">
        <ele>131.8</ele>
        <time>2019-06-23T06:10:54.000Z</time>
      </trkpt>
      <trkpt lat="43.26327" lon="2.43438">
        <ele>131.8</ele>
        <time>2019-06-23T06:10:55.000Z</time>
      </trkpt>
      <trkpt lat="43.26328" lon="2.43437">
        <ele>131.8</ele>
        <time>2019-06-23T06:10:56.000Z</time>
      </trkpt>
      <trkpt lat="43.26329" lon="2.43436">
        <ele>131.8</ele>
        <time>2019-06-23T06:10:57.000Z</time>
      </trkpt>
      <trkpt lat="43.26329" lon="2.43435">
        <ele>131.8</ele>
        <time>2019-06-23T06:10:58.000Z</time>
      </trkpt>
      <trkpt lat="43.2633" lon="2.43434">
        <ele>131.8</ele>
        <time>2019-06-23T06:10:59.000Z</time>
      </trkpt>
      <trkpt lat="43.2633" lon="2.43433">
        <ele>131.8</ele>
        <time>2019-06-23T06:11:00.000Z</time>
      </trkpt>
      <trkpt lat="43.26331" lon="2.43433">
        <ele>131.8</ele>
        <time>2019-06-23T06:11:01.000Z</time>
      </trkpt>
      <trkpt lat="43.26332" lon="2.43432">
        <ele>131.8</ele>
        <time>2019-06-23T06:11:02.000Z</time>
      </trkpt>
      <trkpt lat="43.26332" lon="2.43431">
        <ele>131.8</ele>
        <time>2019-06-23T06:11:03.000Z</time>
      </trkpt>
      <trkpt lat="43.26333" lon="2.43431">
        <ele>131.8</ele>
        <time>2019-06-23T06:11:04.000Z</time>
      </trkpt>
      <trkpt lat="43.26333" lon="2.4343">
        <ele>131.8</ele>
        <time>2019-06-23T06:11:05.000Z</time>
      </trkpt>
      <trkpt lat="43.26334" lon="2.4343">
        <ele>131.9</ele>
        <time>2019-06-23T06:11:06.000Z</time>
      </trkpt>
      <trkpt lat="43.26334" lon="2.43429">
        <ele>131.9</ele>
        <time>2019-06-23T06:11:07.000Z</time>
      </trkpt>
      <trkpt lat="43.26335" lon="2.43429">
        <ele>131.9</ele>
        <time>2019-06-23T06:11:08.000Z</time>
      </trkpt>
      <trkpt lat="43.26335" lon="2.43429">
        <ele>131.9</ele>
        <time>2019-06-23T06:11:09.000Z</time>
      </trkpt>
      <trkpt lat="43.26335" lon="2.43428">
        <ele>131.9</ele>
        <time>2019-06-23T06:11:10.000Z</time>
      </trkpt>
      <trkpt lat="43.26336" lon="2.43428">
        <ele>131.9</ele>
        <time>2019-06-23T06:11:11.000Z</time>
      </trkpt>
      <trkpt lat="43.26336" lon="2.43428">
        <ele>131.9</ele>
        <time>2019-06-23T06:11:12.000Z</time>
      </trkpt>
      <trkpt lat="43.26336" lon="2.43428">
        <ele>131.9</ele>
        <time>2019-06-23T06:11:13.000Z</time>
      </trkpt>
      <trkpt lat="43.26336" lon="2.43428">
        <ele>131.9</ele>
        <time>2019-06-23T06:11:14.000Z</time>
      </trkpt>
      <trkpt lat="43.26336" lon="2.43428">
        <ele>131.9</ele>
        <time>2019-06-23T06:11:15.000Z</time>
      </trkpt>
      <trkpt lat="43.26336" lon="2.43428">
        <ele>131.9</ele>
        <time>2019-06-23T06:11:16.000Z</time>
      </trkpt>
      <trkpt lat="43.26336" lon="2.43428">
        <ele>131.9</ele>
        <time>2019-06-23T06:11:17.000Z</time>
      </trkpt>
      <trkpt lat="43.26336" lon="2.43428">
        <ele>131.9</ele>
        <time>2019-06-23T06:11:18.000Z</time>
      </trkpt>
      <trkpt lat="43.26336" lon="2.43428">
        <ele>131.9</ele>
        <time>2019-06-23T06:11:19.000Z</time>
      </trkpt>
      <trkpt lat="43.26336" lon="2.43428">
        <ele>131.9</ele>
        <time>2019-06-23T06:11:20.000Z</time>
      </trkpt>
      <trkpt lat="43.26336" lon="2.43428">
        <ele>131.9</ele>
        <time>2019-06-23T06:11:21.000Z</time>
      </trkpt>
      <trkpt lat="43.26336" lon="2.43428">
        <ele>131.9</ele>
        <time>2019-06-23T06:11:22.000Z</time>
      </trkpt>
      <trkpt lat="43.26336" lon="2.43428">
        <ele>131.9</ele>
        <time>2019-06-23T06:11:23.000Z</time>
      </trkpt>
      <trkpt lat="43.26336" lon="2.43428">
        <ele>131.9</ele>
        <time>2019-06-23T06:11:24.000Z</time>
      </trkpt>
      <trkpt lat="43.26336" lon="2.43428">
        <ele>131.9</ele>
        <time>2019-06-23T06:11:25.000Z</time>
      </trkpt>
      <trkpt lat="43.26336" lon="2.43428">
        <ele>131.9</ele>
        <time>2019-06-23T06:11:26.000Z</time>
      </trkpt>
      <trkpt lat="43.26336" lon="2.43428">
        <ele>131.9</ele>
        <time>2019-06-23T06:11:27.000Z</time>
      </trkpt>
      <trkpt lat="43.26336" lon="2.43428">
        <ele>131.9</ele>
        <time>2019-06-23T06:11:28.000Z</time>
      </trkpt>
      <trkpt lat="43.26336" lon="2.43428">
        <ele>131.9</ele>
        <time>2019-06-23T06:11:29.000Z</time>
      </trkpt>
      <trkpt lat="43.26336" lon="2.43428">
        <ele>131.9</ele>
        <time>2019-06-23T06:11:30.000Z</time>
      </trkpt>
      <trkpt lat="43.26336" lon="2.43428">
        <ele>131.9</ele>
        <time>2019-06-23T06:11:31.000Z</time>
      </trkpt>
      <trkpt lat="43.26336" lon="2.43428">
        <ele>131.9</ele>
        <time>2019-06-23T06:11:32.000Z</time>
      </trkpt>
      <trkpt lat="43.26336" lon="2.43428">
        <ele>131.9</ele>
        <time>2019-06-23T06:11:33.000Z</time>
      </trkpt>
      <trkpt lat="43.26336" lon="2.43428">
        <ele>131.9</ele>
        <time>2019-06-23T06:11:34.000Z</time>
      </trkpt>
      <trkpt lat="43.26336" lon="2.43428">
        <ele>131.9</ele>
        <time>2019-06-23T06:11:35.000Z</time>
      </trkpt>
      <trkpt lat="43.26336" lon="2.43428">
        <ele>131.9</ele>
        <time>2019-06-23T06:11:36.000Z</time>
      </trkpt>
      <trkpt lat="43.26336" lon="2.43428">
        <ele>131.9</ele>
        <time>2019-06-23T06:11:37.000Z</time>
      </trkpt>
      <trkpt lat="43.26336" lon="2.43429">
        <ele>131.9</ele>
        <time>2019-06-23T06:11:38.000Z</time>
      </trkpt>
      <trkpt lat="43.26336" lon="2.43429">
        <ele>131.9</ele>
        <time>2019-06-23T06:11:39.000Z</time>
      </trkpt>
      <trkpt lat="43.26336" lon="2.43429">
        <ele>131.9</ele>
        <time>2019-06-23T06:11:40.000Z</time>
      </trkpt>
      <trkpt lat="43.26335" lon="2.43429">
        <ele>131.9</ele>
        <time>2019-06-23T06:11:41.000Z</time>
      </trkpt>
      <trkpt lat="43.26335" lon="2.43429">
        <ele>131.9</ele>
        <time>2019-06-23T06:11:42.000Z</time>
      </trkpt>
      <trkpt lat="43.26335" lon="2.43429">
        <ele>131.9</ele>
        <time>2019-06-23T06:11:43.000Z</time>
      </trkpt>
      <trkpt lat="43.26335" lon="2.43429">
        <ele>131.9</ele>
        <time>2019-06-23T06:11:44.000Z</time>
      </trkpt>
      <trkpt lat="43.26335" lon="2.43429">
        <ele>131.9</ele>
        <time>2019-06-23T06:11:45.000Z</time>
      </trkpt>
      <trkpt lat="43.26335" lon="2.43429">
        <ele>131.9</ele>
        <time>2019-06-23T06:11:46.000Z</time>
      </trkpt>
      <trkpt lat="43.26335" lon="2.43429">
        <ele>131.9</ele>
        <time>2019-06-23T06:11:47.000Z</time>
      </trkpt>
      <trkpt lat="43.26335" lon="2.43429">
        <ele>131.9</ele>
        <time>2019-06-23T06:11:48.000Z</time>
      </trkpt>
      <trkpt lat="43.26335" lon="2.43429">
        <ele>131.9</ele>
        <time>2019-06-23T06:11:49.000Z</time>
      </trkpt>
      <trkpt lat="43.26335" lon="2.43429">
        <ele>131.9</ele>
        <time>2019-06-23T06:11:50.000Z</time>
      </trkpt>
      <trkpt lat="43.26335" lon="2.43429">
        <ele>131.9</ele>
        <time>2019-06-23T06:11:51.000Z</time>
      </trkpt>
      <trkpt lat="43.26335" lon="2.4343">
        <ele>131.9</ele>
        <time>2019-06-23T06:11:52.000Z</time>
      </trkpt>
      <trkpt lat="43.26335" lon="2.4343">
        <ele>131.9</ele>
        <time>2019-06-23T06:11:53.000Z</time>
      </trkpt>
      <trkpt lat="43.26335" lon="2.4343">
        <ele>131.9</ele>
        <time>2019-06-23T06:11:54.000Z</time>
      </trkpt>
      <trkpt lat="43.26335" lon="2.4343">
        <ele>131.9</ele>
        <time>2019-06-23T06:11:55.000Z</time>
      </trkpt>
      <trkpt lat="43.26335" lon="2.43429">
        <ele>131.9</ele>
        <time>2019-06-23T06:11:56.000Z</time>
      </trkpt>
      <trkpt lat="43.26336" lon="2.43429">
        <ele>131.9</ele>
        <time>2019-06-23T06:11:57.000Z</time>
      </trkpt>
      <trkpt lat="43.26336" lon="2.4343">
        <ele>131.9</ele>
        <time>2019-06-23T06:11:58.000Z</time>
      </trkpt>
      <trkpt lat="43.26336" lon="2.4343">
        <ele>131.9</ele>
        <time>2019-06-23T06:11:59.000Z</time>
      </trkpt>
      <trkpt lat="43.26336" lon="2.4343">
        <ele>131.9</ele>
        <time>2019-06-23T06:12:00.000Z</time>
      </trkpt>
      <trkpt lat="43.26337" lon="2.4343">
        <ele>131.9</ele>
        <time>2019-06-23T06:12:01.000Z</time>
      </trkpt>
      <trkpt lat="43.26337" lon="2.43431">
        <ele>131.9</ele>
        <time>2019-06-23T06:12:02.000Z</time>
      </trkpt>
      <trkpt lat="43.26338" lon="2.43431">
        <ele>131.9</ele>
        <time>2019-06-23T06:12:03.000Z</time>
      </trkpt>
      <trkpt lat="43.26339" lon="2.43432">
        <ele>132</ele>
        <time>2019-06-23T06:12:04.000Z</time>
      </trkpt>
      <trkpt lat="43.2634" lon="2.43433">
        <ele>132</ele>
        <time>2019-06-23T06:12:05.000Z</time>
      </trkpt>
      <trkpt lat="43.26342" lon="2.43434">
        <ele>132</ele>
        <time>2019-06-23T06:12:06.000Z</time>
      </trkpt>
      <trkpt lat="43.26343" lon="2.43436">
        <ele>132</ele>
        <time>2019-06-23T06:12:07.000Z</time>
      </trkpt>
      <trkpt lat="43.26344" lon="2.43437">
        <ele>132</ele>
        <time>2019-06-23T06:12:08.000Z</time>
      </trkpt>
      <trkpt lat="43.26346" lon="2.43438">
        <ele>132</ele>
        <time>2019-06-23T06:12:09.000Z</time>
      </trkpt>
      <trkpt lat="43.26347" lon="2.4344">
        <ele>132.1</ele>
        <time>2019-06-23T06:12:10.000Z</time>
      </trkpt>
      <trkpt lat="43.26349" lon="2.43442">
        <ele>132.1</ele>
        <time>2019-06-23T06:12:11.000Z</time>
      </trkpt>
      <trkpt lat="43.26351" lon="2.43443">
        <ele>132.1</ele>
        <time>2019-06-23T06:12:12.000Z</time>
      </trkpt>
      <trkpt lat="43.26352" lon="2.43445">
        <ele>132.1</ele>
        <time>2019-06-23T06:12:13.000Z</time>
      </trkpt>
      <trkpt lat="43.26354" lon="2.43447">
        <ele>132.1</ele>
        <time>2019-06-23T06:12:14.000Z</time>
      </trkpt>
      <trkpt lat="43.26356" lon="2.43448">
        <ele>132.2</ele>
        <time>2019-06-23T06:12:15.000Z</time>
      </trkpt>
      <trkpt lat="43.26358" lon="2.4345">
        <ele>132.2</ele>
        <time>2019-06-23T06:12:16.000Z</time>
      </trkpt>
      <trkpt lat="43.2636" lon="2.43452">
        <ele>132.2</ele>
        <time>2019-06-23T06:12:17.000Z</time>
      </trkpt>
      <trkpt lat="43.26361" lon="2.43453">
        <ele>132.2</ele>
        <time>2019-06-23T06:12:18.000Z</time>
      </trkpt>
      <trkpt lat="43.26363" lon="2.43455">
        <ele>132.3</ele>
        <time>2019-06-23T06:12:19.000Z</time>
      </trkpt>
      <trkpt lat="43.26365" lon="2.43457">
        <ele>132.3</ele>
        <time>2019-06-23T06:12:20.000Z</time>
      </trkpt>
      <trkpt lat="43.26367" lon="2.43458">
        <ele>132.3</ele>
        <time>2019-06-23T06:12:21.000Z</time>
      </trkpt>
      <trkpt lat="43.26369" lon="2.4346">
        <ele>132.3</ele>
        <time>2019-06-23T06:12:22.000Z</time>
      </trkpt>
      <trkpt lat="43.26371" lon="2.43461">
        <ele>132.4</ele>
        <time>2019-06-23T06:12:23.000Z</time>
      </trkpt>
      <trkpt lat="43.26372" lon="2.43463">
        <ele>132.4</ele>
        <time>2019-06-23T06:12:24.000Z</time>
      </trkpt>
      <trkpt lat="43.26374" lon="2.43465">
        <ele>132.4</ele>
        <time>2019-06-23T06:12:25.000Z</time>
      </trkpt>
      <trkpt lat="43.26376" lon="2.43466">
        <ele>132.4</ele>
        <time>2019-06-23T06:12:26.000Z</time>
      </trkpt>
      <trkpt lat="43.26378" lon="2.43468">
        <ele>132.5</ele>
        <time>2019-06-23T06:12:27.000Z</time>
      </trkpt>
      <trkpt lat="43.2638" lon="2.43469">
        <ele>132.5</ele>
        <time>2019-06-23T06:12:28.000Z</time>
      </trkpt>
      <trkpt lat="43.26382" lon="2.43471">
        <ele>132.5</ele>
        <time>2019-06-23T06:12:29.000Z</time>
      </trkpt>
      <trkpt lat="43.26383" lon="2.43473">
        <ele>132.5</ele>
        <time>2019-06-23T06:12:30.000Z</time>
      </trkpt>
      <trkpt lat="43.26385" lon="2.43475">
        <ele>132.5</ele>
        <time>2019-06-23T06:12:31.000Z</time>
      </trkpt>
      <trkpt lat="43.26387" lon="2.43476">
        <ele>132.6</ele>
        <time>2019-06-23T06:12:32.000Z</time>
      </trkpt>
      <trkpt lat="43.26389" lon="2.43478">
        <ele>132.6</ele>
        <time>2019-06-23T06:12:33.000Z</time>
      </trkpt>
      <trkpt lat="43.2639" lon="2.4348">
        <ele>132.6</ele>
        <time>2019-06-23T06:12:34.000Z</time>
      </trkpt>
      <trkpt lat="43.26392" lon="2.43482">
        <ele>132.6</ele>
        <time>2019-06-23T06:12:35.000Z</time>
      </trkpt>
      <trkpt lat="43.26394" lon="2.43484">
        <ele>132.7</ele>
        <time>2019-06-23T06:12:36.000Z</time>
      </trkpt>
      <trkpt lat="43.26396" lon="2.43485">
        <ele>132.7</ele>
        <time>2019-06-23T06:12:37.000Z</time>
      </trkpt>
      <trkpt lat="43.26397" lon="2.43487">
        <ele>132.7</ele>
        <time>2019-06-23T06:12:38.000Z</time>
      </trkpt>
      <trkpt lat="43.26399" lon="2.43489">
        <ele>132.7</ele>
        <time>2019-06-23T06:12:39.000Z</time>
      </trkpt>
      <trkpt lat="43.26401" lon="2.43491">
        <ele>132.7</ele>
        <time>2019-06-23T06:12:40.000Z</time>
      </trkpt>
      <trkpt lat="43.26403" lon="2.43493">
        <ele>132.8</ele>
        <time>2019-06-23T06:12:41.000Z</time>
      </trkpt>
      <trkpt lat="43.26405" lon="2.43494">
        <ele>132.8</ele>
        <time>2019-06-23T06:12:42.000Z</time>
      </trkpt>
      <trkpt lat="43.26406" lon="2.43496">
        <ele>132.8</ele>
        <time>2019-06-23T06:12:43.000Z</time>
      </trkpt>
      <trkpt lat="43.26408" lon="2.43498">
        <ele>132.8</ele>
        <time>2019-06-23T06:12:44.000Z</time>
      </trkpt>
      <trkpt lat="43.2641" lon="2.435">
        <ele>132.8</ele>
        <time>2019-06-23T06:12:45.000Z</time>
      </trkpt>
      <trkpt lat="43.26412" lon="2.43502">
        <ele>132.9</ele>
        <time>2019-06-23T06:12:46.000Z</time>
      </trkpt>
      <trkpt lat="43.26413" lon="2.43503">
        <ele>132.9</ele>
        <time>2019-06-23T06:12:47.000Z</time>
      </trkpt>
      <trkpt lat="43.26415" lon="2.43505">
        <ele>133</ele>
        <time>2019-06-23T06:12:48.000Z</time>
      </trkpt>
      <trkpt lat="43.26417" lon="2.43507">
        <ele>133</ele>
        <time>2019-06-23T06:12:49.000Z</time>
      </trkpt>
      <trkpt lat="43.26419" lon="2.43509">
        <ele>133</ele>
        <time>2019-06-23T06:12:50.000Z</time>
      </trkpt>
      <trkpt lat="43.26421" lon="2.4351">
        <ele>133.1</ele>
        <time>2019-06-23T06:12:51.000Z</time>
      </trkpt>
      <trkpt lat="43.26423" lon="2.43512">
        <ele>133.1</ele>
        <time>2019-06-23T06:12:52.000Z</time>
      </trkpt>
      <trkpt lat="43.26425" lon="2.43514">
        <ele>133.1</ele>
        <time>2019-06-23T06:12:53.000Z</time>
      </trkpt>
      <trkpt lat="43.26427" lon="2.43516">
        <ele>133.1</ele>
        <time>2019-06-23T06:12:54.000Z</time>
      </trkpt>
      <trkpt lat="43.26429" lon="2.43517">
        <ele>133.1</ele>
        <time>2019-06-23T06:12:55.000Z</time>
      </trkpt>
      <trkpt lat="43.26431" lon="2.43519">
        <ele>133.2</ele>
        <time>2019-06-23T06:12:56.000Z</time>
      </trkpt>
      <trkpt lat="43.26433" lon="2.43521">
        <ele>133.2</ele>
        <time>2019-06-23T06:12:57.000Z</time>
      </trkpt>
      <trkpt lat="43.26435" lon="2.43523">
        <ele>133.2</ele>
        <time>2019-06-23T06:12:58.000Z</time>
      </trkpt>
      <trkpt lat="43.26437" lon="2.43524">
        <ele>133.2</ele>
        <time>2019-06-23T06:12:59.000Z</time>
      </trkpt>
      <trkpt lat="43.26439" lon="2.43526">
        <ele>133.3</ele>
        <time>2019-06-23T06:13:00.000Z</time>
      </trkpt>
      <trkpt lat="43.26441" lon="2.43528">
        <ele>133.3</ele>
        <time>2019-06-23T06:13:01.000Z</time>
      </trkpt>
      <trkpt lat="43.26443" lon="2.43529">
        <ele>133.3</ele>
        <time>2019-06-23T06:13:02.000Z</time>
      </trkpt>
      <trkpt lat="43.26445" lon="2.43531">
        <ele>133.3</ele>
        <time>2019-06-23T06:13:03.000Z</time>
      </trkpt>
      <trkpt lat="43.26447" lon="2.43533">
        <ele>133.4</ele>
        <time>2019-06-23T06:13:04.000Z</time>
      </trkpt>
      <trkpt lat="43.26449" lon="2.43534">
        <ele>133.4</ele>
        <time>2019-06-23T06:13:05.000Z</time>
      </trkpt>
      <trkpt lat="43.2645" lon="2.43536">
        <ele>133.4</ele>
        <time>2019-06-23T06:13:06.000Z</time>
      </trkpt>
      <trkpt lat="43.26452" lon="2.43538">
        <ele>133.4</ele>
        <time>2019-06-23T06:13:07.000Z</time>
      </trkpt>
      <trkpt lat="43.26454" lon="2.43539">
        <ele>133.4</ele>
        <time>2019-06-23T06:13:08.000Z</time>
      </trkpt>
      <trkpt lat="43.26456" lon="2.43541">
        <ele>133.5</ele>
        <time>2019-06-23T06:13:09.000Z</time>
      </trkpt>
      <trkpt lat="43.26457" lon="2.43542">
        <ele>133.5</ele>
        <time>2019-06-23T06:13:10.000Z</time>
      </trkpt>
      <trkpt lat="43.26459" lon="2.43544">
        <ele>133.5</ele>
        <time>2019-06-23T06:13:11.000Z</time>
      </trkpt>
      <trkpt lat="43.26461" lon="2.43546">
        <ele>133.5</ele>
        <time>2019-06-23T06:13:12.000Z</time>
      </trkpt>
      <trkpt lat="43.26462" lon="2.43547">
        <ele>133.5</ele>
        <time>2019-06-23T06:13:13.000Z</time>
      </trkpt>
      <trkpt lat="43.26464" lon="2.43549">
        <ele>133.6</ele>
        <time>2019-06-23T06:13:14.000Z</time>
      </trkpt>
      <trkpt lat="43.26466" lon="2.4355">
        <ele>133.6</ele>
        <time>2019-06-23T06:13:15.000Z</time>
      </trkpt>
      <trkpt lat="43.26468" lon="2.43552">
        <ele>133.6</ele>
        <time>2019-06-23T06:13:16.000Z</time>
      </trkpt>
      <trkpt lat="43.26469" lon="2.43553">
        <ele>133.6</ele>
        <time>2019-06-23T06:13:17.000Z</time>
      </trkpt>
      <trkpt lat="43.26471" lon="2.43555">
        <ele>133.7</ele>
        <time>2019-06-23T06:13:18.000Z</time>
      </trkpt>
      <trkpt lat="43.26473" lon="2.43557">
        <ele>133.7</ele>
        <time>2019-06-23T06:13:19.000Z</time>
      </trkpt>
      <trkpt lat="43.26474" lon="2.43558">
        <ele>133.7</ele>
        <time>2019-06-23T06:13:20.000Z</time>
      </trkpt>
      <trkpt lat="43.26476" lon="2.4356">
        <ele>133.7</ele>
        <time>2019-06-23T06:13:21.000Z</time>
      </trkpt>
      <trkpt lat="43.26478" lon="2.43562">
        <ele>133.7</ele>
        <time>2019-06-23T06:13:22.000Z</time>
      </trkpt>
      <trkpt lat="43.26479" lon="2.43564">
        <ele>133.8</ele>
        <time>2019-06-23T06:13:23.000Z</time>
      </trkpt>
      <trkpt lat="43.26481" lon="2.43566">
        <ele>133.8</ele>
        <time>2019-06-23T06:13:24.000Z</time>
      </trkpt>
      <trkpt lat="43.26483" lon="2.43568">
        <ele>133.8</ele>
        <time>2019-06-23T06:13:25.000Z</time>
      </trkpt>
      <trkpt lat="43.26484" lon="2.4357">
        <ele>133.8</ele>
        <time>2019-06-23T06:13:26.000Z</time>
      </trkpt>
      <trkpt lat="43.26486" lon="2.43572">
        <ele>133.8</ele>
        <time>2019-06-23T06:13:27.000Z</time>
      </trkpt>
      <trkpt lat="43.26488" lon="2.43575">
        <ele>133.9</ele>
        <time>2019-06-23T06:13:28.000Z</time>
      </trkpt>
      <trkpt lat="43.26489" lon="2.43577">
        <ele>133.9</ele>
        <time>2019-06-23T06:13:29.000Z</time>
      </trkpt>
      <trkpt lat="43.26491" lon="2.4358">
        <ele>133.9</ele>
        <time>2019-06-23T06:13:30.000Z</time>
      </trkpt>
      <trkpt lat="43.26492" lon="2.43582">
        <ele>133.9</ele>
        <time>2019-06-23T06:13:31.000Z</time>
      </trkpt>
      <trkpt lat="43.26493" lon="2.43585">
        <ele>133.9</ele>
        <time>2019-06-23T06:13:32.000Z</time>
      </trkpt>
      <trkpt lat="43.26494" lon="2.43588">
        <ele>133.8</ele>
        <time>2019-06-23T06:13:33.000Z</time>
      </trkpt>
      <trkpt lat="43.26495" lon="2.43591">
        <ele>133.8</ele>
        <time>2019-06-23T06:13:34.000Z</time>
      </trkpt>
      <trkpt lat="43.26495" lon="2.43594">
        <ele>133.7</ele>
        <time>2019-06-23T06:13:35.000Z</time>
      </trkpt>
      <trkpt lat="43.26496" lon="2.43598">
        <ele>133.6</ele>
        <time>2019-06-23T06:13:36.000Z</time>
      </trkpt>
      <trkpt lat="43.26496" lon="2.43601">
        <ele>133.5</ele>
        <time>2019-06-23T06:13:37.000Z</time>
      </trkpt>
      <trkpt lat="43.26497" lon="2.43604">
        <ele>133.5</ele>
        <time>2019-06-23T06:13:38.000Z</time>
      </trkpt>
      <trkpt lat="43.26497" lon="2.43606">
        <ele>133.4</ele>
        <time>2019-06-23T06:13:39.000Z</time>
      </trkpt>
      <trkpt lat="43.26497" lon="2.43609">
        <ele>133.4</ele>
        <time>2019-06-23T06:13:40.000Z</time>
      </trkpt>
      <trkpt lat="43.26498" lon="2.43611">
        <ele>133.3</ele>
        <time>2019-06-23T06:13:41.000Z</time>
      </trkpt>
      <trkpt lat="43.26499" lon="2.43613">
        <ele>133.3</ele>
        <time>2019-06-23T06:13:42.000Z</time>
      </trkpt>
      <trkpt lat="43.265" lon="2.43614">
        <ele>133.3</ele>
        <time>2019-06-23T06:13:43.000Z</time>
      </trkpt>
      <trkpt lat="43.26502" lon="2.43615">
        <ele>133.2</ele>
        <time>2019-06-23T06:13:44.000Z</time>
      </trkpt>
      <trkpt lat="43.26503" lon="2.43616">
        <ele>133.2</ele>
        <time>2019-06-23T06:13:45.000Z</time>
      </trkpt>
      <trkpt lat="43.26505" lon="2.43615">
        <ele>133.1</ele>
        <time>2019-06-23T06:13:46.000Z</time>
      </trkpt>
      <trkpt lat="43.26507" lon="2.43615">
        <ele>133.1</ele>
        <time>2019-06-23T06:13:47.000Z</time>
      </trkpt>
      <trkpt lat="43.26509" lon="2.43614">
        <ele>133.1</ele>
        <time>2019-06-23T06:13:48.000Z</time>
      </trkpt>
      <trkpt lat="43.26511" lon="2.43613">
        <ele>133.1</ele>
        <time>2019-06-23T06:13:49.000Z</time>
      </trkpt>
      <trkpt lat="43.26513" lon="2.43612">
        <ele>133.1</ele>
        <time>2019-06-23T06:13:50.000Z</time>
      </trkpt>
      <trkpt lat="43.26515" lon="2.43612">
        <ele>133</ele>
        <time>2019-06-23T06:13:51.000Z</time>
      </trkpt>
      <trkpt lat="43.26517" lon="2.43611">
        <ele>133</ele>
        <time>2019-06-23T06:13:52.000Z</time>
      </trkpt>
      <trkpt lat="43.26519" lon="2.4361">
        <ele>133</ele>
        <time>2019-06-23T06:13:53.000Z</time>
      </trkpt>
      <trkpt lat="43.26521" lon="2.4361">
        <ele>132.9</ele>
        <time>2019-06-23T06:13:54.000Z</time>
      </trkpt>
      <trkpt lat="43.26523" lon="2.43609">
        <ele>132.9</ele>
        <time>2019-06-23T06:13:55.000Z</time>
      </trkpt>
      <trkpt lat="43.26525" lon="2.43609">
        <ele>132.9</ele>
        <time>2019-06-23T06:13:56.000Z</time>
      </trkpt>
      <trkpt lat="43.26527" lon="2.43609">
        <ele>132.8</ele>
        <time>2019-06-23T06:13:57.000Z</time>
      </trkpt>
      <trkpt lat="43.2653" lon="2.43608">
        <ele>132.8</ele>
        <time>2019-06-23T06:13:58.000Z</time>
      </trkpt>
      <trkpt lat="43.26532" lon="2.43608">
        <ele>132.8</ele>
        <time>2019-06-23T06:13:59.000Z</time>
      </trkpt>
      <trkpt lat="43.26534" lon="2.43608">
        <ele>132.7</ele>
        <time>2019-06-23T06:14:00.000Z</time>
      </trkpt>
      <trkpt lat="43.26536" lon="2.43608">
        <ele>132.7</ele>
        <time>2019-06-23T06:14:01.000Z</time>
      </trkpt>
      <trkpt lat="43.26538" lon="2.43608">
        <ele>132.6</ele>
        <time>2019-06-23T06:14:02.000Z</time>
      </trkpt>
      <trkpt lat="43.2654" lon="2.43608">
        <ele>132.6</ele>
        <time>2019-06-23T06:14:03.000Z</time>
      </trkpt>
      <trkpt lat="43.26542" lon="2.43608">
        <ele>132.6</ele>
        <time>2019-06-23T06:14:04.000Z</time>
      </trkpt>
      <trkpt lat="43.26544" lon="2.43608">
        <ele>132.5</ele>
        <time>2019-06-23T06:14:05.000Z</time>
      </trkpt>
      <trkpt lat="43.26546" lon="2.43608">
        <ele>132.5</ele>
        <time>2019-06-23T06:14:06.000Z</time>
      </trkpt>
      <trkpt lat="43.26548" lon="2.43608">
        <ele>132.4</ele>
        <time>2019-06-23T06:14:07.000Z</time>
      </trkpt>
      <trkpt lat="43.2655" lon="2.43608">
        <ele>132.4</ele>
        <time>2019-06-23T06:14:08.000Z</time>
      </trkpt>
      <trkpt lat="43.26552" lon="2.43608">
        <ele>132.3</ele>
        <time>2019-06-23T06:14:09.000Z</time>
      </trkpt>
      <trkpt lat="43.26554" lon="2.43607">
        <ele>132.3</ele>
        <time>2019-06-23T06:14:10.000Z</time>
      </trkpt>
      <trkpt lat="43.26557" lon="2.43607">
        <ele>132.3</ele>
        <time>2019-06-23T06:14:11.000Z</time>
      </trkpt>
      <trkpt lat="43.26559" lon="2.43606">
        <ele>132.2</ele>
        <time>2019-06-23T06:14:12.000Z</time>
      </trkpt>
      <trkpt lat="43.26561" lon="2.43606">
        <ele>132.2</ele>
        <time>2019-06-23T06:14:13.000Z</time>
      </trkpt>
      <trkpt lat="43.26563" lon="2.43605">
        <ele>132.2</ele>
        <time>2019-06-23T06:14:14.000Z</time>
      </trkpt>
      <trkpt lat="43.26565" lon="2.43604">
        <ele>132.1</ele>
        <time>2019-06-23T06:14:15.000Z</time>
      </trkpt>
      <trkpt lat="43.26567" lon="2.43602">
        <ele>132.1</ele>
        <time>2019-06-23T06:14:16.000Z</time>
      </trkpt>
      <trkpt lat="43.26569" lon="2.436">
        <ele>132.1</ele>
        <time>2019-06-23T06:14:17.000Z</time>
      </trkpt>
      <trkpt lat="43.2657" lon="2.43597">
        <ele>132.1</ele>
        <time>2019-06-23T06:14:18.000Z</time>
      </trkpt>
      <trkpt lat="43.26571" lon="2.43594">
        <ele>132.1</ele>
        <time>2019-06-23T06:14:19.000Z</time>
      </trkpt>
      <trkpt lat="43.26573" lon="2.43592">
        <ele>132.1</ele>
        <time>2019-06-23T06:14:20.000Z</time>
      </trkpt>
      <trkpt lat="43.26574" lon="2.4359">
        <ele>132.1</ele>
        <time>2019-06-23T06:14:21.000Z</time>
      </trkpt>
      <trkpt lat="43.26576" lon="2.43589">
        <ele>132.1</ele>
        <time>2019-06-23T06:14:22.000Z</time>
      </trkpt>
      <trkpt lat="43.26578" lon="2.43588">
        <ele>132.1</ele>
        <time>2019-06-23T06:14:23.000Z</time>
      </trkpt>
      <trkpt lat="43.2658" lon="2.43588">
        <ele>132</ele>
        <time>2019-06-23T06:14:24.000Z</time>
      </trkpt>
      <trkpt lat="43.26583" lon="2.43588">
        <ele>132</ele>
        <time>2019-06-23T06:14:25.000Z</time>
      </trkpt>
      <trkpt lat="43.26585" lon="2.43588">
        <ele>131.9</ele>
        <time>2019-06-23T06:14:26.000Z</time>
      </trkpt>
      <trkpt lat="43.26588" lon="2.43589">
        <ele>131.9</ele>
        <time>2019-06-23T06:14:27.000Z</time>
      </trkpt>
      <trkpt lat="43.2659" lon="2.43589">
        <ele>131.9</ele>
        <time>2019-06-23T06:14:28.000Z</time>
      </trkpt>
      <trkpt lat="43.26592" lon="2.4359">
        <ele>131.9</ele>
        <time>2019-06-23T06:14:29.000Z</time>
      </trkpt>
      <trkpt lat="43.26594" lon="2.43591">
        <ele>131.9</ele>
        <time>2019-06-23T06:14:30.000Z</time>
      </trkpt>
      <trkpt lat="43.26596" lon="2.43592">
        <ele>131.8</ele>
        <time>2019-06-23T06:14:31.000Z</time>
      </trkpt>
      <trkpt lat="43.26598" lon="2.43593">
        <ele>131.8</ele>
        <time>2019-06-23T06:14:32.000Z</time>
      </trkpt>
      <trkpt lat="43.26601" lon="2.43594">
        <ele>131.8</ele>
        <time>2019-06-23T06:14:33.000Z</time>
      </trkpt>
      <trkpt lat="43.26603" lon="2.43595">
        <ele>131.7</ele>
        <time>2019-06-23T06:14:34.000Z</time>
      </trkpt>
      <trkpt lat="43.26605" lon="2.43596">
        <ele>131.7</ele>
        <time>2019-06-23T06:14:35.000Z</time>
      </trkpt>
      <trkpt lat="43.26607" lon="2.43597">
        <ele>131.6</ele>
        <time>2019-06-23T06:14:36.000Z</time>
      </trkpt>
      <trkpt lat="43.26609" lon="2.43598">
        <ele>131.6</ele>
        <time>2019-06-23T06:14:37.000Z</time>
      </trkpt>
      <trkpt lat="43.26611" lon="2.43599">
        <ele>131.6</ele>
        <time>2019-06-23T06:14:38.000Z</time>
      </trkpt>
      <trkpt lat="43.26613" lon="2.436">
        <ele>131.5</ele>
        <time>2019-06-23T06:14:39.000Z</time>
      </trkpt>
      <trkpt lat="43.26616" lon="2.436">
        <ele>131.5</ele>
        <time>2019-06-23T06:14:40.000Z</time>
      </trkpt>
      <trkpt lat="43.26618" lon="2.43601">
        <ele>131.4</ele>
        <time>2019-06-23T06:14:41.000Z</time>
      </trkpt>
      <trkpt lat="43.2662" lon="2.43601">
        <ele>131.4</ele>
        <time>2019-06-23T06:14:42.000Z</time>
      </trkpt>
      <trkpt lat="43.26622" lon="2.43602">
        <ele>131.4</ele>
        <time>2019-06-23T06:14:43.000Z</time>
      </trkpt>
      <trkpt lat="43.26624" lon="2.43602">
        <ele>131.3</ele>
        <time>2019-06-23T06:14:44.000Z</time>
      </trkpt>
      <trkpt lat="43.26626" lon="2.43603">
        <ele>131.3</ele>
        <time>2019-06-23T06:14:45.000Z</time>
      </trkpt>
      <trkpt lat="43.26628" lon="2.43604">
        <ele>131.2</ele>
        <time>2019-06-23T06:14:46.000Z</time>
      </trkpt>
      <trkpt lat="43.2663" lon="2.43604">
        <ele>131.2</ele>
        <time>2019-06-23T06:14:47.000Z</time>
      </trkpt>
      <trkpt lat="43.26632" lon="2.43605">
        <ele>131.1</ele>
        <time>2019-06-23T06:14:48.000Z</time>
      </trkpt>
      <trkpt lat="43.26633" lon="2.43606">
        <ele>131.1</ele>
        <time>2019-06-23T06:14:49.000Z</time>
      </trkpt>
      <trkpt lat="43.26635" lon="2.43607">
        <ele>131</ele>
        <time>2019-06-23T06:14:50.000Z</time>
      </trkpt>
      <trkpt lat="43.26637" lon="2.43607">
        <ele>131</ele>
        <time>2019-06-23T06:14:51.000Z</time>
      </trkpt>
      <trkpt lat="43.26639" lon="2.43608">
        <ele>130.9</ele>
        <time>2019-06-23T06:14:52.000Z</time>
      </trkpt>
      <trkpt lat="43.2664" lon="2.43609">
        <ele>130.9</ele>
        <time>2019-06-23T06:14:53.000Z</time>
      </trkpt>
      <trkpt lat="43.26642" lon="2.4361">
        <ele>130.8</ele>
        <time>2019-06-23T06:14:54.000Z</time>
      </trkpt>
      <trkpt lat="43.26644" lon="2.43611">
        <ele>130.7</ele>
        <time>2019-06-23T06:14:55.000Z</time>
      </trkpt>
      <trkpt lat="43.26646" lon="2.43611">
        <ele>130.7</ele>
        <time>2019-06-23T06:14:56.000Z</time>
      </trkpt>
      <trkpt lat="43.26647" lon="2.43612">
        <ele>130.6</ele>
        <time>2019-06-23T06:14:57.000Z</time>
      </trkpt>
      <trkpt lat="43.26649" lon="2.43613">
        <ele>130.5</ele>
        <time>2019-06-23T06:14:58.000Z</time>
      </trkpt>
      <trkpt lat="43.26651" lon="2.43614">
        <ele>130.4</ele>
        <time>2019-06-23T06:14:59.000Z</time>
      </trkpt>
      <trkpt lat="43.26653" lon="2.43615">
        <ele>130.4</ele>
        <time>2019-06-23T06:15:00.000Z</time>
      </trkpt>
      <trkpt lat="43.26655" lon="2.43616">
        <ele>130.3</ele>
        <time>2019-06-23T06:15:01.000Z</time>
      </trkpt>
      <trkpt lat="43.26657" lon="2.43617">
        <ele>130.2</ele>
        <time>2019-06-23T06:15:02.000Z</time>
      </trkpt>
      <trkpt lat="43.26659" lon="2.43618">
        <ele>130.1</ele>
        <time>2019-06-23T06:15:03.000Z</time>
      </trkpt>
      <trkpt lat="43.26661" lon="2.4362">
        <ele>130</ele>
        <time>2019-06-23T06:15:04.000Z</time>
      </trkpt>
      <trkpt lat="43.26662" lon="2.43621">
        <ele>129.8</ele>
        <time>2019-06-23T06:15:05.000Z</time>
      </trkpt>
      <trkpt lat="43.26664" lon="2.43624">
        <ele>129.7</ele>
        <time>2019-06-23T06:15:06.000Z</time>
      </trkpt>
      <trkpt lat="43.26665" lon="2.43626">
        <ele>129.5</ele>
        <time>2019-06-23T06:15:07.000Z</time>
      </trkpt>
      <trkpt lat="43.26665" lon="2.43629">
        <ele>129.3</ele>
        <time>2019-06-23T06:15:08.000Z</time>
      </trkpt>
      <trkpt lat="43.26666" lon="2.43632">
        <ele>129.1</ele>
        <time>2019-06-23T06:15:09.000Z</time>
      </trkpt>
      <trkpt lat="43.26666" lon="2.43635">
        <ele>128.9</ele>
        <time>2019-06-23T06:15:10.000Z</time>
      </trkpt>
      <trkpt lat="43.26665" lon="2.43638">
        <ele>128.8</ele>
        <time>2019-06-23T06:15:11.000Z</time>
      </trkpt>
      <trkpt lat="43.26664" lon="2.4364">
        <ele>128.7</ele>
        <time>2019-06-23T06:15:12.000Z</time>
      </trkpt>
      <trkpt lat="43.26663" lon="2.43643">
        <ele>128.6</ele>
        <time>2019-06-23T06:15:13.000Z</time>
      </trkpt>
      <trkpt lat="43.26661" lon="2.43646">
        <ele>128.5</ele>
        <time>2019-06-23T06:15:14.000Z</time>
      </trkpt>
      <trkpt lat="43.2666" lon="2.43648">
        <ele>128.4</ele>
        <time>2019-06-23T06:15:15.000Z</time>
      </trkpt>
      <trkpt lat="43.26659" lon="2.4365">
        <ele>128.3</ele>
        <time>2019-06-23T06:15:16.000Z</time>
      </trkpt>
      <trkpt lat="43.26657" lon="2.43652">
        <ele>128.3</ele>
        <time>2019-06-23T06:15:17.000Z</time>
      </trkpt>
      <trkpt lat="43.26655" lon="2.43654">
        <ele>128.2</ele>
        <time>2019-06-23T06:15:18.000Z</time>
      </trkpt>
      <trkpt lat="43.26654" lon="2.43656">
        <ele>128.2</ele>
        <time>2019-06-23T06:15:19.000Z</time>
      </trkpt>
      <trkpt lat="43.26652" lon="2.43658">
        <ele>128.2</ele>
        <time>2019-06-23T06:15:20.000Z</time>
      </trkpt>
      <trkpt lat="43.26651" lon="2.4366">
        <ele>128.1</ele>
        <time>2019-06-23T06:15:21.000Z</time>
      </trkpt>
      <trkpt lat="43.2665" lon="2.43664">
        <ele>128</ele>
        <time>2019-06-23T06:15:22.000Z</time>
      </trkpt>
      <trkpt lat="43.26649" lon="2.43667">
        <ele>127.8</ele>
        <time>2019-06-23T06:15:23.000Z</time>
      </trkpt>
      <trkpt lat="43.2665" lon="2.4367">
        <ele>127.6</ele>
        <time>2019-06-23T06:15:24.000Z</time>
      </trkpt>
      <trkpt lat="43.26651" lon="2.43673">
        <ele>127.4</ele>
        <time>2019-06-23T06:15:25.000Z</time>
      </trkpt>
      <trkpt lat="43.26652" lon="2.43675">
        <ele>127.2</ele>
        <time>2019-06-23T06:15:26.000Z</time>
      </trkpt>
      <trkpt lat="43.26654" lon="2.43677">
        <ele>127</ele>
        <time>2019-06-23T06:15:27.000Z</time>
      </trkpt>
      <trkpt lat="43.26657" lon="2.43678">
        <ele>126.8</ele>
        <time>2019-06-23T06:15:28.000Z</time>
      </trkpt>
      <trkpt lat="43.26659" lon="2.43679">
        <ele>126.6</ele>
        <time>2019-06-23T06:15:29.000Z</time>
      </trkpt>
      <trkpt lat="43.26662" lon="2.4368">
        <ele>126.4</ele>
        <time>2019-06-23T06:15:30.000Z</time>
      </trkpt>
      <trkpt lat="43.26665" lon="2.4368">
        <ele>126.3</ele>
        <time>2019-06-23T06:15:31.000Z</time>
      </trkpt>
      <trkpt lat="43.26667" lon="2.43681">
        <ele>126.1</ele>
        <time>2019-06-23T06:15:32.000Z</time>
      </trkpt>
      <trkpt lat="43.2667" lon="2.43682">
        <ele>126</ele>
        <time>2019-06-23T06:15:33.000Z</time>
      </trkpt>
      <trkpt lat="43.26673" lon="2.43683">
        <ele>125.9</ele>
        <time>2019-06-23T06:15:34.000Z</time>
      </trkpt>
      <trkpt lat="43.26675" lon="2.43683">
        <ele>125.8</ele>
        <time>2019-06-23T06:15:35.000Z</time>
      </trkpt>
      <trkpt lat="43.26678" lon="2.43684">
        <ele>125.8</ele>
        <time>2019-06-23T06:15:36.000Z</time>
      </trkpt>
      <trkpt lat="43.26681" lon="2.43685">
        <ele>125.7</ele>
        <time>2019-06-23T06:15:37.000Z</time>
      </trkpt>
      <trkpt lat="43.26683" lon="2.43686">
        <ele>125.6</ele>
        <time>2019-06-23T06:15:38.000Z</time>
      </trkpt>
      <trkpt lat="43.26686" lon="2.43686">
        <ele>125.5</ele>
        <time>2019-06-23T06:15:39.000Z</time>
      </trkpt>
      <trkpt lat="43.26689" lon="2.43687">
        <ele>125.4</ele>
        <time>2019-06-23T06:15:40.000Z</time>
      </trkpt>
      <trkpt lat="43.26691" lon="2.43688">
        <ele>125.4</ele>
        <time>2019-06-23T06:15:41.000Z</time>
      </trkpt>
      <trkpt lat="43.26694" lon="2.43688">
        <ele>125.3</ele>
        <time>2019-06-23T06:15:42.000Z</time>
      </trkpt>
      <trkpt lat="43.26697" lon="2.43689">
        <ele>125.2</ele>
        <time>2019-06-23T06:15:43.000Z</time>
      </trkpt>
      <trkpt lat="43.26699" lon="2.4369">
        <ele>125.2</ele>
        <time>2019-06-23T06:15:44.000Z</time>
      </trkpt>
      <trkpt lat="43.26702" lon="2.4369">
        <ele>125.1</ele>
        <time>2019-06-23T06:15:45.000Z</time>
      </trkpt>
      <trkpt lat="43.26705" lon="2.43691">
        <ele>125</ele>
        <time>2019-06-23T06:15:46.000Z</time>
      </trkpt>
      <trkpt lat="43.26707" lon="2.43692">
        <ele>125</ele>
        <time>2019-06-23T06:15:47.000Z</time>
      </trkpt>
      <trkpt lat="43.2671" lon="2.43692">
        <ele>124.9</ele>
        <time>2019-06-23T06:15:48.000Z</time>
      </trkpt>
      <trkpt lat="43.26713" lon="2.43693">
        <ele>124.9</ele>
        <time>2019-06-23T06:15:49.000Z</time>
      </trkpt>
      <trkpt lat="43.26715" lon="2.43693">
        <ele>124.8</ele>
        <time>2019-06-23T06:15:50.000Z</time>
      </trkpt>
      <trkpt lat="43.26718" lon="2.43694">
        <ele>124.7</ele>
        <time>2019-06-23T06:15:51.000Z</time>
      </trkpt>
      <trkpt lat="43.26721" lon="2.43694">
        <ele>124.7</ele>
        <time>2019-06-23T06:15:52.000Z</time>
      </trkpt>
      <trkpt lat="43.26723" lon="2.43695">
        <ele>124.6</ele>
        <time>2019-06-23T06:15:53.000Z</time>
      </trkpt>
      <trkpt lat="43.26726" lon="2.43695">
        <ele>124.6</ele>
        <time>2019-06-23T06:15:54.000Z</time>
      </trkpt>
      <trkpt lat="43.26728" lon="2.43696">
        <ele>124.6</ele>
        <time>2019-06-23T06:15:55.000Z</time>
      </trkpt>
      <trkpt lat="43.26731" lon="2.43696">
        <ele>124.5</ele>
        <time>2019-06-23T06:15:56.000Z</time>
      </trkpt>
      <trkpt lat="43.26734" lon="2.43696">
        <ele>124.5</ele>
        <time>2019-06-23T06:15:57.000Z</time>
      </trkpt>
      <trkpt lat="43.26736" lon="2.43697">
        <ele>124.4</ele>
        <time>2019-06-23T06:15:58.000Z</time>
      </trkpt>
      <trkpt lat="43.26739" lon="2.43697">
        <ele>124.4</ele>
        <time>2019-06-23T06:15:59.000Z</time>
      </trkpt>
      <trkpt lat="43.26741" lon="2.43698">
        <ele>124.4</ele>
        <time>2019-06-23T06:16:00.000Z</time>
      </trkpt>
      <trkpt lat="43.26744" lon="2.43698">
        <ele>124.3</ele>
        <time>2019-06-23T06:16:01.000Z</time>
      </trkpt>
      <trkpt lat="43.26746" lon="2.43698">
        <ele>124.3</ele>
        <time>2019-06-23T06:16:02.000Z</time>
      </trkpt>
      <trkpt lat="43.26749" lon="2.43699">
        <ele>124.3</ele>
        <time>2019-06-23T06:16:03.000Z</time>
      </trkpt>
      <trkpt lat="43.26751" lon="2.43699">
        <ele>124.2</ele>
        <time>2019-06-23T06:16:04.000Z</time>
      </trkpt>
      <trkpt lat="43.26754" lon="2.43699">
        <ele>124.1</ele>
        <time>2019-06-23T06:16:05.000Z</time>
      </trkpt>
      <trkpt lat="43.26756" lon="2.43698">
        <ele>124.1</ele>
        <time>2019-06-23T06:16:06.000Z</time>
      </trkpt>
      <trkpt lat="43.26758" lon="2.43698">
        <ele>124</ele>
        <time>2019-06-23T06:16:07.000Z</time>
      </trkpt>
      <trkpt lat="43.26761" lon="2.43697">
        <ele>124</ele>
        <time>2019-06-23T06:16:08.000Z</time>
      </trkpt>
      <trkpt lat="43.26763" lon="2.43696">
        <ele>123.9</ele>
        <time>2019-06-23T06:16:09.000Z</time>
      </trkpt>
      <trkpt lat="43.26765" lon="2.43695">
        <ele>123.9</ele>
        <time>2019-06-23T06:16:10.000Z</time>
      </trkpt>
      <trkpt lat="43.26768" lon="2.43694">
        <ele>123.8</ele>
        <time>2019-06-23T06:16:11.000Z</time>
      </trkpt>
      <trkpt lat="43.2677" lon="2.43693">
        <ele>123.8</ele>
        <time>2019-06-23T06:16:12.000Z</time>
      </trkpt>
      <trkpt lat="43.26772" lon="2.43692">
        <ele>123.8</ele>
        <time>2019-06-23T06:16:13.000Z</time>
      </trkpt>
      <trkpt lat="43.26775" lon="2.43692">
        <ele>123.7</ele>
        <time>2019-06-23T06:16:14.000Z</time>
      </trkpt>
      <trkpt lat="43.26777" lon="2.43692">
        <ele>123.6</ele>
        <time>2019-06-23T06:16:15.000Z</time>
      </trkpt>
      <trkpt lat="43.26779" lon="2.43692">
        <ele>123.6</ele>
        <time>2019-06-23T06:16:16.000Z</time>
      </trkpt>
      <trkpt lat="43.26781" lon="2.43693">
        <ele>123.5</ele>
        <time>2019-06-23T06:16:17.000Z</time>
      </trkpt>
      <trkpt lat="43.26783" lon="2.43694">
        <ele>123.4</ele>
        <time>2019-06-23T06:16:18.000Z</time>
      </trkpt>
      <trkpt lat="43.26785" lon="2.43694">
        <ele>123.4</ele>
        <time>2019-06-23T06:16:19.000Z</time>
      </trkpt>
      <trkpt lat="43.26787" lon="2.43693">
        <ele>123.3</ele>
        <time>2019-06-23T06:16:20.000Z</time>
      </trkpt>
      <trkpt lat="43.26789" lon="2.43692">
        <ele>123.3</ele>
        <time>2019-06-23T06:16:21.000Z</time>
      </trkpt>
      <trkpt lat="43.26791" lon="2.4369">
        <ele>123.2</ele>
        <time>2019-06-23T06:16:22.000Z</time>
      </trkpt>
      <trkpt lat="43.26793" lon="2.43687">
        <ele>123.2</ele>
        <time>2019-06-23T06:16:23.000Z</time>
      </trkpt>
      <trkpt lat="43.26795" lon="2.43685">
        <ele>123.2</ele>
        <time>2019-06-23T06:16:24.000Z</time>
      </trkpt>
      <trkpt lat="43.26796" lon="2.43683">
        <ele>123.2</ele>
        <time>2019-06-23T06:16:25.000Z</time>
      </trkpt>
      <trkpt lat="43.26798" lon="2.4368">
        <ele>123.1</ele>
        <time>2019-06-23T06:16:26.000Z</time>
      </trkpt>
      <trkpt lat="43.26799" lon="2.43678">
        <ele>123.1</ele>
        <time>2019-06-23T06:16:27.000Z</time>
      </trkpt>
      <trkpt lat="43.26801" lon="2.43675">
        <ele>123.1</ele>
        <time>2019-06-23T06:16:28.000Z</time>
      </trkpt>
      <trkpt lat="43.26802" lon="2.43672">
        <ele>123.1</ele>
        <time>2019-06-23T06:16:29.000Z</time>
      </trkpt>
      <trkpt lat="43.26804" lon="2.4367">
        <ele>123</ele>
        <time>2019-06-23T06:16:30.000Z</time>
      </trkpt>
      <trkpt lat="43.26805" lon="2.43667">
        <ele>123</ele>
        <time>2019-06-23T06:16:31.000Z</time>
      </trkpt>
      <trkpt lat="43.26807" lon="2.43664">
        <ele>123.1</ele>
        <time>2019-06-23T06:16:32.000Z</time>
      </trkpt>
      <trkpt lat="43.26809" lon="2.43662">
        <ele>123.1</ele>
        <time>2019-06-23T06:16:33.000Z</time>
      </trkpt>
      <trkpt lat="43.26811" lon="2.4366">
        <ele>123.2</ele>
        <time>2019-06-23T06:16:34.000Z</time>
      </trkpt>
      <trkpt lat="43.26813" lon="2.43657">
        <ele>123.2</ele>
        <time>2019-06-23T06:16:35.000Z</time>
      </trkpt>
      <trkpt lat="43.26815" lon="2.43655">
        <ele>123.3</ele>
        <time>2019-06-23T06:16:36.000Z</time>
      </trkpt>
      <trkpt lat="43.26817" lon="2.43653">
        <ele>123.3</ele>
        <time>2019-06-23T06:16:37.000Z</time>
      </trkpt>
      <trkpt lat="43.26819" lon="2.4365">
        <ele>123.3</ele>
        <time>2019-06-23T06:16:38.000Z</time>
      </trkpt>
      <trkpt lat="43.26821" lon="2.43648">
        <ele>123.4</ele>
        <time>2019-06-23T06:16:39.000Z</time>
      </trkpt>
      <trkpt lat="43.26824" lon="2.43646">
        <ele>123.4</ele>
        <time>2019-06-23T06:16:40.000Z</time>
      </trkpt>
      <trkpt lat="43.26826" lon="2.43645">
        <ele>123.4</ele>
        <time>2019-06-23T06:16:41.000Z</time>
      </trkpt>
      <trkpt lat="43.26828" lon="2.43643">
        <ele>123.4</ele>
        <time>2019-06-23T06:16:42.000Z</time>
      </trkpt>
      <trkpt lat="43.2683" lon="2.43641">
        <ele>123.3</ele>
        <time>2019-06-23T06:16:43.000Z</time>
      </trkpt>
      <trkpt lat="43.26833" lon="2.43639">
        <ele>123.3</ele>
        <time>2019-06-23T06:16:44.000Z</time>
      </trkpt>
      <trkpt lat="43.26835" lon="2.43638">
        <ele>123.4</ele>
        <time>2019-06-23T06:16:45.000Z</time>
      </trkpt>
      <trkpt lat="43.26837" lon="2.43636">
        <ele>123.4</ele>
        <time>2019-06-23T06:16:46.000Z</time>
      </trkpt>
      <trkpt lat="43.2684" lon="2.43635">
        <ele>123.5</ele>
        <time>2019-06-23T06:16:47.000Z</time>
      </trkpt>
      <trkpt lat="43.26842" lon="2.43633">
        <ele>123.6</ele>
        <time>2019-06-23T06:16:48.000Z</time>
      </trkpt>
      <trkpt lat="43.26844" lon="2.43631">
        <ele>123.6</ele>
        <time>2019-06-23T06:16:49.000Z</time>
      </trkpt>
      <trkpt lat="43.26847" lon="2.4363">
        <ele>123.6</ele>
        <time>2019-06-23T06:16:50.000Z</time>
      </trkpt>
      <trkpt lat="43.26849" lon="2.43628">
        <ele>123.7</ele>
        <time>2019-06-23T06:16:51.000Z</time>
      </trkpt>
      <trkpt lat="43.26851" lon="2.43627">
        <ele>123.7</ele>
        <time>2019-06-23T06:16:52.000Z</time>
      </trkpt>
      <trkpt lat="43.26853" lon="2.43625">
        <ele>123.8</ele>
        <time>2019-06-23T06:16:53.000Z</time>
      </trkpt>
      <trkpt lat="43.26856" lon="2.43623">
        <ele>123.8</ele>
        <time>2019-06-23T06:16:54.000Z</time>
      </trkpt>
      <trkpt lat="43.26858" lon="2.43621">
        <ele>123.8</ele>
        <time>2019-06-23T06:16:55.000Z</time>
      </trkpt>
      <trkpt lat="43.2686" lon="2.4362">
        <ele>123.9</ele>
        <time>2019-06-23T06:16:56.000Z</time>
      </trkpt>
      <trkpt lat="43.26862" lon="2.43618">
        <ele>123.9</ele>
        <time>2019-06-23T06:16:57.000Z</time>
      </trkpt>
      <trkpt lat="43.26864" lon="2.43616">
        <ele>123.9</ele>
        <time>2019-06-23T06:16:58.000Z</time>
      </trkpt>
      <trkpt lat="43.26866" lon="2.43614">
        <ele>123.9</ele>
        <time>2019-06-23T06:16:59.000Z</time>
      </trkpt>
      <trkpt lat="43.26868" lon="2.43612">
        <ele>123.9</ele>
        <time>2019-06-23T06:17:00.000Z</time>
      </trkpt>
      <trkpt lat="43.2687" lon="2.4361">
        <ele>124</ele>
        <time>2019-06-23T06:17:01.000Z</time>
      </trkpt>
      <trkpt lat="43.26872" lon="2.43608">
        <ele>124</ele>
        <time>2019-06-23T06:17:02.000Z</time>
      </trkpt>
      <trkpt lat="43.26874" lon="2.43606">
        <ele>124</ele>
        <time>2019-06-23T06:17:03.000Z</time>
      </trkpt>
      <trkpt lat="43.26876" lon="2.43604">
        <ele>124</ele>
        <time>2019-06-23T06:17:04.000Z</time>
      </trkpt>
      <trkpt lat="43.26878" lon="2.43602">
        <ele>124</ele>
        <time>2019-06-23T06:17:05.000Z</time>
      </trkpt>
      <trkpt lat="43.2688" lon="2.43599">
        <ele>124</ele>
        <time>2019-06-23T06:17:06.000Z</time>
      </trkpt>
      <trkpt lat="43.26882" lon="2.43597">
        <ele>124</ele>
        <time>2019-06-23T06:17:07.000Z</time>
      </trkpt>
      <trkpt lat="43.26884" lon="2.43595">
        <ele>124</ele>
        <time>2019-06-23T06:17:08.000Z</time>
      </trkpt>
      <trkpt lat="43.26885" lon="2.43592">
        <ele>124</ele>
        <time>2019-06-23T06:17:09.000Z</time>
      </trkpt>
      <trkpt lat="43.26887" lon="2.4359">
        <ele>123.9</ele>
        <time>2019-06-23T06:17:10.000Z</time>
      </trkpt>
      <trkpt lat="43.26889" lon="2.43588">
        <ele>123.9</ele>
        <time>2019-06-23T06:17:11.000Z</time>
      </trkpt>
      <trkpt lat="43.26891" lon="2.43585">
        <ele>123.9</ele>
        <time>2019-06-23T06:17:12.000Z</time>
      </trkpt>
      <trkpt lat="43.26893" lon="2.43583">
        <ele>123.9</ele>
        <time>2019-06-23T06:17:13.000Z</time>
      </trkpt>
      <trkpt lat="43.26895" lon="2.43581">
        <ele>123.9</ele>
        <time>2019-06-23T06:17:14.000Z</time>
      </trkpt>
      <trkpt lat="43.26896" lon="2.43579">
        <ele>123.9</ele>
        <time>2019-06-23T06:17:15.000Z</time>
      </trkpt>
      <trkpt lat="43.26898" lon="2.43577">
        <ele>124</ele>
        <time>2019-06-23T06:17:16.000Z</time>
      </trkpt>
      <trkpt lat="43.26899" lon="2.43575">
        <ele>124</ele>
        <time>2019-06-23T06:17:17.000Z</time>
      </trkpt>
      <trkpt lat="43.269" lon="2.43573">
        <ele>124</ele>
        <time>2019-06-23T06:17:18.000Z</time>
      </trkpt>
      <trkpt lat="43.26901" lon="2.43571">
        <ele>124</ele>
        <time>2019-06-23T06:17:19.000Z</time>
      </trkpt>
      <trkpt lat="43.26902" lon="2.43569">
        <ele>124.1</ele>
        <time>2019-06-23T06:17:20.000Z</time>
      </trkpt>
      <trkpt lat="43.26902" lon="2.43568">
        <ele>124.1</ele>
        <time>2019-06-23T06:17:21.000Z</time>
      </trkpt>
      <trkpt lat="43.26903" lon="2.43567">
        <ele>124.1</ele>
        <time>2019-06-23T06:17:22.000Z</time>
      </trkpt>
      <trkpt lat="43.26903" lon="2.43565">
        <ele>124.1</ele>
        <time>2019-06-23T06:17:23.000Z</time>
      </trkpt>
      <trkpt lat="43.26903" lon="2.43564">
        <ele>124.2</ele>
        <time>2019-06-23T06:17:24.000Z</time>
      </trkpt>
      <trkpt lat="43.26904" lon="2.43563">
        <ele>124.2</ele>
        <time>2019-06-23T06:17:25.000Z</time>
      </trkpt>
      <trkpt lat="43.26904" lon="2.43561">
        <ele>124.2</ele>
        <time>2019-06-23T06:17:26.000Z</time>
      </trkpt>
      <trkpt lat="43.26905" lon="2.4356">
        <ele>124.2</ele>
        <time>2019-06-23T06:17:27.000Z</time>
      </trkpt>
      <trkpt lat="43.26906" lon="2.43558">
        <ele>124.3</ele>
        <time>2019-06-23T06:17:28.000Z</time>
      </trkpt>
      <trkpt lat="43.26906" lon="2.43556">
        <ele>124.3</ele>
        <time>2019-06-23T06:17:29.000Z</time>
      </trkpt>
      <trkpt lat="43.26907" lon="2.43554">
        <ele>124.3</ele>
        <time>2019-06-23T06:17:30.000Z</time>
      </trkpt>
      <trkpt lat="43.26907" lon="2.43552">
        <ele>124.4</ele>
        <time>2019-06-23T06:17:31.000Z</time>
      </trkpt>
      <trkpt lat="43.26908" lon="2.43549">
        <ele>124.4</ele>
        <time>2019-06-23T06:17:32.000Z</time>
      </trkpt>
      <trkpt lat="43.26909" lon="2.43547">
        <ele>124.4</ele>
        <time>2019-06-23T06:17:33.000Z</time>
      </trkpt>
      <trkpt lat="43.2691" lon="2.43544">
        <ele>124.5</ele>
        <time>2019-06-23T06:17:34.000Z</time>
      </trkpt>
      <trkpt lat="43.2691" lon="2.43541">
        <ele>124.5</ele>
        <time>2019-06-23T06:17:35.000Z</time>
      </trkpt>
      <trkpt lat="43.26911" lon="2.43538">
        <ele>124.5</ele>
        <time>2019-06-23T06:17:36.000Z</time>
      </trkpt>
      <trkpt lat="43.26912" lon="2.43535">
        <ele>124.5</ele>
        <time>2019-06-23T06:17:37.000Z</time>
      </trkpt>
      <trkpt lat="43.26914" lon="2.43532">
        <ele>124.5</ele>
        <time>2019-06-23T06:17:38.000Z</time>
      </trkpt>
      <trkpt lat="43.26915" lon="2.43529">
        <ele>124.5</ele>
        <time>2019-06-23T06:17:39.000Z</time>
      </trkpt>
      <trkpt lat="43.26916" lon="2.43526">
        <ele>124.4</ele>
        <time>2019-06-23T06:17:40.000Z</time>
      </trkpt>
      <trkpt lat="43.26918" lon="2.43523">
        <ele>124.5</ele>
        <time>2019-06-23T06:17:41.000Z</time>
      </trkpt>
      <trkpt lat="43.26919" lon="2.4352">
        <ele>124.5</ele>
        <time>2019-06-23T06:17:42.000Z</time>
      </trkpt>
      <trkpt lat="43.26921" lon="2.43518">
        <ele>124.6</ele>
        <time>2019-06-23T06:17:43.000Z</time>
      </trkpt>
      <trkpt lat="43.26922" lon="2.43515">
        <ele>124.7</ele>
        <time>2019-06-23T06:17:44.000Z</time>
      </trkpt>
      <trkpt lat="43.26924" lon="2.43513">
        <ele>124.7</ele>
        <time>2019-06-23T06:17:45.000Z</time>
      </trkpt>
      <trkpt lat="43.26926" lon="2.43511">
        <ele>124.8</ele>
        <time>2019-06-23T06:17:46.000Z</time>
      </trkpt>
      <trkpt lat="43.26928" lon="2.43508">
        <ele>124.8</ele>
        <time>2019-06-23T06:17:47.000Z</time>
      </trkpt>
      <trkpt lat="43.2693" lon="2.43506">
        <ele>124.9</ele>
        <time>2019-06-23T06:17:48.000Z</time>
      </trkpt>
      <trkpt lat="43.26931" lon="2.43504">
        <ele>124.9</ele>
        <time>2019-06-23T06:17:49.000Z</time>
      </trkpt>
      <trkpt lat="43.26933" lon="2.43501">
        <ele>125</ele>
        <time>2019-06-23T06:17:50.000Z</time>
      </trkpt>
      <trkpt lat="43.26935" lon="2.43499">
        <ele>125.1</ele>
        <time>2019-06-23T06:17:51.000Z</time>
      </trkpt>
      <trkpt lat="43.26937" lon="2.43497">
        <ele>125.2</ele>
        <time>2019-06-23T06:17:52.000Z</time>
      </trkpt>
      <trkpt lat="43.26939" lon="2.43495">
        <ele>125.3</ele>
        <time>2019-06-23T06:17:53.000Z</time>
      </trkpt>
      <trkpt lat="43.26941" lon="2.43493">
        <ele>125.5</ele>
        <time>2019-06-23T06:17:54.000Z</time>
      </trkpt>
      <trkpt lat="43.26943" lon="2.43491">
        <ele>125.6</ele>
        <time>2019-06-23T06:17:55.000Z</time>
      </trkpt>
      <trkpt lat="43.26945" lon="2.43489">
        <ele>125.7</ele>
        <time>2019-06-23T06:17:56.000Z</time>
      </trkpt>
      <trkpt lat="43.26947" lon="2.43487">
        <ele>125.8</ele>
        <time>2019-06-23T06:17:57.000Z</time>
      </trkpt>
      <trkpt lat="43.26949" lon="2.43485">
        <ele>125.9</ele>
        <time>2019-06-23T06:17:58.000Z</time>
      </trkpt>
      <trkpt lat="43.26952" lon="2.43483">
        <ele>126</ele>
        <time>2019-06-23T06:17:59.000Z</time>
      </trkpt>
      <trkpt lat="43.26954" lon="2.43482">
        <ele>126.1</ele>
        <time>2019-06-23T06:18:00.000Z</time>
      </trkpt>
      <trkpt lat="43.26956" lon="2.4348">
        <ele>126.2</ele>
        <time>2019-06-23T06:18:01.000Z</time>
      </trkpt>
      <trkpt lat="43.26958" lon="2.43479">
        <ele>126.3</ele>
        <time>2019-06-23T06:18:02.000Z</time>
      </trkpt>
      <trkpt lat="43.2696" lon="2.43478">
        <ele>126.3</ele>
        <time>2019-06-23T06:18:03.000Z</time>
      </trkpt>
      <trkpt lat="43.26962" lon="2.43476">
        <ele>126.4</ele>
        <time>2019-06-23T06:18:04.000Z</time>
      </trkpt>
      <trkpt lat="43.26964" lon="2.43475">
        <ele>126.5</ele>
        <time>2019-06-23T06:18:05.000Z</time>
      </trkpt>
      <trkpt lat="43.26966" lon="2.43474">
        <ele>126.5</ele>
        <time>2019-06-23T06:18:06.000Z</time>
      </trkpt>
      <trkpt lat="43.26968" lon="2.43473">
        <ele>126.5</ele>
        <time>2019-06-23T06:18:07.000Z</time>
      </trkpt>
      <trkpt lat="43.2697" lon="2.43472">
        <ele>126.6</ele>
        <time>2019-06-23T06:18:08.000Z</time>
      </trkpt>
      <trkpt lat="43.26973" lon="2.43471">
        <ele>126.6</ele>
        <time>2019-06-23T06:18:09.000Z</time>
      </trkpt>
      <trkpt lat="43.26975" lon="2.4347">
        <ele>126.7</ele>
        <time>2019-06-23T06:18:10.000Z</time>
      </trkpt>
      <trkpt lat="43.26977" lon="2.43468">
        <ele>126.7</ele>
        <time>2019-06-23T06:18:11.000Z</time>
      </trkpt>
      <trkpt lat="43.26979" lon="2.43467">
        <ele>126.8</ele>
        <time>2019-06-23T06:18:12.000Z</time>
      </trkpt>
      <trkpt lat="43.26981" lon="2.43465">
        <ele>126.9</ele>
        <time>2019-06-23T06:18:13.000Z</time>
      </trkpt>
      <trkpt lat="43.26983" lon="2.43464">
        <ele>126.9</ele>
        <time>2019-06-23T06:18:14.000Z</time>
      </trkpt>
      <trkpt lat="43.26985" lon="2.43463">
        <ele>127</ele>
        <time>2019-06-23T06:18:15.000Z</time>
      </trkpt>
      <trkpt lat="43.26987" lon="2.43462">
        <ele>127</ele>
        <time>2019-06-23T06:18:16.000Z</time>
      </trkpt>
      <trkpt lat="43.26989" lon="2.43461">
        <ele>127</ele>
        <time>2019-06-23T06:18:17.000Z</time>
      </trkpt>
      <trkpt lat="43.26992" lon="2.43462">
        <ele>126.9</ele>
        <time>2019-06-23T06:18:18.000Z</time>
      </trkpt>
      <trkpt lat="43.26994" lon="2.43462">
        <ele>126.9</ele>
        <time>2019-06-23T06:18:19.000Z</time>
      </trkpt>
      <trkpt lat="43.26996" lon="2.43464">
        <ele>126.8</ele>
        <time>2019-06-23T06:18:20.000Z</time>
      </trkpt>
      <trkpt lat="43.26998" lon="2.43466">
        <ele>126.7</ele>
        <time>2019-06-23T06:18:21.000Z</time>
      </trkpt>
      <trkpt lat="43.26999" lon="2.43468">
        <ele>126.5</ele>
        <time>2019-06-23T06:18:22.000Z</time>
      </trkpt>
      <trkpt lat="43.26999" lon="2.43471">
        <ele>126.4</ele>
        <time>2019-06-23T06:18:23.000Z</time>
      </trkpt>
      <trkpt lat="43.26999" lon="2.43475">
        <ele>126.2</ele>
        <time>2019-06-23T06:18:24.000Z</time>
      </trkpt>
      <trkpt lat="43.26998" lon="2.43479">
        <ele>126</ele>
        <time>2019-06-23T06:18:25.000Z</time>
      </trkpt>
      <trkpt lat="43.26997" lon="2.43482">
        <ele>125.9</ele>
        <time>2019-06-23T06:18:26.000Z</time>
      </trkpt>
      <trkpt lat="43.26996" lon="2.43486">
        <ele>125.7</ele>
        <time>2019-06-23T06:18:27.000Z</time>
      </trkpt>
      <trkpt lat="43.26994" lon="2.43489">
        <ele>125.5</ele>
        <time>2019-06-23T06:18:28.000Z</time>
      </trkpt>
      <trkpt lat="43.26993" lon="2.43492">
        <ele>125.4</ele>
        <time>2019-06-23T06:18:29.000Z</time>
      </trkpt>
      <trkpt lat="43.26991" lon="2.43495">
        <ele>125.3</ele>
        <time>2019-06-23T06:18:30.000Z</time>
      </trkpt>
      <trkpt lat="43.26989" lon="2.43497">
        <ele>125.2</ele>
        <time>2019-06-23T06:18:31.000Z</time>
      </trkpt>
      <trkpt lat="43.26988" lon="2.43499">
        <ele>125</ele>
        <time>2019-06-23T06:18:32.000Z</time>
      </trkpt>
      <trkpt lat="43.26986" lon="2.43502">
        <ele>125</ele>
        <time>2019-06-23T06:18:33.000Z</time>
      </trkpt>
      <trkpt lat="43.26984" lon="2.43504">
        <ele>125</ele>
        <time>2019-06-23T06:18:34.000Z</time>
      </trkpt>
      <trkpt lat="43.26982" lon="2.43506">
        <ele>125</ele>
        <time>2019-06-23T06:18:35.000Z</time>
      </trkpt>
      <trkpt lat="43.2698" lon="2.43508">
        <ele>125</ele>
        <time>2019-06-23T06:18:36.000Z</time>
      </trkpt>
      <trkpt lat="43.26979" lon="2.4351">
        <ele>124.9</ele>
        <time>2019-06-23T06:18:37.000Z</time>
      </trkpt>
      <trkpt lat="43.26977" lon="2.43512">
        <ele>124.9</ele>
        <time>2019-06-23T06:18:38.000Z</time>
      </trkpt>
      <trkpt lat="43.26975" lon="2.43514">
        <ele>124.9</ele>
        <time>2019-06-23T06:18:39.000Z</time>
      </trkpt>
      <trkpt lat="43.26974" lon="2.43516">
        <ele>124.9</ele>
        <time>2019-06-23T06:18:40.000Z</time>
      </trkpt>
      <trkpt lat="43.26972" lon="2.43517">
        <ele>124.9</ele>
        <time>2019-06-23T06:18:41.000Z</time>
      </trkpt>
      <trkpt lat="43.2697" lon="2.43519">
        <ele>124.8</ele>
        <time>2019-06-23T06:18:42.000Z</time>
      </trkpt>
      <trkpt lat="43.26969" lon="2.43521">
        <ele>124.8</ele>
        <time>2019-06-23T06:18:43.000Z</time>
      </trkpt>
      <trkpt lat="43.26967" lon="2.43522">
        <ele>124.8</ele>
        <time>2019-06-23T06:18:44.000Z</time>
      </trkpt>
      <trkpt lat="43.26965" lon="2.43524">
        <ele>124.8</ele>
        <time>2019-06-23T06:18:45.000Z</time>
      </trkpt>
      <trkpt lat="43.26963" lon="2.43525">
        <ele>124.7</ele>
        <time>2019-06-23T06:18:46.000Z</time>
      </trkpt>
      <trkpt lat="43.26962" lon="2.43527">
        <ele>124.7</ele>
        <time>2019-06-23T06:18:47.000Z</time>
      </trkpt>
      <trkpt lat="43.2696" lon="2.43528">
        <ele>124.7</ele>
        <time>2019-06-23T06:18:48.000Z</time>
      </trkpt>
      <trkpt lat="43.26958" lon="2.4353">
        <ele>124.6</ele>
        <time>2019-06-23T06:18:49.000Z</time>
      </trkpt>
      <trkpt lat="43.26956" lon="2.43532">
        <ele>124.6</ele>
        <time>2019-06-23T06:18:50.000Z</time>
      </trkpt>
      <trkpt lat="43.26954" lon="2.43533">
        <ele>124.6</ele>
        <time>2019-06-23T06:18:51.000Z</time>
      </trkpt>
      <trkpt lat="43.26952" lon="2.43535">
        <ele>124.5</ele>
        <time>2019-06-23T06:18:52.000Z</time>
      </trkpt>
      <trkpt lat="43.2695" lon="2.43537">
        <ele>124.5</ele>
        <time>2019-06-23T06:18:53.000Z</time>
      </trkpt>
      <trkpt lat="43.26948" lon="2.43539">
        <ele>124.4</ele>
        <time>2019-06-23T06:18:54.000Z</time>
      </trkpt>
      <trkpt lat="43.26947" lon="2.43541">
        <ele>124.4</ele>
        <time>2019-06-23T06:18:55.000Z</time>
      </trkpt>
      <trkpt lat="43.26945" lon="2.43543">
        <ele>124.3</ele>
        <time>2019-06-23T06:18:56.000Z</time>
      </trkpt>
      <trkpt lat="43.26944" lon="2.43545">
        <ele>124.3</ele>
        <time>2019-06-23T06:18:57.000Z</time>
      </trkpt>
      <trkpt lat="43.26944" lon="2.43548">
        <ele>124.2</ele>
        <time>2019-06-23T06:18:58.000Z</time>
      </trkpt>
      <trkpt lat="43.26944" lon="2.4355">
        <ele>124.2</ele>
        <time>2019-06-23T06:18:59.000Z</time>
      </trkpt>
      <trkpt lat="43.26944" lon="2.43553">
        <ele>124.1</ele>
        <time>2019-06-23T06:19:00.000Z</time>
      </trkpt>
      <trkpt lat="43.26944" lon="2.43556">
        <ele>124.1</ele>
        <time>2019-06-23T06:19:01.000Z</time>
      </trkpt>
      <trkpt lat="43.26945" lon="2.43559">
        <ele>124.1</ele>
        <time>2019-06-23T06:19:02.000Z</time>
      </trkpt>
      <trkpt lat="43.26946" lon="2.43562">
        <ele>124</ele>
        <time>2019-06-23T06:19:03.000Z</time>
      </trkpt>
      <trkpt lat="43.26947" lon="2.43564">
        <ele>124</ele>
        <time>2019-06-23T06:19:04.000Z</time>
      </trkpt>
      <trkpt lat="43.26948" lon="2.43567">
        <ele>124</ele>
        <time>2019-06-23T06:19:05.000Z</time>
      </trkpt>
      <trkpt lat="43.2695" lon="2.43569">
        <ele>124</ele>
        <time>2019-06-23T06:19:06.000Z</time>
      </trkpt>
      <trkpt lat="43.26952" lon="2.43571">
        <ele>124</ele>
        <time>2019-06-23T06:19:07.000Z</time>
      </trkpt>
      <trkpt lat="43.26954" lon="2.43574">
        <ele>124</ele>
        <time>2019-06-23T06:19:08.000Z</time>
      </trkpt>
      <trkpt lat="43.26956" lon="2.43576">
        <ele>124</ele>
        <time>2019-06-23T06:19:09.000Z</time>
      </trkpt>
      <trkpt lat="43.26958" lon="2.43577">
        <ele>124.1</ele>
        <time>2019-06-23T06:19:10.000Z</time>
      </trkpt>
      <trkpt lat="43.2696" lon="2.43579">
        <ele>124.1</ele>
        <time>2019-06-23T06:19:11.000Z</time>
      </trkpt>
      <trkpt lat="43.26962" lon="2.43581">
        <ele>124.1</ele>
        <time>2019-06-23T06:19:12.000Z</time>
      </trkpt>
      <trkpt lat="43.26964" lon="2.43582">
        <ele>124.2</ele>
        <time>2019-06-23T06:19:13.000Z</time>
      </trkpt>
      <trkpt lat="43.26966" lon="2.43583">
        <ele>124.2</ele>
        <time>2019-06-23T06:19:14.000Z</time>
      </trkpt>
      <trkpt lat="43.26968" lon="2.43585">
        <ele>124.3</ele>
        <time>2019-06-23T06:19:15.000Z</time>
      </trkpt>
      <trkpt lat="43.2697" lon="2.43586">
        <ele>124.3</ele>
        <time>2019-06-23T06:19:16.000Z</time>
      </trkpt>
      <trkpt lat="43.26972" lon="2.43588">
        <ele>124.4</ele>
        <time>2019-06-23T06:19:17.000Z</time>
      </trkpt>
      <trkpt lat="43.26974" lon="2.4359">
        <ele>124.5</ele>
        <time>2019-06-23T06:19:18.000Z</time>
      </trkpt>
      <trkpt lat="43.26976" lon="2.43591">
        <ele>124.6</ele>
        <time>2019-06-23T06:19:19.000Z</time>
      </trkpt>
      <trkpt lat="43.26978" lon="2.43593">
        <ele>124.7</ele>
        <time>2019-06-23T06:19:20.000Z</time>
      </trkpt>
      <trkpt lat="43.2698" lon="2.43595">
        <ele>124.8</ele>
        <time>2019-06-23T06:19:21.000Z</time>
      </trkpt>
      <trkpt lat="43.26982" lon="2.43597">
        <ele>124.9</ele>
        <time>2019-06-23T06:19:22.000Z</time>
      </trkpt>
      <trkpt lat="43.26984" lon="2.43599">
        <ele>125.1</ele>
        <time>2019-06-23T06:19:23.000Z</time>
      </trkpt>
      <trkpt lat="43.26986" lon="2.43601">
        <ele>125.2</ele>
        <time>2019-06-23T06:19:24.000Z</time>
      </trkpt>
      <trkpt lat="43.26988" lon="2.43603">
        <ele>125.3</ele>
        <time>2019-06-23T06:19:25.000Z</time>
      </trkpt>
      <trkpt lat="43.2699" lon="2.43605">
        <ele>125.4</ele>
        <time>2019-06-23T06:19:26.000Z</time>
      </trkpt>
      <trkpt lat="43.26992" lon="2.43607">
        <ele>125.6</ele>
        <time>2019-06-23T06:19:27.000Z</time>
      </trkpt>
      <trkpt lat="43.26994" lon="2.43609">
        <ele>125.7</ele>
        <time>2019-06-23T06:19:28.000Z</time>
      </trkpt>
      <trkpt lat="43.26996" lon="2.43611">
        <ele>125.8</ele>
        <time>2019-06-23T06:19:29.000Z</time>
      </trkpt>
      <trkpt lat="43.26999" lon="2.43613">
        <ele>126</ele>
        <time>2019-06-23T06:19:30.000Z</time>
      </trkpt>
      <trkpt lat="43.27001" lon="2.43614">
        <ele>126.1</ele>
        <time>2019-06-23T06:19:31.000Z</time>
      </trkpt>
      <trkpt lat="43.27003" lon="2.43616">
        <ele>126.3</ele>
        <time>2019-06-23T06:19:32.000Z</time>
      </trkpt>
      <trkpt lat="43.27005" lon="2.43618">
        <ele>126.4</ele>
        <time>2019-06-23T06:19:33.000Z</time>
      </trkpt>
      <trkpt lat="43.27007" lon="2.4362">
        <ele>126.6</ele>
        <time>2019-06-23T06:19:34.000Z</time>
      </trkpt>
      <trkpt lat="43.27009" lon="2.43622">
        <ele>126.7</ele>
        <time>2019-06-23T06:19:35.000Z</time>
      </trkpt>
      <trkpt lat="43.27012" lon="2.43624">
        <ele>126.9</ele>
        <time>2019-06-23T06:19:36.000Z</time>
      </trkpt>
      <trkpt lat="43.27014" lon="2.43626">
        <ele>127</ele>
        <time>2019-06-23T06:19:37.000Z</time>
      </trkpt>
      <trkpt lat="43.27016" lon="2.43627">
        <ele>127.2</ele>
        <time>2019-06-23T06:19:38.000Z</time>
      </trkpt>
      <trkpt lat="43.27018" lon="2.43629">
        <ele>127.3</ele>
        <time>2019-06-23T06:19:39.000Z</time>
      </trkpt>
      <trkpt lat="43.2702" lon="2.43631">
        <ele>127.4</ele>
        <time>2019-06-23T06:19:40.000Z</time>
      </trkpt>
      <trkpt lat="43.27022" lon="2.43633">
        <ele>127.6</ele>
        <time>2019-06-23T06:19:41.000Z</time>
      </trkpt>
      <trkpt lat="43.27024" lon="2.43635">
        <ele>127.7</ele>
        <time>2019-06-23T06:19:42.000Z</time>
      </trkpt>
      <trkpt lat="43.27027" lon="2.43636">
        <ele>127.9</ele>
        <time>2019-06-23T06:19:43.000Z</time>
      </trkpt>
      <trkpt lat="43.27029" lon="2.43638">
        <ele>128</ele>
        <time>2019-06-23T06:19:44.000Z</time>
      </trkpt>
      <trkpt lat="43.27031" lon="2.4364">
        <ele>128.1</ele>
        <time>2019-06-23T06:19:45.000Z</time>
      </trkpt>
      <trkpt lat="43.27033" lon="2.43642">
        <ele>128.3</ele>
        <time>2019-06-23T06:19:46.000Z</time>
      </trkpt>
      <trkpt lat="43.27034" lon="2.43643">
        <ele>128.4</ele>
        <time>2019-06-23T06:19:47.000Z</time>
      </trkpt>
      <trkpt lat="43.27036" lon="2.43645">
        <ele>128.5</ele>
        <time>2019-06-23T06:19:48.000Z</time>
      </trkpt>
      <trkpt lat="43.27038" lon="2.43647">
        <ele>128.7</ele>
        <time>2019-06-23T06:19:49.000Z</time>
      </trkpt>
      <trkpt lat="43.2704" lon="2.43649">
        <ele>128.8</ele>
        <time>2019-06-23T06:19:50.000Z</time>
      </trkpt>
      <trkpt lat="43.27042" lon="2.43651">
        <ele>128.9</ele>
        <time>2019-06-23T06:19:51.000Z</time>
      </trkpt>
      <trkpt lat="43.27044" lon="2.43653">
        <ele>129.1</ele>
        <time>2019-06-23T06:19:52.000Z</time>
      </trkpt>
      <trkpt lat="43.27045" lon="2.43655">
        <ele>129.2</ele>
        <time>2019-06-23T06:19:53.000Z</time>
      </trkpt>
      <trkpt lat="43.27047" lon="2.43657">
        <ele>129.3</ele>
        <time>2019-06-23T06:19:54.000Z</time>
      </trkpt>
      <trkpt lat="43.27048" lon="2.43659">
        <ele>129.5</ele>
        <time>2019-06-23T06:19:55.000Z</time>
      </trkpt>
      <trkpt lat="43.2705" lon="2.43661">
        <ele>129.6</ele>
        <time>2019-06-23T06:19:56.000Z</time>
      </trkpt>
      <trkpt lat="43.27051" lon="2.43663">
        <ele>129.7</ele>
        <time>2019-06-23T06:19:57.000Z</time>
      </trkpt>
      <trkpt lat="43.27052" lon="2.43665">
        <ele>129.8</ele>
        <time>2019-06-23T06:19:58.000Z</time>
      </trkpt>
      <trkpt lat="43.27053" lon="2.43667">
        <ele>129.9</ele>
        <time>2019-06-23T06:19:59.000Z</time>
      </trkpt>
      <trkpt lat="43.27054" lon="2.43669">
        <ele>130</ele>
        <time>2019-06-23T06:20:00.000Z</time>
      </trkpt>
      <trkpt lat="43.27054" lon="2.43672">
        <ele>130</ele>
        <time>2019-06-23T06:20:01.000Z</time>
      </trkpt>
      <trkpt lat="43.27054" lon="2.43674">
        <ele>130.1</ele>
        <time>2019-06-23T06:20:02.000Z</time>
      </trkpt>
      <trkpt lat="43.27054" lon="2.43677">
        <ele>130.1</ele>
        <time>2019-06-23T06:20:03.000Z</time>
      </trkpt>
      <trkpt lat="43.27053" lon="2.4368">
        <ele>130.1</ele>
        <time>2019-06-23T06:20:04.000Z</time>
      </trkpt>
      <trkpt lat="43.27053" lon="2.43683">
        <ele>130.1</ele>
        <time>2019-06-23T06:20:05.000Z</time>
      </trkpt>
      <trkpt lat="43.27053" lon="2.43685">
        <ele>130.2</ele>
        <time>2019-06-23T06:20:06.000Z</time>
      </trkpt>
      <trkpt lat="43.27053" lon="2.43687">
        <ele>130.2</ele>
        <time>2019-06-23T06:20:07.000Z</time>
      </trkpt>
      <trkpt lat="43.27054" lon="2.43689">
        <ele>130.3</ele>
        <time>2019-06-23T06:20:08.000Z</time>
      </trkpt>
      <trkpt lat="43.27055" lon="2.43691">
        <ele>130.3</ele>
        <time>2019-06-23T06:20:09.000Z</time>
      </trkpt>
      <trkpt lat="43.27056" lon="2.43692">
        <ele>130.4</ele>
        <time>2019-06-23T06:20:10.000Z</time>
      </trkpt>
      <trkpt lat="43.27058" lon="2.43693">
        <ele>130.5</ele>
        <time>2019-06-23T06:20:11.000Z</time>
      </trkpt>
      <trkpt lat="43.27059" lon="2.43694">
        <ele>130.6</ele>
        <time>2019-06-23T06:20:12.000Z</time>
      </trkpt>
      <trkpt lat="43.27061" lon="2.43694">
        <ele>130.7</ele>
        <time>2019-06-23T06:20:13.000Z</time>
      </trkpt>
      <trkpt lat="43.27063" lon="2.43695">
        <ele>130.8</ele>
        <time>2019-06-23T06:20:14.000Z</time>
      </trkpt>
      <trkpt lat="43.27065" lon="2.43695">
        <ele>130.9</ele>
        <time>2019-06-23T06:20:15.000Z</time>
      </trkpt>
      <trkpt lat="43.27067" lon="2.43696">
        <ele>131</ele>
        <time>2019-06-23T06:20:16.000Z</time>
      </trkpt>
      <trkpt lat="43.27069" lon="2.43696">
        <ele>131.1</ele>
        <time>2019-06-23T06:20:17.000Z</time>
      </trkpt>
      <trkpt lat="43.27071" lon="2.43697">
        <ele>131.2</ele>
        <time>2019-06-23T06:20:18.000Z</time>
      </trkpt>
      <trkpt lat="43.27073" lon="2.43697">
        <ele>131.3</ele>
        <time>2019-06-23T06:20:19.000Z</time>
      </trkpt>
      <trkpt lat="43.27075" lon="2.43698">
        <ele>131.4</ele>
        <time>2019-06-23T06:20:20.000Z</time>
      </trkpt>
      <trkpt lat="43.27077" lon="2.43698">
        <ele>131.5</ele>
        <time>2019-06-23T06:20:21.000Z</time>
      </trkpt>
      <trkpt lat="43.27079" lon="2.43699">
        <ele>131.6</ele>
        <time>2019-06-23T06:20:22.000Z</time>
      </trkpt>
      <trkpt lat="43.27082" lon="2.43701">
        <ele>131.7</ele>
        <time>2019-06-23T06:20:23.000Z</time>
      </trkpt>
      <trkpt lat="43.27084" lon="2.43702">
        <ele>131.9</ele>
        <time>2019-06-23T06:20:24.000Z</time>
      </trkpt>
      <trkpt lat="43.27086" lon="2.43703">
        <ele>132</ele>
        <time>2019-06-23T06:20:25.000Z</time>
      </trkpt>
      <trkpt lat="43.27088" lon="2.43705">
        <ele>132.1</ele>
        <time>2019-06-23T06:20:26.000Z</time>
      </trkpt>
      <trkpt lat="43.2709" lon="2.43707">
        <ele>132.2</ele>
        <time>2019-06-23T06:20:27.000Z</time>
      </trkpt>
      <trkpt lat="43.27091" lon="2.43709">
        <ele>132.3</ele>
        <time>2019-06-23T06:20:28.000Z</time>
      </trkpt>
      <trkpt lat="43.27093" lon="2.43711">
        <ele>132.5</ele>
        <time>2019-06-23T06:20:29.000Z</time>
      </trkpt>
      <trkpt lat="43.27094" lon="2.43713">
        <ele>132.6</ele>
        <time>2019-06-23T06:20:30.000Z</time>
      </trkpt>
      <trkpt lat="43.27095" lon="2.43715">
        <ele>132.7</ele>
        <time>2019-06-23T06:20:31.000Z</time>
      </trkpt>
      <trkpt lat="43.27096" lon="2.43718">
        <ele>132.8</ele>
        <time>2019-06-23T06:20:32.000Z</time>
      </trkpt>
      <trkpt lat="43.27097" lon="2.43721">
        <ele>132.9</ele>
        <time>2019-06-23T06:20:33.000Z</time>
      </trkpt>
      <trkpt lat="43.27098" lon="2.43724">
        <ele>133</ele>
        <time>2019-06-23T06:20:34.000Z</time>
      </trkpt>
      <trkpt lat="43.27098" lon="2.43726">
        <ele>133.1</ele>
        <time>2019-06-23T06:20:35.000Z</time>
      </trkpt>
      <trkpt lat="43.27099" lon="2.43729">
        <ele>133.2</ele>
        <time>2019-06-23T06:20:36.000Z</time>
      </trkpt>
      <trkpt lat="43.27099" lon="2.43732">
        <ele>133.3</ele>
        <time>2019-06-23T06:20:37.000Z</time>
      </trkpt>
      <trkpt lat="43.271" lon="2.43735">
        <ele>133.4</ele>
        <time>2019-06-23T06:20:38.000Z</time>
      </trkpt>
      <trkpt lat="43.271" lon="2.43738">
        <ele>133.5</ele>
        <time>2019-06-23T06:20:39.000Z</time>
      </trkpt>
      <trkpt lat="43.27101" lon="2.43741">
        <ele>133.6</ele>
        <time>2019-06-23T06:20:40.000Z</time>
      </trkpt>
      <trkpt lat="43.27101" lon="2.43744">
        <ele>133.7</ele>
        <time>2019-06-23T06:20:41.000Z</time>
      </trkpt>
      <trkpt lat="43.27101" lon="2.43747">
        <ele>133.8</ele>
        <time>2019-06-23T06:20:42.000Z</time>
      </trkpt>
      <trkpt lat="43.27102" lon="2.4375">
        <ele>133.9</ele>
        <time>2019-06-23T06:20:43.000Z</time>
      </trkpt>
      <trkpt lat="43.27102" lon="2.43753">
        <ele>133.9</ele>
        <time>2019-06-23T06:20:44.000Z</time>
      </trkpt>
      <trkpt lat="43.27103" lon="2.43756">
        <ele>133.9</ele>
        <time>2019-06-23T06:20:45.000Z</time>
      </trkpt>
      <trkpt lat="43.27103" lon="2.43759">
        <ele>133.9</ele>
        <time>2019-06-23T06:20:46.000Z</time>
      </trkpt>
      <trkpt lat="43.27104" lon="2.43762">
        <ele>134</ele>
        <time>2019-06-23T06:20:47.000Z</time>
      </trkpt>
      <trkpt lat="43.27104" lon="2.43765">
        <ele>134</ele>
        <time>2019-06-23T06:20:48.000Z</time>
      </trkpt>
      <trkpt lat="43.27105" lon="2.43768">
        <ele>134</ele>
        <time>2019-06-23T06:20:49.000Z</time>
      </trkpt>
      <trkpt lat="43.27105" lon="2.43771">
        <ele>134</ele>
        <time>2019-06-23T06:20:50.000Z</time>
      </trkpt>
      <trkpt lat="43.27106" lon="2.43775">
        <ele>134.1</ele>
        <time>2019-06-23T06:20:51.000Z</time>
      </trkpt>
      <trkpt lat="43.27106" lon="2.43778">
        <ele>134.1</ele>
        <time>2019-06-23T06:20:52.000Z</time>
      </trkpt>
      <trkpt lat="43.27106" lon="2.43781">
        <ele>134.1</ele>
        <time>2019-06-23T06:20:53.000Z</time>
      </trkpt>
      <trkpt lat="43.27107" lon="2.43784">
        <ele>134.1</ele>
        <time>2019-06-23T06:20:54.000Z</time>
      </trkpt>
      <trkpt lat="43.27107" lon="2.43787">
        <ele>134.2</ele>
        <time>2019-06-23T06:20:55.000Z</time>
      </trkpt>
      <trkpt lat="43.27108" lon="2.4379">
        <ele>134.2</ele>
        <time>2019-06-23T06:20:56.000Z</time>
      </trkpt>
      <trkpt lat="43.27108" lon="2.43793">
        <ele>134.2</ele>
        <time>2019-06-23T06:20:57.000Z</time>
      </trkpt>
      <trkpt lat="43.27109" lon="2.43796">
        <ele>134.2</ele>
        <time>2019-06-23T06:20:58.000Z</time>
      </trkpt>
      <trkpt lat="43.27109" lon="2.43799">
        <ele>134.2</ele>
        <time>2019-06-23T06:20:59.000Z</time>
      </trkpt>
      <trkpt lat="43.27109" lon="2.43803">
        <ele>134.3</ele>
        <time>2019-06-23T06:21:00.000Z</time>
      </trkpt>
      <trkpt lat="43.2711" lon="2.43806">
        <ele>134.3</ele>
        <time>2019-06-23T06:21:01.000Z</time>
      </trkpt>
      <trkpt lat="43.2711" lon="2.43809">
        <ele>134.3</ele>
        <time>2019-06-23T06:21:02.000Z</time>
      </trkpt>
      <trkpt lat="43.2711" lon="2.43812">
        <ele>134.3</ele>
        <time>2019-06-23T06:21:03.000Z</time>
      </trkpt>
      <trkpt lat="43.27111" lon="2.43815">
        <ele>134.3</ele>
        <time>2019-06-23T06:21:04.000Z</time>
      </trkpt>
      <trkpt lat="43.27111" lon="2.43818">
        <ele>134.3</ele>
        <time>2019-06-23T06:21:05.000Z</time>
      </trkpt>
      <trkpt lat="43.27111" lon="2.43822">
        <ele>134.3</ele>
        <time>2019-06-23T06:21:06.000Z</time>
      </trkpt>
      <trkpt lat="43.27111" lon="2.43825">
        <ele>134.3</ele>
        <time>2019-06-23T06:21:07.000Z</time>
      </trkpt>
      <trkpt lat="43.27111" lon="2.43828">
        <ele>134.3</ele>
        <time>2019-06-23T06:21:08.000Z</time>
      </trkpt>
      <trkpt lat="43.27111" lon="2.43831">
        <ele>134.3</ele>
        <time>2019-06-23T06:21:09.000Z</time>
      </trkpt>
      <trkpt lat="43.27111" lon="2.43835">
        <ele>134.3</ele>
        <time>2019-06-23T06:21:10.000Z</time>
      </trkpt>
      <trkpt lat="43.27111" lon="2.43838">
        <ele>134.3</ele>
        <time>2019-06-23T06:21:11.000Z</time>
      </trkpt>
      <trkpt lat="43.27111" lon="2.43841">
        <ele>134.3</ele>
        <time>2019-06-23T06:21:12.000Z</time>
      </trkpt>
      <trkpt lat="43.27111" lon="2.43845">
        <ele>134.3</ele>
        <time>2019-06-23T06:21:13.000Z</time>
      </trkpt>
      <trkpt lat="43.27111" lon="2.43848">
        <ele>134.3</ele>
        <time>2019-06-23T06:21:14.000Z</time>
      </trkpt>
      <trkpt lat="43.27111" lon="2.43852">
        <ele>134.3</ele>
        <time>2019-06-23T06:21:15.000Z</time>
      </trkpt>
      <trkpt lat="43.27111" lon="2.43855">
        <ele>134.3</ele>
        <time>2019-06-23T06:21:16.000Z</time>
      </trkpt>
      <trkpt lat="43.27111" lon="2.43859">
        <ele>134.3</ele>
        <time>2019-06-23T06:21:17.000Z</time>
      </trkpt>
      <trkpt lat="43.27111" lon="2.43862">
        <ele>134.3</ele>
        <time>2019-06-23T06:21:18.000Z</time>
      </trkpt>
      <trkpt lat="43.27111" lon="2.43865">
        <ele>134.3</ele>
        <time>2019-06-23T06:21:19.000Z</time>
      </trkpt>
      <trkpt lat="43.27111" lon="2.43869">
        <ele>134.3</ele>
        <time>2019-06-23T06:21:20.000Z</time>
      </trkpt>
      <trkpt lat="43.27111" lon="2.43872">
        <ele>134.3</ele>
        <time>2019-06-23T06:21:21.000Z</time>
      </trkpt>
      <trkpt lat="43.27111" lon="2.43876">
        <ele>134.3</ele>
        <time>2019-06-23T06:21:22.000Z</time>
      </trkpt>
      <trkpt lat="43.27111" lon="2.4388">
        <ele>134.3</ele>
        <time>2019-06-23T06:21:23.000Z</time>
      </trkpt>
      <trkpt lat="43.27111" lon="2.43883">
        <ele>134.3</ele>
        <time>2019-06-23T06:21:24.000Z</time>
      </trkpt>
      <trkpt lat="43.27111" lon="2.43887">
        <ele>134.3</ele>
        <time>2019-06-23T06:21:25.000Z</time>
      </trkpt>
      <trkpt lat="43.27111" lon="2.4389">
        <ele>134.3</ele>
        <time>2019-06-23T06:21:26.000Z</time>
      </trkpt>
      <trkpt lat="43.27111" lon="2.43894">
        <ele>134.3</ele>
        <time>2019-06-23T06:21:27.000Z</time>
      </trkpt>
      <trkpt lat="43.27111" lon="2.43897">
        <ele>134.3</ele>
        <time>2019-06-23T06:21:28.000Z</time>
      </trkpt>
      <trkpt lat="43.27111" lon="2.43901">
        <ele>134.3</ele>
        <time>2019-06-23T06:21:29.000Z</time>
      </trkpt>
      <trkpt lat="43.27112" lon="2.43904">
        <ele>134.4</ele>
        <time>2019-06-23T06:21:30.000Z</time>
      </trkpt>
      <trkpt lat="43.27112" lon="2.43908">
        <ele>134.4</ele>
        <time>2019-06-23T06:21:31.000Z</time>
      </trkpt>
      <trkpt lat="43.27112" lon="2.43911">
        <ele>134.4</ele>
        <time>2019-06-23T06:21:32.000Z</time>
      </trkpt>
      <trkpt lat="43.27112" lon="2.43915">
        <ele>134.4</ele>
        <time>2019-06-23T06:21:33.000Z</time>
      </trkpt>
      <trkpt lat="43.27113" lon="2.43918">
        <ele>134.4</ele>
        <time>2019-06-23T06:21:34.000Z</time>
      </trkpt>
      <trkpt lat="43.27113" lon="2.43921">
        <ele>134.4</ele>
        <time>2019-06-23T06:21:35.000Z</time>
      </trkpt>
      <trkpt lat="43.27113" lon="2.43925">
        <ele>134.3</ele>
        <time>2019-06-23T06:21:36.000Z</time>
      </trkpt>
      <trkpt lat="43.27114" lon="2.43928">
        <ele>134.3</ele>
        <time>2019-06-23T06:21:37.000Z</time>
      </trkpt>
      <trkpt lat="43.27114" lon="2.43931">
        <ele>134.3</ele>
        <time>2019-06-23T06:21:38.000Z</time>
      </trkpt>
      <trkpt lat="43.27114" lon="2.43934">
        <ele>134.3</ele>
        <time>2019-06-23T06:21:39.000Z</time>
      </trkpt>
      <trkpt lat="43.27115" lon="2.43938">
        <ele>134.3</ele>
        <time>2019-06-23T06:21:40.000Z</time>
      </trkpt>
      <trkpt lat="43.27115" lon="2.43941">
        <ele>134.2</ele>
        <time>2019-06-23T06:21:41.000Z</time>
      </trkpt>
      <trkpt lat="43.27116" lon="2.43944">
        <ele>134.2</ele>
        <time>2019-06-23T06:21:42.000Z</time>
      </trkpt>
      <trkpt lat="43.27116" lon="2.43947">
        <ele>134.2</ele>
        <time>2019-06-23T06:21:43.000Z</time>
      </trkpt>
      <trkpt lat="43.27117" lon="2.4395">
        <ele>134.2</ele>
        <time>2019-06-23T06:21:44.000Z</time>
      </trkpt>
      <trkpt lat="43.27117" lon="2.43953">
        <ele>134.2</ele>
        <time>2019-06-23T06:21:45.000Z</time>
      </trkpt>
      <trkpt lat="43.27118" lon="2.43956">
        <ele>134.2</ele>
        <time>2019-06-23T06:21:46.000Z</time>
      </trkpt>
      <trkpt lat="43.27119" lon="2.43959">
        <ele>134.2</ele>
        <time>2019-06-23T06:21:47.000Z</time>
      </trkpt>
      <trkpt lat="43.27119" lon="2.43962">
        <ele>134.2</ele>
        <time>2019-06-23T06:21:48.000Z</time>
      </trkpt>
      <trkpt lat="43.2712" lon="2.43965">
        <ele>134.2</ele>
        <time>2019-06-23T06:21:49.000Z</time>
      </trkpt>
      <trkpt lat="43.2712" lon="2.43968">
        <ele>134.1</ele>
        <time>2019-06-23T06:21:50.000Z</time>
      </trkpt>
      <trkpt lat="43.27121" lon="2.43971">
        <ele>134.1</ele>
        <time>2019-06-23T06:21:51.000Z</time>
      </trkpt>
      <trkpt lat="43.27121" lon="2.43975">
        <ele>134.1</ele>
        <time>2019-06-23T06:21:52.000Z</time>
      </trkpt>
      <trkpt lat="43.27122" lon="2.43978">
        <ele>134.1</ele>
        <time>2019-06-23T06:21:53.000Z</time>
      </trkpt>
      <trkpt lat="43.27122" lon="2.43981">
        <ele>134.1</ele>
        <time>2019-06-23T06:21:54.000Z</time>
      </trkpt>
      <trkpt lat="43.27123" lon="2.43984">
        <ele>134.1</ele>
        <time>2019-06-23T06:21:55.000Z</time>
      </trkpt>
      <trkpt lat="43.27123" lon="2.43987">
        <ele>134.1</ele>
        <time>2019-06-23T06:21:56.000Z</time>
      </trkpt>
      <trkpt lat="43.27124" lon="2.4399">
        <ele>134</ele>
        <time>2019-06-23T06:21:57.000Z</time>
      </trkpt>
      <trkpt lat="43.27124" lon="2.43994">
        <ele>134</ele>
        <time>2019-06-23T06:21:58.000Z</time>
      </trkpt>
      <trkpt lat="43.27125" lon="2.43997">
        <ele>134</ele>
        <time>2019-06-23T06:21:59.000Z</time>
      </trkpt>
      <trkpt lat="43.27126" lon="2.44">
        <ele>134</ele>
        <time>2019-06-23T06:22:00.000Z</time>
      </trkpt>
      <trkpt lat="43.27126" lon="2.44003">
        <ele>134.1</ele>
        <time>2019-06-23T06:22:01.000Z</time>
      </trkpt>
      <trkpt lat="43.27127" lon="2.44007">
        <ele>134.2</ele>
        <time>2019-06-23T06:22:02.000Z</time>
      </trkpt>
      <trkpt lat="43.27128" lon="2.4401">
        <ele>134.3</ele>
        <time>2019-06-23T06:22:03.000Z</time>
      </trkpt>
      <trkpt lat="43.27129" lon="2.44013">
        <ele>134.4</ele>
        <time>2019-06-23T06:22:04.000Z</time>
      </trkpt>
      <trkpt lat="43.27131" lon="2.44016">
        <ele>134.5</ele>
        <time>2019-06-23T06:22:05.000Z</time>
      </trkpt>
      <trkpt lat="43.27132" lon="2.4402">
        <ele>134.6</ele>
        <time>2019-06-23T06:22:06.000Z</time>
      </trkpt>
      <trkpt lat="43.27133" lon="2.44023">
        <ele>134.6</ele>
        <time>2019-06-23T06:22:07.000Z</time>
      </trkpt>
      <trkpt lat="43.27134" lon="2.44026">
        <ele>134.7</ele>
        <time>2019-06-23T06:22:08.000Z</time>
      </trkpt>
      <trkpt lat="43.27135" lon="2.44029">
        <ele>134.8</ele>
        <time>2019-06-23T06:22:09.000Z</time>
      </trkpt>
      <trkpt lat="43.27136" lon="2.44032">
        <ele>134.9</ele>
        <time>2019-06-23T06:22:10.000Z</time>
      </trkpt>
      <trkpt lat="43.27137" lon="2.44035">
        <ele>135</ele>
        <time>2019-06-23T06:22:11.000Z</time>
      </trkpt>
      <trkpt lat="43.27137" lon="2.44038">
        <ele>135</ele>
        <time>2019-06-23T06:22:12.000Z</time>
      </trkpt>
      <trkpt lat="43.27138" lon="2.44041">
        <ele>135.1</ele>
        <time>2019-06-23T06:22:13.000Z</time>
      </trkpt>
      <trkpt lat="43.27139" lon="2.44045">
        <ele>135.2</ele>
        <time>2019-06-23T06:22:14.000Z</time>
      </trkpt>
      <trkpt lat="43.27139" lon="2.44048">
        <ele>135.3</ele>
        <time>2019-06-23T06:22:15.000Z</time>
      </trkpt>
      <trkpt lat="43.2714" lon="2.44051">
        <ele>135.3</ele>
        <time>2019-06-23T06:22:16.000Z</time>
      </trkpt>
      <trkpt lat="43.2714" lon="2.44054">
        <ele>135.4</ele>
        <time>2019-06-23T06:22:17.000Z</time>
      </trkpt>
      <trkpt lat="43.27141" lon="2.44057">
        <ele>135.4</ele>
        <time>2019-06-23T06:22:18.000Z</time>
      </trkpt>
      <trkpt lat="43.27141" lon="2.4406">
        <ele>135.5</ele>
        <time>2019-06-23T06:22:19.000Z</time>
      </trkpt>
      <trkpt lat="43.27142" lon="2.44063">
        <ele>135.6</ele>
        <time>2019-06-23T06:22:20.000Z</time>
      </trkpt>
      <trkpt lat="43.27142" lon="2.44066">
        <ele>135.6</ele>
        <time>2019-06-23T06:22:21.000Z</time>
      </trkpt>
      <trkpt lat="43.27143" lon="2.44069">
        <ele>135.7</ele>
        <time>2019-06-23T06:22:22.000Z</time>
      </trkpt>
      <trkpt lat="43.27143" lon="2.44072">
        <ele>135.7</ele>
        <time>2019-06-23T06:22:23.000Z</time>
      </trkpt>
      <trkpt lat="43.27143" lon="2.44076">
        <ele>135.8</ele>
        <time>2019-06-23T06:22:24.000Z</time>
      </trkpt>
      <trkpt lat="43.27144" lon="2.44079">
        <ele>135.9</ele>
        <time>2019-06-23T06:22:25.000Z</time>
      </trkpt>
      <trkpt lat="43.27144" lon="2.44082">
        <ele>135.9</ele>
        <time>2019-06-23T06:22:26.000Z</time>
      </trkpt>
      <trkpt lat="43.27145" lon="2.44085">
        <ele>136</ele>
        <time>2019-06-23T06:22:27.000Z</time>
      </trkpt>
      <trkpt lat="43.27145" lon="2.44089">
        <ele>136.1</ele>
        <time>2019-06-23T06:22:28.000Z</time>
      </trkpt>
      <trkpt lat="43.27146" lon="2.44092">
        <ele>136.2</ele>
        <time>2019-06-23T06:22:29.000Z</time>
      </trkpt>
      <trkpt lat="43.27146" lon="2.44095">
        <ele>136.3</ele>
        <time>2019-06-23T06:22:30.000Z</time>
      </trkpt>
      <trkpt lat="43.27147" lon="2.44098">
        <ele>136.4</ele>
        <time>2019-06-23T06:22:31.000Z</time>
      </trkpt>
      <trkpt lat="43.27147" lon="2.44101">
        <ele>136.5</ele>
        <time>2019-06-23T06:22:32.000Z</time>
      </trkpt>
      <trkpt lat="43.27147" lon="2.44105">
        <ele>136.6</ele>
        <time>2019-06-23T06:22:33.000Z</time>
      </trkpt>
      <trkpt lat="43.27148" lon="2.44108">
        <ele>136.7</ele>
        <time>2019-06-23T06:22:34.000Z</time>
      </trkpt>
      <trkpt lat="43.27148" lon="2.44111">
        <ele>136.8</ele>
        <time>2019-06-23T06:22:35.000Z</time>
      </trkpt>
      <trkpt lat="43.27148" lon="2.44114">
        <ele>136.9</ele>
        <time>2019-06-23T06:22:36.000Z</time>
      </trkpt>
      <trkpt lat="43.27149" lon="2.44117">
        <ele>136.9</ele>
        <time>2019-06-23T06:22:37.000Z</time>
      </trkpt>
      <trkpt lat="43.27149" lon="2.44121">
        <ele>137</ele>
        <time>2019-06-23T06:22:38.000Z</time>
      </trkpt>
      <trkpt lat="43.27149" lon="2.44124">
        <ele>137.1</ele>
        <time>2019-06-23T06:22:39.000Z</time>
      </trkpt>
      <trkpt lat="43.27149" lon="2.44127">
        <ele>137.2</ele>
        <time>2019-06-23T06:22:40.000Z</time>
      </trkpt>
      <trkpt lat="43.27149" lon="2.4413">
        <ele>137.3</ele>
        <time>2019-06-23T06:22:41.000Z</time>
      </trkpt>
      <trkpt lat="43.27149" lon="2.44133">
        <ele>137.3</ele>
        <time>2019-06-23T06:22:42.000Z</time>
      </trkpt>
      <trkpt lat="43.27149" lon="2.44136">
        <ele>137.4</ele>
        <time>2019-06-23T06:22:43.000Z</time>
      </trkpt>
      <trkpt lat="43.27149" lon="2.44138">
        <ele>137.5</ele>
        <time>2019-06-23T06:22:44.000Z</time>
      </trkpt>
      <trkpt lat="43.27149" lon="2.44141">
        <ele>137.5</ele>
        <time>2019-06-23T06:22:45.000Z</time>
      </trkpt>
      <trkpt lat="43.27149" lon="2.44144">
        <ele>137.6</ele>
        <time>2019-06-23T06:22:46.000Z</time>
      </trkpt>
      <trkpt lat="43.27148" lon="2.44147">
        <ele>137.6</ele>
        <time>2019-06-23T06:22:47.000Z</time>
      </trkpt>
      <trkpt lat="43.27148" lon="2.4415">
        <ele>137.7</ele>
        <time>2019-06-23T06:22:48.000Z</time>
      </trkpt>
      <trkpt lat="43.27148" lon="2.44153">
        <ele>137.8</ele>
        <time>2019-06-23T06:22:49.000Z</time>
      </trkpt>
      <trkpt lat="43.27148" lon="2.44155">
        <ele>137.8</ele>
        <time>2019-06-23T06:22:50.000Z</time>
      </trkpt>
      <trkpt lat="43.27147" lon="2.44158">
        <ele>137.9</ele>
        <time>2019-06-23T06:22:51.000Z</time>
      </trkpt>
      <trkpt lat="43.27147" lon="2.44161">
        <ele>137.9</ele>
        <time>2019-06-23T06:22:52.000Z</time>
      </trkpt>
      <trkpt lat="43.27147" lon="2.44164">
        <ele>138</ele>
        <time>2019-06-23T06:22:53.000Z</time>
      </trkpt>
      <trkpt lat="43.27146" lon="2.44167">
        <ele>138</ele>
        <time>2019-06-23T06:22:54.000Z</time>
      </trkpt>
      <trkpt lat="43.27146" lon="2.4417">
        <ele>138.1</ele>
        <time>2019-06-23T06:22:55.000Z</time>
      </trkpt>
      <trkpt lat="43.27146" lon="2.44173">
        <ele>138.2</ele>
        <time>2019-06-23T06:22:56.000Z</time>
      </trkpt>
      <trkpt lat="43.27146" lon="2.44176">
        <ele>138.3</ele>
        <time>2019-06-23T06:22:57.000Z</time>
      </trkpt>
      <trkpt lat="43.27146" lon="2.44179">
        <ele>138.4</ele>
        <time>2019-06-23T06:22:58.000Z</time>
      </trkpt>
      <trkpt lat="43.27145" lon="2.44182">
        <ele>138.5</ele>
        <time>2019-06-23T06:22:59.000Z</time>
      </trkpt>
      <trkpt lat="43.27145" lon="2.44186">
        <ele>138.6</ele>
        <time>2019-06-23T06:23:00.000Z</time>
      </trkpt>
      <trkpt lat="43.27145" lon="2.44189">
        <ele>138.7</ele>
        <time>2019-06-23T06:23:01.000Z</time>
      </trkpt>
      <trkpt lat="43.27145" lon="2.44192">
        <ele>138.8</ele>
        <time>2019-06-23T06:23:02.000Z</time>
      </trkpt>
      <trkpt lat="43.27145" lon="2.44196">
        <ele>138.9</ele>
        <time>2019-06-23T06:23:03.000Z</time>
      </trkpt>
      <trkpt lat="43.27145" lon="2.44199">
        <ele>139</ele>
        <time>2019-06-23T06:23:04.000Z</time>
      </trkpt>
      <trkpt lat="43.27145" lon="2.44203">
        <ele>139.1</ele>
        <time>2019-06-23T06:23:05.000Z</time>
      </trkpt>
      <trkpt lat="43.27145" lon="2.44206">
        <ele>139.2</ele>
        <time>2019-06-23T06:23:06.000Z</time>
      </trkpt>
      <trkpt lat="43.27144" lon="2.44209">
        <ele>139.3</ele>
        <time>2019-06-23T06:23:07.000Z</time>
      </trkpt>
      <trkpt lat="43.27144" lon="2.44213">
        <ele>139.4</ele>
        <time>2019-06-23T06:23:08.000Z</time>
      </trkpt>
      <trkpt lat="43.27144" lon="2.44216">
        <ele>139.5</ele>
        <time>2019-06-23T06:23:09.000Z</time>
      </trkpt>
      <trkpt lat="43.27144" lon="2.4422">
        <ele>139.7</ele>
        <time>2019-06-23T06:23:10.000Z</time>
      </trkpt>
      <trkpt lat="43.27144" lon="2.44223">
        <ele>139.8</ele>
        <time>2019-06-23T06:23:11.000Z</time>
      </trkpt>
      <trkpt lat="43.27144" lon="2.44227">
        <ele>139.9</ele>
        <time>2019-06-23T06:23:12.000Z</time>
      </trkpt>
      <trkpt lat="43.27144" lon="2.4423">
        <ele>140</ele>
        <time>2019-06-23T06:23:13.000Z</time>
      </trkpt>
      <trkpt lat="43.27143" lon="2.44233">
        <ele>140.1</ele>
        <time>2019-06-23T06:23:14.000Z</time>
      </trkpt>
      <trkpt lat="43.27143" lon="2.44237">
        <ele>140.2</ele>
        <time>2019-06-23T06:23:15.000Z</time>
      </trkpt>
      <trkpt lat="43.27143" lon="2.4424">
        <ele>140.3</ele>
        <time>2019-06-23T06:23:16.000Z</time>
      </trkpt>
      <trkpt lat="43.27143" lon="2.44244">
        <ele>140.3</ele>
        <time>2019-06-23T06:23:17.000Z</time>
      </trkpt>
      <trkpt lat="43.27142" lon="2.44247">
        <ele>140.4</ele>
        <time>2019-06-23T06:23:18.000Z</time>
      </trkpt>
      <trkpt lat="43.27142" lon="2.4425">
        <ele>140.5</ele>
        <time>2019-06-23T06:23:19.000Z</time>
      </trkpt>
      <trkpt lat="43.27142" lon="2.44253">
        <ele>140.7</ele>
        <time>2019-06-23T06:23:20.000Z</time>
      </trkpt>
      <trkpt lat="43.27142" lon="2.44257">
        <ele>140.8</ele>
        <time>2019-06-23T06:23:21.000Z</time>
      </trkpt>
      <trkpt lat="43.27142" lon="2.4426">
        <ele>140.9</ele>
        <time>2019-06-23T06:23:22.000Z</time>
      </trkpt>
      <trkpt lat="43.27141" lon="2.44263">
        <ele>141</ele>
        <time>2019-06-23T06:23:23.000Z</time>
      </trkpt>
      <trkpt lat="43.27141" lon="2.44267">
        <ele>141.1</ele>
        <time>2019-06-23T06:23:24.000Z</time>
      </trkpt>
      <trkpt lat="43.27141" lon="2.4427">
        <ele>141.3</ele>
        <time>2019-06-23T06:23:25.000Z</time>
      </trkpt>
      <trkpt lat="43.27141" lon="2.44273">
        <ele>141.4</ele>
        <time>2019-06-23T06:23:26.000Z</time>
      </trkpt>
      <trkpt lat="43.27141" lon="2.44276">
        <ele>141.5</ele>
        <time>2019-06-23T06:23:27.000Z</time>
      </trkpt>
      <trkpt lat="43.27141" lon="2.44279">
        <ele>141.6</ele>
        <time>2019-06-23T06:23:28.000Z</time>
      </trkpt>
      <trkpt lat="43.27141" lon="2.44283">
        <ele>141.7</ele>
        <time>2019-06-23T06:23:29.000Z</time>
      </trkpt>
      <trkpt lat="43.27141" lon="2.44286">
        <ele>141.9</ele>
        <time>2019-06-23T06:23:30.000Z</time>
      </trkpt>
      <trkpt lat="43.27141" lon="2.44289">
        <ele>142</ele>
        <time>2019-06-23T06:23:31.000Z</time>
      </trkpt>
      <trkpt lat="43.27141" lon="2.44293">
        <ele>142.1</ele>
        <time>2019-06-23T06:23:32.000Z</time>
      </trkpt>
      <trkpt lat="43.27141" lon="2.44296">
        <ele>142.3</ele>
        <time>2019-06-23T06:23:33.000Z</time>
      </trkpt>
      <trkpt lat="43.27141" lon="2.44299">
        <ele>142.4</ele>
        <time>2019-06-23T06:23:34.000Z</time>
      </trkpt>
      <trkpt lat="43.27141" lon="2.44303">
        <ele>142.5</ele>
        <time>2019-06-23T06:23:35.000Z</time>
      </trkpt>
      <trkpt lat="43.2714" lon="2.44306">
        <ele>142.6</ele>
        <time>2019-06-23T06:23:36.000Z</time>
      </trkpt>
      <trkpt lat="43.2714" lon="2.44309">
        <ele>142.7</ele>
        <time>2019-06-23T06:23:37.000Z</time>
      </trkpt>
      <trkpt lat="43.27139" lon="2.44312">
        <ele>142.8</ele>
        <time>2019-06-23T06:23:38.000Z</time>
      </trkpt>
      <trkpt lat="43.27137" lon="2.44315">
        <ele>142.8</ele>
        <time>2019-06-23T06:23:39.000Z</time>
      </trkpt>
      <trkpt lat="43.27135" lon="2.44317">
        <ele>142.8</ele>
        <time>2019-06-23T06:23:40.000Z</time>
      </trkpt>
      <trkpt lat="43.27133" lon="2.44319">
        <ele>142.8</ele>
        <time>2019-06-23T06:23:41.000Z</time>
      </trkpt>
      <trkpt lat="43.27131" lon="2.4432">
        <ele>142.7</ele>
        <time>2019-06-23T06:23:42.000Z</time>
      </trkpt>
      <trkpt lat="43.27129" lon="2.44321">
        <ele>142.7</ele>
        <time>2019-06-23T06:23:43.000Z</time>
      </trkpt>
      <trkpt lat="43.27127" lon="2.44321">
        <ele>142.6</ele>
        <time>2019-06-23T06:23:44.000Z</time>
      </trkpt>
      <trkpt lat="43.27124" lon="2.44321">
        <ele>142.4</ele>
        <time>2019-06-23T06:23:45.000Z</time>
      </trkpt>
      <trkpt lat="43.27122" lon="2.4432">
        <ele>142.3</ele>
        <time>2019-06-23T06:23:46.000Z</time>
      </trkpt>
      <trkpt lat="43.2712" lon="2.4432">
        <ele>142.1</ele>
        <time>2019-06-23T06:23:47.000Z</time>
      </trkpt>
      <trkpt lat="43.27117" lon="2.44319">
        <ele>142</ele>
        <time>2019-06-23T06:23:48.000Z</time>
      </trkpt>
      <trkpt lat="43.27115" lon="2.44318">
        <ele>141.8</ele>
        <time>2019-06-23T06:23:49.000Z</time>
      </trkpt>
      <trkpt lat="43.27113" lon="2.44316">
        <ele>141.7</ele>
        <time>2019-06-23T06:23:50.000Z</time>
      </trkpt>
      <trkpt lat="43.27111" lon="2.44315">
        <ele>141.5</ele>
        <time>2019-06-23T06:23:51.000Z</time>
      </trkpt>
      <trkpt lat="43.27109" lon="2.44314">
        <ele>141.4</ele>
        <time>2019-06-23T06:23:52.000Z</time>
      </trkpt>
      <trkpt lat="43.27108" lon="2.44313">
        <ele>141.3</ele>
        <time>2019-06-23T06:23:53.000Z</time>
      </trkpt>
      <trkpt lat="43.27106" lon="2.44312">
        <ele>141.1</ele>
        <time>2019-06-23T06:23:54.000Z</time>
      </trkpt>
      <trkpt lat="43.27104" lon="2.44311">
        <ele>141</ele>
        <time>2019-06-23T06:23:55.000Z</time>
      </trkpt>
      <trkpt lat="43.27101" lon="2.44311">
        <ele>140.8</ele>
        <time>2019-06-23T06:23:56.000Z</time>
      </trkpt>
      <trkpt lat="43.27099" lon="2.4431">
        <ele>140.7</ele>
        <time>2019-06-23T06:23:57.000Z</time>
      </trkpt>
      <trkpt lat="43.27097" lon="2.4431">
        <ele>140.6</ele>
        <time>2019-06-23T06:23:58.000Z</time>
      </trkpt>
      <trkpt lat="43.27095" lon="2.44311">
        <ele>140.5</ele>
        <time>2019-06-23T06:23:59.000Z</time>
      </trkpt>
      <trkpt lat="43.27093" lon="2.44312">
        <ele>140.5</ele>
        <time>2019-06-23T06:24:00.000Z</time>
      </trkpt>
      <trkpt lat="43.27091" lon="2.44314">
        <ele>140.5</ele>
        <time>2019-06-23T06:24:01.000Z</time>
      </trkpt>
      <trkpt lat="43.2709" lon="2.44316">
        <ele>140.5</ele>
        <time>2019-06-23T06:24:02.000Z</time>
      </trkpt>
      <trkpt lat="43.2709" lon="2.44319">
        <ele>140.6</ele>
        <time>2019-06-23T06:24:03.000Z</time>
      </trkpt>
      <trkpt lat="43.2709" lon="2.44322">
        <ele>140.7</ele>
        <time>2019-06-23T06:24:04.000Z</time>
      </trkpt>
      <trkpt lat="43.2709" lon="2.44325">
        <ele>140.9</ele>
        <time>2019-06-23T06:24:05.000Z</time>
      </trkpt>
      <trkpt lat="43.27091" lon="2.44328">
        <ele>141.1</ele>
        <time>2019-06-23T06:24:06.000Z</time>
      </trkpt>
      <trkpt lat="43.27092" lon="2.4433">
        <ele>141.3</ele>
        <time>2019-06-23T06:24:07.000Z</time>
      </trkpt>
      <trkpt lat="43.27093" lon="2.44333">
        <ele>141.4</ele>
        <time>2019-06-23T06:24:08.000Z</time>
      </trkpt>
      <trkpt lat="43.27094" lon="2.44336">
        <ele>141.6</ele>
        <time>2019-06-23T06:24:09.000Z</time>
      </trkpt>
      <trkpt lat="43.27095" lon="2.44338">
        <ele>141.7</ele>
        <time>2019-06-23T06:24:10.000Z</time>
      </trkpt>
      <trkpt lat="43.27096" lon="2.4434">
        <ele>141.8</ele>
        <time>2019-06-23T06:24:11.000Z</time>
      </trkpt>
      <trkpt lat="43.27097" lon="2.44343">
        <ele>141.9</ele>
        <time>2019-06-23T06:24:12.000Z</time>
      </trkpt>
      <trkpt lat="43.27099" lon="2.44345">
        <ele>142.1</ele>
        <time>2019-06-23T06:24:13.000Z</time>
      </trkpt>
      <trkpt lat="43.271" lon="2.44347">
        <ele>142.2</ele>
        <time>2019-06-23T06:24:14.000Z</time>
      </trkpt>
      <trkpt lat="43.27101" lon="2.44349">
        <ele>142.3</ele>
        <time>2019-06-23T06:24:15.000Z</time>
      </trkpt>
      <trkpt lat="43.27103" lon="2.44352">
        <ele>142.5</ele>
        <time>2019-06-23T06:24:16.000Z</time>
      </trkpt>
      <trkpt lat="43.27104" lon="2.44354">
        <ele>142.6</ele>
        <time>2019-06-23T06:24:17.000Z</time>
      </trkpt>
      <trkpt lat="43.27106" lon="2.44356">
        <ele>142.8</ele>
        <time>2019-06-23T06:24:18.000Z</time>
      </trkpt>
      <trkpt lat="43.27107" lon="2.44358">
        <ele>142.9</ele>
        <time>2019-06-23T06:24:19.000Z</time>
      </trkpt>
      <trkpt lat="43.27109" lon="2.44361">
        <ele>143.1</ele>
        <time>2019-06-23T06:24:20.000Z</time>
      </trkpt>
      <trkpt lat="43.27111" lon="2.44363">
        <ele>143.2</ele>
        <time>2019-06-23T06:24:21.000Z</time>
      </trkpt>
      <trkpt lat="43.27112" lon="2.44365">
        <ele>143.4</ele>
        <time>2019-06-23T06:24:22.000Z</time>
      </trkpt>
      <trkpt lat="43.27114" lon="2.44367">
        <ele>143.6</ele>
        <time>2019-06-23T06:24:23.000Z</time>
      </trkpt>
      <trkpt lat="43.27116" lon="2.44369">
        <ele>143.8</ele>
        <time>2019-06-23T06:24:24.000Z</time>
      </trkpt>
      <trkpt lat="43.27118" lon="2.44372">
        <ele>143.9</ele>
        <time>2019-06-23T06:24:25.000Z</time>
      </trkpt>
      <trkpt lat="43.2712" lon="2.44374">
        <ele>144.1</ele>
        <time>2019-06-23T06:24:26.000Z</time>
      </trkpt>
      <trkpt lat="43.27121" lon="2.44376">
        <ele>144.3</ele>
        <time>2019-06-23T06:24:27.000Z</time>
      </trkpt>
      <trkpt lat="43.27123" lon="2.44378">
        <ele>144.5</ele>
        <time>2019-06-23T06:24:28.000Z</time>
      </trkpt>
      <trkpt lat="43.27125" lon="2.44381">
        <ele>144.7</ele>
        <time>2019-06-23T06:24:29.000Z</time>
      </trkpt>
      <trkpt lat="43.27127" lon="2.44383">
        <ele>144.9</ele>
        <time>2019-06-23T06:24:30.000Z</time>
      </trkpt>
      <trkpt lat="43.27128" lon="2.44385">
        <ele>145.1</ele>
        <time>2019-06-23T06:24:31.000Z</time>
      </trkpt>
      <trkpt lat="43.2713" lon="2.44388">
        <ele>145.3</ele>
        <time>2019-06-23T06:24:32.000Z</time>
      </trkpt>
      <trkpt lat="43.27131" lon="2.4439">
        <ele>145.4</ele>
        <time>2019-06-23T06:24:33.000Z</time>
      </trkpt>
      <trkpt lat="43.27133" lon="2.44393">
        <ele>145.6</ele>
        <time>2019-06-23T06:24:34.000Z</time>
      </trkpt>
      <trkpt lat="43.27134" lon="2.44395">
        <ele>145.8</ele>
        <time>2019-06-23T06:24:35.000Z</time>
      </trkpt>
      <trkpt lat="43.27135" lon="2.44397">
        <ele>146</ele>
        <time>2019-06-23T06:24:36.000Z</time>
      </trkpt>
      <trkpt lat="43.27136" lon="2.444">
        <ele>146.2</ele>
        <time>2019-06-23T06:24:37.000Z</time>
      </trkpt>
      <trkpt lat="43.27137" lon="2.44403">
        <ele>146.3</ele>
        <time>2019-06-23T06:24:38.000Z</time>
      </trkpt>
      <trkpt lat="43.27138" lon="2.44405">
        <ele>146.5</ele>
        <time>2019-06-23T06:24:39.000Z</time>
      </trkpt>
      <trkpt lat="43.27139" lon="2.44408">
        <ele>146.7</ele>
        <time>2019-06-23T06:24:40.000Z</time>
      </trkpt>
      <trkpt lat="43.2714" lon="2.44411">
        <ele>146.8</ele>
        <time>2019-06-23T06:24:41.000Z</time>
      </trkpt>
      <trkpt lat="43.2714" lon="2.44414">
        <ele>147</ele>
        <time>2019-06-23T06:24:42.000Z</time>
      </trkpt>
      <trkpt lat="43.27141" lon="2.44417">
        <ele>147.2</ele>
        <time>2019-06-23T06:24:43.000Z</time>
      </trkpt>
      <trkpt lat="43.27141" lon="2.44421">
        <ele>147.2</ele>
        <time>2019-06-23T06:24:44.000Z</time>
      </trkpt>
      <trkpt lat="43.27142" lon="2.44424">
        <ele>147.3</ele>
        <time>2019-06-23T06:24:45.000Z</time>
      </trkpt>
      <trkpt lat="43.27142" lon="2.44427">
        <ele>147.4</ele>
        <time>2019-06-23T06:24:46.000Z</time>
      </trkpt>
      <trkpt lat="43.27142" lon="2.44431">
        <ele>147.5</ele>
        <time>2019-06-23T06:24:47.000Z</time>
      </trkpt>
      <trkpt lat="43.27142" lon="2.44434">
        <ele>147.5</ele>
        <time>2019-06-23T06:24:48.000Z</time>
      </trkpt>
      <trkpt lat="43.27143" lon="2.44438">
        <ele>147.6</ele>
        <time>2019-06-23T06:24:49.000Z</time>
      </trkpt>
      <trkpt lat="43.27143" lon="2.44441">
        <ele>147.7</ele>
        <time>2019-06-23T06:24:50.000Z</time>
      </trkpt>
      <trkpt lat="43.27143" lon="2.44445">
        <ele>147.7</ele>
        <time>2019-06-23T06:24:51.000Z</time>
      </trkpt>
      <trkpt lat="43.27144" lon="2.44448">
        <ele>147.8</ele>
        <time>2019-06-23T06:24:52.000Z</time>
      </trkpt>
      <trkpt lat="43.27144" lon="2.44451">
        <ele>147.9</ele>
        <time>2019-06-23T06:24:53.000Z</time>
      </trkpt>
      <trkpt lat="43.27145" lon="2.44454">
        <ele>148</ele>
        <time>2019-06-23T06:24:54.000Z</time>
      </trkpt>
      <trkpt lat="43.27145" lon="2.44457">
        <ele>148.1</ele>
        <time>2019-06-23T06:24:55.000Z</time>
      </trkpt>
      <trkpt lat="43.27146" lon="2.4446">
        <ele>148.1</ele>
        <time>2019-06-23T06:24:56.000Z</time>
      </trkpt>
      <trkpt lat="43.27146" lon="2.44463">
        <ele>148.2</ele>
        <time>2019-06-23T06:24:57.000Z</time>
      </trkpt>
      <trkpt lat="43.27147" lon="2.44466">
        <ele>148.3</ele>
        <time>2019-06-23T06:24:58.000Z</time>
      </trkpt>
      <trkpt lat="43.27147" lon="2.44469">
        <ele>148.4</ele>
        <time>2019-06-23T06:24:59.000Z</time>
      </trkpt>
      <trkpt lat="43.27147" lon="2.44472">
        <ele>148.4</ele>
        <time>2019-06-23T06:25:00.000Z</time>
      </trkpt>
      <trkpt lat="43.27148" lon="2.44475">
        <ele>148.5</ele>
        <time>2019-06-23T06:25:01.000Z</time>
      </trkpt>
      <trkpt lat="43.27148" lon="2.44479">
        <ele>148.6</ele>
        <time>2019-06-23T06:25:02.000Z</time>
      </trkpt>
      <trkpt lat="43.27148" lon="2.44482">
        <ele>148.6</ele>
        <time>2019-06-23T06:25:03.000Z</time>
      </trkpt>
      <trkpt lat="43.27148" lon="2.44485">
        <ele>148.7</ele>
        <time>2019-06-23T06:25:04.000Z</time>
      </trkpt>
      <trkpt lat="43.27148" lon="2.44489">
        <ele>148.7</ele>
        <time>2019-06-23T06:25:05.000Z</time>
      </trkpt>
      <trkpt lat="43.27148" lon="2.44492">
        <ele>148.8</ele>
        <time>2019-06-23T06:25:06.000Z</time>
      </trkpt>
      <trkpt lat="43.27148" lon="2.44495">
        <ele>148.8</ele>
        <time>2019-06-23T06:25:07.000Z</time>
      </trkpt>
      <trkpt lat="43.27148" lon="2.44499">
        <ele>148.9</ele>
        <time>2019-06-23T06:25:08.000Z</time>
      </trkpt>
      <trkpt lat="43.27148" lon="2.44502">
        <ele>149</ele>
        <time>2019-06-23T06:25:09.000Z</time>
      </trkpt>
      <trkpt lat="43.27148" lon="2.44505">
        <ele>149.1</ele>
        <time>2019-06-23T06:25:10.000Z</time>
      </trkpt>
      <trkpt lat="43.27148" lon="2.44509">
        <ele>149.2</ele>
        <time>2019-06-23T06:25:11.000Z</time>
      </trkpt>
      <trkpt lat="43.27149" lon="2.44512">
        <ele>149.3</ele>
        <time>2019-06-23T06:25:12.000Z</time>
      </trkpt>
      <trkpt lat="43.27149" lon="2.44515">
        <ele>149.4</ele>
        <time>2019-06-23T06:25:13.000Z</time>
      </trkpt>
      <trkpt lat="43.27149" lon="2.44519">
        <ele>149.5</ele>
        <time>2019-06-23T06:25:14.000Z</time>
      </trkpt>
      <trkpt lat="43.27149" lon="2.44522">
        <ele>149.6</ele>
        <time>2019-06-23T06:25:15.000Z</time>
      </trkpt>
      <trkpt lat="43.27149" lon="2.44525">
        <ele>149.7</ele>
        <time>2019-06-23T06:25:16.000Z</time>
      </trkpt>
      <trkpt lat="43.27149" lon="2.44528">
        <ele>149.8</ele>
        <time>2019-06-23T06:25:17.000Z</time>
      </trkpt>
      <trkpt lat="43.2715" lon="2.44531">
        <ele>150</ele>
        <time>2019-06-23T06:25:18.000Z</time>
      </trkpt>
      <trkpt lat="43.2715" lon="2.44535">
        <ele>150.1</ele>
        <time>2019-06-23T06:25:19.000Z</time>
      </trkpt>
      <trkpt lat="43.2715" lon="2.44538">
        <ele>150.2</ele>
        <time>2019-06-23T06:25:20.000Z</time>
      </trkpt>
      <trkpt lat="43.27151" lon="2.44541">
        <ele>150.3</ele>
        <time>2019-06-23T06:25:21.000Z</time>
      </trkpt>
      <trkpt lat="43.27151" lon="2.44544">
        <ele>150.5</ele>
        <time>2019-06-23T06:25:22.000Z</time>
      </trkpt>
      <trkpt lat="43.27152" lon="2.44547">
        <ele>150.6</ele>
        <time>2019-06-23T06:25:23.000Z</time>
      </trkpt>
      <trkpt lat="43.27152" lon="2.4455">
        <ele>150.7</ele>
        <time>2019-06-23T06:25:24.000Z</time>
      </trkpt>
      <trkpt lat="43.27153" lon="2.44554">
        <ele>150.9</ele>
        <time>2019-06-23T06:25:25.000Z</time>
      </trkpt>
      <trkpt lat="43.27153" lon="2.44557">
        <ele>151</ele>
        <time>2019-06-23T06:25:26.000Z</time>
      </trkpt>
      <trkpt lat="43.27154" lon="2.4456">
        <ele>151.2</ele>
        <time>2019-06-23T06:25:27.000Z</time>
      </trkpt>
      <trkpt lat="43.27154" lon="2.44563">
        <ele>151.3</ele>
        <time>2019-06-23T06:25:28.000Z</time>
      </trkpt>
      <trkpt lat="43.27155" lon="2.44567">
        <ele>151.5</ele>
        <time>2019-06-23T06:25:29.000Z</time>
      </trkpt>
      <trkpt lat="43.27156" lon="2.4457">
        <ele>151.6</ele>
        <time>2019-06-23T06:25:30.000Z</time>
      </trkpt>
      <trkpt lat="43.27156" lon="2.44573">
        <ele>151.8</ele>
        <time>2019-06-23T06:25:31.000Z</time>
      </trkpt>
      <trkpt lat="43.27157" lon="2.44577">
        <ele>152</ele>
        <time>2019-06-23T06:25:32.000Z</time>
      </trkpt>
      <trkpt lat="43.27157" lon="2.4458">
        <ele>152.1</ele>
        <time>2019-06-23T06:25:33.000Z</time>
      </trkpt>
      <trkpt lat="43.27158" lon="2.44584">
        <ele>152.3</ele>
        <time>2019-06-23T06:25:34.000Z</time>
      </trkpt>
      <trkpt lat="43.27158" lon="2.44587">
        <ele>152.4</ele>
        <time>2019-06-23T06:25:35.000Z</time>
      </trkpt>
      <trkpt lat="43.27159" lon="2.4459">
        <ele>152.6</ele>
        <time>2019-06-23T06:25:36.000Z</time>
      </trkpt>
      <trkpt lat="43.27159" lon="2.44593">
        <ele>152.7</ele>
        <time>2019-06-23T06:25:37.000Z</time>
      </trkpt>
      <trkpt lat="43.27159" lon="2.44597">
        <ele>152.8</ele>
        <time>2019-06-23T06:25:38.000Z</time>
      </trkpt>
      <trkpt lat="43.2716" lon="2.446">
        <ele>152.9</ele>
        <time>2019-06-23T06:25:39.000Z</time>
      </trkpt>
      <trkpt lat="43.2716" lon="2.44603">
        <ele>153</ele>
        <time>2019-06-23T06:25:40.000Z</time>
      </trkpt>
      <trkpt lat="43.2716" lon="2.44606">
        <ele>153.1</ele>
        <time>2019-06-23T06:25:41.000Z</time>
      </trkpt>
      <trkpt lat="43.2716" lon="2.44609">
        <ele>153.2</ele>
        <time>2019-06-23T06:25:42.000Z</time>
      </trkpt>
      <trkpt lat="43.27159" lon="2.44611">
        <ele>153.3</ele>
        <time>2019-06-23T06:25:43.000Z</time>
      </trkpt>
      <trkpt lat="43.27159" lon="2.44614">
        <ele>153.4</ele>
        <time>2019-06-23T06:25:44.000Z</time>
      </trkpt>
      <trkpt lat="43.27159" lon="2.44617">
        <ele>153.4</ele>
        <time>2019-06-23T06:25:45.000Z</time>
      </trkpt>
      <trkpt lat="43.27159" lon="2.4462">
        <ele>153.5</ele>
        <time>2019-06-23T06:25:46.000Z</time>
      </trkpt>
      <trkpt lat="43.27159" lon="2.44623">
        <ele>153.6</ele>
        <time>2019-06-23T06:25:47.000Z</time>
      </trkpt>
      <trkpt lat="43.27158" lon="2.44626">
        <ele>153.6</ele>
        <time>2019-06-23T06:25:48.000Z</time>
      </trkpt>
      <trkpt lat="43.27158" lon="2.44629">
        <ele>153.7</ele>
        <time>2019-06-23T06:25:49.000Z</time>
      </trkpt>
      <trkpt lat="43.27158" lon="2.44632">
        <ele>153.8</ele>
        <time>2019-06-23T06:25:50.000Z</time>
      </trkpt>
      <trkpt lat="43.27157" lon="2.44635">
        <ele>153.8</ele>
        <time>2019-06-23T06:25:51.000Z</time>
      </trkpt>
      <trkpt lat="43.27157" lon="2.44638">
        <ele>153.9</ele>
        <time>2019-06-23T06:25:52.000Z</time>
      </trkpt>
      <trkpt lat="43.27157" lon="2.44641">
        <ele>154</ele>
        <time>2019-06-23T06:25:53.000Z</time>
      </trkpt>
      <trkpt lat="43.27157" lon="2.44645">
        <ele>154</ele>
        <time>2019-06-23T06:25:54.000Z</time>
      </trkpt>
      <trkpt lat="43.27157" lon="2.44648">
        <ele>154.1</ele>
        <time>2019-06-23T06:25:55.000Z</time>
      </trkpt>
      <trkpt lat="43.27157" lon="2.44651">
        <ele>154.2</ele>
        <time>2019-06-23T06:25:56.000Z</time>
      </trkpt>
      <trkpt lat="43.27156" lon="2.44654">
        <ele>154.3</ele>
        <time>2019-06-23T06:25:57.000Z</time>
      </trkpt>
      <trkpt lat="43.27156" lon="2.44657">
        <ele>154.3</ele>
        <time>2019-06-23T06:25:58.000Z</time>
      </trkpt>
      <trkpt lat="43.27156" lon="2.4466">
        <ele>154.4</ele>
        <time>2019-06-23T06:25:59.000Z</time>
      </trkpt>
      <trkpt lat="43.27156" lon="2.44662">
        <ele>154.4</ele>
        <time>2019-06-23T06:26:00.000Z</time>
      </trkpt>
      <trkpt lat="43.27155" lon="2.44665">
        <ele>154.4</ele>
        <time>2019-06-23T06:26:01.000Z</time>
      </trkpt>
      <trkpt lat="43.27155" lon="2.44667">
        <ele>154.4</ele>
        <time>2019-06-23T06:26:02.000Z</time>
      </trkpt>
      <trkpt lat="43.27154" lon="2.4467">
        <ele>154.3</ele>
        <time>2019-06-23T06:26:03.000Z</time>
      </trkpt>
      <trkpt lat="43.27154" lon="2.44672">
        <ele>154.1</ele>
        <time>2019-06-23T06:26:04.000Z</time>
      </trkpt>
      <trkpt lat="43.27153" lon="2.44674">
        <ele>154</ele>
        <time>2019-06-23T06:26:05.000Z</time>
      </trkpt>
      <trkpt lat="43.27153" lon="2.44676">
        <ele>153.9</ele>
        <time>2019-06-23T06:26:06.000Z</time>
      </trkpt>
      <trkpt lat="43.27152" lon="2.44678">
        <ele>153.8</ele>
        <time>2019-06-23T06:26:07.000Z</time>
      </trkpt>
      <trkpt lat="43.27152" lon="2.4468">
        <ele>153.7</ele>
        <time>2019-06-23T06:26:08.000Z</time>
      </trkpt>
      <trkpt lat="43.27152" lon="2.44682">
        <ele>153.7</ele>
        <time>2019-06-23T06:26:09.000Z</time>
      </trkpt>
      <trkpt lat="43.27151" lon="2.44683">
        <ele>153.6</ele>
        <time>2019-06-23T06:26:10.000Z</time>
      </trkpt>
      <trkpt lat="43.27151" lon="2.44685">
        <ele>153.5</ele>
        <time>2019-06-23T06:26:11.000Z</time>
      </trkpt>
      <trkpt lat="43.27151" lon="2.44687">
        <ele>153.5</ele>
        <time>2019-06-23T06:26:12.000Z</time>
      </trkpt>
      <trkpt lat="43.27151" lon="2.44688">
        <ele>153.4</ele>
        <time>2019-06-23T06:26:13.000Z</time>
      </trkpt>
      <trkpt lat="43.27151" lon="2.4469">
        <ele>153.4</ele>
        <time>2019-06-23T06:26:14.000Z</time>
      </trkpt>
      <trkpt lat="43.27151" lon="2.44691">
        <ele>153.3</ele>
        <time>2019-06-23T06:26:15.000Z</time>
      </trkpt>
      <trkpt lat="43.27151" lon="2.44693">
        <ele>153.3</ele>
        <time>2019-06-23T06:26:16.000Z</time>
      </trkpt>
      <trkpt lat="43.27151" lon="2.44695">
        <ele>153.3</ele>
        <time>2019-06-23T06:26:17.000Z</time>
      </trkpt>
      <trkpt lat="43.27151" lon="2.44696">
        <ele>153.2</ele>
        <time>2019-06-23T06:26:18.000Z</time>
      </trkpt>
      <trkpt lat="43.27151" lon="2.44698">
        <ele>153.2</ele>
        <time>2019-06-23T06:26:19.000Z</time>
      </trkpt>
      <trkpt lat="43.27151" lon="2.44699">
        <ele>153.2</ele>
        <time>2019-06-23T06:26:20.000Z</time>
      </trkpt>
      <trkpt lat="43.27151" lon="2.44701">
        <ele>153.1</ele>
        <time>2019-06-23T06:26:21.000Z</time>
      </trkpt>
      <trkpt lat="43.27151" lon="2.44702">
        <ele>153.1</ele>
        <time>2019-06-23T06:26:22.000Z</time>
      </trkpt>
      <trkpt lat="43.27151" lon="2.44704">
        <ele>153.1</ele>
        <time>2019-06-23T06:26:23.000Z</time>
      </trkpt>
      <trkpt lat="43.27151" lon="2.44705">
        <ele>153</ele>
        <time>2019-06-23T06:26:24.000Z</time>
      </trkpt>
      <trkpt lat="43.27151" lon="2.44706">
        <ele>153</ele>
        <time>2019-06-23T06:26:25.000Z</time>
      </trkpt>
      <trkpt lat="43.27151" lon="2.44708">
        <ele>153</ele>
        <time>2019-06-23T06:26:26.000Z</time>
      </trkpt>
      <trkpt lat="43.27151" lon="2.44709">
        <ele>153</ele>
        <time>2019-06-23T06:26:27.000Z</time>
      </trkpt>
      <trkpt lat="43.27151" lon="2.44711">
        <ele>152.9</ele>
        <time>2019-06-23T06:26:28.000Z</time>
      </trkpt>
      <trkpt lat="43.27151" lon="2.44712">
        <ele>152.9</ele>
        <time>2019-06-23T06:26:29.000Z</time>
      </trkpt>
      <trkpt lat="43.27151" lon="2.44714">
        <ele>152.9</ele>
        <time>2019-06-23T06:26:30.000Z</time>
      </trkpt>
      <trkpt lat="43.27151" lon="2.44715">
        <ele>152.9</ele>
        <time>2019-06-23T06:26:31.000Z</time>
      </trkpt>
      <trkpt lat="43.27151" lon="2.44717">
        <ele>152.8</ele>
        <time>2019-06-23T06:26:32.000Z</time>
      </trkpt>
      <trkpt lat="43.27151" lon="2.44718">
        <ele>152.8</ele>
        <time>2019-06-23T06:26:33.000Z</time>
      </trkpt>
      <trkpt lat="43.27151" lon="2.4472">
        <ele>152.8</ele>
        <time>2019-06-23T06:26:34.000Z</time>
      </trkpt>
      <trkpt lat="43.27151" lon="2.44721">
        <ele>152.8</ele>
        <time>2019-06-23T06:26:35.000Z</time>
      </trkpt>
      <trkpt lat="43.27151" lon="2.44722">
        <ele>152.8</ele>
        <time>2019-06-23T06:26:36.000Z</time>
      </trkpt>
      <trkpt lat="43.27151" lon="2.44724">
        <ele>152.7</ele>
        <time>2019-06-23T06:26:37.000Z</time>
      </trkpt>
      <trkpt lat="43.27152" lon="2.44725">
        <ele>152.7</ele>
        <time>2019-06-23T06:26:38.000Z</time>
      </trkpt>
      <trkpt lat="43.27152" lon="2.44727">
        <ele>152.7</ele>
        <time>2019-06-23T06:26:39.000Z</time>
      </trkpt>
      <trkpt lat="43.27152" lon="2.44728">
        <ele>152.7</ele>
        <time>2019-06-23T06:26:40.000Z</time>
      </trkpt>
      <trkpt lat="43.27152" lon="2.4473">
        <ele>152.6</ele>
        <time>2019-06-23T06:26:41.000Z</time>
      </trkpt>
      <trkpt lat="43.27152" lon="2.44731">
        <ele>152.6</ele>
        <time>2019-06-23T06:26:42.000Z</time>
      </trkpt>
      <trkpt lat="43.27152" lon="2.44733">
        <ele>152.6</ele>
        <time>2019-06-23T06:26:43.000Z</time>
      </trkpt>
      <trkpt lat="43.27152" lon="2.44734">
        <ele>152.6</ele>
        <time>2019-06-23T06:26:44.000Z</time>
      </trkpt>
      <trkpt lat="43.27152" lon="2.44736">
        <ele>152.6</ele>
        <time>2019-06-23T06:26:45.000Z</time>
      </trkpt>
      <trkpt lat="43.27152" lon="2.44737">
        <ele>152.6</ele>
        <time>2019-06-23T06:26:46.000Z</time>
      </trkpt>
      <trkpt lat="43.27153" lon="2.44739">
        <ele>152.5</ele>
        <time>2019-06-23T06:26:47.000Z</time>
      </trkpt>
      <trkpt lat="43.27153" lon="2.44741">
        <ele>152.5</ele>
        <time>2019-06-23T06:26:48.000Z</time>
      </trkpt>
      <trkpt lat="43.27153" lon="2.44742">
        <ele>152.5</ele>
        <time>2019-06-23T06:26:49.000Z</time>
      </trkpt>
      <trkpt lat="43.27153" lon="2.44744">
        <ele>152.5</ele>
        <time>2019-06-23T06:26:50.000Z</time>
      </trkpt>
      <trkpt lat="43.27153" lon="2.44745">
        <ele>152.5</ele>
        <time>2019-06-23T06:26:51.000Z</time>
      </trkpt>
      <trkpt lat="43.27153" lon="2.44747">
        <ele>152.4</ele>
        <time>2019-06-23T06:26:52.000Z</time>
      </trkpt>
      <trkpt lat="43.27153" lon="2.44749">
        <ele>152.4</ele>
        <time>2019-06-23T06:26:53.000Z</time>
      </trkpt>
      <trkpt lat="43.27154" lon="2.4475">
        <ele>152.4</ele>
        <time>2019-06-23T06:26:54.000Z</time>
      </trkpt>
      <trkpt lat="43.27154" lon="2.44752">
        <ele>152.4</ele>
        <time>2019-06-23T06:26:55.000Z</time>
      </trkpt>
      <trkpt lat="43.27154" lon="2.44754">
        <ele>152.4</ele>
        <time>2019-06-23T06:26:56.000Z</time>
      </trkpt>
      <trkpt lat="43.27154" lon="2.44755">
        <ele>152.4</ele>
        <time>2019-06-23T06:26:57.000Z</time>
      </trkpt>
      <trkpt lat="43.27154" lon="2.44757">
        <ele>152.4</ele>
        <time>2019-06-23T06:26:58.000Z</time>
      </trkpt>
      <trkpt lat="43.27154" lon="2.44759">
        <ele>152.4</ele>
        <time>2019-06-23T06:26:59.000Z</time>
      </trkpt>
      <trkpt lat="43.27154" lon="2.4476">
        <ele>152.4</ele>
        <time>2019-06-23T06:27:00.000Z</time>
      </trkpt>
      <trkpt lat="43.27154" lon="2.44762">
        <ele>152.5</ele>
        <time>2019-06-23T06:27:01.000Z</time>
      </trkpt>
      <trkpt lat="43.27155" lon="2.44763">
        <ele>152.5</ele>
        <time>2019-06-23T06:27:02.000Z</time>
      </trkpt>
      <trkpt lat="43.27155" lon="2.44765">
        <ele>152.5</ele>
        <time>2019-06-23T06:27:03.000Z</time>
      </trkpt>
      <trkpt lat="43.27155" lon="2.44766">
        <ele>152.5</ele>
        <time>2019-06-23T06:27:04.000Z</time>
      </trkpt>
      <trkpt lat="43.27155" lon="2.44767">
        <ele>152.4</ele>
        <time>2019-06-23T06:27:05.000Z</time>
      </trkpt>
      <trkpt lat="43.27155" lon="2.44768">
        <ele>152.5</ele>
        <time>2019-06-23T06:27:06.000Z</time>
      </trkpt>
      <trkpt lat="43.27155" lon="2.44768">
        <ele>152.5</ele>
        <time>2019-06-23T06:27:07.000Z</time>
      </trkpt>
      <trkpt lat="43.27155" lon="2.44769">
        <ele>152.5</ele>
        <time>2019-06-23T06:27:08.000Z</time>
      </trkpt>
      <trkpt lat="43.27155" lon="2.44769">
        <ele>152.5</ele>
        <time>2019-06-23T06:27:09.000Z</time>
      </trkpt>
      <trkpt lat="43.27155" lon="2.44769">
        <ele>152.5</ele>
        <time>2019-06-23T06:27:10.000Z</time>
      </trkpt>
      <trkpt lat="43.27155" lon="2.44769">
        <ele>152.5</ele>
        <time>2019-06-23T06:27:11.000Z</time>
      </trkpt>
      <trkpt lat="43.27155" lon="2.44769">
        <ele>152.5</ele>
        <time>2019-06-23T06:27:12.000Z</time>
      </trkpt>
      <trkpt lat="43.27155" lon="2.44769">
        <ele>152.5</ele>
        <time>2019-06-23T06:27:13.000Z</time>
      </trkpt>
      <trkpt lat="43.27155" lon="2.44769">
        <ele>152.5</ele>
        <time>2019-06-23T06:27:14.000Z</time>
      </trkpt>
      <trkpt lat="43.27155" lon="2.44769">
        <ele>152.5</ele>
        <time>2019-06-23T06:27:15.000Z</time>
      </trkpt>
      <trkpt lat="43.27155" lon="2.44769">
        <ele>152.5</ele>
        <time>2019-06-23T06:27:16.000Z</time>
      </trkpt>
      <trkpt lat="43.27155" lon="2.4477">
        <ele>152.5</ele>
        <time>2019-06-23T06:27:17.000Z</time>
      </trkpt>
      <trkpt lat="43.27155" lon="2.4477">
        <ele>152.4</ele>
        <time>2019-06-23T06:27:18.000Z</time>
      </trkpt>
      <trkpt lat="43.27155" lon="2.4477">
        <ele>152.4</ele>
        <time>2019-06-23T06:27:19.000Z</time>
      </trkpt>
      <trkpt lat="43.27155" lon="2.44771">
        <ele>152.4</ele>
        <time>2019-06-23T06:27:20.000Z</time>
      </trkpt>
      <trkpt lat="43.27155" lon="2.44771">
        <ele>152.4</ele>
        <time>2019-06-23T06:27:21.000Z</time>
      </trkpt>
      <trkpt lat="43.27155" lon="2.44772">
        <ele>152.4</ele>
        <time>2019-06-23T06:27:22.000Z</time>
      </trkpt>
      <trkpt lat="43.27155" lon="2.44772">
        <ele>152.4</ele>
        <time>2019-06-23T06:27:23.000Z</time>
      </trkpt>
      <trkpt lat="43.27155" lon="2.44772">
        <ele>152.4</ele>
        <time>2019-06-23T06:27:24.000Z</time>
      </trkpt>
      <trkpt lat="43.27155" lon="2.44773">
        <ele>152.4</ele>
        <time>2019-06-23T06:27:25.000Z</time>
      </trkpt>
      <trkpt lat="43.27155" lon="2.44773">
        <ele>152.4</ele>
        <time>2019-06-23T06:27:26.000Z</time>
      </trkpt>
      <trkpt lat="43.27155" lon="2.44773">
        <ele>152.4</ele>
        <time>2019-06-23T06:27:27.000Z</time>
      </trkpt>
      <trkpt lat="43.27155" lon="2.44772">
        <ele>152.4</ele>
        <time>2019-06-23T06:27:28.000Z</time>
      </trkpt>
      <trkpt lat="43.27155" lon="2.44772">
        <ele>152.4</ele>
        <time>2019-06-23T06:27:29.000Z</time>
      </trkpt>
      <trkpt lat="43.27155" lon="2.44773">
        <ele>152.4</ele>
        <time>2019-06-23T06:27:30.000Z</time>
      </trkpt>
      <trkpt lat="43.27155" lon="2.44773">
        <ele>152.4</ele>
        <time>2019-06-23T06:27:31.000Z</time>
      </trkpt>
      <trkpt lat="43.27155" lon="2.44773">
        <ele>152.4</ele>
        <time>2019-06-23T06:27:32.000Z</time>
      </trkpt>
      <trkpt lat="43.27155" lon="2.44773">
        <ele>152.4</ele>
        <time>2019-06-23T06:27:33.000Z</time>
      </trkpt>
      <trkpt lat="43.27155" lon="2.44774">
        <ele>152.4</ele>
        <time>2019-06-23T06:27:34.000Z</time>
      </trkpt>
      <trkpt lat="43.27155" lon="2.44774">
        <ele>152.4</ele>
        <time>2019-06-23T06:27:35.000Z</time>
      </trkpt>
      <trkpt lat="43.27155" lon="2.44775">
        <ele>152.4</ele>
        <time>2019-06-23T06:27:36.000Z</time>
      </trkpt>
      <trkpt lat="43.27155" lon="2.44776">
        <ele>152.4</ele>
        <time>2019-06-23T06:27:37.000Z</time>
      </trkpt>
      <trkpt lat="43.27155" lon="2.44776">
        <ele>152.4</ele>
        <time>2019-06-23T06:27:38.000Z</time>
      </trkpt>
      <trkpt lat="43.27155" lon="2.44777">
        <ele>152.4</ele>
        <time>2019-06-23T06:27:39.000Z</time>
      </trkpt>
      <trkpt lat="43.27155" lon="2.44778">
        <ele>152.4</ele>
        <time>2019-06-23T06:27:40.000Z</time>
      </trkpt>
      <trkpt lat="43.27155" lon="2.44778">
        <ele>152.4</ele>
        <time>2019-06-23T06:27:41.000Z</time>
      </trkpt>
      <trkpt lat="43.27155" lon="2.44779">
        <ele>152.4</ele>
        <time>2019-06-23T06:27:42.000Z</time>
      </trkpt>
      <trkpt lat="43.27156" lon="2.44779">
        <ele>152.4</ele>
        <time>2019-06-23T06:27:43.000Z</time>
      </trkpt>
      <trkpt lat="43.27156" lon="2.4478">
        <ele>152.5</ele>
        <time>2019-06-23T06:27:44.000Z</time>
      </trkpt>
      <trkpt lat="43.27156" lon="2.44781">
        <ele>152.5</ele>
        <time>2019-06-23T06:27:45.000Z</time>
      </trkpt>
      <trkpt lat="43.27156" lon="2.44783">
        <ele>152.5</ele>
        <time>2019-06-23T06:27:46.000Z</time>
      </trkpt>
      <trkpt lat="43.27157" lon="2.44784">
        <ele>152.6</ele>
        <time>2019-06-23T06:27:47.000Z</time>
      </trkpt>
      <trkpt lat="43.27157" lon="2.44786">
        <ele>152.6</ele>
        <time>2019-06-23T06:27:48.000Z</time>
      </trkpt>
      <trkpt lat="43.27158" lon="2.44788">
        <ele>152.6</ele>
        <time>2019-06-23T06:27:49.000Z</time>
      </trkpt>
      <trkpt lat="43.27158" lon="2.4479">
        <ele>152.7</ele>
        <time>2019-06-23T06:27:50.000Z</time>
      </trkpt>
      <trkpt lat="43.27159" lon="2.44792">
        <ele>152.7</ele>
        <time>2019-06-23T06:27:51.000Z</time>
      </trkpt>
      <trkpt lat="43.2716" lon="2.44795">
        <ele>152.7</ele>
        <time>2019-06-23T06:27:52.000Z</time>
      </trkpt>
      <trkpt lat="43.2716" lon="2.44798">
        <ele>152.8</ele>
        <time>2019-06-23T06:27:53.000Z</time>
      </trkpt>
      <trkpt lat="43.27161" lon="2.44801">
        <ele>152.8</ele>
        <time>2019-06-23T06:27:54.000Z</time>
      </trkpt>
      <trkpt lat="43.27161" lon="2.44804">
        <ele>152.8</ele>
        <time>2019-06-23T06:27:55.000Z</time>
      </trkpt>
      <trkpt lat="43.27162" lon="2.44807">
        <ele>152.8</ele>
        <time>2019-06-23T06:27:56.000Z</time>
      </trkpt>
      <trkpt lat="43.27162" lon="2.4481">
        <ele>152.8</ele>
        <time>2019-06-23T06:27:57.000Z</time>
      </trkpt>
      <trkpt lat="43.27162" lon="2.44813">
        <ele>152.8</ele>
        <time>2019-06-23T06:27:58.000Z</time>
      </trkpt>
      <trkpt lat="43.27162" lon="2.44816">
        <ele>152.8</ele>
        <time>2019-06-23T06:27:59.000Z</time>
      </trkpt>
      <trkpt lat="43.27162" lon="2.44819">
        <ele>152.7</ele>
        <time>2019-06-23T06:28:00.000Z</time>
      </trkpt>
      <trkpt lat="43.27161" lon="2.44822">
        <ele>152.6</ele>
        <time>2019-06-23T06:28:01.000Z</time>
      </trkpt>
      <trkpt lat="43.2716" lon="2.44825">
        <ele>152.5</ele>
        <time>2019-06-23T06:28:02.000Z</time>
      </trkpt>
      <trkpt lat="43.27159" lon="2.44828">
        <ele>152.4</ele>
        <time>2019-06-23T06:28:03.000Z</time>
      </trkpt>
      <trkpt lat="43.27158" lon="2.44831">
        <ele>152.3</ele>
        <time>2019-06-23T06:28:04.000Z</time>
      </trkpt>
      <trkpt lat="43.27157" lon="2.44833">
        <ele>152.2</ele>
        <time>2019-06-23T06:28:05.000Z</time>
      </trkpt>
      <trkpt lat="43.27156" lon="2.44836">
        <ele>152.1</ele>
        <time>2019-06-23T06:28:06.000Z</time>
      </trkpt>
      <trkpt lat="43.27154" lon="2.44838">
        <ele>152.1</ele>
        <time>2019-06-23T06:28:07.000Z</time>
      </trkpt>
      <trkpt lat="43.27152" lon="2.4484">
        <ele>152</ele>
        <time>2019-06-23T06:28:08.000Z</time>
      </trkpt>
      <trkpt lat="43.2715" lon="2.44842">
        <ele>152</ele>
        <time>2019-06-23T06:28:09.000Z</time>
      </trkpt>
      <trkpt lat="43.27149" lon="2.44844">
        <ele>151.9</ele>
        <time>2019-06-23T06:28:10.000Z</time>
      </trkpt>
      <trkpt lat="43.27147" lon="2.44846">
        <ele>151.8</ele>
        <time>2019-06-23T06:28:11.000Z</time>
      </trkpt>
      <trkpt lat="43.27145" lon="2.44848">
        <ele>151.7</ele>
        <time>2019-06-23T06:28:12.000Z</time>
      </trkpt>
      <trkpt lat="43.27143" lon="2.4485">
        <ele>151.6</ele>
        <time>2019-06-23T06:28:13.000Z</time>
      </trkpt>
      <trkpt lat="43.27141" lon="2.44851">
        <ele>151.5</ele>
        <time>2019-06-23T06:28:14.000Z</time>
      </trkpt>
      <trkpt lat="43.27139" lon="2.44853">
        <ele>151.4</ele>
        <time>2019-06-23T06:28:15.000Z</time>
      </trkpt>
      <trkpt lat="43.27138" lon="2.44855">
        <ele>151.3</ele>
        <time>2019-06-23T06:28:16.000Z</time>
      </trkpt>
      <trkpt lat="43.27136" lon="2.44856">
        <ele>151.3</ele>
        <time>2019-06-23T06:28:17.000Z</time>
      </trkpt>
      <trkpt lat="43.27135" lon="2.44858">
        <ele>151.2</ele>
        <time>2019-06-23T06:28:18.000Z</time>
      </trkpt>
      <trkpt lat="43.27133" lon="2.4486">
        <ele>151.1</ele>
        <time>2019-06-23T06:28:19.000Z</time>
      </trkpt>
      <trkpt lat="43.27132" lon="2.44862">
        <ele>151.1</ele>
        <time>2019-06-23T06:28:20.000Z</time>
      </trkpt>
      <trkpt lat="43.2713" lon="2.44865">
        <ele>151.1</ele>
        <time>2019-06-23T06:28:21.000Z</time>
      </trkpt>
      <trkpt lat="43.27129" lon="2.44867">
        <ele>151</ele>
        <time>2019-06-23T06:28:22.000Z</time>
      </trkpt>
      <trkpt lat="43.27128" lon="2.44869">
        <ele>151</ele>
        <time>2019-06-23T06:28:23.000Z</time>
      </trkpt>
      <trkpt lat="43.27126" lon="2.44872">
        <ele>151</ele>
        <time>2019-06-23T06:28:24.000Z</time>
      </trkpt>
      <trkpt lat="43.27125" lon="2.44875">
        <ele>151</ele>
        <time>2019-06-23T06:28:25.000Z</time>
      </trkpt>
      <trkpt lat="43.27124" lon="2.44877">
        <ele>151</ele>
        <time>2019-06-23T06:28:26.000Z</time>
      </trkpt>
      <trkpt lat="43.27123" lon="2.4488">
        <ele>151</ele>
        <time>2019-06-23T06:28:27.000Z</time>
      </trkpt>
      <trkpt lat="43.27122" lon="2.44883">
        <ele>151</ele>
        <time>2019-06-23T06:28:28.000Z</time>
      </trkpt>
      <trkpt lat="43.27121" lon="2.44886">
        <ele>151.1</ele>
        <time>2019-06-23T06:28:29.000Z</time>
      </trkpt>
      <trkpt lat="43.2712" lon="2.44888">
        <ele>151.1</ele>
        <time>2019-06-23T06:28:30.000Z</time>
      </trkpt>
      <trkpt lat="43.27119" lon="2.44891">
        <ele>151.1</ele>
        <time>2019-06-23T06:28:31.000Z</time>
      </trkpt>
      <trkpt lat="43.27118" lon="2.44894">
        <ele>151.1</ele>
        <time>2019-06-23T06:28:32.000Z</time>
      </trkpt>
      <trkpt lat="43.27117" lon="2.44897">
        <ele>151.1</ele>
        <time>2019-06-23T06:28:33.000Z</time>
      </trkpt>
      <trkpt lat="43.27116" lon="2.449">
        <ele>151.2</ele>
        <time>2019-06-23T06:28:34.000Z</time>
      </trkpt>
      <trkpt lat="43.27115" lon="2.44902">
        <ele>151.2</ele>
        <time>2019-06-23T06:28:35.000Z</time>
      </trkpt>
      <trkpt lat="43.27114" lon="2.44905">
        <ele>151.2</ele>
        <time>2019-06-23T06:28:36.000Z</time>
      </trkpt>
      <trkpt lat="43.27113" lon="2.44908">
        <ele>151.2</ele>
        <time>2019-06-23T06:28:37.000Z</time>
      </trkpt>
      <trkpt lat="43.27112" lon="2.44911">
        <ele>151.2</ele>
        <time>2019-06-23T06:28:38.000Z</time>
      </trkpt>
      <trkpt lat="43.27111" lon="2.44913">
        <ele>151.2</ele>
        <time>2019-06-23T06:28:39.000Z</time>
      </trkpt>
      <trkpt lat="43.2711" lon="2.44916">
        <ele>151.3</ele>
        <time>2019-06-23T06:28:40.000Z</time>
      </trkpt>
      <trkpt lat="43.27109" lon="2.44919">
        <ele>151.2</ele>
        <time>2019-06-23T06:28:41.000Z</time>
      </trkpt>
      <trkpt lat="43.27108" lon="2.44922">
        <ele>151.2</ele>
        <time>2019-06-23T06:28:42.000Z</time>
      </trkpt>
      <trkpt lat="43.27107" lon="2.44925">
        <ele>151.2</ele>
        <time>2019-06-23T06:28:43.000Z</time>
      </trkpt>
      <trkpt lat="43.27106" lon="2.44928">
        <ele>151.1</ele>
        <time>2019-06-23T06:28:44.000Z</time>
      </trkpt>
      <trkpt lat="43.27105" lon="2.44931">
        <ele>151.1</ele>
        <time>2019-06-23T06:28:45.000Z</time>
      </trkpt>
      <trkpt lat="43.27104" lon="2.44934">
        <ele>151</ele>
        <time>2019-06-23T06:28:46.000Z</time>
      </trkpt>
      <trkpt lat="43.27103" lon="2.44937">
        <ele>151</ele>
        <time>2019-06-23T06:28:47.000Z</time>
      </trkpt>
      <trkpt lat="43.27102" lon="2.4494">
        <ele>151</ele>
        <time>2019-06-23T06:28:48.000Z</time>
      </trkpt>
      <trkpt lat="43.27101" lon="2.44942">
        <ele>150.9</ele>
        <time>2019-06-23T06:28:49.000Z</time>
      </trkpt>
      <trkpt lat="43.271" lon="2.44945">
        <ele>150.9</ele>
        <time>2019-06-23T06:28:50.000Z</time>
      </trkpt>
      <trkpt lat="43.271" lon="2.44948">
        <ele>150.9</ele>
        <time>2019-06-23T06:28:51.000Z</time>
      </trkpt>
      <trkpt lat="43.27099" lon="2.4495">
        <ele>150.9</ele>
        <time>2019-06-23T06:28:52.000Z</time>
      </trkpt>
      <trkpt lat="43.27099" lon="2.44953">
        <ele>150.9</ele>
        <time>2019-06-23T06:28:53.000Z</time>
      </trkpt>
      <trkpt lat="43.27098" lon="2.44956">
        <ele>150.9</ele>
        <time>2019-06-23T06:28:54.000Z</time>
      </trkpt>
      <trkpt lat="43.27098" lon="2.44959">
        <ele>150.9</ele>
        <time>2019-06-23T06:28:55.000Z</time>
      </trkpt>
      <trkpt lat="43.27097" lon="2.44962">
        <ele>150.9</ele>
        <time>2019-06-23T06:28:56.000Z</time>
      </trkpt>
      <trkpt lat="43.27097" lon="2.44965">
        <ele>150.9</ele>
        <time>2019-06-23T06:28:57.000Z</time>
      </trkpt>
      <trkpt lat="43.27096" lon="2.44969">
        <ele>150.9</ele>
        <time>2019-06-23T06:28:58.000Z</time>
      </trkpt>
      <trkpt lat="43.27096" lon="2.44973">
        <ele>150.9</ele>
        <time>2019-06-23T06:28:59.000Z</time>
      </trkpt>
      <trkpt lat="43.27095" lon="2.44977">
        <ele>150.9</ele>
        <time>2019-06-23T06:29:00.000Z</time>
      </trkpt>
      <trkpt lat="43.27095" lon="2.44981">
        <ele>150.9</ele>
        <time>2019-06-23T06:29:01.000Z</time>
      </trkpt>
      <trkpt lat="43.27094" lon="2.44985">
        <ele>151</ele>
        <time>2019-06-23T06:29:02.000Z</time>
      </trkpt>
      <trkpt lat="43.27094" lon="2.44989">
        <ele>151</ele>
        <time>2019-06-23T06:29:03.000Z</time>
      </trkpt>
      <trkpt lat="43.27094" lon="2.44993">
        <ele>151</ele>
        <time>2019-06-23T06:29:04.000Z</time>
      </trkpt>
      <trkpt lat="43.27094" lon="2.44996">
        <ele>151.1</ele>
        <time>2019-06-23T06:29:05.000Z</time>
      </trkpt>
      <trkpt lat="43.27094" lon="2.45">
        <ele>151.1</ele>
        <time>2019-06-23T06:29:06.000Z</time>
      </trkpt>
      <trkpt lat="43.27094" lon="2.45003">
        <ele>151.2</ele>
        <time>2019-06-23T06:29:07.000Z</time>
      </trkpt>
      <trkpt lat="43.27094" lon="2.45006">
        <ele>151.2</ele>
        <time>2019-06-23T06:29:08.000Z</time>
      </trkpt>
      <trkpt lat="43.27094" lon="2.4501">
        <ele>151.3</ele>
        <time>2019-06-23T06:29:09.000Z</time>
      </trkpt>
      <trkpt lat="43.27094" lon="2.45013">
        <ele>151.3</ele>
        <time>2019-06-23T06:29:10.000Z</time>
      </trkpt>
      <trkpt lat="43.27094" lon="2.45016">
        <ele>151.3</ele>
        <time>2019-06-23T06:29:11.000Z</time>
      </trkpt>
      <trkpt lat="43.27094" lon="2.45019">
        <ele>151.3</ele>
        <time>2019-06-23T06:29:12.000Z</time>
      </trkpt>
      <trkpt lat="43.27094" lon="2.45023">
        <ele>151.3</ele>
        <time>2019-06-23T06:29:13.000Z</time>
      </trkpt>
      <trkpt lat="43.27093" lon="2.45026">
        <ele>151.3</ele>
        <time>2019-06-23T06:29:14.000Z</time>
      </trkpt>
      <trkpt lat="43.27092" lon="2.4503">
        <ele>151.2</ele>
        <time>2019-06-23T06:29:15.000Z</time>
      </trkpt>
      <trkpt lat="43.27091" lon="2.45033">
        <ele>151.2</ele>
        <time>2019-06-23T06:29:16.000Z</time>
      </trkpt>
      <trkpt lat="43.27091" lon="2.45037">
        <ele>151.2</ele>
        <time>2019-06-23T06:29:17.000Z</time>
      </trkpt>
      <trkpt lat="43.2709" lon="2.45041">
        <ele>151.1</ele>
        <time>2019-06-23T06:29:18.000Z</time>
      </trkpt>
      <trkpt lat="43.27089" lon="2.45044">
        <ele>151.1</ele>
        <time>2019-06-23T06:29:19.000Z</time>
      </trkpt>
      <trkpt lat="43.27089" lon="2.45048">
        <ele>151.1</ele>
        <time>2019-06-23T06:29:20.000Z</time>
      </trkpt>
      <trkpt lat="43.27089" lon="2.45052">
        <ele>151.1</ele>
        <time>2019-06-23T06:29:21.000Z</time>
      </trkpt>
      <trkpt lat="43.27088" lon="2.45055">
        <ele>151.1</ele>
        <time>2019-06-23T06:29:22.000Z</time>
      </trkpt>
      <trkpt lat="43.27088" lon="2.45059">
        <ele>151.1</ele>
        <time>2019-06-23T06:29:23.000Z</time>
      </trkpt>
      <trkpt lat="43.27088" lon="2.45063">
        <ele>151.2</ele>
        <time>2019-06-23T06:29:24.000Z</time>
      </trkpt>
      <trkpt lat="43.27088" lon="2.45066">
        <ele>151.2</ele>
        <time>2019-06-23T06:29:25.000Z</time>
      </trkpt>
      <trkpt lat="43.27088" lon="2.4507">
        <ele>151.2</ele>
        <time>2019-06-23T06:29:26.000Z</time>
      </trkpt>
      <trkpt lat="43.27088" lon="2.45074">
        <ele>151.3</ele>
        <time>2019-06-23T06:29:27.000Z</time>
      </trkpt>
      <trkpt lat="43.27088" lon="2.45077">
        <ele>151.3</ele>
        <time>2019-06-23T06:29:28.000Z</time>
      </trkpt>
      <trkpt lat="43.27088" lon="2.45081">
        <ele>151.3</ele>
        <time>2019-06-23T06:29:29.000Z</time>
      </trkpt>
      <trkpt lat="43.27088" lon="2.45085">
        <ele>151.4</ele>
        <time>2019-06-23T06:29:30.000Z</time>
      </trkpt>
      <trkpt lat="43.27087" lon="2.45089">
        <ele>151.3</ele>
        <time>2019-06-23T06:29:31.000Z</time>
      </trkpt>
      <trkpt lat="43.27087" lon="2.45093">
        <ele>151.3</ele>
        <time>2019-06-23T06:29:32.000Z</time>
      </trkpt>
      <trkpt lat="43.27087" lon="2.45096">
        <ele>151.3</ele>
        <time>2019-06-23T06:29:33.000Z</time>
      </trkpt>
      <trkpt lat="43.27087" lon="2.451">
        <ele>151.3</ele>
        <time>2019-06-23T06:29:34.000Z</time>
      </trkpt>
      <trkpt lat="43.27087" lon="2.45103">
        <ele>151.3</ele>
        <time>2019-06-23T06:29:35.000Z</time>
      </trkpt>
      <trkpt lat="43.27087" lon="2.45107">
        <ele>151.2</ele>
        <time>2019-06-23T06:29:36.000Z</time>
      </trkpt>
      <trkpt lat="43.27086" lon="2.4511">
        <ele>151.2</ele>
        <time>2019-06-23T06:29:37.000Z</time>
      </trkpt>
      <trkpt lat="43.27086" lon="2.45114">
        <ele>151.2</ele>
        <time>2019-06-23T06:29:38.000Z</time>
      </trkpt>
      <trkpt lat="43.27086" lon="2.45117">
        <ele>151.2</ele>
        <time>2019-06-23T06:29:39.000Z</time>
      </trkpt>
      <trkpt lat="43.27086" lon="2.45121">
        <ele>151.2</ele>
        <time>2019-06-23T06:29:40.000Z</time>
      </trkpt>
      <trkpt lat="43.27086" lon="2.45124">
        <ele>151.2</ele>
        <time>2019-06-23T06:29:41.000Z</time>
      </trkpt>
      <trkpt lat="43.27086" lon="2.45128">
        <ele>151.2</ele>
        <time>2019-06-23T06:29:42.000Z</time>
      </trkpt>
      <trkpt lat="43.27086" lon="2.45131">
        <ele>151.2</ele>
        <time>2019-06-23T06:29:43.000Z</time>
      </trkpt>
      <trkpt lat="43.27086" lon="2.45135">
        <ele>151.2</ele>
        <time>2019-06-23T06:29:44.000Z</time>
      </trkpt>
      <trkpt lat="43.27086" lon="2.45138">
        <ele>151.2</ele>
        <time>2019-06-23T06:29:45.000Z</time>
      </trkpt>
      <trkpt lat="43.27086" lon="2.45142">
        <ele>151.2</ele>
        <time>2019-06-23T06:29:46.000Z</time>
      </trkpt>
      <trkpt lat="43.27086" lon="2.45145">
        <ele>151.1</ele>
        <time>2019-06-23T06:29:47.000Z</time>
      </trkpt>
      <trkpt lat="43.27086" lon="2.45149">
        <ele>151.1</ele>
        <time>2019-06-23T06:29:48.000Z</time>
      </trkpt>
      <trkpt lat="43.27086" lon="2.45152">
        <ele>151.1</ele>
        <time>2019-06-23T06:29:49.000Z</time>
      </trkpt>
      <trkpt lat="43.27086" lon="2.45156">
        <ele>151.1</ele>
        <time>2019-06-23T06:29:50.000Z</time>
      </trkpt>
      <trkpt lat="43.27086" lon="2.45159">
        <ele>151.1</ele>
        <time>2019-06-23T06:29:51.000Z</time>
      </trkpt>
      <trkpt lat="43.27086" lon="2.45162">
        <ele>151.1</ele>
        <time>2019-06-23T06:29:52.000Z</time>
      </trkpt>
      <trkpt lat="43.27086" lon="2.45165">
        <ele>151.1</ele>
        <time>2019-06-23T06:29:53.000Z</time>
      </trkpt>
      <trkpt lat="43.27086" lon="2.45168">
        <ele>151.1</ele>
        <time>2019-06-23T06:29:54.000Z</time>
      </trkpt>
      <trkpt lat="43.27086" lon="2.45171">
        <ele>151.2</ele>
        <time>2019-06-23T06:29:55.000Z</time>
      </trkpt>
      <trkpt lat="43.27085" lon="2.45175">
        <ele>151.2</ele>
        <time>2019-06-23T06:29:56.000Z</time>
      </trkpt>
      <trkpt lat="43.27085" lon="2.45178">
        <ele>151.2</ele>
        <time>2019-06-23T06:29:57.000Z</time>
      </trkpt>
      <trkpt lat="43.27085" lon="2.45181">
        <ele>151.2</ele>
        <time>2019-06-23T06:29:58.000Z</time>
      </trkpt>
      <trkpt lat="43.27084" lon="2.45184">
        <ele>151.2</ele>
        <time>2019-06-23T06:29:59.000Z</time>
      </trkpt>
      <trkpt lat="43.27083" lon="2.45187">
        <ele>151.2</ele>
        <time>2019-06-23T06:30:00.000Z</time>
      </trkpt>
      <trkpt lat="43.27083" lon="2.4519">
        <ele>151.3</ele>
        <time>2019-06-23T06:30:01.000Z</time>
      </trkpt>
      <trkpt lat="43.27082" lon="2.45193">
        <ele>151.3</ele>
        <time>2019-06-23T06:30:02.000Z</time>
      </trkpt>
      <trkpt lat="43.2708" lon="2.45195">
        <ele>151.4</ele>
        <time>2019-06-23T06:30:03.000Z</time>
      </trkpt>
      <trkpt lat="43.27079" lon="2.45198">
        <ele>151.4</ele>
        <time>2019-06-23T06:30:04.000Z</time>
      </trkpt>
      <trkpt lat="43.27078" lon="2.452">
        <ele>151.4</ele>
        <time>2019-06-23T06:30:05.000Z</time>
      </trkpt>
      <trkpt lat="43.27076" lon="2.45203">
        <ele>151.5</ele>
        <time>2019-06-23T06:30:06.000Z</time>
      </trkpt>
      <trkpt lat="43.27074" lon="2.45205">
        <ele>151.5</ele>
        <time>2019-06-23T06:30:07.000Z</time>
      </trkpt>
      <trkpt lat="43.27072" lon="2.45207">
        <ele>151.6</ele>
        <time>2019-06-23T06:30:08.000Z</time>
      </trkpt>
      <trkpt lat="43.2707" lon="2.4521">
        <ele>151.6</ele>
        <time>2019-06-23T06:30:09.000Z</time>
      </trkpt>
      <trkpt lat="43.27068" lon="2.45212">
        <ele>151.6</ele>
        <time>2019-06-23T06:30:10.000Z</time>
      </trkpt>
      <trkpt lat="43.27066" lon="2.45214">
        <ele>151.7</ele>
        <time>2019-06-23T06:30:11.000Z</time>
      </trkpt>
      <trkpt lat="43.27064" lon="2.45217">
        <ele>151.7</ele>
        <time>2019-06-23T06:30:12.000Z</time>
      </trkpt>
      <trkpt lat="43.27062" lon="2.45219">
        <ele>151.7</ele>
        <time>2019-06-23T06:30:13.000Z</time>
      </trkpt>
      <trkpt lat="43.27061" lon="2.45222">
        <ele>151.8</ele>
        <time>2019-06-23T06:30:14.000Z</time>
      </trkpt>
      <trkpt lat="43.27059" lon="2.45224">
        <ele>151.8</ele>
        <time>2019-06-23T06:30:15.000Z</time>
      </trkpt>
      <trkpt lat="43.27058" lon="2.45227">
        <ele>151.8</ele>
        <time>2019-06-23T06:30:16.000Z</time>
      </trkpt>
      <trkpt lat="43.27056" lon="2.45229">
        <ele>151.8</ele>
        <time>2019-06-23T06:30:17.000Z</time>
      </trkpt>
      <trkpt lat="43.27055" lon="2.45232">
        <ele>151.9</ele>
        <time>2019-06-23T06:30:18.000Z</time>
      </trkpt>
      <trkpt lat="43.27053" lon="2.45234">
        <ele>151.9</ele>
        <time>2019-06-23T06:30:19.000Z</time>
      </trkpt>
      <trkpt lat="43.27052" lon="2.45237">
        <ele>151.9</ele>
        <time>2019-06-23T06:30:20.000Z</time>
      </trkpt>
      <trkpt lat="43.2705" lon="2.45239">
        <ele>151.9</ele>
        <time>2019-06-23T06:30:21.000Z</time>
      </trkpt>
      <trkpt lat="43.27049" lon="2.45242">
        <ele>151.9</ele>
        <time>2019-06-23T06:30:22.000Z</time>
      </trkpt>
      <trkpt lat="43.27047" lon="2.45245">
        <ele>152</ele>
        <time>2019-06-23T06:30:23.000Z</time>
      </trkpt>
      <trkpt lat="43.27046" lon="2.45247">
        <ele>152</ele>
        <time>2019-06-23T06:30:24.000Z</time>
      </trkpt>
      <trkpt lat="43.27044" lon="2.4525">
        <ele>152</ele>
        <time>2019-06-23T06:30:25.000Z</time>
      </trkpt>
      <trkpt lat="43.27043" lon="2.45252">
        <ele>152.1</ele>
        <time>2019-06-23T06:30:26.000Z</time>
      </trkpt>
      <trkpt lat="43.27041" lon="2.45254">
        <ele>152.2</ele>
        <time>2019-06-23T06:30:27.000Z</time>
      </trkpt>
      <trkpt lat="43.27039" lon="2.45256">
        <ele>152.3</ele>
        <time>2019-06-23T06:30:28.000Z</time>
      </trkpt>
      <trkpt lat="43.27038" lon="2.45258">
        <ele>152.4</ele>
        <time>2019-06-23T06:30:29.000Z</time>
      </trkpt>
      <trkpt lat="43.27037" lon="2.4526">
        <ele>152.5</ele>
        <time>2019-06-23T06:30:30.000Z</time>
      </trkpt>
      <trkpt lat="43.27035" lon="2.45262">
        <ele>152.6</ele>
        <time>2019-06-23T06:30:31.000Z</time>
      </trkpt>
      <trkpt lat="43.27034" lon="2.45263">
        <ele>152.7</ele>
        <time>2019-06-23T06:30:32.000Z</time>
      </trkpt>
      <trkpt lat="43.27033" lon="2.45265">
        <ele>152.8</ele>
        <time>2019-06-23T06:30:33.000Z</time>
      </trkpt>
      <trkpt lat="43.27031" lon="2.45267">
        <ele>152.8</ele>
        <time>2019-06-23T06:30:34.000Z</time>
      </trkpt>
      <trkpt lat="43.2703" lon="2.45268">
        <ele>152.9</ele>
        <time>2019-06-23T06:30:35.000Z</time>
      </trkpt>
      <trkpt lat="43.27029" lon="2.4527">
        <ele>153</ele>
        <time>2019-06-23T06:30:36.000Z</time>
      </trkpt>
      <trkpt lat="43.27027" lon="2.45272">
        <ele>153.1</ele>
        <time>2019-06-23T06:30:37.000Z</time>
      </trkpt>
      <trkpt lat="43.27026" lon="2.45273">
        <ele>153.2</ele>
        <time>2019-06-23T06:30:38.000Z</time>
      </trkpt>
      <trkpt lat="43.27024" lon="2.45275">
        <ele>153.3</ele>
        <time>2019-06-23T06:30:39.000Z</time>
      </trkpt>
      <trkpt lat="43.27023" lon="2.45277">
        <ele>153.5</ele>
        <time>2019-06-23T06:30:40.000Z</time>
      </trkpt>
      <trkpt lat="43.27021" lon="2.4528">
        <ele>153.6</ele>
        <time>2019-06-23T06:30:41.000Z</time>
      </trkpt>
      <trkpt lat="43.2702" lon="2.45282">
        <ele>153.7</ele>
        <time>2019-06-23T06:30:42.000Z</time>
      </trkpt>
      <trkpt lat="43.27018" lon="2.45284">
        <ele>153.9</ele>
        <time>2019-06-23T06:30:43.000Z</time>
      </trkpt>
      <trkpt lat="43.27017" lon="2.45286">
        <ele>154</ele>
        <time>2019-06-23T06:30:44.000Z</time>
      </trkpt>
      <trkpt lat="43.27015" lon="2.45289">
        <ele>154.1</ele>
        <time>2019-06-23T06:30:45.000Z</time>
      </trkpt>
      <trkpt lat="43.27013" lon="2.45291">
        <ele>154.3</ele>
        <time>2019-06-23T06:30:46.000Z</time>
      </trkpt>
      <trkpt lat="43.27012" lon="2.45293">
        <ele>154.4</ele>
        <time>2019-06-23T06:30:47.000Z</time>
      </trkpt>
      <trkpt lat="43.2701" lon="2.45295">
        <ele>154.6</ele>
        <time>2019-06-23T06:30:48.000Z</time>
      </trkpt>
      <trkpt lat="43.27008" lon="2.45298">
        <ele>154.7</ele>
        <time>2019-06-23T06:30:49.000Z</time>
      </trkpt>
      <trkpt lat="43.27007" lon="2.453">
        <ele>154.9</ele>
        <time>2019-06-23T06:30:50.000Z</time>
      </trkpt>
      <trkpt lat="43.27005" lon="2.45302">
        <ele>155</ele>
        <time>2019-06-23T06:30:51.000Z</time>
      </trkpt>
      <trkpt lat="43.27004" lon="2.45304">
        <ele>155.2</ele>
        <time>2019-06-23T06:30:52.000Z</time>
      </trkpt>
      <trkpt lat="43.27002" lon="2.45306">
        <ele>155.3</ele>
        <time>2019-06-23T06:30:53.000Z</time>
      </trkpt>
      <trkpt lat="43.27001" lon="2.45308">
        <ele>155.5</ele>
        <time>2019-06-23T06:30:54.000Z</time>
      </trkpt>
      <trkpt lat="43.26999" lon="2.4531">
        <ele>155.6</ele>
        <time>2019-06-23T06:30:55.000Z</time>
      </trkpt>
      <trkpt lat="43.26998" lon="2.45312">
        <ele>155.8</ele>
        <time>2019-06-23T06:30:56.000Z</time>
      </trkpt>
      <trkpt lat="43.26996" lon="2.45314">
        <ele>155.9</ele>
        <time>2019-06-23T06:30:57.000Z</time>
      </trkpt>
      <trkpt lat="43.26995" lon="2.45316">
        <ele>156.1</ele>
        <time>2019-06-23T06:30:58.000Z</time>
      </trkpt>
      <trkpt lat="43.26994" lon="2.45318">
        <ele>156.2</ele>
        <time>2019-06-23T06:30:59.000Z</time>
      </trkpt>
      <trkpt lat="43.26992" lon="2.45319">
        <ele>156.4</ele>
        <time>2019-06-23T06:31:00.000Z</time>
      </trkpt>
      <trkpt lat="43.26991" lon="2.45321">
        <ele>156.5</ele>
        <time>2019-06-23T06:31:01.000Z</time>
      </trkpt>
      <trkpt lat="43.26989" lon="2.45323">
        <ele>156.7</ele>
        <time>2019-06-23T06:31:02.000Z</time>
      </trkpt>
      <trkpt lat="43.26988" lon="2.45325">
        <ele>156.8</ele>
        <time>2019-06-23T06:31:03.000Z</time>
      </trkpt>
      <trkpt lat="43.26986" lon="2.45327">
        <ele>157</ele>
        <time>2019-06-23T06:31:04.000Z</time>
      </trkpt>
      <trkpt lat="43.26985" lon="2.45329">
        <ele>157.1</ele>
        <time>2019-06-23T06:31:05.000Z</time>
      </trkpt>
      <trkpt lat="43.26983" lon="2.45331">
        <ele>157.2</ele>
        <time>2019-06-23T06:31:06.000Z</time>
      </trkpt>
      <trkpt lat="43.26982" lon="2.45333">
        <ele>157.4</ele>
        <time>2019-06-23T06:31:07.000Z</time>
      </trkpt>
      <trkpt lat="43.2698" lon="2.45335">
        <ele>157.6</ele>
        <time>2019-06-23T06:31:08.000Z</time>
      </trkpt>
      <trkpt lat="43.26978" lon="2.45337">
        <ele>157.7</ele>
        <time>2019-06-23T06:31:09.000Z</time>
      </trkpt>
      <trkpt lat="43.26977" lon="2.45339">
        <ele>157.9</ele>
        <time>2019-06-23T06:31:10.000Z</time>
      </trkpt>
      <trkpt lat="43.26975" lon="2.45341">
        <ele>158.1</ele>
        <time>2019-06-23T06:31:11.000Z</time>
      </trkpt>
      <trkpt lat="43.26973" lon="2.45343">
        <ele>158.2</ele>
        <time>2019-06-23T06:31:12.000Z</time>
      </trkpt>
      <trkpt lat="43.26972" lon="2.45345">
        <ele>158.4</ele>
        <time>2019-06-23T06:31:13.000Z</time>
      </trkpt>
      <trkpt lat="43.2697" lon="2.45348">
        <ele>158.6</ele>
        <time>2019-06-23T06:31:14.000Z</time>
      </trkpt>
      <trkpt lat="43.26968" lon="2.4535">
        <ele>158.7</ele>
        <time>2019-06-23T06:31:15.000Z</time>
      </trkpt>
      <trkpt lat="43.26967" lon="2.45352">
        <ele>158.9</ele>
        <time>2019-06-23T06:31:16.000Z</time>
      </trkpt>
      <trkpt lat="43.26966" lon="2.45355">
        <ele>159</ele>
        <time>2019-06-23T06:31:17.000Z</time>
      </trkpt>
      <trkpt lat="43.26964" lon="2.45357">
        <ele>159.2</ele>
        <time>2019-06-23T06:31:18.000Z</time>
      </trkpt>
      <trkpt lat="43.26963" lon="2.45359">
        <ele>159.3</ele>
        <time>2019-06-23T06:31:19.000Z</time>
      </trkpt>
      <trkpt lat="43.26961" lon="2.45361">
        <ele>159.5</ele>
        <time>2019-06-23T06:31:20.000Z</time>
      </trkpt>
      <trkpt lat="43.2696" lon="2.45363">
        <ele>159.6</ele>
        <time>2019-06-23T06:31:21.000Z</time>
      </trkpt>
      <trkpt lat="43.26958" lon="2.45365">
        <ele>159.7</ele>
        <time>2019-06-23T06:31:22.000Z</time>
      </trkpt>
      <trkpt lat="43.26956" lon="2.45367">
        <ele>159.8</ele>
        <time>2019-06-23T06:31:23.000Z</time>
      </trkpt>
      <trkpt lat="43.26954" lon="2.45368">
        <ele>159.9</ele>
        <time>2019-06-23T06:31:24.000Z</time>
      </trkpt>
      <trkpt lat="43.26953" lon="2.4537">
        <ele>160</ele>
        <time>2019-06-23T06:31:25.000Z</time>
      </trkpt>
      <trkpt lat="43.26951" lon="2.45372">
        <ele>160.1</ele>
        <time>2019-06-23T06:31:26.000Z</time>
      </trkpt>
      <trkpt lat="43.26948" lon="2.45373">
        <ele>160.2</ele>
        <time>2019-06-23T06:31:27.000Z</time>
      </trkpt>
      <trkpt lat="43.26946" lon="2.45375">
        <ele>160.3</ele>
        <time>2019-06-23T06:31:28.000Z</time>
      </trkpt>
      <trkpt lat="43.26944" lon="2.45376">
        <ele>160.4</ele>
        <time>2019-06-23T06:31:29.000Z</time>
      </trkpt>
      <trkpt lat="43.26942" lon="2.45378">
        <ele>160.5</ele>
        <time>2019-06-23T06:31:30.000Z</time>
      </trkpt>
      <trkpt lat="43.26941" lon="2.45379">
        <ele>160.6</ele>
        <time>2019-06-23T06:31:31.000Z</time>
      </trkpt>
      <trkpt lat="43.26939" lon="2.45381">
        <ele>160.6</ele>
        <time>2019-06-23T06:31:32.000Z</time>
      </trkpt>
      <trkpt lat="43.26937" lon="2.45383">
        <ele>160.7</ele>
        <time>2019-06-23T06:31:33.000Z</time>
      </trkpt>
      <trkpt lat="43.26935" lon="2.45385">
        <ele>160.8</ele>
        <time>2019-06-23T06:31:34.000Z</time>
      </trkpt>
      <trkpt lat="43.26934" lon="2.45386">
        <ele>160.9</ele>
        <time>2019-06-23T06:31:35.000Z</time>
      </trkpt>
      <trkpt lat="43.26932" lon="2.45388">
        <ele>161</ele>
        <time>2019-06-23T06:31:36.000Z</time>
      </trkpt>
      <trkpt lat="43.2693" lon="2.4539">
        <ele>161.1</ele>
        <time>2019-06-23T06:31:37.000Z</time>
      </trkpt>
      <trkpt lat="43.26929" lon="2.45392">
        <ele>161.1</ele>
        <time>2019-06-23T06:31:38.000Z</time>
      </trkpt>
      <trkpt lat="43.26927" lon="2.45394">
        <ele>161.2</ele>
        <time>2019-06-23T06:31:39.000Z</time>
      </trkpt>
      <trkpt lat="43.26926" lon="2.45396">
        <ele>161.3</ele>
        <time>2019-06-23T06:31:40.000Z</time>
      </trkpt>
      <trkpt lat="43.26924" lon="2.45398">
        <ele>161.4</ele>
        <time>2019-06-23T06:31:41.000Z</time>
      </trkpt>
      <trkpt lat="43.26923" lon="2.454">
        <ele>161.4</ele>
        <time>2019-06-23T06:31:42.000Z</time>
      </trkpt>
      <trkpt lat="43.26921" lon="2.45402">
        <ele>161.5</ele>
        <time>2019-06-23T06:31:43.000Z</time>
      </trkpt>
      <trkpt lat="43.2692" lon="2.45404">
        <ele>161.5</ele>
        <time>2019-06-23T06:31:44.000Z</time>
      </trkpt>
      <trkpt lat="43.26919" lon="2.45406">
        <ele>161.6</ele>
        <time>2019-06-23T06:31:45.000Z</time>
      </trkpt>
      <trkpt lat="43.26917" lon="2.45408">
        <ele>161.7</ele>
        <time>2019-06-23T06:31:46.000Z</time>
      </trkpt>
      <trkpt lat="43.26916" lon="2.4541">
        <ele>161.9</ele>
        <time>2019-06-23T06:31:47.000Z</time>
      </trkpt>
      <trkpt lat="43.26915" lon="2.45412">
        <ele>162.2</ele>
        <time>2019-06-23T06:31:48.000Z</time>
      </trkpt>
      <trkpt lat="43.26913" lon="2.45414">
        <ele>162.5</ele>
        <time>2019-06-23T06:31:49.000Z</time>
      </trkpt>
      <trkpt lat="43.26912" lon="2.45416">
        <ele>162.9</ele>
        <time>2019-06-23T06:31:50.000Z</time>
      </trkpt>
      <trkpt lat="43.26911" lon="2.45418">
        <ele>163.2</ele>
        <time>2019-06-23T06:31:51.000Z</time>
      </trkpt>
      <trkpt lat="43.26909" lon="2.4542">
        <ele>163.5</ele>
        <time>2019-06-23T06:31:52.000Z</time>
      </trkpt>
      <trkpt lat="43.26908" lon="2.45422">
        <ele>163.8</ele>
        <time>2019-06-23T06:31:53.000Z</time>
      </trkpt>
      <trkpt lat="43.26907" lon="2.45424">
        <ele>164.1</ele>
        <time>2019-06-23T06:31:54.000Z</time>
      </trkpt>
      <trkpt lat="43.26906" lon="2.45427">
        <ele>164.3</ele>
        <time>2019-06-23T06:31:55.000Z</time>
      </trkpt>
      <trkpt lat="43.26905" lon="2.45429">
        <ele>164.6</ele>
        <time>2019-06-23T06:31:56.000Z</time>
      </trkpt>
      <trkpt lat="43.26904" lon="2.45431">
        <ele>164.9</ele>
        <time>2019-06-23T06:31:57.000Z</time>
      </trkpt>
      <trkpt lat="43.26902" lon="2.45433">
        <ele>165.2</ele>
        <time>2019-06-23T06:31:58.000Z</time>
      </trkpt>
      <trkpt lat="43.26901" lon="2.45436">
        <ele>165.4</ele>
        <time>2019-06-23T06:31:59.000Z</time>
      </trkpt>
      <trkpt lat="43.269" lon="2.45438">
        <ele>165.7</ele>
        <time>2019-06-23T06:32:00.000Z</time>
      </trkpt>
      <trkpt lat="43.26899" lon="2.4544">
        <ele>165.9</ele>
        <time>2019-06-23T06:32:01.000Z</time>
      </trkpt>
      <trkpt lat="43.26898" lon="2.45443">
        <ele>166.2</ele>
        <time>2019-06-23T06:32:02.000Z</time>
      </trkpt>
      <trkpt lat="43.26896" lon="2.45445">
        <ele>166.4</ele>
        <time>2019-06-23T06:32:03.000Z</time>
      </trkpt>
      <trkpt lat="43.26895" lon="2.45447">
        <ele>166.7</ele>
        <time>2019-06-23T06:32:04.000Z</time>
      </trkpt>
      <trkpt lat="43.26894" lon="2.4545">
        <ele>166.9</ele>
        <time>2019-06-23T06:32:05.000Z</time>
      </trkpt>
      <trkpt lat="43.26893" lon="2.45452">
        <ele>167.1</ele>
        <time>2019-06-23T06:32:06.000Z</time>
      </trkpt>
      <trkpt lat="43.26891" lon="2.45454">
        <ele>167.4</ele>
        <time>2019-06-23T06:32:07.000Z</time>
      </trkpt>
      <trkpt lat="43.2689" lon="2.45456">
        <ele>167.6</ele>
        <time>2019-06-23T06:32:08.000Z</time>
      </trkpt>
      <trkpt lat="43.26889" lon="2.45459">
        <ele>167.9</ele>
        <time>2019-06-23T06:32:09.000Z</time>
      </trkpt>
      <trkpt lat="43.26887" lon="2.45461">
        <ele>168.1</ele>
        <time>2019-06-23T06:32:10.000Z</time>
      </trkpt>
      <trkpt lat="43.26886" lon="2.45463">
        <ele>168.3</ele>
        <time>2019-06-23T06:32:11.000Z</time>
      </trkpt>
      <trkpt lat="43.26885" lon="2.45465">
        <ele>168.5</ele>
        <time>2019-06-23T06:32:12.000Z</time>
      </trkpt>
      <trkpt lat="43.26884" lon="2.45468">
        <ele>168.7</ele>
        <time>2019-06-23T06:32:13.000Z</time>
      </trkpt>
      <trkpt lat="43.26883" lon="2.4547">
        <ele>168.8</ele>
        <time>2019-06-23T06:32:14.000Z</time>
      </trkpt>
      <trkpt lat="43.26883" lon="2.45473">
        <ele>168.9</ele>
        <time>2019-06-23T06:32:15.000Z</time>
      </trkpt>
      <trkpt lat="43.26883" lon="2.45476">
        <ele>168.9</ele>
        <time>2019-06-23T06:32:16.000Z</time>
      </trkpt>
      <trkpt lat="43.26883" lon="2.45479">
        <ele>168.9</ele>
        <time>2019-06-23T06:32:17.000Z</time>
      </trkpt>
      <trkpt lat="43.26884" lon="2.45482">
        <ele>168.8</ele>
        <time>2019-06-23T06:32:18.000Z</time>
      </trkpt>
      <trkpt lat="43.26885" lon="2.45486">
        <ele>168.7</ele>
        <time>2019-06-23T06:32:19.000Z</time>
      </trkpt>
      <trkpt lat="43.26886" lon="2.45488">
        <ele>168.5</ele>
        <time>2019-06-23T06:32:20.000Z</time>
      </trkpt>
      <trkpt lat="43.26888" lon="2.45491">
        <ele>168.4</ele>
        <time>2019-06-23T06:32:21.000Z</time>
      </trkpt>
      <trkpt lat="43.26889" lon="2.45493">
        <ele>168.2</ele>
        <time>2019-06-23T06:32:22.000Z</time>
      </trkpt>
      <trkpt lat="43.26891" lon="2.45495">
        <ele>168</ele>
        <time>2019-06-23T06:32:23.000Z</time>
      </trkpt>
      <trkpt lat="43.26892" lon="2.45497">
        <ele>167.9</ele>
        <time>2019-06-23T06:32:24.000Z</time>
      </trkpt>
      <trkpt lat="43.26894" lon="2.45499">
        <ele>167.7</ele>
        <time>2019-06-23T06:32:25.000Z</time>
      </trkpt>
      <trkpt lat="43.26896" lon="2.45501">
        <ele>167.5</ele>
        <time>2019-06-23T06:32:26.000Z</time>
      </trkpt>
      <trkpt lat="43.26897" lon="2.45503">
        <ele>167.4</ele>
        <time>2019-06-23T06:32:27.000Z</time>
      </trkpt>
      <trkpt lat="43.26899" lon="2.45505">
        <ele>167.3</ele>
        <time>2019-06-23T06:32:28.000Z</time>
      </trkpt>
      <trkpt lat="43.269" lon="2.45508">
        <ele>167.1</ele>
        <time>2019-06-23T06:32:29.000Z</time>
      </trkpt>
      <trkpt lat="43.26901" lon="2.4551">
        <ele>167</ele>
        <time>2019-06-23T06:32:30.000Z</time>
      </trkpt>
      <trkpt lat="43.26902" lon="2.45513">
        <ele>167</ele>
        <time>2019-06-23T06:32:31.000Z</time>
      </trkpt>
      <trkpt lat="43.26903" lon="2.45516">
        <ele>166.9</ele>
        <time>2019-06-23T06:32:32.000Z</time>
      </trkpt>
      <trkpt lat="43.26904" lon="2.45519">
        <ele>166.9</ele>
        <time>2019-06-23T06:32:33.000Z</time>
      </trkpt>
      <trkpt lat="43.26904" lon="2.45522">
        <ele>166.9</ele>
        <time>2019-06-23T06:32:34.000Z</time>
      </trkpt>
      <trkpt lat="43.26905" lon="2.45525">
        <ele>166.9</ele>
        <time>2019-06-23T06:32:35.000Z</time>
      </trkpt>
      <trkpt lat="43.26904" lon="2.45528">
        <ele>167</ele>
        <time>2019-06-23T06:32:36.000Z</time>
      </trkpt>
      <trkpt lat="43.26904" lon="2.45531">
        <ele>167.1</ele>
        <time>2019-06-23T06:32:37.000Z</time>
      </trkpt>
      <trkpt lat="43.26903" lon="2.45534">
        <ele>167.2</ele>
        <time>2019-06-23T06:32:38.000Z</time>
      </trkpt>
      <trkpt lat="43.26903" lon="2.45537">
        <ele>167.4</ele>
        <time>2019-06-23T06:32:39.000Z</time>
      </trkpt>
      <trkpt lat="43.26902" lon="2.4554">
        <ele>167.5</ele>
        <time>2019-06-23T06:32:40.000Z</time>
      </trkpt>
      <trkpt lat="43.26901" lon="2.45544">
        <ele>167.7</ele>
        <time>2019-06-23T06:32:41.000Z</time>
      </trkpt>
      <trkpt lat="43.269" lon="2.45547">
        <ele>167.8</ele>
        <time>2019-06-23T06:32:42.000Z</time>
      </trkpt>
      <trkpt lat="43.26899" lon="2.4555">
        <ele>168</ele>
        <time>2019-06-23T06:32:43.000Z</time>
      </trkpt>
      <trkpt lat="43.26898" lon="2.45554">
        <ele>168.1</ele>
        <time>2019-06-23T06:32:44.000Z</time>
      </trkpt>
      <trkpt lat="43.26897" lon="2.45557">
        <ele>168.3</ele>
        <time>2019-06-23T06:32:45.000Z</time>
      </trkpt>
      <trkpt lat="43.26896" lon="2.4556">
        <ele>168.4</ele>
        <time>2019-06-23T06:32:46.000Z</time>
      </trkpt>
      <trkpt lat="43.26895" lon="2.45564">
        <ele>168.5</ele>
        <time>2019-06-23T06:32:47.000Z</time>
      </trkpt>
      <trkpt lat="43.26894" lon="2.45567">
        <ele>168.6</ele>
        <time>2019-06-23T06:32:48.000Z</time>
      </trkpt>
      <trkpt lat="43.26894" lon="2.4557">
        <ele>168.8</ele>
        <time>2019-06-23T06:32:49.000Z</time>
      </trkpt>
      <trkpt lat="43.26893" lon="2.45574">
        <ele>168.9</ele>
        <time>2019-06-23T06:32:50.000Z</time>
      </trkpt>
      <trkpt lat="43.26892" lon="2.45577">
        <ele>169</ele>
        <time>2019-06-23T06:32:51.000Z</time>
      </trkpt>
      <trkpt lat="43.26892" lon="2.4558">
        <ele>169.1</ele>
        <time>2019-06-23T06:32:52.000Z</time>
      </trkpt>
      <trkpt lat="43.26891" lon="2.45583">
        <ele>169.2</ele>
        <time>2019-06-23T06:32:53.000Z</time>
      </trkpt>
      <trkpt lat="43.2689" lon="2.45586">
        <ele>169.4</ele>
        <time>2019-06-23T06:32:54.000Z</time>
      </trkpt>
      <trkpt lat="43.26889" lon="2.45588">
        <ele>169.7</ele>
        <time>2019-06-23T06:32:55.000Z</time>
      </trkpt>
      <trkpt lat="43.26887" lon="2.45591">
        <ele>170</ele>
        <time>2019-06-23T06:32:56.000Z</time>
      </trkpt>
      <trkpt lat="43.26886" lon="2.45593">
        <ele>170.2</ele>
        <time>2019-06-23T06:32:57.000Z</time>
      </trkpt>
      <trkpt lat="43.26884" lon="2.45595">
        <ele>170.5</ele>
        <time>2019-06-23T06:32:58.000Z</time>
      </trkpt>
      <trkpt lat="43.26882" lon="2.45597">
        <ele>170.7</ele>
        <time>2019-06-23T06:32:59.000Z</time>
      </trkpt>
      <trkpt lat="43.26881" lon="2.45598">
        <ele>171</ele>
        <time>2019-06-23T06:33:00.000Z</time>
      </trkpt>
      <trkpt lat="43.26879" lon="2.456">
        <ele>171.2</ele>
        <time>2019-06-23T06:33:01.000Z</time>
      </trkpt>
      <trkpt lat="43.26877" lon="2.45601">
        <ele>171.4</ele>
        <time>2019-06-23T06:33:02.000Z</time>
      </trkpt>
      <trkpt lat="43.26875" lon="2.45602">
        <ele>171.6</ele>
        <time>2019-06-23T06:33:03.000Z</time>
      </trkpt>
      <trkpt lat="43.26873" lon="2.45602">
        <ele>171.8</ele>
        <time>2019-06-23T06:33:04.000Z</time>
      </trkpt>
      <trkpt lat="43.26871" lon="2.45603">
        <ele>172</ele>
        <time>2019-06-23T06:33:05.000Z</time>
      </trkpt>
      <trkpt lat="43.26869" lon="2.45603">
        <ele>172.1</ele>
        <time>2019-06-23T06:33:06.000Z</time>
      </trkpt>
      <trkpt lat="43.26867" lon="2.45604">
        <ele>172.3</ele>
        <time>2019-06-23T06:33:07.000Z</time>
      </trkpt>
      <trkpt lat="43.26865" lon="2.45604">
        <ele>172.5</ele>
        <time>2019-06-23T06:33:08.000Z</time>
      </trkpt>
      <trkpt lat="43.26863" lon="2.45605">
        <ele>172.6</ele>
        <time>2019-06-23T06:33:09.000Z</time>
      </trkpt>
      <trkpt lat="43.26861" lon="2.45606">
        <ele>172.8</ele>
        <time>2019-06-23T06:33:10.000Z</time>
      </trkpt>
      <trkpt lat="43.26859" lon="2.45606">
        <ele>173</ele>
        <time>2019-06-23T06:33:11.000Z</time>
      </trkpt>
      <trkpt lat="43.26857" lon="2.45608">
        <ele>173.2</ele>
        <time>2019-06-23T06:33:12.000Z</time>
      </trkpt>
      <trkpt lat="43.26855" lon="2.45609">
        <ele>173.4</ele>
        <time>2019-06-23T06:33:13.000Z</time>
      </trkpt>
      <trkpt lat="43.26853" lon="2.4561">
        <ele>173.6</ele>
        <time>2019-06-23T06:33:14.000Z</time>
      </trkpt>
      <trkpt lat="43.26851" lon="2.45611">
        <ele>173.8</ele>
        <time>2019-06-23T06:33:15.000Z</time>
      </trkpt>
      <trkpt lat="43.26849" lon="2.45613">
        <ele>174</ele>
        <time>2019-06-23T06:33:16.000Z</time>
      </trkpt>
      <trkpt lat="43.26847" lon="2.45614">
        <ele>174.2</ele>
        <time>2019-06-23T06:33:17.000Z</time>
      </trkpt>
      <trkpt lat="43.26844" lon="2.45615">
        <ele>174.4</ele>
        <time>2019-06-23T06:33:18.000Z</time>
      </trkpt>
      <trkpt lat="43.26842" lon="2.45615">
        <ele>174.6</ele>
        <time>2019-06-23T06:33:19.000Z</time>
      </trkpt>
      <trkpt lat="43.2684" lon="2.45616">
        <ele>174.8</ele>
        <time>2019-06-23T06:33:20.000Z</time>
      </trkpt>
      <trkpt lat="43.26837" lon="2.45616">
        <ele>174.9</ele>
        <time>2019-06-23T06:33:21.000Z</time>
      </trkpt>
      <trkpt lat="43.26835" lon="2.45616">
        <ele>175.1</ele>
        <time>2019-06-23T06:33:22.000Z</time>
      </trkpt>
      <trkpt lat="43.26833" lon="2.45617">
        <ele>175.2</ele>
        <time>2019-06-23T06:33:23.000Z</time>
      </trkpt>
      <trkpt lat="43.26831" lon="2.45617">
        <ele>175.4</ele>
        <time>2019-06-23T06:33:24.000Z</time>
      </trkpt>
      <trkpt lat="43.26829" lon="2.45618">
        <ele>175.5</ele>
        <time>2019-06-23T06:33:25.000Z</time>
      </trkpt>
      <trkpt lat="43.26827" lon="2.45619">
        <ele>175.6</ele>
        <time>2019-06-23T06:33:26.000Z</time>
      </trkpt>
      <trkpt lat="43.26825" lon="2.4562">
        <ele>175.8</ele>
        <time>2019-06-23T06:33:27.000Z</time>
      </trkpt>
      <trkpt lat="43.26823" lon="2.45621">
        <ele>175.9</ele>
        <time>2019-06-23T06:33:28.000Z</time>
      </trkpt>
      <trkpt lat="43.26821" lon="2.45623">
        <ele>176</ele>
        <time>2019-06-23T06:33:29.000Z</time>
      </trkpt>
      <trkpt lat="43.2682" lon="2.45624">
        <ele>176.1</ele>
        <time>2019-06-23T06:33:30.000Z</time>
      </trkpt>
      <trkpt lat="43.26818" lon="2.45626">
        <ele>176.2</ele>
        <time>2019-06-23T06:33:31.000Z</time>
      </trkpt>
      <trkpt lat="43.26817" lon="2.45628">
        <ele>176.4</ele>
        <time>2019-06-23T06:33:32.000Z</time>
      </trkpt>
      <trkpt lat="43.26815" lon="2.45629">
        <ele>176.5</ele>
        <time>2019-06-23T06:33:33.000Z</time>
      </trkpt>
      <trkpt lat="43.26813" lon="2.45631">
        <ele>176.6</ele>
        <time>2019-06-23T06:33:34.000Z</time>
      </trkpt>
      <trkpt lat="43.26812" lon="2.45632">
        <ele>176.7</ele>
        <time>2019-06-23T06:33:35.000Z</time>
      </trkpt>
      <trkpt lat="43.2681" lon="2.45634">
        <ele>176.8</ele>
        <time>2019-06-23T06:33:36.000Z</time>
      </trkpt>
      <trkpt lat="43.26808" lon="2.45635">
        <ele>176.8</ele>
        <time>2019-06-23T06:33:37.000Z</time>
      </trkpt>
      <trkpt lat="43.26807" lon="2.45636">
        <ele>176.9</ele>
        <time>2019-06-23T06:33:38.000Z</time>
      </trkpt>
      <trkpt lat="43.26805" lon="2.45638">
        <ele>177</ele>
        <time>2019-06-23T06:33:39.000Z</time>
      </trkpt>
      <trkpt lat="43.26803" lon="2.45639">
        <ele>177.1</ele>
        <time>2019-06-23T06:33:40.000Z</time>
      </trkpt>
      <trkpt lat="43.26802" lon="2.45641">
        <ele>177.2</ele>
        <time>2019-06-23T06:33:41.000Z</time>
      </trkpt>
      <trkpt lat="43.268" lon="2.45642">
        <ele>177.2</ele>
        <time>2019-06-23T06:33:42.000Z</time>
      </trkpt>
      <trkpt lat="43.26798" lon="2.45643">
        <ele>177.3</ele>
        <time>2019-06-23T06:33:43.000Z</time>
      </trkpt>
      <trkpt lat="43.26797" lon="2.45645">
        <ele>177.3</ele>
        <time>2019-06-23T06:33:44.000Z</time>
      </trkpt>
      <trkpt lat="43.26796" lon="2.45646">
        <ele>177.4</ele>
        <time>2019-06-23T06:33:45.000Z</time>
      </trkpt>
      <trkpt lat="43.26794" lon="2.45647">
        <ele>177.4</ele>
        <time>2019-06-23T06:33:46.000Z</time>
      </trkpt>
      <trkpt lat="43.26793" lon="2.45648">
        <ele>177.5</ele>
        <time>2019-06-23T06:33:47.000Z</time>
      </trkpt>
      <trkpt lat="43.26792" lon="2.45649">
        <ele>177.5</ele>
        <time>2019-06-23T06:33:48.000Z</time>
      </trkpt>
      <trkpt lat="43.26791" lon="2.4565">
        <ele>177.5</ele>
        <time>2019-06-23T06:33:49.000Z</time>
      </trkpt>
      <trkpt lat="43.26789" lon="2.45651">
        <ele>177.6</ele>
        <time>2019-06-23T06:33:50.000Z</time>
      </trkpt>
      <trkpt lat="43.26788" lon="2.45652">
        <ele>177.6</ele>
        <time>2019-06-23T06:33:51.000Z</time>
      </trkpt>
      <trkpt lat="43.26787" lon="2.45653">
        <ele>177.6</ele>
        <time>2019-06-23T06:33:52.000Z</time>
      </trkpt>
      <trkpt lat="43.26787" lon="2.45654">
        <ele>177.6</ele>
        <time>2019-06-23T06:33:53.000Z</time>
      </trkpt>
      <trkpt lat="43.26786" lon="2.45655">
        <ele>177.6</ele>
        <time>2019-06-23T06:33:54.000Z</time>
      </trkpt>
      <trkpt lat="43.26785" lon="2.45656">
        <ele>177.6</ele>
        <time>2019-06-23T06:33:55.000Z</time>
      </trkpt>
      <trkpt lat="43.26785" lon="2.45656">
        <ele>177.6</ele>
        <time>2019-06-23T06:33:56.000Z</time>
      </trkpt>
      <trkpt lat="43.26784" lon="2.45657">
        <ele>177.7</ele>
        <time>2019-06-23T06:33:57.000Z</time>
      </trkpt>
      <trkpt lat="43.26784" lon="2.45657">
        <ele>177.7</ele>
        <time>2019-06-23T06:33:58.000Z</time>
      </trkpt>
      <trkpt lat="43.26783" lon="2.45657">
        <ele>177.7</ele>
        <time>2019-06-23T06:33:59.000Z</time>
      </trkpt>
      <trkpt lat="43.26783" lon="2.45658">
        <ele>177.7</ele>
        <time>2019-06-23T06:34:00.000Z</time>
      </trkpt>
      <trkpt lat="43.26783" lon="2.45658">
        <ele>177.7</ele>
        <time>2019-06-23T06:34:01.000Z</time>
      </trkpt>
      <trkpt lat="43.26783" lon="2.45658">
        <ele>177.7</ele>
        <time>2019-06-23T06:34:02.000Z</time>
      </trkpt>
      <trkpt lat="43.26783" lon="2.45658">
        <ele>177.7</ele>
        <time>2019-06-23T06:34:03.000Z</time>
      </trkpt>
      <trkpt lat="43.26783" lon="2.45658">
        <ele>177.7</ele>
        <time>2019-06-23T06:34:04.000Z</time>
      </trkpt>
      <trkpt lat="43.26783" lon="2.45658">
        <ele>177.7</ele>
        <time>2019-06-23T06:34:05.000Z</time>
      </trkpt>
      <trkpt lat="43.26783" lon="2.45658">
        <ele>177.7</ele>
        <time>2019-06-23T06:34:06.000Z</time>
      </trkpt>
      <trkpt lat="43.26783" lon="2.45658">
        <ele>177.7</ele>
        <time>2019-06-23T06:34:07.000Z</time>
      </trkpt>
      <trkpt lat="43.26783" lon="2.45658">
        <ele>177.7</ele>
        <time>2019-06-23T06:34:08.000Z</time>
      </trkpt>
      <trkpt lat="43.26783" lon="2.45658">
        <ele>177.7</ele>
        <time>2019-06-23T06:34:09.000Z</time>
      </trkpt>
      <trkpt lat="43.26783" lon="2.45658">
        <ele>177.7</ele>
        <time>2019-06-23T06:34:10.000Z</time>
      </trkpt>
      <trkpt lat="43.26783" lon="2.45658">
        <ele>177.7</ele>
        <time>2019-06-23T06:34:11.000Z</time>
      </trkpt>
      <trkpt lat="43.26783" lon="2.45658">
        <ele>177.7</ele>
        <time>2019-06-23T06:34:12.000Z</time>
      </trkpt>
      <trkpt lat="43.26783" lon="2.45658">
        <ele>177.7</ele>
        <time>2019-06-23T06:34:13.000Z</time>
      </trkpt>
      <trkpt lat="43.26783" lon="2.45658">
        <ele>177.7</ele>
        <time>2019-06-23T06:34:14.000Z</time>
      </trkpt>
      <trkpt lat="43.26783" lon="2.45658">
        <ele>177.7</ele>
        <time>2019-06-23T06:34:15.000Z</time>
      </trkpt>
      <trkpt lat="43.26783" lon="2.45658">
        <ele>177.7</ele>
        <time>2019-06-23T06:34:16.000Z</time>
      </trkpt>
      <trkpt lat="43.26783" lon="2.45658">
        <ele>177.7</ele>
        <time>2019-06-23T06:34:17.000Z</time>
      </trkpt>
      <trkpt lat="43.26783" lon="2.45658">
        <ele>177.7</ele>
        <time>2019-06-23T06:34:18.000Z</time>
      </trkpt>
      <trkpt lat="43.26783" lon="2.45658">
        <ele>177.7</ele>
        <time>2019-06-23T06:34:19.000Z</time>
      </trkpt>
      <trkpt lat="43.26783" lon="2.45658">
        <ele>177.7</ele>
        <time>2019-06-23T06:34:20.000Z</time>
      </trkpt>
      <trkpt lat="43.26783" lon="2.45658">
        <ele>177.7</ele>
        <time>2019-06-23T06:34:21.000Z</time>
      </trkpt>
      <trkpt lat="43.26782" lon="2.45659">
        <ele>177.7</ele>
        <time>2019-06-23T06:34:22.000Z</time>
      </trkpt>
      <trkpt lat="43.26782" lon="2.45661">
        <ele>177.7</ele>
        <time>2019-06-23T06:34:23.000Z</time>
      </trkpt>
      <trkpt lat="43.26782" lon="2.45662">
        <ele>177.7</ele>
        <time>2019-06-23T06:34:24.000Z</time>
      </trkpt>
      <trkpt lat="43.26781" lon="2.45663">
        <ele>177.7</ele>
        <time>2019-06-23T06:34:25.000Z</time>
      </trkpt>
      <trkpt lat="43.26781" lon="2.45664">
        <ele>177.6</ele>
        <time>2019-06-23T06:34:26.000Z</time>
      </trkpt>
      <trkpt lat="43.26781" lon="2.45665">
        <ele>177.6</ele>
        <time>2019-06-23T06:34:27.000Z</time>
      </trkpt>
      <trkpt lat="43.26781" lon="2.45666">
        <ele>177.6</ele>
        <time>2019-06-23T06:34:28.000Z</time>
      </trkpt>
      <trkpt lat="43.2678" lon="2.45666">
        <ele>177.6</ele>
        <time>2019-06-23T06:34:29.000Z</time>
      </trkpt>
      <trkpt lat="43.2678" lon="2.45666">
        <ele>177.6</ele>
        <time>2019-06-23T06:34:30.000Z</time>
      </trkpt>
      <trkpt lat="43.2678" lon="2.45666">
        <ele>177.6</ele>
        <time>2019-06-23T06:34:31.000Z</time>
      </trkpt>
      <trkpt lat="43.2678" lon="2.45667">
        <ele>177.6</ele>
        <time>2019-06-23T06:34:32.000Z</time>
      </trkpt>
      <trkpt lat="43.2678" lon="2.45667">
        <ele>177.6</ele>
        <time>2019-06-23T06:34:33.000Z</time>
      </trkpt>
      <trkpt lat="43.2678" lon="2.45667">
        <ele>177.6</ele>
        <time>2019-06-23T06:34:34.000Z</time>
      </trkpt>
      <trkpt lat="43.2678" lon="2.45667">
        <ele>177.6</ele>
        <time>2019-06-23T06:34:35.000Z</time>
      </trkpt>
      <trkpt lat="43.2678" lon="2.45667">
        <ele>177.6</ele>
        <time>2019-06-23T06:34:36.000Z</time>
      </trkpt>
      <trkpt lat="43.2678" lon="2.45667">
        <ele>177.6</ele>
        <time>2019-06-23T06:34:37.000Z</time>
      </trkpt>
      <trkpt lat="43.2678" lon="2.45667">
        <ele>177.6</ele>
        <time>2019-06-23T06:34:38.000Z</time>
      </trkpt>
      <trkpt lat="43.2678" lon="2.45667">
        <ele>177.6</ele>
        <time>2019-06-23T06:34:39.000Z</time>
      </trkpt>
      <trkpt lat="43.2678" lon="2.45667">
        <ele>177.6</ele>
        <time>2019-06-23T06:34:40.000Z</time>
      </trkpt>
      <trkpt lat="43.2678" lon="2.45667">
        <ele>177.6</ele>
        <time>2019-06-23T06:34:41.000Z</time>
      </trkpt>
      <trkpt lat="43.2678" lon="2.45667">
        <ele>177.6</ele>
        <time>2019-06-23T06:34:42.000Z</time>
      </trkpt>
      <trkpt lat="43.2678" lon="2.45667">
        <ele>177.6</ele>
        <time>2019-06-23T06:34:43.000Z</time>
      </trkpt>
      <trkpt lat="43.2678" lon="2.45667">
        <ele>177.6</ele>
        <time>2019-06-23T06:34:44.000Z</time>
      </trkpt>
      <trkpt lat="43.2678" lon="2.45667">
        <ele>177.6</ele>
        <time>2019-06-23T06:34:45.000Z</time>
      </trkpt>
      <trkpt lat="43.2678" lon="2.45667">
        <ele>177.6</ele>
        <time>2019-06-23T06:34:46.000Z</time>
      </trkpt>
      <trkpt lat="43.2678" lon="2.45667">
        <ele>177.6</ele>
        <time>2019-06-23T06:34:47.000Z</time>
      </trkpt>
      <trkpt lat="43.2678" lon="2.45667">
        <ele>177.6</ele>
        <time>2019-06-23T06:34:48.000Z</time>
      </trkpt>
      <trkpt lat="43.2678" lon="2.45667">
        <ele>177.6</ele>
        <time>2019-06-23T06:34:49.000Z</time>
      </trkpt>
      <trkpt lat="43.2678" lon="2.45667">
        <ele>177.6</ele>
        <time>2019-06-23T06:34:50.000Z</time>
      </trkpt>
      <trkpt lat="43.2678" lon="2.45667">
        <ele>177.6</ele>
        <time>2019-06-23T06:34:51.000Z</time>
      </trkpt>
      <trkpt lat="43.2678" lon="2.45667">
        <ele>177.6</ele>
        <time>2019-06-23T06:34:52.000Z</time>
      </trkpt>
      <trkpt lat="43.2678" lon="2.45667">
        <ele>177.6</ele>
        <time>2019-06-23T06:34:53.000Z</time>
      </trkpt>
      <trkpt lat="43.2678" lon="2.45667">
        <ele>177.6</ele>
        <time>2019-06-23T06:34:54.000Z</time>
      </trkpt>
      <trkpt lat="43.2678" lon="2.45667">
        <ele>177.6</ele>
        <time>2019-06-23T06:34:55.000Z</time>
      </trkpt>
      <trkpt lat="43.2678" lon="2.45667">
        <ele>177.6</ele>
        <time>2019-06-23T06:34:56.000Z</time>
      </trkpt>
      <trkpt lat="43.2678" lon="2.45667">
        <ele>177.6</ele>
        <time>2019-06-23T06:34:57.000Z</time>
      </trkpt>
      <trkpt lat="43.2678" lon="2.45667">
        <ele>177.6</ele>
        <time>2019-06-23T06:34:58.000Z</time>
      </trkpt>
      <trkpt lat="43.2678" lon="2.45667">
        <ele>177.6</ele>
        <time>2019-06-23T06:34:59.000Z</time>
      </trkpt>
      <trkpt lat="43.2678" lon="2.45667">
        <ele>177.6</ele>
        <time>2019-06-23T06:35:00.000Z</time>
      </trkpt>
      <trkpt lat="43.2678" lon="2.45667">
        <ele>177.6</ele>
        <time>2019-06-23T06:35:01.000Z</time>
      </trkpt>
      <trkpt lat="43.2678" lon="2.45667">
        <ele>177.6</ele>
        <time>2019-06-23T06:35:02.000Z</time>
      </trkpt>
      <trkpt lat="43.2678" lon="2.45667">
        <ele>177.6</ele>
        <time>2019-06-23T06:35:03.000Z</time>
      </trkpt>
      <trkpt lat="43.2678" lon="2.45667">
        <ele>177.6</ele>
        <time>2019-06-23T06:35:04.000Z</time>
      </trkpt>
      <trkpt lat="43.2678" lon="2.45667">
        <ele>177.6</ele>
        <time>2019-06-23T06:35:05.000Z</time>
      </trkpt>
      <trkpt lat="43.2678" lon="2.45667">
        <ele>177.6</ele>
        <time>2019-06-23T06:35:06.000Z</time>
      </trkpt>
      <trkpt lat="43.2678" lon="2.45667">
        <ele>177.6</ele>
        <time>2019-06-23T06:35:07.000Z</time>
      </trkpt>
      <trkpt lat="43.2678" lon="2.45667">
        <ele>177.6</ele>
        <time>2019-06-23T06:35:08.000Z</time>
      </trkpt>
      <trkpt lat="43.2678" lon="2.45667">
        <ele>177.6</ele>
        <time>2019-06-23T06:35:09.000Z</time>
      </trkpt>
      <trkpt lat="43.2678" lon="2.45667">
        <ele>177.6</ele>
        <time>2019-06-23T06:35:10.000Z</time>
      </trkpt>
      <trkpt lat="43.2678" lon="2.45667">
        <ele>177.6</ele>
        <time>2019-06-23T06:35:11.000Z</time>
      </trkpt>
      <trkpt lat="43.2678" lon="2.45667">
        <ele>177.6</ele>
        <time>2019-06-23T06:35:12.000Z</time>
      </trkpt>
      <trkpt lat="43.2678" lon="2.45667">
        <ele>177.6</ele>
        <time>2019-06-23T06:35:13.000Z</time>
      </trkpt>
      <trkpt lat="43.2678" lon="2.45667">
        <ele>177.6</ele>
        <time>2019-06-23T06:35:14.000Z</time>
      </trkpt>
      <trkpt lat="43.2678" lon="2.45667">
        <ele>177.6</ele>
        <time>2019-06-23T06:35:15.000Z</time>
      </trkpt>
      <trkpt lat="43.2678" lon="2.45667">
        <ele>177.6</ele>
        <time>2019-06-23T06:35:16.000Z</time>
      </trkpt>
      <trkpt lat="43.2678" lon="2.45667">
        <ele>177.6</ele>
        <time>2019-06-23T06:35:17.000Z</time>
      </trkpt>
      <trkpt lat="43.2678" lon="2.45667">
        <ele>177.6</ele>
        <time>2019-06-23T06:35:18.000Z</time>
      </trkpt>
      <trkpt lat="43.2678" lon="2.45667">
        <ele>177.6</ele>
        <time>2019-06-23T06:35:19.000Z</time>
      </trkpt>
      <trkpt lat="43.2678" lon="2.45667">
        <ele>177.6</ele>
        <time>2019-06-23T06:35:20.000Z</time>
      </trkpt>
      <trkpt lat="43.26779" lon="2.45667">
        <ele>177.6</ele>
        <time>2019-06-23T06:35:21.000Z</time>
      </trkpt>
      <trkpt lat="43.26779" lon="2.45667">
        <ele>177.6</ele>
        <time>2019-06-23T06:35:22.000Z</time>
      </trkpt>
      <trkpt lat="43.26779" lon="2.45668">
        <ele>177.6</ele>
        <time>2019-06-23T06:35:23.000Z</time>
      </trkpt>
      <trkpt lat="43.26779" lon="2.45668">
        <ele>177.6</ele>
        <time>2019-06-23T06:35:24.000Z</time>
      </trkpt>
      <trkpt lat="43.26779" lon="2.45668">
        <ele>177.6</ele>
        <time>2019-06-23T06:35:25.000Z</time>
      </trkpt>
      <trkpt lat="43.26779" lon="2.45668">
        <ele>177.6</ele>
        <time>2019-06-23T06:35:26.000Z</time>
      </trkpt>
      <trkpt lat="43.26779" lon="2.45668">
        <ele>177.6</ele>
        <time>2019-06-23T06:35:27.000Z</time>
      </trkpt>
      <trkpt lat="43.26779" lon="2.45668">
        <ele>177.6</ele>
        <time>2019-06-23T06:35:28.000Z</time>
      </trkpt>
      <trkpt lat="43.26779" lon="2.45668">
        <ele>177.6</ele>
        <time>2019-06-23T06:35:29.000Z</time>
      </trkpt>
      <trkpt lat="43.26779" lon="2.45668">
        <ele>177.6</ele>
        <time>2019-06-23T06:35:30.000Z</time>
      </trkpt>
      <trkpt lat="43.26779" lon="2.45668">
        <ele>177.6</ele>
        <time>2019-06-23T06:35:31.000Z</time>
      </trkpt>
      <trkpt lat="43.26779" lon="2.45668">
        <ele>177.6</ele>
        <time>2019-06-23T06:35:32.000Z</time>
      </trkpt>
      <trkpt lat="43.26779" lon="2.45668">
        <ele>177.6</ele>
        <time>2019-06-23T06:35:33.000Z</time>
      </trkpt>
      <trkpt lat="43.26779" lon="2.45668">
        <ele>177.6</ele>
        <time>2019-06-23T06:35:34.000Z</time>
      </trkpt>
      <trkpt lat="43.26779" lon="2.45668">
        <ele>177.6</ele>
        <time>2019-06-23T06:35:35.000Z</time>
      </trkpt>
      <trkpt lat="43.26779" lon="2.45668">
        <ele>177.6</ele>
        <time>2019-06-23T06:35:36.000Z</time>
      </trkpt>
      <trkpt lat="43.26779" lon="2.45668">
        <ele>177.6</ele>
        <time>2019-06-23T06:35:37.000Z</time>
      </trkpt>
      <trkpt lat="43.26779" lon="2.45668">
        <ele>177.6</ele>
        <time>2019-06-23T06:35:38.000Z</time>
      </trkpt>
      <trkpt lat="43.26779" lon="2.45668">
        <ele>177.6</ele>
        <time>2019-06-23T06:35:39.000Z</time>
      </trkpt>
      <trkpt lat="43.26779" lon="2.45668">
        <ele>177.6</ele>
        <time>2019-06-23T06:35:40.000Z</time>
      </trkpt>
      <trkpt lat="43.26779" lon="2.45668">
        <ele>177.6</ele>
        <time>2019-06-23T06:35:41.000Z</time>
      </trkpt>
      <trkpt lat="43.26779" lon="2.45668">
        <ele>177.6</ele>
        <time>2019-06-23T06:35:42.000Z</time>
      </trkpt>
      <trkpt lat="43.26779" lon="2.45668">
        <ele>177.6</ele>
        <time>2019-06-23T06:35:43.000Z</time>
      </trkpt>
      <trkpt lat="43.26779" lon="2.45668">
        <ele>177.6</ele>
        <time>2019-06-23T06:35:44.000Z</time>
      </trkpt>
      <trkpt lat="43.26779" lon="2.45668">
        <ele>177.6</ele>
        <time>2019-06-23T06:35:45.000Z</time>
      </trkpt>
      <trkpt lat="43.26779" lon="2.45668">
        <ele>177.6</ele>
        <time>2019-06-23T06:35:46.000Z</time>
      </trkpt>
      <trkpt lat="43.26778" lon="2.45668">
        <ele>177.6</ele>
        <time>2019-06-23T06:35:47.000Z</time>
      </trkpt>
      <trkpt lat="43.26778" lon="2.45668">
        <ele>177.6</ele>
        <time>2019-06-23T06:35:48.000Z</time>
      </trkpt>
      <trkpt lat="43.26776" lon="2.45668">
        <ele>177.7</ele>
        <time>2019-06-23T06:35:49.000Z</time>
      </trkpt>
      <trkpt lat="43.26774" lon="2.45668">
        <ele>177.7</ele>
        <time>2019-06-23T06:35:50.000Z</time>
      </trkpt>
      <trkpt lat="43.26772" lon="2.45669">
        <ele>177.7</ele>
        <time>2019-06-23T06:35:51.000Z</time>
      </trkpt>
      <trkpt lat="43.2677" lon="2.45668">
        <ele>177.7</ele>
        <time>2019-06-23T06:35:52.000Z</time>
      </trkpt>
      <trkpt lat="43.26768" lon="2.45668">
        <ele>177.8</ele>
        <time>2019-06-23T06:35:53.000Z</time>
      </trkpt>
      <trkpt lat="43.26766" lon="2.45666">
        <ele>177.8</ele>
        <time>2019-06-23T06:35:54.000Z</time>
      </trkpt>
      <trkpt lat="43.26764" lon="2.45665">
        <ele>177.9</ele>
        <time>2019-06-23T06:35:55.000Z</time>
      </trkpt>
      <trkpt lat="43.26761" lon="2.45664">
        <ele>177.9</ele>
        <time>2019-06-23T06:35:56.000Z</time>
      </trkpt>
      <trkpt lat="43.26759" lon="2.45663">
        <ele>178</ele>
        <time>2019-06-23T06:35:57.000Z</time>
      </trkpt>
      <trkpt lat="43.26757" lon="2.45662">
        <ele>178.1</ele>
        <time>2019-06-23T06:35:58.000Z</time>
      </trkpt>
      <trkpt lat="43.26754" lon="2.45661">
        <ele>178.1</ele>
        <time>2019-06-23T06:35:59.000Z</time>
      </trkpt>
      <trkpt lat="43.26752" lon="2.4566">
        <ele>178.2</ele>
        <time>2019-06-23T06:36:00.000Z</time>
      </trkpt>
      <trkpt lat="43.2675" lon="2.45659">
        <ele>178.3</ele>
        <time>2019-06-23T06:36:01.000Z</time>
      </trkpt>
      <trkpt lat="43.26747" lon="2.45659">
        <ele>178.8</ele>
        <time>2019-06-23T06:36:02.000Z</time>
      </trkpt>
      <trkpt lat="43.26745" lon="2.45659">
        <ele>179.2</ele>
        <time>2019-06-23T06:36:03.000Z</time>
      </trkpt>
      <trkpt lat="43.26743" lon="2.45658">
        <ele>179.7</ele>
        <time>2019-06-23T06:36:04.000Z</time>
      </trkpt>
      <trkpt lat="43.26741" lon="2.45659">
        <ele>180.1</ele>
        <time>2019-06-23T06:36:05.000Z</time>
      </trkpt>
      <trkpt lat="43.26739" lon="2.45659">
        <ele>180.4</ele>
        <time>2019-06-23T06:36:06.000Z</time>
      </trkpt>
      <trkpt lat="43.26737" lon="2.45659">
        <ele>180.8</ele>
        <time>2019-06-23T06:36:07.000Z</time>
      </trkpt>
      <trkpt lat="43.26735" lon="2.4566">
        <ele>181.2</ele>
        <time>2019-06-23T06:36:08.000Z</time>
      </trkpt>
      <trkpt lat="43.26733" lon="2.45661">
        <ele>181.5</ele>
        <time>2019-06-23T06:36:09.000Z</time>
      </trkpt>
      <trkpt lat="43.26731" lon="2.45662">
        <ele>181.8</ele>
        <time>2019-06-23T06:36:10.000Z</time>
      </trkpt>
      <trkpt lat="43.26729" lon="2.45664">
        <ele>182.1</ele>
        <time>2019-06-23T06:36:11.000Z</time>
      </trkpt>
      <trkpt lat="43.26728" lon="2.45665">
        <ele>182.4</ele>
        <time>2019-06-23T06:36:12.000Z</time>
      </trkpt>
      <trkpt lat="43.26726" lon="2.45667">
        <ele>182.7</ele>
        <time>2019-06-23T06:36:13.000Z</time>
      </trkpt>
      <trkpt lat="43.26724" lon="2.45669">
        <ele>182.9</ele>
        <time>2019-06-23T06:36:14.000Z</time>
      </trkpt>
      <trkpt lat="43.26722" lon="2.45671">
        <ele>183.1</ele>
        <time>2019-06-23T06:36:15.000Z</time>
      </trkpt>
      <trkpt lat="43.26721" lon="2.45673">
        <ele>183.4</ele>
        <time>2019-06-23T06:36:16.000Z</time>
      </trkpt>
      <trkpt lat="43.26719" lon="2.45674">
        <ele>183.6</ele>
        <time>2019-06-23T06:36:17.000Z</time>
      </trkpt>
      <trkpt lat="43.26717" lon="2.45676">
        <ele>183.8</ele>
        <time>2019-06-23T06:36:18.000Z</time>
      </trkpt>
      <trkpt lat="43.26715" lon="2.45678">
        <ele>184</ele>
        <time>2019-06-23T06:36:19.000Z</time>
      </trkpt>
      <trkpt lat="43.26714" lon="2.45681">
        <ele>184.1</ele>
        <time>2019-06-23T06:36:20.000Z</time>
      </trkpt>
      <trkpt lat="43.26712" lon="2.45683">
        <ele>184.3</ele>
        <time>2019-06-23T06:36:21.000Z</time>
      </trkpt>
      <trkpt lat="43.2671" lon="2.45685">
        <ele>184.5</ele>
        <time>2019-06-23T06:36:22.000Z</time>
      </trkpt>
      <trkpt lat="43.26709" lon="2.45687">
        <ele>184.6</ele>
        <time>2019-06-23T06:36:23.000Z</time>
      </trkpt>
      <trkpt lat="43.26707" lon="2.45689">
        <ele>184.8</ele>
        <time>2019-06-23T06:36:24.000Z</time>
      </trkpt>
      <trkpt lat="43.26705" lon="2.45691">
        <ele>184.9</ele>
        <time>2019-06-23T06:36:25.000Z</time>
      </trkpt>
      <trkpt lat="43.26703" lon="2.45693">
        <ele>185.1</ele>
        <time>2019-06-23T06:36:26.000Z</time>
      </trkpt>
      <trkpt lat="43.26702" lon="2.45696">
        <ele>185.2</ele>
        <time>2019-06-23T06:36:27.000Z</time>
      </trkpt>
      <trkpt lat="43.267" lon="2.45698">
        <ele>185.3</ele>
        <time>2019-06-23T06:36:28.000Z</time>
      </trkpt>
      <trkpt lat="43.26698" lon="2.457">
        <ele>185.4</ele>
        <time>2019-06-23T06:36:29.000Z</time>
      </trkpt>
      <trkpt lat="43.26697" lon="2.45702">
        <ele>185.5</ele>
        <time>2019-06-23T06:36:30.000Z</time>
      </trkpt>
      <trkpt lat="43.26695" lon="2.45705">
        <ele>185.6</ele>
        <time>2019-06-23T06:36:31.000Z</time>
      </trkpt>
      <trkpt lat="43.26693" lon="2.45707">
        <ele>185.6</ele>
        <time>2019-06-23T06:36:32.000Z</time>
      </trkpt>
      <trkpt lat="43.26692" lon="2.45709">
        <ele>185.7</ele>
        <time>2019-06-23T06:36:33.000Z</time>
      </trkpt>
      <trkpt lat="43.2669" lon="2.45712">
        <ele>185.8</ele>
        <time>2019-06-23T06:36:34.000Z</time>
      </trkpt>
      <trkpt lat="43.26688" lon="2.45714">
        <ele>185.8</ele>
        <time>2019-06-23T06:36:35.000Z</time>
      </trkpt>
      <trkpt lat="43.26687" lon="2.45716">
        <ele>185.8</ele>
        <time>2019-06-23T06:36:36.000Z</time>
      </trkpt>
      <trkpt lat="43.26685" lon="2.45719">
        <ele>185.9</ele>
        <time>2019-06-23T06:36:37.000Z</time>
      </trkpt>
      <trkpt lat="43.26683" lon="2.45721">
        <ele>185.9</ele>
        <time>2019-06-23T06:36:38.000Z</time>
      </trkpt>
      <trkpt lat="43.26682" lon="2.45723">
        <ele>185.9</ele>
        <time>2019-06-23T06:36:39.000Z</time>
      </trkpt>
      <trkpt lat="43.2668" lon="2.45726">
        <ele>185.9</ele>
        <time>2019-06-23T06:36:40.000Z</time>
      </trkpt>
      <trkpt lat="43.26678" lon="2.45728">
        <ele>185.9</ele>
        <time>2019-06-23T06:36:41.000Z</time>
      </trkpt>
      <trkpt lat="43.26677" lon="2.4573">
        <ele>185.9</ele>
        <time>2019-06-23T06:36:42.000Z</time>
      </trkpt>
      <trkpt lat="43.26675" lon="2.45733">
        <ele>185.8</ele>
        <time>2019-06-23T06:36:43.000Z</time>
      </trkpt>
      <trkpt lat="43.26673" lon="2.45735">
        <ele>185.8</ele>
        <time>2019-06-23T06:36:44.000Z</time>
      </trkpt>
      <trkpt lat="43.26672" lon="2.45737">
        <ele>185.8</ele>
        <time>2019-06-23T06:36:45.000Z</time>
      </trkpt>
      <trkpt lat="43.2667" lon="2.4574">
        <ele>185.7</ele>
        <time>2019-06-23T06:36:46.000Z</time>
      </trkpt>
      <trkpt lat="43.26669" lon="2.45742">
        <ele>185.7</ele>
        <time>2019-06-23T06:36:47.000Z</time>
      </trkpt>
      <trkpt lat="43.26667" lon="2.45744">
        <ele>185.6</ele>
        <time>2019-06-23T06:36:48.000Z</time>
      </trkpt>
      <trkpt lat="43.26665" lon="2.45747">
        <ele>185.6</ele>
        <time>2019-06-23T06:36:49.000Z</time>
      </trkpt>
      <trkpt lat="43.26664" lon="2.45749">
        <ele>185.6</ele>
        <time>2019-06-23T06:36:50.000Z</time>
      </trkpt>
      <trkpt lat="43.26662" lon="2.45751">
        <ele>185.6</ele>
        <time>2019-06-23T06:36:51.000Z</time>
      </trkpt>
      <trkpt lat="43.26661" lon="2.45753">
        <ele>185.7</ele>
        <time>2019-06-23T06:36:52.000Z</time>
      </trkpt>
      <trkpt lat="43.26659" lon="2.45755">
        <ele>185.8</ele>
        <time>2019-06-23T06:36:53.000Z</time>
      </trkpt>
      <trkpt lat="43.26658" lon="2.45758">
        <ele>185.9</ele>
        <time>2019-06-23T06:36:54.000Z</time>
      </trkpt>
      <trkpt lat="43.26656" lon="2.4576">
        <ele>185.9</ele>
        <time>2019-06-23T06:36:55.000Z</time>
      </trkpt>
      <trkpt lat="43.26655" lon="2.45762">
        <ele>186</ele>
        <time>2019-06-23T06:36:56.000Z</time>
      </trkpt>
      <trkpt lat="43.26653" lon="2.45764">
        <ele>186.1</ele>
        <time>2019-06-23T06:36:57.000Z</time>
      </trkpt>
      <trkpt lat="43.26652" lon="2.45766">
        <ele>186.2</ele>
        <time>2019-06-23T06:36:58.000Z</time>
      </trkpt>
      <trkpt lat="43.2665" lon="2.45768">
        <ele>186.3</ele>
        <time>2019-06-23T06:36:59.000Z</time>
      </trkpt>
      <trkpt lat="43.26649" lon="2.45769">
        <ele>186.4</ele>
        <time>2019-06-23T06:37:00.000Z</time>
      </trkpt>
      <trkpt lat="43.26647" lon="2.45771">
        <ele>186.4</ele>
        <time>2019-06-23T06:37:01.000Z</time>
      </trkpt>
      <trkpt lat="43.26646" lon="2.45773">
        <ele>186.5</ele>
        <time>2019-06-23T06:37:02.000Z</time>
      </trkpt>
      <trkpt lat="43.26645" lon="2.45775">
        <ele>186.6</ele>
        <time>2019-06-23T06:37:03.000Z</time>
      </trkpt>
      <trkpt lat="43.26643" lon="2.45776">
        <ele>186.7</ele>
        <time>2019-06-23T06:37:04.000Z</time>
      </trkpt>
      <trkpt lat="43.26642" lon="2.45778">
        <ele>186.8</ele>
        <time>2019-06-23T06:37:05.000Z</time>
      </trkpt>
      <trkpt lat="43.26641" lon="2.45779">
        <ele>186.9</ele>
        <time>2019-06-23T06:37:06.000Z</time>
      </trkpt>
      <trkpt lat="43.2664" lon="2.45781">
        <ele>186.9</ele>
        <time>2019-06-23T06:37:07.000Z</time>
      </trkpt>
      <trkpt lat="43.26638" lon="2.45782">
        <ele>187</ele>
        <time>2019-06-23T06:37:08.000Z</time>
      </trkpt>
      <trkpt lat="43.26637" lon="2.45784">
        <ele>187.1</ele>
        <time>2019-06-23T06:37:09.000Z</time>
      </trkpt>
      <trkpt lat="43.26635" lon="2.45786">
        <ele>187.2</ele>
        <time>2019-06-23T06:37:10.000Z</time>
      </trkpt>
      <trkpt lat="43.26634" lon="2.45787">
        <ele>187.3</ele>
        <time>2019-06-23T06:37:11.000Z</time>
      </trkpt>
      <trkpt lat="43.26632" lon="2.45789">
        <ele>187.4</ele>
        <time>2019-06-23T06:37:12.000Z</time>
      </trkpt>
      <trkpt lat="43.26631" lon="2.45791">
        <ele>187.5</ele>
        <time>2019-06-23T06:37:13.000Z</time>
      </trkpt>
      <trkpt lat="43.26629" lon="2.45793">
        <ele>187.6</ele>
        <time>2019-06-23T06:37:14.000Z</time>
      </trkpt>
      <trkpt lat="43.26628" lon="2.45795">
        <ele>187.7</ele>
        <time>2019-06-23T06:37:15.000Z</time>
      </trkpt>
      <trkpt lat="43.26626" lon="2.45797">
        <ele>187.8</ele>
        <time>2019-06-23T06:37:16.000Z</time>
      </trkpt>
      <trkpt lat="43.26625" lon="2.45799">
        <ele>187.8</ele>
        <time>2019-06-23T06:37:17.000Z</time>
      </trkpt>
      <trkpt lat="43.26623" lon="2.45801">
        <ele>187.9</ele>
        <time>2019-06-23T06:37:18.000Z</time>
      </trkpt>
      <trkpt lat="43.26622" lon="2.45803">
        <ele>188</ele>
        <time>2019-06-23T06:37:19.000Z</time>
      </trkpt>
      <trkpt lat="43.2662" lon="2.45805">
        <ele>188.1</ele>
        <time>2019-06-23T06:37:20.000Z</time>
      </trkpt>
      <trkpt lat="43.26619" lon="2.45807">
        <ele>188.1</ele>
        <time>2019-06-23T06:37:21.000Z</time>
      </trkpt>
      <trkpt lat="43.26617" lon="2.45808">
        <ele>188.2</ele>
        <time>2019-06-23T06:37:22.000Z</time>
      </trkpt>
      <trkpt lat="43.26616" lon="2.4581">
        <ele>188.2</ele>
        <time>2019-06-23T06:37:23.000Z</time>
      </trkpt>
      <trkpt lat="43.26615" lon="2.45812">
        <ele>188.3</ele>
        <time>2019-06-23T06:37:24.000Z</time>
      </trkpt>
      <trkpt lat="43.26613" lon="2.45814">
        <ele>188.4</ele>
        <time>2019-06-23T06:37:25.000Z</time>
      </trkpt>
      <trkpt lat="43.26612" lon="2.45815">
        <ele>188.5</ele>
        <time>2019-06-23T06:37:26.000Z</time>
      </trkpt>
      <trkpt lat="43.2661" lon="2.45817">
        <ele>188.6</ele>
        <time>2019-06-23T06:37:27.000Z</time>
      </trkpt>
      <trkpt lat="43.26609" lon="2.45818">
        <ele>188.7</ele>
        <time>2019-06-23T06:37:28.000Z</time>
      </trkpt>
      <trkpt lat="43.26607" lon="2.4582">
        <ele>188.8</ele>
        <time>2019-06-23T06:37:29.000Z</time>
      </trkpt>
      <trkpt lat="43.26606" lon="2.45821">
        <ele>188.9</ele>
        <time>2019-06-23T06:37:30.000Z</time>
      </trkpt>
      <trkpt lat="43.26604" lon="2.45822">
        <ele>189.1</ele>
        <time>2019-06-23T06:37:31.000Z</time>
      </trkpt>
      <trkpt lat="43.26602" lon="2.45823">
        <ele>189.2</ele>
        <time>2019-06-23T06:37:32.000Z</time>
      </trkpt>
      <trkpt lat="43.26601" lon="2.45824">
        <ele>189.4</ele>
        <time>2019-06-23T06:37:33.000Z</time>
      </trkpt>
      <trkpt lat="43.26599" lon="2.45824">
        <ele>189.6</ele>
        <time>2019-06-23T06:37:34.000Z</time>
      </trkpt>
      <trkpt lat="43.26597" lon="2.45825">
        <ele>189.8</ele>
        <time>2019-06-23T06:37:35.000Z</time>
      </trkpt>
      <trkpt lat="43.26595" lon="2.45825">
        <ele>190.1</ele>
        <time>2019-06-23T06:37:36.000Z</time>
      </trkpt>
      <trkpt lat="43.26593" lon="2.45825">
        <ele>190.3</ele>
        <time>2019-06-23T06:37:37.000Z</time>
      </trkpt>
      <trkpt lat="43.26591" lon="2.45826">
        <ele>190.6</ele>
        <time>2019-06-23T06:37:38.000Z</time>
      </trkpt>
      <trkpt lat="43.26589" lon="2.45826">
        <ele>190.8</ele>
        <time>2019-06-23T06:37:39.000Z</time>
      </trkpt>
      <trkpt lat="43.26587" lon="2.45826">
        <ele>191.1</ele>
        <time>2019-06-23T06:37:40.000Z</time>
      </trkpt>
      <trkpt lat="43.26585" lon="2.45826">
        <ele>191.4</ele>
        <time>2019-06-23T06:37:41.000Z</time>
      </trkpt>
      <trkpt lat="43.26583" lon="2.45826">
        <ele>191.6</ele>
        <time>2019-06-23T06:37:42.000Z</time>
      </trkpt>
      <trkpt lat="43.2658" lon="2.45825">
        <ele>191.5</ele>
        <time>2019-06-23T06:37:43.000Z</time>
      </trkpt>
      <trkpt lat="43.26578" lon="2.45825">
        <ele>191.5</ele>
        <time>2019-06-23T06:37:44.000Z</time>
      </trkpt>
      <trkpt lat="43.26576" lon="2.45825">
        <ele>191.5</ele>
        <time>2019-06-23T06:37:45.000Z</time>
      </trkpt>
      <trkpt lat="43.26574" lon="2.45825">
        <ele>191.5</ele>
        <time>2019-06-23T06:37:46.000Z</time>
      </trkpt>
      <trkpt lat="43.26572" lon="2.45825">
        <ele>191.4</ele>
        <time>2019-06-23T06:37:47.000Z</time>
      </trkpt>
      <trkpt lat="43.26571" lon="2.45825">
        <ele>191.4</ele>
        <time>2019-06-23T06:37:48.000Z</time>
      </trkpt>
      <trkpt lat="43.26569" lon="2.45824">
        <ele>191.4</ele>
        <time>2019-06-23T06:37:49.000Z</time>
      </trkpt>
      <trkpt lat="43.26567" lon="2.45824">
        <ele>191.4</ele>
        <time>2019-06-23T06:37:50.000Z</time>
      </trkpt>
      <trkpt lat="43.26565" lon="2.45824">
        <ele>191.3</ele>
        <time>2019-06-23T06:37:51.000Z</time>
      </trkpt>
      <trkpt lat="43.26563" lon="2.45824">
        <ele>191.3</ele>
        <time>2019-06-23T06:37:52.000Z</time>
      </trkpt>
      <trkpt lat="43.26562" lon="2.45824">
        <ele>191.3</ele>
        <time>2019-06-23T06:37:53.000Z</time>
      </trkpt>
      <trkpt lat="43.2656" lon="2.45824">
        <ele>191.3</ele>
        <time>2019-06-23T06:37:54.000Z</time>
      </trkpt>
      <trkpt lat="43.26558" lon="2.45824">
        <ele>191.2</ele>
        <time>2019-06-23T06:37:55.000Z</time>
      </trkpt>
      <trkpt lat="43.26556" lon="2.45824">
        <ele>191.2</ele>
        <time>2019-06-23T06:37:56.000Z</time>
      </trkpt>
      <trkpt lat="43.26554" lon="2.45824">
        <ele>191.2</ele>
        <time>2019-06-23T06:37:57.000Z</time>
      </trkpt>
      <trkpt lat="43.26553" lon="2.45824">
        <ele>191.2</ele>
        <time>2019-06-23T06:37:58.000Z</time>
      </trkpt>
      <trkpt lat="43.26551" lon="2.45823">
        <ele>191.1</ele>
        <time>2019-06-23T06:37:59.000Z</time>
      </trkpt>
      <trkpt lat="43.26549" lon="2.45823">
        <ele>191.1</ele>
        <time>2019-06-23T06:38:00.000Z</time>
      </trkpt>
      <trkpt lat="43.26547" lon="2.45823">
        <ele>191.1</ele>
        <time>2019-06-23T06:38:01.000Z</time>
      </trkpt>
      <trkpt lat="43.26545" lon="2.45823">
        <ele>191.1</ele>
        <time>2019-06-23T06:38:02.000Z</time>
      </trkpt>
      <trkpt lat="43.26543" lon="2.45823">
        <ele>191</ele>
        <time>2019-06-23T06:38:03.000Z</time>
      </trkpt>
      <trkpt lat="43.26541" lon="2.45822">
        <ele>191</ele>
        <time>2019-06-23T06:38:04.000Z</time>
      </trkpt>
      <trkpt lat="43.26539" lon="2.45822">
        <ele>191</ele>
        <time>2019-06-23T06:38:05.000Z</time>
      </trkpt>
      <trkpt lat="43.26537" lon="2.45822">
        <ele>191</ele>
        <time>2019-06-23T06:38:06.000Z</time>
      </trkpt>
      <trkpt lat="43.26535" lon="2.45821">
        <ele>190.9</ele>
        <time>2019-06-23T06:38:07.000Z</time>
      </trkpt>
      <trkpt lat="43.26533" lon="2.45821">
        <ele>190.9</ele>
        <time>2019-06-23T06:38:08.000Z</time>
      </trkpt>
      <trkpt lat="43.26531" lon="2.45821">
        <ele>190.9</ele>
        <time>2019-06-23T06:38:09.000Z</time>
      </trkpt>
      <trkpt lat="43.26528" lon="2.4582">
        <ele>190.9</ele>
        <time>2019-06-23T06:38:10.000Z</time>
      </trkpt>
      <trkpt lat="43.26526" lon="2.4582">
        <ele>190.8</ele>
        <time>2019-06-23T06:38:11.000Z</time>
      </trkpt>
      <trkpt lat="43.26524" lon="2.4582">
        <ele>190.8</ele>
        <time>2019-06-23T06:38:12.000Z</time>
      </trkpt>
      <trkpt lat="43.26522" lon="2.45819">
        <ele>190.8</ele>
        <time>2019-06-23T06:38:13.000Z</time>
      </trkpt>
      <trkpt lat="43.2652" lon="2.45819">
        <ele>190.8</ele>
        <time>2019-06-23T06:38:14.000Z</time>
      </trkpt>
      <trkpt lat="43.26518" lon="2.45818">
        <ele>190.7</ele>
        <time>2019-06-23T06:38:15.000Z</time>
      </trkpt>
      <trkpt lat="43.26515" lon="2.45818">
        <ele>190.7</ele>
        <time>2019-06-23T06:38:16.000Z</time>
      </trkpt>
      <trkpt lat="43.26513" lon="2.45818">
        <ele>190.7</ele>
        <time>2019-06-23T06:38:17.000Z</time>
      </trkpt>
      <trkpt lat="43.26511" lon="2.45817">
        <ele>190.6</ele>
        <time>2019-06-23T06:38:18.000Z</time>
      </trkpt>
      <trkpt lat="43.26509" lon="2.45817">
        <ele>190.6</ele>
        <time>2019-06-23T06:38:19.000Z</time>
      </trkpt>
      <trkpt lat="43.26507" lon="2.45817">
        <ele>190.5</ele>
        <time>2019-06-23T06:38:20.000Z</time>
      </trkpt>
      <trkpt lat="43.26505" lon="2.45817">
        <ele>190.5</ele>
        <time>2019-06-23T06:38:21.000Z</time>
      </trkpt>
      <trkpt lat="43.26504" lon="2.45817">
        <ele>190.5</ele>
        <time>2019-06-23T06:38:22.000Z</time>
      </trkpt>
      <trkpt lat="43.26502" lon="2.45817">
        <ele>190.4</ele>
        <time>2019-06-23T06:38:23.000Z</time>
      </trkpt>
      <trkpt lat="43.265" lon="2.45817">
        <ele>190.4</ele>
        <time>2019-06-23T06:38:24.000Z</time>
      </trkpt>
      <trkpt lat="43.26498" lon="2.45818">
        <ele>190.2</ele>
        <time>2019-06-23T06:38:25.000Z</time>
      </trkpt>
      <trkpt lat="43.26496" lon="2.45819">
        <ele>190</ele>
        <time>2019-06-23T06:38:26.000Z</time>
      </trkpt>
      <trkpt lat="43.26494" lon="2.4582">
        <ele>189.9</ele>
        <time>2019-06-23T06:38:27.000Z</time>
      </trkpt>
      <trkpt lat="43.26491" lon="2.45821">
        <ele>189.7</ele>
        <time>2019-06-23T06:38:28.000Z</time>
      </trkpt>
      <trkpt lat="43.26489" lon="2.45823">
        <ele>189.5</ele>
        <time>2019-06-23T06:38:29.000Z</time>
      </trkpt>
      <trkpt lat="43.26487" lon="2.45825">
        <ele>189.3</ele>
        <time>2019-06-23T06:38:30.000Z</time>
      </trkpt>
      <trkpt lat="43.26485" lon="2.45826">
        <ele>189.1</ele>
        <time>2019-06-23T06:38:31.000Z</time>
      </trkpt>
      <trkpt lat="43.26482" lon="2.45828">
        <ele>188.9</ele>
        <time>2019-06-23T06:38:32.000Z</time>
      </trkpt>
      <trkpt lat="43.2648" lon="2.45829">
        <ele>188.7</ele>
        <time>2019-06-23T06:38:33.000Z</time>
      </trkpt>
      <trkpt lat="43.26478" lon="2.45831">
        <ele>188.5</ele>
        <time>2019-06-23T06:38:34.000Z</time>
      </trkpt>
      <trkpt lat="43.26476" lon="2.45832">
        <ele>188.3</ele>
        <time>2019-06-23T06:38:35.000Z</time>
      </trkpt>
      <trkpt lat="43.26474" lon="2.45833">
        <ele>188.1</ele>
        <time>2019-06-23T06:38:36.000Z</time>
      </trkpt>
      <trkpt lat="43.26472" lon="2.45833">
        <ele>188</ele>
        <time>2019-06-23T06:38:37.000Z</time>
      </trkpt>
      <trkpt lat="43.2647" lon="2.45834">
        <ele>187.8</ele>
        <time>2019-06-23T06:38:38.000Z</time>
      </trkpt>
      <trkpt lat="43.26468" lon="2.45834">
        <ele>187.7</ele>
        <time>2019-06-23T06:38:39.000Z</time>
      </trkpt>
      <trkpt lat="43.26466" lon="2.45835">
        <ele>187.5</ele>
        <time>2019-06-23T06:38:40.000Z</time>
      </trkpt>
      <trkpt lat="43.26464" lon="2.45835">
        <ele>187.3</ele>
        <time>2019-06-23T06:38:41.000Z</time>
      </trkpt>
      <trkpt lat="43.26462" lon="2.45835">
        <ele>187.2</ele>
        <time>2019-06-23T06:38:42.000Z</time>
      </trkpt>
      <trkpt lat="43.26459" lon="2.45835">
        <ele>187</ele>
        <time>2019-06-23T06:38:43.000Z</time>
      </trkpt>
      <trkpt lat="43.26457" lon="2.45836">
        <ele>186.8</ele>
        <time>2019-06-23T06:38:44.000Z</time>
      </trkpt>
      <trkpt lat="43.26454" lon="2.45836">
        <ele>186.6</ele>
        <time>2019-06-23T06:38:45.000Z</time>
      </trkpt>
      <trkpt lat="43.26452" lon="2.45836">
        <ele>186.4</ele>
        <time>2019-06-23T06:38:46.000Z</time>
      </trkpt>
      <trkpt lat="43.26449" lon="2.45836">
        <ele>186.2</ele>
        <time>2019-06-23T06:38:47.000Z</time>
      </trkpt>
      <trkpt lat="43.26446" lon="2.45836">
        <ele>186</ele>
        <time>2019-06-23T06:38:48.000Z</time>
      </trkpt>
      <trkpt lat="43.26444" lon="2.45837">
        <ele>185.8</ele>
        <time>2019-06-23T06:38:49.000Z</time>
      </trkpt>
      <trkpt lat="43.26441" lon="2.45837">
        <ele>185.6</ele>
        <time>2019-06-23T06:38:50.000Z</time>
      </trkpt>
      <trkpt lat="43.26439" lon="2.45837">
        <ele>185.4</ele>
        <time>2019-06-23T06:38:51.000Z</time>
      </trkpt>
      <trkpt lat="43.26436" lon="2.45837">
        <ele>185.2</ele>
        <time>2019-06-23T06:38:52.000Z</time>
      </trkpt>
      <trkpt lat="43.26434" lon="2.45838">
        <ele>185.1</ele>
        <time>2019-06-23T06:38:53.000Z</time>
      </trkpt>
      <trkpt lat="43.26432" lon="2.45838">
        <ele>184.9</ele>
        <time>2019-06-23T06:38:54.000Z</time>
      </trkpt>
      <trkpt lat="43.2643" lon="2.45838">
        <ele>184.7</ele>
        <time>2019-06-23T06:38:55.000Z</time>
      </trkpt>
      <trkpt lat="43.26428" lon="2.45839">
        <ele>184.6</ele>
        <time>2019-06-23T06:38:56.000Z</time>
      </trkpt>
      <trkpt lat="43.26426" lon="2.45839">
        <ele>184.4</ele>
        <time>2019-06-23T06:38:57.000Z</time>
      </trkpt>
      <trkpt lat="43.26424" lon="2.4584">
        <ele>184.3</ele>
        <time>2019-06-23T06:38:58.000Z</time>
      </trkpt>
      <trkpt lat="43.26422" lon="2.4584">
        <ele>184.1</ele>
        <time>2019-06-23T06:38:59.000Z</time>
      </trkpt>
      <trkpt lat="43.26419" lon="2.45841">
        <ele>183.9</ele>
        <time>2019-06-23T06:39:00.000Z</time>
      </trkpt>
      <trkpt lat="43.26417" lon="2.45841">
        <ele>183.8</ele>
        <time>2019-06-23T06:39:01.000Z</time>
      </trkpt>
      <trkpt lat="43.26415" lon="2.45841">
        <ele>183.6</ele>
        <time>2019-06-23T06:39:02.000Z</time>
      </trkpt>
      <trkpt lat="43.26413" lon="2.45842">
        <ele>183.3</ele>
        <time>2019-06-23T06:39:03.000Z</time>
      </trkpt>
      <trkpt lat="43.2641" lon="2.45842">
        <ele>183.1</ele>
        <time>2019-06-23T06:39:04.000Z</time>
      </trkpt>
      <trkpt lat="43.26408" lon="2.45842">
        <ele>182.9</ele>
        <time>2019-06-23T06:39:05.000Z</time>
      </trkpt>
      <trkpt lat="43.26405" lon="2.45842">
        <ele>182.6</ele>
        <time>2019-06-23T06:39:06.000Z</time>
      </trkpt>
      <trkpt lat="43.26403" lon="2.45843">
        <ele>182.3</ele>
        <time>2019-06-23T06:39:07.000Z</time>
      </trkpt>
      <trkpt lat="43.264" lon="2.45843">
        <ele>182.1</ele>
        <time>2019-06-23T06:39:08.000Z</time>
      </trkpt>
      <trkpt lat="43.26397" lon="2.45843">
        <ele>181.8</ele>
        <time>2019-06-23T06:39:09.000Z</time>
      </trkpt>
      <trkpt lat="43.26394" lon="2.45842">
        <ele>181.5</ele>
        <time>2019-06-23T06:39:10.000Z</time>
      </trkpt>
      <trkpt lat="43.26391" lon="2.45842">
        <ele>181.3</ele>
        <time>2019-06-23T06:39:11.000Z</time>
      </trkpt>
      <trkpt lat="43.26388" lon="2.45841">
        <ele>181</ele>
        <time>2019-06-23T06:39:12.000Z</time>
      </trkpt>
      <trkpt lat="43.26385" lon="2.4584">
        <ele>180.7</ele>
        <time>2019-06-23T06:39:13.000Z</time>
      </trkpt>
      <trkpt lat="43.26382" lon="2.4584">
        <ele>180.5</ele>
        <time>2019-06-23T06:39:14.000Z</time>
      </trkpt>
      <trkpt lat="43.26379" lon="2.45838">
        <ele>180.3</ele>
        <time>2019-06-23T06:39:15.000Z</time>
      </trkpt>
      <trkpt lat="43.26376" lon="2.45837">
        <ele>180</ele>
        <time>2019-06-23T06:39:16.000Z</time>
      </trkpt>
      <trkpt lat="43.26374" lon="2.45836">
        <ele>179.8</ele>
        <time>2019-06-23T06:39:17.000Z</time>
      </trkpt>
      <trkpt lat="43.26371" lon="2.45835">
        <ele>179.6</ele>
        <time>2019-06-23T06:39:18.000Z</time>
      </trkpt>
      <trkpt lat="43.26369" lon="2.45834">
        <ele>179.4</ele>
        <time>2019-06-23T06:39:19.000Z</time>
      </trkpt>
      <trkpt lat="43.26366" lon="2.45832">
        <ele>179.2</ele>
        <time>2019-06-23T06:39:20.000Z</time>
      </trkpt>
      <trkpt lat="43.26364" lon="2.45831">
        <ele>179</ele>
        <time>2019-06-23T06:39:21.000Z</time>
      </trkpt>
      <trkpt lat="43.26361" lon="2.4583">
        <ele>178.8</ele>
        <time>2019-06-23T06:39:22.000Z</time>
      </trkpt>
      <trkpt lat="43.26359" lon="2.45829">
        <ele>178.6</ele>
        <time>2019-06-23T06:39:23.000Z</time>
      </trkpt>
      <trkpt lat="43.26357" lon="2.45828">
        <ele>178.4</ele>
        <time>2019-06-23T06:39:24.000Z</time>
      </trkpt>
      <trkpt lat="43.26354" lon="2.45828">
        <ele>178.2</ele>
        <time>2019-06-23T06:39:25.000Z</time>
      </trkpt>
      <trkpt lat="43.26352" lon="2.45827">
        <ele>178.1</ele>
        <time>2019-06-23T06:39:26.000Z</time>
      </trkpt>
      <trkpt lat="43.26349" lon="2.45826">
        <ele>177.9</ele>
        <time>2019-06-23T06:39:27.000Z</time>
      </trkpt>
      <trkpt lat="43.26347" lon="2.45826">
        <ele>177.7</ele>
        <time>2019-06-23T06:39:28.000Z</time>
      </trkpt>
      <trkpt lat="43.26345" lon="2.45825">
        <ele>177.5</ele>
        <time>2019-06-23T06:39:29.000Z</time>
      </trkpt>
      <trkpt lat="43.26342" lon="2.45825">
        <ele>177.2</ele>
        <time>2019-06-23T06:39:30.000Z</time>
      </trkpt>
      <trkpt lat="43.2634" lon="2.45825">
        <ele>177</ele>
        <time>2019-06-23T06:39:31.000Z</time>
      </trkpt>
      <trkpt lat="43.26338" lon="2.45825">
        <ele>176.8</ele>
        <time>2019-06-23T06:39:32.000Z</time>
      </trkpt>
      <trkpt lat="43.26335" lon="2.45825">
        <ele>176.6</ele>
        <time>2019-06-23T06:39:33.000Z</time>
      </trkpt>
      <trkpt lat="43.26333" lon="2.45825">
        <ele>176.4</ele>
        <time>2019-06-23T06:39:34.000Z</time>
      </trkpt>
      <trkpt lat="43.26331" lon="2.45825">
        <ele>176.3</ele>
        <time>2019-06-23T06:39:35.000Z</time>
      </trkpt>
      <trkpt lat="43.26328" lon="2.45825">
        <ele>176.1</ele>
        <time>2019-06-23T06:39:36.000Z</time>
      </trkpt>
      <trkpt lat="43.26326" lon="2.45826">
        <ele>176</ele>
        <time>2019-06-23T06:39:37.000Z</time>
      </trkpt>
      <trkpt lat="43.26324" lon="2.45827">
        <ele>175.8</ele>
        <time>2019-06-23T06:39:38.000Z</time>
      </trkpt>
      <trkpt lat="43.26322" lon="2.45827">
        <ele>175.7</ele>
        <time>2019-06-23T06:39:39.000Z</time>
      </trkpt>
      <trkpt lat="43.26319" lon="2.45828">
        <ele>175.6</ele>
        <time>2019-06-23T06:39:40.000Z</time>
      </trkpt>
      <trkpt lat="43.26317" lon="2.45829">
        <ele>175.4</ele>
        <time>2019-06-23T06:39:41.000Z</time>
      </trkpt>
      <trkpt lat="43.26315" lon="2.4583">
        <ele>175.3</ele>
        <time>2019-06-23T06:39:42.000Z</time>
      </trkpt>
      <trkpt lat="43.26313" lon="2.4583">
        <ele>175.1</ele>
        <time>2019-06-23T06:39:43.000Z</time>
      </trkpt>
      <trkpt lat="43.26311" lon="2.45831">
        <ele>175</ele>
        <time>2019-06-23T06:39:44.000Z</time>
      </trkpt>
      <trkpt lat="43.26308" lon="2.45832">
        <ele>174.8</ele>
        <time>2019-06-23T06:39:45.000Z</time>
      </trkpt>
      <trkpt lat="43.26306" lon="2.45833">
        <ele>174.7</ele>
        <time>2019-06-23T06:39:46.000Z</time>
      </trkpt>
      <trkpt lat="43.26304" lon="2.45834">
        <ele>174.6</ele>
        <time>2019-06-23T06:39:47.000Z</time>
      </trkpt>
      <trkpt lat="43.26302" lon="2.45834">
        <ele>174.5</ele>
        <time>2019-06-23T06:39:48.000Z</time>
      </trkpt>
      <trkpt lat="43.263" lon="2.45835">
        <ele>174.4</ele>
        <time>2019-06-23T06:39:49.000Z</time>
      </trkpt>
      <trkpt lat="43.26298" lon="2.45835">
        <ele>174.3</ele>
        <time>2019-06-23T06:39:50.000Z</time>
      </trkpt>
      <trkpt lat="43.26296" lon="2.45835">
        <ele>174.2</ele>
        <time>2019-06-23T06:39:51.000Z</time>
      </trkpt>
      <trkpt lat="43.26294" lon="2.45836">
        <ele>174.1</ele>
        <time>2019-06-23T06:39:52.000Z</time>
      </trkpt>
      <trkpt lat="43.26292" lon="2.45836">
        <ele>174</ele>
        <time>2019-06-23T06:39:53.000Z</time>
      </trkpt>
      <trkpt lat="43.2629" lon="2.45837">
        <ele>173.9</ele>
        <time>2019-06-23T06:39:54.000Z</time>
      </trkpt>
      <trkpt lat="43.26289" lon="2.45837">
        <ele>173.8</ele>
        <time>2019-06-23T06:39:55.000Z</time>
      </trkpt>
      <trkpt lat="43.26287" lon="2.45838">
        <ele>173.7</ele>
        <time>2019-06-23T06:39:56.000Z</time>
      </trkpt>
      <trkpt lat="43.26284" lon="2.45839">
        <ele>173.6</ele>
        <time>2019-06-23T06:39:57.000Z</time>
      </trkpt>
      <trkpt lat="43.26282" lon="2.4584">
        <ele>173.5</ele>
        <time>2019-06-23T06:39:58.000Z</time>
      </trkpt>
      <trkpt lat="43.2628" lon="2.45841">
        <ele>173.4</ele>
        <time>2019-06-23T06:39:59.000Z</time>
      </trkpt>
      <trkpt lat="43.26278" lon="2.45842">
        <ele>173.2</ele>
        <time>2019-06-23T06:40:00.000Z</time>
      </trkpt>
      <trkpt lat="43.26276" lon="2.45843">
        <ele>173.1</ele>
        <time>2019-06-23T06:40:01.000Z</time>
      </trkpt>
      <trkpt lat="43.26273" lon="2.45843">
        <ele>173</ele>
        <time>2019-06-23T06:40:02.000Z</time>
      </trkpt>
      <trkpt lat="43.26271" lon="2.45844">
        <ele>172.9</ele>
        <time>2019-06-23T06:40:03.000Z</time>
      </trkpt>
      <trkpt lat="43.26268" lon="2.45845">
        <ele>172.7</ele>
        <time>2019-06-23T06:40:04.000Z</time>
      </trkpt>
      <trkpt lat="43.26266" lon="2.45845">
        <ele>172.6</ele>
        <time>2019-06-23T06:40:05.000Z</time>
      </trkpt>
      <trkpt lat="43.26263" lon="2.45846">
        <ele>172.5</ele>
        <time>2019-06-23T06:40:06.000Z</time>
      </trkpt>
      <trkpt lat="43.26261" lon="2.45846">
        <ele>172.3</ele>
        <time>2019-06-23T06:40:07.000Z</time>
      </trkpt>
      <trkpt lat="43.26258" lon="2.45847">
        <ele>172.2</ele>
        <time>2019-06-23T06:40:08.000Z</time>
      </trkpt>
      <trkpt lat="43.26255" lon="2.45847">
        <ele>172.1</ele>
        <time>2019-06-23T06:40:09.000Z</time>
      </trkpt>
      <trkpt lat="43.26253" lon="2.45848">
        <ele>172</ele>
        <time>2019-06-23T06:40:10.000Z</time>
      </trkpt>
      <trkpt lat="43.2625" lon="2.45848">
        <ele>171.8</ele>
        <time>2019-06-23T06:40:11.000Z</time>
      </trkpt>
      <trkpt lat="43.26248" lon="2.45849">
        <ele>171.7</ele>
        <time>2019-06-23T06:40:12.000Z</time>
      </trkpt>
      <trkpt lat="43.26245" lon="2.45849">
        <ele>171.5</ele>
        <time>2019-06-23T06:40:13.000Z</time>
      </trkpt>
      <trkpt lat="43.26243" lon="2.45849">
        <ele>171.3</ele>
        <time>2019-06-23T06:40:14.000Z</time>
      </trkpt>
      <trkpt lat="43.26241" lon="2.45849">
        <ele>171.2</ele>
        <time>2019-06-23T06:40:15.000Z</time>
      </trkpt>
      <trkpt lat="43.26239" lon="2.45849">
        <ele>171</ele>
        <time>2019-06-23T06:40:16.000Z</time>
      </trkpt>
      <trkpt lat="43.26237" lon="2.45849">
        <ele>170.9</ele>
        <time>2019-06-23T06:40:17.000Z</time>
      </trkpt>
      <trkpt lat="43.26235" lon="2.45849">
        <ele>170.7</ele>
        <time>2019-06-23T06:40:18.000Z</time>
      </trkpt>
      <trkpt lat="43.26232" lon="2.45849">
        <ele>170.5</ele>
        <time>2019-06-23T06:40:19.000Z</time>
      </trkpt>
      <trkpt lat="43.2623" lon="2.45849">
        <ele>170.4</ele>
        <time>2019-06-23T06:40:20.000Z</time>
      </trkpt>
      <trkpt lat="43.26228" lon="2.45849">
        <ele>170.2</ele>
        <time>2019-06-23T06:40:21.000Z</time>
      </trkpt>
      <trkpt lat="43.26225" lon="2.45849">
        <ele>170</ele>
        <time>2019-06-23T06:40:22.000Z</time>
      </trkpt>
      <trkpt lat="43.26222" lon="2.4585">
        <ele>169.8</ele>
        <time>2019-06-23T06:40:23.000Z</time>
      </trkpt>
      <trkpt lat="43.26219" lon="2.4585">
        <ele>169.6</ele>
        <time>2019-06-23T06:40:24.000Z</time>
      </trkpt>
      <trkpt lat="43.26216" lon="2.4585">
        <ele>169.4</ele>
        <time>2019-06-23T06:40:25.000Z</time>
      </trkpt>
      <trkpt lat="43.26214" lon="2.4585">
        <ele>169.2</ele>
        <time>2019-06-23T06:40:26.000Z</time>
      </trkpt>
      <trkpt lat="43.26211" lon="2.45849">
        <ele>169</ele>
        <time>2019-06-23T06:40:27.000Z</time>
      </trkpt>
      <trkpt lat="43.26208" lon="2.45849">
        <ele>168.8</ele>
        <time>2019-06-23T06:40:28.000Z</time>
      </trkpt>
      <trkpt lat="43.26206" lon="2.45848">
        <ele>168.6</ele>
        <time>2019-06-23T06:40:29.000Z</time>
      </trkpt>
      <trkpt lat="43.26203" lon="2.45848">
        <ele>168.5</ele>
        <time>2019-06-23T06:40:30.000Z</time>
      </trkpt>
      <trkpt lat="43.26201" lon="2.45848">
        <ele>168.3</ele>
        <time>2019-06-23T06:40:31.000Z</time>
      </trkpt>
      <trkpt lat="43.26198" lon="2.45848">
        <ele>168.1</ele>
        <time>2019-06-23T06:40:32.000Z</time>
      </trkpt>
      <trkpt lat="43.26196" lon="2.45849">
        <ele>167.9</ele>
        <time>2019-06-23T06:40:33.000Z</time>
      </trkpt>
      <trkpt lat="43.26193" lon="2.45849">
        <ele>167.7</ele>
        <time>2019-06-23T06:40:34.000Z</time>
      </trkpt>
      <trkpt lat="43.26191" lon="2.4585">
        <ele>167.6</ele>
        <time>2019-06-23T06:40:35.000Z</time>
      </trkpt>
      <trkpt lat="43.26188" lon="2.4585">
        <ele>167.4</ele>
        <time>2019-06-23T06:40:36.000Z</time>
      </trkpt>
      <trkpt lat="43.26186" lon="2.45851">
        <ele>167.2</ele>
        <time>2019-06-23T06:40:37.000Z</time>
      </trkpt>
      <trkpt lat="43.26184" lon="2.45851">
        <ele>167</ele>
        <time>2019-06-23T06:40:38.000Z</time>
      </trkpt>
      <trkpt lat="43.26181" lon="2.45852">
        <ele>166.8</ele>
        <time>2019-06-23T06:40:39.000Z</time>
      </trkpt>
      <trkpt lat="43.26179" lon="2.45852">
        <ele>166.6</ele>
        <time>2019-06-23T06:40:40.000Z</time>
      </trkpt>
      <trkpt lat="43.26176" lon="2.45853">
        <ele>166.4</ele>
        <time>2019-06-23T06:40:41.000Z</time>
      </trkpt>
      <trkpt lat="43.26174" lon="2.45853">
        <ele>166.3</ele>
        <time>2019-06-23T06:40:42.000Z</time>
      </trkpt>
      <trkpt lat="43.26171" lon="2.45854">
        <ele>166.1</ele>
        <time>2019-06-23T06:40:43.000Z</time>
      </trkpt>
      <trkpt lat="43.26169" lon="2.45854">
        <ele>165.9</ele>
        <time>2019-06-23T06:40:44.000Z</time>
      </trkpt>
      <trkpt lat="43.26166" lon="2.45855">
        <ele>165.7</ele>
        <time>2019-06-23T06:40:45.000Z</time>
      </trkpt>
      <trkpt lat="43.26164" lon="2.45855">
        <ele>165.6</ele>
        <time>2019-06-23T06:40:46.000Z</time>
      </trkpt>
      <trkpt lat="43.26162" lon="2.45856">
        <ele>165.5</ele>
        <time>2019-06-23T06:40:47.000Z</time>
      </trkpt>
      <trkpt lat="43.2616" lon="2.45856">
        <ele>165.4</ele>
        <time>2019-06-23T06:40:48.000Z</time>
      </trkpt>
      <trkpt lat="43.26157" lon="2.45856">
        <ele>165.2</ele>
        <time>2019-06-23T06:40:49.000Z</time>
      </trkpt>
      <trkpt lat="43.26155" lon="2.45856">
        <ele>165.1</ele>
        <time>2019-06-23T06:40:50.000Z</time>
      </trkpt>
      <trkpt lat="43.26153" lon="2.45856">
        <ele>165</ele>
        <time>2019-06-23T06:40:51.000Z</time>
      </trkpt>
      <trkpt lat="43.26152" lon="2.45856">
        <ele>164.9</ele>
        <time>2019-06-23T06:40:52.000Z</time>
      </trkpt>
      <trkpt lat="43.2615" lon="2.45856">
        <ele>164.8</ele>
        <time>2019-06-23T06:40:53.000Z</time>
      </trkpt>
      <trkpt lat="43.26148" lon="2.45856">
        <ele>164.7</ele>
        <time>2019-06-23T06:40:54.000Z</time>
      </trkpt>
      <trkpt lat="43.26146" lon="2.45856">
        <ele>164.6</ele>
        <time>2019-06-23T06:40:55.000Z</time>
      </trkpt>
      <trkpt lat="43.26144" lon="2.45856">
        <ele>164.5</ele>
        <time>2019-06-23T06:40:56.000Z</time>
      </trkpt>
      <trkpt lat="43.26142" lon="2.45855">
        <ele>164.4</ele>
        <time>2019-06-23T06:40:57.000Z</time>
      </trkpt>
      <trkpt lat="43.2614" lon="2.45855">
        <ele>164.3</ele>
        <time>2019-06-23T06:40:58.000Z</time>
      </trkpt>
      <trkpt lat="43.26138" lon="2.45855">
        <ele>164.2</ele>
        <time>2019-06-23T06:40:59.000Z</time>
      </trkpt>
      <trkpt lat="43.26136" lon="2.45855">
        <ele>164.1</ele>
        <time>2019-06-23T06:41:00.000Z</time>
      </trkpt>
      <trkpt lat="43.26133" lon="2.45856">
        <ele>163.9</ele>
        <time>2019-06-23T06:41:01.000Z</time>
      </trkpt>
      <trkpt lat="43.26131" lon="2.45857">
        <ele>163.8</ele>
        <time>2019-06-23T06:41:02.000Z</time>
      </trkpt>
      <trkpt lat="43.26129" lon="2.45858">
        <ele>163.7</ele>
        <time>2019-06-23T06:41:03.000Z</time>
      </trkpt>
      <trkpt lat="43.26127" lon="2.45859">
        <ele>163.6</ele>
        <time>2019-06-23T06:41:04.000Z</time>
      </trkpt>
      <trkpt lat="43.26126" lon="2.45861">
        <ele>163.6</ele>
        <time>2019-06-23T06:41:05.000Z</time>
      </trkpt>
      <trkpt lat="43.26125" lon="2.45862">
        <ele>163.5</ele>
        <time>2019-06-23T06:41:06.000Z</time>
      </trkpt>
      <trkpt lat="43.26124" lon="2.45863">
        <ele>163.5</ele>
        <time>2019-06-23T06:41:07.000Z</time>
      </trkpt>
      <trkpt lat="43.26124" lon="2.45864">
        <ele>163.4</ele>
        <time>2019-06-23T06:41:08.000Z</time>
      </trkpt>
      <trkpt lat="43.26123" lon="2.45866">
        <ele>163.4</ele>
        <time>2019-06-23T06:41:09.000Z</time>
      </trkpt>
      <trkpt lat="43.26123" lon="2.45867">
        <ele>163.4</ele>
        <time>2019-06-23T06:41:10.000Z</time>
      </trkpt>
      <trkpt lat="43.26123" lon="2.45868">
        <ele>163.4</ele>
        <time>2019-06-23T06:41:11.000Z</time>
      </trkpt>
      <trkpt lat="43.26123" lon="2.45868">
        <ele>163.4</ele>
        <time>2019-06-23T06:41:12.000Z</time>
      </trkpt>
      <trkpt lat="43.26123" lon="2.45869">
        <ele>163.4</ele>
        <time>2019-06-23T06:41:13.000Z</time>
      </trkpt>
      <trkpt lat="43.26124" lon="2.45869">
        <ele>163.4</ele>
        <time>2019-06-23T06:41:14.000Z</time>
      </trkpt>
      <trkpt lat="43.26124" lon="2.45869">
        <ele>163.4</ele>
        <time>2019-06-23T06:41:15.000Z</time>
      </trkpt>
      <trkpt lat="43.26124" lon="2.45869">
        <ele>163.5</ele>
        <time>2019-06-23T06:41:16.000Z</time>
      </trkpt>
      <trkpt lat="43.26124" lon="2.45868">
        <ele>163.5</ele>
        <time>2019-06-23T06:41:17.000Z</time>
      </trkpt>
      <trkpt lat="43.26124" lon="2.45867">
        <ele>163.5</ele>
        <time>2019-06-23T06:41:18.000Z</time>
      </trkpt>
      <trkpt lat="43.26124" lon="2.45867">
        <ele>163.5</ele>
        <time>2019-06-23T06:41:19.000Z</time>
      </trkpt>
      <trkpt lat="43.26124" lon="2.45866">
        <ele>163.4</ele>
        <time>2019-06-23T06:41:20.000Z</time>
      </trkpt>
      <trkpt lat="43.26124" lon="2.45865">
        <ele>163.4</ele>
        <time>2019-06-23T06:41:21.000Z</time>
      </trkpt>
      <trkpt lat="43.26123" lon="2.45865">
        <ele>163.4</ele>
        <time>2019-06-23T06:41:22.000Z</time>
      </trkpt>
      <trkpt lat="43.26123" lon="2.45865">
        <ele>163.4</ele>
        <time>2019-06-23T06:41:23.000Z</time>
      </trkpt>
      <trkpt lat="43.26122" lon="2.45866">
        <ele>163.4</ele>
        <time>2019-06-23T06:41:24.000Z</time>
      </trkpt>
      <trkpt lat="43.26122" lon="2.45866">
        <ele>163.4</ele>
        <time>2019-06-23T06:41:25.000Z</time>
      </trkpt>
      <trkpt lat="43.26122" lon="2.45867">
        <ele>163.4</ele>
        <time>2019-06-23T06:41:26.000Z</time>
      </trkpt>
      <trkpt lat="43.26122" lon="2.45868">
        <ele>163.4</ele>
        <time>2019-06-23T06:41:27.000Z</time>
      </trkpt>
      <trkpt lat="43.26123" lon="2.45869">
        <ele>163.4</ele>
        <time>2019-06-23T06:41:28.000Z</time>
      </trkpt>
      <trkpt lat="43.26123" lon="2.4587">
        <ele>163.4</ele>
        <time>2019-06-23T06:41:29.000Z</time>
      </trkpt>
      <trkpt lat="43.26123" lon="2.45871">
        <ele>163.4</ele>
        <time>2019-06-23T06:41:30.000Z</time>
      </trkpt>
      <trkpt lat="43.26123" lon="2.45872">
        <ele>163.4</ele>
        <time>2019-06-23T06:41:31.000Z</time>
      </trkpt>
      <trkpt lat="43.26123" lon="2.45873">
        <ele>163.4</ele>
        <time>2019-06-23T06:41:32.000Z</time>
      </trkpt>
      <trkpt lat="43.26123" lon="2.45874">
        <ele>163.4</ele>
        <time>2019-06-23T06:41:33.000Z</time>
      </trkpt>
      <trkpt lat="43.26123" lon="2.45875">
        <ele>163.4</ele>
        <time>2019-06-23T06:41:34.000Z</time>
      </trkpt>
      <trkpt lat="43.26123" lon="2.45876">
        <ele>163.4</ele>
        <time>2019-06-23T06:41:35.000Z</time>
      </trkpt>
      <trkpt lat="43.26123" lon="2.45877">
        <ele>163.4</ele>
        <time>2019-06-23T06:41:36.000Z</time>
      </trkpt>
      <trkpt lat="43.26123" lon="2.45878">
        <ele>163.4</ele>
        <time>2019-06-23T06:41:37.000Z</time>
      </trkpt>
      <trkpt lat="43.26123" lon="2.4588">
        <ele>163.4</ele>
        <time>2019-06-23T06:41:38.000Z</time>
      </trkpt>
      <trkpt lat="43.26123" lon="2.45881">
        <ele>163.4</ele>
        <time>2019-06-23T06:41:39.000Z</time>
      </trkpt>
      <trkpt lat="43.26123" lon="2.45882">
        <ele>163.4</ele>
        <time>2019-06-23T06:41:40.000Z</time>
      </trkpt>
      <trkpt lat="43.26123" lon="2.45884">
        <ele>163.4</ele>
        <time>2019-06-23T06:41:41.000Z</time>
      </trkpt>
      <trkpt lat="43.26123" lon="2.45885">
        <ele>163.4</ele>
        <time>2019-06-23T06:41:42.000Z</time>
      </trkpt>
      <trkpt lat="43.26123" lon="2.45887">
        <ele>163.4</ele>
        <time>2019-06-23T06:41:43.000Z</time>
      </trkpt>
      <trkpt lat="43.26123" lon="2.45888">
        <ele>163.4</ele>
        <time>2019-06-23T06:41:44.000Z</time>
      </trkpt>
      <trkpt lat="43.26123" lon="2.4589">
        <ele>163.4</ele>
        <time>2019-06-23T06:41:45.000Z</time>
      </trkpt>
      <trkpt lat="43.26122" lon="2.45891">
        <ele>163.4</ele>
        <time>2019-06-23T06:41:46.000Z</time>
      </trkpt>
      <trkpt lat="43.26122" lon="2.45893">
        <ele>163.4</ele>
        <time>2019-06-23T06:41:47.000Z</time>
      </trkpt>
      <trkpt lat="43.26122" lon="2.45895">
        <ele>163.4</ele>
        <time>2019-06-23T06:41:48.000Z</time>
      </trkpt>
      <trkpt lat="43.26122" lon="2.45896">
        <ele>163.4</ele>
        <time>2019-06-23T06:41:49.000Z</time>
      </trkpt>
      <trkpt lat="43.26122" lon="2.45898">
        <ele>163.4</ele>
        <time>2019-06-23T06:41:50.000Z</time>
      </trkpt>
      <trkpt lat="43.26122" lon="2.459">
        <ele>163.4</ele>
        <time>2019-06-23T06:41:51.000Z</time>
      </trkpt>
      <trkpt lat="43.26122" lon="2.45901">
        <ele>163.4</ele>
        <time>2019-06-23T06:41:52.000Z</time>
      </trkpt>
      <trkpt lat="43.26122" lon="2.45903">
        <ele>163.4</ele>
        <time>2019-06-23T06:41:53.000Z</time>
      </trkpt>
      <trkpt lat="43.26122" lon="2.45905">
        <ele>163.4</ele>
        <time>2019-06-23T06:41:54.000Z</time>
      </trkpt>
      <trkpt lat="43.26122" lon="2.45906">
        <ele>163.4</ele>
        <time>2019-06-23T06:41:55.000Z</time>
      </trkpt>
      <trkpt lat="43.26122" lon="2.45908">
        <ele>163.4</ele>
        <time>2019-06-23T06:41:56.000Z</time>
      </trkpt>
      <trkpt lat="43.26122" lon="2.45909">
        <ele>163.4</ele>
        <time>2019-06-23T06:41:57.000Z</time>
      </trkpt>
      <trkpt lat="43.26122" lon="2.4591">
        <ele>163.4</ele>
        <time>2019-06-23T06:41:58.000Z</time>
      </trkpt>
      <trkpt lat="43.26122" lon="2.45912">
        <ele>163.4</ele>
        <time>2019-06-23T06:41:59.000Z</time>
      </trkpt>
      <trkpt lat="43.26122" lon="2.45913">
        <ele>163.4</ele>
        <time>2019-06-23T06:42:00.000Z</time>
      </trkpt>
      <trkpt lat="43.26122" lon="2.45915">
        <ele>163.4</ele>
        <time>2019-06-23T06:42:01.000Z</time>
      </trkpt>
      <trkpt lat="43.26122" lon="2.45916">
        <ele>163.4</ele>
        <time>2019-06-23T06:42:02.000Z</time>
      </trkpt>
      <trkpt lat="43.26122" lon="2.45917">
        <ele>163.4</ele>
        <time>2019-06-23T06:42:03.000Z</time>
      </trkpt>
      <trkpt lat="43.26123" lon="2.45919">
        <ele>163.5</ele>
        <time>2019-06-23T06:42:04.000Z</time>
      </trkpt>
      <trkpt lat="43.26123" lon="2.4592">
        <ele>163.6</ele>
        <time>2019-06-23T06:42:05.000Z</time>
      </trkpt>
      <trkpt lat="43.26123" lon="2.45922">
        <ele>163.7</ele>
        <time>2019-06-23T06:42:06.000Z</time>
      </trkpt>
      <trkpt lat="43.26123" lon="2.45923">
        <ele>163.8</ele>
        <time>2019-06-23T06:42:07.000Z</time>
      </trkpt>
      <trkpt lat="43.26124" lon="2.45925">
        <ele>163.9</ele>
        <time>2019-06-23T06:42:08.000Z</time>
      </trkpt>
      <trkpt lat="43.26124" lon="2.45926">
        <ele>164.1</ele>
        <time>2019-06-23T06:42:09.000Z</time>
      </trkpt>
      <trkpt lat="43.26125" lon="2.45928">
        <ele>164.2</ele>
        <time>2019-06-23T06:42:10.000Z</time>
      </trkpt>
      <trkpt lat="43.26125" lon="2.4593">
        <ele>164.3</ele>
        <time>2019-06-23T06:42:11.000Z</time>
      </trkpt>
      <trkpt lat="43.26126" lon="2.45931">
        <ele>164.4</ele>
        <time>2019-06-23T06:42:12.000Z</time>
      </trkpt>
      <trkpt lat="43.26127" lon="2.45933">
        <ele>164.5</ele>
        <time>2019-06-23T06:42:13.000Z</time>
      </trkpt>
      <trkpt lat="43.26127" lon="2.45935">
        <ele>164.6</ele>
        <time>2019-06-23T06:42:14.000Z</time>
      </trkpt>
      <trkpt lat="43.26128" lon="2.45937">
        <ele>164.8</ele>
        <time>2019-06-23T06:42:15.000Z</time>
      </trkpt>
      <trkpt lat="43.26128" lon="2.45939">
        <ele>164.9</ele>
        <time>2019-06-23T06:42:16.000Z</time>
      </trkpt>
      <trkpt lat="43.26129" lon="2.45941">
        <ele>165</ele>
        <time>2019-06-23T06:42:17.000Z</time>
      </trkpt>
      <trkpt lat="43.2613" lon="2.45943">
        <ele>165.2</ele>
        <time>2019-06-23T06:42:18.000Z</time>
      </trkpt>
      <trkpt lat="43.2613" lon="2.45945">
        <ele>165.3</ele>
        <time>2019-06-23T06:42:19.000Z</time>
      </trkpt>
      <trkpt lat="43.26131" lon="2.45947">
        <ele>165.4</ele>
        <time>2019-06-23T06:42:20.000Z</time>
      </trkpt>
      <trkpt lat="43.26131" lon="2.4595">
        <ele>165.6</ele>
        <time>2019-06-23T06:42:21.000Z</time>
      </trkpt>
      <trkpt lat="43.26132" lon="2.45952">
        <ele>165.7</ele>
        <time>2019-06-23T06:42:22.000Z</time>
      </trkpt>
      <trkpt lat="43.26132" lon="2.45955">
        <ele>165.9</ele>
        <time>2019-06-23T06:42:23.000Z</time>
      </trkpt>
      <trkpt lat="43.26132" lon="2.45957">
        <ele>166</ele>
        <time>2019-06-23T06:42:24.000Z</time>
      </trkpt>
      <trkpt lat="43.26133" lon="2.4596">
        <ele>166.2</ele>
        <time>2019-06-23T06:42:25.000Z</time>
      </trkpt>
      <trkpt lat="43.26133" lon="2.45963">
        <ele>166.3</ele>
        <time>2019-06-23T06:42:26.000Z</time>
      </trkpt>
      <trkpt lat="43.26133" lon="2.45966">
        <ele>166.5</ele>
        <time>2019-06-23T06:42:27.000Z</time>
      </trkpt>
      <trkpt lat="43.26132" lon="2.45969">
        <ele>166.7</ele>
        <time>2019-06-23T06:42:28.000Z</time>
      </trkpt>
      <trkpt lat="43.26132" lon="2.45972">
        <ele>166.8</ele>
        <time>2019-06-23T06:42:29.000Z</time>
      </trkpt>
      <trkpt lat="43.26132" lon="2.45975">
        <ele>167</ele>
        <time>2019-06-23T06:42:30.000Z</time>
      </trkpt>
      <trkpt lat="43.26131" lon="2.45978">
        <ele>167.2</ele>
        <time>2019-06-23T06:42:31.000Z</time>
      </trkpt>
      <trkpt lat="43.26131" lon="2.4598">
        <ele>167.3</ele>
        <time>2019-06-23T06:42:32.000Z</time>
      </trkpt>
      <trkpt lat="43.2613" lon="2.45983">
        <ele>167.5</ele>
        <time>2019-06-23T06:42:33.000Z</time>
      </trkpt>
      <trkpt lat="43.26129" lon="2.45986">
        <ele>167.6</ele>
        <time>2019-06-23T06:42:34.000Z</time>
      </trkpt>
      <trkpt lat="43.26128" lon="2.45988">
        <ele>167.8</ele>
        <time>2019-06-23T06:42:35.000Z</time>
      </trkpt>
      <trkpt lat="43.26127" lon="2.4599">
        <ele>167.9</ele>
        <time>2019-06-23T06:42:36.000Z</time>
      </trkpt>
      <trkpt lat="43.26126" lon="2.45993">
        <ele>168</ele>
        <time>2019-06-23T06:42:37.000Z</time>
      </trkpt>
      <trkpt lat="43.26125" lon="2.45995">
        <ele>168.2</ele>
        <time>2019-06-23T06:42:38.000Z</time>
      </trkpt>
      <trkpt lat="43.26124" lon="2.45997">
        <ele>168.3</ele>
        <time>2019-06-23T06:42:39.000Z</time>
      </trkpt>
      <trkpt lat="43.26123" lon="2.45998">
        <ele>168.4</ele>
        <time>2019-06-23T06:42:40.000Z</time>
      </trkpt>
      <trkpt lat="43.26122" lon="2.46">
        <ele>168.6</ele>
        <time>2019-06-23T06:42:41.000Z</time>
      </trkpt>
      <trkpt lat="43.26121" lon="2.46002">
        <ele>168.8</ele>
        <time>2019-06-23T06:42:42.000Z</time>
      </trkpt>
      <trkpt lat="43.26121" lon="2.46003">
        <ele>169</ele>
        <time>2019-06-23T06:42:43.000Z</time>
      </trkpt>
      <trkpt lat="43.26121" lon="2.46004">
        <ele>169.2</ele>
        <time>2019-06-23T06:42:44.000Z</time>
      </trkpt>
      <trkpt lat="43.2612" lon="2.46006">
        <ele>169.3</ele>
        <time>2019-06-23T06:42:45.000Z</time>
      </trkpt>
      <trkpt lat="43.26121" lon="2.46007">
        <ele>169.4</ele>
        <time>2019-06-23T06:42:46.000Z</time>
      </trkpt>
      <trkpt lat="43.26121" lon="2.46008">
        <ele>169.6</ele>
        <time>2019-06-23T06:42:47.000Z</time>
      </trkpt>
      <trkpt lat="43.26121" lon="2.46009">
        <ele>169.7</ele>
        <time>2019-06-23T06:42:48.000Z</time>
      </trkpt>
      <trkpt lat="43.2612" lon="2.4601">
        <ele>169.9</ele>
        <time>2019-06-23T06:42:49.000Z</time>
      </trkpt>
      <trkpt lat="43.2612" lon="2.46012">
        <ele>170.2</ele>
        <time>2019-06-23T06:42:50.000Z</time>
      </trkpt>
      <trkpt lat="43.2612" lon="2.46013">
        <ele>170.4</ele>
        <time>2019-06-23T06:42:51.000Z</time>
      </trkpt>
      <trkpt lat="43.26119" lon="2.46015">
        <ele>170.7</ele>
        <time>2019-06-23T06:42:52.000Z</time>
      </trkpt>
      <trkpt lat="43.26118" lon="2.46018">
        <ele>171</ele>
        <time>2019-06-23T06:42:53.000Z</time>
      </trkpt>
      <trkpt lat="43.26118" lon="2.4602">
        <ele>171.3</ele>
        <time>2019-06-23T06:42:54.000Z</time>
      </trkpt>
      <trkpt lat="43.26117" lon="2.46022">
        <ele>171.7</ele>
        <time>2019-06-23T06:42:55.000Z</time>
      </trkpt>
      <trkpt lat="43.26116" lon="2.46025">
        <ele>172</ele>
        <time>2019-06-23T06:42:56.000Z</time>
      </trkpt>
      <trkpt lat="43.26116" lon="2.46028">
        <ele>172.4</ele>
        <time>2019-06-23T06:42:57.000Z</time>
      </trkpt>
      <trkpt lat="43.26115" lon="2.46031">
        <ele>172.9</ele>
        <time>2019-06-23T06:42:58.000Z</time>
      </trkpt>
      <trkpt lat="43.26115" lon="2.46034">
        <ele>173.3</ele>
        <time>2019-06-23T06:42:59.000Z</time>
      </trkpt>
      <trkpt lat="43.26114" lon="2.46037">
        <ele>173.7</ele>
        <time>2019-06-23T06:43:00.000Z</time>
      </trkpt>
      <trkpt lat="43.26113" lon="2.4604">
        <ele>174.1</ele>
        <time>2019-06-23T06:43:01.000Z</time>
      </trkpt>
      <trkpt lat="43.26112" lon="2.46043">
        <ele>174.6</ele>
        <time>2019-06-23T06:43:02.000Z</time>
      </trkpt>
      <trkpt lat="43.26111" lon="2.46046">
        <ele>175</ele>
        <time>2019-06-23T06:43:03.000Z</time>
      </trkpt>
      <trkpt lat="43.2611" lon="2.46049">
        <ele>175.3</ele>
        <time>2019-06-23T06:43:04.000Z</time>
      </trkpt>
      <trkpt lat="43.26109" lon="2.46052">
        <ele>175.7</ele>
        <time>2019-06-23T06:43:05.000Z</time>
      </trkpt>
      <trkpt lat="43.26108" lon="2.46054">
        <ele>176.1</ele>
        <time>2019-06-23T06:43:06.000Z</time>
      </trkpt>
      <trkpt lat="43.26106" lon="2.46057">
        <ele>176.4</ele>
        <time>2019-06-23T06:43:07.000Z</time>
      </trkpt>
      <trkpt lat="43.26105" lon="2.46059">
        <ele>176.8</ele>
        <time>2019-06-23T06:43:08.000Z</time>
      </trkpt>
      <trkpt lat="43.26104" lon="2.46062">
        <ele>177.1</ele>
        <time>2019-06-23T06:43:09.000Z</time>
      </trkpt>
      <trkpt lat="43.26103" lon="2.46064">
        <ele>177.4</ele>
        <time>2019-06-23T06:43:10.000Z</time>
      </trkpt>
      <trkpt lat="43.26102" lon="2.46066">
        <ele>177.7</ele>
        <time>2019-06-23T06:43:11.000Z</time>
      </trkpt>
      <trkpt lat="43.26101" lon="2.46069">
        <ele>178</ele>
        <time>2019-06-23T06:43:12.000Z</time>
      </trkpt>
      <trkpt lat="43.261" lon="2.46071">
        <ele>178.4</ele>
        <time>2019-06-23T06:43:13.000Z</time>
      </trkpt>
      <trkpt lat="43.26099" lon="2.46074">
        <ele>178.7</ele>
        <time>2019-06-23T06:43:14.000Z</time>
      </trkpt>
      <trkpt lat="43.26099" lon="2.46076">
        <ele>179</ele>
        <time>2019-06-23T06:43:15.000Z</time>
      </trkpt>
      <trkpt lat="43.26098" lon="2.46078">
        <ele>179.3</ele>
        <time>2019-06-23T06:43:16.000Z</time>
      </trkpt>
      <trkpt lat="43.26098" lon="2.46081">
        <ele>179.7</ele>
        <time>2019-06-23T06:43:17.000Z</time>
      </trkpt>
      <trkpt lat="43.26097" lon="2.46083">
        <ele>180</ele>
        <time>2019-06-23T06:43:18.000Z</time>
      </trkpt>
      <trkpt lat="43.26097" lon="2.46086">
        <ele>180.4</ele>
        <time>2019-06-23T06:43:19.000Z</time>
      </trkpt>
      <trkpt lat="43.26096" lon="2.46089">
        <ele>180.7</ele>
        <time>2019-06-23T06:43:20.000Z</time>
      </trkpt>
      <trkpt lat="43.26096" lon="2.46091">
        <ele>181.1</ele>
        <time>2019-06-23T06:43:21.000Z</time>
      </trkpt>
      <trkpt lat="43.26095" lon="2.46094">
        <ele>181.5</ele>
        <time>2019-06-23T06:43:22.000Z</time>
      </trkpt>
      <trkpt lat="43.26095" lon="2.46097">
        <ele>181.9</ele>
        <time>2019-06-23T06:43:23.000Z</time>
      </trkpt>
      <trkpt lat="43.26094" lon="2.461">
        <ele>182.3</ele>
        <time>2019-06-23T06:43:24.000Z</time>
      </trkpt>
      <trkpt lat="43.26093" lon="2.46103">
        <ele>182.6</ele>
        <time>2019-06-23T06:43:25.000Z</time>
      </trkpt>
      <trkpt lat="43.26093" lon="2.46105">
        <ele>183</ele>
        <time>2019-06-23T06:43:26.000Z</time>
      </trkpt>
      <trkpt lat="43.26092" lon="2.46108">
        <ele>183.4</ele>
        <time>2019-06-23T06:43:27.000Z</time>
      </trkpt>
      <trkpt lat="43.26091" lon="2.46111">
        <ele>183.8</ele>
        <time>2019-06-23T06:43:28.000Z</time>
      </trkpt>
      <trkpt lat="43.26091" lon="2.46114">
        <ele>184.2</ele>
        <time>2019-06-23T06:43:29.000Z</time>
      </trkpt>
      <trkpt lat="43.2609" lon="2.46117">
        <ele>184.6</ele>
        <time>2019-06-23T06:43:30.000Z</time>
      </trkpt>
      <trkpt lat="43.26089" lon="2.4612">
        <ele>184.9</ele>
        <time>2019-06-23T06:43:31.000Z</time>
      </trkpt>
      <trkpt lat="43.26089" lon="2.46123">
        <ele>185.3</ele>
        <time>2019-06-23T06:43:32.000Z</time>
      </trkpt>
      <trkpt lat="43.26088" lon="2.46126">
        <ele>185.7</ele>
        <time>2019-06-23T06:43:33.000Z</time>
      </trkpt>
      <trkpt lat="43.26087" lon="2.46128">
        <ele>186</ele>
        <time>2019-06-23T06:43:34.000Z</time>
      </trkpt>
      <trkpt lat="43.26086" lon="2.46131">
        <ele>186.4</ele>
        <time>2019-06-23T06:43:35.000Z</time>
      </trkpt>
      <trkpt lat="43.26086" lon="2.46134">
        <ele>186.8</ele>
        <time>2019-06-23T06:43:36.000Z</time>
      </trkpt>
      <trkpt lat="43.26085" lon="2.46137">
        <ele>187.1</ele>
        <time>2019-06-23T06:43:37.000Z</time>
      </trkpt>
      <trkpt lat="43.26084" lon="2.4614">
        <ele>187.4</ele>
        <time>2019-06-23T06:43:38.000Z</time>
      </trkpt>
      <trkpt lat="43.26083" lon="2.46142">
        <ele>187.8</ele>
        <time>2019-06-23T06:43:39.000Z</time>
      </trkpt>
      <trkpt lat="43.26083" lon="2.46145">
        <ele>188.1</ele>
        <time>2019-06-23T06:43:40.000Z</time>
      </trkpt>
      <trkpt lat="43.26082" lon="2.46148">
        <ele>188.4</ele>
        <time>2019-06-23T06:43:41.000Z</time>
      </trkpt>
      <trkpt lat="43.26081" lon="2.4615">
        <ele>188.7</ele>
        <time>2019-06-23T06:43:42.000Z</time>
      </trkpt>
      <trkpt lat="43.2608" lon="2.46153">
        <ele>189.1</ele>
        <time>2019-06-23T06:43:43.000Z</time>
      </trkpt>
      <trkpt lat="43.26079" lon="2.46155">
        <ele>189.4</ele>
        <time>2019-06-23T06:43:44.000Z</time>
      </trkpt>
      <trkpt lat="43.26078" lon="2.46158">
        <ele>189.6</ele>
        <time>2019-06-23T06:43:45.000Z</time>
      </trkpt>
      <trkpt lat="43.26078" lon="2.4616">
        <ele>189.9</ele>
        <time>2019-06-23T06:43:46.000Z</time>
      </trkpt>
      <trkpt lat="43.26077" lon="2.46163">
        <ele>190.2</ele>
        <time>2019-06-23T06:43:47.000Z</time>
      </trkpt>
      <trkpt lat="43.26076" lon="2.46165">
        <ele>190.5</ele>
        <time>2019-06-23T06:43:48.000Z</time>
      </trkpt>
      <trkpt lat="43.26075" lon="2.46167">
        <ele>190.8</ele>
        <time>2019-06-23T06:43:49.000Z</time>
      </trkpt>
      <trkpt lat="43.26074" lon="2.4617">
        <ele>190.9</ele>
        <time>2019-06-23T06:43:50.000Z</time>
      </trkpt>
      <trkpt lat="43.26074" lon="2.46172">
        <ele>191.1</ele>
        <time>2019-06-23T06:43:51.000Z</time>
      </trkpt>
      <trkpt lat="43.26073" lon="2.46175">
        <ele>191.3</ele>
        <time>2019-06-23T06:43:52.000Z</time>
      </trkpt>
      <trkpt lat="43.26072" lon="2.46177">
        <ele>191.4</ele>
        <time>2019-06-23T06:43:53.000Z</time>
      </trkpt>
      <trkpt lat="43.26072" lon="2.4618">
        <ele>191.6</ele>
        <time>2019-06-23T06:43:54.000Z</time>
      </trkpt>
      <trkpt lat="43.26071" lon="2.46182">
        <ele>191.8</ele>
        <time>2019-06-23T06:43:55.000Z</time>
      </trkpt>
      <trkpt lat="43.26071" lon="2.46185">
        <ele>192</ele>
        <time>2019-06-23T06:43:56.000Z</time>
      </trkpt>
      <trkpt lat="43.2607" lon="2.46187">
        <ele>192.2</ele>
        <time>2019-06-23T06:43:57.000Z</time>
      </trkpt>
      <trkpt lat="43.2607" lon="2.4619">
        <ele>192.4</ele>
        <time>2019-06-23T06:43:58.000Z</time>
      </trkpt>
      <trkpt lat="43.2607" lon="2.46193">
        <ele>192.6</ele>
        <time>2019-06-23T06:43:59.000Z</time>
      </trkpt>
      <trkpt lat="43.2607" lon="2.46196">
        <ele>192.8</ele>
        <time>2019-06-23T06:44:00.000Z</time>
      </trkpt>
      <trkpt lat="43.26069" lon="2.46198">
        <ele>193</ele>
        <time>2019-06-23T06:44:01.000Z</time>
      </trkpt>
      <trkpt lat="43.26069" lon="2.46201">
        <ele>193.2</ele>
        <time>2019-06-23T06:44:02.000Z</time>
      </trkpt>
      <trkpt lat="43.26069" lon="2.46204">
        <ele>193.5</ele>
        <time>2019-06-23T06:44:03.000Z</time>
      </trkpt>
      <trkpt lat="43.26069" lon="2.46207">
        <ele>193.7</ele>
        <time>2019-06-23T06:44:04.000Z</time>
      </trkpt>
      <trkpt lat="43.26069" lon="2.4621">
        <ele>193.9</ele>
        <time>2019-06-23T06:44:05.000Z</time>
      </trkpt>
      <trkpt lat="43.26069" lon="2.46212">
        <ele>194.2</ele>
        <time>2019-06-23T06:44:06.000Z</time>
      </trkpt>
      <trkpt lat="43.26069" lon="2.46215">
        <ele>194.4</ele>
        <time>2019-06-23T06:44:07.000Z</time>
      </trkpt>
      <trkpt lat="43.2607" lon="2.46218">
        <ele>194.6</ele>
        <time>2019-06-23T06:44:08.000Z</time>
      </trkpt>
      <trkpt lat="43.2607" lon="2.46221">
        <ele>194.9</ele>
        <time>2019-06-23T06:44:09.000Z</time>
      </trkpt>
      <trkpt lat="43.2607" lon="2.46224">
        <ele>195.1</ele>
        <time>2019-06-23T06:44:10.000Z</time>
      </trkpt>
      <trkpt lat="43.2607" lon="2.46227">
        <ele>195.3</ele>
        <time>2019-06-23T06:44:11.000Z</time>
      </trkpt>
      <trkpt lat="43.26071" lon="2.46229">
        <ele>195.6</ele>
        <time>2019-06-23T06:44:12.000Z</time>
      </trkpt>
      <trkpt lat="43.26071" lon="2.46232">
        <ele>195.8</ele>
        <time>2019-06-23T06:44:13.000Z</time>
      </trkpt>
      <trkpt lat="43.26071" lon="2.46235">
        <ele>196</ele>
        <time>2019-06-23T06:44:14.000Z</time>
      </trkpt>
      <trkpt lat="43.26071" lon="2.46237">
        <ele>196.3</ele>
        <time>2019-06-23T06:44:15.000Z</time>
      </trkpt>
      <trkpt lat="43.26072" lon="2.4624">
        <ele>196.5</ele>
        <time>2019-06-23T06:44:16.000Z</time>
      </trkpt>
      <trkpt lat="43.26072" lon="2.46243">
        <ele>196.7</ele>
        <time>2019-06-23T06:44:17.000Z</time>
      </trkpt>
      <trkpt lat="43.26072" lon="2.46245">
        <ele>197</ele>
        <time>2019-06-23T06:44:18.000Z</time>
      </trkpt>
      <trkpt lat="43.26073" lon="2.46248">
        <ele>197.2</ele>
        <time>2019-06-23T06:44:19.000Z</time>
      </trkpt>
      <trkpt lat="43.26073" lon="2.4625">
        <ele>197.4</ele>
        <time>2019-06-23T06:44:20.000Z</time>
      </trkpt>
      <trkpt lat="43.26073" lon="2.46253">
        <ele>197.6</ele>
        <time>2019-06-23T06:44:21.000Z</time>
      </trkpt>
      <trkpt lat="43.26073" lon="2.46256">
        <ele>197.8</ele>
        <time>2019-06-23T06:44:22.000Z</time>
      </trkpt>
      <trkpt lat="43.26073" lon="2.46258">
        <ele>198</ele>
        <time>2019-06-23T06:44:23.000Z</time>
      </trkpt>
      <trkpt lat="43.26073" lon="2.46261">
        <ele>198.1</ele>
        <time>2019-06-23T06:44:24.000Z</time>
      </trkpt>
      <trkpt lat="43.26073" lon="2.46263">
        <ele>198.3</ele>
        <time>2019-06-23T06:44:25.000Z</time>
      </trkpt>
      <trkpt lat="43.26073" lon="2.46266">
        <ele>198.5</ele>
        <time>2019-06-23T06:44:26.000Z</time>
      </trkpt>
      <trkpt lat="43.26073" lon="2.46268">
        <ele>198.6</ele>
        <time>2019-06-23T06:44:27.000Z</time>
      </trkpt>
      <trkpt lat="43.26073" lon="2.4627">
        <ele>198.8</ele>
        <time>2019-06-23T06:44:28.000Z</time>
      </trkpt>
      <trkpt lat="43.26072" lon="2.46273">
        <ele>198.9</ele>
        <time>2019-06-23T06:44:29.000Z</time>
      </trkpt>
      <trkpt lat="43.26072" lon="2.46275">
        <ele>199.1</ele>
        <time>2019-06-23T06:44:30.000Z</time>
      </trkpt>
      <trkpt lat="43.26071" lon="2.46278">
        <ele>199.2</ele>
        <time>2019-06-23T06:44:31.000Z</time>
      </trkpt>
      <trkpt lat="43.2607" lon="2.4628">
        <ele>199.3</ele>
        <time>2019-06-23T06:44:32.000Z</time>
      </trkpt>
      <trkpt lat="43.2607" lon="2.46282">
        <ele>199.4</ele>
        <time>2019-06-23T06:44:33.000Z</time>
      </trkpt>
      <trkpt lat="43.26069" lon="2.46284">
        <ele>199.5</ele>
        <time>2019-06-23T06:44:34.000Z</time>
      </trkpt>
      <trkpt lat="43.26068" lon="2.46286">
        <ele>199.6</ele>
        <time>2019-06-23T06:44:35.000Z</time>
      </trkpt>
      <trkpt lat="43.26066" lon="2.46288">
        <ele>199.6</ele>
        <time>2019-06-23T06:44:36.000Z</time>
      </trkpt>
      <trkpt lat="43.26065" lon="2.4629">
        <ele>199.7</ele>
        <time>2019-06-23T06:44:37.000Z</time>
      </trkpt>
      <trkpt lat="43.26064" lon="2.46292">
        <ele>199.7</ele>
        <time>2019-06-23T06:44:38.000Z</time>
      </trkpt>
      <trkpt lat="43.26063" lon="2.46294">
        <ele>199.8</ele>
        <time>2019-06-23T06:44:39.000Z</time>
      </trkpt>
      <trkpt lat="43.26062" lon="2.46295">
        <ele>199.8</ele>
        <time>2019-06-23T06:44:40.000Z</time>
      </trkpt>
      <trkpt lat="43.2606" lon="2.46298">
        <ele>199.9</ele>
        <time>2019-06-23T06:44:41.000Z</time>
      </trkpt>
      <trkpt lat="43.26059" lon="2.463">
        <ele>200</ele>
        <time>2019-06-23T06:44:42.000Z</time>
      </trkpt>
      <trkpt lat="43.26058" lon="2.46302">
        <ele>200</ele>
        <time>2019-06-23T06:44:43.000Z</time>
      </trkpt>
      <trkpt lat="43.26057" lon="2.46303">
        <ele>200.1</ele>
        <time>2019-06-23T06:44:44.000Z</time>
      </trkpt>
      <trkpt lat="43.26056" lon="2.46305">
        <ele>200.1</ele>
        <time>2019-06-23T06:44:45.000Z</time>
      </trkpt>
      <trkpt lat="43.26054" lon="2.46307">
        <ele>200.1</ele>
        <time>2019-06-23T06:44:46.000Z</time>
      </trkpt>
      <trkpt lat="43.26053" lon="2.46309">
        <ele>200.1</ele>
        <time>2019-06-23T06:44:47.000Z</time>
      </trkpt>
      <trkpt lat="43.26051" lon="2.4631">
        <ele>200.1</ele>
        <time>2019-06-23T06:44:48.000Z</time>
      </trkpt>
      <trkpt lat="43.2605" lon="2.46312">
        <ele>200.2</ele>
        <time>2019-06-23T06:44:49.000Z</time>
      </trkpt>
      <trkpt lat="43.26048" lon="2.46314">
        <ele>200.2</ele>
        <time>2019-06-23T06:44:50.000Z</time>
      </trkpt>
      <trkpt lat="43.26047" lon="2.46317">
        <ele>200.2</ele>
        <time>2019-06-23T06:44:51.000Z</time>
      </trkpt>
      <trkpt lat="43.26045" lon="2.46319">
        <ele>200.3</ele>
        <time>2019-06-23T06:44:52.000Z</time>
      </trkpt>
      <trkpt lat="43.26044" lon="2.46322">
        <ele>200.4</ele>
        <time>2019-06-23T06:44:53.000Z</time>
      </trkpt>
      <trkpt lat="43.26042" lon="2.46324">
        <ele>200.4</ele>
        <time>2019-06-23T06:44:54.000Z</time>
      </trkpt>
      <trkpt lat="43.26041" lon="2.46327">
        <ele>200.5</ele>
        <time>2019-06-23T06:44:55.000Z</time>
      </trkpt>
      <trkpt lat="43.2604" lon="2.4633">
        <ele>200.6</ele>
        <time>2019-06-23T06:44:56.000Z</time>
      </trkpt>
      <trkpt lat="43.26038" lon="2.46333">
        <ele>200.7</ele>
        <time>2019-06-23T06:44:57.000Z</time>
      </trkpt>
      <trkpt lat="43.26037" lon="2.46336">
        <ele>200.7</ele>
        <time>2019-06-23T06:44:58.000Z</time>
      </trkpt>
      <trkpt lat="43.26036" lon="2.46338">
        <ele>200.7</ele>
        <time>2019-06-23T06:44:59.000Z</time>
      </trkpt>
      <trkpt lat="43.26035" lon="2.46341">
        <ele>200.7</ele>
        <time>2019-06-23T06:45:00.000Z</time>
      </trkpt>
      <trkpt lat="43.26033" lon="2.46343">
        <ele>200.7</ele>
        <time>2019-06-23T06:45:01.000Z</time>
      </trkpt>
      <trkpt lat="43.26032" lon="2.46346">
        <ele>200.7</ele>
        <time>2019-06-23T06:45:02.000Z</time>
      </trkpt>
      <trkpt lat="43.26031" lon="2.46348">
        <ele>200.7</ele>
        <time>2019-06-23T06:45:03.000Z</time>
      </trkpt>
      <trkpt lat="43.2603" lon="2.4635">
        <ele>200.7</ele>
        <time>2019-06-23T06:45:04.000Z</time>
      </trkpt>
      <trkpt lat="43.26028" lon="2.46352">
        <ele>200.6</ele>
        <time>2019-06-23T06:45:05.000Z</time>
      </trkpt>
      <trkpt lat="43.26027" lon="2.46355">
        <ele>200.6</ele>
        <time>2019-06-23T06:45:06.000Z</time>
      </trkpt>
      <trkpt lat="43.26025" lon="2.46357">
        <ele>200.6</ele>
        <time>2019-06-23T06:45:07.000Z</time>
      </trkpt>
      <trkpt lat="43.26023" lon="2.46359">
        <ele>200.5</ele>
        <time>2019-06-23T06:45:08.000Z</time>
      </trkpt>
      <trkpt lat="43.26022" lon="2.46362">
        <ele>200.5</ele>
        <time>2019-06-23T06:45:09.000Z</time>
      </trkpt>
      <trkpt lat="43.2602" lon="2.46364">
        <ele>200.4</ele>
        <time>2019-06-23T06:45:10.000Z</time>
      </trkpt>
      <trkpt lat="43.26018" lon="2.46366">
        <ele>200.4</ele>
        <time>2019-06-23T06:45:11.000Z</time>
      </trkpt>
      <trkpt lat="43.26016" lon="2.46368">
        <ele>200.3</ele>
        <time>2019-06-23T06:45:12.000Z</time>
      </trkpt>
      <trkpt lat="43.26014" lon="2.46371">
        <ele>200.3</ele>
        <time>2019-06-23T06:45:13.000Z</time>
      </trkpt>
      <trkpt lat="43.26013" lon="2.46373">
        <ele>200.3</ele>
        <time>2019-06-23T06:45:14.000Z</time>
      </trkpt>
      <trkpt lat="43.26012" lon="2.46375">
        <ele>200.2</ele>
        <time>2019-06-23T06:45:15.000Z</time>
      </trkpt>
      <trkpt lat="43.2601" lon="2.46377">
        <ele>200.2</ele>
        <time>2019-06-23T06:45:16.000Z</time>
      </trkpt>
      <trkpt lat="43.26009" lon="2.46379">
        <ele>200.2</ele>
        <time>2019-06-23T06:45:17.000Z</time>
      </trkpt>
      <trkpt lat="43.26007" lon="2.46381">
        <ele>200.2</ele>
        <time>2019-06-23T06:45:18.000Z</time>
      </trkpt>
      <trkpt lat="43.26005" lon="2.46384">
        <ele>200.1</ele>
        <time>2019-06-23T06:45:19.000Z</time>
      </trkpt>
      <trkpt lat="43.26002" lon="2.46386">
        <ele>200</ele>
        <time>2019-06-23T06:45:20.000Z</time>
      </trkpt>
      <trkpt lat="43.26" lon="2.46389">
        <ele>200</ele>
        <time>2019-06-23T06:45:21.000Z</time>
      </trkpt>
      <trkpt lat="43.25997" lon="2.46392">
        <ele>199.8</ele>
        <time>2019-06-23T06:45:22.000Z</time>
      </trkpt>
      <trkpt lat="43.25995" lon="2.46394">
        <ele>199.7</ele>
        <time>2019-06-23T06:45:23.000Z</time>
      </trkpt>
      <trkpt lat="43.25994" lon="2.46396">
        <ele>199.6</ele>
        <time>2019-06-23T06:45:24.000Z</time>
      </trkpt>
      <trkpt lat="43.25993" lon="2.46397">
        <ele>199.5</ele>
        <time>2019-06-23T06:45:25.000Z</time>
      </trkpt>
      <trkpt lat="43.25992" lon="2.46399">
        <ele>199.5</ele>
        <time>2019-06-23T06:45:26.000Z</time>
      </trkpt>
      <trkpt lat="43.25991" lon="2.464">
        <ele>199.5</ele>
        <time>2019-06-23T06:45:27.000Z</time>
      </trkpt>
      <trkpt lat="43.2599" lon="2.46402">
        <ele>199.4</ele>
        <time>2019-06-23T06:45:28.000Z</time>
      </trkpt>
      <trkpt lat="43.25989" lon="2.46403">
        <ele>199.4</ele>
        <time>2019-06-23T06:45:29.000Z</time>
      </trkpt>
      <trkpt lat="43.25988" lon="2.46404">
        <ele>199.4</ele>
        <time>2019-06-23T06:45:30.000Z</time>
      </trkpt>
      <trkpt lat="43.25988" lon="2.46405">
        <ele>199.4</ele>
        <time>2019-06-23T06:45:31.000Z</time>
      </trkpt>
      <trkpt lat="43.25987" lon="2.46407">
        <ele>199.4</ele>
        <time>2019-06-23T06:45:32.000Z</time>
      </trkpt>
      <trkpt lat="43.25986" lon="2.46408">
        <ele>199.4</ele>
        <time>2019-06-23T06:45:33.000Z</time>
      </trkpt>
      <trkpt lat="43.25985" lon="2.46409">
        <ele>199.4</ele>
        <time>2019-06-23T06:45:34.000Z</time>
      </trkpt>
      <trkpt lat="43.25985" lon="2.4641">
        <ele>199.4</ele>
        <time>2019-06-23T06:45:35.000Z</time>
      </trkpt>
      <trkpt lat="43.25984" lon="2.46411">
        <ele>199.4</ele>
        <time>2019-06-23T06:45:36.000Z</time>
      </trkpt>
      <trkpt lat="43.25984" lon="2.46412">
        <ele>199.4</ele>
        <time>2019-06-23T06:45:37.000Z</time>
      </trkpt>
      <trkpt lat="43.25983" lon="2.46412">
        <ele>199.4</ele>
        <time>2019-06-23T06:45:38.000Z</time>
      </trkpt>
      <trkpt lat="43.25983" lon="2.46413">
        <ele>199.4</ele>
        <time>2019-06-23T06:45:39.000Z</time>
      </trkpt>
      <trkpt lat="43.25983" lon="2.46413">
        <ele>199.4</ele>
        <time>2019-06-23T06:45:40.000Z</time>
      </trkpt>
      <trkpt lat="43.25983" lon="2.46413">
        <ele>199.4</ele>
        <time>2019-06-23T06:45:41.000Z</time>
      </trkpt>
      <trkpt lat="43.25983" lon="2.46413">
        <ele>199.4</ele>
        <time>2019-06-23T06:45:42.000Z</time>
      </trkpt>
      <trkpt lat="43.25983" lon="2.46413">
        <ele>199.4</ele>
        <time>2019-06-23T06:45:43.000Z</time>
      </trkpt>
      <trkpt lat="43.25983" lon="2.46413">
        <ele>199.4</ele>
        <time>2019-06-23T06:45:44.000Z</time>
      </trkpt>
      <trkpt lat="43.25983" lon="2.46413">
        <ele>199.4</ele>
        <time>2019-06-23T06:45:45.000Z</time>
      </trkpt>
      <trkpt lat="43.25983" lon="2.46413">
        <ele>199.4</ele>
        <time>2019-06-23T06:45:46.000Z</time>
      </trkpt>
      <trkpt lat="43.25983" lon="2.46413">
        <ele>199.4</ele>
        <time>2019-06-23T06:45:47.000Z</time>
      </trkpt>
      <trkpt lat="43.25983" lon="2.46413">
        <ele>199.4</ele>
        <time>2019-06-23T06:45:48.000Z</time>
      </trkpt>
      <trkpt lat="43.25983" lon="2.46413">
        <ele>199.4</ele>
        <time>2019-06-23T06:45:49.000Z</time>
      </trkpt>
      <trkpt lat="43.25983" lon="2.46413">
        <ele>199.4</ele>
        <time>2019-06-23T06:45:50.000Z</time>
      </trkpt>
      <trkpt lat="43.25983" lon="2.46413">
        <ele>199.4</ele>
        <time>2019-06-23T06:45:51.000Z</time>
      </trkpt>
      <trkpt lat="43.25983" lon="2.46413">
        <ele>199.4</ele>
        <time>2019-06-23T06:45:52.000Z</time>
      </trkpt>
      <trkpt lat="43.25983" lon="2.46413">
        <ele>199.4</ele>
        <time>2019-06-23T06:45:53.000Z</time>
      </trkpt>
      <trkpt lat="43.25983" lon="2.46413">
        <ele>199.4</ele>
        <time>2019-06-23T06:45:54.000Z</time>
      </trkpt>
      <trkpt lat="43.25983" lon="2.46413">
        <ele>199.4</ele>
        <time>2019-06-23T06:45:55.000Z</time>
      </trkpt>
      <trkpt lat="43.25983" lon="2.46413">
        <ele>199.4</ele>
        <time>2019-06-23T06:45:56.000Z</time>
      </trkpt>
      <trkpt lat="43.25983" lon="2.46413">
        <ele>199.4</ele>
        <time>2019-06-23T06:45:57.000Z</time>
      </trkpt>
      <trkpt lat="43.25983" lon="2.46413">
        <ele>199.4</ele>
        <time>2019-06-23T06:45:58.000Z</time>
      </trkpt>
      <trkpt lat="43.25983" lon="2.46413">
        <ele>199.4</ele>
        <time>2019-06-23T06:45:59.000Z</time>
      </trkpt>
      <trkpt lat="43.25983" lon="2.46413">
        <ele>199.4</ele>
        <time>2019-06-23T06:46:00.000Z</time>
      </trkpt>
      <trkpt lat="43.25983" lon="2.46413">
        <ele>199.4</ele>
        <time>2019-06-23T06:46:01.000Z</time>
      </trkpt>
      <trkpt lat="43.25983" lon="2.46413">
        <ele>199.4</ele>
        <time>2019-06-23T06:46:02.000Z</time>
      </trkpt>
      <trkpt lat="43.25983" lon="2.46413">
        <ele>199.4</ele>
        <time>2019-06-23T06:46:03.000Z</time>
      </trkpt>
      <trkpt lat="43.25983" lon="2.46413">
        <ele>199.4</ele>
        <time>2019-06-23T06:46:04.000Z</time>
      </trkpt>
      <trkpt lat="43.25983" lon="2.46413">
        <ele>199.4</ele>
        <time>2019-06-23T06:46:05.000Z</time>
      </trkpt>
      <trkpt lat="43.25983" lon="2.46413">
        <ele>199.4</ele>
        <time>2019-06-23T06:46:06.000Z</time>
      </trkpt>
      <trkpt lat="43.25983" lon="2.46413">
        <ele>199.4</ele>
        <time>2019-06-23T06:46:07.000Z</time>
      </trkpt>
      <trkpt lat="43.25983" lon="2.46413">
        <ele>199.4</ele>
        <time>2019-06-23T06:46:08.000Z</time>
      </trkpt>
      <trkpt lat="43.25983" lon="2.46413">
        <ele>199.4</ele>
        <time>2019-06-23T06:46:09.000Z</time>
      </trkpt>
      <trkpt lat="43.25983" lon="2.46413">
        <ele>199.4</ele>
        <time>2019-06-23T06:46:10.000Z</time>
      </trkpt>
      <trkpt lat="43.25983" lon="2.46413">
        <ele>199.4</ele>
        <time>2019-06-23T06:46:11.000Z</time>
      </trkpt>
      <trkpt lat="43.25983" lon="2.46413">
        <ele>199.4</ele>
        <time>2019-06-23T06:46:12.000Z</time>
      </trkpt>
      <trkpt lat="43.25983" lon="2.46413">
        <ele>199.4</ele>
        <time>2019-06-23T06:46:13.000Z</time>
      </trkpt>
      <trkpt lat="43.25983" lon="2.46413">
        <ele>199.4</ele>
        <time>2019-06-23T06:46:14.000Z</time>
      </trkpt>
      <trkpt lat="43.25983" lon="2.46413">
        <ele>199.4</ele>
        <time>2019-06-23T06:46:15.000Z</time>
      </trkpt>
      <trkpt lat="43.25983" lon="2.46413">
        <ele>199.4</ele>
        <time>2019-06-23T06:46:16.000Z</time>
      </trkpt>
      <trkpt lat="43.25983" lon="2.46413">
        <ele>199.4</ele>
        <time>2019-06-23T06:46:17.000Z</time>
      </trkpt>
      <trkpt lat="43.25983" lon="2.46413">
        <ele>199.4</ele>
        <time>2019-06-23T06:46:18.000Z</time>
      </trkpt>
      <trkpt lat="43.25983" lon="2.46413">
        <ele>199.4</ele>
        <time>2019-06-23T06:46:19.000Z</time>
      </trkpt>
      <trkpt lat="43.25983" lon="2.46413">
        <ele>199.4</ele>
        <time>2019-06-23T06:46:20.000Z</time>
      </trkpt>
      <trkpt lat="43.25983" lon="2.46413">
        <ele>199.4</ele>
        <time>2019-06-23T06:46:21.000Z</time>
      </trkpt>
      <trkpt lat="43.25984" lon="2.46413">
        <ele>199.4</ele>
        <time>2019-06-23T06:46:22.000Z</time>
      </trkpt>
      <trkpt lat="43.25984" lon="2.46413">
        <ele>199.4</ele>
        <time>2019-06-23T06:46:23.000Z</time>
      </trkpt>
      <trkpt lat="43.25984" lon="2.46413">
        <ele>199.4</ele>
        <time>2019-06-23T06:46:24.000Z</time>
      </trkpt>
      <trkpt lat="43.25984" lon="2.46413">
        <ele>199.4</ele>
        <time>2019-06-23T06:46:25.000Z</time>
      </trkpt>
      <trkpt lat="43.25984" lon="2.46413">
        <ele>199.4</ele>
        <time>2019-06-23T06:46:26.000Z</time>
      </trkpt>
      <trkpt lat="43.25984" lon="2.46413">
        <ele>199.4</ele>
        <time>2019-06-23T06:46:27.000Z</time>
      </trkpt>
      <trkpt lat="43.25984" lon="2.46413">
        <ele>199.4</ele>
        <time>2019-06-23T06:46:28.000Z</time>
      </trkpt>
      <trkpt lat="43.25984" lon="2.46413">
        <ele>199.4</ele>
        <time>2019-06-23T06:46:29.000Z</time>
      </trkpt>
      <trkpt lat="43.25984" lon="2.46413">
        <ele>199.4</ele>
        <time>2019-06-23T06:46:30.000Z</time>
      </trkpt>
      <trkpt lat="43.25984" lon="2.46413">
        <ele>199.4</ele>
        <time>2019-06-23T06:46:31.000Z</time>
      </trkpt>
      <trkpt lat="43.25984" lon="2.46413">
        <ele>199.4</ele>
        <time>2019-06-23T06:46:32.000Z</time>
      </trkpt>
      <trkpt lat="43.25984" lon="2.46413">
        <ele>199.4</ele>
        <time>2019-06-23T06:46:33.000Z</time>
      </trkpt>
      <trkpt lat="43.25984" lon="2.46413">
        <ele>199.4</ele>
        <time>2019-06-23T06:46:34.000Z</time>
      </trkpt>
      <trkpt lat="43.25984" lon="2.46413">
        <ele>199.4</ele>
        <time>2019-06-23T06:46:35.000Z</time>
      </trkpt>
      <trkpt lat="43.25984" lon="2.46413">
        <ele>199.4</ele>
        <time>2019-06-23T06:46:36.000Z</time>
      </trkpt>
      <trkpt lat="43.25984" lon="2.46413">
        <ele>199.4</ele>
        <time>2019-06-23T06:46:37.000Z</time>
      </trkpt>
      <trkpt lat="43.25984" lon="2.46413">
        <ele>199.4</ele>
        <time>2019-06-23T06:46:38.000Z</time>
      </trkpt>
      <trkpt lat="43.25984" lon="2.46413">
        <ele>199.4</ele>
        <time>2019-06-23T06:46:39.000Z</time>
      </trkpt>
      <trkpt lat="43.25984" lon="2.46413">
        <ele>199.4</ele>
        <time>2019-06-23T06:46:40.000Z</time>
      </trkpt>
      <trkpt lat="43.25984" lon="2.46413">
        <ele>199.4</ele>
        <time>2019-06-23T06:46:41.000Z</time>
      </trkpt>
      <trkpt lat="43.25984" lon="2.46413">
        <ele>199.4</ele>
        <time>2019-06-23T06:46:42.000Z</time>
      </trkpt>
      <trkpt lat="43.25984" lon="2.46413">
        <ele>199.4</ele>
        <time>2019-06-23T06:46:43.000Z</time>
      </trkpt>
      <trkpt lat="43.25984" lon="2.46413">
        <ele>199.4</ele>
        <time>2019-06-23T06:46:44.000Z</time>
      </trkpt>
      <trkpt lat="43.25984" lon="2.46413">
        <ele>199.4</ele>
        <time>2019-06-23T06:46:45.000Z</time>
      </trkpt>
      <trkpt lat="43.25984" lon="2.46413">
        <ele>199.4</ele>
        <time>2019-06-23T06:46:46.000Z</time>
      </trkpt>
      <trkpt lat="43.25984" lon="2.46413">
        <ele>199.4</ele>
        <time>2019-06-23T06:46:47.000Z</time>
      </trkpt>
      <trkpt lat="43.25984" lon="2.46413">
        <ele>199.4</ele>
        <time>2019-06-23T06:46:48.000Z</time>
      </trkpt>
      <trkpt lat="43.25984" lon="2.46413">
        <ele>199.4</ele>
        <time>2019-06-23T06:46:49.000Z</time>
      </trkpt>
      <trkpt lat="43.25984" lon="2.46413">
        <ele>199.4</ele>
        <time>2019-06-23T06:46:50.000Z</time>
      </trkpt>
      <trkpt lat="43.25984" lon="2.46413">
        <ele>199.4</ele>
        <time>2019-06-23T06:46:51.000Z</time>
      </trkpt>
      <trkpt lat="43.25984" lon="2.46413">
        <ele>199.4</ele>
        <time>2019-06-23T06:46:52.000Z</time>
      </trkpt>
      <trkpt lat="43.25984" lon="2.46413">
        <ele>199.4</ele>
        <time>2019-06-23T06:46:53.000Z</time>
      </trkpt>
      <trkpt lat="43.25984" lon="2.46413">
        <ele>199.4</ele>
        <time>2019-06-23T06:46:54.000Z</time>
      </trkpt>
      <trkpt lat="43.25984" lon="2.46413">
        <ele>199.4</ele>
        <time>2019-06-23T06:46:55.000Z</time>
      </trkpt>
      <trkpt lat="43.25984" lon="2.46413">
        <ele>199.4</ele>
        <time>2019-06-23T06:46:56.000Z</time>
      </trkpt>
      <trkpt lat="43.25984" lon="2.46413">
        <ele>199.4</ele>
        <time>2019-06-23T06:46:57.000Z</time>
      </trkpt>
      <trkpt lat="43.25984" lon="2.46413">
        <ele>199.4</ele>
        <time>2019-06-23T06:46:58.000Z</time>
      </trkpt>
      <trkpt lat="43.25984" lon="2.46413">
        <ele>199.4</ele>
        <time>2019-06-23T06:46:59.000Z</time>
      </trkpt>
      <trkpt lat="43.25984" lon="2.46413">
        <ele>199.4</ele>
        <time>2019-06-23T06:47:00.000Z</time>
      </trkpt>
      <trkpt lat="43.25984" lon="2.46413">
        <ele>199.4</ele>
        <time>2019-06-23T06:47:01.000Z</time>
      </trkpt>
      <trkpt lat="43.25984" lon="2.46413">
        <ele>199.4</ele>
        <time>2019-06-23T06:47:02.000Z</time>
      </trkpt>
      <trkpt lat="43.25984" lon="2.46413">
        <ele>199.4</ele>
        <time>2019-06-23T06:47:03.000Z</time>
      </trkpt>
      <trkpt lat="43.25984" lon="2.46413">
        <ele>199.4</ele>
        <time>2019-06-23T06:47:04.000Z</time>
      </trkpt>
      <trkpt lat="43.25984" lon="2.46413">
        <ele>199.4</ele>
        <time>2019-06-23T06:47:05.000Z</time>
      </trkpt>
      <trkpt lat="43.25984" lon="2.46414">
        <ele>199.5</ele>
        <time>2019-06-23T06:47:06.000Z</time>
      </trkpt>
      <trkpt lat="43.25984" lon="2.46414">
        <ele>199.5</ele>
        <time>2019-06-23T06:47:07.000Z</time>
      </trkpt>
      <trkpt lat="43.25984" lon="2.46415">
        <ele>199.5</ele>
        <time>2019-06-23T06:47:08.000Z</time>
      </trkpt>
      <trkpt lat="43.25984" lon="2.46416">
        <ele>199.6</ele>
        <time>2019-06-23T06:47:09.000Z</time>
      </trkpt>
      <trkpt lat="43.25984" lon="2.46417">
        <ele>199.6</ele>
        <time>2019-06-23T06:47:10.000Z</time>
      </trkpt>
      <trkpt lat="43.25984" lon="2.46419">
        <ele>199.6</ele>
        <time>2019-06-23T06:47:11.000Z</time>
      </trkpt>
      <trkpt lat="43.25984" lon="2.4642">
        <ele>199.6</ele>
        <time>2019-06-23T06:47:12.000Z</time>
      </trkpt>
      <trkpt lat="43.25984" lon="2.46421">
        <ele>199.6</ele>
        <time>2019-06-23T06:47:13.000Z</time>
      </trkpt>
      <trkpt lat="43.25984" lon="2.46423">
        <ele>199.6</ele>
        <time>2019-06-23T06:47:14.000Z</time>
      </trkpt>
      <trkpt lat="43.25984" lon="2.46424">
        <ele>199.6</ele>
        <time>2019-06-23T06:47:15.000Z</time>
      </trkpt>
      <trkpt lat="43.25984" lon="2.46425">
        <ele>199.6</ele>
        <time>2019-06-23T06:47:16.000Z</time>
      </trkpt>
      <trkpt lat="43.25984" lon="2.46427">
        <ele>199.6</ele>
        <time>2019-06-23T06:47:17.000Z</time>
      </trkpt>
      <trkpt lat="43.25984" lon="2.46428">
        <ele>199.6</ele>
        <time>2019-06-23T06:47:18.000Z</time>
      </trkpt>
      <trkpt lat="43.25984" lon="2.46429">
        <ele>199.6</ele>
        <time>2019-06-23T06:47:19.000Z</time>
      </trkpt>
      <trkpt lat="43.25984" lon="2.46431">
        <ele>199.7</ele>
        <time>2019-06-23T06:47:20.000Z</time>
      </trkpt>
      <trkpt lat="43.25984" lon="2.46433">
        <ele>199.7</ele>
        <time>2019-06-23T06:47:21.000Z</time>
      </trkpt>
      <trkpt lat="43.25985" lon="2.46434">
        <ele>199.7</ele>
        <time>2019-06-23T06:47:22.000Z</time>
      </trkpt>
      <trkpt lat="43.25985" lon="2.46436">
        <ele>199.7</ele>
        <time>2019-06-23T06:47:23.000Z</time>
      </trkpt>
      <trkpt lat="43.25985" lon="2.46438">
        <ele>199.7</ele>
        <time>2019-06-23T06:47:24.000Z</time>
      </trkpt>
      <trkpt lat="43.25985" lon="2.46441">
        <ele>199.7</ele>
        <time>2019-06-23T06:47:25.000Z</time>
      </trkpt>
      <trkpt lat="43.25985" lon="2.46443">
        <ele>199.7</ele>
        <time>2019-06-23T06:47:26.000Z</time>
      </trkpt>
      <trkpt lat="43.25986" lon="2.46446">
        <ele>199.7</ele>
        <time>2019-06-23T06:47:27.000Z</time>
      </trkpt>
      <trkpt lat="43.25986" lon="2.46448">
        <ele>199.7</ele>
        <time>2019-06-23T06:47:28.000Z</time>
      </trkpt>
      <trkpt lat="43.25986" lon="2.46451">
        <ele>199.7</ele>
        <time>2019-06-23T06:47:29.000Z</time>
      </trkpt>
      <trkpt lat="43.25986" lon="2.46454">
        <ele>199.7</ele>
        <time>2019-06-23T06:47:30.000Z</time>
      </trkpt>
      <trkpt lat="43.25986" lon="2.46457">
        <ele>199.7</ele>
        <time>2019-06-23T06:47:31.000Z</time>
      </trkpt>
      <trkpt lat="43.25986" lon="2.4646">
        <ele>199.7</ele>
        <time>2019-06-23T06:47:32.000Z</time>
      </trkpt>
      <trkpt lat="43.25986" lon="2.46463">
        <ele>199.7</ele>
        <time>2019-06-23T06:47:33.000Z</time>
      </trkpt>
      <trkpt lat="43.25986" lon="2.46466">
        <ele>199.7</ele>
        <time>2019-06-23T06:47:34.000Z</time>
      </trkpt>
      <trkpt lat="43.25985" lon="2.4647">
        <ele>199.7</ele>
        <time>2019-06-23T06:47:35.000Z</time>
      </trkpt>
      <trkpt lat="43.25985" lon="2.46473">
        <ele>199.7</ele>
        <time>2019-06-23T06:47:36.000Z</time>
      </trkpt>
      <trkpt lat="43.25986" lon="2.46476">
        <ele>199.7</ele>
        <time>2019-06-23T06:47:37.000Z</time>
      </trkpt>
      <trkpt lat="43.25986" lon="2.46479">
        <ele>199.7</ele>
        <time>2019-06-23T06:47:38.000Z</time>
      </trkpt>
      <trkpt lat="43.25986" lon="2.46482">
        <ele>199.7</ele>
        <time>2019-06-23T06:47:39.000Z</time>
      </trkpt>
      <trkpt lat="43.25986" lon="2.46486">
        <ele>199.7</ele>
        <time>2019-06-23T06:47:40.000Z</time>
      </trkpt>
      <trkpt lat="43.25986" lon="2.46489">
        <ele>199.7</ele>
        <time>2019-06-23T06:47:41.000Z</time>
      </trkpt>
      <trkpt lat="43.25987" lon="2.46493">
        <ele>199.7</ele>
        <time>2019-06-23T06:47:42.000Z</time>
      </trkpt>
      <trkpt lat="43.25987" lon="2.46496">
        <ele>199.7</ele>
        <time>2019-06-23T06:47:43.000Z</time>
      </trkpt>
      <trkpt lat="43.25988" lon="2.465">
        <ele>199.7</ele>
        <time>2019-06-23T06:47:44.000Z</time>
      </trkpt>
      <trkpt lat="43.25988" lon="2.46503">
        <ele>199.7</ele>
        <time>2019-06-23T06:47:45.000Z</time>
      </trkpt>
      <trkpt lat="43.25989" lon="2.46507">
        <ele>199.6</ele>
        <time>2019-06-23T06:47:46.000Z</time>
      </trkpt>
      <trkpt lat="43.25989" lon="2.46511">
        <ele>199.6</ele>
        <time>2019-06-23T06:47:47.000Z</time>
      </trkpt>
      <trkpt lat="43.25989" lon="2.46514">
        <ele>199.6</ele>
        <time>2019-06-23T06:47:48.000Z</time>
      </trkpt>
      <trkpt lat="43.2599" lon="2.46518">
        <ele>199.5</ele>
        <time>2019-06-23T06:47:49.000Z</time>
      </trkpt>
      <trkpt lat="43.2599" lon="2.46522">
        <ele>199.5</ele>
        <time>2019-06-23T06:47:50.000Z</time>
      </trkpt>
      <trkpt lat="43.2599" lon="2.46525">
        <ele>199.5</ele>
        <time>2019-06-23T06:47:51.000Z</time>
      </trkpt>
      <trkpt lat="43.2599" lon="2.46529">
        <ele>199.4</ele>
        <time>2019-06-23T06:47:52.000Z</time>
      </trkpt>
      <trkpt lat="43.2599" lon="2.46533">
        <ele>199.4</ele>
        <time>2019-06-23T06:47:53.000Z</time>
      </trkpt>
      <trkpt lat="43.25991" lon="2.46536">
        <ele>199.3</ele>
        <time>2019-06-23T06:47:54.000Z</time>
      </trkpt>
      <trkpt lat="43.25991" lon="2.4654">
        <ele>199.3</ele>
        <time>2019-06-23T06:47:55.000Z</time>
      </trkpt>
      <trkpt lat="43.25991" lon="2.46544">
        <ele>199.3</ele>
        <time>2019-06-23T06:47:56.000Z</time>
      </trkpt>
      <trkpt lat="43.25991" lon="2.46547">
        <ele>199.2</ele>
        <time>2019-06-23T06:47:57.000Z</time>
      </trkpt>
      <trkpt lat="43.25991" lon="2.46551">
        <ele>199.2</ele>
        <time>2019-06-23T06:47:58.000Z</time>
      </trkpt>
      <trkpt lat="43.25991" lon="2.46554">
        <ele>199.1</ele>
        <time>2019-06-23T06:47:59.000Z</time>
      </trkpt>
      <trkpt lat="43.25991" lon="2.46558">
        <ele>199.1</ele>
        <time>2019-06-23T06:48:00.000Z</time>
      </trkpt>
      <trkpt lat="43.25991" lon="2.46562">
        <ele>199</ele>
        <time>2019-06-23T06:48:01.000Z</time>
      </trkpt>
      <trkpt lat="43.25991" lon="2.46565">
        <ele>199</ele>
        <time>2019-06-23T06:48:02.000Z</time>
      </trkpt>
      <trkpt lat="43.25991" lon="2.46569">
        <ele>199</ele>
        <time>2019-06-23T06:48:03.000Z</time>
      </trkpt>
      <trkpt lat="43.25991" lon="2.46572">
        <ele>198.9</ele>
        <time>2019-06-23T06:48:04.000Z</time>
      </trkpt>
      <trkpt lat="43.25992" lon="2.46576">
        <ele>198.9</ele>
        <time>2019-06-23T06:48:05.000Z</time>
      </trkpt>
      <trkpt lat="43.25992" lon="2.4658">
        <ele>198.8</ele>
        <time>2019-06-23T06:48:06.000Z</time>
      </trkpt>
      <trkpt lat="43.25992" lon="2.46583">
        <ele>198.8</ele>
        <time>2019-06-23T06:48:07.000Z</time>
      </trkpt>
      <trkpt lat="43.25992" lon="2.46587">
        <ele>198.8</ele>
        <time>2019-06-23T06:48:08.000Z</time>
      </trkpt>
      <trkpt lat="43.25993" lon="2.4659">
        <ele>198.9</ele>
        <time>2019-06-23T06:48:09.000Z</time>
      </trkpt>
      <trkpt lat="43.25993" lon="2.46594">
        <ele>198.9</ele>
        <time>2019-06-23T06:48:10.000Z</time>
      </trkpt>
      <trkpt lat="43.25993" lon="2.46597">
        <ele>199</ele>
        <time>2019-06-23T06:48:11.000Z</time>
      </trkpt>
      <trkpt lat="43.25994" lon="2.46601">
        <ele>199</ele>
        <time>2019-06-23T06:48:12.000Z</time>
      </trkpt>
      <trkpt lat="43.25994" lon="2.46604">
        <ele>199.1</ele>
        <time>2019-06-23T06:48:13.000Z</time>
      </trkpt>
      <trkpt lat="43.25995" lon="2.46607">
        <ele>199.1</ele>
        <time>2019-06-23T06:48:14.000Z</time>
      </trkpt>
      <trkpt lat="43.25995" lon="2.46611">
        <ele>199.2</ele>
        <time>2019-06-23T06:48:15.000Z</time>
      </trkpt>
      <trkpt lat="43.25995" lon="2.46614">
        <ele>199.2</ele>
        <time>2019-06-23T06:48:16.000Z</time>
      </trkpt>
      <trkpt lat="43.25996" lon="2.46617">
        <ele>199.3</ele>
        <time>2019-06-23T06:48:17.000Z</time>
      </trkpt>
      <trkpt lat="43.25996" lon="2.4662">
        <ele>199.3</ele>
        <time>2019-06-23T06:48:18.000Z</time>
      </trkpt>
      <trkpt lat="43.25997" lon="2.46623">
        <ele>199.4</ele>
        <time>2019-06-23T06:48:19.000Z</time>
      </trkpt>
      <trkpt lat="43.25997" lon="2.46626">
        <ele>199.4</ele>
        <time>2019-06-23T06:48:20.000Z</time>
      </trkpt>
      <trkpt lat="43.25998" lon="2.46629">
        <ele>199.5</ele>
        <time>2019-06-23T06:48:21.000Z</time>
      </trkpt>
      <trkpt lat="43.25998" lon="2.46632">
        <ele>199.5</ele>
        <time>2019-06-23T06:48:22.000Z</time>
      </trkpt>
      <trkpt lat="43.25999" lon="2.46635">
        <ele>199.6</ele>
        <time>2019-06-23T06:48:23.000Z</time>
      </trkpt>
      <trkpt lat="43.25999" lon="2.46638">
        <ele>199.6</ele>
        <time>2019-06-23T06:48:24.000Z</time>
      </trkpt>
      <trkpt lat="43.25999" lon="2.4664">
        <ele>199.6</ele>
        <time>2019-06-23T06:48:25.000Z</time>
      </trkpt>
      <trkpt lat="43.25999" lon="2.46643">
        <ele>199.7</ele>
        <time>2019-06-23T06:48:26.000Z</time>
      </trkpt>
      <trkpt lat="43.26" lon="2.46646">
        <ele>199.7</ele>
        <time>2019-06-23T06:48:27.000Z</time>
      </trkpt>
      <trkpt lat="43.26" lon="2.4665">
        <ele>199.8</ele>
        <time>2019-06-23T06:48:28.000Z</time>
      </trkpt>
      <trkpt lat="43.26" lon="2.46653">
        <ele>199.8</ele>
        <time>2019-06-23T06:48:29.000Z</time>
      </trkpt>
      <trkpt lat="43.26" lon="2.46656">
        <ele>199.8</ele>
        <time>2019-06-23T06:48:30.000Z</time>
      </trkpt>
      <trkpt lat="43.25999" lon="2.46659">
        <ele>199.9</ele>
        <time>2019-06-23T06:48:31.000Z</time>
      </trkpt>
      <trkpt lat="43.25999" lon="2.46663">
        <ele>199.9</ele>
        <time>2019-06-23T06:48:32.000Z</time>
      </trkpt>
      <trkpt lat="43.25999" lon="2.46666">
        <ele>200</ele>
        <time>2019-06-23T06:48:33.000Z</time>
      </trkpt>
      <trkpt lat="43.25999" lon="2.4667">
        <ele>200</ele>
        <time>2019-06-23T06:48:34.000Z</time>
      </trkpt>
      <trkpt lat="43.25999" lon="2.46673">
        <ele>200</ele>
        <time>2019-06-23T06:48:35.000Z</time>
      </trkpt>
      <trkpt lat="43.25999" lon="2.46677">
        <ele>200</ele>
        <time>2019-06-23T06:48:36.000Z</time>
      </trkpt>
      <trkpt lat="43.26" lon="2.4668">
        <ele>200</ele>
        <time>2019-06-23T06:48:37.000Z</time>
      </trkpt>
      <trkpt lat="43.26" lon="2.46683">
        <ele>200</ele>
        <time>2019-06-23T06:48:38.000Z</time>
      </trkpt>
      <trkpt lat="43.26" lon="2.46685">
        <ele>200</ele>
        <time>2019-06-23T06:48:39.000Z</time>
      </trkpt>
      <trkpt lat="43.26001" lon="2.46688">
        <ele>200</ele>
        <time>2019-06-23T06:48:40.000Z</time>
      </trkpt>
      <trkpt lat="43.26002" lon="2.46689">
        <ele>200</ele>
        <time>2019-06-23T06:48:41.000Z</time>
      </trkpt>
      <trkpt lat="43.26003" lon="2.4669">
        <ele>200.1</ele>
        <time>2019-06-23T06:48:42.000Z</time>
      </trkpt>
      <trkpt lat="43.26005" lon="2.4669">
        <ele>200.1</ele>
        <time>2019-06-23T06:48:43.000Z</time>
      </trkpt>
      <trkpt lat="43.26007" lon="2.4669">
        <ele>200.1</ele>
        <time>2019-06-23T06:48:44.000Z</time>
      </trkpt>
      <trkpt lat="43.26009" lon="2.4669">
        <ele>200.2</ele>
        <time>2019-06-23T06:48:45.000Z</time>
      </trkpt>
      <trkpt lat="43.26011" lon="2.46689">
        <ele>200.2</ele>
        <time>2019-06-23T06:48:46.000Z</time>
      </trkpt>
      <trkpt lat="43.26013" lon="2.46688">
        <ele>200.3</ele>
        <time>2019-06-23T06:48:47.000Z</time>
      </trkpt>
      <trkpt lat="43.26015" lon="2.46687">
        <ele>200.3</ele>
        <time>2019-06-23T06:48:48.000Z</time>
      </trkpt>
      <trkpt lat="43.26017" lon="2.46685">
        <ele>200.4</ele>
        <time>2019-06-23T06:48:49.000Z</time>
      </trkpt>
      <trkpt lat="43.26019" lon="2.46684">
        <ele>200.4</ele>
        <time>2019-06-23T06:48:50.000Z</time>
      </trkpt>
      <trkpt lat="43.26022" lon="2.46683">
        <ele>200.5</ele>
        <time>2019-06-23T06:48:51.000Z</time>
      </trkpt>
      <trkpt lat="43.26024" lon="2.46682">
        <ele>200.5</ele>
        <time>2019-06-23T06:48:52.000Z</time>
      </trkpt>
      <trkpt lat="43.26026" lon="2.46681">
        <ele>200.6</ele>
        <time>2019-06-23T06:48:53.000Z</time>
      </trkpt>
      <trkpt lat="43.26028" lon="2.4668">
        <ele>200.6</ele>
        <time>2019-06-23T06:48:54.000Z</time>
      </trkpt>
      <trkpt lat="43.2603" lon="2.46679">
        <ele>200.7</ele>
        <time>2019-06-23T06:48:55.000Z</time>
      </trkpt>
      <trkpt lat="43.26033" lon="2.46678">
        <ele>200.7</ele>
        <time>2019-06-23T06:48:56.000Z</time>
      </trkpt>
      <trkpt lat="43.26035" lon="2.46677">
        <ele>200.8</ele>
        <time>2019-06-23T06:48:57.000Z</time>
      </trkpt>
      <trkpt lat="43.26037" lon="2.46676">
        <ele>200.8</ele>
        <time>2019-06-23T06:48:58.000Z</time>
      </trkpt>
      <trkpt lat="43.26039" lon="2.46675">
        <ele>200.9</ele>
        <time>2019-06-23T06:48:59.000Z</time>
      </trkpt>
      <trkpt lat="43.26042" lon="2.46674">
        <ele>201</ele>
        <time>2019-06-23T06:49:00.000Z</time>
      </trkpt>
      <trkpt lat="43.26044" lon="2.46673">
        <ele>201</ele>
        <time>2019-06-23T06:49:01.000Z</time>
      </trkpt>
      <trkpt lat="43.26046" lon="2.46672">
        <ele>201.1</ele>
        <time>2019-06-23T06:49:02.000Z</time>
      </trkpt>
      <trkpt lat="43.26048" lon="2.46671">
        <ele>201.1</ele>
        <time>2019-06-23T06:49:03.000Z</time>
      </trkpt>
      <trkpt lat="43.26051" lon="2.4667">
        <ele>201.2</ele>
        <time>2019-06-23T06:49:04.000Z</time>
      </trkpt>
      <trkpt lat="43.26053" lon="2.46669">
        <ele>201.3</ele>
        <time>2019-06-23T06:49:05.000Z</time>
      </trkpt>
      <trkpt lat="43.26055" lon="2.46668">
        <ele>201.3</ele>
        <time>2019-06-23T06:49:06.000Z</time>
      </trkpt>
      <trkpt lat="43.26058" lon="2.46668">
        <ele>201.4</ele>
        <time>2019-06-23T06:49:07.000Z</time>
      </trkpt>
      <trkpt lat="43.2606" lon="2.46667">
        <ele>201.4</ele>
        <time>2019-06-23T06:49:08.000Z</time>
      </trkpt>
      <trkpt lat="43.26062" lon="2.46666">
        <ele>201.5</ele>
        <time>2019-06-23T06:49:09.000Z</time>
      </trkpt>
      <trkpt lat="43.26065" lon="2.46665">
        <ele>201.6</ele>
        <time>2019-06-23T06:49:10.000Z</time>
      </trkpt>
      <trkpt lat="43.26067" lon="2.46664">
        <ele>201.6</ele>
        <time>2019-06-23T06:49:11.000Z</time>
      </trkpt>
      <trkpt lat="43.26069" lon="2.46663">
        <ele>201.7</ele>
        <time>2019-06-23T06:49:12.000Z</time>
      </trkpt>
      <trkpt lat="43.26072" lon="2.46662">
        <ele>201.8</ele>
        <time>2019-06-23T06:49:13.000Z</time>
      </trkpt>
      <trkpt lat="43.26074" lon="2.46661">
        <ele>201.8</ele>
        <time>2019-06-23T06:49:14.000Z</time>
      </trkpt>
      <trkpt lat="43.26077" lon="2.46661">
        <ele>201.9</ele>
        <time>2019-06-23T06:49:15.000Z</time>
      </trkpt>
      <trkpt lat="43.26079" lon="2.4666">
        <ele>202</ele>
        <time>2019-06-23T06:49:16.000Z</time>
      </trkpt>
      <trkpt lat="43.26081" lon="2.46659">
        <ele>202</ele>
        <time>2019-06-23T06:49:17.000Z</time>
      </trkpt>
      <trkpt lat="43.26084" lon="2.46658">
        <ele>202.1</ele>
        <time>2019-06-23T06:49:18.000Z</time>
      </trkpt>
      <trkpt lat="43.26086" lon="2.46657">
        <ele>202.3</ele>
        <time>2019-06-23T06:49:19.000Z</time>
      </trkpt>
      <trkpt lat="43.26089" lon="2.46657">
        <ele>202.4</ele>
        <time>2019-06-23T06:49:20.000Z</time>
      </trkpt>
      <trkpt lat="43.26091" lon="2.46656">
        <ele>202.5</ele>
        <time>2019-06-23T06:49:21.000Z</time>
      </trkpt>
      <trkpt lat="43.26094" lon="2.46655">
        <ele>202.6</ele>
        <time>2019-06-23T06:49:22.000Z</time>
      </trkpt>
      <trkpt lat="43.26096" lon="2.46654">
        <ele>202.8</ele>
        <time>2019-06-23T06:49:23.000Z</time>
      </trkpt>
      <trkpt lat="43.26098" lon="2.46653">
        <ele>202.9</ele>
        <time>2019-06-23T06:49:24.000Z</time>
      </trkpt>
      <trkpt lat="43.26101" lon="2.46653">
        <ele>203</ele>
        <time>2019-06-23T06:49:25.000Z</time>
      </trkpt>
      <trkpt lat="43.26103" lon="2.46652">
        <ele>203.1</ele>
        <time>2019-06-23T06:49:26.000Z</time>
      </trkpt>
      <trkpt lat="43.26106" lon="2.46651">
        <ele>203.3</ele>
        <time>2019-06-23T06:49:27.000Z</time>
      </trkpt>
      <trkpt lat="43.26108" lon="2.4665">
        <ele>203.4</ele>
        <time>2019-06-23T06:49:28.000Z</time>
      </trkpt>
      <trkpt lat="43.26111" lon="2.4665">
        <ele>203.5</ele>
        <time>2019-06-23T06:49:29.000Z</time>
      </trkpt>
      <trkpt lat="43.26113" lon="2.46649">
        <ele>203.6</ele>
        <time>2019-06-23T06:49:30.000Z</time>
      </trkpt>
      <trkpt lat="43.26115" lon="2.46648">
        <ele>203.8</ele>
        <time>2019-06-23T06:49:31.000Z</time>
      </trkpt>
      <trkpt lat="43.26118" lon="2.46647">
        <ele>203.9</ele>
        <time>2019-06-23T06:49:32.000Z</time>
      </trkpt>
      <trkpt lat="43.2612" lon="2.46647">
        <ele>204</ele>
        <time>2019-06-23T06:49:33.000Z</time>
      </trkpt>
      <trkpt lat="43.26123" lon="2.46646">
        <ele>204.1</ele>
        <time>2019-06-23T06:49:34.000Z</time>
      </trkpt>
      <trkpt lat="43.26125" lon="2.46645">
        <ele>204.3</ele>
        <time>2019-06-23T06:49:35.000Z</time>
      </trkpt>
      <trkpt lat="43.26128" lon="2.46644">
        <ele>204.4</ele>
        <time>2019-06-23T06:49:36.000Z</time>
      </trkpt>
      <trkpt lat="43.2613" lon="2.46644">
        <ele>204.5</ele>
        <time>2019-06-23T06:49:37.000Z</time>
      </trkpt>
      <trkpt lat="43.26132" lon="2.46643">
        <ele>204.6</ele>
        <time>2019-06-23T06:49:38.000Z</time>
      </trkpt>
      <trkpt lat="43.26135" lon="2.46642">
        <ele>204.8</ele>
        <time>2019-06-23T06:49:39.000Z</time>
      </trkpt>
      <trkpt lat="43.26137" lon="2.46641">
        <ele>204.9</ele>
        <time>2019-06-23T06:49:40.000Z</time>
      </trkpt>
      <trkpt lat="43.2614" lon="2.46641">
        <ele>205</ele>
        <time>2019-06-23T06:49:41.000Z</time>
      </trkpt>
      <trkpt lat="43.26142" lon="2.4664">
        <ele>205.1</ele>
        <time>2019-06-23T06:49:42.000Z</time>
      </trkpt>
      <trkpt lat="43.26145" lon="2.46639">
        <ele>205.3</ele>
        <time>2019-06-23T06:49:43.000Z</time>
      </trkpt>
      <trkpt lat="43.26147" lon="2.46638">
        <ele>205.4</ele>
        <time>2019-06-23T06:49:44.000Z</time>
      </trkpt>
      <trkpt lat="43.26149" lon="2.46638">
        <ele>205.5</ele>
        <time>2019-06-23T06:49:45.000Z</time>
      </trkpt>
      <trkpt lat="43.26152" lon="2.46637">
        <ele>205.6</ele>
        <time>2019-06-23T06:49:46.000Z</time>
      </trkpt>
      <trkpt lat="43.26154" lon="2.46636">
        <ele>205.8</ele>
        <time>2019-06-23T06:49:47.000Z</time>
      </trkpt>
      <trkpt lat="43.26156" lon="2.46635">
        <ele>205.9</ele>
        <time>2019-06-23T06:49:48.000Z</time>
      </trkpt>
      <trkpt lat="43.26159" lon="2.46634">
        <ele>206</ele>
        <time>2019-06-23T06:49:49.000Z</time>
      </trkpt>
      <trkpt lat="43.26161" lon="2.46633">
        <ele>206.1</ele>
        <time>2019-06-23T06:49:50.000Z</time>
      </trkpt>
      <trkpt lat="43.26163" lon="2.46632">
        <ele>206.2</ele>
        <time>2019-06-23T06:49:51.000Z</time>
      </trkpt>
      <trkpt lat="43.26165" lon="2.46631">
        <ele>206.4</ele>
        <time>2019-06-23T06:49:52.000Z</time>
      </trkpt>
      <trkpt lat="43.26168" lon="2.46631">
        <ele>206.5</ele>
        <time>2019-06-23T06:49:53.000Z</time>
      </trkpt>
      <trkpt lat="43.2617" lon="2.4663">
        <ele>206.5</ele>
        <time>2019-06-23T06:49:54.000Z</time>
      </trkpt>
      <trkpt lat="43.26172" lon="2.46629">
        <ele>206.6</ele>
        <time>2019-06-23T06:49:55.000Z</time>
      </trkpt>
      <trkpt lat="43.26175" lon="2.46629">
        <ele>206.7</ele>
        <time>2019-06-23T06:49:56.000Z</time>
      </trkpt>
      <trkpt lat="43.26177" lon="2.46628">
        <ele>206.8</ele>
        <time>2019-06-23T06:49:57.000Z</time>
      </trkpt>
      <trkpt lat="43.2618" lon="2.46628">
        <ele>206.8</ele>
        <time>2019-06-23T06:49:58.000Z</time>
      </trkpt>
      <trkpt lat="43.26182" lon="2.46627">
        <ele>206.9</ele>
        <time>2019-06-23T06:49:59.000Z</time>
      </trkpt>
      <trkpt lat="43.26184" lon="2.46627">
        <ele>207</ele>
        <time>2019-06-23T06:50:00.000Z</time>
      </trkpt>
      <trkpt lat="43.26186" lon="2.46626">
        <ele>207.1</ele>
        <time>2019-06-23T06:50:01.000Z</time>
      </trkpt>
      <trkpt lat="43.26188" lon="2.46625">
        <ele>207.1</ele>
        <time>2019-06-23T06:50:02.000Z</time>
      </trkpt>
      <trkpt lat="43.2619" lon="2.46625">
        <ele>207.2</ele>
        <time>2019-06-23T06:50:03.000Z</time>
      </trkpt>
      <trkpt lat="43.26192" lon="2.46624">
        <ele>207.3</ele>
        <time>2019-06-23T06:50:04.000Z</time>
      </trkpt>
      <trkpt lat="43.26194" lon="2.46624">
        <ele>207.4</ele>
        <time>2019-06-23T06:50:05.000Z</time>
      </trkpt>
      <trkpt lat="43.26197" lon="2.46623">
        <ele>207.4</ele>
        <time>2019-06-23T06:50:06.000Z</time>
      </trkpt>
      <trkpt lat="43.26199" lon="2.46623">
        <ele>207.5</ele>
        <time>2019-06-23T06:50:07.000Z</time>
      </trkpt>
      <trkpt lat="43.26201" lon="2.46622">
        <ele>207.6</ele>
        <time>2019-06-23T06:50:08.000Z</time>
      </trkpt>
      <trkpt lat="43.26203" lon="2.46622">
        <ele>207.7</ele>
        <time>2019-06-23T06:50:09.000Z</time>
      </trkpt>
      <trkpt lat="43.26206" lon="2.46622">
        <ele>207.8</ele>
        <time>2019-06-23T06:50:10.000Z</time>
      </trkpt>
      <trkpt lat="43.26208" lon="2.46621">
        <ele>207.9</ele>
        <time>2019-06-23T06:50:11.000Z</time>
      </trkpt>
      <trkpt lat="43.26211" lon="2.46621">
        <ele>208</ele>
        <time>2019-06-23T06:50:12.000Z</time>
      </trkpt>
      <trkpt lat="43.26213" lon="2.4662">
        <ele>208</ele>
        <time>2019-06-23T06:50:13.000Z</time>
      </trkpt>
      <trkpt lat="43.26215" lon="2.46619">
        <ele>208.1</ele>
        <time>2019-06-23T06:50:14.000Z</time>
      </trkpt>
      <trkpt lat="43.26218" lon="2.46619">
        <ele>208.2</ele>
        <time>2019-06-23T06:50:15.000Z</time>
      </trkpt>
      <trkpt lat="43.2622" lon="2.46618">
        <ele>208.4</ele>
        <time>2019-06-23T06:50:16.000Z</time>
      </trkpt>
      <trkpt lat="43.26222" lon="2.46617">
        <ele>208.5</ele>
        <time>2019-06-23T06:50:17.000Z</time>
      </trkpt>
      <trkpt lat="43.26225" lon="2.46616">
        <ele>208.6</ele>
        <time>2019-06-23T06:50:18.000Z</time>
      </trkpt>
      <trkpt lat="43.26227" lon="2.46615">
        <ele>208.7</ele>
        <time>2019-06-23T06:50:19.000Z</time>
      </trkpt>
      <trkpt lat="43.26229" lon="2.46614">
        <ele>208.8</ele>
        <time>2019-06-23T06:50:20.000Z</time>
      </trkpt>
      <trkpt lat="43.26231" lon="2.46613">
        <ele>208.9</ele>
        <time>2019-06-23T06:50:21.000Z</time>
      </trkpt>
      <trkpt lat="43.26234" lon="2.46613">
        <ele>209</ele>
        <time>2019-06-23T06:50:22.000Z</time>
      </trkpt>
      <trkpt lat="43.26236" lon="2.46612">
        <ele>209.1</ele>
        <time>2019-06-23T06:50:23.000Z</time>
      </trkpt>
      <trkpt lat="43.26238" lon="2.46611">
        <ele>209.2</ele>
        <time>2019-06-23T06:50:24.000Z</time>
      </trkpt>
      <trkpt lat="43.2624" lon="2.4661">
        <ele>209.3</ele>
        <time>2019-06-23T06:50:25.000Z</time>
      </trkpt>
      <trkpt lat="43.26242" lon="2.46609">
        <ele>209.5</ele>
        <time>2019-06-23T06:50:26.000Z</time>
      </trkpt>
      <trkpt lat="43.26244" lon="2.46609">
        <ele>209.6</ele>
        <time>2019-06-23T06:50:27.000Z</time>
      </trkpt>
      <trkpt lat="43.26246" lon="2.46608">
        <ele>209.7</ele>
        <time>2019-06-23T06:50:28.000Z</time>
      </trkpt>
      <trkpt lat="43.26248" lon="2.46607">
        <ele>209.8</ele>
        <time>2019-06-23T06:50:29.000Z</time>
      </trkpt>
      <trkpt lat="43.2625" lon="2.46607">
        <ele>209.9</ele>
        <time>2019-06-23T06:50:30.000Z</time>
      </trkpt>
      <trkpt lat="43.26252" lon="2.46606">
        <ele>209.8</ele>
        <time>2019-06-23T06:50:31.000Z</time>
      </trkpt>
      <trkpt lat="43.26255" lon="2.46605">
        <ele>209.8</ele>
        <time>2019-06-23T06:50:32.000Z</time>
      </trkpt>
      <trkpt lat="43.26257" lon="2.46605">
        <ele>209.7</ele>
        <time>2019-06-23T06:50:33.000Z</time>
      </trkpt>
      <trkpt lat="43.26259" lon="2.46604">
        <ele>209.7</ele>
        <time>2019-06-23T06:50:34.000Z</time>
      </trkpt>
      <trkpt lat="43.26261" lon="2.46603">
        <ele>209.6</ele>
        <time>2019-06-23T06:50:35.000Z</time>
      </trkpt>
      <trkpt lat="43.26263" lon="2.46603">
        <ele>209.6</ele>
        <time>2019-06-23T06:50:36.000Z</time>
      </trkpt>
      <trkpt lat="43.26266" lon="2.46602">
        <ele>209.5</ele>
        <time>2019-06-23T06:50:37.000Z</time>
      </trkpt>
      <trkpt lat="43.26268" lon="2.46601">
        <ele>209.5</ele>
        <time>2019-06-23T06:50:38.000Z</time>
      </trkpt>
      <trkpt lat="43.2627" lon="2.466">
        <ele>209.4</ele>
        <time>2019-06-23T06:50:39.000Z</time>
      </trkpt>
      <trkpt lat="43.26272" lon="2.46599">
        <ele>209.4</ele>
        <time>2019-06-23T06:50:40.000Z</time>
      </trkpt>
      <trkpt lat="43.26274" lon="2.46598">
        <ele>209.3</ele>
        <time>2019-06-23T06:50:41.000Z</time>
      </trkpt>
      <trkpt lat="43.26276" lon="2.46597">
        <ele>209.3</ele>
        <time>2019-06-23T06:50:42.000Z</time>
      </trkpt>
      <trkpt lat="43.26277" lon="2.46597">
        <ele>209.3</ele>
        <time>2019-06-23T06:50:43.000Z</time>
      </trkpt>
      <trkpt lat="43.26279" lon="2.46596">
        <ele>209.2</ele>
        <time>2019-06-23T06:50:44.000Z</time>
      </trkpt>
      <trkpt lat="43.26281" lon="2.46595">
        <ele>209.2</ele>
        <time>2019-06-23T06:50:45.000Z</time>
      </trkpt>
      <trkpt lat="43.26283" lon="2.46593">
        <ele>209.1</ele>
        <time>2019-06-23T06:50:46.000Z</time>
      </trkpt>
      <trkpt lat="43.26285" lon="2.46592">
        <ele>209.1</ele>
        <time>2019-06-23T06:50:47.000Z</time>
      </trkpt>
      <trkpt lat="43.26287" lon="2.46591">
        <ele>209</ele>
        <time>2019-06-23T06:50:48.000Z</time>
      </trkpt>
      <trkpt lat="43.2629" lon="2.4659">
        <ele>208.9</ele>
        <time>2019-06-23T06:50:49.000Z</time>
      </trkpt>
      <trkpt lat="43.26292" lon="2.46589">
        <ele>208.8</ele>
        <time>2019-06-23T06:50:50.000Z</time>
      </trkpt>
      <trkpt lat="43.26295" lon="2.46588">
        <ele>208.7</ele>
        <time>2019-06-23T06:50:51.000Z</time>
      </trkpt>
      <trkpt lat="43.26297" lon="2.46587">
        <ele>208.6</ele>
        <time>2019-06-23T06:50:52.000Z</time>
      </trkpt>
      <trkpt lat="43.263" lon="2.46586">
        <ele>208.5</ele>
        <time>2019-06-23T06:50:53.000Z</time>
      </trkpt>
      <trkpt lat="43.26302" lon="2.46586">
        <ele>208.4</ele>
        <time>2019-06-23T06:50:54.000Z</time>
      </trkpt>
      <trkpt lat="43.26305" lon="2.46585">
        <ele>208.3</ele>
        <time>2019-06-23T06:50:55.000Z</time>
      </trkpt>
      <trkpt lat="43.26307" lon="2.46584">
        <ele>208.2</ele>
        <time>2019-06-23T06:50:56.000Z</time>
      </trkpt>
      <trkpt lat="43.2631" lon="2.46583">
        <ele>208.1</ele>
        <time>2019-06-23T06:50:57.000Z</time>
      </trkpt>
      <trkpt lat="43.26312" lon="2.46583">
        <ele>208</ele>
        <time>2019-06-23T06:50:58.000Z</time>
      </trkpt>
      <trkpt lat="43.26315" lon="2.46582">
        <ele>207.9</ele>
        <time>2019-06-23T06:50:59.000Z</time>
      </trkpt>
      <trkpt lat="43.26318" lon="2.46581">
        <ele>207.8</ele>
        <time>2019-06-23T06:51:00.000Z</time>
      </trkpt>
      <trkpt lat="43.26321" lon="2.4658">
        <ele>207.7</ele>
        <time>2019-06-23T06:51:01.000Z</time>
      </trkpt>
      <trkpt lat="43.26324" lon="2.4658">
        <ele>207.6</ele>
        <time>2019-06-23T06:51:02.000Z</time>
      </trkpt>
      <trkpt lat="43.26327" lon="2.46579">
        <ele>207.5</ele>
        <time>2019-06-23T06:51:03.000Z</time>
      </trkpt>
      <trkpt lat="43.2633" lon="2.46578">
        <ele>207.4</ele>
        <time>2019-06-23T06:51:04.000Z</time>
      </trkpt>
      <trkpt lat="43.26332" lon="2.46577">
        <ele>207.3</ele>
        <time>2019-06-23T06:51:05.000Z</time>
      </trkpt>
      <trkpt lat="43.26335" lon="2.46577">
        <ele>207.3</ele>
        <time>2019-06-23T06:51:06.000Z</time>
      </trkpt>
      <trkpt lat="43.26337" lon="2.46576">
        <ele>207.3</ele>
        <time>2019-06-23T06:51:07.000Z</time>
      </trkpt>
      <trkpt lat="43.2634" lon="2.46575">
        <ele>207.4</ele>
        <time>2019-06-23T06:51:08.000Z</time>
      </trkpt>
      <trkpt lat="43.26342" lon="2.46574">
        <ele>207.5</ele>
        <time>2019-06-23T06:51:09.000Z</time>
      </trkpt>
      <trkpt lat="43.26343" lon="2.46573">
        <ele>207.5</ele>
        <time>2019-06-23T06:51:10.000Z</time>
      </trkpt>
      <trkpt lat="43.26346" lon="2.46572">
        <ele>207.6</ele>
        <time>2019-06-23T06:51:11.000Z</time>
      </trkpt>
      <trkpt lat="43.26348" lon="2.46571">
        <ele>207.6</ele>
        <time>2019-06-23T06:51:12.000Z</time>
      </trkpt>
      <trkpt lat="43.2635" lon="2.4657">
        <ele>207.7</ele>
        <time>2019-06-23T06:51:13.000Z</time>
      </trkpt>
      <trkpt lat="43.26353" lon="2.46569">
        <ele>207.7</ele>
        <time>2019-06-23T06:51:14.000Z</time>
      </trkpt>
      <trkpt lat="43.26356" lon="2.46568">
        <ele>207.8</ele>
        <time>2019-06-23T06:51:15.000Z</time>
      </trkpt>
      <trkpt lat="43.26358" lon="2.46567">
        <ele>207.8</ele>
        <time>2019-06-23T06:51:16.000Z</time>
      </trkpt>
      <trkpt lat="43.2636" lon="2.46566">
        <ele>207.9</ele>
        <time>2019-06-23T06:51:17.000Z</time>
      </trkpt>
      <trkpt lat="43.26363" lon="2.46565">
        <ele>207.9</ele>
        <time>2019-06-23T06:51:18.000Z</time>
      </trkpt>
      <trkpt lat="43.26365" lon="2.46564">
        <ele>207.9</ele>
        <time>2019-06-23T06:51:19.000Z</time>
      </trkpt>
      <trkpt lat="43.26367" lon="2.46563">
        <ele>207.9</ele>
        <time>2019-06-23T06:51:20.000Z</time>
      </trkpt>
      <trkpt lat="43.26369" lon="2.46562">
        <ele>208</ele>
        <time>2019-06-23T06:51:21.000Z</time>
      </trkpt>
      <trkpt lat="43.26372" lon="2.46561">
        <ele>208</ele>
        <time>2019-06-23T06:51:22.000Z</time>
      </trkpt>
      <trkpt lat="43.26374" lon="2.4656">
        <ele>208</ele>
        <time>2019-06-23T06:51:23.000Z</time>
      </trkpt>
      <trkpt lat="43.26376" lon="2.46559">
        <ele>208</ele>
        <time>2019-06-23T06:51:24.000Z</time>
      </trkpt>
      <trkpt lat="43.26378" lon="2.46558">
        <ele>208</ele>
        <time>2019-06-23T06:51:25.000Z</time>
      </trkpt>
      <trkpt lat="43.26381" lon="2.46557">
        <ele>208</ele>
        <time>2019-06-23T06:51:26.000Z</time>
      </trkpt>
      <trkpt lat="43.26383" lon="2.46556">
        <ele>208</ele>
        <time>2019-06-23T06:51:27.000Z</time>
      </trkpt>
      <trkpt lat="43.26385" lon="2.46555">
        <ele>208</ele>
        <time>2019-06-23T06:51:28.000Z</time>
      </trkpt>
      <trkpt lat="43.26388" lon="2.46554">
        <ele>208</ele>
        <time>2019-06-23T06:51:29.000Z</time>
      </trkpt>
      <trkpt lat="43.2639" lon="2.46552">
        <ele>208</ele>
        <time>2019-06-23T06:51:30.000Z</time>
      </trkpt>
      <trkpt lat="43.26392" lon="2.46551">
        <ele>207.9</ele>
        <time>2019-06-23T06:51:31.000Z</time>
      </trkpt>
      <trkpt lat="43.26394" lon="2.46549">
        <ele>207.9</ele>
        <time>2019-06-23T06:51:32.000Z</time>
      </trkpt>
      <trkpt lat="43.26396" lon="2.46548">
        <ele>207.9</ele>
        <time>2019-06-23T06:51:33.000Z</time>
      </trkpt>
      <trkpt lat="43.26398" lon="2.46546">
        <ele>207.8</ele>
        <time>2019-06-23T06:51:34.000Z</time>
      </trkpt>
      <trkpt lat="43.264" lon="2.46545">
        <ele>207.8</ele>
        <time>2019-06-23T06:51:35.000Z</time>
      </trkpt>
      <trkpt lat="43.26401" lon="2.46543">
        <ele>207.7</ele>
        <time>2019-06-23T06:51:36.000Z</time>
      </trkpt>
      <trkpt lat="43.26403" lon="2.46542">
        <ele>207.7</ele>
        <time>2019-06-23T06:51:37.000Z</time>
      </trkpt>
      <trkpt lat="43.26404" lon="2.46541">
        <ele>207.6</ele>
        <time>2019-06-23T06:51:38.000Z</time>
      </trkpt>
      <trkpt lat="43.26406" lon="2.46539">
        <ele>207.6</ele>
        <time>2019-06-23T06:51:39.000Z</time>
      </trkpt>
      <trkpt lat="43.26407" lon="2.46538">
        <ele>207.5</ele>
        <time>2019-06-23T06:51:40.000Z</time>
      </trkpt>
      <trkpt lat="43.26408" lon="2.46537">
        <ele>207.5</ele>
        <time>2019-06-23T06:51:41.000Z</time>
      </trkpt>
      <trkpt lat="43.26409" lon="2.46536">
        <ele>207.4</ele>
        <time>2019-06-23T06:51:42.000Z</time>
      </trkpt>
      <trkpt lat="43.2641" lon="2.46535">
        <ele>207.4</ele>
        <time>2019-06-23T06:51:43.000Z</time>
      </trkpt>
      <trkpt lat="43.26411" lon="2.46534">
        <ele>207.3</ele>
        <time>2019-06-23T06:51:44.000Z</time>
      </trkpt>
      <trkpt lat="43.26412" lon="2.46533">
        <ele>207.3</ele>
        <time>2019-06-23T06:51:45.000Z</time>
      </trkpt>
      <trkpt lat="43.26413" lon="2.46532">
        <ele>207.2</ele>
        <time>2019-06-23T06:51:46.000Z</time>
      </trkpt>
      <trkpt lat="43.26414" lon="2.46532">
        <ele>207.2</ele>
        <time>2019-06-23T06:51:47.000Z</time>
      </trkpt>
      <trkpt lat="43.26415" lon="2.46531">
        <ele>207.2</ele>
        <time>2019-06-23T06:51:48.000Z</time>
      </trkpt>
      <trkpt lat="43.26415" lon="2.4653">
        <ele>207.1</ele>
        <time>2019-06-23T06:51:49.000Z</time>
      </trkpt>
      <trkpt lat="43.26416" lon="2.4653">
        <ele>207.1</ele>
        <time>2019-06-23T06:51:50.000Z</time>
      </trkpt>
      <trkpt lat="43.26417" lon="2.46529">
        <ele>207</ele>
        <time>2019-06-23T06:51:51.000Z</time>
      </trkpt>
      <trkpt lat="43.26417" lon="2.46529">
        <ele>207</ele>
        <time>2019-06-23T06:51:52.000Z</time>
      </trkpt>
      <trkpt lat="43.26418" lon="2.46528">
        <ele>207</ele>
        <time>2019-06-23T06:51:53.000Z</time>
      </trkpt>
      <trkpt lat="43.26418" lon="2.46528">
        <ele>207</ele>
        <time>2019-06-23T06:51:54.000Z</time>
      </trkpt>
      <trkpt lat="43.26419" lon="2.46527">
        <ele>207</ele>
        <time>2019-06-23T06:51:55.000Z</time>
      </trkpt>
      <trkpt lat="43.26419" lon="2.46527">
        <ele>207</ele>
        <time>2019-06-23T06:51:56.000Z</time>
      </trkpt>
      <trkpt lat="43.2642" lon="2.46527">
        <ele>207</ele>
        <time>2019-06-23T06:51:57.000Z</time>
      </trkpt>
      <trkpt lat="43.26421" lon="2.46527">
        <ele>207</ele>
        <time>2019-06-23T06:51:58.000Z</time>
      </trkpt>
      <trkpt lat="43.26421" lon="2.46526">
        <ele>207</ele>
        <time>2019-06-23T06:51:59.000Z</time>
      </trkpt>
      <trkpt lat="43.26422" lon="2.46526">
        <ele>207</ele>
        <time>2019-06-23T06:52:00.000Z</time>
      </trkpt>
      <trkpt lat="43.26423" lon="2.46526">
        <ele>207</ele>
        <time>2019-06-23T06:52:01.000Z</time>
      </trkpt>
      <trkpt lat="43.26424" lon="2.46526">
        <ele>207</ele>
        <time>2019-06-23T06:52:02.000Z</time>
      </trkpt>
      <trkpt lat="43.26425" lon="2.46526">
        <ele>207</ele>
        <time>2019-06-23T06:52:03.000Z</time>
      </trkpt>
      <trkpt lat="43.26426" lon="2.46526">
        <ele>207</ele>
        <time>2019-06-23T06:52:04.000Z</time>
      </trkpt>
      <trkpt lat="43.26426" lon="2.46526">
        <ele>207.1</ele>
        <time>2019-06-23T06:52:05.000Z</time>
      </trkpt>
      <trkpt lat="43.26427" lon="2.46527">
        <ele>207.1</ele>
        <time>2019-06-23T06:52:06.000Z</time>
      </trkpt>
      <trkpt lat="43.26427" lon="2.46527">
        <ele>207.1</ele>
        <time>2019-06-23T06:52:07.000Z</time>
      </trkpt>
      <trkpt lat="43.26428" lon="2.46527">
        <ele>207.1</ele>
        <time>2019-06-23T06:52:08.000Z</time>
      </trkpt>
      <trkpt lat="43.26428" lon="2.46527">
        <ele>207.1</ele>
        <time>2019-06-23T06:52:09.000Z</time>
      </trkpt>
      <trkpt lat="43.26428" lon="2.46527">
        <ele>207.1</ele>
        <time>2019-06-23T06:52:10.000Z</time>
      </trkpt>
      <trkpt lat="43.26428" lon="2.46527">
        <ele>207.1</ele>
        <time>2019-06-23T06:52:11.000Z</time>
      </trkpt>
      <trkpt lat="43.26428" lon="2.46527">
        <ele>207.1</ele>
        <time>2019-06-23T06:52:12.000Z</time>
      </trkpt>
      <trkpt lat="43.26428" lon="2.46527">
        <ele>207.1</ele>
        <time>2019-06-23T06:52:13.000Z</time>
      </trkpt>
      <trkpt lat="43.26429" lon="2.46528">
        <ele>207.1</ele>
        <time>2019-06-23T06:52:14.000Z</time>
      </trkpt>
      <trkpt lat="43.26429" lon="2.46528">
        <ele>207.1</ele>
        <time>2019-06-23T06:52:15.000Z</time>
      </trkpt>
      <trkpt lat="43.26429" lon="2.46528">
        <ele>207.1</ele>
        <time>2019-06-23T06:52:16.000Z</time>
      </trkpt>
      <trkpt lat="43.26429" lon="2.46528">
        <ele>207.1</ele>
        <time>2019-06-23T06:52:17.000Z</time>
      </trkpt>
      <trkpt lat="43.26429" lon="2.46528">
        <ele>207.1</ele>
        <time>2019-06-23T06:52:18.000Z</time>
      </trkpt>
      <trkpt lat="43.26429" lon="2.46528">
        <ele>207.1</ele>
        <time>2019-06-23T06:52:19.000Z</time>
      </trkpt>
      <trkpt lat="43.26429" lon="2.46527">
        <ele>207.1</ele>
        <time>2019-06-23T06:52:20.000Z</time>
      </trkpt>
      <trkpt lat="43.26428" lon="2.46527">
        <ele>207.1</ele>
        <time>2019-06-23T06:52:21.000Z</time>
      </trkpt>
      <trkpt lat="43.26428" lon="2.46527">
        <ele>207.1</ele>
        <time>2019-06-23T06:52:22.000Z</time>
      </trkpt>
      <trkpt lat="43.26428" lon="2.46527">
        <ele>207.1</ele>
        <time>2019-06-23T06:52:23.000Z</time>
      </trkpt>
      <trkpt lat="43.26428" lon="2.46527">
        <ele>207.1</ele>
        <time>2019-06-23T06:52:24.000Z</time>
      </trkpt>
      <trkpt lat="43.26428" lon="2.46527">
        <ele>207.1</ele>
        <time>2019-06-23T06:52:25.000Z</time>
      </trkpt>
      <trkpt lat="43.26428" lon="2.46527">
        <ele>207.1</ele>
        <time>2019-06-23T06:52:26.000Z</time>
      </trkpt>
      <trkpt lat="43.26428" lon="2.46527">
        <ele>207.1</ele>
        <time>2019-06-23T06:52:27.000Z</time>
      </trkpt>
      <trkpt lat="43.26428" lon="2.46527">
        <ele>207.1</ele>
        <time>2019-06-23T06:52:28.000Z</time>
      </trkpt>
      <trkpt lat="43.26429" lon="2.46527">
        <ele>207.1</ele>
        <time>2019-06-23T06:52:29.000Z</time>
      </trkpt>
      <trkpt lat="43.26429" lon="2.46527">
        <ele>207.1</ele>
        <time>2019-06-23T06:52:30.000Z</time>
      </trkpt>
      <trkpt lat="43.26429" lon="2.46527">
        <ele>207.1</ele>
        <time>2019-06-23T06:52:31.000Z</time>
      </trkpt>
      <trkpt lat="43.26429" lon="2.46527">
        <ele>207.1</ele>
        <time>2019-06-23T06:52:32.000Z</time>
      </trkpt>
      <trkpt lat="43.2643" lon="2.46527">
        <ele>207.1</ele>
        <time>2019-06-23T06:52:33.000Z</time>
      </trkpt>
      <trkpt lat="43.26431" lon="2.46527">
        <ele>207.1</ele>
        <time>2019-06-23T06:52:34.000Z</time>
      </trkpt>
      <trkpt lat="43.26431" lon="2.46526">
        <ele>207.1</ele>
        <time>2019-06-23T06:52:35.000Z</time>
      </trkpt>
      <trkpt lat="43.26432" lon="2.46526">
        <ele>207.1</ele>
        <time>2019-06-23T06:52:36.000Z</time>
      </trkpt>
      <trkpt lat="43.26433" lon="2.46526">
        <ele>207.1</ele>
        <time>2019-06-23T06:52:37.000Z</time>
      </trkpt>
      <trkpt lat="43.26434" lon="2.46525">
        <ele>207.1</ele>
        <time>2019-06-23T06:52:38.000Z</time>
      </trkpt>
      <trkpt lat="43.26436" lon="2.46525">
        <ele>207.1</ele>
        <time>2019-06-23T06:52:39.000Z</time>
      </trkpt>
      <trkpt lat="43.26438" lon="2.46524">
        <ele>207</ele>
        <time>2019-06-23T06:52:40.000Z</time>
      </trkpt>
      <trkpt lat="43.26439" lon="2.46523">
        <ele>207</ele>
        <time>2019-06-23T06:52:41.000Z</time>
      </trkpt>
      <trkpt lat="43.26441" lon="2.46522">
        <ele>207</ele>
        <time>2019-06-23T06:52:42.000Z</time>
      </trkpt>
      <trkpt lat="43.26443" lon="2.46522">
        <ele>206.9</ele>
        <time>2019-06-23T06:52:43.000Z</time>
      </trkpt>
      <trkpt lat="43.26445" lon="2.46521">
        <ele>206.9</ele>
        <time>2019-06-23T06:52:44.000Z</time>
      </trkpt>
      <trkpt lat="43.26448" lon="2.4652">
        <ele>206.9</ele>
        <time>2019-06-23T06:52:45.000Z</time>
      </trkpt>
      <trkpt lat="43.2645" lon="2.46519">
        <ele>206.8</ele>
        <time>2019-06-23T06:52:46.000Z</time>
      </trkpt>
      <trkpt lat="43.26452" lon="2.46518">
        <ele>206.8</ele>
        <time>2019-06-23T06:52:47.000Z</time>
      </trkpt>
      <trkpt lat="43.26455" lon="2.46517">
        <ele>206.7</ele>
        <time>2019-06-23T06:52:48.000Z</time>
      </trkpt>
      <trkpt lat="43.26457" lon="2.46516">
        <ele>206.6</ele>
        <time>2019-06-23T06:52:49.000Z</time>
      </trkpt>
      <trkpt lat="43.26459" lon="2.46515">
        <ele>206.6</ele>
        <time>2019-06-23T06:52:50.000Z</time>
      </trkpt>
      <trkpt lat="43.26461" lon="2.46514">
        <ele>206.5</ele>
        <time>2019-06-23T06:52:51.000Z</time>
      </trkpt>
      <trkpt lat="43.26463" lon="2.46513">
        <ele>206.4</ele>
        <time>2019-06-23T06:52:52.000Z</time>
      </trkpt>
      <trkpt lat="43.26466" lon="2.46511">
        <ele>206.3</ele>
        <time>2019-06-23T06:52:53.000Z</time>
      </trkpt>
      <trkpt lat="43.26468" lon="2.4651">
        <ele>206.2</ele>
        <time>2019-06-23T06:52:54.000Z</time>
      </trkpt>
      <trkpt lat="43.2647" lon="2.46508">
        <ele>206.1</ele>
        <time>2019-06-23T06:52:55.000Z</time>
      </trkpt>
      <trkpt lat="43.26472" lon="2.46507">
        <ele>205.9</ele>
        <time>2019-06-23T06:52:56.000Z</time>
      </trkpt>
      <trkpt lat="43.26474" lon="2.46505">
        <ele>205.7</ele>
        <time>2019-06-23T06:52:57.000Z</time>
      </trkpt>
      <trkpt lat="43.26476" lon="2.46503">
        <ele>205.5</ele>
        <time>2019-06-23T06:52:58.000Z</time>
      </trkpt>
      <trkpt lat="43.26478" lon="2.46501">
        <ele>205.3</ele>
        <time>2019-06-23T06:52:59.000Z</time>
      </trkpt>
      <trkpt lat="43.26479" lon="2.46499">
        <ele>205.1</ele>
        <time>2019-06-23T06:53:00.000Z</time>
      </trkpt>
      <trkpt lat="43.26481" lon="2.46496">
        <ele>204.9</ele>
        <time>2019-06-23T06:53:01.000Z</time>
      </trkpt>
      <trkpt lat="43.26483" lon="2.46494">
        <ele>204.7</ele>
        <time>2019-06-23T06:53:02.000Z</time>
      </trkpt>
      <trkpt lat="43.26485" lon="2.46492">
        <ele>204.5</ele>
        <time>2019-06-23T06:53:03.000Z</time>
      </trkpt>
      <trkpt lat="43.26487" lon="2.46489">
        <ele>204.3</ele>
        <time>2019-06-23T06:53:04.000Z</time>
      </trkpt>
      <trkpt lat="43.26489" lon="2.46487">
        <ele>204</ele>
        <time>2019-06-23T06:53:05.000Z</time>
      </trkpt>
      <trkpt lat="43.2649" lon="2.46485">
        <ele>203.8</ele>
        <time>2019-06-23T06:53:06.000Z</time>
      </trkpt>
      <trkpt lat="43.26492" lon="2.46482">
        <ele>203.5</ele>
        <time>2019-06-23T06:53:07.000Z</time>
      </trkpt>
      <trkpt lat="43.26494" lon="2.4648">
        <ele>203.3</ele>
        <time>2019-06-23T06:53:08.000Z</time>
      </trkpt>
      <trkpt lat="43.26496" lon="2.46477">
        <ele>203</ele>
        <time>2019-06-23T06:53:09.000Z</time>
      </trkpt>
      <trkpt lat="43.26497" lon="2.46475">
        <ele>202.7</ele>
        <time>2019-06-23T06:53:10.000Z</time>
      </trkpt>
      <trkpt lat="43.26499" lon="2.46472">
        <ele>202.4</ele>
        <time>2019-06-23T06:53:11.000Z</time>
      </trkpt>
      <trkpt lat="43.26501" lon="2.46469">
        <ele>202.1</ele>
        <time>2019-06-23T06:53:12.000Z</time>
      </trkpt>
      <trkpt lat="43.26502" lon="2.46467">
        <ele>201.9</ele>
        <time>2019-06-23T06:53:13.000Z</time>
      </trkpt>
      <trkpt lat="43.26504" lon="2.46464">
        <ele>201.7</ele>
        <time>2019-06-23T06:53:14.000Z</time>
      </trkpt>
      <trkpt lat="43.26506" lon="2.46461">
        <ele>201.5</ele>
        <time>2019-06-23T06:53:15.000Z</time>
      </trkpt>
      <trkpt lat="43.26507" lon="2.46458">
        <ele>201.3</ele>
        <time>2019-06-23T06:53:16.000Z</time>
      </trkpt>
      <trkpt lat="43.26509" lon="2.46456">
        <ele>201</ele>
        <time>2019-06-23T06:53:17.000Z</time>
      </trkpt>
      <trkpt lat="43.26511" lon="2.46453">
        <ele>200.8</ele>
        <time>2019-06-23T06:53:18.000Z</time>
      </trkpt>
      <trkpt lat="43.26512" lon="2.4645">
        <ele>200.5</ele>
        <time>2019-06-23T06:53:19.000Z</time>
      </trkpt>
      <trkpt lat="43.26514" lon="2.46448">
        <ele>200.3</ele>
        <time>2019-06-23T06:53:20.000Z</time>
      </trkpt>
      <trkpt lat="43.26516" lon="2.46445">
        <ele>200</ele>
        <time>2019-06-23T06:53:21.000Z</time>
      </trkpt>
      <trkpt lat="43.26517" lon="2.46443">
        <ele>199.8</ele>
        <time>2019-06-23T06:53:22.000Z</time>
      </trkpt>
      <trkpt lat="43.26519" lon="2.4644">
        <ele>199.6</ele>
        <time>2019-06-23T06:53:23.000Z</time>
      </trkpt>
      <trkpt lat="43.26521" lon="2.46438">
        <ele>199.3</ele>
        <time>2019-06-23T06:53:24.000Z</time>
      </trkpt>
      <trkpt lat="43.26523" lon="2.46436">
        <ele>199.1</ele>
        <time>2019-06-23T06:53:25.000Z</time>
      </trkpt>
      <trkpt lat="43.26525" lon="2.46435">
        <ele>198.9</ele>
        <time>2019-06-23T06:53:26.000Z</time>
      </trkpt>
      <trkpt lat="43.26527" lon="2.46433">
        <ele>198.7</ele>
        <time>2019-06-23T06:53:27.000Z</time>
      </trkpt>
      <trkpt lat="43.26529" lon="2.46431">
        <ele>198.6</ele>
        <time>2019-06-23T06:53:28.000Z</time>
      </trkpt>
      <trkpt lat="43.26531" lon="2.4643">
        <ele>198.4</ele>
        <time>2019-06-23T06:53:29.000Z</time>
      </trkpt>
      <trkpt lat="43.26533" lon="2.46429">
        <ele>198.3</ele>
        <time>2019-06-23T06:53:30.000Z</time>
      </trkpt>
      <trkpt lat="43.26536" lon="2.46428">
        <ele>198.1</ele>
        <time>2019-06-23T06:53:31.000Z</time>
      </trkpt>
      <trkpt lat="43.26538" lon="2.46427">
        <ele>198</ele>
        <time>2019-06-23T06:53:32.000Z</time>
      </trkpt>
      <trkpt lat="43.26541" lon="2.46426">
        <ele>197.9</ele>
        <time>2019-06-23T06:53:33.000Z</time>
      </trkpt>
      <trkpt lat="43.26543" lon="2.46426">
        <ele>197.8</ele>
        <time>2019-06-23T06:53:34.000Z</time>
      </trkpt>
      <trkpt lat="43.26545" lon="2.46425">
        <ele>197.7</ele>
        <time>2019-06-23T06:53:35.000Z</time>
      </trkpt>
      <trkpt lat="43.26548" lon="2.46424">
        <ele>197.6</ele>
        <time>2019-06-23T06:53:36.000Z</time>
      </trkpt>
      <trkpt lat="43.26551" lon="2.46424">
        <ele>197.5</ele>
        <time>2019-06-23T06:53:37.000Z</time>
      </trkpt>
      <trkpt lat="43.26553" lon="2.46423">
        <ele>197.3</ele>
        <time>2019-06-23T06:53:38.000Z</time>
      </trkpt>
      <trkpt lat="43.26556" lon="2.46422">
        <ele>197.2</ele>
        <time>2019-06-23T06:53:39.000Z</time>
      </trkpt>
      <trkpt lat="43.26558" lon="2.46421">
        <ele>197.1</ele>
        <time>2019-06-23T06:53:40.000Z</time>
      </trkpt>
      <trkpt lat="43.26561" lon="2.46421">
        <ele>196.9</ele>
        <time>2019-06-23T06:53:41.000Z</time>
      </trkpt>
      <trkpt lat="43.26564" lon="2.4642">
        <ele>196.8</ele>
        <time>2019-06-23T06:53:42.000Z</time>
      </trkpt>
      <trkpt lat="43.26566" lon="2.46419">
        <ele>196.6</ele>
        <time>2019-06-23T06:53:43.000Z</time>
      </trkpt>
      <trkpt lat="43.26569" lon="2.46418">
        <ele>196.3</ele>
        <time>2019-06-23T06:53:44.000Z</time>
      </trkpt>
      <trkpt lat="43.26572" lon="2.46417">
        <ele>196.1</ele>
        <time>2019-06-23T06:53:45.000Z</time>
      </trkpt>
      <trkpt lat="43.26574" lon="2.46415">
        <ele>196</ele>
        <time>2019-06-23T06:53:46.000Z</time>
      </trkpt>
      <trkpt lat="43.26577" lon="2.46414">
        <ele>195.9</ele>
        <time>2019-06-23T06:53:47.000Z</time>
      </trkpt>
      <trkpt lat="43.2658" lon="2.46413">
        <ele>195.8</ele>
        <time>2019-06-23T06:53:48.000Z</time>
      </trkpt>
      <trkpt lat="43.26582" lon="2.46412">
        <ele>195.7</ele>
        <time>2019-06-23T06:53:49.000Z</time>
      </trkpt>
      <trkpt lat="43.26585" lon="2.4641">
        <ele>195.6</ele>
        <time>2019-06-23T06:53:50.000Z</time>
      </trkpt>
      <trkpt lat="43.26588" lon="2.46409">
        <ele>195.6</ele>
        <time>2019-06-23T06:53:51.000Z</time>
      </trkpt>
      <trkpt lat="43.2659" lon="2.46408">
        <ele>195.6</ele>
        <time>2019-06-23T06:53:52.000Z</time>
      </trkpt>
      <trkpt lat="43.26593" lon="2.46407">
        <ele>195.5</ele>
        <time>2019-06-23T06:53:53.000Z</time>
      </trkpt>
      <trkpt lat="43.26595" lon="2.46405">
        <ele>195.5</ele>
        <time>2019-06-23T06:53:54.000Z</time>
      </trkpt>
      <trkpt lat="43.26598" lon="2.46404">
        <ele>195.4</ele>
        <time>2019-06-23T06:53:55.000Z</time>
      </trkpt>
      <trkpt lat="43.266" lon="2.46403">
        <ele>195.4</ele>
        <time>2019-06-23T06:53:56.000Z</time>
      </trkpt>
      <trkpt lat="43.26603" lon="2.46402">
        <ele>195.4</ele>
        <time>2019-06-23T06:53:57.000Z</time>
      </trkpt>
      <trkpt lat="43.26605" lon="2.464">
        <ele>195.3</ele>
        <time>2019-06-23T06:53:58.000Z</time>
      </trkpt>
      <trkpt lat="43.26608" lon="2.46399">
        <ele>195.3</ele>
        <time>2019-06-23T06:53:59.000Z</time>
      </trkpt>
      <trkpt lat="43.2661" lon="2.46398">
        <ele>195.2</ele>
        <time>2019-06-23T06:54:00.000Z</time>
      </trkpt>
      <trkpt lat="43.26612" lon="2.46396">
        <ele>195.2</ele>
        <time>2019-06-23T06:54:01.000Z</time>
      </trkpt>
      <trkpt lat="43.26615" lon="2.46394">
        <ele>195.1</ele>
        <time>2019-06-23T06:54:02.000Z</time>
      </trkpt>
      <trkpt lat="43.26617" lon="2.46392">
        <ele>195.1</ele>
        <time>2019-06-23T06:54:03.000Z</time>
      </trkpt>
      <trkpt lat="43.26619" lon="2.46391">
        <ele>195</ele>
        <time>2019-06-23T06:54:04.000Z</time>
      </trkpt>
      <trkpt lat="43.26622" lon="2.46389">
        <ele>195</ele>
        <time>2019-06-23T06:54:05.000Z</time>
      </trkpt>
      <trkpt lat="43.26624" lon="2.46388">
        <ele>194.9</ele>
        <time>2019-06-23T06:54:06.000Z</time>
      </trkpt>
      <trkpt lat="43.26627" lon="2.46386">
        <ele>194.9</ele>
        <time>2019-06-23T06:54:07.000Z</time>
      </trkpt>
      <trkpt lat="43.26629" lon="2.46384">
        <ele>194.8</ele>
        <time>2019-06-23T06:54:08.000Z</time>
      </trkpt>
      <trkpt lat="43.26631" lon="2.46381">
        <ele>194.7</ele>
        <time>2019-06-23T06:54:09.000Z</time>
      </trkpt>
      <trkpt lat="43.26633" lon="2.46378">
        <ele>194.5</ele>
        <time>2019-06-23T06:54:10.000Z</time>
      </trkpt>
      <trkpt lat="43.26635" lon="2.46374">
        <ele>194.4</ele>
        <time>2019-06-23T06:54:11.000Z</time>
      </trkpt>
      <trkpt lat="43.26637" lon="2.46371">
        <ele>194.2</ele>
        <time>2019-06-23T06:54:12.000Z</time>
      </trkpt>
      <trkpt lat="43.26638" lon="2.46367">
        <ele>194.1</ele>
        <time>2019-06-23T06:54:13.000Z</time>
      </trkpt>
      <trkpt lat="43.2664" lon="2.46364">
        <ele>193.9</ele>
        <time>2019-06-23T06:54:14.000Z</time>
      </trkpt>
      <trkpt lat="43.26641" lon="2.46361">
        <ele>193.8</ele>
        <time>2019-06-23T06:54:15.000Z</time>
      </trkpt>
      <trkpt lat="43.26643" lon="2.46357">
        <ele>193.7</ele>
        <time>2019-06-23T06:54:16.000Z</time>
      </trkpt>
      <trkpt lat="43.26644" lon="2.46354">
        <ele>193.5</ele>
        <time>2019-06-23T06:54:17.000Z</time>
      </trkpt>
      <trkpt lat="43.26645" lon="2.46351">
        <ele>193.4</ele>
        <time>2019-06-23T06:54:18.000Z</time>
      </trkpt>
      <trkpt lat="43.26647" lon="2.46349">
        <ele>193.3</ele>
        <time>2019-06-23T06:54:19.000Z</time>
      </trkpt>
      <trkpt lat="43.26648" lon="2.46346">
        <ele>193.2</ele>
        <time>2019-06-23T06:54:20.000Z</time>
      </trkpt>
      <trkpt lat="43.26649" lon="2.46343">
        <ele>193.1</ele>
        <time>2019-06-23T06:54:21.000Z</time>
      </trkpt>
      <trkpt lat="43.26651" lon="2.4634">
        <ele>193</ele>
        <time>2019-06-23T06:54:22.000Z</time>
      </trkpt>
      <trkpt lat="43.26652" lon="2.46337">
        <ele>192.9</ele>
        <time>2019-06-23T06:54:23.000Z</time>
      </trkpt>
      <trkpt lat="43.26653" lon="2.46335">
        <ele>192.7</ele>
        <time>2019-06-23T06:54:24.000Z</time>
      </trkpt>
      <trkpt lat="43.26655" lon="2.46332">
        <ele>192.7</ele>
        <time>2019-06-23T06:54:25.000Z</time>
      </trkpt>
      <trkpt lat="43.26656" lon="2.4633">
        <ele>192.7</ele>
        <time>2019-06-23T06:54:26.000Z</time>
      </trkpt>
      <trkpt lat="43.26658" lon="2.46327">
        <ele>192.7</ele>
        <time>2019-06-23T06:54:27.000Z</time>
      </trkpt>
      <trkpt lat="43.26659" lon="2.46324">
        <ele>192.7</ele>
        <time>2019-06-23T06:54:28.000Z</time>
      </trkpt>
      <trkpt lat="43.2666" lon="2.46322">
        <ele>192.7</ele>
        <time>2019-06-23T06:54:29.000Z</time>
      </trkpt>
      <trkpt lat="43.26662" lon="2.46319">
        <ele>192.7</ele>
        <time>2019-06-23T06:54:30.000Z</time>
      </trkpt>
      <trkpt lat="43.26664" lon="2.46317">
        <ele>192.7</ele>
        <time>2019-06-23T06:54:31.000Z</time>
      </trkpt>
      <trkpt lat="43.26665" lon="2.46314">
        <ele>192.7</ele>
        <time>2019-06-23T06:54:32.000Z</time>
      </trkpt>
      <trkpt lat="43.26667" lon="2.46312">
        <ele>192.7</ele>
        <time>2019-06-23T06:54:33.000Z</time>
      </trkpt>
      <trkpt lat="43.26669" lon="2.46309">
        <ele>192.6</ele>
        <time>2019-06-23T06:54:34.000Z</time>
      </trkpt>
      <trkpt lat="43.26671" lon="2.46307">
        <ele>192.4</ele>
        <time>2019-06-23T06:54:35.000Z</time>
      </trkpt>
      <trkpt lat="43.26672" lon="2.46304">
        <ele>192.3</ele>
        <time>2019-06-23T06:54:36.000Z</time>
      </trkpt>
      <trkpt lat="43.26674" lon="2.46302">
        <ele>192.1</ele>
        <time>2019-06-23T06:54:37.000Z</time>
      </trkpt>
      <trkpt lat="43.26676" lon="2.46299">
        <ele>192</ele>
        <time>2019-06-23T06:54:38.000Z</time>
      </trkpt>
      <trkpt lat="43.26678" lon="2.46297">
        <ele>191.9</ele>
        <time>2019-06-23T06:54:39.000Z</time>
      </trkpt>
      <trkpt lat="43.2668" lon="2.46295">
        <ele>191.7</ele>
        <time>2019-06-23T06:54:40.000Z</time>
      </trkpt>
      <trkpt lat="43.26682" lon="2.46292">
        <ele>191.6</ele>
        <time>2019-06-23T06:54:41.000Z</time>
      </trkpt>
      <trkpt lat="43.26684" lon="2.4629">
        <ele>191.4</ele>
        <time>2019-06-23T06:54:42.000Z</time>
      </trkpt>
      <trkpt lat="43.26687" lon="2.46288">
        <ele>191.3</ele>
        <time>2019-06-23T06:54:43.000Z</time>
      </trkpt>
      <trkpt lat="43.26689" lon="2.46286">
        <ele>191.1</ele>
        <time>2019-06-23T06:54:44.000Z</time>
      </trkpt>
      <trkpt lat="43.26691" lon="2.46284">
        <ele>191</ele>
        <time>2019-06-23T06:54:45.000Z</time>
      </trkpt>
      <trkpt lat="43.26693" lon="2.46282">
        <ele>190.9</ele>
        <time>2019-06-23T06:54:46.000Z</time>
      </trkpt>
      <trkpt lat="43.26696" lon="2.4628">
        <ele>190.7</ele>
        <time>2019-06-23T06:54:47.000Z</time>
      </trkpt>
      <trkpt lat="43.26698" lon="2.46278">
        <ele>190.6</ele>
        <time>2019-06-23T06:54:48.000Z</time>
      </trkpt>
      <trkpt lat="43.267" lon="2.46276">
        <ele>190.5</ele>
        <time>2019-06-23T06:54:49.000Z</time>
      </trkpt>
      <trkpt lat="43.26702" lon="2.46274">
        <ele>190.3</ele>
        <time>2019-06-23T06:54:50.000Z</time>
      </trkpt>
      <trkpt lat="43.26704" lon="2.46272">
        <ele>190.2</ele>
        <time>2019-06-23T06:54:51.000Z</time>
      </trkpt>
      <trkpt lat="43.26707" lon="2.4627">
        <ele>190.1</ele>
        <time>2019-06-23T06:54:52.000Z</time>
      </trkpt>
      <trkpt lat="43.26709" lon="2.46267">
        <ele>190</ele>
        <time>2019-06-23T06:54:53.000Z</time>
      </trkpt>
      <trkpt lat="43.26711" lon="2.46265">
        <ele>189.9</ele>
        <time>2019-06-23T06:54:54.000Z</time>
      </trkpt>
      <trkpt lat="43.26713" lon="2.46263">
        <ele>189.8</ele>
        <time>2019-06-23T06:54:55.000Z</time>
      </trkpt>
      <trkpt lat="43.26715" lon="2.46261">
        <ele>189.7</ele>
        <time>2019-06-23T06:54:56.000Z</time>
      </trkpt>
      <trkpt lat="43.26716" lon="2.46258">
        <ele>189.6</ele>
        <time>2019-06-23T06:54:57.000Z</time>
      </trkpt>
      <trkpt lat="43.26718" lon="2.46256">
        <ele>189.5</ele>
        <time>2019-06-23T06:54:58.000Z</time>
      </trkpt>
      <trkpt lat="43.2672" lon="2.46254">
        <ele>189.4</ele>
        <time>2019-06-23T06:54:59.000Z</time>
      </trkpt>
      <trkpt lat="43.26721" lon="2.46251">
        <ele>189.4</ele>
        <time>2019-06-23T06:55:00.000Z</time>
      </trkpt>
      <trkpt lat="43.26723" lon="2.46248">
        <ele>189.2</ele>
        <time>2019-06-23T06:55:01.000Z</time>
      </trkpt>
      <trkpt lat="43.26725" lon="2.46245">
        <ele>189</ele>
        <time>2019-06-23T06:55:02.000Z</time>
      </trkpt>
      <trkpt lat="43.26726" lon="2.46242">
        <ele>188.8</ele>
        <time>2019-06-23T06:55:03.000Z</time>
      </trkpt>
      <trkpt lat="43.26728" lon="2.46239">
        <ele>188.6</ele>
        <time>2019-06-23T06:55:04.000Z</time>
      </trkpt>
      <trkpt lat="43.2673" lon="2.46236">
        <ele>188.4</ele>
        <time>2019-06-23T06:55:05.000Z</time>
      </trkpt>
      <trkpt lat="43.26731" lon="2.46233">
        <ele>188.2</ele>
        <time>2019-06-23T06:55:06.000Z</time>
      </trkpt>
      <trkpt lat="43.26733" lon="2.4623">
        <ele>188.1</ele>
        <time>2019-06-23T06:55:07.000Z</time>
      </trkpt>
      <trkpt lat="43.26734" lon="2.46227">
        <ele>187.9</ele>
        <time>2019-06-23T06:55:08.000Z</time>
      </trkpt>
      <trkpt lat="43.26735" lon="2.46224">
        <ele>187.7</ele>
        <time>2019-06-23T06:55:09.000Z</time>
      </trkpt>
      <trkpt lat="43.26736" lon="2.46221">
        <ele>187.6</ele>
        <time>2019-06-23T06:55:10.000Z</time>
      </trkpt>
      <trkpt lat="43.26736" lon="2.46217">
        <ele>187.4</ele>
        <time>2019-06-23T06:55:11.000Z</time>
      </trkpt>
      <trkpt lat="43.26736" lon="2.46213">
        <ele>187.3</ele>
        <time>2019-06-23T06:55:12.000Z</time>
      </trkpt>
      <trkpt lat="43.26736" lon="2.4621">
        <ele>187.1</ele>
        <time>2019-06-23T06:55:13.000Z</time>
      </trkpt>
      <trkpt lat="43.26736" lon="2.46206">
        <ele>187</ele>
        <time>2019-06-23T06:55:14.000Z</time>
      </trkpt>
      <trkpt lat="43.26736" lon="2.46202">
        <ele>186.8</ele>
        <time>2019-06-23T06:55:15.000Z</time>
      </trkpt>
      <trkpt lat="43.26736" lon="2.46198">
        <ele>186.7</ele>
        <time>2019-06-23T06:55:16.000Z</time>
      </trkpt>
      <trkpt lat="43.26737" lon="2.46194">
        <ele>186.5</ele>
        <time>2019-06-23T06:55:17.000Z</time>
      </trkpt>
      <trkpt lat="43.26737" lon="2.4619">
        <ele>186.4</ele>
        <time>2019-06-23T06:55:18.000Z</time>
      </trkpt>
      <trkpt lat="43.26738" lon="2.46187">
        <ele>186.2</ele>
        <time>2019-06-23T06:55:19.000Z</time>
      </trkpt>
      <trkpt lat="43.26738" lon="2.46183">
        <ele>186</ele>
        <time>2019-06-23T06:55:20.000Z</time>
      </trkpt>
      <trkpt lat="43.26739" lon="2.46179">
        <ele>185.8</ele>
        <time>2019-06-23T06:55:21.000Z</time>
      </trkpt>
      <trkpt lat="43.2674" lon="2.46175">
        <ele>185.7</ele>
        <time>2019-06-23T06:55:22.000Z</time>
      </trkpt>
      <trkpt lat="43.26741" lon="2.46171">
        <ele>185.5</ele>
        <time>2019-06-23T06:55:23.000Z</time>
      </trkpt>
      <trkpt lat="43.26741" lon="2.46168">
        <ele>185.3</ele>
        <time>2019-06-23T06:55:24.000Z</time>
      </trkpt>
      <trkpt lat="43.26742" lon="2.46164">
        <ele>185.2</ele>
        <time>2019-06-23T06:55:25.000Z</time>
      </trkpt>
      <trkpt lat="43.26743" lon="2.46161">
        <ele>185.2</ele>
        <time>2019-06-23T06:55:26.000Z</time>
      </trkpt>
      <trkpt lat="43.26744" lon="2.46157">
        <ele>185.1</ele>
        <time>2019-06-23T06:55:27.000Z</time>
      </trkpt>
      <trkpt lat="43.26746" lon="2.46154">
        <ele>185</ele>
        <time>2019-06-23T06:55:28.000Z</time>
      </trkpt>
      <trkpt lat="43.26747" lon="2.46151">
        <ele>184.9</ele>
        <time>2019-06-23T06:55:29.000Z</time>
      </trkpt>
      <trkpt lat="43.26748" lon="2.46149">
        <ele>184.8</ele>
        <time>2019-06-23T06:55:30.000Z</time>
      </trkpt>
      <trkpt lat="43.26749" lon="2.46146">
        <ele>184.8</ele>
        <time>2019-06-23T06:55:31.000Z</time>
      </trkpt>
      <trkpt lat="43.2675" lon="2.46144">
        <ele>184.7</ele>
        <time>2019-06-23T06:55:32.000Z</time>
      </trkpt>
      <trkpt lat="43.26752" lon="2.46141">
        <ele>184.5</ele>
        <time>2019-06-23T06:55:33.000Z</time>
      </trkpt>
      <trkpt lat="43.26753" lon="2.46139">
        <ele>184.4</ele>
        <time>2019-06-23T06:55:34.000Z</time>
      </trkpt>
      <trkpt lat="43.26754" lon="2.46137">
        <ele>184.2</ele>
        <time>2019-06-23T06:55:35.000Z</time>
      </trkpt>
      <trkpt lat="43.26756" lon="2.46135">
        <ele>184.1</ele>
        <time>2019-06-23T06:55:36.000Z</time>
      </trkpt>
      <trkpt lat="43.26757" lon="2.46133">
        <ele>183.9</ele>
        <time>2019-06-23T06:55:37.000Z</time>
      </trkpt>
      <trkpt lat="43.26758" lon="2.46131">
        <ele>183.8</ele>
        <time>2019-06-23T06:55:38.000Z</time>
      </trkpt>
      <trkpt lat="43.2676" lon="2.46129">
        <ele>183.6</ele>
        <time>2019-06-23T06:55:39.000Z</time>
      </trkpt>
      <trkpt lat="43.26761" lon="2.46127">
        <ele>183.5</ele>
        <time>2019-06-23T06:55:40.000Z</time>
      </trkpt>
      <trkpt lat="43.26763" lon="2.46125">
        <ele>183.4</ele>
        <time>2019-06-23T06:55:41.000Z</time>
      </trkpt>
      <trkpt lat="43.26764" lon="2.46122">
        <ele>183.2</ele>
        <time>2019-06-23T06:55:42.000Z</time>
      </trkpt>
      <trkpt lat="43.26765" lon="2.4612">
        <ele>183.1</ele>
        <time>2019-06-23T06:55:43.000Z</time>
      </trkpt>
      <trkpt lat="43.26767" lon="2.46118">
        <ele>183</ele>
        <time>2019-06-23T06:55:44.000Z</time>
      </trkpt>
      <trkpt lat="43.26768" lon="2.46115">
        <ele>182.9</ele>
        <time>2019-06-23T06:55:45.000Z</time>
      </trkpt>
      <trkpt lat="43.26769" lon="2.46113">
        <ele>182.8</ele>
        <time>2019-06-23T06:55:46.000Z</time>
      </trkpt>
      <trkpt lat="43.26771" lon="2.4611">
        <ele>182.7</ele>
        <time>2019-06-23T06:55:47.000Z</time>
      </trkpt>
      <trkpt lat="43.26772" lon="2.46107">
        <ele>182.6</ele>
        <time>2019-06-23T06:55:48.000Z</time>
      </trkpt>
      <trkpt lat="43.26773" lon="2.46104">
        <ele>182.5</ele>
        <time>2019-06-23T06:55:49.000Z</time>
      </trkpt>
      <trkpt lat="43.26775" lon="2.46102">
        <ele>182.4</ele>
        <time>2019-06-23T06:55:50.000Z</time>
      </trkpt>
      <trkpt lat="43.26776" lon="2.46099">
        <ele>182.3</ele>
        <time>2019-06-23T06:55:51.000Z</time>
      </trkpt>
      <trkpt lat="43.26778" lon="2.46096">
        <ele>182.2</ele>
        <time>2019-06-23T06:55:52.000Z</time>
      </trkpt>
      <trkpt lat="43.2678" lon="2.46093">
        <ele>182.1</ele>
        <time>2019-06-23T06:55:53.000Z</time>
      </trkpt>
      <trkpt lat="43.26782" lon="2.46091">
        <ele>182</ele>
        <time>2019-06-23T06:55:54.000Z</time>
      </trkpt>
      <trkpt lat="43.26784" lon="2.46088">
        <ele>181.9</ele>
        <time>2019-06-23T06:55:55.000Z</time>
      </trkpt>
      <trkpt lat="43.26786" lon="2.46085">
        <ele>181.8</ele>
        <time>2019-06-23T06:55:56.000Z</time>
      </trkpt>
      <trkpt lat="43.26788" lon="2.46083">
        <ele>181.7</ele>
        <time>2019-06-23T06:55:57.000Z</time>
      </trkpt>
      <trkpt lat="43.2679" lon="2.46081">
        <ele>181.5</ele>
        <time>2019-06-23T06:55:58.000Z</time>
      </trkpt>
      <trkpt lat="43.26792" lon="2.46079">
        <ele>181.3</ele>
        <time>2019-06-23T06:55:59.000Z</time>
      </trkpt>
      <trkpt lat="43.26795" lon="2.46077">
        <ele>181.2</ele>
        <time>2019-06-23T06:56:00.000Z</time>
      </trkpt>
      <trkpt lat="43.26797" lon="2.46075">
        <ele>181</ele>
        <time>2019-06-23T06:56:01.000Z</time>
      </trkpt>
      <trkpt lat="43.268" lon="2.46073">
        <ele>180.8</ele>
        <time>2019-06-23T06:56:02.000Z</time>
      </trkpt>
      <trkpt lat="43.26803" lon="2.46072">
        <ele>180.6</ele>
        <time>2019-06-23T06:56:03.000Z</time>
      </trkpt>
      <trkpt lat="43.26805" lon="2.46071">
        <ele>180.5</ele>
        <time>2019-06-23T06:56:04.000Z</time>
      </trkpt>
      <trkpt lat="43.26808" lon="2.46069">
        <ele>180.3</ele>
        <time>2019-06-23T06:56:05.000Z</time>
      </trkpt>
      <trkpt lat="43.2681" lon="2.46068">
        <ele>180.2</ele>
        <time>2019-06-23T06:56:06.000Z</time>
      </trkpt>
      <trkpt lat="43.26813" lon="2.46067">
        <ele>180</ele>
        <time>2019-06-23T06:56:07.000Z</time>
      </trkpt>
      <trkpt lat="43.26816" lon="2.46066">
        <ele>179.9</ele>
        <time>2019-06-23T06:56:08.000Z</time>
      </trkpt>
      <trkpt lat="43.26818" lon="2.46065">
        <ele>179.7</ele>
        <time>2019-06-23T06:56:09.000Z</time>
      </trkpt>
      <trkpt lat="43.26821" lon="2.46064">
        <ele>179.6</ele>
        <time>2019-06-23T06:56:10.000Z</time>
      </trkpt>
      <trkpt lat="43.26823" lon="2.46062">
        <ele>179.5</ele>
        <time>2019-06-23T06:56:11.000Z</time>
      </trkpt>
      <trkpt lat="43.26826" lon="2.46061">
        <ele>179.4</ele>
        <time>2019-06-23T06:56:12.000Z</time>
      </trkpt>
      <trkpt lat="43.26828" lon="2.4606">
        <ele>179.2</ele>
        <time>2019-06-23T06:56:13.000Z</time>
      </trkpt>
      <trkpt lat="43.2683" lon="2.46059">
        <ele>179.1</ele>
        <time>2019-06-23T06:56:14.000Z</time>
      </trkpt>
      <trkpt lat="43.26833" lon="2.46058">
        <ele>179</ele>
        <time>2019-06-23T06:56:15.000Z</time>
      </trkpt>
      <trkpt lat="43.26835" lon="2.46057">
        <ele>178.9</ele>
        <time>2019-06-23T06:56:16.000Z</time>
      </trkpt>
      <trkpt lat="43.26838" lon="2.46056">
        <ele>178.7</ele>
        <time>2019-06-23T06:56:17.000Z</time>
      </trkpt>
      <trkpt lat="43.2684" lon="2.46055">
        <ele>178.5</ele>
        <time>2019-06-23T06:56:18.000Z</time>
      </trkpt>
      <trkpt lat="43.26842" lon="2.46054">
        <ele>178.3</ele>
        <time>2019-06-23T06:56:19.000Z</time>
      </trkpt>
      <trkpt lat="43.26845" lon="2.46053">
        <ele>178.2</ele>
        <time>2019-06-23T06:56:20.000Z</time>
      </trkpt>
      <trkpt lat="43.26847" lon="2.46051">
        <ele>178</ele>
        <time>2019-06-23T06:56:21.000Z</time>
      </trkpt>
      <trkpt lat="43.26849" lon="2.4605">
        <ele>177.8</ele>
        <time>2019-06-23T06:56:22.000Z</time>
      </trkpt>
      <trkpt lat="43.26852" lon="2.46049">
        <ele>177.7</ele>
        <time>2019-06-23T06:56:23.000Z</time>
      </trkpt>
      <trkpt lat="43.26854" lon="2.46047">
        <ele>177.5</ele>
        <time>2019-06-23T06:56:24.000Z</time>
      </trkpt>
      <trkpt lat="43.26856" lon="2.46046">
        <ele>177.3</ele>
        <time>2019-06-23T06:56:25.000Z</time>
      </trkpt>
      <trkpt lat="43.26858" lon="2.46044">
        <ele>177.2</ele>
        <time>2019-06-23T06:56:26.000Z</time>
      </trkpt>
      <trkpt lat="43.26861" lon="2.46043">
        <ele>177</ele>
        <time>2019-06-23T06:56:27.000Z</time>
      </trkpt>
      <trkpt lat="43.26863" lon="2.46041">
        <ele>176.9</ele>
        <time>2019-06-23T06:56:28.000Z</time>
      </trkpt>
      <trkpt lat="43.26865" lon="2.46039">
        <ele>176.7</ele>
        <time>2019-06-23T06:56:29.000Z</time>
      </trkpt>
      <trkpt lat="43.26868" lon="2.46037">
        <ele>176.6</ele>
        <time>2019-06-23T06:56:30.000Z</time>
      </trkpt>
      <trkpt lat="43.2687" lon="2.46035">
        <ele>176.4</ele>
        <time>2019-06-23T06:56:31.000Z</time>
      </trkpt>
      <trkpt lat="43.26873" lon="2.46033">
        <ele>176.3</ele>
        <time>2019-06-23T06:56:32.000Z</time>
      </trkpt>
      <trkpt lat="43.26875" lon="2.46031">
        <ele>176.1</ele>
        <time>2019-06-23T06:56:33.000Z</time>
      </trkpt>
      <trkpt lat="43.26877" lon="2.46028">
        <ele>176</ele>
        <time>2019-06-23T06:56:34.000Z</time>
      </trkpt>
      <trkpt lat="43.2688" lon="2.46026">
        <ele>175.9</ele>
        <time>2019-06-23T06:56:35.000Z</time>
      </trkpt>
      <trkpt lat="43.26883" lon="2.46024">
        <ele>175.7</ele>
        <time>2019-06-23T06:56:36.000Z</time>
      </trkpt>
      <trkpt lat="43.26885" lon="2.46022">
        <ele>175.6</ele>
        <time>2019-06-23T06:56:37.000Z</time>
      </trkpt>
      <trkpt lat="43.26888" lon="2.46021">
        <ele>175.4</ele>
        <time>2019-06-23T06:56:38.000Z</time>
      </trkpt>
      <trkpt lat="43.26891" lon="2.46019">
        <ele>175.3</ele>
        <time>2019-06-23T06:56:39.000Z</time>
      </trkpt>
      <trkpt lat="43.26893" lon="2.46018">
        <ele>175.1</ele>
        <time>2019-06-23T06:56:40.000Z</time>
      </trkpt>
      <trkpt lat="43.26896" lon="2.46016">
        <ele>174.9</ele>
        <time>2019-06-23T06:56:41.000Z</time>
      </trkpt>
      <trkpt lat="43.26899" lon="2.46015">
        <ele>174.8</ele>
        <time>2019-06-23T06:56:42.000Z</time>
      </trkpt>
      <trkpt lat="43.26902" lon="2.46014">
        <ele>174.6</ele>
        <time>2019-06-23T06:56:43.000Z</time>
      </trkpt>
      <trkpt lat="43.26904" lon="2.46013">
        <ele>174.5</ele>
        <time>2019-06-23T06:56:44.000Z</time>
      </trkpt>
      <trkpt lat="43.26907" lon="2.46011">
        <ele>174.3</ele>
        <time>2019-06-23T06:56:45.000Z</time>
      </trkpt>
      <trkpt lat="43.26909" lon="2.4601">
        <ele>174.2</ele>
        <time>2019-06-23T06:56:46.000Z</time>
      </trkpt>
      <trkpt lat="43.26912" lon="2.46009">
        <ele>174.1</ele>
        <time>2019-06-23T06:56:47.000Z</time>
      </trkpt>
      <trkpt lat="43.26914" lon="2.46007">
        <ele>174</ele>
        <time>2019-06-23T06:56:48.000Z</time>
      </trkpt>
      <trkpt lat="43.26915" lon="2.46005">
        <ele>174</ele>
        <time>2019-06-23T06:56:49.000Z</time>
      </trkpt>
      <trkpt lat="43.26917" lon="2.46003">
        <ele>173.9</ele>
        <time>2019-06-23T06:56:50.000Z</time>
      </trkpt>
      <trkpt lat="43.26918" lon="2.46">
        <ele>173.9</ele>
        <time>2019-06-23T06:56:51.000Z</time>
      </trkpt>
      <trkpt lat="43.26919" lon="2.45997">
        <ele>173.9</ele>
        <time>2019-06-23T06:56:52.000Z</time>
      </trkpt>
      <trkpt lat="43.2692" lon="2.45994">
        <ele>173.9</ele>
        <time>2019-06-23T06:56:53.000Z</time>
      </trkpt>
      <trkpt lat="43.26921" lon="2.45991">
        <ele>173.9</ele>
        <time>2019-06-23T06:56:54.000Z</time>
      </trkpt>
      <trkpt lat="43.26921" lon="2.45988">
        <ele>173.9</ele>
        <time>2019-06-23T06:56:55.000Z</time>
      </trkpt>
      <trkpt lat="43.26921" lon="2.45984">
        <ele>174</ele>
        <time>2019-06-23T06:56:56.000Z</time>
      </trkpt>
      <trkpt lat="43.26922" lon="2.45981">
        <ele>174</ele>
        <time>2019-06-23T06:56:57.000Z</time>
      </trkpt>
      <trkpt lat="43.26922" lon="2.45978">
        <ele>174.1</ele>
        <time>2019-06-23T06:56:58.000Z</time>
      </trkpt>
      <trkpt lat="43.26923" lon="2.45975">
        <ele>174.1</ele>
        <time>2019-06-23T06:56:59.000Z</time>
      </trkpt>
      <trkpt lat="43.26923" lon="2.45972">
        <ele>174.2</ele>
        <time>2019-06-23T06:57:00.000Z</time>
      </trkpt>
      <trkpt lat="43.26923" lon="2.45969">
        <ele>174.2</ele>
        <time>2019-06-23T06:57:01.000Z</time>
      </trkpt>
      <trkpt lat="43.26922" lon="2.45966">
        <ele>174.4</ele>
        <time>2019-06-23T06:57:02.000Z</time>
      </trkpt>
      <trkpt lat="43.26921" lon="2.45963">
        <ele>174.5</ele>
        <time>2019-06-23T06:57:03.000Z</time>
      </trkpt>
      <trkpt lat="43.2692" lon="2.45959">
        <ele>174.7</ele>
        <time>2019-06-23T06:57:04.000Z</time>
      </trkpt>
      <trkpt lat="43.26918" lon="2.45956">
        <ele>174.9</ele>
        <time>2019-06-23T06:57:05.000Z</time>
      </trkpt>
      <trkpt lat="43.26917" lon="2.45952">
        <ele>175.1</ele>
        <time>2019-06-23T06:57:06.000Z</time>
      </trkpt>
      <trkpt lat="43.26916" lon="2.45948">
        <ele>175.3</ele>
        <time>2019-06-23T06:57:07.000Z</time>
      </trkpt>
      <trkpt lat="43.26915" lon="2.45945">
        <ele>175.4</ele>
        <time>2019-06-23T06:57:08.000Z</time>
      </trkpt>
      <trkpt lat="43.26914" lon="2.45941">
        <ele>175.5</ele>
        <time>2019-06-23T06:57:09.000Z</time>
      </trkpt>
      <trkpt lat="43.26913" lon="2.45937">
        <ele>175.5</ele>
        <time>2019-06-23T06:57:10.000Z</time>
      </trkpt>
      <trkpt lat="43.26913" lon="2.45933">
        <ele>175.6</ele>
        <time>2019-06-23T06:57:11.000Z</time>
      </trkpt>
      <trkpt lat="43.26914" lon="2.45929">
        <ele>175.7</ele>
        <time>2019-06-23T06:57:12.000Z</time>
      </trkpt>
      <trkpt lat="43.26914" lon="2.45925">
        <ele>175.8</ele>
        <time>2019-06-23T06:57:13.000Z</time>
      </trkpt>
      <trkpt lat="43.26915" lon="2.45922">
        <ele>175.9</ele>
        <time>2019-06-23T06:57:14.000Z</time>
      </trkpt>
      <trkpt lat="43.26916" lon="2.45918">
        <ele>176</ele>
        <time>2019-06-23T06:57:15.000Z</time>
      </trkpt>
      <trkpt lat="43.26918" lon="2.45915">
        <ele>175.9</ele>
        <time>2019-06-23T06:57:16.000Z</time>
      </trkpt>
      <trkpt lat="43.2692" lon="2.45912">
        <ele>175.9</ele>
        <time>2019-06-23T06:57:17.000Z</time>
      </trkpt>
      <trkpt lat="43.26922" lon="2.4591">
        <ele>175.8</ele>
        <time>2019-06-23T06:57:18.000Z</time>
      </trkpt>
      <trkpt lat="43.26924" lon="2.45908">
        <ele>175.7</ele>
        <time>2019-06-23T06:57:19.000Z</time>
      </trkpt>
      <trkpt lat="43.26926" lon="2.45906">
        <ele>175.5</ele>
        <time>2019-06-23T06:57:20.000Z</time>
      </trkpt>
      <trkpt lat="43.26928" lon="2.45906">
        <ele>175.4</ele>
        <time>2019-06-23T06:57:21.000Z</time>
      </trkpt>
      <trkpt lat="43.26931" lon="2.45905">
        <ele>175.2</ele>
        <time>2019-06-23T06:57:22.000Z</time>
      </trkpt>
      <trkpt lat="43.26933" lon="2.45906">
        <ele>175</ele>
        <time>2019-06-23T06:57:23.000Z</time>
      </trkpt>
      <trkpt lat="43.26935" lon="2.45906">
        <ele>174.8</ele>
        <time>2019-06-23T06:57:24.000Z</time>
      </trkpt>
      <trkpt lat="43.26938" lon="2.45906">
        <ele>174.6</ele>
        <time>2019-06-23T06:57:25.000Z</time>
      </trkpt>
      <trkpt lat="43.2694" lon="2.45907">
        <ele>174.4</ele>
        <time>2019-06-23T06:57:26.000Z</time>
      </trkpt>
      <trkpt lat="43.26943" lon="2.45908">
        <ele>174.2</ele>
        <time>2019-06-23T06:57:27.000Z</time>
      </trkpt>
      <trkpt lat="43.26945" lon="2.45908">
        <ele>174</ele>
        <time>2019-06-23T06:57:28.000Z</time>
      </trkpt>
      <trkpt lat="43.26948" lon="2.45909">
        <ele>173.7</ele>
        <time>2019-06-23T06:57:29.000Z</time>
      </trkpt>
      <trkpt lat="43.26951" lon="2.45909">
        <ele>173.5</ele>
        <time>2019-06-23T06:57:30.000Z</time>
      </trkpt>
      <trkpt lat="43.26954" lon="2.4591">
        <ele>173.3</ele>
        <time>2019-06-23T06:57:31.000Z</time>
      </trkpt>
      <trkpt lat="43.26956" lon="2.4591">
        <ele>173</ele>
        <time>2019-06-23T06:57:32.000Z</time>
      </trkpt>
      <trkpt lat="43.26959" lon="2.4591">
        <ele>172.8</ele>
        <time>2019-06-23T06:57:33.000Z</time>
      </trkpt>
      <trkpt lat="43.26962" lon="2.4591">
        <ele>172.6</ele>
        <time>2019-06-23T06:57:34.000Z</time>
      </trkpt>
      <trkpt lat="43.26964" lon="2.4591">
        <ele>172.4</ele>
        <time>2019-06-23T06:57:35.000Z</time>
      </trkpt>
      <trkpt lat="43.26967" lon="2.4591">
        <ele>172.2</ele>
        <time>2019-06-23T06:57:36.000Z</time>
      </trkpt>
      <trkpt lat="43.2697" lon="2.45909">
        <ele>172</ele>
        <time>2019-06-23T06:57:37.000Z</time>
      </trkpt>
      <trkpt lat="43.26973" lon="2.45909">
        <ele>171.8</ele>
        <time>2019-06-23T06:57:38.000Z</time>
      </trkpt>
      <trkpt lat="43.26975" lon="2.45908">
        <ele>171.7</ele>
        <time>2019-06-23T06:57:39.000Z</time>
      </trkpt>
      <trkpt lat="43.26978" lon="2.45907">
        <ele>171.5</ele>
        <time>2019-06-23T06:57:40.000Z</time>
      </trkpt>
      <trkpt lat="43.26981" lon="2.45906">
        <ele>171.3</ele>
        <time>2019-06-23T06:57:41.000Z</time>
      </trkpt>
      <trkpt lat="43.26984" lon="2.45905">
        <ele>171.2</ele>
        <time>2019-06-23T06:57:42.000Z</time>
      </trkpt>
      <trkpt lat="43.26987" lon="2.45903">
        <ele>171.1</ele>
        <time>2019-06-23T06:57:43.000Z</time>
      </trkpt>
      <trkpt lat="43.26991" lon="2.45902">
        <ele>170.9</ele>
        <time>2019-06-23T06:57:44.000Z</time>
      </trkpt>
      <trkpt lat="43.26994" lon="2.45901">
        <ele>170.8</ele>
        <time>2019-06-23T06:57:45.000Z</time>
      </trkpt>
      <trkpt lat="43.26997" lon="2.45899">
        <ele>170.7</ele>
        <time>2019-06-23T06:57:46.000Z</time>
      </trkpt>
      <trkpt lat="43.27" lon="2.45897">
        <ele>170.6</ele>
        <time>2019-06-23T06:57:47.000Z</time>
      </trkpt>
      <trkpt lat="43.27003" lon="2.45896">
        <ele>170.5</ele>
        <time>2019-06-23T06:57:48.000Z</time>
      </trkpt>
      <trkpt lat="43.27006" lon="2.45894">
        <ele>170.4</ele>
        <time>2019-06-23T06:57:49.000Z</time>
      </trkpt>
      <trkpt lat="43.27009" lon="2.45892">
        <ele>170.3</ele>
        <time>2019-06-23T06:57:50.000Z</time>
      </trkpt>
      <trkpt lat="43.27012" lon="2.4589">
        <ele>170.1</ele>
        <time>2019-06-23T06:57:51.000Z</time>
      </trkpt>
      <trkpt lat="43.27015" lon="2.45889">
        <ele>170</ele>
        <time>2019-06-23T06:57:52.000Z</time>
      </trkpt>
      <trkpt lat="43.27018" lon="2.45887">
        <ele>169.8</ele>
        <time>2019-06-23T06:57:53.000Z</time>
      </trkpt>
      <trkpt lat="43.27021" lon="2.45885">
        <ele>169.7</ele>
        <time>2019-06-23T06:57:54.000Z</time>
      </trkpt>
      <trkpt lat="43.27024" lon="2.45883">
        <ele>169.5</ele>
        <time>2019-06-23T06:57:55.000Z</time>
      </trkpt>
      <trkpt lat="43.27026" lon="2.45882">
        <ele>169.3</ele>
        <time>2019-06-23T06:57:56.000Z</time>
      </trkpt>
      <trkpt lat="43.27029" lon="2.4588">
        <ele>169.1</ele>
        <time>2019-06-23T06:57:57.000Z</time>
      </trkpt>
      <trkpt lat="43.27032" lon="2.45878">
        <ele>168.9</ele>
        <time>2019-06-23T06:57:58.000Z</time>
      </trkpt>
      <trkpt lat="43.27035" lon="2.45876">
        <ele>168.7</ele>
        <time>2019-06-23T06:57:59.000Z</time>
      </trkpt>
      <trkpt lat="43.27038" lon="2.45874">
        <ele>168.5</ele>
        <time>2019-06-23T06:58:00.000Z</time>
      </trkpt>
      <trkpt lat="43.2704" lon="2.45872">
        <ele>168.2</ele>
        <time>2019-06-23T06:58:01.000Z</time>
      </trkpt>
      <trkpt lat="43.27043" lon="2.45871">
        <ele>168</ele>
        <time>2019-06-23T06:58:02.000Z</time>
      </trkpt>
      <trkpt lat="43.27046" lon="2.45869">
        <ele>167.8</ele>
        <time>2019-06-23T06:58:03.000Z</time>
      </trkpt>
      <trkpt lat="43.27049" lon="2.45867">
        <ele>167.5</ele>
        <time>2019-06-23T06:58:04.000Z</time>
      </trkpt>
      <trkpt lat="43.27051" lon="2.45865">
        <ele>167.2</ele>
        <time>2019-06-23T06:58:05.000Z</time>
      </trkpt>
      <trkpt lat="43.27054" lon="2.45863">
        <ele>166.9</ele>
        <time>2019-06-23T06:58:06.000Z</time>
      </trkpt>
      <trkpt lat="43.27057" lon="2.45862">
        <ele>166.6</ele>
        <time>2019-06-23T06:58:07.000Z</time>
      </trkpt>
      <trkpt lat="43.2706" lon="2.4586">
        <ele>166.3</ele>
        <time>2019-06-23T06:58:08.000Z</time>
      </trkpt>
      <trkpt lat="43.27062" lon="2.45858">
        <ele>166</ele>
        <time>2019-06-23T06:58:09.000Z</time>
      </trkpt>
      <trkpt lat="43.27065" lon="2.45856">
        <ele>165.7</ele>
        <time>2019-06-23T06:58:10.000Z</time>
      </trkpt>
      <trkpt lat="43.27067" lon="2.45854">
        <ele>165.4</ele>
        <time>2019-06-23T06:58:11.000Z</time>
      </trkpt>
      <trkpt lat="43.2707" lon="2.45852">
        <ele>165</ele>
        <time>2019-06-23T06:58:12.000Z</time>
      </trkpt>
      <trkpt lat="43.27072" lon="2.4585">
        <ele>164.7</ele>
        <time>2019-06-23T06:58:13.000Z</time>
      </trkpt>
      <trkpt lat="43.27075" lon="2.45849">
        <ele>164.4</ele>
        <time>2019-06-23T06:58:14.000Z</time>
      </trkpt>
      <trkpt lat="43.27077" lon="2.45847">
        <ele>164</ele>
        <time>2019-06-23T06:58:15.000Z</time>
      </trkpt>
      <trkpt lat="43.2708" lon="2.45845">
        <ele>163.6</ele>
        <time>2019-06-23T06:58:16.000Z</time>
      </trkpt>
      <trkpt lat="43.27083" lon="2.45844">
        <ele>163.2</ele>
        <time>2019-06-23T06:58:17.000Z</time>
      </trkpt>
      <trkpt lat="43.27085" lon="2.45842">
        <ele>163.1</ele>
        <time>2019-06-23T06:58:18.000Z</time>
      </trkpt>
      <trkpt lat="43.27088" lon="2.45841">
        <ele>163.2</ele>
        <time>2019-06-23T06:58:19.000Z</time>
      </trkpt>
      <trkpt lat="43.27091" lon="2.4584">
        <ele>163.2</ele>
        <time>2019-06-23T06:58:20.000Z</time>
      </trkpt>
      <trkpt lat="43.27093" lon="2.45839">
        <ele>163.3</ele>
        <time>2019-06-23T06:58:21.000Z</time>
      </trkpt>
      <trkpt lat="43.27096" lon="2.45838">
        <ele>163.4</ele>
        <time>2019-06-23T06:58:22.000Z</time>
      </trkpt>
      <trkpt lat="43.27099" lon="2.45837">
        <ele>163.4</ele>
        <time>2019-06-23T06:58:23.000Z</time>
      </trkpt>
      <trkpt lat="43.27101" lon="2.45836">
        <ele>163.5</ele>
        <time>2019-06-23T06:58:24.000Z</time>
      </trkpt>
      <trkpt lat="43.27104" lon="2.45835">
        <ele>163.5</ele>
        <time>2019-06-23T06:58:25.000Z</time>
      </trkpt>
      <trkpt lat="43.27106" lon="2.45834">
        <ele>163.6</ele>
        <time>2019-06-23T06:58:26.000Z</time>
      </trkpt>
      <trkpt lat="43.27109" lon="2.45833">
        <ele>163.6</ele>
        <time>2019-06-23T06:58:27.000Z</time>
      </trkpt>
      <trkpt lat="43.27111" lon="2.45832">
        <ele>163.6</ele>
        <time>2019-06-23T06:58:28.000Z</time>
      </trkpt>
      <trkpt lat="43.27113" lon="2.45831">
        <ele>163.7</ele>
        <time>2019-06-23T06:58:29.000Z</time>
      </trkpt>
      <trkpt lat="43.27116" lon="2.4583">
        <ele>163.7</ele>
        <time>2019-06-23T06:58:30.000Z</time>
      </trkpt>
      <trkpt lat="43.27118" lon="2.45828">
        <ele>163.7</ele>
        <time>2019-06-23T06:58:31.000Z</time>
      </trkpt>
      <trkpt lat="43.27121" lon="2.45827">
        <ele>163.7</ele>
        <time>2019-06-23T06:58:32.000Z</time>
      </trkpt>
      <trkpt lat="43.27123" lon="2.45826">
        <ele>163.8</ele>
        <time>2019-06-23T06:58:33.000Z</time>
      </trkpt>
      <trkpt lat="43.27126" lon="2.45824">
        <ele>163.8</ele>
        <time>2019-06-23T06:58:34.000Z</time>
      </trkpt>
      <trkpt lat="43.27129" lon="2.45823">
        <ele>163.8</ele>
        <time>2019-06-23T06:58:35.000Z</time>
      </trkpt>
      <trkpt lat="43.27132" lon="2.45821">
        <ele>163.9</ele>
        <time>2019-06-23T06:58:36.000Z</time>
      </trkpt>
      <trkpt lat="43.27134" lon="2.4582">
        <ele>163.9</ele>
        <time>2019-06-23T06:58:37.000Z</time>
      </trkpt>
      <trkpt lat="43.27137" lon="2.45818">
        <ele>163.9</ele>
        <time>2019-06-23T06:58:38.000Z</time>
      </trkpt>
      <trkpt lat="43.2714" lon="2.45817">
        <ele>164</ele>
        <time>2019-06-23T06:58:39.000Z</time>
      </trkpt>
      <trkpt lat="43.27142" lon="2.45816">
        <ele>164</ele>
        <time>2019-06-23T06:58:40.000Z</time>
      </trkpt>
      <trkpt lat="43.27145" lon="2.45814">
        <ele>164</ele>
        <time>2019-06-23T06:58:41.000Z</time>
      </trkpt>
      <trkpt lat="43.27147" lon="2.45813">
        <ele>164</ele>
        <time>2019-06-23T06:58:42.000Z</time>
      </trkpt>
      <trkpt lat="43.27149" lon="2.45812">
        <ele>164</ele>
        <time>2019-06-23T06:58:43.000Z</time>
      </trkpt>
      <trkpt lat="43.2715" lon="2.45811">
        <ele>164.1</ele>
        <time>2019-06-23T06:58:44.000Z</time>
      </trkpt>
      <trkpt lat="43.27151" lon="2.4581">
        <ele>164.1</ele>
        <time>2019-06-23T06:58:45.000Z</time>
      </trkpt>
      <trkpt lat="43.27153" lon="2.45809">
        <ele>164.1</ele>
        <time>2019-06-23T06:58:46.000Z</time>
      </trkpt>
      <trkpt lat="43.27154" lon="2.45808">
        <ele>164.1</ele>
        <time>2019-06-23T06:58:47.000Z</time>
      </trkpt>
      <trkpt lat="43.27155" lon="2.45808">
        <ele>164.1</ele>
        <time>2019-06-23T06:58:48.000Z</time>
      </trkpt>
      <trkpt lat="43.27156" lon="2.45807">
        <ele>164.1</ele>
        <time>2019-06-23T06:58:49.000Z</time>
      </trkpt>
      <trkpt lat="43.27157" lon="2.45806">
        <ele>164.1</ele>
        <time>2019-06-23T06:58:50.000Z</time>
      </trkpt>
      <trkpt lat="43.27159" lon="2.45806">
        <ele>164.1</ele>
        <time>2019-06-23T06:58:51.000Z</time>
      </trkpt>
      <trkpt lat="43.2716" lon="2.45806">
        <ele>164.2</ele>
        <time>2019-06-23T06:58:52.000Z</time>
      </trkpt>
      <trkpt lat="43.27161" lon="2.45805">
        <ele>164.2</ele>
        <time>2019-06-23T06:58:53.000Z</time>
      </trkpt>
      <trkpt lat="43.27162" lon="2.45805">
        <ele>164.2</ele>
        <time>2019-06-23T06:58:54.000Z</time>
      </trkpt>
      <trkpt lat="43.27163" lon="2.45805">
        <ele>164.2</ele>
        <time>2019-06-23T06:58:55.000Z</time>
      </trkpt>
      <trkpt lat="43.27164" lon="2.45804">
        <ele>164.2</ele>
        <time>2019-06-23T06:58:56.000Z</time>
      </trkpt>
      <trkpt lat="43.27165" lon="2.45804">
        <ele>164.3</ele>
        <time>2019-06-23T06:58:57.000Z</time>
      </trkpt>
      <trkpt lat="43.27167" lon="2.45804">
        <ele>164.3</ele>
        <time>2019-06-23T06:58:58.000Z</time>
      </trkpt>
      <trkpt lat="43.27168" lon="2.45804">
        <ele>164.4</ele>
        <time>2019-06-23T06:58:59.000Z</time>
      </trkpt>
      <trkpt lat="43.27169" lon="2.45804">
        <ele>164.4</ele>
        <time>2019-06-23T06:59:00.000Z</time>
      </trkpt>
      <trkpt lat="43.2717" lon="2.45804">
        <ele>164.5</ele>
        <time>2019-06-23T06:59:01.000Z</time>
      </trkpt>
      <trkpt lat="43.27171" lon="2.45805">
        <ele>164.6</ele>
        <time>2019-06-23T06:59:02.000Z</time>
      </trkpt>
      <trkpt lat="43.27172" lon="2.45805">
        <ele>164.6</ele>
        <time>2019-06-23T06:59:03.000Z</time>
      </trkpt>
      <trkpt lat="43.27173" lon="2.45805">
        <ele>164.7</ele>
        <time>2019-06-23T06:59:04.000Z</time>
      </trkpt>
      <trkpt lat="43.27175" lon="2.45805">
        <ele>164.8</ele>
        <time>2019-06-23T06:59:05.000Z</time>
      </trkpt>
      <trkpt lat="43.27176" lon="2.45806">
        <ele>164.8</ele>
        <time>2019-06-23T06:59:06.000Z</time>
      </trkpt>
      <trkpt lat="43.27177" lon="2.45806">
        <ele>164.9</ele>
        <time>2019-06-23T06:59:07.000Z</time>
      </trkpt>
      <trkpt lat="43.27178" lon="2.45807">
        <ele>165</ele>
        <time>2019-06-23T06:59:08.000Z</time>
      </trkpt>
      <trkpt lat="43.27179" lon="2.45807">
        <ele>165.1</ele>
        <time>2019-06-23T06:59:09.000Z</time>
      </trkpt>
      <trkpt lat="43.2718" lon="2.45808">
        <ele>165.1</ele>
        <time>2019-06-23T06:59:10.000Z</time>
      </trkpt>
      <trkpt lat="43.27181" lon="2.45808">
        <ele>165.2</ele>
        <time>2019-06-23T06:59:11.000Z</time>
      </trkpt>
      <trkpt lat="43.27183" lon="2.45809">
        <ele>165.3</ele>
        <time>2019-06-23T06:59:12.000Z</time>
      </trkpt>
      <trkpt lat="43.27184" lon="2.45809">
        <ele>165.4</ele>
        <time>2019-06-23T06:59:13.000Z</time>
      </trkpt>
      <trkpt lat="43.27185" lon="2.4581">
        <ele>165.5</ele>
        <time>2019-06-23T06:59:14.000Z</time>
      </trkpt>
      <trkpt lat="43.27186" lon="2.4581">
        <ele>165.5</ele>
        <time>2019-06-23T06:59:15.000Z</time>
      </trkpt>
      <trkpt lat="43.27187" lon="2.45811">
        <ele>165.6</ele>
        <time>2019-06-23T06:59:16.000Z</time>
      </trkpt>
      <trkpt lat="43.27188" lon="2.45811">
        <ele>165.7</ele>
        <time>2019-06-23T06:59:17.000Z</time>
      </trkpt>
      <trkpt lat="43.27189" lon="2.45811">
        <ele>165.7</ele>
        <time>2019-06-23T06:59:18.000Z</time>
      </trkpt>
      <trkpt lat="43.2719" lon="2.45812">
        <ele>165.8</ele>
        <time>2019-06-23T06:59:19.000Z</time>
      </trkpt>
      <trkpt lat="43.27191" lon="2.45812">
        <ele>165.9</ele>
        <time>2019-06-23T06:59:20.000Z</time>
      </trkpt>
      <trkpt lat="43.27192" lon="2.45812">
        <ele>166</ele>
        <time>2019-06-23T06:59:21.000Z</time>
      </trkpt>
      <trkpt lat="43.27194" lon="2.45813">
        <ele>166</ele>
        <time>2019-06-23T06:59:22.000Z</time>
      </trkpt>
      <trkpt lat="43.27195" lon="2.45813">
        <ele>166.1</ele>
        <time>2019-06-23T06:59:23.000Z</time>
      </trkpt>
      <trkpt lat="43.27196" lon="2.45813">
        <ele>166.2</ele>
        <time>2019-06-23T06:59:24.000Z</time>
      </trkpt>
      <trkpt lat="43.27196" lon="2.45813">
        <ele>166.2</ele>
        <time>2019-06-23T06:59:25.000Z</time>
      </trkpt>
      <trkpt lat="43.27197" lon="2.45814">
        <ele>166.3</ele>
        <time>2019-06-23T06:59:26.000Z</time>
      </trkpt>
      <trkpt lat="43.27198" lon="2.45814">
        <ele>166.3</ele>
        <time>2019-06-23T06:59:27.000Z</time>
      </trkpt>
      <trkpt lat="43.27198" lon="2.45815">
        <ele>166.4</ele>
        <time>2019-06-23T06:59:28.000Z</time>
      </trkpt>
      <trkpt lat="43.27198" lon="2.45815">
        <ele>166.4</ele>
        <time>2019-06-23T06:59:29.000Z</time>
      </trkpt>
      <trkpt lat="43.27198" lon="2.45816">
        <ele>166.4</ele>
        <time>2019-06-23T06:59:30.000Z</time>
      </trkpt>
      <trkpt lat="43.27198" lon="2.45816">
        <ele>166.4</ele>
        <time>2019-06-23T06:59:31.000Z</time>
      </trkpt>
      <trkpt lat="43.27197" lon="2.45816">
        <ele>166.4</ele>
        <time>2019-06-23T06:59:32.000Z</time>
      </trkpt>
      <trkpt lat="43.27197" lon="2.45816">
        <ele>166.3</ele>
        <time>2019-06-23T06:59:33.000Z</time>
      </trkpt>
      <trkpt lat="43.27196" lon="2.45816">
        <ele>166.3</ele>
        <time>2019-06-23T06:59:34.000Z</time>
      </trkpt>
      <trkpt lat="43.27195" lon="2.45816">
        <ele>166.2</ele>
        <time>2019-06-23T06:59:35.000Z</time>
      </trkpt>
      <trkpt lat="43.27195" lon="2.45815">
        <ele>166.2</ele>
        <time>2019-06-23T06:59:36.000Z</time>
      </trkpt>
      <trkpt lat="43.27194" lon="2.45815">
        <ele>166.1</ele>
        <time>2019-06-23T06:59:37.000Z</time>
      </trkpt>
      <trkpt lat="43.27194" lon="2.45814">
        <ele>166.1</ele>
        <time>2019-06-23T06:59:38.000Z</time>
      </trkpt>
      <trkpt lat="43.27194" lon="2.45814">
        <ele>166.1</ele>
        <time>2019-06-23T06:59:39.000Z</time>
      </trkpt>
      <trkpt lat="43.27194" lon="2.45813">
        <ele>166.1</ele>
        <time>2019-06-23T06:59:40.000Z</time>
      </trkpt>
      <trkpt lat="43.27195" lon="2.45812">
        <ele>166.1</ele>
        <time>2019-06-23T06:59:41.000Z</time>
      </trkpt>
      <trkpt lat="43.27195" lon="2.45812">
        <ele>166.1</ele>
        <time>2019-06-23T06:59:42.000Z</time>
      </trkpt>
      <trkpt lat="43.27196" lon="2.45812">
        <ele>166.1</ele>
        <time>2019-06-23T06:59:43.000Z</time>
      </trkpt>
      <trkpt lat="43.27196" lon="2.45811">
        <ele>166.1</ele>
        <time>2019-06-23T06:59:44.000Z</time>
      </trkpt>
      <trkpt lat="43.27196" lon="2.45812">
        <ele>166.2</ele>
        <time>2019-06-23T06:59:45.000Z</time>
      </trkpt>
      <trkpt lat="43.27197" lon="2.45812">
        <ele>166.2</ele>
        <time>2019-06-23T06:59:46.000Z</time>
      </trkpt>
      <trkpt lat="43.27197" lon="2.45812">
        <ele>166.2</ele>
        <time>2019-06-23T06:59:47.000Z</time>
      </trkpt>
      <trkpt lat="43.27197" lon="2.45812">
        <ele>166.2</ele>
        <time>2019-06-23T06:59:48.000Z</time>
      </trkpt>
      <trkpt lat="43.27198" lon="2.45812">
        <ele>166.3</ele>
        <time>2019-06-23T06:59:49.000Z</time>
      </trkpt>
      <trkpt lat="43.27199" lon="2.45812">
        <ele>166.3</ele>
        <time>2019-06-23T06:59:50.000Z</time>
      </trkpt>
      <trkpt lat="43.272" lon="2.45812">
        <ele>166.4</ele>
        <time>2019-06-23T06:59:51.000Z</time>
      </trkpt>
      <trkpt lat="43.27201" lon="2.45812">
        <ele>166.4</ele>
        <time>2019-06-23T06:59:52.000Z</time>
      </trkpt>
      <trkpt lat="43.27202" lon="2.45812">
        <ele>166.5</ele>
        <time>2019-06-23T06:59:53.000Z</time>
      </trkpt>
      <trkpt lat="43.27202" lon="2.45812">
        <ele>166.5</ele>
        <time>2019-06-23T06:59:54.000Z</time>
      </trkpt>
      <trkpt lat="43.27203" lon="2.45813">
        <ele>166.6</ele>
        <time>2019-06-23T06:59:55.000Z</time>
      </trkpt>
      <trkpt lat="43.27204" lon="2.45813">
        <ele>166.6</ele>
        <time>2019-06-23T06:59:56.000Z</time>
      </trkpt>
      <trkpt lat="43.27205" lon="2.45813">
        <ele>166.7</ele>
        <time>2019-06-23T06:59:57.000Z</time>
      </trkpt>
      <trkpt lat="43.27206" lon="2.45813">
        <ele>166.8</ele>
        <time>2019-06-23T06:59:58.000Z</time>
      </trkpt>
      <trkpt lat="43.27208" lon="2.45813">
        <ele>166.8</ele>
        <time>2019-06-23T06:59:59.000Z</time>
      </trkpt>
      <trkpt lat="43.27209" lon="2.45813">
        <ele>166.9</ele>
        <time>2019-06-23T07:00:00.000Z</time>
      </trkpt>
      <trkpt lat="43.2721" lon="2.45813">
        <ele>167</ele>
        <time>2019-06-23T07:00:01.000Z</time>
      </trkpt>
      <trkpt lat="43.27211" lon="2.45813">
        <ele>167</ele>
        <time>2019-06-23T07:00:02.000Z</time>
      </trkpt>
      <trkpt lat="43.27212" lon="2.45813">
        <ele>167.1</ele>
        <time>2019-06-23T07:00:03.000Z</time>
      </trkpt>
      <trkpt lat="43.27213" lon="2.45813">
        <ele>167.2</ele>
        <time>2019-06-23T07:00:04.000Z</time>
      </trkpt>
      <trkpt lat="43.27214" lon="2.45813">
        <ele>167.2</ele>
        <time>2019-06-23T07:00:05.000Z</time>
      </trkpt>
      <trkpt lat="43.27215" lon="2.45813">
        <ele>167.3</ele>
        <time>2019-06-23T07:00:06.000Z</time>
      </trkpt>
      <trkpt lat="43.27216" lon="2.45813">
        <ele>167.3</ele>
        <time>2019-06-23T07:00:07.000Z</time>
      </trkpt>
      <trkpt lat="43.27218" lon="2.45813">
        <ele>167.4</ele>
        <time>2019-06-23T07:00:08.000Z</time>
      </trkpt>
      <trkpt lat="43.27219" lon="2.45813">
        <ele>167.5</ele>
        <time>2019-06-23T07:00:09.000Z</time>
      </trkpt>
      <trkpt lat="43.2722" lon="2.45813">
        <ele>167.5</ele>
        <time>2019-06-23T07:00:10.000Z</time>
      </trkpt>
      <trkpt lat="43.27221" lon="2.45813">
        <ele>167.6</ele>
        <time>2019-06-23T07:00:11.000Z</time>
      </trkpt>
      <trkpt lat="43.27223" lon="2.45813">
        <ele>167.7</ele>
        <time>2019-06-23T07:00:12.000Z</time>
      </trkpt>
      <trkpt lat="43.27224" lon="2.45813">
        <ele>167.8</ele>
        <time>2019-06-23T07:00:13.000Z</time>
      </trkpt>
      <trkpt lat="43.27225" lon="2.45813">
        <ele>167.8</ele>
        <time>2019-06-23T07:00:14.000Z</time>
      </trkpt>
      <trkpt lat="43.27227" lon="2.45812">
        <ele>167.9</ele>
        <time>2019-06-23T07:00:15.000Z</time>
      </trkpt>
      <trkpt lat="43.27229" lon="2.45812">
        <ele>168</ele>
        <time>2019-06-23T07:00:16.000Z</time>
      </trkpt>
      <trkpt lat="43.2723" lon="2.45812">
        <ele>168.1</ele>
        <time>2019-06-23T07:00:17.000Z</time>
      </trkpt>
      <trkpt lat="43.27232" lon="2.45812">
        <ele>168.2</ele>
        <time>2019-06-23T07:00:18.000Z</time>
      </trkpt>
      <trkpt lat="43.27234" lon="2.45812">
        <ele>168.3</ele>
        <time>2019-06-23T07:00:19.000Z</time>
      </trkpt>
      <trkpt lat="43.27236" lon="2.45812">
        <ele>168.4</ele>
        <time>2019-06-23T07:00:20.000Z</time>
      </trkpt>
      <trkpt lat="43.27238" lon="2.45812">
        <ele>168.6</ele>
        <time>2019-06-23T07:00:21.000Z</time>
      </trkpt>
      <trkpt lat="43.27241" lon="2.45812">
        <ele>168.7</ele>
        <time>2019-06-23T07:00:22.000Z</time>
      </trkpt>
      <trkpt lat="43.27243" lon="2.45811">
        <ele>168.8</ele>
        <time>2019-06-23T07:00:23.000Z</time>
      </trkpt>
      <trkpt lat="43.27245" lon="2.45811">
        <ele>168.9</ele>
        <time>2019-06-23T07:00:24.000Z</time>
      </trkpt>
      <trkpt lat="43.27247" lon="2.45811">
        <ele>169</ele>
        <time>2019-06-23T07:00:25.000Z</time>
      </trkpt>
      <trkpt lat="43.27249" lon="2.4581">
        <ele>169.1</ele>
        <time>2019-06-23T07:00:26.000Z</time>
      </trkpt>
      <trkpt lat="43.27251" lon="2.4581">
        <ele>169.2</ele>
        <time>2019-06-23T07:00:27.000Z</time>
      </trkpt>
      <trkpt lat="43.27253" lon="2.45809">
        <ele>169.2</ele>
        <time>2019-06-23T07:00:28.000Z</time>
      </trkpt>
      <trkpt lat="43.27255" lon="2.45809">
        <ele>169.2</ele>
        <time>2019-06-23T07:00:29.000Z</time>
      </trkpt>
      <trkpt lat="43.27257" lon="2.45809">
        <ele>169.3</ele>
        <time>2019-06-23T07:00:30.000Z</time>
      </trkpt>
      <trkpt lat="43.2726" lon="2.45809">
        <ele>169.4</ele>
        <time>2019-06-23T07:00:31.000Z</time>
      </trkpt>
      <trkpt lat="43.27262" lon="2.4581">
        <ele>169.4</ele>
        <time>2019-06-23T07:00:32.000Z</time>
      </trkpt>
      <trkpt lat="43.27264" lon="2.45811">
        <ele>169.5</ele>
        <time>2019-06-23T07:00:33.000Z</time>
      </trkpt>
      <trkpt lat="43.27266" lon="2.45813">
        <ele>169.7</ele>
        <time>2019-06-23T07:00:34.000Z</time>
      </trkpt>
      <trkpt lat="43.27267" lon="2.45816">
        <ele>169.8</ele>
        <time>2019-06-23T07:00:35.000Z</time>
      </trkpt>
      <trkpt lat="43.27269" lon="2.45818">
        <ele>169.9</ele>
        <time>2019-06-23T07:00:36.000Z</time>
      </trkpt>
      <trkpt lat="43.2727" lon="2.45821">
        <ele>170</ele>
        <time>2019-06-23T07:00:37.000Z</time>
      </trkpt>
      <trkpt lat="43.27271" lon="2.45824">
        <ele>170.1</ele>
        <time>2019-06-23T07:00:38.000Z</time>
      </trkpt>
      <trkpt lat="43.27271" lon="2.45826">
        <ele>170.3</ele>
        <time>2019-06-23T07:00:39.000Z</time>
      </trkpt>
      <trkpt lat="43.27272" lon="2.45829">
        <ele>170.4</ele>
        <time>2019-06-23T07:00:40.000Z</time>
      </trkpt>
      <trkpt lat="43.27272" lon="2.45832">
        <ele>170.5</ele>
        <time>2019-06-23T07:00:41.000Z</time>
      </trkpt>
      <trkpt lat="43.27273" lon="2.45834">
        <ele>170.5</ele>
        <time>2019-06-23T07:00:42.000Z</time>
      </trkpt>
      <trkpt lat="43.27273" lon="2.45837">
        <ele>170.5</ele>
        <time>2019-06-23T07:00:43.000Z</time>
      </trkpt>
      <trkpt lat="43.27274" lon="2.4584">
        <ele>170.5</ele>
        <time>2019-06-23T07:00:44.000Z</time>
      </trkpt>
      <trkpt lat="43.27274" lon="2.45842">
        <ele>170.5</ele>
        <time>2019-06-23T07:00:45.000Z</time>
      </trkpt>
      <trkpt lat="43.27275" lon="2.45845">
        <ele>170.5</ele>
        <time>2019-06-23T07:00:46.000Z</time>
      </trkpt>
      <trkpt lat="43.27275" lon="2.45848">
        <ele>170.5</ele>
        <time>2019-06-23T07:00:47.000Z</time>
      </trkpt>
      <trkpt lat="43.27276" lon="2.45851">
        <ele>170.5</ele>
        <time>2019-06-23T07:00:48.000Z</time>
      </trkpt>
      <trkpt lat="43.27276" lon="2.45854">
        <ele>170.5</ele>
        <time>2019-06-23T07:00:49.000Z</time>
      </trkpt>
      <trkpt lat="43.27277" lon="2.45857">
        <ele>170.5</ele>
        <time>2019-06-23T07:00:50.000Z</time>
      </trkpt>
      <trkpt lat="43.27278" lon="2.4586">
        <ele>170.4</ele>
        <time>2019-06-23T07:00:51.000Z</time>
      </trkpt>
      <trkpt lat="43.27278" lon="2.45863">
        <ele>170.4</ele>
        <time>2019-06-23T07:00:52.000Z</time>
      </trkpt>
      <trkpt lat="43.27279" lon="2.45866">
        <ele>170.4</ele>
        <time>2019-06-23T07:00:53.000Z</time>
      </trkpt>
      <trkpt lat="43.2728" lon="2.45869">
        <ele>170.4</ele>
        <time>2019-06-23T07:00:54.000Z</time>
      </trkpt>
      <trkpt lat="43.2728" lon="2.45873">
        <ele>170.4</ele>
        <time>2019-06-23T07:00:55.000Z</time>
      </trkpt>
      <trkpt lat="43.27281" lon="2.45876">
        <ele>170.4</ele>
        <time>2019-06-23T07:00:56.000Z</time>
      </trkpt>
      <trkpt lat="43.27281" lon="2.45879">
        <ele>170.4</ele>
        <time>2019-06-23T07:00:57.000Z</time>
      </trkpt>
      <trkpt lat="43.27282" lon="2.45882">
        <ele>170.4</ele>
        <time>2019-06-23T07:00:58.000Z</time>
      </trkpt>
      <trkpt lat="43.27283" lon="2.45886">
        <ele>170.4</ele>
        <time>2019-06-23T07:00:59.000Z</time>
      </trkpt>
      <trkpt lat="43.27283" lon="2.45889">
        <ele>170.4</ele>
        <time>2019-06-23T07:01:00.000Z</time>
      </trkpt>
      <trkpt lat="43.27284" lon="2.45893">
        <ele>170.4</ele>
        <time>2019-06-23T07:01:01.000Z</time>
      </trkpt>
      <trkpt lat="43.27285" lon="2.45896">
        <ele>170.4</ele>
        <time>2019-06-23T07:01:02.000Z</time>
      </trkpt>
      <trkpt lat="43.27285" lon="2.459">
        <ele>170.4</ele>
        <time>2019-06-23T07:01:03.000Z</time>
      </trkpt>
      <trkpt lat="43.27286" lon="2.45903">
        <ele>170.4</ele>
        <time>2019-06-23T07:01:04.000Z</time>
      </trkpt>
      <trkpt lat="43.27286" lon="2.45907">
        <ele>170.4</ele>
        <time>2019-06-23T07:01:05.000Z</time>
      </trkpt>
      <trkpt lat="43.27287" lon="2.4591">
        <ele>170.4</ele>
        <time>2019-06-23T07:01:06.000Z</time>
      </trkpt>
      <trkpt lat="43.27287" lon="2.45913">
        <ele>170.4</ele>
        <time>2019-06-23T07:01:07.000Z</time>
      </trkpt>
      <trkpt lat="43.27288" lon="2.45917">
        <ele>170.4</ele>
        <time>2019-06-23T07:01:08.000Z</time>
      </trkpt>
      <trkpt lat="43.27288" lon="2.4592">
        <ele>170.4</ele>
        <time>2019-06-23T07:01:09.000Z</time>
      </trkpt>
      <trkpt lat="43.27289" lon="2.45924">
        <ele>170.5</ele>
        <time>2019-06-23T07:01:10.000Z</time>
      </trkpt>
      <trkpt lat="43.27289" lon="2.45927">
        <ele>170.6</ele>
        <time>2019-06-23T07:01:11.000Z</time>
      </trkpt>
      <trkpt lat="43.2729" lon="2.45931">
        <ele>170.7</ele>
        <time>2019-06-23T07:01:12.000Z</time>
      </trkpt>
      <trkpt lat="43.2729" lon="2.45934">
        <ele>170.8</ele>
        <time>2019-06-23T07:01:13.000Z</time>
      </trkpt>
      <trkpt lat="43.2729" lon="2.45937">
        <ele>170.8</ele>
        <time>2019-06-23T07:01:14.000Z</time>
      </trkpt>
      <trkpt lat="43.27291" lon="2.45941">
        <ele>170.9</ele>
        <time>2019-06-23T07:01:15.000Z</time>
      </trkpt>
      <trkpt lat="43.27291" lon="2.45944">
        <ele>171</ele>
        <time>2019-06-23T07:01:16.000Z</time>
      </trkpt>
      <trkpt lat="43.27291" lon="2.45947">
        <ele>171</ele>
        <time>2019-06-23T07:01:17.000Z</time>
      </trkpt>
      <trkpt lat="43.27292" lon="2.45951">
        <ele>171.1</ele>
        <time>2019-06-23T07:01:18.000Z</time>
      </trkpt>
      <trkpt lat="43.27292" lon="2.45954">
        <ele>171.2</ele>
        <time>2019-06-23T07:01:19.000Z</time>
      </trkpt>
      <trkpt lat="43.27292" lon="2.45958">
        <ele>171.2</ele>
        <time>2019-06-23T07:01:20.000Z</time>
      </trkpt>
      <trkpt lat="43.27292" lon="2.45961">
        <ele>171.3</ele>
        <time>2019-06-23T07:01:21.000Z</time>
      </trkpt>
      <trkpt lat="43.27292" lon="2.45964">
        <ele>171.4</ele>
        <time>2019-06-23T07:01:22.000Z</time>
      </trkpt>
      <trkpt lat="43.27292" lon="2.45968">
        <ele>171.4</ele>
        <time>2019-06-23T07:01:23.000Z</time>
      </trkpt>
      <trkpt lat="43.27293" lon="2.45971">
        <ele>171.5</ele>
        <time>2019-06-23T07:01:24.000Z</time>
      </trkpt>
      <trkpt lat="43.27293" lon="2.45975">
        <ele>171.6</ele>
        <time>2019-06-23T07:01:25.000Z</time>
      </trkpt>
      <trkpt lat="43.27293" lon="2.45978">
        <ele>171.6</ele>
        <time>2019-06-23T07:01:26.000Z</time>
      </trkpt>
      <trkpt lat="43.27293" lon="2.45981">
        <ele>171.7</ele>
        <time>2019-06-23T07:01:27.000Z</time>
      </trkpt>
      <trkpt lat="43.27293" lon="2.45985">
        <ele>171.7</ele>
        <time>2019-06-23T07:01:28.000Z</time>
      </trkpt>
      <trkpt lat="43.27293" lon="2.45988">
        <ele>171.8</ele>
        <time>2019-06-23T07:01:29.000Z</time>
      </trkpt>
      <trkpt lat="43.27293" lon="2.45992">
        <ele>171.9</ele>
        <time>2019-06-23T07:01:30.000Z</time>
      </trkpt>
      <trkpt lat="43.27293" lon="2.45995">
        <ele>171.9</ele>
        <time>2019-06-23T07:01:31.000Z</time>
      </trkpt>
      <trkpt lat="43.27293" lon="2.45999">
        <ele>172</ele>
        <time>2019-06-23T07:01:32.000Z</time>
      </trkpt>
      <trkpt lat="43.27293" lon="2.46002">
        <ele>172</ele>
        <time>2019-06-23T07:01:33.000Z</time>
      </trkpt>
      <trkpt lat="43.27293" lon="2.46005">
        <ele>172.1</ele>
        <time>2019-06-23T07:01:34.000Z</time>
      </trkpt>
      <trkpt lat="43.27293" lon="2.46009">
        <ele>172.1</ele>
        <time>2019-06-23T07:01:35.000Z</time>
      </trkpt>
      <trkpt lat="43.27293" lon="2.46012">
        <ele>172.1</ele>
        <time>2019-06-23T07:01:36.000Z</time>
      </trkpt>
      <trkpt lat="43.27294" lon="2.46016">
        <ele>172.1</ele>
        <time>2019-06-23T07:01:37.000Z</time>
      </trkpt>
      <trkpt lat="43.27294" lon="2.46019">
        <ele>172.1</ele>
        <time>2019-06-23T07:01:38.000Z</time>
      </trkpt>
      <trkpt lat="43.27294" lon="2.46023">
        <ele>172.2</ele>
        <time>2019-06-23T07:01:39.000Z</time>
      </trkpt>
      <trkpt lat="43.27295" lon="2.46026">
        <ele>172.2</ele>
        <time>2019-06-23T07:01:40.000Z</time>
      </trkpt>
      <trkpt lat="43.27295" lon="2.4603">
        <ele>172.2</ele>
        <time>2019-06-23T07:01:41.000Z</time>
      </trkpt>
      <trkpt lat="43.27296" lon="2.46033">
        <ele>172.2</ele>
        <time>2019-06-23T07:01:42.000Z</time>
      </trkpt>
      <trkpt lat="43.27297" lon="2.46036">
        <ele>172.3</ele>
        <time>2019-06-23T07:01:43.000Z</time>
      </trkpt>
      <trkpt lat="43.27297" lon="2.4604">
        <ele>172.3</ele>
        <time>2019-06-23T07:01:44.000Z</time>
      </trkpt>
      <trkpt lat="43.27298" lon="2.46043">
        <ele>172.3</ele>
        <time>2019-06-23T07:01:45.000Z</time>
      </trkpt>
      <trkpt lat="43.27299" lon="2.46047">
        <ele>172.3</ele>
        <time>2019-06-23T07:01:46.000Z</time>
      </trkpt>
      <trkpt lat="43.273" lon="2.4605">
        <ele>172.3</ele>
        <time>2019-06-23T07:01:47.000Z</time>
      </trkpt>
      <trkpt lat="43.273" lon="2.46053">
        <ele>172.3</ele>
        <time>2019-06-23T07:01:48.000Z</time>
      </trkpt>
      <trkpt lat="43.27301" lon="2.46057">
        <ele>172.3</ele>
        <time>2019-06-23T07:01:49.000Z</time>
      </trkpt>
      <trkpt lat="43.27302" lon="2.4606">
        <ele>172.3</ele>
        <time>2019-06-23T07:01:50.000Z</time>
      </trkpt>
      <trkpt lat="43.27303" lon="2.46063">
        <ele>172.3</ele>
        <time>2019-06-23T07:01:51.000Z</time>
      </trkpt>
      <trkpt lat="43.27304" lon="2.46067">
        <ele>172.3</ele>
        <time>2019-06-23T07:01:52.000Z</time>
      </trkpt>
      <trkpt lat="43.27304" lon="2.4607">
        <ele>172.3</ele>
        <time>2019-06-23T07:01:53.000Z</time>
      </trkpt>
      <trkpt lat="43.27305" lon="2.46073">
        <ele>172.3</ele>
        <time>2019-06-23T07:01:54.000Z</time>
      </trkpt>
      <trkpt lat="43.27306" lon="2.46077">
        <ele>172.3</ele>
        <time>2019-06-23T07:01:55.000Z</time>
      </trkpt>
      <trkpt lat="43.27306" lon="2.4608">
        <ele>172.3</ele>
        <time>2019-06-23T07:01:56.000Z</time>
      </trkpt>
      <trkpt lat="43.27307" lon="2.46083">
        <ele>172.3</ele>
        <time>2019-06-23T07:01:57.000Z</time>
      </trkpt>
      <trkpt lat="43.27308" lon="2.46087">
        <ele>172.3</ele>
        <time>2019-06-23T07:01:58.000Z</time>
      </trkpt>
      <trkpt lat="43.27309" lon="2.4609">
        <ele>172.2</ele>
        <time>2019-06-23T07:01:59.000Z</time>
      </trkpt>
      <trkpt lat="43.27309" lon="2.46093">
        <ele>172.2</ele>
        <time>2019-06-23T07:02:00.000Z</time>
      </trkpt>
      <trkpt lat="43.2731" lon="2.46097">
        <ele>172.1</ele>
        <time>2019-06-23T07:02:01.000Z</time>
      </trkpt>
      <trkpt lat="43.27311" lon="2.461">
        <ele>172</ele>
        <time>2019-06-23T07:02:02.000Z</time>
      </trkpt>
      <trkpt lat="43.27311" lon="2.46103">
        <ele>172</ele>
        <time>2019-06-23T07:02:03.000Z</time>
      </trkpt>
      <trkpt lat="43.27312" lon="2.46107">
        <ele>171.9</ele>
        <time>2019-06-23T07:02:04.000Z</time>
      </trkpt>
      <trkpt lat="43.27313" lon="2.4611">
        <ele>171.8</ele>
        <time>2019-06-23T07:02:05.000Z</time>
      </trkpt>
      <trkpt lat="43.27314" lon="2.46114">
        <ele>171.8</ele>
        <time>2019-06-23T07:02:06.000Z</time>
      </trkpt>
      <trkpt lat="43.27315" lon="2.46118">
        <ele>171.7</ele>
        <time>2019-06-23T07:02:07.000Z</time>
      </trkpt>
      <trkpt lat="43.27316" lon="2.46121">
        <ele>171.6</ele>
        <time>2019-06-23T07:02:08.000Z</time>
      </trkpt>
      <trkpt lat="43.27316" lon="2.46125">
        <ele>171.5</ele>
        <time>2019-06-23T07:02:09.000Z</time>
      </trkpt>
      <trkpt lat="43.27317" lon="2.46129">
        <ele>171.4</ele>
        <time>2019-06-23T07:02:10.000Z</time>
      </trkpt>
      <trkpt lat="43.27318" lon="2.46133">
        <ele>171.3</ele>
        <time>2019-06-23T07:02:11.000Z</time>
      </trkpt>
      <trkpt lat="43.27319" lon="2.46137">
        <ele>171.2</ele>
        <time>2019-06-23T07:02:12.000Z</time>
      </trkpt>
      <trkpt lat="43.2732" lon="2.4614">
        <ele>171.1</ele>
        <time>2019-06-23T07:02:13.000Z</time>
      </trkpt>
      <trkpt lat="43.27321" lon="2.46144">
        <ele>171</ele>
        <time>2019-06-23T07:02:14.000Z</time>
      </trkpt>
      <trkpt lat="43.27322" lon="2.46148">
        <ele>170.9</ele>
        <time>2019-06-23T07:02:15.000Z</time>
      </trkpt>
      <trkpt lat="43.27322" lon="2.46151">
        <ele>170.8</ele>
        <time>2019-06-23T07:02:16.000Z</time>
      </trkpt>
      <trkpt lat="43.27323" lon="2.46155">
        <ele>170.7</ele>
        <time>2019-06-23T07:02:17.000Z</time>
      </trkpt>
      <trkpt lat="43.27323" lon="2.46158">
        <ele>170.7</ele>
        <time>2019-06-23T07:02:18.000Z</time>
      </trkpt>
      <trkpt lat="43.27323" lon="2.46161">
        <ele>170.6</ele>
        <time>2019-06-23T07:02:19.000Z</time>
      </trkpt>
      <trkpt lat="43.27324" lon="2.46165">
        <ele>170.5</ele>
        <time>2019-06-23T07:02:20.000Z</time>
      </trkpt>
      <trkpt lat="43.27324" lon="2.46168">
        <ele>170.4</ele>
        <time>2019-06-23T07:02:21.000Z</time>
      </trkpt>
      <trkpt lat="43.27324" lon="2.46171">
        <ele>170.4</ele>
        <time>2019-06-23T07:02:22.000Z</time>
      </trkpt>
      <trkpt lat="43.27325" lon="2.46174">
        <ele>170.4</ele>
        <time>2019-06-23T07:02:23.000Z</time>
      </trkpt>
      <trkpt lat="43.27325" lon="2.46178">
        <ele>170.3</ele>
        <time>2019-06-23T07:02:24.000Z</time>
      </trkpt>
      <trkpt lat="43.27326" lon="2.46181">
        <ele>170.3</ele>
        <time>2019-06-23T07:02:25.000Z</time>
      </trkpt>
      <trkpt lat="43.27327" lon="2.46185">
        <ele>170.3</ele>
        <time>2019-06-23T07:02:26.000Z</time>
      </trkpt>
      <trkpt lat="43.27328" lon="2.46189">
        <ele>170.2</ele>
        <time>2019-06-23T07:02:27.000Z</time>
      </trkpt>
      <trkpt lat="43.27329" lon="2.46193">
        <ele>170.2</ele>
        <time>2019-06-23T07:02:28.000Z</time>
      </trkpt>
      <trkpt lat="43.2733" lon="2.46196">
        <ele>170.1</ele>
        <time>2019-06-23T07:02:29.000Z</time>
      </trkpt>
      <trkpt lat="43.27331" lon="2.462">
        <ele>170.1</ele>
        <time>2019-06-23T07:02:30.000Z</time>
      </trkpt>
      <trkpt lat="43.27331" lon="2.46203">
        <ele>170.1</ele>
        <time>2019-06-23T07:02:31.000Z</time>
      </trkpt>
      <trkpt lat="43.27332" lon="2.46207">
        <ele>170</ele>
        <time>2019-06-23T07:02:32.000Z</time>
      </trkpt>
      <trkpt lat="43.27333" lon="2.4621">
        <ele>170</ele>
        <time>2019-06-23T07:02:33.000Z</time>
      </trkpt>
      <trkpt lat="43.27334" lon="2.46214">
        <ele>170</ele>
        <time>2019-06-23T07:02:34.000Z</time>
      </trkpt>
      <trkpt lat="43.27335" lon="2.46217">
        <ele>170</ele>
        <time>2019-06-23T07:02:35.000Z</time>
      </trkpt>
      <trkpt lat="43.27335" lon="2.46221">
        <ele>169.9</ele>
        <time>2019-06-23T07:02:36.000Z</time>
      </trkpt>
      <trkpt lat="43.27336" lon="2.46224">
        <ele>169.9</ele>
        <time>2019-06-23T07:02:37.000Z</time>
      </trkpt>
      <trkpt lat="43.27336" lon="2.46227">
        <ele>169.9</ele>
        <time>2019-06-23T07:02:38.000Z</time>
      </trkpt>
      <trkpt lat="43.27337" lon="2.46231">
        <ele>169.9</ele>
        <time>2019-06-23T07:02:39.000Z</time>
      </trkpt>
      <trkpt lat="43.27337" lon="2.46234">
        <ele>169.8</ele>
        <time>2019-06-23T07:02:40.000Z</time>
      </trkpt>
      <trkpt lat="43.27338" lon="2.46237">
        <ele>169.8</ele>
        <time>2019-06-23T07:02:41.000Z</time>
      </trkpt>
      <trkpt lat="43.27338" lon="2.46241">
        <ele>169.8</ele>
        <time>2019-06-23T07:02:42.000Z</time>
      </trkpt>
      <trkpt lat="43.27338" lon="2.46244">
        <ele>169.8</ele>
        <time>2019-06-23T07:02:43.000Z</time>
      </trkpt>
      <trkpt lat="43.27339" lon="2.46247">
        <ele>169.8</ele>
        <time>2019-06-23T07:02:44.000Z</time>
      </trkpt>
      <trkpt lat="43.27339" lon="2.46251">
        <ele>169.8</ele>
        <time>2019-06-23T07:02:45.000Z</time>
      </trkpt>
      <trkpt lat="43.27339" lon="2.46254">
        <ele>169.9</ele>
        <time>2019-06-23T07:02:46.000Z</time>
      </trkpt>
      <trkpt lat="43.27339" lon="2.46258">
        <ele>170</ele>
        <time>2019-06-23T07:02:47.000Z</time>
      </trkpt>
      <trkpt lat="43.27339" lon="2.46261">
        <ele>170</ele>
        <time>2019-06-23T07:02:48.000Z</time>
      </trkpt>
      <trkpt lat="43.2734" lon="2.46265">
        <ele>170.1</ele>
        <time>2019-06-23T07:02:49.000Z</time>
      </trkpt>
      <trkpt lat="43.2734" lon="2.46268">
        <ele>170.2</ele>
        <time>2019-06-23T07:02:50.000Z</time>
      </trkpt>
      <trkpt lat="43.2734" lon="2.46272">
        <ele>170.3</ele>
        <time>2019-06-23T07:02:51.000Z</time>
      </trkpt>
      <trkpt lat="43.2734" lon="2.46275">
        <ele>170.3</ele>
        <time>2019-06-23T07:02:52.000Z</time>
      </trkpt>
      <trkpt lat="43.2734" lon="2.46278">
        <ele>170.4</ele>
        <time>2019-06-23T07:02:53.000Z</time>
      </trkpt>
      <trkpt lat="43.27341" lon="2.46282">
        <ele>170.5</ele>
        <time>2019-06-23T07:02:54.000Z</time>
      </trkpt>
      <trkpt lat="43.27341" lon="2.46285">
        <ele>170.5</ele>
        <time>2019-06-23T07:02:55.000Z</time>
      </trkpt>
      <trkpt lat="43.27341" lon="2.46289">
        <ele>170.6</ele>
        <time>2019-06-23T07:02:56.000Z</time>
      </trkpt>
      <trkpt lat="43.27341" lon="2.46292">
        <ele>170.7</ele>
        <time>2019-06-23T07:02:57.000Z</time>
      </trkpt>
      <trkpt lat="43.27342" lon="2.46295">
        <ele>170.7</ele>
        <time>2019-06-23T07:02:58.000Z</time>
      </trkpt>
      <trkpt lat="43.27342" lon="2.46299">
        <ele>170.8</ele>
        <time>2019-06-23T07:02:59.000Z</time>
      </trkpt>
      <trkpt lat="43.27342" lon="2.46302">
        <ele>170.8</ele>
        <time>2019-06-23T07:03:00.000Z</time>
      </trkpt>
      <trkpt lat="43.27343" lon="2.46305">
        <ele>170.9</ele>
        <time>2019-06-23T07:03:01.000Z</time>
      </trkpt>
      <trkpt lat="43.27343" lon="2.46308">
        <ele>171</ele>
        <time>2019-06-23T07:03:02.000Z</time>
      </trkpt>
      <trkpt lat="43.27343" lon="2.46311">
        <ele>171</ele>
        <time>2019-06-23T07:03:03.000Z</time>
      </trkpt>
      <trkpt lat="43.27344" lon="2.46315">
        <ele>171.1</ele>
        <time>2019-06-23T07:03:04.000Z</time>
      </trkpt>
      <trkpt lat="43.27344" lon="2.46318">
        <ele>171.1</ele>
        <time>2019-06-23T07:03:05.000Z</time>
      </trkpt>
      <trkpt lat="43.27344" lon="2.46321">
        <ele>171.2</ele>
        <time>2019-06-23T07:03:06.000Z</time>
      </trkpt>
      <trkpt lat="43.27344" lon="2.46324">
        <ele>171.3</ele>
        <time>2019-06-23T07:03:07.000Z</time>
      </trkpt>
      <trkpt lat="43.27345" lon="2.46327">
        <ele>171.3</ele>
        <time>2019-06-23T07:03:08.000Z</time>
      </trkpt>
      <trkpt lat="43.27345" lon="2.46331">
        <ele>171.4</ele>
        <time>2019-06-23T07:03:09.000Z</time>
      </trkpt>
      <trkpt lat="43.27346" lon="2.46334">
        <ele>171.4</ele>
        <time>2019-06-23T07:03:10.000Z</time>
      </trkpt>
      <trkpt lat="43.27346" lon="2.46338">
        <ele>171.5</ele>
        <time>2019-06-23T07:03:11.000Z</time>
      </trkpt>
      <trkpt lat="43.27347" lon="2.46342">
        <ele>171.5</ele>
        <time>2019-06-23T07:03:12.000Z</time>
      </trkpt>
      <trkpt lat="43.27347" lon="2.46346">
        <ele>171.6</ele>
        <time>2019-06-23T07:03:13.000Z</time>
      </trkpt>
      <trkpt lat="43.27347" lon="2.46349">
        <ele>171.6</ele>
        <time>2019-06-23T07:03:14.000Z</time>
      </trkpt>
      <trkpt lat="43.27347" lon="2.46353">
        <ele>171.7</ele>
        <time>2019-06-23T07:03:15.000Z</time>
      </trkpt>
      <trkpt lat="43.27347" lon="2.46356">
        <ele>171.8</ele>
        <time>2019-06-23T07:03:16.000Z</time>
      </trkpt>
      <trkpt lat="43.27346" lon="2.46359">
        <ele>171.8</ele>
        <time>2019-06-23T07:03:17.000Z</time>
      </trkpt>
      <trkpt lat="43.27345" lon="2.46362">
        <ele>171.9</ele>
        <time>2019-06-23T07:03:18.000Z</time>
      </trkpt>
      <trkpt lat="43.27343" lon="2.46364">
        <ele>172</ele>
        <time>2019-06-23T07:03:19.000Z</time>
      </trkpt>
      <trkpt lat="43.27341" lon="2.46366">
        <ele>172.1</ele>
        <time>2019-06-23T07:03:20.000Z</time>
      </trkpt>
      <trkpt lat="43.27338" lon="2.46367">
        <ele>172.2</ele>
        <time>2019-06-23T07:03:21.000Z</time>
      </trkpt>
      <trkpt lat="43.27336" lon="2.46368">
        <ele>172.3</ele>
        <time>2019-06-23T07:03:22.000Z</time>
      </trkpt>
      <trkpt lat="43.27333" lon="2.46369">
        <ele>172.4</ele>
        <time>2019-06-23T07:03:23.000Z</time>
      </trkpt>
      <trkpt lat="43.27331" lon="2.46369">
        <ele>172.4</ele>
        <time>2019-06-23T07:03:24.000Z</time>
      </trkpt>
      <trkpt lat="43.27329" lon="2.4637">
        <ele>172.5</ele>
        <time>2019-06-23T07:03:25.000Z</time>
      </trkpt>
      <trkpt lat="43.27327" lon="2.4637">
        <ele>172.5</ele>
        <time>2019-06-23T07:03:26.000Z</time>
      </trkpt>
      <trkpt lat="43.27325" lon="2.4637">
        <ele>172.5</ele>
        <time>2019-06-23T07:03:27.000Z</time>
      </trkpt>
      <trkpt lat="43.27324" lon="2.4637">
        <ele>172.5</ele>
        <time>2019-06-23T07:03:28.000Z</time>
      </trkpt>
      <trkpt lat="43.27323" lon="2.46371">
        <ele>172.5</ele>
        <time>2019-06-23T07:03:29.000Z</time>
      </trkpt>
      <trkpt lat="43.27323" lon="2.46371">
        <ele>172.5</ele>
        <time>2019-06-23T07:03:30.000Z</time>
      </trkpt>
      <trkpt lat="43.27322" lon="2.46371">
        <ele>172.5</ele>
        <time>2019-06-23T07:03:31.000Z</time>
      </trkpt>
      <trkpt lat="43.27322" lon="2.46371">
        <ele>172.5</ele>
        <time>2019-06-23T07:03:32.000Z</time>
      </trkpt>
      <trkpt lat="43.27321" lon="2.46371">
        <ele>172.5</ele>
        <time>2019-06-23T07:03:33.000Z</time>
      </trkpt>
      <trkpt lat="43.27321" lon="2.46372">
        <ele>172.5</ele>
        <time>2019-06-23T07:03:34.000Z</time>
      </trkpt>
      <trkpt lat="43.2732" lon="2.46372">
        <ele>172.5</ele>
        <time>2019-06-23T07:03:35.000Z</time>
      </trkpt>
      <trkpt lat="43.27319" lon="2.46372">
        <ele>172.5</ele>
        <time>2019-06-23T07:03:36.000Z</time>
      </trkpt>
      <trkpt lat="43.27319" lon="2.46373">
        <ele>172.6</ele>
        <time>2019-06-23T07:03:37.000Z</time>
      </trkpt>
      <trkpt lat="43.27318" lon="2.46373">
        <ele>172.6</ele>
        <time>2019-06-23T07:03:38.000Z</time>
      </trkpt>
      <trkpt lat="43.27318" lon="2.46374">
        <ele>172.6</ele>
        <time>2019-06-23T07:03:39.000Z</time>
      </trkpt>
      <trkpt lat="43.27317" lon="2.46374">
        <ele>172.6</ele>
        <time>2019-06-23T07:03:40.000Z</time>
      </trkpt>
      <trkpt lat="43.27316" lon="2.46375">
        <ele>172.6</ele>
        <time>2019-06-23T07:03:41.000Z</time>
      </trkpt>
      <trkpt lat="43.27315" lon="2.46375">
        <ele>172.6</ele>
        <time>2019-06-23T07:03:42.000Z</time>
      </trkpt>
      <trkpt lat="43.27315" lon="2.46375">
        <ele>172.6</ele>
        <time>2019-06-23T07:03:43.000Z</time>
      </trkpt>
      <trkpt lat="43.27314" lon="2.46376">
        <ele>172.6</ele>
        <time>2019-06-23T07:03:44.000Z</time>
      </trkpt>
      <trkpt lat="43.27313" lon="2.46376">
        <ele>172.6</ele>
        <time>2019-06-23T07:03:45.000Z</time>
      </trkpt>
      <trkpt lat="43.27312" lon="2.46377">
        <ele>172.7</ele>
        <time>2019-06-23T07:03:46.000Z</time>
      </trkpt>
      <trkpt lat="43.27311" lon="2.46378">
        <ele>172.7</ele>
        <time>2019-06-23T07:03:47.000Z</time>
      </trkpt>
      <trkpt lat="43.2731" lon="2.46379">
        <ele>172.7</ele>
        <time>2019-06-23T07:03:48.000Z</time>
      </trkpt>
      <trkpt lat="43.27309" lon="2.4638">
        <ele>172.7</ele>
        <time>2019-06-23T07:03:49.000Z</time>
      </trkpt>
      <trkpt lat="43.27308" lon="2.46382">
        <ele>172.8</ele>
        <time>2019-06-23T07:03:50.000Z</time>
      </trkpt>
      <trkpt lat="43.27306" lon="2.46383">
        <ele>172.8</ele>
        <time>2019-06-23T07:03:51.000Z</time>
      </trkpt>
      <trkpt lat="43.27305" lon="2.46385">
        <ele>172.8</ele>
        <time>2019-06-23T07:03:52.000Z</time>
      </trkpt>
      <trkpt lat="43.27303" lon="2.46387">
        <ele>172.9</ele>
        <time>2019-06-23T07:03:53.000Z</time>
      </trkpt>
      <trkpt lat="43.27301" lon="2.46389">
        <ele>172.9</ele>
        <time>2019-06-23T07:03:54.000Z</time>
      </trkpt>
      <trkpt lat="43.27299" lon="2.46391">
        <ele>173</ele>
        <time>2019-06-23T07:03:55.000Z</time>
      </trkpt>
      <trkpt lat="43.27297" lon="2.46393">
        <ele>173</ele>
        <time>2019-06-23T07:03:56.000Z</time>
      </trkpt>
      <trkpt lat="43.27296" lon="2.46395">
        <ele>173.1</ele>
        <time>2019-06-23T07:03:57.000Z</time>
      </trkpt>
      <trkpt lat="43.27294" lon="2.46398">
        <ele>173.1</ele>
        <time>2019-06-23T07:03:58.000Z</time>
      </trkpt>
      <trkpt lat="43.27292" lon="2.464">
        <ele>173.2</ele>
        <time>2019-06-23T07:03:59.000Z</time>
      </trkpt>
      <trkpt lat="43.2729" lon="2.46402">
        <ele>173.3</ele>
        <time>2019-06-23T07:04:00.000Z</time>
      </trkpt>
      <trkpt lat="43.27288" lon="2.46404">
        <ele>173.3</ele>
        <time>2019-06-23T07:04:01.000Z</time>
      </trkpt>
      <trkpt lat="43.27286" lon="2.46406">
        <ele>173.4</ele>
        <time>2019-06-23T07:04:02.000Z</time>
      </trkpt>
      <trkpt lat="43.27284" lon="2.46409">
        <ele>173.4</ele>
        <time>2019-06-23T07:04:03.000Z</time>
      </trkpt>
      <trkpt lat="43.27283" lon="2.46411">
        <ele>173.5</ele>
        <time>2019-06-23T07:04:04.000Z</time>
      </trkpt>
      <trkpt lat="43.27281" lon="2.46413">
        <ele>173.6</ele>
        <time>2019-06-23T07:04:05.000Z</time>
      </trkpt>
      <trkpt lat="43.27279" lon="2.46415">
        <ele>173.6</ele>
        <time>2019-06-23T07:04:06.000Z</time>
      </trkpt>
      <trkpt lat="43.27277" lon="2.46417">
        <ele>173.7</ele>
        <time>2019-06-23T07:04:07.000Z</time>
      </trkpt>
      <trkpt lat="43.27275" lon="2.4642">
        <ele>173.7</ele>
        <time>2019-06-23T07:04:08.000Z</time>
      </trkpt>
      <trkpt lat="43.27273" lon="2.46422">
        <ele>173.8</ele>
        <time>2019-06-23T07:04:09.000Z</time>
      </trkpt>
      <trkpt lat="43.27271" lon="2.46424">
        <ele>173.8</ele>
        <time>2019-06-23T07:04:10.000Z</time>
      </trkpt>
      <trkpt lat="43.2727" lon="2.46426">
        <ele>173.8</ele>
        <time>2019-06-23T07:04:11.000Z</time>
      </trkpt>
      <trkpt lat="43.27268" lon="2.46428">
        <ele>173.9</ele>
        <time>2019-06-23T07:04:12.000Z</time>
      </trkpt>
      <trkpt lat="43.27266" lon="2.4643">
        <ele>173.9</ele>
        <time>2019-06-23T07:04:13.000Z</time>
      </trkpt>
      <trkpt lat="43.27264" lon="2.46432">
        <ele>174</ele>
        <time>2019-06-23T07:04:14.000Z</time>
      </trkpt>
      <trkpt lat="43.27262" lon="2.46434">
        <ele>174</ele>
        <time>2019-06-23T07:04:15.000Z</time>
      </trkpt>
      <trkpt lat="43.2726" lon="2.46436">
        <ele>174.1</ele>
        <time>2019-06-23T07:04:16.000Z</time>
      </trkpt>
      <trkpt lat="43.27259" lon="2.46438">
        <ele>174.1</ele>
        <time>2019-06-23T07:04:17.000Z</time>
      </trkpt>
      <trkpt lat="43.27257" lon="2.4644">
        <ele>174.2</ele>
        <time>2019-06-23T07:04:18.000Z</time>
      </trkpt>
      <trkpt lat="43.27255" lon="2.46441">
        <ele>174.2</ele>
        <time>2019-06-23T07:04:19.000Z</time>
      </trkpt>
      <trkpt lat="43.27253" lon="2.46443">
        <ele>174.3</ele>
        <time>2019-06-23T07:04:20.000Z</time>
      </trkpt>
      <trkpt lat="43.27251" lon="2.46445">
        <ele>174.3</ele>
        <time>2019-06-23T07:04:21.000Z</time>
      </trkpt>
      <trkpt lat="43.27249" lon="2.46447">
        <ele>174.4</ele>
        <time>2019-06-23T07:04:22.000Z</time>
      </trkpt>
      <trkpt lat="43.27247" lon="2.46449">
        <ele>174.4</ele>
        <time>2019-06-23T07:04:23.000Z</time>
      </trkpt>
      <trkpt lat="43.27246" lon="2.46451">
        <ele>174.5</ele>
        <time>2019-06-23T07:04:24.000Z</time>
      </trkpt>
      <trkpt lat="43.27244" lon="2.46453">
        <ele>174.5</ele>
        <time>2019-06-23T07:04:25.000Z</time>
      </trkpt>
      <trkpt lat="43.27242" lon="2.46454">
        <ele>174.5</ele>
        <time>2019-06-23T07:04:26.000Z</time>
      </trkpt>
      <trkpt lat="43.2724" lon="2.46456">
        <ele>174.6</ele>
        <time>2019-06-23T07:04:27.000Z</time>
      </trkpt>
      <trkpt lat="43.27238" lon="2.46458">
        <ele>174.6</ele>
        <time>2019-06-23T07:04:28.000Z</time>
      </trkpt>
      <trkpt lat="43.27236" lon="2.4646">
        <ele>174.7</ele>
        <time>2019-06-23T07:04:29.000Z</time>
      </trkpt>
      <trkpt lat="43.27234" lon="2.46462">
        <ele>174.7</ele>
        <time>2019-06-23T07:04:30.000Z</time>
      </trkpt>
      <trkpt lat="43.27232" lon="2.46464">
        <ele>174.8</ele>
        <time>2019-06-23T07:04:31.000Z</time>
      </trkpt>
      <trkpt lat="43.2723" lon="2.46466">
        <ele>174.9</ele>
        <time>2019-06-23T07:04:32.000Z</time>
      </trkpt>
      <trkpt lat="43.27229" lon="2.46467">
        <ele>174.9</ele>
        <time>2019-06-23T07:04:33.000Z</time>
      </trkpt>
      <trkpt lat="43.27227" lon="2.46469">
        <ele>175</ele>
        <time>2019-06-23T07:04:34.000Z</time>
      </trkpt>
      <trkpt lat="43.27225" lon="2.46471">
        <ele>175.1</ele>
        <time>2019-06-23T07:04:35.000Z</time>
      </trkpt>
      <trkpt lat="43.27223" lon="2.46473">
        <ele>175.1</ele>
        <time>2019-06-23T07:04:36.000Z</time>
      </trkpt>
      <trkpt lat="43.27221" lon="2.46475">
        <ele>175.2</ele>
        <time>2019-06-23T07:04:37.000Z</time>
      </trkpt>
      <trkpt lat="43.27219" lon="2.46477">
        <ele>175.3</ele>
        <time>2019-06-23T07:04:38.000Z</time>
      </trkpt>
      <trkpt lat="43.27217" lon="2.46479">
        <ele>175.3</ele>
        <time>2019-06-23T07:04:39.000Z</time>
      </trkpt>
      <trkpt lat="43.27216" lon="2.46481">
        <ele>175.4</ele>
        <time>2019-06-23T07:04:40.000Z</time>
      </trkpt>
      <trkpt lat="43.27214" lon="2.46484">
        <ele>175.5</ele>
        <time>2019-06-23T07:04:41.000Z</time>
      </trkpt>
      <trkpt lat="43.27212" lon="2.46486">
        <ele>175.6</ele>
        <time>2019-06-23T07:04:42.000Z</time>
      </trkpt>
      <trkpt lat="43.2721" lon="2.46488">
        <ele>175.7</ele>
        <time>2019-06-23T07:04:43.000Z</time>
      </trkpt>
      <trkpt lat="43.27208" lon="2.4649">
        <ele>175.8</ele>
        <time>2019-06-23T07:04:44.000Z</time>
      </trkpt>
      <trkpt lat="43.27207" lon="2.46492">
        <ele>175.8</ele>
        <time>2019-06-23T07:04:45.000Z</time>
      </trkpt>
      <trkpt lat="43.27205" lon="2.46495">
        <ele>175.9</ele>
        <time>2019-06-23T07:04:46.000Z</time>
      </trkpt>
      <trkpt lat="43.27203" lon="2.46497">
        <ele>176</ele>
        <time>2019-06-23T07:04:47.000Z</time>
      </trkpt>
      <trkpt lat="43.27202" lon="2.46499">
        <ele>176.1</ele>
        <time>2019-06-23T07:04:48.000Z</time>
      </trkpt>
      <trkpt lat="43.272" lon="2.46501">
        <ele>176.2</ele>
        <time>2019-06-23T07:04:49.000Z</time>
      </trkpt>
      <trkpt lat="43.27198" lon="2.46504">
        <ele>176.4</ele>
        <time>2019-06-23T07:04:50.000Z</time>
      </trkpt>
      <trkpt lat="43.27197" lon="2.46506">
        <ele>176.5</ele>
        <time>2019-06-23T07:04:51.000Z</time>
      </trkpt>
      <trkpt lat="43.27195" lon="2.46509">
        <ele>176.6</ele>
        <time>2019-06-23T07:04:52.000Z</time>
      </trkpt>
      <trkpt lat="43.27193" lon="2.46511">
        <ele>176.7</ele>
        <time>2019-06-23T07:04:53.000Z</time>
      </trkpt>
      <trkpt lat="43.27192" lon="2.46513">
        <ele>176.8</ele>
        <time>2019-06-23T07:04:54.000Z</time>
      </trkpt>
      <trkpt lat="43.2719" lon="2.46516">
        <ele>177</ele>
        <time>2019-06-23T07:04:55.000Z</time>
      </trkpt>
      <trkpt lat="43.27188" lon="2.46518">
        <ele>177.1</ele>
        <time>2019-06-23T07:04:56.000Z</time>
      </trkpt>
      <trkpt lat="43.27186" lon="2.46521">
        <ele>177.2</ele>
        <time>2019-06-23T07:04:57.000Z</time>
      </trkpt>
      <trkpt lat="43.27185" lon="2.46523">
        <ele>177.3</ele>
        <time>2019-06-23T07:04:58.000Z</time>
      </trkpt>
      <trkpt lat="43.27183" lon="2.46526">
        <ele>177.5</ele>
        <time>2019-06-23T07:04:59.000Z</time>
      </trkpt>
      <trkpt lat="43.27181" lon="2.46528">
        <ele>177.6</ele>
        <time>2019-06-23T07:05:00.000Z</time>
      </trkpt>
      <trkpt lat="43.27179" lon="2.46531">
        <ele>177.7</ele>
        <time>2019-06-23T07:05:01.000Z</time>
      </trkpt>
      <trkpt lat="43.27177" lon="2.46533">
        <ele>177.9</ele>
        <time>2019-06-23T07:05:02.000Z</time>
      </trkpt>
      <trkpt lat="43.27176" lon="2.46536">
        <ele>178</ele>
        <time>2019-06-23T07:05:03.000Z</time>
      </trkpt>
      <trkpt lat="43.27174" lon="2.46538">
        <ele>178.2</ele>
        <time>2019-06-23T07:05:04.000Z</time>
      </trkpt>
      <trkpt lat="43.27172" lon="2.46541">
        <ele>178.3</ele>
        <time>2019-06-23T07:05:05.000Z</time>
      </trkpt>
      <trkpt lat="43.2717" lon="2.46543">
        <ele>178.4</ele>
        <time>2019-06-23T07:05:06.000Z</time>
      </trkpt>
      <trkpt lat="43.27169" lon="2.46546">
        <ele>178.6</ele>
        <time>2019-06-23T07:05:07.000Z</time>
      </trkpt>
      <trkpt lat="43.27167" lon="2.46548">
        <ele>178.7</ele>
        <time>2019-06-23T07:05:08.000Z</time>
      </trkpt>
      <trkpt lat="43.27165" lon="2.46551">
        <ele>179</ele>
        <time>2019-06-23T07:05:09.000Z</time>
      </trkpt>
      <trkpt lat="43.27164" lon="2.46553">
        <ele>179.4</ele>
        <time>2019-06-23T07:05:10.000Z</time>
      </trkpt>
      <trkpt lat="43.27162" lon="2.46556">
        <ele>179.7</ele>
        <time>2019-06-23T07:05:11.000Z</time>
      </trkpt>
      <trkpt lat="43.2716" lon="2.46559">
        <ele>180</ele>
        <time>2019-06-23T07:05:12.000Z</time>
      </trkpt>
      <trkpt lat="43.27159" lon="2.46561">
        <ele>180.3</ele>
        <time>2019-06-23T07:05:13.000Z</time>
      </trkpt>
      <trkpt lat="43.27158" lon="2.46564">
        <ele>180.6</ele>
        <time>2019-06-23T07:05:14.000Z</time>
      </trkpt>
      <trkpt lat="43.27156" lon="2.46567">
        <ele>180.9</ele>
        <time>2019-06-23T07:05:15.000Z</time>
      </trkpt>
      <trkpt lat="43.27155" lon="2.4657">
        <ele>181.2</ele>
        <time>2019-06-23T07:05:16.000Z</time>
      </trkpt>
      <trkpt lat="43.27154" lon="2.46573">
        <ele>181.5</ele>
        <time>2019-06-23T07:05:17.000Z</time>
      </trkpt>
      <trkpt lat="43.27153" lon="2.46576">
        <ele>181.7</ele>
        <time>2019-06-23T07:05:18.000Z</time>
      </trkpt>
      <trkpt lat="43.27151" lon="2.46579">
        <ele>182</ele>
        <time>2019-06-23T07:05:19.000Z</time>
      </trkpt>
      <trkpt lat="43.2715" lon="2.46582">
        <ele>182.3</ele>
        <time>2019-06-23T07:05:20.000Z</time>
      </trkpt>
      <trkpt lat="43.27149" lon="2.46585">
        <ele>182.5</ele>
        <time>2019-06-23T07:05:21.000Z</time>
      </trkpt>
      <trkpt lat="43.27148" lon="2.46588">
        <ele>182.5</ele>
        <time>2019-06-23T07:05:22.000Z</time>
      </trkpt>
      <trkpt lat="43.27147" lon="2.46591">
        <ele>182.6</ele>
        <time>2019-06-23T07:05:23.000Z</time>
      </trkpt>
      <trkpt lat="43.27147" lon="2.46594">
        <ele>182.7</ele>
        <time>2019-06-23T07:05:24.000Z</time>
      </trkpt>
      <trkpt lat="43.27146" lon="2.46597">
        <ele>182.8</ele>
        <time>2019-06-23T07:05:25.000Z</time>
      </trkpt>
      <trkpt lat="43.27145" lon="2.466">
        <ele>182.8</ele>
        <time>2019-06-23T07:05:26.000Z</time>
      </trkpt>
      <trkpt lat="43.27144" lon="2.46604">
        <ele>182.9</ele>
        <time>2019-06-23T07:05:27.000Z</time>
      </trkpt>
      <trkpt lat="43.27143" lon="2.46607">
        <ele>183</ele>
        <time>2019-06-23T07:05:28.000Z</time>
      </trkpt>
      <trkpt lat="43.27142" lon="2.4661">
        <ele>183.1</ele>
        <time>2019-06-23T07:05:29.000Z</time>
      </trkpt>
      <trkpt lat="43.27141" lon="2.46613">
        <ele>183.2</ele>
        <time>2019-06-23T07:05:30.000Z</time>
      </trkpt>
      <trkpt lat="43.2714" lon="2.46616">
        <ele>183.2</ele>
        <time>2019-06-23T07:05:31.000Z</time>
      </trkpt>
      <trkpt lat="43.2714" lon="2.46619">
        <ele>183.3</ele>
        <time>2019-06-23T07:05:32.000Z</time>
      </trkpt>
      <trkpt lat="43.27139" lon="2.46622">
        <ele>183.4</ele>
        <time>2019-06-23T07:05:33.000Z</time>
      </trkpt>
      <trkpt lat="43.27138" lon="2.46625">
        <ele>183.5</ele>
        <time>2019-06-23T07:05:34.000Z</time>
      </trkpt>
      <trkpt lat="43.27137" lon="2.46629">
        <ele>183.5</ele>
        <time>2019-06-23T07:05:35.000Z</time>
      </trkpt>
      <trkpt lat="43.27137" lon="2.46632">
        <ele>183.6</ele>
        <time>2019-06-23T07:05:36.000Z</time>
      </trkpt>
      <trkpt lat="43.27136" lon="2.46635">
        <ele>183.7</ele>
        <time>2019-06-23T07:05:37.000Z</time>
      </trkpt>
      <trkpt lat="43.27135" lon="2.46639">
        <ele>183.7</ele>
        <time>2019-06-23T07:05:38.000Z</time>
      </trkpt>
      <trkpt lat="43.27135" lon="2.46642">
        <ele>183.7</ele>
        <time>2019-06-23T07:05:39.000Z</time>
      </trkpt>
      <trkpt lat="43.27134" lon="2.46645">
        <ele>183.8</ele>
        <time>2019-06-23T07:05:40.000Z</time>
      </trkpt>
      <trkpt lat="43.27134" lon="2.46649">
        <ele>183.8</ele>
        <time>2019-06-23T07:05:41.000Z</time>
      </trkpt>
      <trkpt lat="43.27133" lon="2.46652">
        <ele>183.9</ele>
        <time>2019-06-23T07:05:42.000Z</time>
      </trkpt>
      <trkpt lat="43.27132" lon="2.46656">
        <ele>183.9</ele>
        <time>2019-06-23T07:05:43.000Z</time>
      </trkpt>
      <trkpt lat="43.27132" lon="2.46659">
        <ele>184</ele>
        <time>2019-06-23T07:05:44.000Z</time>
      </trkpt>
      <trkpt lat="43.27131" lon="2.46662">
        <ele>184</ele>
        <time>2019-06-23T07:05:45.000Z</time>
      </trkpt>
      <trkpt lat="43.2713" lon="2.46666">
        <ele>184.1</ele>
        <time>2019-06-23T07:05:46.000Z</time>
      </trkpt>
      <trkpt lat="43.2713" lon="2.46669">
        <ele>184.3</ele>
        <time>2019-06-23T07:05:47.000Z</time>
      </trkpt>
      <trkpt lat="43.27129" lon="2.46672">
        <ele>184.5</ele>
        <time>2019-06-23T07:05:48.000Z</time>
      </trkpt>
      <trkpt lat="43.27128" lon="2.46675">
        <ele>184.8</ele>
        <time>2019-06-23T07:05:49.000Z</time>
      </trkpt>
      <trkpt lat="43.27127" lon="2.46679">
        <ele>185</ele>
        <time>2019-06-23T07:05:50.000Z</time>
      </trkpt>
      <trkpt lat="43.27126" lon="2.46682">
        <ele>185.2</ele>
        <time>2019-06-23T07:05:51.000Z</time>
      </trkpt>
      <trkpt lat="43.27125" lon="2.46685">
        <ele>185.4</ele>
        <time>2019-06-23T07:05:52.000Z</time>
      </trkpt>
      <trkpt lat="43.27125" lon="2.46688">
        <ele>185.6</ele>
        <time>2019-06-23T07:05:53.000Z</time>
      </trkpt>
      <trkpt lat="43.27124" lon="2.46691">
        <ele>185.8</ele>
        <time>2019-06-23T07:05:54.000Z</time>
      </trkpt>
      <trkpt lat="43.27123" lon="2.46694">
        <ele>186</ele>
        <time>2019-06-23T07:05:55.000Z</time>
      </trkpt>
      <trkpt lat="43.27122" lon="2.46698">
        <ele>186.1</ele>
        <time>2019-06-23T07:05:56.000Z</time>
      </trkpt>
      <trkpt lat="43.27122" lon="2.46701">
        <ele>186.3</ele>
        <time>2019-06-23T07:05:57.000Z</time>
      </trkpt>
      <trkpt lat="43.27121" lon="2.46704">
        <ele>186.5</ele>
        <time>2019-06-23T07:05:58.000Z</time>
      </trkpt>
      <trkpt lat="43.2712" lon="2.46707">
        <ele>186.6</ele>
        <time>2019-06-23T07:05:59.000Z</time>
      </trkpt>
      <trkpt lat="43.2712" lon="2.46711">
        <ele>186.8</ele>
        <time>2019-06-23T07:06:00.000Z</time>
      </trkpt>
      <trkpt lat="43.27119" lon="2.46714">
        <ele>187</ele>
        <time>2019-06-23T07:06:01.000Z</time>
      </trkpt>
      <trkpt lat="43.27119" lon="2.46718">
        <ele>187.1</ele>
        <time>2019-06-23T07:06:02.000Z</time>
      </trkpt>
      <trkpt lat="43.27118" lon="2.46721">
        <ele>187.3</ele>
        <time>2019-06-23T07:06:03.000Z</time>
      </trkpt>
      <trkpt lat="43.27118" lon="2.46725">
        <ele>187.4</ele>
        <time>2019-06-23T07:06:04.000Z</time>
      </trkpt>
      <trkpt lat="43.27117" lon="2.46728">
        <ele>187.5</ele>
        <time>2019-06-23T07:06:05.000Z</time>
      </trkpt>
      <trkpt lat="43.27116" lon="2.46732">
        <ele>187.7</ele>
        <time>2019-06-23T07:06:06.000Z</time>
      </trkpt>
      <trkpt lat="43.27116" lon="2.46735">
        <ele>187.8</ele>
        <time>2019-06-23T07:06:07.000Z</time>
      </trkpt>
      <trkpt lat="43.27115" lon="2.46739">
        <ele>188</ele>
        <time>2019-06-23T07:06:08.000Z</time>
      </trkpt>
      <trkpt lat="43.27114" lon="2.46742">
        <ele>188.1</ele>
        <time>2019-06-23T07:06:09.000Z</time>
      </trkpt>
      <trkpt lat="43.27114" lon="2.46746">
        <ele>188.3</ele>
        <time>2019-06-23T07:06:10.000Z</time>
      </trkpt>
      <trkpt lat="43.27113" lon="2.46749">
        <ele>188.5</ele>
        <time>2019-06-23T07:06:11.000Z</time>
      </trkpt>
      <trkpt lat="43.27112" lon="2.46752">
        <ele>188.5</ele>
        <time>2019-06-23T07:06:12.000Z</time>
      </trkpt>
      <trkpt lat="43.27111" lon="2.46755">
        <ele>188.6</ele>
        <time>2019-06-23T07:06:13.000Z</time>
      </trkpt>
      <trkpt lat="43.2711" lon="2.46758">
        <ele>188.6</ele>
        <time>2019-06-23T07:06:14.000Z</time>
      </trkpt>
      <trkpt lat="43.27109" lon="2.46761">
        <ele>188.7</ele>
        <time>2019-06-23T07:06:15.000Z</time>
      </trkpt>
      <trkpt lat="43.27107" lon="2.46764">
        <ele>188.7</ele>
        <time>2019-06-23T07:06:16.000Z</time>
      </trkpt>
      <trkpt lat="43.27106" lon="2.46767">
        <ele>188.8</ele>
        <time>2019-06-23T07:06:17.000Z</time>
      </trkpt>
      <trkpt lat="43.27104" lon="2.4677">
        <ele>188.8</ele>
        <time>2019-06-23T07:06:18.000Z</time>
      </trkpt>
      <trkpt lat="43.27103" lon="2.46772">
        <ele>188.9</ele>
        <time>2019-06-23T07:06:19.000Z</time>
      </trkpt>
      <trkpt lat="43.27101" lon="2.46775">
        <ele>189</ele>
        <time>2019-06-23T07:06:20.000Z</time>
      </trkpt>
      <trkpt lat="43.271" lon="2.46777">
        <ele>189</ele>
        <time>2019-06-23T07:06:21.000Z</time>
      </trkpt>
      <trkpt lat="43.27098" lon="2.4678">
        <ele>189.1</ele>
        <time>2019-06-23T07:06:22.000Z</time>
      </trkpt>
      <trkpt lat="43.27096" lon="2.46782">
        <ele>189.1</ele>
        <time>2019-06-23T07:06:23.000Z</time>
      </trkpt>
      <trkpt lat="43.27094" lon="2.46784">
        <ele>189.1</ele>
        <time>2019-06-23T07:06:24.000Z</time>
      </trkpt>
      <trkpt lat="43.27092" lon="2.46787">
        <ele>189.1</ele>
        <time>2019-06-23T07:06:25.000Z</time>
      </trkpt>
      <trkpt lat="43.27091" lon="2.46789">
        <ele>189.2</ele>
        <time>2019-06-23T07:06:26.000Z</time>
      </trkpt>
      <trkpt lat="43.27089" lon="2.46791">
        <ele>189.2</ele>
        <time>2019-06-23T07:06:27.000Z</time>
      </trkpt>
      <trkpt lat="43.27087" lon="2.46794">
        <ele>189.2</ele>
        <time>2019-06-23T07:06:28.000Z</time>
      </trkpt>
      <trkpt lat="43.27085" lon="2.46796">
        <ele>189.1</ele>
        <time>2019-06-23T07:06:29.000Z</time>
      </trkpt>
      <trkpt lat="43.27083" lon="2.46798">
        <ele>189.1</ele>
        <time>2019-06-23T07:06:30.000Z</time>
      </trkpt>
      <trkpt lat="43.27081" lon="2.46801">
        <ele>189.2</ele>
        <time>2019-06-23T07:06:31.000Z</time>
      </trkpt>
      <trkpt lat="43.2708" lon="2.46803">
        <ele>189.3</ele>
        <time>2019-06-23T07:06:32.000Z</time>
      </trkpt>
      <trkpt lat="43.27078" lon="2.46806">
        <ele>189.4</ele>
        <time>2019-06-23T07:06:33.000Z</time>
      </trkpt>
      <trkpt lat="43.27076" lon="2.46808">
        <ele>189.5</ele>
        <time>2019-06-23T07:06:34.000Z</time>
      </trkpt>
      <trkpt lat="43.27074" lon="2.46811">
        <ele>189.5</ele>
        <time>2019-06-23T07:06:35.000Z</time>
      </trkpt>
      <trkpt lat="43.27072" lon="2.46813">
        <ele>189.6</ele>
        <time>2019-06-23T07:06:36.000Z</time>
      </trkpt>
      <trkpt lat="43.27071" lon="2.46816">
        <ele>189.7</ele>
        <time>2019-06-23T07:06:37.000Z</time>
      </trkpt>
      <trkpt lat="43.27069" lon="2.46818">
        <ele>189.8</ele>
        <time>2019-06-23T07:06:38.000Z</time>
      </trkpt>
      <trkpt lat="43.27067" lon="2.46821">
        <ele>189.9</ele>
        <time>2019-06-23T07:06:39.000Z</time>
      </trkpt>
      <trkpt lat="43.27066" lon="2.46823">
        <ele>189.9</ele>
        <time>2019-06-23T07:06:40.000Z</time>
      </trkpt>
      <trkpt lat="43.27064" lon="2.46826">
        <ele>190</ele>
        <time>2019-06-23T07:06:41.000Z</time>
      </trkpt>
      <trkpt lat="43.27062" lon="2.46828">
        <ele>190.1</ele>
        <time>2019-06-23T07:06:42.000Z</time>
      </trkpt>
      <trkpt lat="43.27061" lon="2.46831">
        <ele>190.1</ele>
        <time>2019-06-23T07:06:43.000Z</time>
      </trkpt>
      <trkpt lat="43.27059" lon="2.46834">
        <ele>190.2</ele>
        <time>2019-06-23T07:06:44.000Z</time>
      </trkpt>
      <trkpt lat="43.27058" lon="2.46836">
        <ele>190.3</ele>
        <time>2019-06-23T07:06:45.000Z</time>
      </trkpt>
      <trkpt lat="43.27056" lon="2.46839">
        <ele>190.3</ele>
        <time>2019-06-23T07:06:46.000Z</time>
      </trkpt>
      <trkpt lat="43.27054" lon="2.46842">
        <ele>190.4</ele>
        <time>2019-06-23T07:06:47.000Z</time>
      </trkpt>
      <trkpt lat="43.27053" lon="2.46844">
        <ele>190.5</ele>
        <time>2019-06-23T07:06:48.000Z</time>
      </trkpt>
      <trkpt lat="43.27051" lon="2.46847">
        <ele>190.5</ele>
        <time>2019-06-23T07:06:49.000Z</time>
      </trkpt>
      <trkpt lat="43.2705" lon="2.4685">
        <ele>190.6</ele>
        <time>2019-06-23T07:06:50.000Z</time>
      </trkpt>
      <trkpt lat="43.27048" lon="2.46852">
        <ele>190.6</ele>
        <time>2019-06-23T07:06:51.000Z</time>
      </trkpt>
      <trkpt lat="43.27047" lon="2.46855">
        <ele>190.7</ele>
        <time>2019-06-23T07:06:52.000Z</time>
      </trkpt>
      <trkpt lat="43.27046" lon="2.46858">
        <ele>190.7</ele>
        <time>2019-06-23T07:06:53.000Z</time>
      </trkpt>
      <trkpt lat="43.27044" lon="2.46861">
        <ele>190.7</ele>
        <time>2019-06-23T07:06:54.000Z</time>
      </trkpt>
      <trkpt lat="43.27043" lon="2.46864">
        <ele>190.8</ele>
        <time>2019-06-23T07:06:55.000Z</time>
      </trkpt>
      <trkpt lat="43.27041" lon="2.46867">
        <ele>190.8</ele>
        <time>2019-06-23T07:06:56.000Z</time>
      </trkpt>
      <trkpt lat="43.2704" lon="2.4687">
        <ele>190.8</ele>
        <time>2019-06-23T07:06:57.000Z</time>
      </trkpt>
      <trkpt lat="43.27038" lon="2.46873">
        <ele>190.8</ele>
        <time>2019-06-23T07:06:58.000Z</time>
      </trkpt>
      <trkpt lat="43.27037" lon="2.46876">
        <ele>190.8</ele>
        <time>2019-06-23T07:06:59.000Z</time>
      </trkpt>
      <trkpt lat="43.27035" lon="2.46879">
        <ele>190.8</ele>
        <time>2019-06-23T07:07:00.000Z</time>
      </trkpt>
      <trkpt lat="43.27034" lon="2.46882">
        <ele>190.8</ele>
        <time>2019-06-23T07:07:01.000Z</time>
      </trkpt>
      <trkpt lat="43.27032" lon="2.46885">
        <ele>190.8</ele>
        <time>2019-06-23T07:07:02.000Z</time>
      </trkpt>
      <trkpt lat="43.27031" lon="2.46888">
        <ele>190.7</ele>
        <time>2019-06-23T07:07:03.000Z</time>
      </trkpt>
      <trkpt lat="43.27029" lon="2.46891">
        <ele>190.7</ele>
        <time>2019-06-23T07:07:04.000Z</time>
      </trkpt>
      <trkpt lat="43.27028" lon="2.46895">
        <ele>190.7</ele>
        <time>2019-06-23T07:07:05.000Z</time>
      </trkpt>
      <trkpt lat="43.27026" lon="2.46898">
        <ele>190.7</ele>
        <time>2019-06-23T07:07:06.000Z</time>
      </trkpt>
      <trkpt lat="43.27024" lon="2.46901">
        <ele>190.6</ele>
        <time>2019-06-23T07:07:07.000Z</time>
      </trkpt>
      <trkpt lat="43.27023" lon="2.46904">
        <ele>190.6</ele>
        <time>2019-06-23T07:07:08.000Z</time>
      </trkpt>
      <trkpt lat="43.27021" lon="2.46907">
        <ele>190.6</ele>
        <time>2019-06-23T07:07:09.000Z</time>
      </trkpt>
      <trkpt lat="43.2702" lon="2.46909">
        <ele>190.6</ele>
        <time>2019-06-23T07:07:10.000Z</time>
      </trkpt>
      <trkpt lat="43.27019" lon="2.46912">
        <ele>190.5</ele>
        <time>2019-06-23T07:07:11.000Z</time>
      </trkpt>
      <trkpt lat="43.27017" lon="2.46915">
        <ele>190.5</ele>
        <time>2019-06-23T07:07:12.000Z</time>
      </trkpt>
      <trkpt lat="43.27016" lon="2.46917">
        <ele>190.5</ele>
        <time>2019-06-23T07:07:13.000Z</time>
      </trkpt>
      <trkpt lat="43.27014" lon="2.4692">
        <ele>190.5</ele>
        <time>2019-06-23T07:07:14.000Z</time>
      </trkpt>
      <trkpt lat="43.27012" lon="2.46922">
        <ele>190.5</ele>
        <time>2019-06-23T07:07:15.000Z</time>
      </trkpt>
      <trkpt lat="43.27011" lon="2.46925">
        <ele>190.5</ele>
        <time>2019-06-23T07:07:16.000Z</time>
      </trkpt>
      <trkpt lat="43.27009" lon="2.46928">
        <ele>190.5</ele>
        <time>2019-06-23T07:07:17.000Z</time>
      </trkpt>
      <trkpt lat="43.27008" lon="2.4693">
        <ele>190.5</ele>
        <time>2019-06-23T07:07:18.000Z</time>
      </trkpt>
      <trkpt lat="43.27006" lon="2.46933">
        <ele>190.6</ele>
        <time>2019-06-23T07:07:19.000Z</time>
      </trkpt>
      <trkpt lat="43.27004" lon="2.46935">
        <ele>190.5</ele>
        <time>2019-06-23T07:07:20.000Z</time>
      </trkpt>
      <trkpt lat="43.27003" lon="2.46938">
        <ele>190.5</ele>
        <time>2019-06-23T07:07:21.000Z</time>
      </trkpt>
      <trkpt lat="43.27001" lon="2.46941">
        <ele>190.5</ele>
        <time>2019-06-23T07:07:22.000Z</time>
      </trkpt>
      <trkpt lat="43.27" lon="2.46944">
        <ele>190.5</ele>
        <time>2019-06-23T07:07:23.000Z</time>
      </trkpt>
      <trkpt lat="43.26998" lon="2.46947">
        <ele>190.5</ele>
        <time>2019-06-23T07:07:24.000Z</time>
      </trkpt>
      <trkpt lat="43.26997" lon="2.4695">
        <ele>190.6</ele>
        <time>2019-06-23T07:07:25.000Z</time>
      </trkpt>
      <trkpt lat="43.26995" lon="2.46953">
        <ele>190.5</ele>
        <time>2019-06-23T07:07:26.000Z</time>
      </trkpt>
      <trkpt lat="43.26994" lon="2.46957">
        <ele>190.5</ele>
        <time>2019-06-23T07:07:27.000Z</time>
      </trkpt>
      <trkpt lat="43.26993" lon="2.4696">
        <ele>190.5</ele>
        <time>2019-06-23T07:07:28.000Z</time>
      </trkpt>
      <trkpt lat="43.26992" lon="2.46964">
        <ele>190.4</ele>
        <time>2019-06-23T07:07:29.000Z</time>
      </trkpt>
      <trkpt lat="43.26991" lon="2.46968">
        <ele>190.3</ele>
        <time>2019-06-23T07:07:30.000Z</time>
      </trkpt>
      <trkpt lat="43.2699" lon="2.46971">
        <ele>190.1</ele>
        <time>2019-06-23T07:07:31.000Z</time>
      </trkpt>
      <trkpt lat="43.2699" lon="2.46975">
        <ele>189.9</ele>
        <time>2019-06-23T07:07:32.000Z</time>
      </trkpt>
      <trkpt lat="43.2699" lon="2.46979">
        <ele>189.7</ele>
        <time>2019-06-23T07:07:33.000Z</time>
      </trkpt>
      <trkpt lat="43.26989" lon="2.46983">
        <ele>189.5</ele>
        <time>2019-06-23T07:07:34.000Z</time>
      </trkpt>
      <trkpt lat="43.26989" lon="2.46987">
        <ele>189.2</ele>
        <time>2019-06-23T07:07:35.000Z</time>
      </trkpt>
      <trkpt lat="43.26989" lon="2.46991">
        <ele>189</ele>
        <time>2019-06-23T07:07:36.000Z</time>
      </trkpt>
      <trkpt lat="43.26989" lon="2.46995">
        <ele>188.7</ele>
        <time>2019-06-23T07:07:37.000Z</time>
      </trkpt>
      <trkpt lat="43.26989" lon="2.46999">
        <ele>188.5</ele>
        <time>2019-06-23T07:07:38.000Z</time>
      </trkpt>
      <trkpt lat="43.26989" lon="2.47003">
        <ele>188.3</ele>
        <time>2019-06-23T07:07:39.000Z</time>
      </trkpt>
      <trkpt lat="43.26989" lon="2.47007">
        <ele>188.2</ele>
        <time>2019-06-23T07:07:40.000Z</time>
      </trkpt>
      <trkpt lat="43.26989" lon="2.4701">
        <ele>188</ele>
        <time>2019-06-23T07:07:41.000Z</time>
      </trkpt>
      <trkpt lat="43.26989" lon="2.47014">
        <ele>187.9</ele>
        <time>2019-06-23T07:07:42.000Z</time>
      </trkpt>
      <trkpt lat="43.26989" lon="2.47017">
        <ele>187.8</ele>
        <time>2019-06-23T07:07:43.000Z</time>
      </trkpt>
      <trkpt lat="43.26988" lon="2.47021">
        <ele>187.7</ele>
        <time>2019-06-23T07:07:44.000Z</time>
      </trkpt>
      <trkpt lat="43.26988" lon="2.47024">
        <ele>187.7</ele>
        <time>2019-06-23T07:07:45.000Z</time>
      </trkpt>
      <trkpt lat="43.26987" lon="2.47028">
        <ele>187.6</ele>
        <time>2019-06-23T07:07:46.000Z</time>
      </trkpt>
      <trkpt lat="43.26987" lon="2.47031">
        <ele>187.5</ele>
        <time>2019-06-23T07:07:47.000Z</time>
      </trkpt>
      <trkpt lat="43.26986" lon="2.47035">
        <ele>187.5</ele>
        <time>2019-06-23T07:07:48.000Z</time>
      </trkpt>
      <trkpt lat="43.26985" lon="2.47038">
        <ele>187.4</ele>
        <time>2019-06-23T07:07:49.000Z</time>
      </trkpt>
      <trkpt lat="43.26984" lon="2.47042">
        <ele>187.4</ele>
        <time>2019-06-23T07:07:50.000Z</time>
      </trkpt>
      <trkpt lat="43.26984" lon="2.47046">
        <ele>187.3</ele>
        <time>2019-06-23T07:07:51.000Z</time>
      </trkpt>
      <trkpt lat="43.26983" lon="2.47049">
        <ele>187.3</ele>
        <time>2019-06-23T07:07:52.000Z</time>
      </trkpt>
      <trkpt lat="43.26982" lon="2.47053">
        <ele>187.2</ele>
        <time>2019-06-23T07:07:53.000Z</time>
      </trkpt>
      <trkpt lat="43.26981" lon="2.47056">
        <ele>187.2</ele>
        <time>2019-06-23T07:07:54.000Z</time>
      </trkpt>
      <trkpt lat="43.26981" lon="2.4706">
        <ele>187.1</ele>
        <time>2019-06-23T07:07:55.000Z</time>
      </trkpt>
      <trkpt lat="43.2698" lon="2.47063">
        <ele>187</ele>
        <time>2019-06-23T07:07:56.000Z</time>
      </trkpt>
      <trkpt lat="43.2698" lon="2.47067">
        <ele>186.9</ele>
        <time>2019-06-23T07:07:57.000Z</time>
      </trkpt>
      <trkpt lat="43.2698" lon="2.4707">
        <ele>186.8</ele>
        <time>2019-06-23T07:07:58.000Z</time>
      </trkpt>
      <trkpt lat="43.26979" lon="2.47074">
        <ele>186.7</ele>
        <time>2019-06-23T07:07:59.000Z</time>
      </trkpt>
      <trkpt lat="43.26979" lon="2.47077">
        <ele>186.5</ele>
        <time>2019-06-23T07:08:00.000Z</time>
      </trkpt>
      <trkpt lat="43.26979" lon="2.47081">
        <ele>186.4</ele>
        <time>2019-06-23T07:08:01.000Z</time>
      </trkpt>
      <trkpt lat="43.26978" lon="2.47084">
        <ele>186.3</ele>
        <time>2019-06-23T07:08:02.000Z</time>
      </trkpt>
      <trkpt lat="43.26978" lon="2.47088">
        <ele>186.2</ele>
        <time>2019-06-23T07:08:03.000Z</time>
      </trkpt>
      <trkpt lat="43.26977" lon="2.47092">
        <ele>186.2</ele>
        <time>2019-06-23T07:08:04.000Z</time>
      </trkpt>
      <trkpt lat="43.26977" lon="2.47095">
        <ele>186.1</ele>
        <time>2019-06-23T07:08:05.000Z</time>
      </trkpt>
      <trkpt lat="43.26976" lon="2.47099">
        <ele>186</ele>
        <time>2019-06-23T07:08:06.000Z</time>
      </trkpt>
      <trkpt lat="43.26975" lon="2.47103">
        <ele>186</ele>
        <time>2019-06-23T07:08:07.000Z</time>
      </trkpt>
      <trkpt lat="43.26974" lon="2.47106">
        <ele>186</ele>
        <time>2019-06-23T07:08:08.000Z</time>
      </trkpt>
      <trkpt lat="43.26973" lon="2.4711">
        <ele>185.9</ele>
        <time>2019-06-23T07:08:09.000Z</time>
      </trkpt>
      <trkpt lat="43.26972" lon="2.47114">
        <ele>185.9</ele>
        <time>2019-06-23T07:08:10.000Z</time>
      </trkpt>
      <trkpt lat="43.26971" lon="2.47117">
        <ele>185.9</ele>
        <time>2019-06-23T07:08:11.000Z</time>
      </trkpt>
      <trkpt lat="43.2697" lon="2.47121">
        <ele>185.9</ele>
        <time>2019-06-23T07:08:12.000Z</time>
      </trkpt>
      <trkpt lat="43.26969" lon="2.47125">
        <ele>185.9</ele>
        <time>2019-06-23T07:08:13.000Z</time>
      </trkpt>
      <trkpt lat="43.26968" lon="2.47128">
        <ele>185.8</ele>
        <time>2019-06-23T07:08:14.000Z</time>
      </trkpt>
      <trkpt lat="43.26967" lon="2.47132">
        <ele>185.8</ele>
        <time>2019-06-23T07:08:15.000Z</time>
      </trkpt>
      <trkpt lat="43.26966" lon="2.47135">
        <ele>185.8</ele>
        <time>2019-06-23T07:08:16.000Z</time>
      </trkpt>
      <trkpt lat="43.26965" lon="2.47139">
        <ele>185.8</ele>
        <time>2019-06-23T07:08:17.000Z</time>
      </trkpt>
      <trkpt lat="43.26963" lon="2.47142">
        <ele>185.8</ele>
        <time>2019-06-23T07:08:18.000Z</time>
      </trkpt>
      <trkpt lat="43.26962" lon="2.47146">
        <ele>185.8</ele>
        <time>2019-06-23T07:08:19.000Z</time>
      </trkpt>
      <trkpt lat="43.26961" lon="2.47149">
        <ele>185.8</ele>
        <time>2019-06-23T07:08:20.000Z</time>
      </trkpt>
      <trkpt lat="43.2696" lon="2.47152">
        <ele>185.8</ele>
        <time>2019-06-23T07:08:21.000Z</time>
      </trkpt>
      <trkpt lat="43.26959" lon="2.47156">
        <ele>185.8</ele>
        <time>2019-06-23T07:08:22.000Z</time>
      </trkpt>
      <trkpt lat="43.26958" lon="2.47159">
        <ele>185.8</ele>
        <time>2019-06-23T07:08:23.000Z</time>
      </trkpt>
      <trkpt lat="43.26957" lon="2.47162">
        <ele>185.8</ele>
        <time>2019-06-23T07:08:24.000Z</time>
      </trkpt>
      <trkpt lat="43.26956" lon="2.47166">
        <ele>185.8</ele>
        <time>2019-06-23T07:08:25.000Z</time>
      </trkpt>
      <trkpt lat="43.26955" lon="2.47169">
        <ele>185.8</ele>
        <time>2019-06-23T07:08:26.000Z</time>
      </trkpt>
      <trkpt lat="43.26954" lon="2.47172">
        <ele>185.7</ele>
        <time>2019-06-23T07:08:27.000Z</time>
      </trkpt>
      <trkpt lat="43.26953" lon="2.47175">
        <ele>185.6</ele>
        <time>2019-06-23T07:08:28.000Z</time>
      </trkpt>
      <trkpt lat="43.26952" lon="2.47179">
        <ele>185.5</ele>
        <time>2019-06-23T07:08:29.000Z</time>
      </trkpt>
      <trkpt lat="43.2695" lon="2.47182">
        <ele>185.5</ele>
        <time>2019-06-23T07:08:30.000Z</time>
      </trkpt>
      <trkpt lat="43.26949" lon="2.47185">
        <ele>185.4</ele>
        <time>2019-06-23T07:08:31.000Z</time>
      </trkpt>
      <trkpt lat="43.26948" lon="2.47189">
        <ele>185.3</ele>
        <time>2019-06-23T07:08:32.000Z</time>
      </trkpt>
      <trkpt lat="43.26947" lon="2.47192">
        <ele>185.2</ele>
        <time>2019-06-23T07:08:33.000Z</time>
      </trkpt>
      <trkpt lat="43.26946" lon="2.47196">
        <ele>185</ele>
        <time>2019-06-23T07:08:34.000Z</time>
      </trkpt>
      <trkpt lat="43.26945" lon="2.47199">
        <ele>184.9</ele>
        <time>2019-06-23T07:08:35.000Z</time>
      </trkpt>
      <trkpt lat="43.26943" lon="2.47203">
        <ele>184.8</ele>
        <time>2019-06-23T07:08:36.000Z</time>
      </trkpt>
      <trkpt lat="43.26942" lon="2.47206">
        <ele>184.7</ele>
        <time>2019-06-23T07:08:37.000Z</time>
      </trkpt>
      <trkpt lat="43.26941" lon="2.4721">
        <ele>184.5</ele>
        <time>2019-06-23T07:08:38.000Z</time>
      </trkpt>
      <trkpt lat="43.26939" lon="2.47213">
        <ele>184.4</ele>
        <time>2019-06-23T07:08:39.000Z</time>
      </trkpt>
      <trkpt lat="43.26938" lon="2.47217">
        <ele>184.3</ele>
        <time>2019-06-23T07:08:40.000Z</time>
      </trkpt>
      <trkpt lat="43.26936" lon="2.4722">
        <ele>184.2</ele>
        <time>2019-06-23T07:08:41.000Z</time>
      </trkpt>
      <trkpt lat="43.26935" lon="2.47223">
        <ele>184</ele>
        <time>2019-06-23T07:08:42.000Z</time>
      </trkpt>
      <trkpt lat="43.26933" lon="2.47226">
        <ele>183.9</ele>
        <time>2019-06-23T07:08:43.000Z</time>
      </trkpt>
      <trkpt lat="43.26932" lon="2.47229">
        <ele>183.8</ele>
        <time>2019-06-23T07:08:44.000Z</time>
      </trkpt>
      <trkpt lat="43.2693" lon="2.47233">
        <ele>183.6</ele>
        <time>2019-06-23T07:08:45.000Z</time>
      </trkpt>
      <trkpt lat="43.26929" lon="2.47236">
        <ele>183.5</ele>
        <time>2019-06-23T07:08:46.000Z</time>
      </trkpt>
      <trkpt lat="43.26927" lon="2.47239">
        <ele>183.4</ele>
        <time>2019-06-23T07:08:47.000Z</time>
      </trkpt>
      <trkpt lat="43.26926" lon="2.47242">
        <ele>183.2</ele>
        <time>2019-06-23T07:08:48.000Z</time>
      </trkpt>
      <trkpt lat="43.26924" lon="2.47245">
        <ele>183</ele>
        <time>2019-06-23T07:08:49.000Z</time>
      </trkpt>
      <trkpt lat="43.26923" lon="2.47249">
        <ele>182.8</ele>
        <time>2019-06-23T07:08:50.000Z</time>
      </trkpt>
      <trkpt lat="43.26921" lon="2.47252">
        <ele>182.7</ele>
        <time>2019-06-23T07:08:51.000Z</time>
      </trkpt>
      <trkpt lat="43.2692" lon="2.47256">
        <ele>182.6</ele>
        <time>2019-06-23T07:08:52.000Z</time>
      </trkpt>
      <trkpt lat="43.26919" lon="2.47259">
        <ele>182.6</ele>
        <time>2019-06-23T07:08:53.000Z</time>
      </trkpt>
      <trkpt lat="43.26918" lon="2.47263">
        <ele>182.5</ele>
        <time>2019-06-23T07:08:54.000Z</time>
      </trkpt>
      <trkpt lat="43.26916" lon="2.47266">
        <ele>182.4</ele>
        <time>2019-06-23T07:08:55.000Z</time>
      </trkpt>
      <trkpt lat="43.26915" lon="2.47269">
        <ele>182.4</ele>
        <time>2019-06-23T07:08:56.000Z</time>
      </trkpt>
      <trkpt lat="43.26914" lon="2.47272">
        <ele>182.3</ele>
        <time>2019-06-23T07:08:57.000Z</time>
      </trkpt>
      <trkpt lat="43.26913" lon="2.47275">
        <ele>182.3</ele>
        <time>2019-06-23T07:08:58.000Z</time>
      </trkpt>
      <trkpt lat="43.26912" lon="2.47277">
        <ele>182.2</ele>
        <time>2019-06-23T07:08:59.000Z</time>
      </trkpt>
      <trkpt lat="43.26911" lon="2.4728">
        <ele>182.2</ele>
        <time>2019-06-23T07:09:00.000Z</time>
      </trkpt>
      <trkpt lat="43.26909" lon="2.47282">
        <ele>182.1</ele>
        <time>2019-06-23T07:09:01.000Z</time>
      </trkpt>
      <trkpt lat="43.26908" lon="2.47284">
        <ele>182.1</ele>
        <time>2019-06-23T07:09:02.000Z</time>
      </trkpt>
      <trkpt lat="43.26907" lon="2.47286">
        <ele>182</ele>
        <time>2019-06-23T07:09:03.000Z</time>
      </trkpt>
      <trkpt lat="43.26906" lon="2.47288">
        <ele>182</ele>
        <time>2019-06-23T07:09:04.000Z</time>
      </trkpt>
      <trkpt lat="43.26905" lon="2.47291">
        <ele>181.9</ele>
        <time>2019-06-23T07:09:05.000Z</time>
      </trkpt>
      <trkpt lat="43.26903" lon="2.47293">
        <ele>181.8</ele>
        <time>2019-06-23T07:09:06.000Z</time>
      </trkpt>
      <trkpt lat="43.26902" lon="2.47295">
        <ele>181.8</ele>
        <time>2019-06-23T07:09:07.000Z</time>
      </trkpt>
      <trkpt lat="43.26901" lon="2.47298">
        <ele>181.7</ele>
        <time>2019-06-23T07:09:08.000Z</time>
      </trkpt>
      <trkpt lat="43.26899" lon="2.473">
        <ele>181.6</ele>
        <time>2019-06-23T07:09:09.000Z</time>
      </trkpt>
      <trkpt lat="43.26898" lon="2.47303">
        <ele>181.5</ele>
        <time>2019-06-23T07:09:10.000Z</time>
      </trkpt>
      <trkpt lat="43.26897" lon="2.47305">
        <ele>181.4</ele>
        <time>2019-06-23T07:09:11.000Z</time>
      </trkpt>
      <trkpt lat="43.26895" lon="2.47308">
        <ele>181.3</ele>
        <time>2019-06-23T07:09:12.000Z</time>
      </trkpt>
      <trkpt lat="43.26894" lon="2.4731">
        <ele>181.2</ele>
        <time>2019-06-23T07:09:13.000Z</time>
      </trkpt>
      <trkpt lat="43.26893" lon="2.47312">
        <ele>181.1</ele>
        <time>2019-06-23T07:09:14.000Z</time>
      </trkpt>
      <trkpt lat="43.26892" lon="2.47315">
        <ele>181</ele>
        <time>2019-06-23T07:09:15.000Z</time>
      </trkpt>
      <trkpt lat="43.2689" lon="2.47317">
        <ele>180.9</ele>
        <time>2019-06-23T07:09:16.000Z</time>
      </trkpt>
      <trkpt lat="43.26889" lon="2.47319">
        <ele>180.8</ele>
        <time>2019-06-23T07:09:17.000Z</time>
      </trkpt>
      <trkpt lat="43.26888" lon="2.47322">
        <ele>180.7</ele>
        <time>2019-06-23T07:09:18.000Z</time>
      </trkpt>
      <trkpt lat="43.26887" lon="2.47324">
        <ele>180.5</ele>
        <time>2019-06-23T07:09:19.000Z</time>
      </trkpt>
      <trkpt lat="43.26885" lon="2.47327">
        <ele>180.4</ele>
        <time>2019-06-23T07:09:20.000Z</time>
      </trkpt>
      <trkpt lat="43.26884" lon="2.4733">
        <ele>180.2</ele>
        <time>2019-06-23T07:09:21.000Z</time>
      </trkpt>
      <trkpt lat="43.26882" lon="2.47332">
        <ele>180.1</ele>
        <time>2019-06-23T07:09:22.000Z</time>
      </trkpt>
      <trkpt lat="43.26881" lon="2.47335">
        <ele>179.9</ele>
        <time>2019-06-23T07:09:23.000Z</time>
      </trkpt>
      <trkpt lat="43.2688" lon="2.47338">
        <ele>179.8</ele>
        <time>2019-06-23T07:09:24.000Z</time>
      </trkpt>
      <trkpt lat="43.26879" lon="2.47341">
        <ele>179.7</ele>
        <time>2019-06-23T07:09:25.000Z</time>
      </trkpt>
      <trkpt lat="43.26877" lon="2.47344">
        <ele>179.6</ele>
        <time>2019-06-23T07:09:26.000Z</time>
      </trkpt>
      <trkpt lat="43.26877" lon="2.47347">
        <ele>179.5</ele>
        <time>2019-06-23T07:09:27.000Z</time>
      </trkpt>
      <trkpt lat="43.26876" lon="2.4735">
        <ele>179.4</ele>
        <time>2019-06-23T07:09:28.000Z</time>
      </trkpt>
      <trkpt lat="43.26875" lon="2.47353">
        <ele>179.3</ele>
        <time>2019-06-23T07:09:29.000Z</time>
      </trkpt>
      <trkpt lat="43.26875" lon="2.47356">
        <ele>179.2</ele>
        <time>2019-06-23T07:09:30.000Z</time>
      </trkpt>
      <trkpt lat="43.26875" lon="2.47359">
        <ele>179.1</ele>
        <time>2019-06-23T07:09:31.000Z</time>
      </trkpt>
      <trkpt lat="43.26875" lon="2.47362">
        <ele>179</ele>
        <time>2019-06-23T07:09:32.000Z</time>
      </trkpt>
      <trkpt lat="43.26875" lon="2.47366">
        <ele>178.8</ele>
        <time>2019-06-23T07:09:33.000Z</time>
      </trkpt>
      <trkpt lat="43.26875" lon="2.47369">
        <ele>178.7</ele>
        <time>2019-06-23T07:09:34.000Z</time>
      </trkpt>
      <trkpt lat="43.26875" lon="2.47372">
        <ele>178.6</ele>
        <time>2019-06-23T07:09:35.000Z</time>
      </trkpt>
      <trkpt lat="43.26874" lon="2.47376">
        <ele>178.5</ele>
        <time>2019-06-23T07:09:36.000Z</time>
      </trkpt>
      <trkpt lat="43.26874" lon="2.4738">
        <ele>178.3</ele>
        <time>2019-06-23T07:09:37.000Z</time>
      </trkpt>
      <trkpt lat="43.26874" lon="2.47383">
        <ele>178.2</ele>
        <time>2019-06-23T07:09:38.000Z</time>
      </trkpt>
      <trkpt lat="43.26874" lon="2.47387">
        <ele>178.1</ele>
        <time>2019-06-23T07:09:39.000Z</time>
      </trkpt>
      <trkpt lat="43.26874" lon="2.4739">
        <ele>177.9</ele>
        <time>2019-06-23T07:09:40.000Z</time>
      </trkpt>
      <trkpt lat="43.26873" lon="2.47393">
        <ele>177.8</ele>
        <time>2019-06-23T07:09:41.000Z</time>
      </trkpt>
      <trkpt lat="43.26873" lon="2.47395">
        <ele>177.7</ele>
        <time>2019-06-23T07:09:42.000Z</time>
      </trkpt>
      <trkpt lat="43.26873" lon="2.47397">
        <ele>177.7</ele>
        <time>2019-06-23T07:09:43.000Z</time>
      </trkpt>
      <trkpt lat="43.26873" lon="2.47399">
        <ele>177.6</ele>
        <time>2019-06-23T07:09:44.000Z</time>
      </trkpt>
      <trkpt lat="43.26873" lon="2.474">
        <ele>177.6</ele>
        <time>2019-06-23T07:09:45.000Z</time>
      </trkpt>
      <trkpt lat="43.26872" lon="2.47401">
        <ele>177.5</ele>
        <time>2019-06-23T07:09:46.000Z</time>
      </trkpt>
      <trkpt lat="43.26872" lon="2.47401">
        <ele>177.5</ele>
        <time>2019-06-23T07:09:47.000Z</time>
      </trkpt>
      <trkpt lat="43.26872" lon="2.47402">
        <ele>177.5</ele>
        <time>2019-06-23T07:09:48.000Z</time>
      </trkpt>
      <trkpt lat="43.26872" lon="2.47402">
        <ele>177.5</ele>
        <time>2019-06-23T07:09:49.000Z</time>
      </trkpt>
      <trkpt lat="43.26872" lon="2.47402">
        <ele>177.5</ele>
        <time>2019-06-23T07:09:50.000Z</time>
      </trkpt>
      <trkpt lat="43.26872" lon="2.47402">
        <ele>177.5</ele>
        <time>2019-06-23T07:09:51.000Z</time>
      </trkpt>
      <trkpt lat="43.26872" lon="2.47402">
        <ele>177.5</ele>
        <time>2019-06-23T07:09:52.000Z</time>
      </trkpt>
      <trkpt lat="43.26872" lon="2.47402">
        <ele>177.5</ele>
        <time>2019-06-23T07:09:53.000Z</time>
      </trkpt>
      <trkpt lat="43.26872" lon="2.47402">
        <ele>177.5</ele>
        <time>2019-06-23T07:09:54.000Z</time>
      </trkpt>
      <trkpt lat="43.26872" lon="2.47402">
        <ele>177.5</ele>
        <time>2019-06-23T07:09:55.000Z</time>
      </trkpt>
      <trkpt lat="43.26872" lon="2.47402">
        <ele>177.5</ele>
        <time>2019-06-23T07:09:56.000Z</time>
      </trkpt>
      <trkpt lat="43.26872" lon="2.47402">
        <ele>177.5</ele>
        <time>2019-06-23T07:09:57.000Z</time>
      </trkpt>
      <trkpt lat="43.26872" lon="2.47402">
        <ele>177.5</ele>
        <time>2019-06-23T07:09:58.000Z</time>
      </trkpt>
      <trkpt lat="43.26872" lon="2.47402">
        <ele>177.5</ele>
        <time>2019-06-23T07:09:59.000Z</time>
      </trkpt>
      <trkpt lat="43.26872" lon="2.47402">
        <ele>177.5</ele>
        <time>2019-06-23T07:10:00.000Z</time>
      </trkpt>
      <trkpt lat="43.26872" lon="2.47402">
        <ele>177.5</ele>
        <time>2019-06-23T07:10:01.000Z</time>
      </trkpt>
      <trkpt lat="43.26872" lon="2.47402">
        <ele>177.5</ele>
        <time>2019-06-23T07:10:02.000Z</time>
      </trkpt>
      <trkpt lat="43.26872" lon="2.47402">
        <ele>177.5</ele>
        <time>2019-06-23T07:10:03.000Z</time>
      </trkpt>
      <trkpt lat="43.26872" lon="2.47402">
        <ele>177.5</ele>
        <time>2019-06-23T07:10:04.000Z</time>
      </trkpt>
      <trkpt lat="43.26872" lon="2.47402">
        <ele>177.5</ele>
        <time>2019-06-23T07:10:05.000Z</time>
      </trkpt>
      <trkpt lat="43.26872" lon="2.47402">
        <ele>177.5</ele>
        <time>2019-06-23T07:10:06.000Z</time>
      </trkpt>
      <trkpt lat="43.26872" lon="2.47402">
        <ele>177.5</ele>
        <time>2019-06-23T07:10:07.000Z</time>
      </trkpt>
      <trkpt lat="43.26872" lon="2.47402">
        <ele>177.5</ele>
        <time>2019-06-23T07:10:08.000Z</time>
      </trkpt>
      <trkpt lat="43.26872" lon="2.47402">
        <ele>177.5</ele>
        <time>2019-06-23T07:10:09.000Z</time>
      </trkpt>
      <trkpt lat="43.26872" lon="2.47402">
        <ele>177.5</ele>
        <time>2019-06-23T07:10:10.000Z</time>
      </trkpt>
      <trkpt lat="43.26872" lon="2.47402">
        <ele>177.5</ele>
        <time>2019-06-23T07:10:11.000Z</time>
      </trkpt>
      <trkpt lat="43.26872" lon="2.47402">
        <ele>177.5</ele>
        <time>2019-06-23T07:10:12.000Z</time>
      </trkpt>
      <trkpt lat="43.26872" lon="2.47402">
        <ele>177.5</ele>
        <time>2019-06-23T07:10:13.000Z</time>
      </trkpt>
      <trkpt lat="43.26872" lon="2.47402">
        <ele>177.5</ele>
        <time>2019-06-23T07:10:14.000Z</time>
      </trkpt>
      <trkpt lat="43.26872" lon="2.47402">
        <ele>177.5</ele>
        <time>2019-06-23T07:10:15.000Z</time>
      </trkpt>
      <trkpt lat="43.26872" lon="2.47402">
        <ele>177.5</ele>
        <time>2019-06-23T07:10:16.000Z</time>
      </trkpt>
      <trkpt lat="43.26872" lon="2.47402">
        <ele>177.5</ele>
        <time>2019-06-23T07:10:17.000Z</time>
      </trkpt>
      <trkpt lat="43.26872" lon="2.47402">
        <ele>177.5</ele>
        <time>2019-06-23T07:10:18.000Z</time>
      </trkpt>
      <trkpt lat="43.26872" lon="2.47402">
        <ele>177.5</ele>
        <time>2019-06-23T07:10:19.000Z</time>
      </trkpt>
      <trkpt lat="43.26872" lon="2.47402">
        <ele>177.5</ele>
        <time>2019-06-23T07:10:20.000Z</time>
      </trkpt>
      <trkpt lat="43.26872" lon="2.47402">
        <ele>177.5</ele>
        <time>2019-06-23T07:10:21.000Z</time>
      </trkpt>
      <trkpt lat="43.26872" lon="2.47402">
        <ele>177.5</ele>
        <time>2019-06-23T07:10:22.000Z</time>
      </trkpt>
      <trkpt lat="43.26872" lon="2.47402">
        <ele>177.5</ele>
        <time>2019-06-23T07:10:23.000Z</time>
      </trkpt>
      <trkpt lat="43.26872" lon="2.47402">
        <ele>177.5</ele>
        <time>2019-06-23T07:10:24.000Z</time>
      </trkpt>
      <trkpt lat="43.26872" lon="2.47402">
        <ele>177.5</ele>
        <time>2019-06-23T07:10:25.000Z</time>
      </trkpt>
      <trkpt lat="43.26872" lon="2.47402">
        <ele>177.5</ele>
        <time>2019-06-23T07:10:26.000Z</time>
      </trkpt>
      <trkpt lat="43.26872" lon="2.47402">
        <ele>177.5</ele>
        <time>2019-06-23T07:10:27.000Z</time>
      </trkpt>
      <trkpt lat="43.26872" lon="2.47402">
        <ele>177.5</ele>
        <time>2019-06-23T07:10:28.000Z</time>
      </trkpt>
      <trkpt lat="43.26872" lon="2.47402">
        <ele>177.5</ele>
        <time>2019-06-23T07:10:29.000Z</time>
      </trkpt>
      <trkpt lat="43.26872" lon="2.47402">
        <ele>177.5</ele>
        <time>2019-06-23T07:10:30.000Z</time>
      </trkpt>
      <trkpt lat="43.26872" lon="2.47402">
        <ele>177.5</ele>
        <time>2019-06-23T07:10:31.000Z</time>
      </trkpt>
      <trkpt lat="43.26872" lon="2.47402">
        <ele>177.5</ele>
        <time>2019-06-23T07:10:32.000Z</time>
      </trkpt>
      <trkpt lat="43.26872" lon="2.47402">
        <ele>177.5</ele>
        <time>2019-06-23T07:10:33.000Z</time>
      </trkpt>
      <trkpt lat="43.26872" lon="2.47402">
        <ele>177.5</ele>
        <time>2019-06-23T07:10:34.000Z</time>
      </trkpt>
      <trkpt lat="43.26872" lon="2.47402">
        <ele>177.5</ele>
        <time>2019-06-23T07:10:35.000Z</time>
      </trkpt>
      <trkpt lat="43.26872" lon="2.47402">
        <ele>177.5</ele>
        <time>2019-06-23T07:10:36.000Z</time>
      </trkpt>
      <trkpt lat="43.26872" lon="2.47402">
        <ele>177.5</ele>
        <time>2019-06-23T07:10:37.000Z</time>
      </trkpt>
      <trkpt lat="43.26872" lon="2.47402">
        <ele>177.5</ele>
        <time>2019-06-23T07:10:38.000Z</time>
      </trkpt>
      <trkpt lat="43.26872" lon="2.47402">
        <ele>177.5</ele>
        <time>2019-06-23T07:10:39.000Z</time>
      </trkpt>
      <trkpt lat="43.26872" lon="2.47402">
        <ele>177.5</ele>
        <time>2019-06-23T07:10:40.000Z</time>
      </trkpt>
      <trkpt lat="43.26872" lon="2.47402">
        <ele>177.5</ele>
        <time>2019-06-23T07:10:41.000Z</time>
      </trkpt>
      <trkpt lat="43.26872" lon="2.47402">
        <ele>177.5</ele>
        <time>2019-06-23T07:10:42.000Z</time>
      </trkpt>
      <trkpt lat="43.26872" lon="2.47402">
        <ele>177.5</ele>
        <time>2019-06-23T07:10:43.000Z</time>
      </trkpt>
      <trkpt lat="43.26872" lon="2.47402">
        <ele>177.5</ele>
        <time>2019-06-23T07:10:44.000Z</time>
      </trkpt>
      <trkpt lat="43.26872" lon="2.47402">
        <ele>177.5</ele>
        <time>2019-06-23T07:10:45.000Z</time>
      </trkpt>
      <trkpt lat="43.26872" lon="2.47402">
        <ele>177.5</ele>
        <time>2019-06-23T07:10:46.000Z</time>
      </trkpt>
      <trkpt lat="43.26872" lon="2.47402">
        <ele>177.5</ele>
        <time>2019-06-23T07:10:47.000Z</time>
      </trkpt>
      <trkpt lat="43.26872" lon="2.47402">
        <ele>177.5</ele>
        <time>2019-06-23T07:10:48.000Z</time>
      </trkpt>
      <trkpt lat="43.26872" lon="2.47402">
        <ele>177.5</ele>
        <time>2019-06-23T07:10:49.000Z</time>
      </trkpt>
      <trkpt lat="43.26873" lon="2.47402">
        <ele>177.5</ele>
        <time>2019-06-23T07:10:50.000Z</time>
      </trkpt>
      <trkpt lat="43.26873" lon="2.47402">
        <ele>177.5</ele>
        <time>2019-06-23T07:10:51.000Z</time>
      </trkpt>
      <trkpt lat="43.26873" lon="2.47403">
        <ele>177.5</ele>
        <time>2019-06-23T07:10:52.000Z</time>
      </trkpt>
      <trkpt lat="43.26874" lon="2.47403">
        <ele>177.5</ele>
        <time>2019-06-23T07:10:53.000Z</time>
      </trkpt>
      <trkpt lat="43.26875" lon="2.47403">
        <ele>177.5</ele>
        <time>2019-06-23T07:10:54.000Z</time>
      </trkpt>
      <trkpt lat="43.26876" lon="2.47403">
        <ele>177.5</ele>
        <time>2019-06-23T07:10:55.000Z</time>
      </trkpt>
      <trkpt lat="43.26876" lon="2.47403">
        <ele>177.5</ele>
        <time>2019-06-23T07:10:56.000Z</time>
      </trkpt>
      <trkpt lat="43.26876" lon="2.47403">
        <ele>177.5</ele>
        <time>2019-06-23T07:10:57.000Z</time>
      </trkpt>
      <trkpt lat="43.26876" lon="2.47404">
        <ele>177.5</ele>
        <time>2019-06-23T07:10:58.000Z</time>
      </trkpt>
      <trkpt lat="43.26876" lon="2.47404">
        <ele>177.5</ele>
        <time>2019-06-23T07:10:59.000Z</time>
      </trkpt>
      <trkpt lat="43.26876" lon="2.47404">
        <ele>177.5</ele>
        <time>2019-06-23T07:11:00.000Z</time>
      </trkpt>
      <trkpt lat="43.26876" lon="2.47404">
        <ele>177.5</ele>
        <time>2019-06-23T07:11:01.000Z</time>
      </trkpt>
      <trkpt lat="43.26876" lon="2.47404">
        <ele>177.5</ele>
        <time>2019-06-23T07:11:02.000Z</time>
      </trkpt>
      <trkpt lat="43.26876" lon="2.47404">
        <ele>177.5</ele>
        <time>2019-06-23T07:11:03.000Z</time>
      </trkpt>
      <trkpt lat="43.26876" lon="2.47404">
        <ele>177.5</ele>
        <time>2019-06-23T07:11:04.000Z</time>
      </trkpt>
      <trkpt lat="43.26876" lon="2.47404">
        <ele>177.5</ele>
        <time>2019-06-23T07:11:05.000Z</time>
      </trkpt>
      <trkpt lat="43.26876" lon="2.47404">
        <ele>177.5</ele>
        <time>2019-06-23T07:11:06.000Z</time>
      </trkpt>
      <trkpt lat="43.26876" lon="2.47404">
        <ele>177.5</ele>
        <time>2019-06-23T07:11:07.000Z</time>
      </trkpt>
      <trkpt lat="43.26876" lon="2.47404">
        <ele>177.5</ele>
        <time>2019-06-23T07:11:08.000Z</time>
      </trkpt>
      <trkpt lat="43.26876" lon="2.47404">
        <ele>177.5</ele>
        <time>2019-06-23T07:11:09.000Z</time>
      </trkpt>
      <trkpt lat="43.26876" lon="2.47404">
        <ele>177.5</ele>
        <time>2019-06-23T07:11:10.000Z</time>
      </trkpt>
      <trkpt lat="43.26876" lon="2.47404">
        <ele>177.5</ele>
        <time>2019-06-23T07:11:11.000Z</time>
      </trkpt>
      <trkpt lat="43.26876" lon="2.47404">
        <ele>177.5</ele>
        <time>2019-06-23T07:11:12.000Z</time>
      </trkpt>
      <trkpt lat="43.26876" lon="2.47404">
        <ele>177.5</ele>
        <time>2019-06-23T07:11:13.000Z</time>
      </trkpt>
      <trkpt lat="43.26876" lon="2.47404">
        <ele>177.5</ele>
        <time>2019-06-23T07:11:14.000Z</time>
      </trkpt>
      <trkpt lat="43.26876" lon="2.47404">
        <ele>177.5</ele>
        <time>2019-06-23T07:11:15.000Z</time>
      </trkpt>
      <trkpt lat="43.26876" lon="2.47404">
        <ele>177.5</ele>
        <time>2019-06-23T07:11:16.000Z</time>
      </trkpt>
      <trkpt lat="43.26876" lon="2.47404">
        <ele>177.5</ele>
        <time>2019-06-23T07:11:17.000Z</time>
      </trkpt>
      <trkpt lat="43.26876" lon="2.47404">
        <ele>177.5</ele>
        <time>2019-06-23T07:11:18.000Z</time>
      </trkpt>
      <trkpt lat="43.26876" lon="2.47404">
        <ele>177.5</ele>
        <time>2019-06-23T07:11:19.000Z</time>
      </trkpt>
      <trkpt lat="43.26876" lon="2.47404">
        <ele>177.5</ele>
        <time>2019-06-23T07:11:20.000Z</time>
      </trkpt>
      <trkpt lat="43.26876" lon="2.47404">
        <ele>177.5</ele>
        <time>2019-06-23T07:11:21.000Z</time>
      </trkpt>
      <trkpt lat="43.26876" lon="2.47404">
        <ele>177.5</ele>
        <time>2019-06-23T07:11:22.000Z</time>
      </trkpt>
      <trkpt lat="43.26876" lon="2.47404">
        <ele>177.5</ele>
        <time>2019-06-23T07:11:23.000Z</time>
      </trkpt>
      <trkpt lat="43.26876" lon="2.47404">
        <ele>177.5</ele>
        <time>2019-06-23T07:11:24.000Z</time>
      </trkpt>
      <trkpt lat="43.26876" lon="2.47404">
        <ele>177.5</ele>
        <time>2019-06-23T07:11:25.000Z</time>
      </trkpt>
      <trkpt lat="43.26876" lon="2.47404">
        <ele>177.5</ele>
        <time>2019-06-23T07:11:26.000Z</time>
      </trkpt>
      <trkpt lat="43.26876" lon="2.47404">
        <ele>177.5</ele>
        <time>2019-06-23T07:11:27.000Z</time>
      </trkpt>
      <trkpt lat="43.26876" lon="2.47404">
        <ele>177.5</ele>
        <time>2019-06-23T07:11:28.000Z</time>
      </trkpt>
      <trkpt lat="43.26876" lon="2.47404">
        <ele>177.5</ele>
        <time>2019-06-23T07:11:29.000Z</time>
      </trkpt>
      <trkpt lat="43.26876" lon="2.47404">
        <ele>177.5</ele>
        <time>2019-06-23T07:11:30.000Z</time>
      </trkpt>
      <trkpt lat="43.26876" lon="2.47404">
        <ele>177.5</ele>
        <time>2019-06-23T07:11:31.000Z</time>
      </trkpt>
      <trkpt lat="43.26876" lon="2.47404">
        <ele>177.5</ele>
        <time>2019-06-23T07:11:32.000Z</time>
      </trkpt>
      <trkpt lat="43.26876" lon="2.47404">
        <ele>177.5</ele>
        <time>2019-06-23T07:11:33.000Z</time>
      </trkpt>
      <trkpt lat="43.26876" lon="2.47404">
        <ele>177.5</ele>
        <time>2019-06-23T07:11:34.000Z</time>
      </trkpt>
      <trkpt lat="43.26876" lon="2.47404">
        <ele>177.5</ele>
        <time>2019-06-23T07:11:35.000Z</time>
      </trkpt>
      <trkpt lat="43.26876" lon="2.47404">
        <ele>177.5</ele>
        <time>2019-06-23T07:11:36.000Z</time>
      </trkpt>
      <trkpt lat="43.26876" lon="2.47404">
        <ele>177.5</ele>
        <time>2019-06-23T07:11:37.000Z</time>
      </trkpt>
      <trkpt lat="43.26876" lon="2.47404">
        <ele>177.5</ele>
        <time>2019-06-23T07:11:38.000Z</time>
      </trkpt>
      <trkpt lat="43.26876" lon="2.47404">
        <ele>177.5</ele>
        <time>2019-06-23T07:11:39.000Z</time>
      </trkpt>
      <trkpt lat="43.26876" lon="2.47404">
        <ele>177.5</ele>
        <time>2019-06-23T07:11:40.000Z</time>
      </trkpt>
      <trkpt lat="43.26876" lon="2.47404">
        <ele>177.5</ele>
        <time>2019-06-23T07:11:41.000Z</time>
      </trkpt>
      <trkpt lat="43.26876" lon="2.47404">
        <ele>177.5</ele>
        <time>2019-06-23T07:11:42.000Z</time>
      </trkpt>
      <trkpt lat="43.26876" lon="2.47404">
        <ele>177.5</ele>
        <time>2019-06-23T07:11:43.000Z</time>
      </trkpt>
      <trkpt lat="43.26876" lon="2.47404">
        <ele>177.5</ele>
        <time>2019-06-23T07:11:44.000Z</time>
      </trkpt>
      <trkpt lat="43.26876" lon="2.47404">
        <ele>177.5</ele>
        <time>2019-06-23T07:11:45.000Z</time>
      </trkpt>
      <trkpt lat="43.26876" lon="2.47404">
        <ele>177.5</ele>
        <time>2019-06-23T07:11:46.000Z</time>
      </trkpt>
      <trkpt lat="43.26876" lon="2.47404">
        <ele>177.5</ele>
        <time>2019-06-23T07:11:47.000Z</time>
      </trkpt>
      <trkpt lat="43.26876" lon="2.47404">
        <ele>177.5</ele>
        <time>2019-06-23T07:11:48.000Z</time>
      </trkpt>
      <trkpt lat="43.26876" lon="2.47404">
        <ele>177.5</ele>
        <time>2019-06-23T07:11:49.000Z</time>
      </trkpt>
      <trkpt lat="43.26876" lon="2.47404">
        <ele>177.5</ele>
        <time>2019-06-23T07:11:50.000Z</time>
      </trkpt>
      <trkpt lat="43.26876" lon="2.47404">
        <ele>177.5</ele>
        <time>2019-06-23T07:11:51.000Z</time>
      </trkpt>
      <trkpt lat="43.26876" lon="2.47404">
        <ele>177.5</ele>
        <time>2019-06-23T07:11:52.000Z</time>
      </trkpt>
      <trkpt lat="43.26876" lon="2.47404">
        <ele>177.5</ele>
        <time>2019-06-23T07:11:53.000Z</time>
      </trkpt>
      <trkpt lat="43.26876" lon="2.47404">
        <ele>177.5</ele>
        <time>2019-06-23T07:11:54.000Z</time>
      </trkpt>
      <trkpt lat="43.26876" lon="2.47404">
        <ele>177.5</ele>
        <time>2019-06-23T07:11:55.000Z</time>
      </trkpt>
      <trkpt lat="43.26876" lon="2.47404">
        <ele>177.5</ele>
        <time>2019-06-23T07:11:56.000Z</time>
      </trkpt>
      <trkpt lat="43.26876" lon="2.47404">
        <ele>177.5</ele>
        <time>2019-06-23T07:11:57.000Z</time>
      </trkpt>
      <trkpt lat="43.26876" lon="2.47404">
        <ele>177.5</ele>
        <time>2019-06-23T07:11:58.000Z</time>
      </trkpt>
      <trkpt lat="43.26876" lon="2.47404">
        <ele>177.5</ele>
        <time>2019-06-23T07:11:59.000Z</time>
      </trkpt>
      <trkpt lat="43.26876" lon="2.47404">
        <ele>177.5</ele>
        <time>2019-06-23T07:12:00.000Z</time>
      </trkpt>
      <trkpt lat="43.26876" lon="2.47404">
        <ele>177.5</ele>
        <time>2019-06-23T07:12:01.000Z</time>
      </trkpt>
      <trkpt lat="43.26876" lon="2.47404">
        <ele>177.5</ele>
        <time>2019-06-23T07:12:02.000Z</time>
      </trkpt>
      <trkpt lat="43.26876" lon="2.47404">
        <ele>177.5</ele>
        <time>2019-06-23T07:12:03.000Z</time>
      </trkpt>
      <trkpt lat="43.26876" lon="2.47404">
        <ele>177.5</ele>
        <time>2019-06-23T07:12:04.000Z</time>
      </trkpt>
      <trkpt lat="43.26876" lon="2.47404">
        <ele>177.5</ele>
        <time>2019-06-23T07:12:05.000Z</time>
      </trkpt>
      <trkpt lat="43.26876" lon="2.47404">
        <ele>177.5</ele>
        <time>2019-06-23T07:12:06.000Z</time>
      </trkpt>
      <trkpt lat="43.26876" lon="2.47404">
        <ele>177.5</ele>
        <time>2019-06-23T07:12:07.000Z</time>
      </trkpt>
      <trkpt lat="43.26876" lon="2.47404">
        <ele>177.5</ele>
        <time>2019-06-23T07:12:08.000Z</time>
      </trkpt>
      <trkpt lat="43.26876" lon="2.47404">
        <ele>177.5</ele>
        <time>2019-06-23T07:12:09.000Z</time>
      </trkpt>
      <trkpt lat="43.26876" lon="2.47404">
        <ele>177.5</ele>
        <time>2019-06-23T07:12:10.000Z</time>
      </trkpt>
      <trkpt lat="43.26876" lon="2.47404">
        <ele>177.5</ele>
        <time>2019-06-23T07:12:11.000Z</time>
      </trkpt>
      <trkpt lat="43.26876" lon="2.47404">
        <ele>177.5</ele>
        <time>2019-06-23T07:12:12.000Z</time>
      </trkpt>
      <trkpt lat="43.26876" lon="2.47404">
        <ele>177.5</ele>
        <time>2019-06-23T07:12:13.000Z</time>
      </trkpt>
      <trkpt lat="43.26876" lon="2.47404">
        <ele>177.5</ele>
        <time>2019-06-23T07:12:14.000Z</time>
      </trkpt>
      <trkpt lat="43.26876" lon="2.47404">
        <ele>177.5</ele>
        <time>2019-06-23T07:12:15.000Z</time>
      </trkpt>
      <trkpt lat="43.26876" lon="2.47404">
        <ele>177.5</ele>
        <time>2019-06-23T07:12:16.000Z</time>
      </trkpt>
      <trkpt lat="43.26876" lon="2.47404">
        <ele>177.5</ele>
        <time>2019-06-23T07:12:17.000Z</time>
      </trkpt>
      <trkpt lat="43.26876" lon="2.47404">
        <ele>177.5</ele>
        <time>2019-06-23T07:12:18.000Z</time>
      </trkpt>
      <trkpt lat="43.26877" lon="2.47404">
        <ele>177.5</ele>
        <time>2019-06-23T07:12:19.000Z</time>
      </trkpt>
      <trkpt lat="43.26877" lon="2.47404">
        <ele>177.5</ele>
        <time>2019-06-23T07:12:20.000Z</time>
      </trkpt>
      <trkpt lat="43.26876" lon="2.47404">
        <ele>177.5</ele>
        <time>2019-06-23T07:12:21.000Z</time>
      </trkpt>
      <trkpt lat="43.26876" lon="2.47404">
        <ele>177.5</ele>
        <time>2019-06-23T07:12:22.000Z</time>
      </trkpt>
      <trkpt lat="43.26876" lon="2.47403">
        <ele>177.5</ele>
        <time>2019-06-23T07:12:23.000Z</time>
      </trkpt>
      <trkpt lat="43.26875" lon="2.47403">
        <ele>177.5</ele>
        <time>2019-06-23T07:12:24.000Z</time>
      </trkpt>
      <trkpt lat="43.26875" lon="2.47403">
        <ele>177.5</ele>
        <time>2019-06-23T07:12:25.000Z</time>
      </trkpt>
      <trkpt lat="43.26874" lon="2.47403">
        <ele>177.5</ele>
        <time>2019-06-23T07:12:26.000Z</time>
      </trkpt>
      <trkpt lat="43.26873" lon="2.47403">
        <ele>177.5</ele>
        <time>2019-06-23T07:12:27.000Z</time>
      </trkpt>
      <trkpt lat="43.26872" lon="2.47403">
        <ele>177.4</ele>
        <time>2019-06-23T07:12:28.000Z</time>
      </trkpt>
      <trkpt lat="43.26872" lon="2.47403">
        <ele>177.4</ele>
        <time>2019-06-23T07:12:29.000Z</time>
      </trkpt>
      <trkpt lat="43.26871" lon="2.47403">
        <ele>177.4</ele>
        <time>2019-06-23T07:12:30.000Z</time>
      </trkpt>
      <trkpt lat="43.26871" lon="2.47404">
        <ele>177.4</ele>
        <time>2019-06-23T07:12:31.000Z</time>
      </trkpt>
      <trkpt lat="43.26871" lon="2.47404">
        <ele>177.4</ele>
        <time>2019-06-23T07:12:32.000Z</time>
      </trkpt>
      <trkpt lat="43.2687" lon="2.47405">
        <ele>177.3</ele>
        <time>2019-06-23T07:12:33.000Z</time>
      </trkpt>
      <trkpt lat="43.2687" lon="2.47405">
        <ele>177.3</ele>
        <time>2019-06-23T07:12:34.000Z</time>
      </trkpt>
      <trkpt lat="43.2687" lon="2.47405">
        <ele>177.3</ele>
        <time>2019-06-23T07:12:35.000Z</time>
      </trkpt>
      <trkpt lat="43.2687" lon="2.47405">
        <ele>177.3</ele>
        <time>2019-06-23T07:12:36.000Z</time>
      </trkpt>
      <trkpt lat="43.2687" lon="2.47405">
        <ele>177.3</ele>
        <time>2019-06-23T07:12:37.000Z</time>
      </trkpt>
      <trkpt lat="43.2687" lon="2.47405">
        <ele>177.3</ele>
        <time>2019-06-23T07:12:38.000Z</time>
      </trkpt>
      <trkpt lat="43.2687" lon="2.47405">
        <ele>177.3</ele>
        <time>2019-06-23T07:12:39.000Z</time>
      </trkpt>
      <trkpt lat="43.2687" lon="2.47405">
        <ele>177.3</ele>
        <time>2019-06-23T07:12:40.000Z</time>
      </trkpt>
      <trkpt lat="43.2687" lon="2.47405">
        <ele>177.3</ele>
        <time>2019-06-23T07:12:41.000Z</time>
      </trkpt>
      <trkpt lat="43.26871" lon="2.47405">
        <ele>177.3</ele>
        <time>2019-06-23T07:12:42.000Z</time>
      </trkpt>
      <trkpt lat="43.26871" lon="2.47405">
        <ele>177.3</ele>
        <time>2019-06-23T07:12:43.000Z</time>
      </trkpt>
      <trkpt lat="43.26871" lon="2.47405">
        <ele>177.3</ele>
        <time>2019-06-23T07:12:44.000Z</time>
      </trkpt>
      <trkpt lat="43.2687" lon="2.47405">
        <ele>177.3</ele>
        <time>2019-06-23T07:12:45.000Z</time>
      </trkpt>
      <trkpt lat="43.2687" lon="2.47405">
        <ele>177.3</ele>
        <time>2019-06-23T07:12:46.000Z</time>
      </trkpt>
      <trkpt lat="43.2687" lon="2.47405">
        <ele>177.3</ele>
        <time>2019-06-23T07:12:47.000Z</time>
      </trkpt>
      <trkpt lat="43.2687" lon="2.47405">
        <ele>177.3</ele>
        <time>2019-06-23T07:12:48.000Z</time>
      </trkpt>
      <trkpt lat="43.2687" lon="2.47405">
        <ele>177.3</ele>
        <time>2019-06-23T07:12:49.000Z</time>
      </trkpt>
      <trkpt lat="43.26871" lon="2.47405">
        <ele>177.3</ele>
        <time>2019-06-23T07:12:50.000Z</time>
      </trkpt>
      <trkpt lat="43.26871" lon="2.47405">
        <ele>177.3</ele>
        <time>2019-06-23T07:12:51.000Z</time>
      </trkpt>
      <trkpt lat="43.26871" lon="2.47405">
        <ele>177.3</ele>
        <time>2019-06-23T07:12:52.000Z</time>
      </trkpt>
      <trkpt lat="43.26871" lon="2.47405">
        <ele>177.3</ele>
        <time>2019-06-23T07:12:53.000Z</time>
      </trkpt>
      <trkpt lat="43.26871" lon="2.47405">
        <ele>177.3</ele>
        <time>2019-06-23T07:12:54.000Z</time>
      </trkpt>
      <trkpt lat="43.26871" lon="2.47405">
        <ele>177.3</ele>
        <time>2019-06-23T07:12:55.000Z</time>
      </trkpt>
      <trkpt lat="43.26871" lon="2.47405">
        <ele>177.3</ele>
        <time>2019-06-23T07:12:56.000Z</time>
      </trkpt>
      <trkpt lat="43.26871" lon="2.47405">
        <ele>177.3</ele>
        <time>2019-06-23T07:12:57.000Z</time>
      </trkpt>
      <trkpt lat="43.26871" lon="2.47405">
        <ele>177.3</ele>
        <time>2019-06-23T07:12:58.000Z</time>
      </trkpt>
      <trkpt lat="43.26871" lon="2.47405">
        <ele>177.3</ele>
        <time>2019-06-23T07:12:59.000Z</time>
      </trkpt>
      <trkpt lat="43.26871" lon="2.47405">
        <ele>177.3</ele>
        <time>2019-06-23T07:13:00.000Z</time>
      </trkpt>
      <trkpt lat="43.26871" lon="2.47405">
        <ele>177.3</ele>
        <time>2019-06-23T07:13:01.000Z</time>
      </trkpt>
      <trkpt lat="43.2687" lon="2.47406">
        <ele>177.3</ele>
        <time>2019-06-23T07:13:02.000Z</time>
      </trkpt>
      <trkpt lat="43.2687" lon="2.47406">
        <ele>177.3</ele>
        <time>2019-06-23T07:13:03.000Z</time>
      </trkpt>
      <trkpt lat="43.2687" lon="2.47408">
        <ele>177.2</ele>
        <time>2019-06-23T07:13:04.000Z</time>
      </trkpt>
      <trkpt lat="43.2687" lon="2.47409">
        <ele>177.2</ele>
        <time>2019-06-23T07:13:05.000Z</time>
      </trkpt>
      <trkpt lat="43.26869" lon="2.47411">
        <ele>177.1</ele>
        <time>2019-06-23T07:13:06.000Z</time>
      </trkpt>
      <trkpt lat="43.26869" lon="2.47412">
        <ele>177</ele>
        <time>2019-06-23T07:13:07.000Z</time>
      </trkpt>
      <trkpt lat="43.26869" lon="2.47414">
        <ele>176.9</ele>
        <time>2019-06-23T07:13:08.000Z</time>
      </trkpt>
      <trkpt lat="43.26868" lon="2.47416">
        <ele>176.8</ele>
        <time>2019-06-23T07:13:09.000Z</time>
      </trkpt>
      <trkpt lat="43.26867" lon="2.47418">
        <ele>176.8</ele>
        <time>2019-06-23T07:13:10.000Z</time>
      </trkpt>
      <trkpt lat="43.26867" lon="2.4742">
        <ele>176.7</ele>
        <time>2019-06-23T07:13:11.000Z</time>
      </trkpt>
      <trkpt lat="43.26866" lon="2.47422">
        <ele>176.7</ele>
        <time>2019-06-23T07:13:12.000Z</time>
      </trkpt>
      <trkpt lat="43.26865" lon="2.47424">
        <ele>176.7</ele>
        <time>2019-06-23T07:13:13.000Z</time>
      </trkpt>
      <trkpt lat="43.26864" lon="2.47426">
        <ele>176.6</ele>
        <time>2019-06-23T07:13:14.000Z</time>
      </trkpt>
      <trkpt lat="43.26863" lon="2.47428">
        <ele>176.5</ele>
        <time>2019-06-23T07:13:15.000Z</time>
      </trkpt>
      <trkpt lat="43.26862" lon="2.4743">
        <ele>176.5</ele>
        <time>2019-06-23T07:13:16.000Z</time>
      </trkpt>
      <trkpt lat="43.26861" lon="2.47432">
        <ele>176.4</ele>
        <time>2019-06-23T07:13:17.000Z</time>
      </trkpt>
      <trkpt lat="43.2686" lon="2.47435">
        <ele>176.4</ele>
        <time>2019-06-23T07:13:18.000Z</time>
      </trkpt>
      <trkpt lat="43.26859" lon="2.47437">
        <ele>176.3</ele>
        <time>2019-06-23T07:13:19.000Z</time>
      </trkpt>
      <trkpt lat="43.26858" lon="2.4744">
        <ele>176.2</ele>
        <time>2019-06-23T07:13:20.000Z</time>
      </trkpt>
      <trkpt lat="43.26857" lon="2.47443">
        <ele>176.1</ele>
        <time>2019-06-23T07:13:21.000Z</time>
      </trkpt>
      <trkpt lat="43.26856" lon="2.47446">
        <ele>176</ele>
        <time>2019-06-23T07:13:22.000Z</time>
      </trkpt>
      <trkpt lat="43.26855" lon="2.47449">
        <ele>176</ele>
        <time>2019-06-23T07:13:23.000Z</time>
      </trkpt>
      <trkpt lat="43.26854" lon="2.47452">
        <ele>175.9</ele>
        <time>2019-06-23T07:13:24.000Z</time>
      </trkpt>
      <trkpt lat="43.26853" lon="2.47454">
        <ele>175.8</ele>
        <time>2019-06-23T07:13:25.000Z</time>
      </trkpt>
      <trkpt lat="43.26852" lon="2.47457">
        <ele>175.7</ele>
        <time>2019-06-23T07:13:26.000Z</time>
      </trkpt>
      <trkpt lat="43.26851" lon="2.4746">
        <ele>175.6</ele>
        <time>2019-06-23T07:13:27.000Z</time>
      </trkpt>
      <trkpt lat="43.2685" lon="2.47463">
        <ele>175.5</ele>
        <time>2019-06-23T07:13:28.000Z</time>
      </trkpt>
      <trkpt lat="43.26849" lon="2.47466">
        <ele>175.4</ele>
        <time>2019-06-23T07:13:29.000Z</time>
      </trkpt>
      <trkpt lat="43.26848" lon="2.47469">
        <ele>175.3</ele>
        <time>2019-06-23T07:13:30.000Z</time>
      </trkpt>
      <trkpt lat="43.26847" lon="2.47471">
        <ele>175.2</ele>
        <time>2019-06-23T07:13:31.000Z</time>
      </trkpt>
      <trkpt lat="43.26845" lon="2.47474">
        <ele>175.1</ele>
        <time>2019-06-23T07:13:32.000Z</time>
      </trkpt>
      <trkpt lat="43.26844" lon="2.47477">
        <ele>175</ele>
        <time>2019-06-23T07:13:33.000Z</time>
      </trkpt>
      <trkpt lat="43.26843" lon="2.47479">
        <ele>174.9</ele>
        <time>2019-06-23T07:13:34.000Z</time>
      </trkpt>
      <trkpt lat="43.26842" lon="2.47482">
        <ele>174.8</ele>
        <time>2019-06-23T07:13:35.000Z</time>
      </trkpt>
      <trkpt lat="43.26841" lon="2.47484">
        <ele>174.7</ele>
        <time>2019-06-23T07:13:36.000Z</time>
      </trkpt>
      <trkpt lat="43.2684" lon="2.47487">
        <ele>174.6</ele>
        <time>2019-06-23T07:13:37.000Z</time>
      </trkpt>
      <trkpt lat="43.26839" lon="2.4749">
        <ele>174.5</ele>
        <time>2019-06-23T07:13:38.000Z</time>
      </trkpt>
      <trkpt lat="43.26838" lon="2.47492">
        <ele>174.4</ele>
        <time>2019-06-23T07:13:39.000Z</time>
      </trkpt>
      <trkpt lat="43.26837" lon="2.47495">
        <ele>174.3</ele>
        <time>2019-06-23T07:13:40.000Z</time>
      </trkpt>
      <trkpt lat="43.26836" lon="2.47497">
        <ele>174.2</ele>
        <time>2019-06-23T07:13:41.000Z</time>
      </trkpt>
      <trkpt lat="43.26835" lon="2.475">
        <ele>174.1</ele>
        <time>2019-06-23T07:13:42.000Z</time>
      </trkpt>
      <trkpt lat="43.26834" lon="2.47503">
        <ele>173.9</ele>
        <time>2019-06-23T07:13:43.000Z</time>
      </trkpt>
      <trkpt lat="43.26833" lon="2.47505">
        <ele>173.8</ele>
        <time>2019-06-23T07:13:44.000Z</time>
      </trkpt>
      <trkpt lat="43.26832" lon="2.47508">
        <ele>173.8</ele>
        <time>2019-06-23T07:13:45.000Z</time>
      </trkpt>
      <trkpt lat="43.26831" lon="2.47511">
        <ele>173.7</ele>
        <time>2019-06-23T07:13:46.000Z</time>
      </trkpt>
      <trkpt lat="43.2683" lon="2.47514">
        <ele>173.6</ele>
        <time>2019-06-23T07:13:47.000Z</time>
      </trkpt>
      <trkpt lat="43.26828" lon="2.47517">
        <ele>173.6</ele>
        <time>2019-06-23T07:13:48.000Z</time>
      </trkpt>
      <trkpt lat="43.26827" lon="2.4752">
        <ele>173.5</ele>
        <time>2019-06-23T07:13:49.000Z</time>
      </trkpt>
      <trkpt lat="43.26826" lon="2.47523">
        <ele>173.4</ele>
        <time>2019-06-23T07:13:50.000Z</time>
      </trkpt>
      <trkpt lat="43.26825" lon="2.47526">
        <ele>173.3</ele>
        <time>2019-06-23T07:13:51.000Z</time>
      </trkpt>
      <trkpt lat="43.26824" lon="2.4753">
        <ele>173.2</ele>
        <time>2019-06-23T07:13:52.000Z</time>
      </trkpt>
      <trkpt lat="43.26823" lon="2.47533">
        <ele>173.1</ele>
        <time>2019-06-23T07:13:53.000Z</time>
      </trkpt>
      <trkpt lat="43.26822" lon="2.47536">
        <ele>173</ele>
        <time>2019-06-23T07:13:54.000Z</time>
      </trkpt>
      <trkpt lat="43.26821" lon="2.47539">
        <ele>173</ele>
        <time>2019-06-23T07:13:55.000Z</time>
      </trkpt>
      <trkpt lat="43.2682" lon="2.47543">
        <ele>172.9</ele>
        <time>2019-06-23T07:13:56.000Z</time>
      </trkpt>
      <trkpt lat="43.26818" lon="2.47546">
        <ele>172.8</ele>
        <time>2019-06-23T07:13:57.000Z</time>
      </trkpt>
      <trkpt lat="43.26817" lon="2.47549">
        <ele>172.7</ele>
        <time>2019-06-23T07:13:58.000Z</time>
      </trkpt>
      <trkpt lat="43.26816" lon="2.47552">
        <ele>172.6</ele>
        <time>2019-06-23T07:13:59.000Z</time>
      </trkpt>
      <trkpt lat="43.26815" lon="2.47554">
        <ele>172.6</ele>
        <time>2019-06-23T07:14:00.000Z</time>
      </trkpt>
      <trkpt lat="43.26814" lon="2.47557">
        <ele>172.5</ele>
        <time>2019-06-23T07:14:01.000Z</time>
      </trkpt>
      <trkpt lat="43.26812" lon="2.47559">
        <ele>172.4</ele>
        <time>2019-06-23T07:14:02.000Z</time>
      </trkpt>
      <trkpt lat="43.26811" lon="2.47562">
        <ele>172.4</ele>
        <time>2019-06-23T07:14:03.000Z</time>
      </trkpt>
      <trkpt lat="43.2681" lon="2.47565">
        <ele>172.3</ele>
        <time>2019-06-23T07:14:04.000Z</time>
      </trkpt>
      <trkpt lat="43.26809" lon="2.47567">
        <ele>172.2</ele>
        <time>2019-06-23T07:14:05.000Z</time>
      </trkpt>
      <trkpt lat="43.26807" lon="2.4757">
        <ele>172.2</ele>
        <time>2019-06-23T07:14:06.000Z</time>
      </trkpt>
      <trkpt lat="43.26806" lon="2.47573">
        <ele>172.1</ele>
        <time>2019-06-23T07:14:07.000Z</time>
      </trkpt>
      <trkpt lat="43.26805" lon="2.47576">
        <ele>172</ele>
        <time>2019-06-23T07:14:08.000Z</time>
      </trkpt>
      <trkpt lat="43.26804" lon="2.47578">
        <ele>171.9</ele>
        <time>2019-06-23T07:14:09.000Z</time>
      </trkpt>
      <trkpt lat="43.26803" lon="2.47581">
        <ele>171.8</ele>
        <time>2019-06-23T07:14:10.000Z</time>
      </trkpt>
      <trkpt lat="43.26802" lon="2.47584">
        <ele>171.7</ele>
        <time>2019-06-23T07:14:11.000Z</time>
      </trkpt>
      <trkpt lat="43.26801" lon="2.47587">
        <ele>171.7</ele>
        <time>2019-06-23T07:14:12.000Z</time>
      </trkpt>
      <trkpt lat="43.26799" lon="2.4759">
        <ele>171.6</ele>
        <time>2019-06-23T07:14:13.000Z</time>
      </trkpt>
      <trkpt lat="43.26798" lon="2.47593">
        <ele>171.6</ele>
        <time>2019-06-23T07:14:14.000Z</time>
      </trkpt>
      <trkpt lat="43.26797" lon="2.47596">
        <ele>171.5</ele>
        <time>2019-06-23T07:14:15.000Z</time>
      </trkpt>
      <trkpt lat="43.26795" lon="2.47598">
        <ele>171.5</ele>
        <time>2019-06-23T07:14:16.000Z</time>
      </trkpt>
      <trkpt lat="43.26794" lon="2.47601">
        <ele>171.4</ele>
        <time>2019-06-23T07:14:17.000Z</time>
      </trkpt>
      <trkpt lat="43.26792" lon="2.47604">
        <ele>171.4</ele>
        <time>2019-06-23T07:14:18.000Z</time>
      </trkpt>
      <trkpt lat="43.26791" lon="2.47606">
        <ele>171.3</ele>
        <time>2019-06-23T07:14:19.000Z</time>
      </trkpt>
      <trkpt lat="43.26789" lon="2.47609">
        <ele>171.3</ele>
        <time>2019-06-23T07:14:20.000Z</time>
      </trkpt>
      <trkpt lat="43.26788" lon="2.47611">
        <ele>171.2</ele>
        <time>2019-06-23T07:14:21.000Z</time>
      </trkpt>
      <trkpt lat="43.26787" lon="2.47614">
        <ele>171.1</ele>
        <time>2019-06-23T07:14:22.000Z</time>
      </trkpt>
      <trkpt lat="43.26786" lon="2.47618">
        <ele>171</ele>
        <time>2019-06-23T07:14:23.000Z</time>
      </trkpt>
      <trkpt lat="43.26785" lon="2.47621">
        <ele>170.9</ele>
        <time>2019-06-23T07:14:24.000Z</time>
      </trkpt>
      <trkpt lat="43.26784" lon="2.47624">
        <ele>170.8</ele>
        <time>2019-06-23T07:14:25.000Z</time>
      </trkpt>
      <trkpt lat="43.26783" lon="2.47627">
        <ele>170.7</ele>
        <time>2019-06-23T07:14:26.000Z</time>
      </trkpt>
      <trkpt lat="43.26782" lon="2.4763">
        <ele>170.6</ele>
        <time>2019-06-23T07:14:27.000Z</time>
      </trkpt>
      <trkpt lat="43.26781" lon="2.47633">
        <ele>170.5</ele>
        <time>2019-06-23T07:14:28.000Z</time>
      </trkpt>
      <trkpt lat="43.2678" lon="2.47636">
        <ele>170.4</ele>
        <time>2019-06-23T07:14:29.000Z</time>
      </trkpt>
      <trkpt lat="43.26779" lon="2.47639">
        <ele>170.3</ele>
        <time>2019-06-23T07:14:30.000Z</time>
      </trkpt>
      <trkpt lat="43.26778" lon="2.47641">
        <ele>170.2</ele>
        <time>2019-06-23T07:14:31.000Z</time>
      </trkpt>
      <trkpt lat="43.26777" lon="2.47644">
        <ele>170.1</ele>
        <time>2019-06-23T07:14:32.000Z</time>
      </trkpt>
      <trkpt lat="43.26776" lon="2.47647">
        <ele>170</ele>
        <time>2019-06-23T07:14:33.000Z</time>
      </trkpt>
      <trkpt lat="43.26775" lon="2.4765">
        <ele>169.9</ele>
        <time>2019-06-23T07:14:34.000Z</time>
      </trkpt>
      <trkpt lat="43.26774" lon="2.47653">
        <ele>169.8</ele>
        <time>2019-06-23T07:14:35.000Z</time>
      </trkpt>
      <trkpt lat="43.26772" lon="2.47656">
        <ele>169.7</ele>
        <time>2019-06-23T07:14:36.000Z</time>
      </trkpt>
      <trkpt lat="43.26771" lon="2.47659">
        <ele>169.6</ele>
        <time>2019-06-23T07:14:37.000Z</time>
      </trkpt>
      <trkpt lat="43.2677" lon="2.47662">
        <ele>169.4</ele>
        <time>2019-06-23T07:14:38.000Z</time>
      </trkpt>
      <trkpt lat="43.26768" lon="2.47665">
        <ele>169.3</ele>
        <time>2019-06-23T07:14:39.000Z</time>
      </trkpt>
      <trkpt lat="43.26767" lon="2.47669">
        <ele>169.1</ele>
        <time>2019-06-23T07:14:40.000Z</time>
      </trkpt>
      <trkpt lat="43.26765" lon="2.47672">
        <ele>169</ele>
        <time>2019-06-23T07:14:41.000Z</time>
      </trkpt>
      <trkpt lat="43.26764" lon="2.47675">
        <ele>168.9</ele>
        <time>2019-06-23T07:14:42.000Z</time>
      </trkpt>
      <trkpt lat="43.26762" lon="2.47678">
        <ele>168.7</ele>
        <time>2019-06-23T07:14:43.000Z</time>
      </trkpt>
      <trkpt lat="43.26761" lon="2.47681">
        <ele>168.5</ele>
        <time>2019-06-23T07:14:44.000Z</time>
      </trkpt>
      <trkpt lat="43.26759" lon="2.47684">
        <ele>168.4</ele>
        <time>2019-06-23T07:14:45.000Z</time>
      </trkpt>
      <trkpt lat="43.26757" lon="2.47687">
        <ele>168.2</ele>
        <time>2019-06-23T07:14:46.000Z</time>
      </trkpt>
      <trkpt lat="43.26756" lon="2.4769">
        <ele>168</ele>
        <time>2019-06-23T07:14:47.000Z</time>
      </trkpt>
      <trkpt lat="43.26755" lon="2.47694">
        <ele>167.9</ele>
        <time>2019-06-23T07:14:48.000Z</time>
      </trkpt>
      <trkpt lat="43.26753" lon="2.47697">
        <ele>167.7</ele>
        <time>2019-06-23T07:14:49.000Z</time>
      </trkpt>
      <trkpt lat="43.26752" lon="2.477">
        <ele>167.5</ele>
        <time>2019-06-23T07:14:50.000Z</time>
      </trkpt>
      <trkpt lat="43.26751" lon="2.47704">
        <ele>167.2</ele>
        <time>2019-06-23T07:14:51.000Z</time>
      </trkpt>
      <trkpt lat="43.2675" lon="2.47708">
        <ele>167</ele>
        <time>2019-06-23T07:14:52.000Z</time>
      </trkpt>
      <trkpt lat="43.26749" lon="2.47712">
        <ele>166.9</ele>
        <time>2019-06-23T07:14:53.000Z</time>
      </trkpt>
      <trkpt lat="43.26748" lon="2.47716">
        <ele>166.8</ele>
        <time>2019-06-23T07:14:54.000Z</time>
      </trkpt>
      <trkpt lat="43.26748" lon="2.47719">
        <ele>166.7</ele>
        <time>2019-06-23T07:14:55.000Z</time>
      </trkpt>
      <trkpt lat="43.26747" lon="2.47723">
        <ele>166.6</ele>
        <time>2019-06-23T07:14:56.000Z</time>
      </trkpt>
      <trkpt lat="43.26745" lon="2.47726">
        <ele>166.6</ele>
        <time>2019-06-23T07:14:57.000Z</time>
      </trkpt>
      <trkpt lat="43.26744" lon="2.47729">
        <ele>166.5</ele>
        <time>2019-06-23T07:14:58.000Z</time>
      </trkpt>
      <trkpt lat="43.26743" lon="2.47732">
        <ele>166.5</ele>
        <time>2019-06-23T07:14:59.000Z</time>
      </trkpt>
      <trkpt lat="43.26741" lon="2.47734">
        <ele>166.6</ele>
        <time>2019-06-23T07:15:00.000Z</time>
      </trkpt>
      <trkpt lat="43.26739" lon="2.47736">
        <ele>166.6</ele>
        <time>2019-06-23T07:15:01.000Z</time>
      </trkpt>
      <trkpt lat="43.26738" lon="2.47738">
        <ele>166.7</ele>
        <time>2019-06-23T07:15:02.000Z</time>
      </trkpt>
      <trkpt lat="43.26736" lon="2.4774">
        <ele>166.8</ele>
        <time>2019-06-23T07:15:03.000Z</time>
      </trkpt>
      <trkpt lat="43.26734" lon="2.47742">
        <ele>166.8</ele>
        <time>2019-06-23T07:15:04.000Z</time>
      </trkpt>
      <trkpt lat="43.26732" lon="2.47744">
        <ele>166.9</ele>
        <time>2019-06-23T07:15:05.000Z</time>
      </trkpt>
      <trkpt lat="43.2673" lon="2.47746">
        <ele>166.9</ele>
        <time>2019-06-23T07:15:06.000Z</time>
      </trkpt>
      <trkpt lat="43.26729" lon="2.47748">
        <ele>166.9</ele>
        <time>2019-06-23T07:15:07.000Z</time>
      </trkpt>
      <trkpt lat="43.26727" lon="2.47751">
        <ele>166.8</ele>
        <time>2019-06-23T07:15:08.000Z</time>
      </trkpt>
      <trkpt lat="43.26726" lon="2.47753">
        <ele>166.7</ele>
        <time>2019-06-23T07:15:09.000Z</time>
      </trkpt>
      <trkpt lat="43.26725" lon="2.47756">
        <ele>166.6</ele>
        <time>2019-06-23T07:15:10.000Z</time>
      </trkpt>
      <trkpt lat="43.26724" lon="2.47759">
        <ele>166.4</ele>
        <time>2019-06-23T07:15:11.000Z</time>
      </trkpt>
      <trkpt lat="43.26723" lon="2.47762">
        <ele>166.3</ele>
        <time>2019-06-23T07:15:12.000Z</time>
      </trkpt>
      <trkpt lat="43.26722" lon="2.47765">
        <ele>166.1</ele>
        <time>2019-06-23T07:15:13.000Z</time>
      </trkpt>
      <trkpt lat="43.26721" lon="2.47768">
        <ele>166</ele>
        <time>2019-06-23T07:15:14.000Z</time>
      </trkpt>
      <trkpt lat="43.2672" lon="2.47771">
        <ele>165.9</ele>
        <time>2019-06-23T07:15:15.000Z</time>
      </trkpt>
      <trkpt lat="43.2672" lon="2.47773">
        <ele>165.7</ele>
        <time>2019-06-23T07:15:16.000Z</time>
      </trkpt>
      <trkpt lat="43.26719" lon="2.47776">
        <ele>165.6</ele>
        <time>2019-06-23T07:15:17.000Z</time>
      </trkpt>
      <trkpt lat="43.26718" lon="2.47778">
        <ele>165.5</ele>
        <time>2019-06-23T07:15:18.000Z</time>
      </trkpt>
      <trkpt lat="43.26717" lon="2.47781">
        <ele>165.4</ele>
        <time>2019-06-23T07:15:19.000Z</time>
      </trkpt>
      <trkpt lat="43.26717" lon="2.47783">
        <ele>165.3</ele>
        <time>2019-06-23T07:15:20.000Z</time>
      </trkpt>
      <trkpt lat="43.26716" lon="2.47785">
        <ele>165.2</ele>
        <time>2019-06-23T07:15:21.000Z</time>
      </trkpt>
      <trkpt lat="43.26716" lon="2.47786">
        <ele>165.1</ele>
        <time>2019-06-23T07:15:22.000Z</time>
      </trkpt>
      <trkpt lat="43.26715" lon="2.47788">
        <ele>165</ele>
        <time>2019-06-23T07:15:23.000Z</time>
      </trkpt>
      <trkpt lat="43.26715" lon="2.47789">
        <ele>165</ele>
        <time>2019-06-23T07:15:24.000Z</time>
      </trkpt>
      <trkpt lat="43.26715" lon="2.47791">
        <ele>164.9</ele>
        <time>2019-06-23T07:15:25.000Z</time>
      </trkpt>
      <trkpt lat="43.26714" lon="2.47793">
        <ele>164.8</ele>
        <time>2019-06-23T07:15:26.000Z</time>
      </trkpt>
      <trkpt lat="43.26714" lon="2.47794">
        <ele>164.7</ele>
        <time>2019-06-23T07:15:27.000Z</time>
      </trkpt>
      <trkpt lat="43.26714" lon="2.47796">
        <ele>164.6</ele>
        <time>2019-06-23T07:15:28.000Z</time>
      </trkpt>
      <trkpt lat="43.26713" lon="2.47798">
        <ele>164.5</ele>
        <time>2019-06-23T07:15:29.000Z</time>
      </trkpt>
      <trkpt lat="43.26713" lon="2.47801">
        <ele>164.3</ele>
        <time>2019-06-23T07:15:30.000Z</time>
      </trkpt>
      <trkpt lat="43.26713" lon="2.47804">
        <ele>164.2</ele>
        <time>2019-06-23T07:15:31.000Z</time>
      </trkpt>
      <trkpt lat="43.26712" lon="2.47807">
        <ele>164</ele>
        <time>2019-06-23T07:15:32.000Z</time>
      </trkpt>
      <trkpt lat="43.26712" lon="2.4781">
        <ele>163.8</ele>
        <time>2019-06-23T07:15:33.000Z</time>
      </trkpt>
      <trkpt lat="43.26712" lon="2.47813">
        <ele>163.6</ele>
        <time>2019-06-23T07:15:34.000Z</time>
      </trkpt>
      <trkpt lat="43.26711" lon="2.47817">
        <ele>163.3</ele>
        <time>2019-06-23T07:15:35.000Z</time>
      </trkpt>
      <trkpt lat="43.26711" lon="2.4782">
        <ele>163.1</ele>
        <time>2019-06-23T07:15:36.000Z</time>
      </trkpt>
      <trkpt lat="43.26711" lon="2.47824">
        <ele>162.9</ele>
        <time>2019-06-23T07:15:37.000Z</time>
      </trkpt>
      <trkpt lat="43.26711" lon="2.47827">
        <ele>162.7</ele>
        <time>2019-06-23T07:15:38.000Z</time>
      </trkpt>
      <trkpt lat="43.2671" lon="2.47831">
        <ele>162.4</ele>
        <time>2019-06-23T07:15:39.000Z</time>
      </trkpt>
      <trkpt lat="43.2671" lon="2.47834">
        <ele>162.2</ele>
        <time>2019-06-23T07:15:40.000Z</time>
      </trkpt>
      <trkpt lat="43.2671" lon="2.47837">
        <ele>162</ele>
        <time>2019-06-23T07:15:41.000Z</time>
      </trkpt>
      <trkpt lat="43.2671" lon="2.4784">
        <ele>161.8</ele>
        <time>2019-06-23T07:15:42.000Z</time>
      </trkpt>
      <trkpt lat="43.26709" lon="2.47843">
        <ele>161.7</ele>
        <time>2019-06-23T07:15:43.000Z</time>
      </trkpt>
      <trkpt lat="43.26709" lon="2.47845">
        <ele>161.6</ele>
        <time>2019-06-23T07:15:44.000Z</time>
      </trkpt>
      <trkpt lat="43.26708" lon="2.47848">
        <ele>161.5</ele>
        <time>2019-06-23T07:15:45.000Z</time>
      </trkpt>
      <trkpt lat="43.26707" lon="2.47849">
        <ele>161.5</ele>
        <time>2019-06-23T07:15:46.000Z</time>
      </trkpt>
      <trkpt lat="43.26707" lon="2.47851">
        <ele>161.5</ele>
        <time>2019-06-23T07:15:47.000Z</time>
      </trkpt>
      <trkpt lat="43.26706" lon="2.47853">
        <ele>161.5</ele>
        <time>2019-06-23T07:15:48.000Z</time>
      </trkpt>
      <trkpt lat="43.26705" lon="2.47854">
        <ele>161.5</ele>
        <time>2019-06-23T07:15:49.000Z</time>
      </trkpt>
      <trkpt lat="43.26704" lon="2.47855">
        <ele>161.5</ele>
        <time>2019-06-23T07:15:50.000Z</time>
      </trkpt>
      <trkpt lat="43.26703" lon="2.47856">
        <ele>161.5</ele>
        <time>2019-06-23T07:15:51.000Z</time>
      </trkpt>
      <trkpt lat="43.26702" lon="2.47858">
        <ele>161.6</ele>
        <time>2019-06-23T07:15:52.000Z</time>
      </trkpt>
      <trkpt lat="43.26702" lon="2.47859">
        <ele>161.6</ele>
        <time>2019-06-23T07:15:53.000Z</time>
      </trkpt>
      <trkpt lat="43.26701" lon="2.47861">
        <ele>161.5</ele>
        <time>2019-06-23T07:15:54.000Z</time>
      </trkpt>
      <trkpt lat="43.267" lon="2.47862">
        <ele>161.5</ele>
        <time>2019-06-23T07:15:55.000Z</time>
      </trkpt>
      <trkpt lat="43.267" lon="2.47864">
        <ele>161.4</ele>
        <time>2019-06-23T07:15:56.000Z</time>
      </trkpt>
      <trkpt lat="43.26699" lon="2.47865">
        <ele>161.4</ele>
        <time>2019-06-23T07:15:57.000Z</time>
      </trkpt>
      <trkpt lat="43.26699" lon="2.47867">
        <ele>161.3</ele>
        <time>2019-06-23T07:15:58.000Z</time>
      </trkpt>
      <trkpt lat="43.26698" lon="2.47869">
        <ele>161.3</ele>
        <time>2019-06-23T07:15:59.000Z</time>
      </trkpt>
      <trkpt lat="43.26698" lon="2.47871">
        <ele>161.2</ele>
        <time>2019-06-23T07:16:00.000Z</time>
      </trkpt>
      <trkpt lat="43.26697" lon="2.47873">
        <ele>161.2</ele>
        <time>2019-06-23T07:16:01.000Z</time>
      </trkpt>
      <trkpt lat="43.26696" lon="2.47875">
        <ele>161.2</ele>
        <time>2019-06-23T07:16:02.000Z</time>
      </trkpt>
      <trkpt lat="43.26695" lon="2.47877">
        <ele>161.1</ele>
        <time>2019-06-23T07:16:03.000Z</time>
      </trkpt>
      <trkpt lat="43.26694" lon="2.4788">
        <ele>161.1</ele>
        <time>2019-06-23T07:16:04.000Z</time>
      </trkpt>
      <trkpt lat="43.26693" lon="2.47882">
        <ele>161</ele>
        <time>2019-06-23T07:16:05.000Z</time>
      </trkpt>
      <trkpt lat="43.26692" lon="2.47885">
        <ele>160.9</ele>
        <time>2019-06-23T07:16:06.000Z</time>
      </trkpt>
      <trkpt lat="43.26692" lon="2.47887">
        <ele>160.8</ele>
        <time>2019-06-23T07:16:07.000Z</time>
      </trkpt>
      <trkpt lat="43.26691" lon="2.4789">
        <ele>160.7</ele>
        <time>2019-06-23T07:16:08.000Z</time>
      </trkpt>
      <trkpt lat="43.26691" lon="2.47893">
        <ele>160.6</ele>
        <time>2019-06-23T07:16:09.000Z</time>
      </trkpt>
      <trkpt lat="43.2669" lon="2.47896">
        <ele>160.4</ele>
        <time>2019-06-23T07:16:10.000Z</time>
      </trkpt>
      <trkpt lat="43.2669" lon="2.47899">
        <ele>160.2</ele>
        <time>2019-06-23T07:16:11.000Z</time>
      </trkpt>
      <trkpt lat="43.2669" lon="2.47902">
        <ele>160</ele>
        <time>2019-06-23T07:16:12.000Z</time>
      </trkpt>
      <trkpt lat="43.2669" lon="2.47905">
        <ele>159.8</ele>
        <time>2019-06-23T07:16:13.000Z</time>
      </trkpt>
      <trkpt lat="43.2669" lon="2.47908">
        <ele>159.6</ele>
        <time>2019-06-23T07:16:14.000Z</time>
      </trkpt>
      <trkpt lat="43.26689" lon="2.47911">
        <ele>159.4</ele>
        <time>2019-06-23T07:16:15.000Z</time>
      </trkpt>
      <trkpt lat="43.26689" lon="2.47914">
        <ele>159.2</ele>
        <time>2019-06-23T07:16:16.000Z</time>
      </trkpt>
      <trkpt lat="43.26689" lon="2.47918">
        <ele>159</ele>
        <time>2019-06-23T07:16:17.000Z</time>
      </trkpt>
      <trkpt lat="43.26689" lon="2.47921">
        <ele>158.9</ele>
        <time>2019-06-23T07:16:18.000Z</time>
      </trkpt>
      <trkpt lat="43.26688" lon="2.47924">
        <ele>158.9</ele>
        <time>2019-06-23T07:16:19.000Z</time>
      </trkpt>
      <trkpt lat="43.26688" lon="2.47927">
        <ele>158.8</ele>
        <time>2019-06-23T07:16:20.000Z</time>
      </trkpt>
      <trkpt lat="43.26687" lon="2.47931">
        <ele>158.7</ele>
        <time>2019-06-23T07:16:21.000Z</time>
      </trkpt>
      <trkpt lat="43.26687" lon="2.47934">
        <ele>158.6</ele>
        <time>2019-06-23T07:16:22.000Z</time>
      </trkpt>
      <trkpt lat="43.26686" lon="2.47937">
        <ele>158.6</ele>
        <time>2019-06-23T07:16:23.000Z</time>
      </trkpt>
      <trkpt lat="43.26686" lon="2.47941">
        <ele>158.5</ele>
        <time>2019-06-23T07:16:24.000Z</time>
      </trkpt>
      <trkpt lat="43.26685" lon="2.47944">
        <ele>158.4</ele>
        <time>2019-06-23T07:16:25.000Z</time>
      </trkpt>
      <trkpt lat="43.26685" lon="2.47947">
        <ele>158.4</ele>
        <time>2019-06-23T07:16:26.000Z</time>
      </trkpt>
      <trkpt lat="43.26684" lon="2.47951">
        <ele>158.4</ele>
        <time>2019-06-23T07:16:27.000Z</time>
      </trkpt>
      <trkpt lat="43.26683" lon="2.47954">
        <ele>158.3</ele>
        <time>2019-06-23T07:16:28.000Z</time>
      </trkpt>
      <trkpt lat="43.26682" lon="2.47957">
        <ele>158.3</ele>
        <time>2019-06-23T07:16:29.000Z</time>
      </trkpt>
      <trkpt lat="43.26682" lon="2.47961">
        <ele>158.3</ele>
        <time>2019-06-23T07:16:30.000Z</time>
      </trkpt>
      <trkpt lat="43.26681" lon="2.47964">
        <ele>158.3</ele>
        <time>2019-06-23T07:16:31.000Z</time>
      </trkpt>
      <trkpt lat="43.2668" lon="2.47967">
        <ele>158.3</ele>
        <time>2019-06-23T07:16:32.000Z</time>
      </trkpt>
      <trkpt lat="43.26679" lon="2.47971">
        <ele>158.2</ele>
        <time>2019-06-23T07:16:33.000Z</time>
      </trkpt>
      <trkpt lat="43.26678" lon="2.47974">
        <ele>158.3</ele>
        <time>2019-06-23T07:16:34.000Z</time>
      </trkpt>
      <trkpt lat="43.26677" lon="2.47977">
        <ele>158.3</ele>
        <time>2019-06-23T07:16:35.000Z</time>
      </trkpt>
      <trkpt lat="43.26676" lon="2.47981">
        <ele>158.3</ele>
        <time>2019-06-23T07:16:36.000Z</time>
      </trkpt>
      <trkpt lat="43.26675" lon="2.47984">
        <ele>158.3</ele>
        <time>2019-06-23T07:16:37.000Z</time>
      </trkpt>
      <trkpt lat="43.26674" lon="2.47987">
        <ele>158.3</ele>
        <time>2019-06-23T07:16:38.000Z</time>
      </trkpt>
      <trkpt lat="43.26673" lon="2.47991">
        <ele>158.4</ele>
        <time>2019-06-23T07:16:39.000Z</time>
      </trkpt>
      <trkpt lat="43.26672" lon="2.47994">
        <ele>158.4</ele>
        <time>2019-06-23T07:16:40.000Z</time>
      </trkpt>
      <trkpt lat="43.26671" lon="2.47997">
        <ele>158.5</ele>
        <time>2019-06-23T07:16:41.000Z</time>
      </trkpt>
      <trkpt lat="43.2667" lon="2.48001">
        <ele>158.5</ele>
        <time>2019-06-23T07:16:42.000Z</time>
      </trkpt>
      <trkpt lat="43.26669" lon="2.48004">
        <ele>158.6</ele>
        <time>2019-06-23T07:16:43.000Z</time>
      </trkpt>
      <trkpt lat="43.26667" lon="2.48007">
        <ele>158.6</ele>
        <time>2019-06-23T07:16:44.000Z</time>
      </trkpt>
      <trkpt lat="43.26666" lon="2.4801">
        <ele>158.7</ele>
        <time>2019-06-23T07:16:45.000Z</time>
      </trkpt>
      <trkpt lat="43.26665" lon="2.48014">
        <ele>158.6</ele>
        <time>2019-06-23T07:16:46.000Z</time>
      </trkpt>
      <trkpt lat="43.26664" lon="2.48017">
        <ele>158.6</ele>
        <time>2019-06-23T07:16:47.000Z</time>
      </trkpt>
      <trkpt lat="43.26663" lon="2.4802">
        <ele>158.6</ele>
        <time>2019-06-23T07:16:48.000Z</time>
      </trkpt>
      <trkpt lat="43.26661" lon="2.48023">
        <ele>158.5</ele>
        <time>2019-06-23T07:16:49.000Z</time>
      </trkpt>
      <trkpt lat="43.2666" lon="2.48026">
        <ele>158.4</ele>
        <time>2019-06-23T07:16:50.000Z</time>
      </trkpt>
      <trkpt lat="43.26659" lon="2.48029">
        <ele>158.4</ele>
        <time>2019-06-23T07:16:51.000Z</time>
      </trkpt>
      <trkpt lat="43.26658" lon="2.48032">
        <ele>158.3</ele>
        <time>2019-06-23T07:16:52.000Z</time>
      </trkpt>
      <trkpt lat="43.26657" lon="2.48036">
        <ele>158.2</ele>
        <time>2019-06-23T07:16:53.000Z</time>
      </trkpt>
      <trkpt lat="43.26657" lon="2.48039">
        <ele>158.1</ele>
        <time>2019-06-23T07:16:54.000Z</time>
      </trkpt>
      <trkpt lat="43.26656" lon="2.48042">
        <ele>158</ele>
        <time>2019-06-23T07:16:55.000Z</time>
      </trkpt>
      <trkpt lat="43.26655" lon="2.48045">
        <ele>157.9</ele>
        <time>2019-06-23T07:16:56.000Z</time>
      </trkpt>
      <trkpt lat="43.26655" lon="2.48048">
        <ele>157.8</ele>
        <time>2019-06-23T07:16:57.000Z</time>
      </trkpt>
      <trkpt lat="43.26654" lon="2.48051">
        <ele>157.7</ele>
        <time>2019-06-23T07:16:58.000Z</time>
      </trkpt>
      <trkpt lat="43.26653" lon="2.48053">
        <ele>157.6</ele>
        <time>2019-06-23T07:16:59.000Z</time>
      </trkpt>
      <trkpt lat="43.26652" lon="2.48056">
        <ele>157.5</ele>
        <time>2019-06-23T07:17:00.000Z</time>
      </trkpt>
      <trkpt lat="43.26651" lon="2.48059">
        <ele>157.4</ele>
        <time>2019-06-23T07:17:01.000Z</time>
      </trkpt>
      <trkpt lat="43.2665" lon="2.48062">
        <ele>157.3</ele>
        <time>2019-06-23T07:17:02.000Z</time>
      </trkpt>
      <trkpt lat="43.26649" lon="2.48064">
        <ele>157.2</ele>
        <time>2019-06-23T07:17:03.000Z</time>
      </trkpt>
      <trkpt lat="43.26647" lon="2.48067">
        <ele>157.1</ele>
        <time>2019-06-23T07:17:04.000Z</time>
      </trkpt>
      <trkpt lat="43.26646" lon="2.48069">
        <ele>157</ele>
        <time>2019-06-23T07:17:05.000Z</time>
      </trkpt>
      <trkpt lat="43.26644" lon="2.48072">
        <ele>156.9</ele>
        <time>2019-06-23T07:17:06.000Z</time>
      </trkpt>
      <trkpt lat="43.26642" lon="2.48075">
        <ele>156.8</ele>
        <time>2019-06-23T07:17:07.000Z</time>
      </trkpt>
      <trkpt lat="43.26641" lon="2.48077">
        <ele>156.7</ele>
        <time>2019-06-23T07:17:08.000Z</time>
      </trkpt>
      <trkpt lat="43.26639" lon="2.4808">
        <ele>156.5</ele>
        <time>2019-06-23T07:17:09.000Z</time>
      </trkpt>
      <trkpt lat="43.26637" lon="2.48083">
        <ele>156.4</ele>
        <time>2019-06-23T07:17:10.000Z</time>
      </trkpt>
      <trkpt lat="43.26636" lon="2.48086">
        <ele>156.2</ele>
        <time>2019-06-23T07:17:11.000Z</time>
      </trkpt>
      <trkpt lat="43.26634" lon="2.48089">
        <ele>156.1</ele>
        <time>2019-06-23T07:17:12.000Z</time>
      </trkpt>
      <trkpt lat="43.26633" lon="2.48092">
        <ele>155.9</ele>
        <time>2019-06-23T07:17:13.000Z</time>
      </trkpt>
      <trkpt lat="43.26632" lon="2.48095">
        <ele>155.7</ele>
        <time>2019-06-23T07:17:14.000Z</time>
      </trkpt>
      <trkpt lat="43.2663" lon="2.48098">
        <ele>155.6</ele>
        <time>2019-06-23T07:17:15.000Z</time>
      </trkpt>
      <trkpt lat="43.26628" lon="2.48101">
        <ele>155.4</ele>
        <time>2019-06-23T07:17:16.000Z</time>
      </trkpt>
      <trkpt lat="43.26627" lon="2.48104">
        <ele>155.2</ele>
        <time>2019-06-23T07:17:17.000Z</time>
      </trkpt>
      <trkpt lat="43.26625" lon="2.48107">
        <ele>155.1</ele>
        <time>2019-06-23T07:17:18.000Z</time>
      </trkpt>
      <trkpt lat="43.26623" lon="2.4811">
        <ele>154.9</ele>
        <time>2019-06-23T07:17:19.000Z</time>
      </trkpt>
      <trkpt lat="43.26622" lon="2.48112">
        <ele>154.8</ele>
        <time>2019-06-23T07:17:20.000Z</time>
      </trkpt>
      <trkpt lat="43.26621" lon="2.48114">
        <ele>154.7</ele>
        <time>2019-06-23T07:17:21.000Z</time>
      </trkpt>
      <trkpt lat="43.26621" lon="2.48115">
        <ele>154.6</ele>
        <time>2019-06-23T07:17:22.000Z</time>
      </trkpt>
      <trkpt lat="43.2662" lon="2.48117">
        <ele>154.6</ele>
        <time>2019-06-23T07:17:23.000Z</time>
      </trkpt>
      <trkpt lat="43.2662" lon="2.48118">
        <ele>154.5</ele>
        <time>2019-06-23T07:17:24.000Z</time>
      </trkpt>
      <trkpt lat="43.26619" lon="2.4812">
        <ele>154.4</ele>
        <time>2019-06-23T07:17:25.000Z</time>
      </trkpt>
      <trkpt lat="43.26618" lon="2.48121">
        <ele>154.3</ele>
        <time>2019-06-23T07:17:26.000Z</time>
      </trkpt>
      <trkpt lat="43.26617" lon="2.48123">
        <ele>154.2</ele>
        <time>2019-06-23T07:17:27.000Z</time>
      </trkpt>
      <trkpt lat="43.26616" lon="2.48125">
        <ele>154.1</ele>
        <time>2019-06-23T07:17:28.000Z</time>
      </trkpt>
      <trkpt lat="43.26615" lon="2.48128">
        <ele>154</ele>
        <time>2019-06-23T07:17:29.000Z</time>
      </trkpt>
      <trkpt lat="43.26613" lon="2.4813">
        <ele>153.8</ele>
        <time>2019-06-23T07:17:30.000Z</time>
      </trkpt>
      <trkpt lat="43.26612" lon="2.48133">
        <ele>153.7</ele>
        <time>2019-06-23T07:17:31.000Z</time>
      </trkpt>
      <trkpt lat="43.2661" lon="2.48135">
        <ele>153.6</ele>
        <time>2019-06-23T07:17:32.000Z</time>
      </trkpt>
      <trkpt lat="43.26609" lon="2.48138">
        <ele>153.4</ele>
        <time>2019-06-23T07:17:33.000Z</time>
      </trkpt>
      <trkpt lat="43.26608" lon="2.48141">
        <ele>153.2</ele>
        <time>2019-06-23T07:17:34.000Z</time>
      </trkpt>
      <trkpt lat="43.26607" lon="2.48144">
        <ele>153.1</ele>
        <time>2019-06-23T07:17:35.000Z</time>
      </trkpt>
      <trkpt lat="43.26605" lon="2.48147">
        <ele>152.9</ele>
        <time>2019-06-23T07:17:36.000Z</time>
      </trkpt>
      <trkpt lat="43.26604" lon="2.48151">
        <ele>152.7</ele>
        <time>2019-06-23T07:17:37.000Z</time>
      </trkpt>
      <trkpt lat="43.26603" lon="2.48154">
        <ele>152.5</ele>
        <time>2019-06-23T07:17:38.000Z</time>
      </trkpt>
      <trkpt lat="43.26602" lon="2.48157">
        <ele>152.3</ele>
        <time>2019-06-23T07:17:39.000Z</time>
      </trkpt>
      <trkpt lat="43.26601" lon="2.48161">
        <ele>152.2</ele>
        <time>2019-06-23T07:17:40.000Z</time>
      </trkpt>
      <trkpt lat="43.266" lon="2.48164">
        <ele>152</ele>
        <time>2019-06-23T07:17:41.000Z</time>
      </trkpt>
      <trkpt lat="43.26598" lon="2.48167">
        <ele>151.8</ele>
        <time>2019-06-23T07:17:42.000Z</time>
      </trkpt>
      <trkpt lat="43.26597" lon="2.48171">
        <ele>151.7</ele>
        <time>2019-06-23T07:17:43.000Z</time>
      </trkpt>
      <trkpt lat="43.26596" lon="2.48174">
        <ele>151.6</ele>
        <time>2019-06-23T07:17:44.000Z</time>
      </trkpt>
      <trkpt lat="43.26595" lon="2.48178">
        <ele>151.5</ele>
        <time>2019-06-23T07:17:45.000Z</time>
      </trkpt>
      <trkpt lat="43.26594" lon="2.48181">
        <ele>151.4</ele>
        <time>2019-06-23T07:17:46.000Z</time>
      </trkpt>
      <trkpt lat="43.26593" lon="2.48184">
        <ele>151.2</ele>
        <time>2019-06-23T07:17:47.000Z</time>
      </trkpt>
      <trkpt lat="43.26592" lon="2.48188">
        <ele>151.1</ele>
        <time>2019-06-23T07:17:48.000Z</time>
      </trkpt>
      <trkpt lat="43.26592" lon="2.48191">
        <ele>151</ele>
        <time>2019-06-23T07:17:49.000Z</time>
      </trkpt>
      <trkpt lat="43.26591" lon="2.48194">
        <ele>150.9</ele>
        <time>2019-06-23T07:17:50.000Z</time>
      </trkpt>
      <trkpt lat="43.2659" lon="2.48197">
        <ele>150.8</ele>
        <time>2019-06-23T07:17:51.000Z</time>
      </trkpt>
      <trkpt lat="43.26589" lon="2.48201">
        <ele>150.7</ele>
        <time>2019-06-23T07:17:52.000Z</time>
      </trkpt>
      <trkpt lat="43.26588" lon="2.48204">
        <ele>150.6</ele>
        <time>2019-06-23T07:17:53.000Z</time>
      </trkpt>
      <trkpt lat="43.26587" lon="2.48207">
        <ele>150.5</ele>
        <time>2019-06-23T07:17:54.000Z</time>
      </trkpt>
      <trkpt lat="43.26586" lon="2.4821">
        <ele>150.4</ele>
        <time>2019-06-23T07:17:55.000Z</time>
      </trkpt>
      <trkpt lat="43.26585" lon="2.48213">
        <ele>150.3</ele>
        <time>2019-06-23T07:17:56.000Z</time>
      </trkpt>
      <trkpt lat="43.26584" lon="2.48216">
        <ele>150.2</ele>
        <time>2019-06-23T07:17:57.000Z</time>
      </trkpt>
      <trkpt lat="43.26583" lon="2.48219">
        <ele>150.1</ele>
        <time>2019-06-23T07:17:58.000Z</time>
      </trkpt>
      <trkpt lat="43.26582" lon="2.48222">
        <ele>150.1</ele>
        <time>2019-06-23T07:17:59.000Z</time>
      </trkpt>
      <trkpt lat="43.2658" lon="2.48225">
        <ele>150</ele>
        <time>2019-06-23T07:18:00.000Z</time>
      </trkpt>
      <trkpt lat="43.26579" lon="2.48228">
        <ele>149.9</ele>
        <time>2019-06-23T07:18:01.000Z</time>
      </trkpt>
      <trkpt lat="43.26578" lon="2.48232">
        <ele>149.8</ele>
        <time>2019-06-23T07:18:02.000Z</time>
      </trkpt>
      <trkpt lat="43.26577" lon="2.48235">
        <ele>149.7</ele>
        <time>2019-06-23T07:18:03.000Z</time>
      </trkpt>
      <trkpt lat="43.26576" lon="2.48238">
        <ele>149.6</ele>
        <time>2019-06-23T07:18:04.000Z</time>
      </trkpt>
      <trkpt lat="43.26574" lon="2.48241">
        <ele>149.5</ele>
        <time>2019-06-23T07:18:05.000Z</time>
      </trkpt>
      <trkpt lat="43.26573" lon="2.48244">
        <ele>149.4</ele>
        <time>2019-06-23T07:18:06.000Z</time>
      </trkpt>
      <trkpt lat="43.26572" lon="2.48248">
        <ele>149.2</ele>
        <time>2019-06-23T07:18:07.000Z</time>
      </trkpt>
      <trkpt lat="43.2657" lon="2.48251">
        <ele>149.1</ele>
        <time>2019-06-23T07:18:08.000Z</time>
      </trkpt>
      <trkpt lat="43.26569" lon="2.48254">
        <ele>149</ele>
        <time>2019-06-23T07:18:09.000Z</time>
      </trkpt>
      <trkpt lat="43.26567" lon="2.48257">
        <ele>148.9</ele>
        <time>2019-06-23T07:18:10.000Z</time>
      </trkpt>
      <trkpt lat="43.26566" lon="2.48261">
        <ele>148.8</ele>
        <time>2019-06-23T07:18:11.000Z</time>
      </trkpt>
      <trkpt lat="43.26564" lon="2.48264">
        <ele>148.7</ele>
        <time>2019-06-23T07:18:12.000Z</time>
      </trkpt>
      <trkpt lat="43.26563" lon="2.48267">
        <ele>148.6</ele>
        <time>2019-06-23T07:18:13.000Z</time>
      </trkpt>
      <trkpt lat="43.26561" lon="2.48271">
        <ele>148.5</ele>
        <time>2019-06-23T07:18:14.000Z</time>
      </trkpt>
      <trkpt lat="43.2656" lon="2.48274">
        <ele>148.3</ele>
        <time>2019-06-23T07:18:15.000Z</time>
      </trkpt>
      <trkpt lat="43.26558" lon="2.48277">
        <ele>148.2</ele>
        <time>2019-06-23T07:18:16.000Z</time>
      </trkpt>
      <trkpt lat="43.26557" lon="2.4828">
        <ele>148.1</ele>
        <time>2019-06-23T07:18:17.000Z</time>
      </trkpt>
      <trkpt lat="43.26555" lon="2.48284">
        <ele>148</ele>
        <time>2019-06-23T07:18:18.000Z</time>
      </trkpt>
      <trkpt lat="43.26554" lon="2.48287">
        <ele>147.9</ele>
        <time>2019-06-23T07:18:19.000Z</time>
      </trkpt>
      <trkpt lat="43.26552" lon="2.4829">
        <ele>147.8</ele>
        <time>2019-06-23T07:18:20.000Z</time>
      </trkpt>
      <trkpt lat="43.26551" lon="2.48293">
        <ele>147.7</ele>
        <time>2019-06-23T07:18:21.000Z</time>
      </trkpt>
      <trkpt lat="43.26549" lon="2.48296">
        <ele>147.5</ele>
        <time>2019-06-23T07:18:22.000Z</time>
      </trkpt>
      <trkpt lat="43.26547" lon="2.48298">
        <ele>147.4</ele>
        <time>2019-06-23T07:18:23.000Z</time>
      </trkpt>
      <trkpt lat="43.26545" lon="2.48301">
        <ele>147.3</ele>
        <time>2019-06-23T07:18:24.000Z</time>
      </trkpt>
      <trkpt lat="43.26544" lon="2.48304">
        <ele>147.2</ele>
        <time>2019-06-23T07:18:25.000Z</time>
      </trkpt>
      <trkpt lat="43.26542" lon="2.48307">
        <ele>147.1</ele>
        <time>2019-06-23T07:18:26.000Z</time>
      </trkpt>
      <trkpt lat="43.26541" lon="2.4831">
        <ele>147</ele>
        <time>2019-06-23T07:18:27.000Z</time>
      </trkpt>
      <trkpt lat="43.26541" lon="2.48314">
        <ele>146.8</ele>
        <time>2019-06-23T07:18:28.000Z</time>
      </trkpt>
      <trkpt lat="43.2654" lon="2.48317">
        <ele>146.7</ele>
        <time>2019-06-23T07:18:29.000Z</time>
      </trkpt>
      <trkpt lat="43.26539" lon="2.4832">
        <ele>146.5</ele>
        <time>2019-06-23T07:18:30.000Z</time>
      </trkpt>
      <trkpt lat="43.26538" lon="2.48323">
        <ele>146.4</ele>
        <time>2019-06-23T07:18:31.000Z</time>
      </trkpt>
      <trkpt lat="43.26537" lon="2.48326">
        <ele>146.3</ele>
        <time>2019-06-23T07:18:32.000Z</time>
      </trkpt>
      <trkpt lat="43.26536" lon="2.48329">
        <ele>146.2</ele>
        <time>2019-06-23T07:18:33.000Z</time>
      </trkpt>
      <trkpt lat="43.26534" lon="2.48331">
        <ele>146.1</ele>
        <time>2019-06-23T07:18:34.000Z</time>
      </trkpt>
      <trkpt lat="43.26532" lon="2.48333">
        <ele>146</ele>
        <time>2019-06-23T07:18:35.000Z</time>
      </trkpt>
      <trkpt lat="43.2653" lon="2.48335">
        <ele>146</ele>
        <time>2019-06-23T07:18:36.000Z</time>
      </trkpt>
      <trkpt lat="43.26528" lon="2.48337">
        <ele>145.9</ele>
        <time>2019-06-23T07:18:37.000Z</time>
      </trkpt>
      <trkpt lat="43.26526" lon="2.48339">
        <ele>145.9</ele>
        <time>2019-06-23T07:18:38.000Z</time>
      </trkpt>
      <trkpt lat="43.26524" lon="2.48341">
        <ele>145.8</ele>
        <time>2019-06-23T07:18:39.000Z</time>
      </trkpt>
      <trkpt lat="43.26522" lon="2.48343">
        <ele>145.8</ele>
        <time>2019-06-23T07:18:40.000Z</time>
      </trkpt>
      <trkpt lat="43.26519" lon="2.48345">
        <ele>145.7</ele>
        <time>2019-06-23T07:18:41.000Z</time>
      </trkpt>
      <trkpt lat="43.26517" lon="2.48348">
        <ele>145.7</ele>
        <time>2019-06-23T07:18:42.000Z</time>
      </trkpt>
      <trkpt lat="43.26515" lon="2.4835">
        <ele>145.6</ele>
        <time>2019-06-23T07:18:43.000Z</time>
      </trkpt>
      <trkpt lat="43.26513" lon="2.48352">
        <ele>145.6</ele>
        <time>2019-06-23T07:18:44.000Z</time>
      </trkpt>
      <trkpt lat="43.26511" lon="2.48354">
        <ele>145.5</ele>
        <time>2019-06-23T07:18:45.000Z</time>
      </trkpt>
      <trkpt lat="43.26509" lon="2.48356">
        <ele>145.5</ele>
        <time>2019-06-23T07:18:46.000Z</time>
      </trkpt>
      <trkpt lat="43.26507" lon="2.48358">
        <ele>145.4</ele>
        <time>2019-06-23T07:18:47.000Z</time>
      </trkpt>
      <trkpt lat="43.26505" lon="2.48361">
        <ele>145.4</ele>
        <time>2019-06-23T07:18:48.000Z</time>
      </trkpt>
      <trkpt lat="43.26503" lon="2.48363">
        <ele>145.3</ele>
        <time>2019-06-23T07:18:49.000Z</time>
      </trkpt>
      <trkpt lat="43.26501" lon="2.48365">
        <ele>145.2</ele>
        <time>2019-06-23T07:18:50.000Z</time>
      </trkpt>
      <trkpt lat="43.26499" lon="2.48367">
        <ele>145.2</ele>
        <time>2019-06-23T07:18:51.000Z</time>
      </trkpt>
      <trkpt lat="43.26497" lon="2.4837">
        <ele>145.2</ele>
        <time>2019-06-23T07:18:52.000Z</time>
      </trkpt>
      <trkpt lat="43.26495" lon="2.48372">
        <ele>145.3</ele>
        <time>2019-06-23T07:18:53.000Z</time>
      </trkpt>
      <trkpt lat="43.26493" lon="2.48374">
        <ele>145.3</ele>
        <time>2019-06-23T07:18:54.000Z</time>
      </trkpt>
      <trkpt lat="43.26491" lon="2.48376">
        <ele>145.3</ele>
        <time>2019-06-23T07:18:55.000Z</time>
      </trkpt>
      <trkpt lat="43.26489" lon="2.48379">
        <ele>145.3</ele>
        <time>2019-06-23T07:18:56.000Z</time>
      </trkpt>
      <trkpt lat="43.26487" lon="2.48381">
        <ele>145.3</ele>
        <time>2019-06-23T07:18:57.000Z</time>
      </trkpt>
      <trkpt lat="43.26485" lon="2.48383">
        <ele>145.3</ele>
        <time>2019-06-23T07:18:58.000Z</time>
      </trkpt>
      <trkpt lat="43.26483" lon="2.48385">
        <ele>145.3</ele>
        <time>2019-06-23T07:18:59.000Z</time>
      </trkpt>
      <trkpt lat="43.26481" lon="2.48388">
        <ele>145.2</ele>
        <time>2019-06-23T07:19:00.000Z</time>
      </trkpt>
      <trkpt lat="43.26479" lon="2.4839">
        <ele>145.2</ele>
        <time>2019-06-23T07:19:01.000Z</time>
      </trkpt>
      <trkpt lat="43.26477" lon="2.48392">
        <ele>145.2</ele>
        <time>2019-06-23T07:19:02.000Z</time>
      </trkpt>
      <trkpt lat="43.26475" lon="2.48394">
        <ele>145.2</ele>
        <time>2019-06-23T07:19:03.000Z</time>
      </trkpt>
      <trkpt lat="43.26473" lon="2.48397">
        <ele>145.1</ele>
        <time>2019-06-23T07:19:04.000Z</time>
      </trkpt>
      <trkpt lat="43.26471" lon="2.48399">
        <ele>145.1</ele>
        <time>2019-06-23T07:19:05.000Z</time>
      </trkpt>
      <trkpt lat="43.26469" lon="2.48401">
        <ele>145</ele>
        <time>2019-06-23T07:19:06.000Z</time>
      </trkpt>
      <trkpt lat="43.26467" lon="2.48403">
        <ele>145</ele>
        <time>2019-06-23T07:19:07.000Z</time>
      </trkpt>
      <trkpt lat="43.26464" lon="2.48406">
        <ele>144.9</ele>
        <time>2019-06-23T07:19:08.000Z</time>
      </trkpt>
      <trkpt lat="43.26462" lon="2.48408">
        <ele>144.9</ele>
        <time>2019-06-23T07:19:09.000Z</time>
      </trkpt>
      <trkpt lat="43.2646" lon="2.4841">
        <ele>144.8</ele>
        <time>2019-06-23T07:19:10.000Z</time>
      </trkpt>
      <trkpt lat="43.26458" lon="2.48412">
        <ele>144.7</ele>
        <time>2019-06-23T07:19:11.000Z</time>
      </trkpt>
      <trkpt lat="43.26456" lon="2.48415">
        <ele>144.6</ele>
        <time>2019-06-23T07:19:12.000Z</time>
      </trkpt>
      <trkpt lat="43.26454" lon="2.48417">
        <ele>144.6</ele>
        <time>2019-06-23T07:19:13.000Z</time>
      </trkpt>
      <trkpt lat="43.26451" lon="2.48419">
        <ele>144.5</ele>
        <time>2019-06-23T07:19:14.000Z</time>
      </trkpt>
      <trkpt lat="43.26449" lon="2.48421">
        <ele>144.5</ele>
        <time>2019-06-23T07:19:15.000Z</time>
      </trkpt>
      <trkpt lat="43.26447" lon="2.48424">
        <ele>144.4</ele>
        <time>2019-06-23T07:19:16.000Z</time>
      </trkpt>
      <trkpt lat="43.26445" lon="2.48426">
        <ele>144.4</ele>
        <time>2019-06-23T07:19:17.000Z</time>
      </trkpt>
      <trkpt lat="43.26443" lon="2.48428">
        <ele>144.3</ele>
        <time>2019-06-23T07:19:18.000Z</time>
      </trkpt>
      <trkpt lat="43.26441" lon="2.48431">
        <ele>144.3</ele>
        <time>2019-06-23T07:19:19.000Z</time>
      </trkpt>
      <trkpt lat="43.26439" lon="2.48433">
        <ele>144.2</ele>
        <time>2019-06-23T07:19:20.000Z</time>
      </trkpt>
      <trkpt lat="43.26437" lon="2.48436">
        <ele>144.1</ele>
        <time>2019-06-23T07:19:21.000Z</time>
      </trkpt>
      <trkpt lat="43.26434" lon="2.48438">
        <ele>144.1</ele>
        <time>2019-06-23T07:19:22.000Z</time>
      </trkpt>
      <trkpt lat="43.26432" lon="2.4844">
        <ele>144</ele>
        <time>2019-06-23T07:19:23.000Z</time>
      </trkpt>
      <trkpt lat="43.2643" lon="2.48443">
        <ele>143.9</ele>
        <time>2019-06-23T07:19:24.000Z</time>
      </trkpt>
      <trkpt lat="43.26428" lon="2.48445">
        <ele>143.9</ele>
        <time>2019-06-23T07:19:25.000Z</time>
      </trkpt>
      <trkpt lat="43.26426" lon="2.48448">
        <ele>143.8</ele>
        <time>2019-06-23T07:19:26.000Z</time>
      </trkpt>
      <trkpt lat="43.26424" lon="2.4845">
        <ele>143.7</ele>
        <time>2019-06-23T07:19:27.000Z</time>
      </trkpt>
      <trkpt lat="43.26422" lon="2.48453">
        <ele>143.7</ele>
        <time>2019-06-23T07:19:28.000Z</time>
      </trkpt>
      <trkpt lat="43.2642" lon="2.48455">
        <ele>143.6</ele>
        <time>2019-06-23T07:19:29.000Z</time>
      </trkpt>
      <trkpt lat="43.26418" lon="2.48457">
        <ele>143.5</ele>
        <time>2019-06-23T07:19:30.000Z</time>
      </trkpt>
      <trkpt lat="43.26416" lon="2.4846">
        <ele>143.5</ele>
        <time>2019-06-23T07:19:31.000Z</time>
      </trkpt>
      <trkpt lat="43.26414" lon="2.48462">
        <ele>143.4</ele>
        <time>2019-06-23T07:19:32.000Z</time>
      </trkpt>
      <trkpt lat="43.26412" lon="2.48465">
        <ele>143.4</ele>
        <time>2019-06-23T07:19:33.000Z</time>
      </trkpt>
      <trkpt lat="43.2641" lon="2.48467">
        <ele>143.4</ele>
        <time>2019-06-23T07:19:34.000Z</time>
      </trkpt>
      <trkpt lat="43.26408" lon="2.48469">
        <ele>143.3</ele>
        <time>2019-06-23T07:19:35.000Z</time>
      </trkpt>
      <trkpt lat="43.26406" lon="2.48472">
        <ele>143.3</ele>
        <time>2019-06-23T07:19:36.000Z</time>
      </trkpt>
      <trkpt lat="43.26404" lon="2.48474">
        <ele>143.2</ele>
        <time>2019-06-23T07:19:37.000Z</time>
      </trkpt>
      <trkpt lat="43.26402" lon="2.48476">
        <ele>143.2</ele>
        <time>2019-06-23T07:19:38.000Z</time>
      </trkpt>
      <trkpt lat="43.264" lon="2.48479">
        <ele>143.2</ele>
        <time>2019-06-23T07:19:39.000Z</time>
      </trkpt>
      <trkpt lat="43.26398" lon="2.48481">
        <ele>143.1</ele>
        <time>2019-06-23T07:19:40.000Z</time>
      </trkpt>
      <trkpt lat="43.26396" lon="2.48483">
        <ele>143.1</ele>
        <time>2019-06-23T07:19:41.000Z</time>
      </trkpt>
      <trkpt lat="43.26394" lon="2.48486">
        <ele>143.1</ele>
        <time>2019-06-23T07:19:42.000Z</time>
      </trkpt>
      <trkpt lat="43.26392" lon="2.48488">
        <ele>143</ele>
        <time>2019-06-23T07:19:43.000Z</time>
      </trkpt>
      <trkpt lat="43.26389" lon="2.4849">
        <ele>143</ele>
        <time>2019-06-23T07:19:44.000Z</time>
      </trkpt>
      <trkpt lat="43.26387" lon="2.48492">
        <ele>143</ele>
        <time>2019-06-23T07:19:45.000Z</time>
      </trkpt>
      <trkpt lat="43.26385" lon="2.48495">
        <ele>142.9</ele>
        <time>2019-06-23T07:19:46.000Z</time>
      </trkpt>
      <trkpt lat="43.26383" lon="2.48497">
        <ele>142.9</ele>
        <time>2019-06-23T07:19:47.000Z</time>
      </trkpt>
      <trkpt lat="43.26381" lon="2.48499">
        <ele>142.9</ele>
        <time>2019-06-23T07:19:48.000Z</time>
      </trkpt>
      <trkpt lat="43.26379" lon="2.48502">
        <ele>142.8</ele>
        <time>2019-06-23T07:19:49.000Z</time>
      </trkpt>
      <trkpt lat="43.26377" lon="2.48504">
        <ele>142.8</ele>
        <time>2019-06-23T07:19:50.000Z</time>
      </trkpt>
      <trkpt lat="43.26375" lon="2.48507">
        <ele>142.7</ele>
        <time>2019-06-23T07:19:51.000Z</time>
      </trkpt>
      <trkpt lat="43.26373" lon="2.48509">
        <ele>142.6</ele>
        <time>2019-06-23T07:19:52.000Z</time>
      </trkpt>
      <trkpt lat="43.26371" lon="2.48512">
        <ele>142.6</ele>
        <time>2019-06-23T07:19:53.000Z</time>
      </trkpt>
      <trkpt lat="43.2637" lon="2.48514">
        <ele>142.5</ele>
        <time>2019-06-23T07:19:54.000Z</time>
      </trkpt>
      <trkpt lat="43.26368" lon="2.48517">
        <ele>142.4</ele>
        <time>2019-06-23T07:19:55.000Z</time>
      </trkpt>
      <trkpt lat="43.26366" lon="2.48519">
        <ele>142.3</ele>
        <time>2019-06-23T07:19:56.000Z</time>
      </trkpt>
      <trkpt lat="43.26364" lon="2.48522">
        <ele>142.3</ele>
        <time>2019-06-23T07:19:57.000Z</time>
      </trkpt>
      <trkpt lat="43.26362" lon="2.48524">
        <ele>142.2</ele>
        <time>2019-06-23T07:19:58.000Z</time>
      </trkpt>
      <trkpt lat="43.2636" lon="2.48527">
        <ele>142.1</ele>
        <time>2019-06-23T07:19:59.000Z</time>
      </trkpt>
      <trkpt lat="43.26358" lon="2.48529">
        <ele>142</ele>
        <time>2019-06-23T07:20:00.000Z</time>
      </trkpt>
      <trkpt lat="43.26356" lon="2.48532">
        <ele>141.9</ele>
        <time>2019-06-23T07:20:01.000Z</time>
      </trkpt>
      <trkpt lat="43.26354" lon="2.48534">
        <ele>141.8</ele>
        <time>2019-06-23T07:20:02.000Z</time>
      </trkpt>
      <trkpt lat="43.26352" lon="2.48537">
        <ele>141.7</ele>
        <time>2019-06-23T07:20:03.000Z</time>
      </trkpt>
      <trkpt lat="43.26349" lon="2.48539">
        <ele>141.5</ele>
        <time>2019-06-23T07:20:04.000Z</time>
      </trkpt>
      <trkpt lat="43.26347" lon="2.48541">
        <ele>141.4</ele>
        <time>2019-06-23T07:20:05.000Z</time>
      </trkpt>
      <trkpt lat="43.26345" lon="2.48544">
        <ele>141.3</ele>
        <time>2019-06-23T07:20:06.000Z</time>
      </trkpt>
      <trkpt lat="43.26343" lon="2.48546">
        <ele>141.2</ele>
        <time>2019-06-23T07:20:07.000Z</time>
      </trkpt>
      <trkpt lat="43.26341" lon="2.48548">
        <ele>141.1</ele>
        <time>2019-06-23T07:20:08.000Z</time>
      </trkpt>
      <trkpt lat="43.26339" lon="2.4855">
        <ele>141</ele>
        <time>2019-06-23T07:20:09.000Z</time>
      </trkpt>
      <trkpt lat="43.26337" lon="2.48553">
        <ele>140.8</ele>
        <time>2019-06-23T07:20:10.000Z</time>
      </trkpt>
      <trkpt lat="43.26334" lon="2.48555">
        <ele>140.7</ele>
        <time>2019-06-23T07:20:11.000Z</time>
      </trkpt>
      <trkpt lat="43.26332" lon="2.48557">
        <ele>140.6</ele>
        <time>2019-06-23T07:20:12.000Z</time>
      </trkpt>
      <trkpt lat="43.2633" lon="2.48559">
        <ele>140.5</ele>
        <time>2019-06-23T07:20:13.000Z</time>
      </trkpt>
      <trkpt lat="43.26328" lon="2.48561">
        <ele>140.4</ele>
        <time>2019-06-23T07:20:14.000Z</time>
      </trkpt>
      <trkpt lat="43.26326" lon="2.48563">
        <ele>140.3</ele>
        <time>2019-06-23T07:20:15.000Z</time>
      </trkpt>
      <trkpt lat="43.26323" lon="2.48565">
        <ele>140.3</ele>
        <time>2019-06-23T07:20:16.000Z</time>
      </trkpt>
      <trkpt lat="43.26321" lon="2.48567">
        <ele>140.2</ele>
        <time>2019-06-23T07:20:17.000Z</time>
      </trkpt>
      <trkpt lat="43.26319" lon="2.48569">
        <ele>140.1</ele>
        <time>2019-06-23T07:20:18.000Z</time>
      </trkpt>
      <trkpt lat="43.26317" lon="2.48571">
        <ele>140</ele>
        <time>2019-06-23T07:20:19.000Z</time>
      </trkpt>
      <trkpt lat="43.26314" lon="2.48573">
        <ele>140</ele>
        <time>2019-06-23T07:20:20.000Z</time>
      </trkpt>
      <trkpt lat="43.26312" lon="2.48575">
        <ele>139.9</ele>
        <time>2019-06-23T07:20:21.000Z</time>
      </trkpt>
      <trkpt lat="43.2631" lon="2.48577">
        <ele>139.9</ele>
        <time>2019-06-23T07:20:22.000Z</time>
      </trkpt>
      <trkpt lat="43.26308" lon="2.48579">
        <ele>139.8</ele>
        <time>2019-06-23T07:20:23.000Z</time>
      </trkpt>
      <trkpt lat="43.26305" lon="2.48581">
        <ele>139.8</ele>
        <time>2019-06-23T07:20:24.000Z</time>
      </trkpt>
      <trkpt lat="43.26303" lon="2.48582">
        <ele>139.8</ele>
        <time>2019-06-23T07:20:25.000Z</time>
      </trkpt>
      <trkpt lat="43.26301" lon="2.48584">
        <ele>139.8</ele>
        <time>2019-06-23T07:20:26.000Z</time>
      </trkpt>
      <trkpt lat="43.26299" lon="2.48586">
        <ele>139.8</ele>
        <time>2019-06-23T07:20:27.000Z</time>
      </trkpt>
      <trkpt lat="43.26296" lon="2.48588">
        <ele>139.8</ele>
        <time>2019-06-23T07:20:28.000Z</time>
      </trkpt>
      <trkpt lat="43.26294" lon="2.4859">
        <ele>139.8</ele>
        <time>2019-06-23T07:20:29.000Z</time>
      </trkpt>
      <trkpt lat="43.26292" lon="2.48592">
        <ele>139.8</ele>
        <time>2019-06-23T07:20:30.000Z</time>
      </trkpt>
      <trkpt lat="43.2629" lon="2.48594">
        <ele>139.8</ele>
        <time>2019-06-23T07:20:31.000Z</time>
      </trkpt>
      <trkpt lat="43.26287" lon="2.48596">
        <ele>139.8</ele>
        <time>2019-06-23T07:20:32.000Z</time>
      </trkpt>
      <trkpt lat="43.26285" lon="2.48598">
        <ele>139.8</ele>
        <time>2019-06-23T07:20:33.000Z</time>
      </trkpt>
      <trkpt lat="43.26283" lon="2.486">
        <ele>139.8</ele>
        <time>2019-06-23T07:20:34.000Z</time>
      </trkpt>
      <trkpt lat="43.26281" lon="2.48602">
        <ele>139.8</ele>
        <time>2019-06-23T07:20:35.000Z</time>
      </trkpt>
      <trkpt lat="43.26279" lon="2.48604">
        <ele>139.8</ele>
        <time>2019-06-23T07:20:36.000Z</time>
      </trkpt>
      <trkpt lat="43.26277" lon="2.48606">
        <ele>139.8</ele>
        <time>2019-06-23T07:20:37.000Z</time>
      </trkpt>
      <trkpt lat="43.26274" lon="2.48608">
        <ele>139.8</ele>
        <time>2019-06-23T07:20:38.000Z</time>
      </trkpt>
      <trkpt lat="43.26272" lon="2.48611">
        <ele>139.8</ele>
        <time>2019-06-23T07:20:39.000Z</time>
      </trkpt>
      <trkpt lat="43.2627" lon="2.48613">
        <ele>139.8</ele>
        <time>2019-06-23T07:20:40.000Z</time>
      </trkpt>
      <trkpt lat="43.26268" lon="2.48615">
        <ele>139.8</ele>
        <time>2019-06-23T07:20:41.000Z</time>
      </trkpt>
      <trkpt lat="43.26266" lon="2.48618">
        <ele>139.8</ele>
        <time>2019-06-23T07:20:42.000Z</time>
      </trkpt>
      <trkpt lat="43.26264" lon="2.4862">
        <ele>139.8</ele>
        <time>2019-06-23T07:20:43.000Z</time>
      </trkpt>
      <trkpt lat="43.26262" lon="2.48623">
        <ele>139.8</ele>
        <time>2019-06-23T07:20:44.000Z</time>
      </trkpt>
      <trkpt lat="43.26261" lon="2.48626">
        <ele>139.7</ele>
        <time>2019-06-23T07:20:45.000Z</time>
      </trkpt>
      <trkpt lat="43.26259" lon="2.48629">
        <ele>139.7</ele>
        <time>2019-06-23T07:20:46.000Z</time>
      </trkpt>
      <trkpt lat="43.26257" lon="2.48631">
        <ele>139.7</ele>
        <time>2019-06-23T07:20:47.000Z</time>
      </trkpt>
      <trkpt lat="43.26256" lon="2.48634">
        <ele>139.7</ele>
        <time>2019-06-23T07:20:48.000Z</time>
      </trkpt>
      <trkpt lat="43.26254" lon="2.48635">
        <ele>139.7</ele>
        <time>2019-06-23T07:20:49.000Z</time>
      </trkpt>
      <trkpt lat="43.26253" lon="2.48636">
        <ele>139.7</ele>
        <time>2019-06-23T07:20:50.000Z</time>
      </trkpt>
      <trkpt lat="43.26252" lon="2.48636">
        <ele>139.7</ele>
        <time>2019-06-23T07:20:51.000Z</time>
      </trkpt>
      <trkpt lat="43.26252" lon="2.48637">
        <ele>139.7</ele>
        <time>2019-06-23T07:20:52.000Z</time>
      </trkpt>
      <trkpt lat="43.26251" lon="2.48637">
        <ele>139.7</ele>
        <time>2019-06-23T07:20:53.000Z</time>
      </trkpt>
      <trkpt lat="43.2625" lon="2.48637">
        <ele>139.7</ele>
        <time>2019-06-23T07:20:54.000Z</time>
      </trkpt>
      <trkpt lat="43.2625" lon="2.48637">
        <ele>139.7</ele>
        <time>2019-06-23T07:20:55.000Z</time>
      </trkpt>
      <trkpt lat="43.26249" lon="2.48637">
        <ele>139.7</ele>
        <time>2019-06-23T07:20:56.000Z</time>
      </trkpt>
      <trkpt lat="43.26249" lon="2.48637">
        <ele>139.7</ele>
        <time>2019-06-23T07:20:57.000Z</time>
      </trkpt>
      <trkpt lat="43.26248" lon="2.48636">
        <ele>139.7</ele>
        <time>2019-06-23T07:20:58.000Z</time>
      </trkpt>
      <trkpt lat="43.26247" lon="2.48636">
        <ele>139.7</ele>
        <time>2019-06-23T07:20:59.000Z</time>
      </trkpt>
      <trkpt lat="43.26247" lon="2.48635">
        <ele>139.8</ele>
        <time>2019-06-23T07:21:00.000Z</time>
      </trkpt>
      <trkpt lat="43.26246" lon="2.48635">
        <ele>139.8</ele>
        <time>2019-06-23T07:21:01.000Z</time>
      </trkpt>
      <trkpt lat="43.26245" lon="2.48634">
        <ele>139.8</ele>
        <time>2019-06-23T07:21:02.000Z</time>
      </trkpt>
      <trkpt lat="43.26245" lon="2.48634">
        <ele>139.8</ele>
        <time>2019-06-23T07:21:03.000Z</time>
      </trkpt>
      <trkpt lat="43.26244" lon="2.48633">
        <ele>139.8</ele>
        <time>2019-06-23T07:21:04.000Z</time>
      </trkpt>
      <trkpt lat="43.26244" lon="2.48633">
        <ele>139.8</ele>
        <time>2019-06-23T07:21:05.000Z</time>
      </trkpt>
      <trkpt lat="43.26243" lon="2.48633">
        <ele>139.8</ele>
        <time>2019-06-23T07:21:06.000Z</time>
      </trkpt>
      <trkpt lat="43.26243" lon="2.48633">
        <ele>139.8</ele>
        <time>2019-06-23T07:21:07.000Z</time>
      </trkpt>
      <trkpt lat="43.26242" lon="2.48632">
        <ele>139.8</ele>
        <time>2019-06-23T07:21:08.000Z</time>
      </trkpt>
      <trkpt lat="43.26242" lon="2.48632">
        <ele>139.8</ele>
        <time>2019-06-23T07:21:09.000Z</time>
      </trkpt>
      <trkpt lat="43.26241" lon="2.48632">
        <ele>139.8</ele>
        <time>2019-06-23T07:21:10.000Z</time>
      </trkpt>
      <trkpt lat="43.26241" lon="2.48631">
        <ele>139.8</ele>
        <time>2019-06-23T07:21:11.000Z</time>
      </trkpt>
      <trkpt lat="43.2624" lon="2.48631">
        <ele>139.8</ele>
        <time>2019-06-23T07:21:12.000Z</time>
      </trkpt>
      <trkpt lat="43.26239" lon="2.4863">
        <ele>139.8</ele>
        <time>2019-06-23T07:21:13.000Z</time>
      </trkpt>
      <trkpt lat="43.26239" lon="2.4863">
        <ele>139.8</ele>
        <time>2019-06-23T07:21:14.000Z</time>
      </trkpt>
      <trkpt lat="43.26238" lon="2.4863">
        <ele>139.8</ele>
        <time>2019-06-23T07:21:15.000Z</time>
      </trkpt>
      <trkpt lat="43.26237" lon="2.4863">
        <ele>139.8</ele>
        <time>2019-06-23T07:21:16.000Z</time>
      </trkpt>
      <trkpt lat="43.26236" lon="2.48629">
        <ele>139.8</ele>
        <time>2019-06-23T07:21:17.000Z</time>
      </trkpt>
      <trkpt lat="43.26236" lon="2.48629">
        <ele>139.8</ele>
        <time>2019-06-23T07:21:18.000Z</time>
      </trkpt>
      <trkpt lat="43.26235" lon="2.48629">
        <ele>139.8</ele>
        <time>2019-06-23T07:21:19.000Z</time>
      </trkpt>
      <trkpt lat="43.26234" lon="2.48629">
        <ele>139.8</ele>
        <time>2019-06-23T07:21:20.000Z</time>
      </trkpt>
      <trkpt lat="43.26233" lon="2.48629">
        <ele>139.8</ele>
        <time>2019-06-23T07:21:21.000Z</time>
      </trkpt>
      <trkpt lat="43.26232" lon="2.48629">
        <ele>139.8</ele>
        <time>2019-06-23T07:21:22.000Z</time>
      </trkpt>
      <trkpt lat="43.26231" lon="2.48629">
        <ele>139.8</ele>
        <time>2019-06-23T07:21:23.000Z</time>
      </trkpt>
      <trkpt lat="43.2623" lon="2.48629">
        <ele>139.8</ele>
        <time>2019-06-23T07:21:24.000Z</time>
      </trkpt>
      <trkpt lat="43.26229" lon="2.48629">
        <ele>139.8</ele>
        <time>2019-06-23T07:21:25.000Z</time>
      </trkpt>
      <trkpt lat="43.26228" lon="2.48629">
        <ele>139.8</ele>
        <time>2019-06-23T07:21:26.000Z</time>
      </trkpt>
      <trkpt lat="43.26227" lon="2.48629">
        <ele>139.8</ele>
        <time>2019-06-23T07:21:27.000Z</time>
      </trkpt>
      <trkpt lat="43.26225" lon="2.48629">
        <ele>139.8</ele>
        <time>2019-06-23T07:21:28.000Z</time>
      </trkpt>
      <trkpt lat="43.26224" lon="2.48629">
        <ele>139.8</ele>
        <time>2019-06-23T07:21:29.000Z</time>
      </trkpt>
      <trkpt lat="43.26223" lon="2.48629">
        <ele>139.8</ele>
        <time>2019-06-23T07:21:30.000Z</time>
      </trkpt>
      <trkpt lat="43.26222" lon="2.48629">
        <ele>139.8</ele>
        <time>2019-06-23T07:21:31.000Z</time>
      </trkpt>
      <trkpt lat="43.26221" lon="2.48629">
        <ele>139.8</ele>
        <time>2019-06-23T07:21:32.000Z</time>
      </trkpt>
      <trkpt lat="43.26219" lon="2.48629">
        <ele>139.8</ele>
        <time>2019-06-23T07:21:33.000Z</time>
      </trkpt>
      <trkpt lat="43.26218" lon="2.48629">
        <ele>139.8</ele>
        <time>2019-06-23T07:21:34.000Z</time>
      </trkpt>
      <trkpt lat="43.26217" lon="2.48629">
        <ele>139.8</ele>
        <time>2019-06-23T07:21:35.000Z</time>
      </trkpt>
      <trkpt lat="43.26216" lon="2.48629">
        <ele>139.8</ele>
        <time>2019-06-23T07:21:36.000Z</time>
      </trkpt>
      <trkpt lat="43.26214" lon="2.4863">
        <ele>139.7</ele>
        <time>2019-06-23T07:21:37.000Z</time>
      </trkpt>
      <trkpt lat="43.26213" lon="2.4863">
        <ele>139.7</ele>
        <time>2019-06-23T07:21:38.000Z</time>
      </trkpt>
      <trkpt lat="43.26212" lon="2.4863">
        <ele>139.7</ele>
        <time>2019-06-23T07:21:39.000Z</time>
      </trkpt>
      <trkpt lat="43.26211" lon="2.4863">
        <ele>139.7</ele>
        <time>2019-06-23T07:21:40.000Z</time>
      </trkpt>
      <trkpt lat="43.2621" lon="2.4863">
        <ele>139.7</ele>
        <time>2019-06-23T07:21:41.000Z</time>
      </trkpt>
      <trkpt lat="43.26209" lon="2.4863">
        <ele>139.7</ele>
        <time>2019-06-23T07:21:42.000Z</time>
      </trkpt>
      <trkpt lat="43.26208" lon="2.4863">
        <ele>139.7</ele>
        <time>2019-06-23T07:21:43.000Z</time>
      </trkpt>
      <trkpt lat="43.26207" lon="2.48631">
        <ele>139.7</ele>
        <time>2019-06-23T07:21:44.000Z</time>
      </trkpt>
      <trkpt lat="43.26206" lon="2.48631">
        <ele>139.7</ele>
        <time>2019-06-23T07:21:45.000Z</time>
      </trkpt>
      <trkpt lat="43.26205" lon="2.48631">
        <ele>139.7</ele>
        <time>2019-06-23T07:21:46.000Z</time>
      </trkpt>
      <trkpt lat="43.26204" lon="2.48631">
        <ele>139.7</ele>
        <time>2019-06-23T07:21:47.000Z</time>
      </trkpt>
      <trkpt lat="43.26203" lon="2.48631">
        <ele>139.7</ele>
        <time>2019-06-23T07:21:48.000Z</time>
      </trkpt>
      <trkpt lat="43.26202" lon="2.48631">
        <ele>139.7</ele>
        <time>2019-06-23T07:21:49.000Z</time>
      </trkpt>
      <trkpt lat="43.26201" lon="2.48632">
        <ele>139.7</ele>
        <time>2019-06-23T07:21:50.000Z</time>
      </trkpt>
      <trkpt lat="43.262" lon="2.48632">
        <ele>139.7</ele>
        <time>2019-06-23T07:21:51.000Z</time>
      </trkpt>
      <trkpt lat="43.26199" lon="2.48632">
        <ele>139.7</ele>
        <time>2019-06-23T07:21:52.000Z</time>
      </trkpt>
      <trkpt lat="43.26198" lon="2.48632">
        <ele>139.7</ele>
        <time>2019-06-23T07:21:53.000Z</time>
      </trkpt>
      <trkpt lat="43.26197" lon="2.48632">
        <ele>139.7</ele>
        <time>2019-06-23T07:21:54.000Z</time>
      </trkpt>
      <trkpt lat="43.26197" lon="2.48632">
        <ele>139.7</ele>
        <time>2019-06-23T07:21:55.000Z</time>
      </trkpt>
      <trkpt lat="43.26196" lon="2.48632">
        <ele>139.7</ele>
        <time>2019-06-23T07:21:56.000Z</time>
      </trkpt>
      <trkpt lat="43.26195" lon="2.48633">
        <ele>139.7</ele>
        <time>2019-06-23T07:21:57.000Z</time>
      </trkpt>
      <trkpt lat="43.26194" lon="2.48633">
        <ele>139.7</ele>
        <time>2019-06-23T07:21:58.000Z</time>
      </trkpt>
      <trkpt lat="43.26194" lon="2.48633">
        <ele>139.7</ele>
        <time>2019-06-23T07:21:59.000Z</time>
      </trkpt>
      <trkpt lat="43.26193" lon="2.48633">
        <ele>139.7</ele>
        <time>2019-06-23T07:22:00.000Z</time>
      </trkpt>
      <trkpt lat="43.26192" lon="2.48633">
        <ele>139.7</ele>
        <time>2019-06-23T07:22:01.000Z</time>
      </trkpt>
      <trkpt lat="43.26192" lon="2.48633">
        <ele>139.7</ele>
        <time>2019-06-23T07:22:02.000Z</time>
      </trkpt>
      <trkpt lat="43.26191" lon="2.48633">
        <ele>139.7</ele>
        <time>2019-06-23T07:22:03.000Z</time>
      </trkpt>
      <trkpt lat="43.26191" lon="2.48634">
        <ele>139.7</ele>
        <time>2019-06-23T07:22:04.000Z</time>
      </trkpt>
      <trkpt lat="43.2619" lon="2.48634">
        <ele>139.7</ele>
        <time>2019-06-23T07:22:05.000Z</time>
      </trkpt>
      <trkpt lat="43.26189" lon="2.48634">
        <ele>139.7</ele>
        <time>2019-06-23T07:22:06.000Z</time>
      </trkpt>
      <trkpt lat="43.26189" lon="2.48634">
        <ele>139.7</ele>
        <time>2019-06-23T07:22:07.000Z</time>
      </trkpt>
      <trkpt lat="43.26188" lon="2.48635">
        <ele>139.7</ele>
        <time>2019-06-23T07:22:08.000Z</time>
      </trkpt>
      <trkpt lat="43.26188" lon="2.48635">
        <ele>139.7</ele>
        <time>2019-06-23T07:22:09.000Z</time>
      </trkpt>
      <trkpt lat="43.26187" lon="2.48635">
        <ele>139.7</ele>
        <time>2019-06-23T07:22:10.000Z</time>
      </trkpt>
      <trkpt lat="43.26187" lon="2.48636">
        <ele>139.7</ele>
        <time>2019-06-23T07:22:11.000Z</time>
      </trkpt>
      <trkpt lat="43.26186" lon="2.48636">
        <ele>139.7</ele>
        <time>2019-06-23T07:22:12.000Z</time>
      </trkpt>
      <trkpt lat="43.26185" lon="2.48636">
        <ele>139.7</ele>
        <time>2019-06-23T07:22:13.000Z</time>
      </trkpt>
      <trkpt lat="43.26184" lon="2.48637">
        <ele>139.7</ele>
        <time>2019-06-23T07:22:14.000Z</time>
      </trkpt>
      <trkpt lat="43.26183" lon="2.48637">
        <ele>139.7</ele>
        <time>2019-06-23T07:22:15.000Z</time>
      </trkpt>
      <trkpt lat="43.26182" lon="2.48638">
        <ele>139.7</ele>
        <time>2019-06-23T07:22:16.000Z</time>
      </trkpt>
      <trkpt lat="43.26181" lon="2.48638">
        <ele>139.7</ele>
        <time>2019-06-23T07:22:17.000Z</time>
      </trkpt>
      <trkpt lat="43.2618" lon="2.48638">
        <ele>139.7</ele>
        <time>2019-06-23T07:22:18.000Z</time>
      </trkpt>
      <trkpt lat="43.26179" lon="2.48639">
        <ele>139.7</ele>
        <time>2019-06-23T07:22:19.000Z</time>
      </trkpt>
      <trkpt lat="43.26178" lon="2.48639">
        <ele>139.7</ele>
        <time>2019-06-23T07:22:20.000Z</time>
      </trkpt>
      <trkpt lat="43.26178" lon="2.4864">
        <ele>139.7</ele>
        <time>2019-06-23T07:22:21.000Z</time>
      </trkpt>
      <trkpt lat="43.26177" lon="2.4864">
        <ele>139.7</ele>
        <time>2019-06-23T07:22:22.000Z</time>
      </trkpt>
      <trkpt lat="43.26176" lon="2.48641">
        <ele>139.7</ele>
        <time>2019-06-23T07:22:23.000Z</time>
      </trkpt>
      <trkpt lat="43.26175" lon="2.48642">
        <ele>139.7</ele>
        <time>2019-06-23T07:22:24.000Z</time>
      </trkpt>
      <trkpt lat="43.26175" lon="2.48643">
        <ele>139.7</ele>
        <time>2019-06-23T07:22:25.000Z</time>
      </trkpt>
      <trkpt lat="43.26174" lon="2.48643">
        <ele>139.7</ele>
        <time>2019-06-23T07:22:26.000Z</time>
      </trkpt>
      <trkpt lat="43.26173" lon="2.48644">
        <ele>139.7</ele>
        <time>2019-06-23T07:22:27.000Z</time>
      </trkpt>
      <trkpt lat="43.26172" lon="2.48645">
        <ele>139.7</ele>
        <time>2019-06-23T07:22:28.000Z</time>
      </trkpt>
      <trkpt lat="43.26171" lon="2.48646">
        <ele>139.7</ele>
        <time>2019-06-23T07:22:29.000Z</time>
      </trkpt>
      <trkpt lat="43.2617" lon="2.48647">
        <ele>139.7</ele>
        <time>2019-06-23T07:22:30.000Z</time>
      </trkpt>
      <trkpt lat="43.26169" lon="2.48647">
        <ele>139.8</ele>
        <time>2019-06-23T07:22:31.000Z</time>
      </trkpt>
      <trkpt lat="43.26168" lon="2.48648">
        <ele>139.8</ele>
        <time>2019-06-23T07:22:32.000Z</time>
      </trkpt>
      <trkpt lat="43.26167" lon="2.48648">
        <ele>139.8</ele>
        <time>2019-06-23T07:22:33.000Z</time>
      </trkpt>
      <trkpt lat="43.26166" lon="2.48648">
        <ele>139.7</ele>
        <time>2019-06-23T07:22:34.000Z</time>
      </trkpt>
      <trkpt lat="43.26165" lon="2.48648">
        <ele>139.7</ele>
        <time>2019-06-23T07:22:35.000Z</time>
      </trkpt>
      <trkpt lat="43.26163" lon="2.48648">
        <ele>139.6</ele>
        <time>2019-06-23T07:22:36.000Z</time>
      </trkpt>
      <trkpt lat="43.26162" lon="2.48649">
        <ele>139.6</ele>
        <time>2019-06-23T07:22:37.000Z</time>
      </trkpt>
      <trkpt lat="43.2616" lon="2.4865">
        <ele>139.5</ele>
        <time>2019-06-23T07:22:38.000Z</time>
      </trkpt>
      <trkpt lat="43.26158" lon="2.48651">
        <ele>139.5</ele>
        <time>2019-06-23T07:22:39.000Z</time>
      </trkpt>
      <trkpt lat="43.26156" lon="2.48652">
        <ele>139.4</ele>
        <time>2019-06-23T07:22:40.000Z</time>
      </trkpt>
      <trkpt lat="43.26154" lon="2.48654">
        <ele>139.3</ele>
        <time>2019-06-23T07:22:41.000Z</time>
      </trkpt>
      <trkpt lat="43.26152" lon="2.48655">
        <ele>139.2</ele>
        <time>2019-06-23T07:22:42.000Z</time>
      </trkpt>
      <trkpt lat="43.2615" lon="2.48657">
        <ele>139.2</ele>
        <time>2019-06-23T07:22:43.000Z</time>
      </trkpt>
      <trkpt lat="43.26148" lon="2.48658">
        <ele>139.1</ele>
        <time>2019-06-23T07:22:44.000Z</time>
      </trkpt>
      <trkpt lat="43.26146" lon="2.4866">
        <ele>139</ele>
        <time>2019-06-23T07:22:45.000Z</time>
      </trkpt>
      <trkpt lat="43.26144" lon="2.48661">
        <ele>138.9</ele>
        <time>2019-06-23T07:22:46.000Z</time>
      </trkpt>
      <trkpt lat="43.26142" lon="2.48662">
        <ele>138.8</ele>
        <time>2019-06-23T07:22:47.000Z</time>
      </trkpt>
      <trkpt lat="43.2614" lon="2.48663">
        <ele>138.7</ele>
        <time>2019-06-23T07:22:48.000Z</time>
      </trkpt>
      <trkpt lat="43.26137" lon="2.48664">
        <ele>138.6</ele>
        <time>2019-06-23T07:22:49.000Z</time>
      </trkpt>
      <trkpt lat="43.26135" lon="2.48665">
        <ele>138.5</ele>
        <time>2019-06-23T07:22:50.000Z</time>
      </trkpt>
      <trkpt lat="43.26133" lon="2.48665">
        <ele>138.4</ele>
        <time>2019-06-23T07:22:51.000Z</time>
      </trkpt>
      <trkpt lat="43.26131" lon="2.48666">
        <ele>138.3</ele>
        <time>2019-06-23T07:22:52.000Z</time>
      </trkpt>
      <trkpt lat="43.26129" lon="2.48667">
        <ele>138.2</ele>
        <time>2019-06-23T07:22:53.000Z</time>
      </trkpt>
      <trkpt lat="43.26126" lon="2.48668">
        <ele>138.1</ele>
        <time>2019-06-23T07:22:54.000Z</time>
      </trkpt>
      <trkpt lat="43.26124" lon="2.48668">
        <ele>137.9</ele>
        <time>2019-06-23T07:22:55.000Z</time>
      </trkpt>
      <trkpt lat="43.26122" lon="2.48669">
        <ele>137.8</ele>
        <time>2019-06-23T07:22:56.000Z</time>
      </trkpt>
      <trkpt lat="43.2612" lon="2.4867">
        <ele>137.7</ele>
        <time>2019-06-23T07:22:57.000Z</time>
      </trkpt>
      <trkpt lat="43.26118" lon="2.48671">
        <ele>137.6</ele>
        <time>2019-06-23T07:22:58.000Z</time>
      </trkpt>
      <trkpt lat="43.26116" lon="2.48672">
        <ele>137.5</ele>
        <time>2019-06-23T07:22:59.000Z</time>
      </trkpt>
      <trkpt lat="43.26114" lon="2.48672">
        <ele>137.4</ele>
        <time>2019-06-23T07:23:00.000Z</time>
      </trkpt>
      <trkpt lat="43.26112" lon="2.48673">
        <ele>137.3</ele>
        <time>2019-06-23T07:23:01.000Z</time>
      </trkpt>
      <trkpt lat="43.2611" lon="2.48674">
        <ele>137.2</ele>
        <time>2019-06-23T07:23:02.000Z</time>
      </trkpt>
      <trkpt lat="43.26108" lon="2.48675">
        <ele>137.1</ele>
        <time>2019-06-23T07:23:03.000Z</time>
      </trkpt>
      <trkpt lat="43.26106" lon="2.48676">
        <ele>137</ele>
        <time>2019-06-23T07:23:04.000Z</time>
      </trkpt>
      <trkpt lat="43.26104" lon="2.48677">
        <ele>136.9</ele>
        <time>2019-06-23T07:23:05.000Z</time>
      </trkpt>
      <trkpt lat="43.26102" lon="2.48678">
        <ele>136.8</ele>
        <time>2019-06-23T07:23:06.000Z</time>
      </trkpt>
      <trkpt lat="43.26099" lon="2.48678">
        <ele>136.7</ele>
        <time>2019-06-23T07:23:07.000Z</time>
      </trkpt>
      <trkpt lat="43.26097" lon="2.48679">
        <ele>136.6</ele>
        <time>2019-06-23T07:23:08.000Z</time>
      </trkpt>
      <trkpt lat="43.26095" lon="2.48679">
        <ele>136.5</ele>
        <time>2019-06-23T07:23:09.000Z</time>
      </trkpt>
      <trkpt lat="43.26092" lon="2.48679">
        <ele>136.4</ele>
        <time>2019-06-23T07:23:10.000Z</time>
      </trkpt>
      <trkpt lat="43.2609" lon="2.48678">
        <ele>136.3</ele>
        <time>2019-06-23T07:23:11.000Z</time>
      </trkpt>
      <trkpt lat="43.26088" lon="2.48676">
        <ele>136.2</ele>
        <time>2019-06-23T07:23:12.000Z</time>
      </trkpt>
      <trkpt lat="43.26087" lon="2.48674">
        <ele>136.2</ele>
        <time>2019-06-23T07:23:13.000Z</time>
      </trkpt>
      <trkpt lat="43.26086" lon="2.48672">
        <ele>136.1</ele>
        <time>2019-06-23T07:23:14.000Z</time>
      </trkpt>
      <trkpt lat="43.26086" lon="2.4867">
        <ele>136.1</ele>
        <time>2019-06-23T07:23:15.000Z</time>
      </trkpt>
      <trkpt lat="43.26087" lon="2.48668">
        <ele>136.2</ele>
        <time>2019-06-23T07:23:16.000Z</time>
      </trkpt>
      <trkpt lat="43.26088" lon="2.48666">
        <ele>136.2</ele>
        <time>2019-06-23T07:23:17.000Z</time>
      </trkpt>
      <trkpt lat="43.26089" lon="2.48664">
        <ele>136.3</ele>
        <time>2019-06-23T07:23:18.000Z</time>
      </trkpt>
      <trkpt lat="43.2609" lon="2.48662">
        <ele>136.4</ele>
        <time>2019-06-23T07:23:19.000Z</time>
      </trkpt>
      <trkpt lat="43.26091" lon="2.48659">
        <ele>136.5</ele>
        <time>2019-06-23T07:23:20.000Z</time>
      </trkpt>
      <trkpt lat="43.26093" lon="2.48657">
        <ele>136.6</ele>
        <time>2019-06-23T07:23:21.000Z</time>
      </trkpt>
      <trkpt lat="43.26094" lon="2.48654">
        <ele>136.7</ele>
        <time>2019-06-23T07:23:22.000Z</time>
      </trkpt>
      <trkpt lat="43.26095" lon="2.48652">
        <ele>136.8</ele>
        <time>2019-06-23T07:23:23.000Z</time>
      </trkpt>
      <trkpt lat="43.26096" lon="2.48649">
        <ele>136.9</ele>
        <time>2019-06-23T07:23:24.000Z</time>
      </trkpt>
      <trkpt lat="43.26098" lon="2.48647">
        <ele>137</ele>
        <time>2019-06-23T07:23:25.000Z</time>
      </trkpt>
      <trkpt lat="43.26099" lon="2.48645">
        <ele>137.1</ele>
        <time>2019-06-23T07:23:26.000Z</time>
      </trkpt>
      <trkpt lat="43.26101" lon="2.48643">
        <ele>137.2</ele>
        <time>2019-06-23T07:23:27.000Z</time>
      </trkpt>
      <trkpt lat="43.26103" lon="2.48642">
        <ele>137.3</ele>
        <time>2019-06-23T07:23:28.000Z</time>
      </trkpt>
      <trkpt lat="43.26105" lon="2.4864">
        <ele>137.4</ele>
        <time>2019-06-23T07:23:29.000Z</time>
      </trkpt>
      <trkpt lat="43.26107" lon="2.48639">
        <ele>137.5</ele>
        <time>2019-06-23T07:23:30.000Z</time>
      </trkpt>
      <trkpt lat="43.26109" lon="2.48637">
        <ele>137.6</ele>
        <time>2019-06-23T07:23:31.000Z</time>
      </trkpt>
      <trkpt lat="43.26111" lon="2.48636">
        <ele>137.7</ele>
        <time>2019-06-23T07:23:32.000Z</time>
      </trkpt>
      <trkpt lat="43.26113" lon="2.48634">
        <ele>137.8</ele>
        <time>2019-06-23T07:23:33.000Z</time>
      </trkpt>
      <trkpt lat="43.26115" lon="2.48633">
        <ele>137.9</ele>
        <time>2019-06-23T07:23:34.000Z</time>
      </trkpt>
      <trkpt lat="43.26117" lon="2.48631">
        <ele>137.9</ele>
        <time>2019-06-23T07:23:35.000Z</time>
      </trkpt>
      <trkpt lat="43.26119" lon="2.48629">
        <ele>138</ele>
        <time>2019-06-23T07:23:36.000Z</time>
      </trkpt>
      <trkpt lat="43.26121" lon="2.48628">
        <ele>138.1</ele>
        <time>2019-06-23T07:23:37.000Z</time>
      </trkpt>
      <trkpt lat="43.26123" lon="2.48626">
        <ele>138.2</ele>
        <time>2019-06-23T07:23:38.000Z</time>
      </trkpt>
      <trkpt lat="43.26125" lon="2.48624">
        <ele>138.2</ele>
        <time>2019-06-23T07:23:39.000Z</time>
      </trkpt>
      <trkpt lat="43.26127" lon="2.48623">
        <ele>138.3</ele>
        <time>2019-06-23T07:23:40.000Z</time>
      </trkpt>
      <trkpt lat="43.26129" lon="2.48621">
        <ele>138.4</ele>
        <time>2019-06-23T07:23:41.000Z</time>
      </trkpt>
      <trkpt lat="43.26131" lon="2.4862">
        <ele>138.4</ele>
        <time>2019-06-23T07:23:42.000Z</time>
      </trkpt>
      <trkpt lat="43.26133" lon="2.48618">
        <ele>138.5</ele>
        <time>2019-06-23T07:23:43.000Z</time>
      </trkpt>
      <trkpt lat="43.26135" lon="2.48617">
        <ele>138.6</ele>
        <time>2019-06-23T07:23:44.000Z</time>
      </trkpt>
      <trkpt lat="43.26137" lon="2.48616">
        <ele>138.6</ele>
        <time>2019-06-23T07:23:45.000Z</time>
      </trkpt>
      <trkpt lat="43.2614" lon="2.48614">
        <ele>138.7</ele>
        <time>2019-06-23T07:23:46.000Z</time>
      </trkpt>
      <trkpt lat="43.26142" lon="2.48613">
        <ele>138.7</ele>
        <time>2019-06-23T07:23:47.000Z</time>
      </trkpt>
      <trkpt lat="43.26144" lon="2.48612">
        <ele>138.8</ele>
        <time>2019-06-23T07:23:48.000Z</time>
      </trkpt>
      <trkpt lat="43.26146" lon="2.48611">
        <ele>138.8</ele>
        <time>2019-06-23T07:23:49.000Z</time>
      </trkpt>
      <trkpt lat="43.26148" lon="2.4861">
        <ele>138.9</ele>
        <time>2019-06-23T07:23:50.000Z</time>
      </trkpt>
      <trkpt lat="43.2615" lon="2.48609">
        <ele>138.9</ele>
        <time>2019-06-23T07:23:51.000Z</time>
      </trkpt>
      <trkpt lat="43.26153" lon="2.48608">
        <ele>139</ele>
        <time>2019-06-23T07:23:52.000Z</time>
      </trkpt>
      <trkpt lat="43.26155" lon="2.48607">
        <ele>139</ele>
        <time>2019-06-23T07:23:53.000Z</time>
      </trkpt>
      <trkpt lat="43.26157" lon="2.48606">
        <ele>139.1</ele>
        <time>2019-06-23T07:23:54.000Z</time>
      </trkpt>
      <trkpt lat="43.26159" lon="2.48605">
        <ele>139.1</ele>
        <time>2019-06-23T07:23:55.000Z</time>
      </trkpt>
      <trkpt lat="43.26161" lon="2.48604">
        <ele>139.1</ele>
        <time>2019-06-23T07:23:56.000Z</time>
      </trkpt>
      <trkpt lat="43.26163" lon="2.48602">
        <ele>139.2</ele>
        <time>2019-06-23T07:23:57.000Z</time>
      </trkpt>
      <trkpt lat="43.26165" lon="2.48601">
        <ele>139.2</ele>
        <time>2019-06-23T07:23:58.000Z</time>
      </trkpt>
      <trkpt lat="43.26168" lon="2.486">
        <ele>139.2</ele>
        <time>2019-06-23T07:23:59.000Z</time>
      </trkpt>
      <trkpt lat="43.2617" lon="2.48599">
        <ele>139.2</ele>
        <time>2019-06-23T07:24:00.000Z</time>
      </trkpt>
      <trkpt lat="43.26172" lon="2.48598">
        <ele>139.3</ele>
        <time>2019-06-23T07:24:01.000Z</time>
      </trkpt>
      <trkpt lat="43.26174" lon="2.48596">
        <ele>139.3</ele>
        <time>2019-06-23T07:24:02.000Z</time>
      </trkpt>
      <trkpt lat="43.26176" lon="2.48595">
        <ele>139.3</ele>
        <time>2019-06-23T07:24:03.000Z</time>
      </trkpt>
      <trkpt lat="43.26178" lon="2.48594">
        <ele>139.3</ele>
        <time>2019-06-23T07:24:04.000Z</time>
      </trkpt>
      <trkpt lat="43.2618" lon="2.48593">
        <ele>139.4</ele>
        <time>2019-06-23T07:24:05.000Z</time>
      </trkpt>
      <trkpt lat="43.26182" lon="2.48591">
        <ele>139.4</ele>
        <time>2019-06-23T07:24:06.000Z</time>
      </trkpt>
      <trkpt lat="43.26184" lon="2.4859">
        <ele>139.4</ele>
        <time>2019-06-23T07:24:07.000Z</time>
      </trkpt>
      <trkpt lat="43.26186" lon="2.48588">
        <ele>139.5</ele>
        <time>2019-06-23T07:24:08.000Z</time>
      </trkpt>
      <trkpt lat="43.26188" lon="2.48587">
        <ele>139.5</ele>
        <time>2019-06-23T07:24:09.000Z</time>
      </trkpt>
      <trkpt lat="43.2619" lon="2.48586">
        <ele>139.6</ele>
        <time>2019-06-23T07:24:10.000Z</time>
      </trkpt>
      <trkpt lat="43.26192" lon="2.48584">
        <ele>139.6</ele>
        <time>2019-06-23T07:24:11.000Z</time>
      </trkpt>
      <trkpt lat="43.26194" lon="2.48583">
        <ele>139.7</ele>
        <time>2019-06-23T07:24:12.000Z</time>
      </trkpt>
      <trkpt lat="43.26196" lon="2.48581">
        <ele>139.7</ele>
        <time>2019-06-23T07:24:13.000Z</time>
      </trkpt>
      <trkpt lat="43.26198" lon="2.4858">
        <ele>139.8</ele>
        <time>2019-06-23T07:24:14.000Z</time>
      </trkpt>
      <trkpt lat="43.262" lon="2.48578">
        <ele>139.9</ele>
        <time>2019-06-23T07:24:15.000Z</time>
      </trkpt>
      <trkpt lat="43.26202" lon="2.48576">
        <ele>139.9</ele>
        <time>2019-06-23T07:24:16.000Z</time>
      </trkpt>
      <trkpt lat="43.26204" lon="2.48575">
        <ele>140</ele>
        <time>2019-06-23T07:24:17.000Z</time>
      </trkpt>
      <trkpt lat="43.26206" lon="2.48573">
        <ele>140.1</ele>
        <time>2019-06-23T07:24:18.000Z</time>
      </trkpt>
      <trkpt lat="43.26208" lon="2.48572">
        <ele>140.1</ele>
        <time>2019-06-23T07:24:19.000Z</time>
      </trkpt>
      <trkpt lat="43.2621" lon="2.4857">
        <ele>140.2</ele>
        <time>2019-06-23T07:24:20.000Z</time>
      </trkpt>
      <trkpt lat="43.26211" lon="2.48568">
        <ele>140.3</ele>
        <time>2019-06-23T07:24:21.000Z</time>
      </trkpt>
      <trkpt lat="43.26213" lon="2.48566">
        <ele>140.3</ele>
        <time>2019-06-23T07:24:22.000Z</time>
      </trkpt>
      <trkpt lat="43.26215" lon="2.48565">
        <ele>140.4</ele>
        <time>2019-06-23T07:24:23.000Z</time>
      </trkpt>
      <trkpt lat="43.26217" lon="2.48563">
        <ele>140.5</ele>
        <time>2019-06-23T07:24:24.000Z</time>
      </trkpt>
      <trkpt lat="43.26219" lon="2.48561">
        <ele>140.5</ele>
        <time>2019-06-23T07:24:25.000Z</time>
      </trkpt>
      <trkpt lat="43.26221" lon="2.4856">
        <ele>140.6</ele>
        <time>2019-06-23T07:24:26.000Z</time>
      </trkpt>
      <trkpt lat="43.26223" lon="2.48558">
        <ele>140.7</ele>
        <time>2019-06-23T07:24:27.000Z</time>
      </trkpt>
      <trkpt lat="43.26225" lon="2.48556">
        <ele>140.7</ele>
        <time>2019-06-23T07:24:28.000Z</time>
      </trkpt>
      <trkpt lat="43.26227" lon="2.48554">
        <ele>140.8</ele>
        <time>2019-06-23T07:24:29.000Z</time>
      </trkpt>
      <trkpt lat="43.26229" lon="2.48552">
        <ele>140.9</ele>
        <time>2019-06-23T07:24:30.000Z</time>
      </trkpt>
      <trkpt lat="43.2623" lon="2.48551">
        <ele>140.9</ele>
        <time>2019-06-23T07:24:31.000Z</time>
      </trkpt>
      <trkpt lat="43.26232" lon="2.48549">
        <ele>141</ele>
        <time>2019-06-23T07:24:32.000Z</time>
      </trkpt>
      <trkpt lat="43.26234" lon="2.48547">
        <ele>141</ele>
        <time>2019-06-23T07:24:33.000Z</time>
      </trkpt>
      <trkpt lat="43.26236" lon="2.48545">
        <ele>141.1</ele>
        <time>2019-06-23T07:24:34.000Z</time>
      </trkpt>
      <trkpt lat="43.26237" lon="2.48543">
        <ele>141.2</ele>
        <time>2019-06-23T07:24:35.000Z</time>
      </trkpt>
      <trkpt lat="43.26239" lon="2.48542">
        <ele>141.2</ele>
        <time>2019-06-23T07:24:36.000Z</time>
      </trkpt>
      <trkpt lat="43.26241" lon="2.4854">
        <ele>141.3</ele>
        <time>2019-06-23T07:24:37.000Z</time>
      </trkpt>
      <trkpt lat="43.26243" lon="2.48538">
        <ele>141.4</ele>
        <time>2019-06-23T07:24:38.000Z</time>
      </trkpt>
      <trkpt lat="43.26245" lon="2.48536">
        <ele>141.4</ele>
        <time>2019-06-23T07:24:39.000Z</time>
      </trkpt>
      <trkpt lat="43.26246" lon="2.48535">
        <ele>141.5</ele>
        <time>2019-06-23T07:24:40.000Z</time>
      </trkpt>
      <trkpt lat="43.26248" lon="2.48533">
        <ele>141.6</ele>
        <time>2019-06-23T07:24:41.000Z</time>
      </trkpt>
      <trkpt lat="43.2625" lon="2.48531">
        <ele>141.6</ele>
        <time>2019-06-23T07:24:42.000Z</time>
      </trkpt>
      <trkpt lat="43.26252" lon="2.4853">
        <ele>141.7</ele>
        <time>2019-06-23T07:24:43.000Z</time>
      </trkpt>
      <trkpt lat="43.26254" lon="2.48528">
        <ele>141.7</ele>
        <time>2019-06-23T07:24:44.000Z</time>
      </trkpt>
      <trkpt lat="43.26255" lon="2.48527">
        <ele>141.7</ele>
        <time>2019-06-23T07:24:45.000Z</time>
      </trkpt>
      <trkpt lat="43.26257" lon="2.48525">
        <ele>141.8</ele>
        <time>2019-06-23T07:24:46.000Z</time>
      </trkpt>
      <trkpt lat="43.26259" lon="2.48523">
        <ele>141.8</ele>
        <time>2019-06-23T07:24:47.000Z</time>
      </trkpt>
      <trkpt lat="43.26261" lon="2.48522">
        <ele>141.9</ele>
        <time>2019-06-23T07:24:48.000Z</time>
      </trkpt>
      <trkpt lat="43.26263" lon="2.4852">
        <ele>141.9</ele>
        <time>2019-06-23T07:24:49.000Z</time>
      </trkpt>
      <trkpt lat="43.26265" lon="2.48519">
        <ele>142</ele>
        <time>2019-06-23T07:24:50.000Z</time>
      </trkpt>
      <trkpt lat="43.26267" lon="2.48517">
        <ele>142</ele>
        <time>2019-06-23T07:24:51.000Z</time>
      </trkpt>
      <trkpt lat="43.26268" lon="2.48516">
        <ele>142.1</ele>
        <time>2019-06-23T07:24:52.000Z</time>
      </trkpt>
      <trkpt lat="43.2627" lon="2.48514">
        <ele>142.2</ele>
        <time>2019-06-23T07:24:53.000Z</time>
      </trkpt>
      <trkpt lat="43.26272" lon="2.48512">
        <ele>142.2</ele>
        <time>2019-06-23T07:24:54.000Z</time>
      </trkpt>
      <trkpt lat="43.26274" lon="2.48511">
        <ele>142.3</ele>
        <time>2019-06-23T07:24:55.000Z</time>
      </trkpt>
      <trkpt lat="43.26276" lon="2.48509">
        <ele>142.4</ele>
        <time>2019-06-23T07:24:56.000Z</time>
      </trkpt>
      <trkpt lat="43.26278" lon="2.48507">
        <ele>142.5</ele>
        <time>2019-06-23T07:24:57.000Z</time>
      </trkpt>
      <trkpt lat="43.2628" lon="2.48506">
        <ele>142.6</ele>
        <time>2019-06-23T07:24:58.000Z</time>
      </trkpt>
      <trkpt lat="43.26282" lon="2.48504">
        <ele>142.6</ele>
        <time>2019-06-23T07:24:59.000Z</time>
      </trkpt>
      <trkpt lat="43.26284" lon="2.48502">
        <ele>142.7</ele>
        <time>2019-06-23T07:25:00.000Z</time>
      </trkpt>
      <trkpt lat="43.26286" lon="2.48501">
        <ele>142.8</ele>
        <time>2019-06-23T07:25:01.000Z</time>
      </trkpt>
      <trkpt lat="43.26288" lon="2.48499">
        <ele>142.9</ele>
        <time>2019-06-23T07:25:02.000Z</time>
      </trkpt>
      <trkpt lat="43.2629" lon="2.48498">
        <ele>143</ele>
        <time>2019-06-23T07:25:03.000Z</time>
      </trkpt>
      <trkpt lat="43.26292" lon="2.48497">
        <ele>143.1</ele>
        <time>2019-06-23T07:25:04.000Z</time>
      </trkpt>
      <trkpt lat="43.26294" lon="2.48495">
        <ele>143.2</ele>
        <time>2019-06-23T07:25:05.000Z</time>
      </trkpt>
      <trkpt lat="43.26296" lon="2.48493">
        <ele>143.3</ele>
        <time>2019-06-23T07:25:06.000Z</time>
      </trkpt>
      <trkpt lat="43.26298" lon="2.48491">
        <ele>143.4</ele>
        <time>2019-06-23T07:25:07.000Z</time>
      </trkpt>
      <trkpt lat="43.263" lon="2.48489">
        <ele>143.5</ele>
        <time>2019-06-23T07:25:08.000Z</time>
      </trkpt>
      <trkpt lat="43.26302" lon="2.48486">
        <ele>143.6</ele>
        <time>2019-06-23T07:25:09.000Z</time>
      </trkpt>
      <trkpt lat="43.26303" lon="2.48484">
        <ele>143.7</ele>
        <time>2019-06-23T07:25:10.000Z</time>
      </trkpt>
      <trkpt lat="43.26305" lon="2.48482">
        <ele>143.8</ele>
        <time>2019-06-23T07:25:11.000Z</time>
      </trkpt>
      <trkpt lat="43.26307" lon="2.48479">
        <ele>144</ele>
        <time>2019-06-23T07:25:12.000Z</time>
      </trkpt>
      <trkpt lat="43.26308" lon="2.48477">
        <ele>144.1</ele>
        <time>2019-06-23T07:25:13.000Z</time>
      </trkpt>
      <trkpt lat="43.2631" lon="2.48474">
        <ele>144.2</ele>
        <time>2019-06-23T07:25:14.000Z</time>
      </trkpt>
      <trkpt lat="43.26311" lon="2.48472">
        <ele>144.3</ele>
        <time>2019-06-23T07:25:15.000Z</time>
      </trkpt>
      <trkpt lat="43.26313" lon="2.4847">
        <ele>144.4</ele>
        <time>2019-06-23T07:25:16.000Z</time>
      </trkpt>
      <trkpt lat="43.26314" lon="2.48468">
        <ele>144.5</ele>
        <time>2019-06-23T07:25:17.000Z</time>
      </trkpt>
      <trkpt lat="43.26316" lon="2.48466">
        <ele>144.6</ele>
        <time>2019-06-23T07:25:18.000Z</time>
      </trkpt>
      <trkpt lat="43.26317" lon="2.48464">
        <ele>144.7</ele>
        <time>2019-06-23T07:25:19.000Z</time>
      </trkpt>
      <trkpt lat="43.26319" lon="2.48462">
        <ele>144.8</ele>
        <time>2019-06-23T07:25:20.000Z</time>
      </trkpt>
      <trkpt lat="43.2632" lon="2.48461">
        <ele>145</ele>
        <time>2019-06-23T07:25:21.000Z</time>
      </trkpt>
      <trkpt lat="43.26322" lon="2.48459">
        <ele>145.1</ele>
        <time>2019-06-23T07:25:22.000Z</time>
      </trkpt>
      <trkpt lat="43.26323" lon="2.48457">
        <ele>145.2</ele>
        <time>2019-06-23T07:25:23.000Z</time>
      </trkpt>
      <trkpt lat="43.26325" lon="2.48456">
        <ele>145.3</ele>
        <time>2019-06-23T07:25:24.000Z</time>
      </trkpt>
      <trkpt lat="43.26326" lon="2.48454">
        <ele>145.4</ele>
        <time>2019-06-23T07:25:25.000Z</time>
      </trkpt>
      <trkpt lat="43.26328" lon="2.48452">
        <ele>145.5</ele>
        <time>2019-06-23T07:25:26.000Z</time>
      </trkpt>
      <trkpt lat="43.26329" lon="2.48451">
        <ele>145.6</ele>
        <time>2019-06-23T07:25:27.000Z</time>
      </trkpt>
      <trkpt lat="43.2633" lon="2.48449">
        <ele>145.7</ele>
        <time>2019-06-23T07:25:28.000Z</time>
      </trkpt>
      <trkpt lat="43.26331" lon="2.48446">
        <ele>145.8</ele>
        <time>2019-06-23T07:25:29.000Z</time>
      </trkpt>
      <trkpt lat="43.26332" lon="2.48444">
        <ele>146</ele>
        <time>2019-06-23T07:25:30.000Z</time>
      </trkpt>
      <trkpt lat="43.26333" lon="2.48441">
        <ele>146.1</ele>
        <time>2019-06-23T07:25:31.000Z</time>
      </trkpt>
      <trkpt lat="43.26334" lon="2.48438">
        <ele>146.2</ele>
        <time>2019-06-23T07:25:32.000Z</time>
      </trkpt>
      <trkpt lat="43.26335" lon="2.48435">
        <ele>146.3</ele>
        <time>2019-06-23T07:25:33.000Z</time>
      </trkpt>
      <trkpt lat="43.26336" lon="2.48433">
        <ele>146.4</ele>
        <time>2019-06-23T07:25:34.000Z</time>
      </trkpt>
      <trkpt lat="43.26337" lon="2.4843">
        <ele>146.4</ele>
        <time>2019-06-23T07:25:35.000Z</time>
      </trkpt>
      <trkpt lat="43.26338" lon="2.48429">
        <ele>146.5</ele>
        <time>2019-06-23T07:25:36.000Z</time>
      </trkpt>
      <trkpt lat="43.26338" lon="2.48427">
        <ele>146.5</ele>
        <time>2019-06-23T07:25:37.000Z</time>
      </trkpt>
      <trkpt lat="43.26339" lon="2.48427">
        <ele>146.5</ele>
        <time>2019-06-23T07:25:38.000Z</time>
      </trkpt>
      <trkpt lat="43.26339" lon="2.48426">
        <ele>146.5</ele>
        <time>2019-06-23T07:25:39.000Z</time>
      </trkpt>
      <trkpt lat="43.2634" lon="2.48425">
        <ele>146.6</ele>
        <time>2019-06-23T07:25:40.000Z</time>
      </trkpt>
      <trkpt lat="43.26341" lon="2.48423">
        <ele>146.6</ele>
        <time>2019-06-23T07:25:41.000Z</time>
      </trkpt>
      <trkpt lat="43.26342" lon="2.48421">
        <ele>146.6</ele>
        <time>2019-06-23T07:25:42.000Z</time>
      </trkpt>
      <trkpt lat="43.26344" lon="2.48419">
        <ele>146.7</ele>
        <time>2019-06-23T07:25:43.000Z</time>
      </trkpt>
      <trkpt lat="43.26345" lon="2.48417">
        <ele>146.7</ele>
        <time>2019-06-23T07:25:44.000Z</time>
      </trkpt>
      <trkpt lat="43.26346" lon="2.48414">
        <ele>146.8</ele>
        <time>2019-06-23T07:25:45.000Z</time>
      </trkpt>
      <trkpt lat="43.26348" lon="2.48411">
        <ele>146.8</ele>
        <time>2019-06-23T07:25:46.000Z</time>
      </trkpt>
      <trkpt lat="43.26349" lon="2.48408">
        <ele>146.9</ele>
        <time>2019-06-23T07:25:47.000Z</time>
      </trkpt>
      <trkpt lat="43.2635" lon="2.48405">
        <ele>147</ele>
        <time>2019-06-23T07:25:48.000Z</time>
      </trkpt>
      <trkpt lat="43.26352" lon="2.48403">
        <ele>147.1</ele>
        <time>2019-06-23T07:25:49.000Z</time>
      </trkpt>
      <trkpt lat="43.26353" lon="2.484">
        <ele>147.1</ele>
        <time>2019-06-23T07:25:50.000Z</time>
      </trkpt>
      <trkpt lat="43.26354" lon="2.48397">
        <ele>147.2</ele>
        <time>2019-06-23T07:25:51.000Z</time>
      </trkpt>
      <trkpt lat="43.26355" lon="2.48394">
        <ele>147.3</ele>
        <time>2019-06-23T07:25:52.000Z</time>
      </trkpt>
      <trkpt lat="43.26356" lon="2.48392">
        <ele>147.4</ele>
        <time>2019-06-23T07:25:53.000Z</time>
      </trkpt>
      <trkpt lat="43.26357" lon="2.48389">
        <ele>147.5</ele>
        <time>2019-06-23T07:25:54.000Z</time>
      </trkpt>
      <trkpt lat="43.26359" lon="2.48387">
        <ele>147.6</ele>
        <time>2019-06-23T07:25:55.000Z</time>
      </trkpt>
      <trkpt lat="43.2636" lon="2.48384">
        <ele>147.6</ele>
        <time>2019-06-23T07:25:56.000Z</time>
      </trkpt>
      <trkpt lat="43.26361" lon="2.48382">
        <ele>147.7</ele>
        <time>2019-06-23T07:25:57.000Z</time>
      </trkpt>
      <trkpt lat="43.26362" lon="2.48379">
        <ele>147.8</ele>
        <time>2019-06-23T07:25:58.000Z</time>
      </trkpt>
      <trkpt lat="43.26363" lon="2.48377">
        <ele>147.9</ele>
        <time>2019-06-23T07:25:59.000Z</time>
      </trkpt>
      <trkpt lat="43.26365" lon="2.48374">
        <ele>148</ele>
        <time>2019-06-23T07:26:00.000Z</time>
      </trkpt>
      <trkpt lat="43.26366" lon="2.48371">
        <ele>148.2</ele>
        <time>2019-06-23T07:26:01.000Z</time>
      </trkpt>
      <trkpt lat="43.26367" lon="2.48369">
        <ele>148.3</ele>
        <time>2019-06-23T07:26:02.000Z</time>
      </trkpt>
      <trkpt lat="43.26368" lon="2.48366">
        <ele>148.4</ele>
        <time>2019-06-23T07:26:03.000Z</time>
      </trkpt>
      <trkpt lat="43.26369" lon="2.48363">
        <ele>148.5</ele>
        <time>2019-06-23T07:26:04.000Z</time>
      </trkpt>
      <trkpt lat="43.2637" lon="2.4836">
        <ele>148.7</ele>
        <time>2019-06-23T07:26:05.000Z</time>
      </trkpt>
      <trkpt lat="43.26372" lon="2.48357">
        <ele>148.8</ele>
        <time>2019-06-23T07:26:06.000Z</time>
      </trkpt>
      <trkpt lat="43.26373" lon="2.48354">
        <ele>149</ele>
        <time>2019-06-23T07:26:07.000Z</time>
      </trkpt>
      <trkpt lat="43.26374" lon="2.48352">
        <ele>149.1</ele>
        <time>2019-06-23T07:26:08.000Z</time>
      </trkpt>
      <trkpt lat="43.26375" lon="2.4835">
        <ele>149.2</ele>
        <time>2019-06-23T07:26:09.000Z</time>
      </trkpt>
      <trkpt lat="43.26377" lon="2.48347">
        <ele>149.4</ele>
        <time>2019-06-23T07:26:10.000Z</time>
      </trkpt>
      <trkpt lat="43.26378" lon="2.48345">
        <ele>149.5</ele>
        <time>2019-06-23T07:26:11.000Z</time>
      </trkpt>
      <trkpt lat="43.26379" lon="2.48343">
        <ele>149.6</ele>
        <time>2019-06-23T07:26:12.000Z</time>
      </trkpt>
      <trkpt lat="43.26381" lon="2.48341">
        <ele>149.8</ele>
        <time>2019-06-23T07:26:13.000Z</time>
      </trkpt>
      <trkpt lat="43.26382" lon="2.48339">
        <ele>149.9</ele>
        <time>2019-06-23T07:26:14.000Z</time>
      </trkpt>
      <trkpt lat="43.26383" lon="2.48336">
        <ele>150</ele>
        <time>2019-06-23T07:26:15.000Z</time>
      </trkpt>
      <trkpt lat="43.26385" lon="2.48334">
        <ele>150.2</ele>
        <time>2019-06-23T07:26:16.000Z</time>
      </trkpt>
      <trkpt lat="43.26386" lon="2.48332">
        <ele>150.3</ele>
        <time>2019-06-23T07:26:17.000Z</time>
      </trkpt>
      <trkpt lat="43.26387" lon="2.4833">
        <ele>150.5</ele>
        <time>2019-06-23T07:26:18.000Z</time>
      </trkpt>
      <trkpt lat="43.26388" lon="2.48327">
        <ele>150.7</ele>
        <time>2019-06-23T07:26:19.000Z</time>
      </trkpt>
      <trkpt lat="43.2639" lon="2.48325">
        <ele>150.8</ele>
        <time>2019-06-23T07:26:20.000Z</time>
      </trkpt>
      <trkpt lat="43.26391" lon="2.48323">
        <ele>151</ele>
        <time>2019-06-23T07:26:21.000Z</time>
      </trkpt>
      <trkpt lat="43.26392" lon="2.4832">
        <ele>151.1</ele>
        <time>2019-06-23T07:26:22.000Z</time>
      </trkpt>
      <trkpt lat="43.26393" lon="2.48318">
        <ele>151.3</ele>
        <time>2019-06-23T07:26:23.000Z</time>
      </trkpt>
      <trkpt lat="43.26394" lon="2.48316">
        <ele>151.4</ele>
        <time>2019-06-23T07:26:24.000Z</time>
      </trkpt>
      <trkpt lat="43.26395" lon="2.48314">
        <ele>151.6</ele>
        <time>2019-06-23T07:26:25.000Z</time>
      </trkpt>
      <trkpt lat="43.26395" lon="2.48311">
        <ele>151.7</ele>
        <time>2019-06-23T07:26:26.000Z</time>
      </trkpt>
      <trkpt lat="43.26396" lon="2.48309">
        <ele>151.9</ele>
        <time>2019-06-23T07:26:27.000Z</time>
      </trkpt>
      <trkpt lat="43.26397" lon="2.48307">
        <ele>152</ele>
        <time>2019-06-23T07:26:28.000Z</time>
      </trkpt>
      <trkpt lat="43.26397" lon="2.48306">
        <ele>152.1</ele>
        <time>2019-06-23T07:26:29.000Z</time>
      </trkpt>
      <trkpt lat="43.26398" lon="2.48304">
        <ele>152.2</ele>
        <time>2019-06-23T07:26:30.000Z</time>
      </trkpt>
      <trkpt lat="43.26398" lon="2.48302">
        <ele>152.4</ele>
        <time>2019-06-23T07:26:31.000Z</time>
      </trkpt>
      <trkpt lat="43.26399" lon="2.48301">
        <ele>152.4</ele>
        <time>2019-06-23T07:26:32.000Z</time>
      </trkpt>
      <trkpt lat="43.26399" lon="2.48299">
        <ele>152.5</ele>
        <time>2019-06-23T07:26:33.000Z</time>
      </trkpt>
      <trkpt lat="43.26399" lon="2.48298">
        <ele>152.6</ele>
        <time>2019-06-23T07:26:34.000Z</time>
      </trkpt>
      <trkpt lat="43.26399" lon="2.48297">
        <ele>152.7</ele>
        <time>2019-06-23T07:26:35.000Z</time>
      </trkpt>
      <trkpt lat="43.264" lon="2.48296">
        <ele>152.7</ele>
        <time>2019-06-23T07:26:36.000Z</time>
      </trkpt>
      <trkpt lat="43.264" lon="2.48295">
        <ele>152.8</ele>
        <time>2019-06-23T07:26:37.000Z</time>
      </trkpt>
      <trkpt lat="43.264" lon="2.48294">
        <ele>152.8</ele>
        <time>2019-06-23T07:26:38.000Z</time>
      </trkpt>
      <trkpt lat="43.264" lon="2.48294">
        <ele>152.9</ele>
        <time>2019-06-23T07:26:39.000Z</time>
      </trkpt>
      <trkpt lat="43.264" lon="2.48293">
        <ele>152.9</ele>
        <time>2019-06-23T07:26:40.000Z</time>
      </trkpt>
      <trkpt lat="43.264" lon="2.48293">
        <ele>152.9</ele>
        <time>2019-06-23T07:26:41.000Z</time>
      </trkpt>
      <trkpt lat="43.264" lon="2.48293">
        <ele>152.9</ele>
        <time>2019-06-23T07:26:42.000Z</time>
      </trkpt>
      <trkpt lat="43.264" lon="2.48293">
        <ele>152.9</ele>
        <time>2019-06-23T07:26:43.000Z</time>
      </trkpt>
      <trkpt lat="43.264" lon="2.48293">
        <ele>153</ele>
        <time>2019-06-23T07:26:44.000Z</time>
      </trkpt>
      <trkpt lat="43.264" lon="2.48293">
        <ele>153</ele>
        <time>2019-06-23T07:26:45.000Z</time>
      </trkpt>
      <trkpt lat="43.264" lon="2.48293">
        <ele>153</ele>
        <time>2019-06-23T07:26:46.000Z</time>
      </trkpt>
      <trkpt lat="43.264" lon="2.48293">
        <ele>153</ele>
        <time>2019-06-23T07:26:47.000Z</time>
      </trkpt>
      <trkpt lat="43.264" lon="2.48293">
        <ele>153</ele>
        <time>2019-06-23T07:26:48.000Z</time>
      </trkpt>
      <trkpt lat="43.264" lon="2.48293">
        <ele>153</ele>
        <time>2019-06-23T07:26:49.000Z</time>
      </trkpt>
      <trkpt lat="43.264" lon="2.48293">
        <ele>153</ele>
        <time>2019-06-23T07:26:50.000Z</time>
      </trkpt>
      <trkpt lat="43.264" lon="2.48293">
        <ele>153</ele>
        <time>2019-06-23T07:26:51.000Z</time>
      </trkpt>
      <trkpt lat="43.264" lon="2.48293">
        <ele>153</ele>
        <time>2019-06-23T07:26:52.000Z</time>
      </trkpt>
      <trkpt lat="43.264" lon="2.48293">
        <ele>153</ele>
        <time>2019-06-23T07:26:53.000Z</time>
      </trkpt>
      <trkpt lat="43.264" lon="2.48293">
        <ele>153</ele>
        <time>2019-06-23T07:26:54.000Z</time>
      </trkpt>
      <trkpt lat="43.264" lon="2.48293">
        <ele>153</ele>
        <time>2019-06-23T07:26:55.000Z</time>
      </trkpt>
      <trkpt lat="43.264" lon="2.48293">
        <ele>152.9</ele>
        <time>2019-06-23T07:26:56.000Z</time>
      </trkpt>
      <trkpt lat="43.264" lon="2.48293">
        <ele>152.9</ele>
        <time>2019-06-23T07:26:57.000Z</time>
      </trkpt>
      <trkpt lat="43.264" lon="2.48293">
        <ele>152.9</ele>
        <time>2019-06-23T07:26:58.000Z</time>
      </trkpt>
      <trkpt lat="43.264" lon="2.48293">
        <ele>152.9</ele>
        <time>2019-06-23T07:26:59.000Z</time>
      </trkpt>
      <trkpt lat="43.264" lon="2.48293">
        <ele>152.9</ele>
        <time>2019-06-23T07:27:00.000Z</time>
      </trkpt>
      <trkpt lat="43.264" lon="2.48293">
        <ele>152.9</ele>
        <time>2019-06-23T07:27:01.000Z</time>
      </trkpt>
      <trkpt lat="43.264" lon="2.48293">
        <ele>152.9</ele>
        <time>2019-06-23T07:27:02.000Z</time>
      </trkpt>
      <trkpt lat="43.264" lon="2.48293">
        <ele>152.9</ele>
        <time>2019-06-23T07:27:03.000Z</time>
      </trkpt>
      <trkpt lat="43.264" lon="2.48293">
        <ele>152.9</ele>
        <time>2019-06-23T07:27:04.000Z</time>
      </trkpt>
      <trkpt lat="43.264" lon="2.48293">
        <ele>152.9</ele>
        <time>2019-06-23T07:27:05.000Z</time>
      </trkpt>
      <trkpt lat="43.264" lon="2.48293">
        <ele>152.9</ele>
        <time>2019-06-23T07:27:06.000Z</time>
      </trkpt>
      <trkpt lat="43.264" lon="2.48293">
        <ele>152.9</ele>
        <time>2019-06-23T07:27:07.000Z</time>
      </trkpt>
      <trkpt lat="43.264" lon="2.48293">
        <ele>152.9</ele>
        <time>2019-06-23T07:27:08.000Z</time>
      </trkpt>
      <trkpt lat="43.264" lon="2.48293">
        <ele>152.9</ele>
        <time>2019-06-23T07:27:09.000Z</time>
      </trkpt>
      <trkpt lat="43.264" lon="2.48293">
        <ele>152.9</ele>
        <time>2019-06-23T07:27:10.000Z</time>
      </trkpt>
      <trkpt lat="43.264" lon="2.48293">
        <ele>152.9</ele>
        <time>2019-06-23T07:27:11.000Z</time>
      </trkpt>
      <trkpt lat="43.264" lon="2.48293">
        <ele>152.9</ele>
        <time>2019-06-23T07:27:12.000Z</time>
      </trkpt>
      <trkpt lat="43.264" lon="2.48293">
        <ele>152.9</ele>
        <time>2019-06-23T07:27:13.000Z</time>
      </trkpt>
      <trkpt lat="43.264" lon="2.48293">
        <ele>152.9</ele>
        <time>2019-06-23T07:27:14.000Z</time>
      </trkpt>
      <trkpt lat="43.264" lon="2.48293">
        <ele>152.9</ele>
        <time>2019-06-23T07:27:15.000Z</time>
      </trkpt>
      <trkpt lat="43.264" lon="2.48293">
        <ele>152.9</ele>
        <time>2019-06-23T07:27:16.000Z</time>
      </trkpt>
      <trkpt lat="43.264" lon="2.48293">
        <ele>152.9</ele>
        <time>2019-06-23T07:27:17.000Z</time>
      </trkpt>
      <trkpt lat="43.264" lon="2.48293">
        <ele>152.9</ele>
        <time>2019-06-23T07:27:18.000Z</time>
      </trkpt>
      <trkpt lat="43.264" lon="2.48293">
        <ele>152.9</ele>
        <time>2019-06-23T07:27:19.000Z</time>
      </trkpt>
      <trkpt lat="43.264" lon="2.48293">
        <ele>152.9</ele>
        <time>2019-06-23T07:27:20.000Z</time>
      </trkpt>
      <trkpt lat="43.264" lon="2.48293">
        <ele>152.9</ele>
        <time>2019-06-23T07:27:21.000Z</time>
      </trkpt>
      <trkpt lat="43.264" lon="2.48293">
        <ele>152.9</ele>
        <time>2019-06-23T07:27:22.000Z</time>
      </trkpt>
      <trkpt lat="43.264" lon="2.48293">
        <ele>152.9</ele>
        <time>2019-06-23T07:27:23.000Z</time>
      </trkpt>
      <trkpt lat="43.264" lon="2.48293">
        <ele>152.9</ele>
        <time>2019-06-23T07:27:24.000Z</time>
      </trkpt>
      <trkpt lat="43.264" lon="2.48293">
        <ele>152.9</ele>
        <time>2019-06-23T07:27:25.000Z</time>
      </trkpt>
      <trkpt lat="43.264" lon="2.48293">
        <ele>152.9</ele>
        <time>2019-06-23T07:27:26.000Z</time>
      </trkpt>
      <trkpt lat="43.264" lon="2.48293">
        <ele>152.9</ele>
        <time>2019-06-23T07:27:27.000Z</time>
      </trkpt>
      <trkpt lat="43.264" lon="2.48293">
        <ele>152.9</ele>
        <time>2019-06-23T07:27:28.000Z</time>
      </trkpt>
      <trkpt lat="43.264" lon="2.48293">
        <ele>152.9</ele>
        <time>2019-06-23T07:27:29.000Z</time>
      </trkpt>
      <trkpt lat="43.264" lon="2.48293">
        <ele>152.9</ele>
        <time>2019-06-23T07:27:30.000Z</time>
      </trkpt>
      <trkpt lat="43.264" lon="2.48293">
        <ele>152.9</ele>
        <time>2019-06-23T07:27:31.000Z</time>
      </trkpt>
      <trkpt lat="43.264" lon="2.48293">
        <ele>152.9</ele>
        <time>2019-06-23T07:27:32.000Z</time>
      </trkpt>
      <trkpt lat="43.264" lon="2.48293">
        <ele>152.9</ele>
        <time>2019-06-23T07:27:33.000Z</time>
      </trkpt>
      <trkpt lat="43.264" lon="2.48293">
        <ele>152.9</ele>
        <time>2019-06-23T07:27:34.000Z</time>
      </trkpt>
      <trkpt lat="43.264" lon="2.48293">
        <ele>152.9</ele>
        <time>2019-06-23T07:27:35.000Z</time>
      </trkpt>
      <trkpt lat="43.264" lon="2.48293">
        <ele>152.9</ele>
        <time>2019-06-23T07:27:36.000Z</time>
      </trkpt>
      <trkpt lat="43.264" lon="2.48293">
        <ele>152.9</ele>
        <time>2019-06-23T07:27:37.000Z</time>
      </trkpt>
      <trkpt lat="43.264" lon="2.48293">
        <ele>152.9</ele>
        <time>2019-06-23T07:27:38.000Z</time>
      </trkpt>
      <trkpt lat="43.264" lon="2.48293">
        <ele>152.9</ele>
        <time>2019-06-23T07:27:39.000Z</time>
      </trkpt>
      <trkpt lat="43.264" lon="2.48293">
        <ele>152.9</ele>
        <time>2019-06-23T07:27:40.000Z</time>
      </trkpt>
      <trkpt lat="43.264" lon="2.48293">
        <ele>152.9</ele>
        <time>2019-06-23T07:27:41.000Z</time>
      </trkpt>
      <trkpt lat="43.264" lon="2.48293">
        <ele>153</ele>
        <time>2019-06-23T07:27:42.000Z</time>
      </trkpt>
      <trkpt lat="43.264" lon="2.48293">
        <ele>153</ele>
        <time>2019-06-23T07:27:43.000Z</time>
      </trkpt>
      <trkpt lat="43.264" lon="2.48293">
        <ele>153</ele>
        <time>2019-06-23T07:27:44.000Z</time>
      </trkpt>
      <trkpt lat="43.264" lon="2.48292">
        <ele>153</ele>
        <time>2019-06-23T07:27:45.000Z</time>
      </trkpt>
      <trkpt lat="43.264" lon="2.48292">
        <ele>153</ele>
        <time>2019-06-23T07:27:46.000Z</time>
      </trkpt>
      <trkpt lat="43.264" lon="2.48292">
        <ele>153</ele>
        <time>2019-06-23T07:27:47.000Z</time>
      </trkpt>
      <trkpt lat="43.264" lon="2.48292">
        <ele>153</ele>
        <time>2019-06-23T07:27:48.000Z</time>
      </trkpt>
      <trkpt lat="43.264" lon="2.48292">
        <ele>153</ele>
        <time>2019-06-23T07:27:49.000Z</time>
      </trkpt>
      <trkpt lat="43.264" lon="2.48292">
        <ele>153</ele>
        <time>2019-06-23T07:27:50.000Z</time>
      </trkpt>
      <trkpt lat="43.264" lon="2.48292">
        <ele>153</ele>
        <time>2019-06-23T07:27:51.000Z</time>
      </trkpt>
      <trkpt lat="43.26401" lon="2.48292">
        <ele>153</ele>
        <time>2019-06-23T07:27:52.000Z</time>
      </trkpt>
      <trkpt lat="43.26401" lon="2.48292">
        <ele>153</ele>
        <time>2019-06-23T07:27:53.000Z</time>
      </trkpt>
      <trkpt lat="43.26401" lon="2.48292">
        <ele>153</ele>
        <time>2019-06-23T07:27:54.000Z</time>
      </trkpt>
      <trkpt lat="43.26401" lon="2.48292">
        <ele>153</ele>
        <time>2019-06-23T07:27:55.000Z</time>
      </trkpt>
      <trkpt lat="43.26401" lon="2.48292">
        <ele>153</ele>
        <time>2019-06-23T07:27:56.000Z</time>
      </trkpt>
      <trkpt lat="43.26401" lon="2.48292">
        <ele>153</ele>
        <time>2019-06-23T07:27:57.000Z</time>
      </trkpt>
      <trkpt lat="43.264" lon="2.48292">
        <ele>153</ele>
        <time>2019-06-23T07:27:58.000Z</time>
      </trkpt>
      <trkpt lat="43.264" lon="2.48292">
        <ele>153</ele>
        <time>2019-06-23T07:27:59.000Z</time>
      </trkpt>
      <trkpt lat="43.26401" lon="2.48292">
        <ele>153</ele>
        <time>2019-06-23T07:28:00.000Z</time>
      </trkpt>
      <trkpt lat="43.26401" lon="2.48291">
        <ele>153</ele>
        <time>2019-06-23T07:28:01.000Z</time>
      </trkpt>
      <trkpt lat="43.26401" lon="2.48291">
        <ele>153.1</ele>
        <time>2019-06-23T07:28:02.000Z</time>
      </trkpt>
      <trkpt lat="43.26401" lon="2.48291">
        <ele>153.1</ele>
        <time>2019-06-23T07:28:03.000Z</time>
      </trkpt>
      <trkpt lat="43.26402" lon="2.4829">
        <ele>153.1</ele>
        <time>2019-06-23T07:28:04.000Z</time>
      </trkpt>
      <trkpt lat="43.26402" lon="2.4829">
        <ele>153.2</ele>
        <time>2019-06-23T07:28:05.000Z</time>
      </trkpt>
      <trkpt lat="43.26402" lon="2.48289">
        <ele>153.2</ele>
        <time>2019-06-23T07:28:06.000Z</time>
      </trkpt>
      <trkpt lat="43.26401" lon="2.48289">
        <ele>153.2</ele>
        <time>2019-06-23T07:28:07.000Z</time>
      </trkpt>
      <trkpt lat="43.264" lon="2.48289">
        <ele>153.2</ele>
        <time>2019-06-23T07:28:08.000Z</time>
      </trkpt>
      <trkpt lat="43.26399" lon="2.48289">
        <ele>153.2</ele>
        <time>2019-06-23T07:28:09.000Z</time>
      </trkpt>
      <trkpt lat="43.26398" lon="2.48288">
        <ele>153.2</ele>
        <time>2019-06-23T07:28:10.000Z</time>
      </trkpt>
      <trkpt lat="43.26397" lon="2.48287">
        <ele>153.2</ele>
        <time>2019-06-23T07:28:11.000Z</time>
      </trkpt>
      <trkpt lat="43.26396" lon="2.48285">
        <ele>153.3</ele>
        <time>2019-06-23T07:28:12.000Z</time>
      </trkpt>
      <trkpt lat="43.26395" lon="2.48283">
        <ele>153.3</ele>
        <time>2019-06-23T07:28:13.000Z</time>
      </trkpt>
      <trkpt lat="43.26394" lon="2.48281">
        <ele>153.4</ele>
        <time>2019-06-23T07:28:14.000Z</time>
      </trkpt>
      <trkpt lat="43.26393" lon="2.48279">
        <ele>153.5</ele>
        <time>2019-06-23T07:28:15.000Z</time>
      </trkpt>
      <trkpt lat="43.26392" lon="2.48276">
        <ele>153.6</ele>
        <time>2019-06-23T07:28:16.000Z</time>
      </trkpt>
      <trkpt lat="43.2639" lon="2.48274">
        <ele>153.7</ele>
        <time>2019-06-23T07:28:17.000Z</time>
      </trkpt>
      <trkpt lat="43.26389" lon="2.48271">
        <ele>153.8</ele>
        <time>2019-06-23T07:28:18.000Z</time>
      </trkpt>
      <trkpt lat="43.26388" lon="2.48269">
        <ele>153.9</ele>
        <time>2019-06-23T07:28:19.000Z</time>
      </trkpt>
      <trkpt lat="43.26386" lon="2.48267">
        <ele>154</ele>
        <time>2019-06-23T07:28:20.000Z</time>
      </trkpt>
      <trkpt lat="43.26384" lon="2.48264">
        <ele>154</ele>
        <time>2019-06-23T07:28:21.000Z</time>
      </trkpt>
      <trkpt lat="43.26382" lon="2.48262">
        <ele>154.1</ele>
        <time>2019-06-23T07:28:22.000Z</time>
      </trkpt>
      <trkpt lat="43.26381" lon="2.4826">
        <ele>154.1</ele>
        <time>2019-06-23T07:28:23.000Z</time>
      </trkpt>
      <trkpt lat="43.26379" lon="2.48258">
        <ele>154.2</ele>
        <time>2019-06-23T07:28:24.000Z</time>
      </trkpt>
      <trkpt lat="43.26377" lon="2.48257">
        <ele>154.2</ele>
        <time>2019-06-23T07:28:25.000Z</time>
      </trkpt>
      <trkpt lat="43.26375" lon="2.48255">
        <ele>154.2</ele>
        <time>2019-06-23T07:28:26.000Z</time>
      </trkpt>
      <trkpt lat="43.26373" lon="2.48253">
        <ele>154.3</ele>
        <time>2019-06-23T07:28:27.000Z</time>
      </trkpt>
      <trkpt lat="43.26371" lon="2.48251">
        <ele>154.3</ele>
        <time>2019-06-23T07:28:28.000Z</time>
      </trkpt>
      <trkpt lat="43.26369" lon="2.4825">
        <ele>154.3</ele>
        <time>2019-06-23T07:28:29.000Z</time>
      </trkpt>
      <trkpt lat="43.26367" lon="2.48248">
        <ele>154.4</ele>
        <time>2019-06-23T07:28:30.000Z</time>
      </trkpt>
      <trkpt lat="43.26365" lon="2.48246">
        <ele>154.4</ele>
        <time>2019-06-23T07:28:31.000Z</time>
      </trkpt>
      <trkpt lat="43.26363" lon="2.48244">
        <ele>154.5</ele>
        <time>2019-06-23T07:28:32.000Z</time>
      </trkpt>
      <trkpt lat="43.26361" lon="2.48243">
        <ele>154.6</ele>
        <time>2019-06-23T07:28:33.000Z</time>
      </trkpt>
      <trkpt lat="43.26359" lon="2.48241">
        <ele>154.6</ele>
        <time>2019-06-23T07:28:34.000Z</time>
      </trkpt>
      <trkpt lat="43.26358" lon="2.48239">
        <ele>154.7</ele>
        <time>2019-06-23T07:28:35.000Z</time>
      </trkpt>
      <trkpt lat="43.26356" lon="2.48237">
        <ele>154.8</ele>
        <time>2019-06-23T07:28:36.000Z</time>
      </trkpt>
      <trkpt lat="43.26354" lon="2.48235">
        <ele>154.9</ele>
        <time>2019-06-23T07:28:37.000Z</time>
      </trkpt>
      <trkpt lat="43.26352" lon="2.48233">
        <ele>154.9</ele>
        <time>2019-06-23T07:28:38.000Z</time>
      </trkpt>
      <trkpt lat="43.2635" lon="2.48231">
        <ele>155</ele>
        <time>2019-06-23T07:28:39.000Z</time>
      </trkpt>
      <trkpt lat="43.26349" lon="2.48229">
        <ele>155.1</ele>
        <time>2019-06-23T07:28:40.000Z</time>
      </trkpt>
      <trkpt lat="43.26347" lon="2.48227">
        <ele>155.2</ele>
        <time>2019-06-23T07:28:41.000Z</time>
      </trkpt>
      <trkpt lat="43.26345" lon="2.48226">
        <ele>155.2</ele>
        <time>2019-06-23T07:28:42.000Z</time>
      </trkpt>
      <trkpt lat="43.26344" lon="2.48224">
        <ele>155.3</ele>
        <time>2019-06-23T07:28:43.000Z</time>
      </trkpt>
      <trkpt lat="43.26342" lon="2.48222">
        <ele>155.4</ele>
        <time>2019-06-23T07:28:44.000Z</time>
      </trkpt>
      <trkpt lat="43.2634" lon="2.4822">
        <ele>155.5</ele>
        <time>2019-06-23T07:28:45.000Z</time>
      </trkpt>
      <trkpt lat="43.26338" lon="2.48218">
        <ele>155.5</ele>
        <time>2019-06-23T07:28:46.000Z</time>
      </trkpt>
      <trkpt lat="43.26337" lon="2.48216">
        <ele>155.6</ele>
        <time>2019-06-23T07:28:47.000Z</time>
      </trkpt>
      <trkpt lat="43.26335" lon="2.48214">
        <ele>155.7</ele>
        <time>2019-06-23T07:28:48.000Z</time>
      </trkpt>
      <trkpt lat="43.26333" lon="2.48211">
        <ele>155.8</ele>
        <time>2019-06-23T07:28:49.000Z</time>
      </trkpt>
      <trkpt lat="43.26331" lon="2.48209">
        <ele>155.8</ele>
        <time>2019-06-23T07:28:50.000Z</time>
      </trkpt>
      <trkpt lat="43.2633" lon="2.48207">
        <ele>155.9</ele>
        <time>2019-06-23T07:28:51.000Z</time>
      </trkpt>
      <trkpt lat="43.26328" lon="2.48205">
        <ele>155.9</ele>
        <time>2019-06-23T07:28:52.000Z</time>
      </trkpt>
      <trkpt lat="43.26326" lon="2.48202">
        <ele>156</ele>
        <time>2019-06-23T07:28:53.000Z</time>
      </trkpt>
      <trkpt lat="43.26324" lon="2.482">
        <ele>156</ele>
        <time>2019-06-23T07:28:54.000Z</time>
      </trkpt>
      <trkpt lat="43.26323" lon="2.48197">
        <ele>156.1</ele>
        <time>2019-06-23T07:28:55.000Z</time>
      </trkpt>
      <trkpt lat="43.26321" lon="2.48195">
        <ele>156.2</ele>
        <time>2019-06-23T07:28:56.000Z</time>
      </trkpt>
      <trkpt lat="43.2632" lon="2.48192">
        <ele>156.2</ele>
        <time>2019-06-23T07:28:57.000Z</time>
      </trkpt>
      <trkpt lat="43.26318" lon="2.4819">
        <ele>156.3</ele>
        <time>2019-06-23T07:28:58.000Z</time>
      </trkpt>
      <trkpt lat="43.26317" lon="2.48187">
        <ele>156.4</ele>
        <time>2019-06-23T07:28:59.000Z</time>
      </trkpt>
      <trkpt lat="43.26316" lon="2.48184">
        <ele>156.4</ele>
        <time>2019-06-23T07:29:00.000Z</time>
      </trkpt>
      <trkpt lat="43.26315" lon="2.48181">
        <ele>156.5</ele>
        <time>2019-06-23T07:29:01.000Z</time>
      </trkpt>
      <trkpt lat="43.26314" lon="2.48179">
        <ele>156.6</ele>
        <time>2019-06-23T07:29:02.000Z</time>
      </trkpt>
      <trkpt lat="43.26313" lon="2.48176">
        <ele>156.7</ele>
        <time>2019-06-23T07:29:03.000Z</time>
      </trkpt>
      <trkpt lat="43.26312" lon="2.48173">
        <ele>156.9</ele>
        <time>2019-06-23T07:29:04.000Z</time>
      </trkpt>
      <trkpt lat="43.26312" lon="2.4817">
        <ele>157</ele>
        <time>2019-06-23T07:29:05.000Z</time>
      </trkpt>
      <trkpt lat="43.26311" lon="2.48167">
        <ele>157.1</ele>
        <time>2019-06-23T07:29:06.000Z</time>
      </trkpt>
      <trkpt lat="43.26311" lon="2.48164">
        <ele>157.2</ele>
        <time>2019-06-23T07:29:07.000Z</time>
      </trkpt>
      <trkpt lat="43.26311" lon="2.48161">
        <ele>157.4</ele>
        <time>2019-06-23T07:29:08.000Z</time>
      </trkpt>
      <trkpt lat="43.26311" lon="2.48158">
        <ele>157.5</ele>
        <time>2019-06-23T07:29:09.000Z</time>
      </trkpt>
      <trkpt lat="43.26311" lon="2.48155">
        <ele>157.6</ele>
        <time>2019-06-23T07:29:10.000Z</time>
      </trkpt>
      <trkpt lat="43.26311" lon="2.48152">
        <ele>157.8</ele>
        <time>2019-06-23T07:29:11.000Z</time>
      </trkpt>
      <trkpt lat="43.26312" lon="2.48149">
        <ele>157.9</ele>
        <time>2019-06-23T07:29:12.000Z</time>
      </trkpt>
      <trkpt lat="43.26312" lon="2.48146">
        <ele>158.1</ele>
        <time>2019-06-23T07:29:13.000Z</time>
      </trkpt>
      <trkpt lat="43.26312" lon="2.48143">
        <ele>158.3</ele>
        <time>2019-06-23T07:29:14.000Z</time>
      </trkpt>
      <trkpt lat="43.26313" lon="2.48141">
        <ele>158.4</ele>
        <time>2019-06-23T07:29:15.000Z</time>
      </trkpt>
      <trkpt lat="43.26313" lon="2.48138">
        <ele>158.6</ele>
        <time>2019-06-23T07:29:16.000Z</time>
      </trkpt>
      <trkpt lat="43.26314" lon="2.48135">
        <ele>158.8</ele>
        <time>2019-06-23T07:29:17.000Z</time>
      </trkpt>
      <trkpt lat="43.26314" lon="2.48132">
        <ele>158.9</ele>
        <time>2019-06-23T07:29:18.000Z</time>
      </trkpt>
      <trkpt lat="43.26315" lon="2.4813">
        <ele>159.1</ele>
        <time>2019-06-23T07:29:19.000Z</time>
      </trkpt>
      <trkpt lat="43.26315" lon="2.48127">
        <ele>159.3</ele>
        <time>2019-06-23T07:29:20.000Z</time>
      </trkpt>
      <trkpt lat="43.26316" lon="2.48125">
        <ele>159.4</ele>
        <time>2019-06-23T07:29:21.000Z</time>
      </trkpt>
      <trkpt lat="43.26316" lon="2.48123">
        <ele>159.6</ele>
        <time>2019-06-23T07:29:22.000Z</time>
      </trkpt>
      <trkpt lat="43.26317" lon="2.48121">
        <ele>159.7</ele>
        <time>2019-06-23T07:29:23.000Z</time>
      </trkpt>
      <trkpt lat="43.26318" lon="2.48118">
        <ele>159.9</ele>
        <time>2019-06-23T07:29:24.000Z</time>
      </trkpt>
      <trkpt lat="43.26318" lon="2.48116">
        <ele>160</ele>
        <time>2019-06-23T07:29:25.000Z</time>
      </trkpt>
      <trkpt lat="43.26319" lon="2.48114">
        <ele>160.2</ele>
        <time>2019-06-23T07:29:26.000Z</time>
      </trkpt>
      <trkpt lat="43.26319" lon="2.48112">
        <ele>160.3</ele>
        <time>2019-06-23T07:29:27.000Z</time>
      </trkpt>
      <trkpt lat="43.2632" lon="2.4811">
        <ele>160.5</ele>
        <time>2019-06-23T07:29:28.000Z</time>
      </trkpt>
      <trkpt lat="43.26321" lon="2.48108">
        <ele>160.6</ele>
        <time>2019-06-23T07:29:29.000Z</time>
      </trkpt>
      <trkpt lat="43.26321" lon="2.48106">
        <ele>160.8</ele>
        <time>2019-06-23T07:29:30.000Z</time>
      </trkpt>
      <trkpt lat="43.26322" lon="2.48104">
        <ele>161</ele>
        <time>2019-06-23T07:29:31.000Z</time>
      </trkpt>
      <trkpt lat="43.26323" lon="2.48101">
        <ele>161.1</ele>
        <time>2019-06-23T07:29:32.000Z</time>
      </trkpt>
      <trkpt lat="43.26323" lon="2.48099">
        <ele>161.3</ele>
        <time>2019-06-23T07:29:33.000Z</time>
      </trkpt>
      <trkpt lat="43.26324" lon="2.48096">
        <ele>161.5</ele>
        <time>2019-06-23T07:29:34.000Z</time>
      </trkpt>
      <trkpt lat="43.26325" lon="2.48094">
        <ele>161.7</ele>
        <time>2019-06-23T07:29:35.000Z</time>
      </trkpt>
      <trkpt lat="43.26325" lon="2.48091">
        <ele>161.9</ele>
        <time>2019-06-23T07:29:36.000Z</time>
      </trkpt>
      <trkpt lat="43.26326" lon="2.48088">
        <ele>162.1</ele>
        <time>2019-06-23T07:29:37.000Z</time>
      </trkpt>
      <trkpt lat="43.26327" lon="2.48085">
        <ele>162.3</ele>
        <time>2019-06-23T07:29:38.000Z</time>
      </trkpt>
      <trkpt lat="43.26327" lon="2.48082">
        <ele>162.4</ele>
        <time>2019-06-23T07:29:39.000Z</time>
      </trkpt>
      <trkpt lat="43.26328" lon="2.48079">
        <ele>162.6</ele>
        <time>2019-06-23T07:29:40.000Z</time>
      </trkpt>
      <trkpt lat="43.26329" lon="2.48075">
        <ele>162.7</ele>
        <time>2019-06-23T07:29:41.000Z</time>
      </trkpt>
      <trkpt lat="43.26329" lon="2.48072">
        <ele>162.8</ele>
        <time>2019-06-23T07:29:42.000Z</time>
      </trkpt>
      <trkpt lat="43.2633" lon="2.48069">
        <ele>162.9</ele>
        <time>2019-06-23T07:29:43.000Z</time>
      </trkpt>
      <trkpt lat="43.26331" lon="2.48066">
        <ele>163</ele>
        <time>2019-06-23T07:29:44.000Z</time>
      </trkpt>
      <trkpt lat="43.26332" lon="2.48063">
        <ele>163.1</ele>
        <time>2019-06-23T07:29:45.000Z</time>
      </trkpt>
      <trkpt lat="43.26332" lon="2.4806">
        <ele>163.2</ele>
        <time>2019-06-23T07:29:46.000Z</time>
      </trkpt>
      <trkpt lat="43.26333" lon="2.48057">
        <ele>163.3</ele>
        <time>2019-06-23T07:29:47.000Z</time>
      </trkpt>
      <trkpt lat="43.26334" lon="2.48054">
        <ele>163.4</ele>
        <time>2019-06-23T07:29:48.000Z</time>
      </trkpt>
      <trkpt lat="43.26335" lon="2.48051">
        <ele>163.5</ele>
        <time>2019-06-23T07:29:49.000Z</time>
      </trkpt>
      <trkpt lat="43.26335" lon="2.48048">
        <ele>163.6</ele>
        <time>2019-06-23T07:29:50.000Z</time>
      </trkpt>
      <trkpt lat="43.26336" lon="2.48046">
        <ele>163.7</ele>
        <time>2019-06-23T07:29:51.000Z</time>
      </trkpt>
      <trkpt lat="43.26337" lon="2.48043">
        <ele>163.9</ele>
        <time>2019-06-23T07:29:52.000Z</time>
      </trkpt>
      <trkpt lat="43.26338" lon="2.48041">
        <ele>164</ele>
        <time>2019-06-23T07:29:53.000Z</time>
      </trkpt>
      <trkpt lat="43.26338" lon="2.48039">
        <ele>164.1</ele>
        <time>2019-06-23T07:29:54.000Z</time>
      </trkpt>
      <trkpt lat="43.26339" lon="2.48036">
        <ele>164.2</ele>
        <time>2019-06-23T07:29:55.000Z</time>
      </trkpt>
      <trkpt lat="43.2634" lon="2.48034">
        <ele>164.3</ele>
        <time>2019-06-23T07:29:56.000Z</time>
      </trkpt>
      <trkpt lat="43.26341" lon="2.48031">
        <ele>164.5</ele>
        <time>2019-06-23T07:29:57.000Z</time>
      </trkpt>
      <trkpt lat="43.26341" lon="2.48029">
        <ele>164.6</ele>
        <time>2019-06-23T07:29:58.000Z</time>
      </trkpt>
      <trkpt lat="43.26342" lon="2.48026">
        <ele>164.7</ele>
        <time>2019-06-23T07:29:59.000Z</time>
      </trkpt>
      <trkpt lat="43.26343" lon="2.48023">
        <ele>164.8</ele>
        <time>2019-06-23T07:30:00.000Z</time>
      </trkpt>
      <trkpt lat="43.26343" lon="2.4802">
        <ele>165</ele>
        <time>2019-06-23T07:30:01.000Z</time>
      </trkpt>
      <trkpt lat="43.26344" lon="2.48016">
        <ele>165.1</ele>
        <time>2019-06-23T07:30:02.000Z</time>
      </trkpt>
      <trkpt lat="43.26345" lon="2.48013">
        <ele>165.3</ele>
        <time>2019-06-23T07:30:03.000Z</time>
      </trkpt>
      <trkpt lat="43.26346" lon="2.4801">
        <ele>165.4</ele>
        <time>2019-06-23T07:30:04.000Z</time>
      </trkpt>
      <trkpt lat="43.26346" lon="2.48006">
        <ele>165.6</ele>
        <time>2019-06-23T07:30:05.000Z</time>
      </trkpt>
      <trkpt lat="43.26347" lon="2.48003">
        <ele>165.7</ele>
        <time>2019-06-23T07:30:06.000Z</time>
      </trkpt>
      <trkpt lat="43.26348" lon="2.48">
        <ele>165.9</ele>
        <time>2019-06-23T07:30:07.000Z</time>
      </trkpt>
      <trkpt lat="43.26349" lon="2.47996">
        <ele>166.1</ele>
        <time>2019-06-23T07:30:08.000Z</time>
      </trkpt>
      <trkpt lat="43.2635" lon="2.47993">
        <ele>166.3</ele>
        <time>2019-06-23T07:30:09.000Z</time>
      </trkpt>
      <trkpt lat="43.2635" lon="2.4799">
        <ele>166.5</ele>
        <time>2019-06-23T07:30:10.000Z</time>
      </trkpt>
      <trkpt lat="43.26351" lon="2.47987">
        <ele>166.7</ele>
        <time>2019-06-23T07:30:11.000Z</time>
      </trkpt>
      <trkpt lat="43.26352" lon="2.47985">
        <ele>167</ele>
        <time>2019-06-23T07:30:12.000Z</time>
      </trkpt>
      <trkpt lat="43.26354" lon="2.47982">
        <ele>167.2</ele>
        <time>2019-06-23T07:30:13.000Z</time>
      </trkpt>
      <trkpt lat="43.26355" lon="2.4798">
        <ele>167.5</ele>
        <time>2019-06-23T07:30:14.000Z</time>
      </trkpt>
      <trkpt lat="43.26356" lon="2.47977">
        <ele>167.7</ele>
        <time>2019-06-23T07:30:15.000Z</time>
      </trkpt>
      <trkpt lat="43.26358" lon="2.47975">
        <ele>168</ele>
        <time>2019-06-23T07:30:16.000Z</time>
      </trkpt>
      <trkpt lat="43.26359" lon="2.47973">
        <ele>168.2</ele>
        <time>2019-06-23T07:30:17.000Z</time>
      </trkpt>
      <trkpt lat="43.2636" lon="2.47972">
        <ele>168.5</ele>
        <time>2019-06-23T07:30:18.000Z</time>
      </trkpt>
      <trkpt lat="43.26362" lon="2.4797">
        <ele>168.7</ele>
        <time>2019-06-23T07:30:19.000Z</time>
      </trkpt>
      <trkpt lat="43.26363" lon="2.47969">
        <ele>169</ele>
        <time>2019-06-23T07:30:20.000Z</time>
      </trkpt>
      <trkpt lat="43.26365" lon="2.47967">
        <ele>169.2</ele>
        <time>2019-06-23T07:30:21.000Z</time>
      </trkpt>
      <trkpt lat="43.26366" lon="2.47966">
        <ele>169.4</ele>
        <time>2019-06-23T07:30:22.000Z</time>
      </trkpt>
      <trkpt lat="43.26367" lon="2.47965">
        <ele>169.7</ele>
        <time>2019-06-23T07:30:23.000Z</time>
      </trkpt>
      <trkpt lat="43.26369" lon="2.47964">
        <ele>169.9</ele>
        <time>2019-06-23T07:30:24.000Z</time>
      </trkpt>
      <trkpt lat="43.2637" lon="2.47962">
        <ele>170.2</ele>
        <time>2019-06-23T07:30:25.000Z</time>
      </trkpt>
      <trkpt lat="43.26372" lon="2.47961">
        <ele>170.4</ele>
        <time>2019-06-23T07:30:26.000Z</time>
      </trkpt>
      <trkpt lat="43.26373" lon="2.4796">
        <ele>170.7</ele>
        <time>2019-06-23T07:30:27.000Z</time>
      </trkpt>
      <trkpt lat="43.26375" lon="2.47959">
        <ele>170.9</ele>
        <time>2019-06-23T07:30:28.000Z</time>
      </trkpt>
      <trkpt lat="43.26376" lon="2.47958">
        <ele>171.1</ele>
        <time>2019-06-23T07:30:29.000Z</time>
      </trkpt>
      <trkpt lat="43.26376" lon="2.47958">
        <ele>171.1</ele>
        <time>2019-06-23T07:30:30.000Z</time>
      </trkpt>
      <trkpt lat="43.26376" lon="2.47959">
        <ele>171.1</ele>
        <time>2019-06-23T07:30:31.000Z</time>
      </trkpt>
      <trkpt lat="43.26376" lon="2.47959">
        <ele>171.1</ele>
        <time>2019-06-23T07:30:32.000Z</time>
      </trkpt>
      <trkpt lat="43.26376" lon="2.4796">
        <ele>171</ele>
        <time>2019-06-23T07:30:33.000Z</time>
      </trkpt>
      <trkpt lat="43.26376" lon="2.4796">
        <ele>171</ele>
        <time>2019-06-23T07:30:34.000Z</time>
      </trkpt>
      <trkpt lat="43.26376" lon="2.4796">
        <ele>171</ele>
        <time>2019-06-23T07:30:35.000Z</time>
      </trkpt>
      <trkpt lat="43.26376" lon="2.4796">
        <ele>171</ele>
        <time>2019-06-23T07:30:36.000Z</time>
      </trkpt>
      <trkpt lat="43.26376" lon="2.4796">
        <ele>171.1</ele>
        <time>2019-06-23T07:30:37.000Z</time>
      </trkpt>
      <trkpt lat="43.26376" lon="2.47959">
        <ele>171.1</ele>
        <time>2019-06-23T07:30:38.000Z</time>
      </trkpt>
      <trkpt lat="43.26376" lon="2.47959">
        <ele>171.2</ele>
        <time>2019-06-23T07:30:39.000Z</time>
      </trkpt>
      <trkpt lat="43.26377" lon="2.47959">
        <ele>171.2</ele>
        <time>2019-06-23T07:30:40.000Z</time>
      </trkpt>
      <trkpt lat="43.26377" lon="2.47958">
        <ele>171.3</ele>
        <time>2019-06-23T07:30:41.000Z</time>
      </trkpt>
      <trkpt lat="43.26377" lon="2.47958">
        <ele>171.4</ele>
        <time>2019-06-23T07:30:42.000Z</time>
      </trkpt>
      <trkpt lat="43.26378" lon="2.47958">
        <ele>171.4</ele>
        <time>2019-06-23T07:30:43.000Z</time>
      </trkpt>
      <trkpt lat="43.26378" lon="2.47958">
        <ele>171.4</ele>
        <time>2019-06-23T07:30:44.000Z</time>
      </trkpt>
      <trkpt lat="43.26378" lon="2.47958">
        <ele>171.5</ele>
        <time>2019-06-23T07:30:45.000Z</time>
      </trkpt>
      <trkpt lat="43.26378" lon="2.47957">
        <ele>171.5</ele>
        <time>2019-06-23T07:30:46.000Z</time>
      </trkpt>
      <trkpt lat="43.26378" lon="2.47957">
        <ele>171.5</ele>
        <time>2019-06-23T07:30:47.000Z</time>
      </trkpt>
      <trkpt lat="43.26378" lon="2.47958">
        <ele>171.5</ele>
        <time>2019-06-23T07:30:48.000Z</time>
      </trkpt>
      <trkpt lat="43.26378" lon="2.47958">
        <ele>171.5</ele>
        <time>2019-06-23T07:30:49.000Z</time>
      </trkpt>
      <trkpt lat="43.26378" lon="2.47958">
        <ele>171.5</ele>
        <time>2019-06-23T07:30:50.000Z</time>
      </trkpt>
      <trkpt lat="43.26378" lon="2.47958">
        <ele>171.5</ele>
        <time>2019-06-23T07:30:51.000Z</time>
      </trkpt>
      <trkpt lat="43.26378" lon="2.47958">
        <ele>171.5</ele>
        <time>2019-06-23T07:30:52.000Z</time>
      </trkpt>
      <trkpt lat="43.26378" lon="2.47957">
        <ele>171.5</ele>
        <time>2019-06-23T07:30:53.000Z</time>
      </trkpt>
      <trkpt lat="43.26379" lon="2.47957">
        <ele>171.6</ele>
        <time>2019-06-23T07:30:54.000Z</time>
      </trkpt>
      <trkpt lat="43.26379" lon="2.47957">
        <ele>171.6</ele>
        <time>2019-06-23T07:30:55.000Z</time>
      </trkpt>
      <trkpt lat="43.26379" lon="2.47956">
        <ele>171.7</ele>
        <time>2019-06-23T07:30:56.000Z</time>
      </trkpt>
      <trkpt lat="43.2638" lon="2.47956">
        <ele>171.8</ele>
        <time>2019-06-23T07:30:57.000Z</time>
      </trkpt>
      <trkpt lat="43.2638" lon="2.47955">
        <ele>171.9</ele>
        <time>2019-06-23T07:30:58.000Z</time>
      </trkpt>
      <trkpt lat="43.26381" lon="2.47954">
        <ele>172</ele>
        <time>2019-06-23T07:30:59.000Z</time>
      </trkpt>
      <trkpt lat="43.26382" lon="2.47953">
        <ele>172.2</ele>
        <time>2019-06-23T07:31:00.000Z</time>
      </trkpt>
      <trkpt lat="43.26383" lon="2.47951">
        <ele>172.4</ele>
        <time>2019-06-23T07:31:01.000Z</time>
      </trkpt>
      <trkpt lat="43.26384" lon="2.4795">
        <ele>172.6</ele>
        <time>2019-06-23T07:31:02.000Z</time>
      </trkpt>
      <trkpt lat="43.26385" lon="2.47948">
        <ele>172.8</ele>
        <time>2019-06-23T07:31:03.000Z</time>
      </trkpt>
      <trkpt lat="43.26386" lon="2.47946">
        <ele>173</ele>
        <time>2019-06-23T07:31:04.000Z</time>
      </trkpt>
      <trkpt lat="43.26387" lon="2.47944">
        <ele>173.2</ele>
        <time>2019-06-23T07:31:05.000Z</time>
      </trkpt>
      <trkpt lat="43.26388" lon="2.47942">
        <ele>173.5</ele>
        <time>2019-06-23T07:31:06.000Z</time>
      </trkpt>
      <trkpt lat="43.26388" lon="2.4794">
        <ele>173.7</ele>
        <time>2019-06-23T07:31:07.000Z</time>
      </trkpt>
      <trkpt lat="43.26389" lon="2.47938">
        <ele>173.9</ele>
        <time>2019-06-23T07:31:08.000Z</time>
      </trkpt>
      <trkpt lat="43.2639" lon="2.47935">
        <ele>174.1</ele>
        <time>2019-06-23T07:31:09.000Z</time>
      </trkpt>
      <trkpt lat="43.26391" lon="2.47933">
        <ele>174.2</ele>
        <time>2019-06-23T07:31:10.000Z</time>
      </trkpt>
      <trkpt lat="43.26391" lon="2.47931">
        <ele>174.4</ele>
        <time>2019-06-23T07:31:11.000Z</time>
      </trkpt>
      <trkpt lat="43.26392" lon="2.47929">
        <ele>174.6</ele>
        <time>2019-06-23T07:31:12.000Z</time>
      </trkpt>
      <trkpt lat="43.26393" lon="2.47927">
        <ele>174.8</ele>
        <time>2019-06-23T07:31:13.000Z</time>
      </trkpt>
      <trkpt lat="43.26393" lon="2.47925">
        <ele>175</ele>
        <time>2019-06-23T07:31:14.000Z</time>
      </trkpt>
      <trkpt lat="43.26394" lon="2.47923">
        <ele>175.2</ele>
        <time>2019-06-23T07:31:15.000Z</time>
      </trkpt>
      <trkpt lat="43.26395" lon="2.47921">
        <ele>175.4</ele>
        <time>2019-06-23T07:31:16.000Z</time>
      </trkpt>
      <trkpt lat="43.26396" lon="2.47919">
        <ele>175.6</ele>
        <time>2019-06-23T07:31:17.000Z</time>
      </trkpt>
      <trkpt lat="43.26396" lon="2.47917">
        <ele>175.8</ele>
        <time>2019-06-23T07:31:18.000Z</time>
      </trkpt>
      <trkpt lat="43.26397" lon="2.47916">
        <ele>176</ele>
        <time>2019-06-23T07:31:19.000Z</time>
      </trkpt>
      <trkpt lat="43.26398" lon="2.47914">
        <ele>176.1</ele>
        <time>2019-06-23T07:31:20.000Z</time>
      </trkpt>
      <trkpt lat="43.26399" lon="2.47911">
        <ele>176.3</ele>
        <time>2019-06-23T07:31:21.000Z</time>
      </trkpt>
      <trkpt lat="43.26399" lon="2.47909">
        <ele>176.4</ele>
        <time>2019-06-23T07:31:22.000Z</time>
      </trkpt>
      <trkpt lat="43.264" lon="2.47907">
        <ele>176.5</ele>
        <time>2019-06-23T07:31:23.000Z</time>
      </trkpt>
      <trkpt lat="43.26401" lon="2.47904">
        <ele>176.7</ele>
        <time>2019-06-23T07:31:24.000Z</time>
      </trkpt>
      <trkpt lat="43.26401" lon="2.47902">
        <ele>176.8</ele>
        <time>2019-06-23T07:31:25.000Z</time>
      </trkpt>
      <trkpt lat="43.26401" lon="2.47899">
        <ele>176.9</ele>
        <time>2019-06-23T07:31:26.000Z</time>
      </trkpt>
      <trkpt lat="43.26402" lon="2.47896">
        <ele>176.9</ele>
        <time>2019-06-23T07:31:27.000Z</time>
      </trkpt>
      <trkpt lat="43.26402" lon="2.47893">
        <ele>177</ele>
        <time>2019-06-23T07:31:28.000Z</time>
      </trkpt>
      <trkpt lat="43.26401" lon="2.47891">
        <ele>177</ele>
        <time>2019-06-23T07:31:29.000Z</time>
      </trkpt>
      <trkpt lat="43.26401" lon="2.47888">
        <ele>177</ele>
        <time>2019-06-23T07:31:30.000Z</time>
      </trkpt>
      <trkpt lat="43.26401" lon="2.47886">
        <ele>176.9</ele>
        <time>2019-06-23T07:31:31.000Z</time>
      </trkpt>
      <trkpt lat="43.264" lon="2.47884">
        <ele>176.9</ele>
        <time>2019-06-23T07:31:32.000Z</time>
      </trkpt>
      <trkpt lat="43.26399" lon="2.47882">
        <ele>176.8</ele>
        <time>2019-06-23T07:31:33.000Z</time>
      </trkpt>
      <trkpt lat="43.26399" lon="2.4788">
        <ele>176.7</ele>
        <time>2019-06-23T07:31:34.000Z</time>
      </trkpt>
      <trkpt lat="43.26398" lon="2.47878">
        <ele>176.6</ele>
        <time>2019-06-23T07:31:35.000Z</time>
      </trkpt>
      <trkpt lat="43.26397" lon="2.47876">
        <ele>176.5</ele>
        <time>2019-06-23T07:31:36.000Z</time>
      </trkpt>
      <trkpt lat="43.26396" lon="2.47875">
        <ele>176.4</ele>
        <time>2019-06-23T07:31:37.000Z</time>
      </trkpt>
      <trkpt lat="43.26396" lon="2.47873">
        <ele>176.4</ele>
        <time>2019-06-23T07:31:38.000Z</time>
      </trkpt>
      <trkpt lat="43.26395" lon="2.47871">
        <ele>176.3</ele>
        <time>2019-06-23T07:31:39.000Z</time>
      </trkpt>
      <trkpt lat="43.26395" lon="2.4787">
        <ele>176.3</ele>
        <time>2019-06-23T07:31:40.000Z</time>
      </trkpt>
      <trkpt lat="43.26394" lon="2.47868">
        <ele>176.2</ele>
        <time>2019-06-23T07:31:41.000Z</time>
      </trkpt>
      <trkpt lat="43.26394" lon="2.47866">
        <ele>176.2</ele>
        <time>2019-06-23T07:31:42.000Z</time>
      </trkpt>
      <trkpt lat="43.26394" lon="2.47865">
        <ele>176.2</ele>
        <time>2019-06-23T07:31:43.000Z</time>
      </trkpt>
      <trkpt lat="43.26394" lon="2.47863">
        <ele>176.2</ele>
        <time>2019-06-23T07:31:44.000Z</time>
      </trkpt>
      <trkpt lat="43.26394" lon="2.47861">
        <ele>176.2</ele>
        <time>2019-06-23T07:31:45.000Z</time>
      </trkpt>
      <trkpt lat="43.26394" lon="2.4786">
        <ele>176.3</ele>
        <time>2019-06-23T07:31:46.000Z</time>
      </trkpt>
      <trkpt lat="43.26394" lon="2.47858">
        <ele>176.3</ele>
        <time>2019-06-23T07:31:47.000Z</time>
      </trkpt>
      <trkpt lat="43.26394" lon="2.47856">
        <ele>176.3</ele>
        <time>2019-06-23T07:31:48.000Z</time>
      </trkpt>
      <trkpt lat="43.26394" lon="2.47854">
        <ele>176.4</ele>
        <time>2019-06-23T07:31:49.000Z</time>
      </trkpt>
      <trkpt lat="43.26394" lon="2.47853">
        <ele>176.4</ele>
        <time>2019-06-23T07:31:50.000Z</time>
      </trkpt>
      <trkpt lat="43.26394" lon="2.47851">
        <ele>176.5</ele>
        <time>2019-06-23T07:31:51.000Z</time>
      </trkpt>
      <trkpt lat="43.26394" lon="2.47849">
        <ele>176.5</ele>
        <time>2019-06-23T07:31:52.000Z</time>
      </trkpt>
      <trkpt lat="43.26394" lon="2.47847">
        <ele>176.6</ele>
        <time>2019-06-23T07:31:53.000Z</time>
      </trkpt>
      <trkpt lat="43.26394" lon="2.47846">
        <ele>176.6</ele>
        <time>2019-06-23T07:31:54.000Z</time>
      </trkpt>
      <trkpt lat="43.26395" lon="2.47844">
        <ele>176.6</ele>
        <time>2019-06-23T07:31:55.000Z</time>
      </trkpt>
      <trkpt lat="43.26395" lon="2.47842">
        <ele>176.7</ele>
        <time>2019-06-23T07:31:56.000Z</time>
      </trkpt>
      <trkpt lat="43.26395" lon="2.47841">
        <ele>176.7</ele>
        <time>2019-06-23T07:31:57.000Z</time>
      </trkpt>
      <trkpt lat="43.26395" lon="2.47839">
        <ele>176.8</ele>
        <time>2019-06-23T07:31:58.000Z</time>
      </trkpt>
      <trkpt lat="43.26395" lon="2.47837">
        <ele>176.8</ele>
        <time>2019-06-23T07:31:59.000Z</time>
      </trkpt>
      <trkpt lat="43.26395" lon="2.47836">
        <ele>176.9</ele>
        <time>2019-06-23T07:32:00.000Z</time>
      </trkpt>
      <trkpt lat="43.26396" lon="2.47834">
        <ele>176.9</ele>
        <time>2019-06-23T07:32:01.000Z</time>
      </trkpt>
      <trkpt lat="43.26396" lon="2.47833">
        <ele>176.9</ele>
        <time>2019-06-23T07:32:02.000Z</time>
      </trkpt>
      <trkpt lat="43.26396" lon="2.47831">
        <ele>176.9</ele>
        <time>2019-06-23T07:32:03.000Z</time>
      </trkpt>
      <trkpt lat="43.26396" lon="2.47829">
        <ele>176.9</ele>
        <time>2019-06-23T07:32:04.000Z</time>
      </trkpt>
      <trkpt lat="43.26396" lon="2.47828">
        <ele>176.9</ele>
        <time>2019-06-23T07:32:05.000Z</time>
      </trkpt>
      <trkpt lat="43.26396" lon="2.47826">
        <ele>176.9</ele>
        <time>2019-06-23T07:32:06.000Z</time>
      </trkpt>
      <trkpt lat="43.26397" lon="2.47825">
        <ele>176.9</ele>
        <time>2019-06-23T07:32:07.000Z</time>
      </trkpt>
      <trkpt lat="43.26397" lon="2.47823">
        <ele>176.9</ele>
        <time>2019-06-23T07:32:08.000Z</time>
      </trkpt>
      <trkpt lat="43.26397" lon="2.47821">
        <ele>176.9</ele>
        <time>2019-06-23T07:32:09.000Z</time>
      </trkpt>
      <trkpt lat="43.26397" lon="2.4782">
        <ele>176.8</ele>
        <time>2019-06-23T07:32:10.000Z</time>
      </trkpt>
      <trkpt lat="43.26397" lon="2.47818">
        <ele>176.8</ele>
        <time>2019-06-23T07:32:11.000Z</time>
      </trkpt>
      <trkpt lat="43.26398" lon="2.47816">
        <ele>176.8</ele>
        <time>2019-06-23T07:32:12.000Z</time>
      </trkpt>
      <trkpt lat="43.26398" lon="2.47814">
        <ele>176.8</ele>
        <time>2019-06-23T07:32:13.000Z</time>
      </trkpt>
      <trkpt lat="43.26398" lon="2.47813">
        <ele>176.8</ele>
        <time>2019-06-23T07:32:14.000Z</time>
      </trkpt>
      <trkpt lat="43.26398" lon="2.47811">
        <ele>176.8</ele>
        <time>2019-06-23T07:32:15.000Z</time>
      </trkpt>
      <trkpt lat="43.26399" lon="2.47809">
        <ele>176.8</ele>
        <time>2019-06-23T07:32:16.000Z</time>
      </trkpt>
      <trkpt lat="43.26399" lon="2.47807">
        <ele>176.8</ele>
        <time>2019-06-23T07:32:17.000Z</time>
      </trkpt>
      <trkpt lat="43.26399" lon="2.47806">
        <ele>176.8</ele>
        <time>2019-06-23T07:32:18.000Z</time>
      </trkpt>
      <trkpt lat="43.264" lon="2.47804">
        <ele>176.8</ele>
        <time>2019-06-23T07:32:19.000Z</time>
      </trkpt>
      <trkpt lat="43.264" lon="2.47802">
        <ele>176.8</ele>
        <time>2019-06-23T07:32:20.000Z</time>
      </trkpt>
      <trkpt lat="43.26401" lon="2.47801">
        <ele>176.8</ele>
        <time>2019-06-23T07:32:21.000Z</time>
      </trkpt>
      <trkpt lat="43.26401" lon="2.47799">
        <ele>176.8</ele>
        <time>2019-06-23T07:32:22.000Z</time>
      </trkpt>
      <trkpt lat="43.26402" lon="2.47798">
        <ele>176.9</ele>
        <time>2019-06-23T07:32:23.000Z</time>
      </trkpt>
      <trkpt lat="43.26402" lon="2.47796">
        <ele>176.9</ele>
        <time>2019-06-23T07:32:24.000Z</time>
      </trkpt>
      <trkpt lat="43.26403" lon="2.47795">
        <ele>176.9</ele>
        <time>2019-06-23T07:32:25.000Z</time>
      </trkpt>
      <trkpt lat="43.26403" lon="2.47793">
        <ele>176.9</ele>
        <time>2019-06-23T07:32:26.000Z</time>
      </trkpt>
      <trkpt lat="43.26404" lon="2.47792">
        <ele>177</ele>
        <time>2019-06-23T07:32:27.000Z</time>
      </trkpt>
      <trkpt lat="43.26404" lon="2.4779">
        <ele>177</ele>
        <time>2019-06-23T07:32:28.000Z</time>
      </trkpt>
      <trkpt lat="43.26405" lon="2.47789">
        <ele>177</ele>
        <time>2019-06-23T07:32:29.000Z</time>
      </trkpt>
      <trkpt lat="43.26405" lon="2.47788">
        <ele>177</ele>
        <time>2019-06-23T07:32:30.000Z</time>
      </trkpt>
      <trkpt lat="43.26406" lon="2.47788">
        <ele>177.1</ele>
        <time>2019-06-23T07:32:31.000Z</time>
      </trkpt>
      <trkpt lat="43.26406" lon="2.47787">
        <ele>177.1</ele>
        <time>2019-06-23T07:32:32.000Z</time>
      </trkpt>
      <trkpt lat="43.26406" lon="2.47786">
        <ele>177.1</ele>
        <time>2019-06-23T07:32:33.000Z</time>
      </trkpt>
      <trkpt lat="43.26406" lon="2.47786">
        <ele>177.1</ele>
        <time>2019-06-23T07:32:34.000Z</time>
      </trkpt>
      <trkpt lat="43.26406" lon="2.47786">
        <ele>177.1</ele>
        <time>2019-06-23T07:32:35.000Z</time>
      </trkpt>
      <trkpt lat="43.26406" lon="2.47786">
        <ele>177.1</ele>
        <time>2019-06-23T07:32:36.000Z</time>
      </trkpt>
      <trkpt lat="43.26406" lon="2.47786">
        <ele>177.1</ele>
        <time>2019-06-23T07:32:37.000Z</time>
      </trkpt>
      <trkpt lat="43.26406" lon="2.47785">
        <ele>177.1</ele>
        <time>2019-06-23T07:32:38.000Z</time>
      </trkpt>
      <trkpt lat="43.26406" lon="2.47785">
        <ele>177.1</ele>
        <time>2019-06-23T07:32:39.000Z</time>
      </trkpt>
      <trkpt lat="43.26406" lon="2.47785">
        <ele>177.1</ele>
        <time>2019-06-23T07:32:40.000Z</time>
      </trkpt>
      <trkpt lat="43.26407" lon="2.47785">
        <ele>177.1</ele>
        <time>2019-06-23T07:32:41.000Z</time>
      </trkpt>
      <trkpt lat="43.26407" lon="2.47785">
        <ele>177.1</ele>
        <time>2019-06-23T07:32:42.000Z</time>
      </trkpt>
      <trkpt lat="43.26407" lon="2.47784">
        <ele>177.1</ele>
        <time>2019-06-23T07:32:43.000Z</time>
      </trkpt>
      <trkpt lat="43.26407" lon="2.47784">
        <ele>177.1</ele>
        <time>2019-06-23T07:32:44.000Z</time>
      </trkpt>
      <trkpt lat="43.26407" lon="2.47784">
        <ele>177.1</ele>
        <time>2019-06-23T07:32:45.000Z</time>
      </trkpt>
      <trkpt lat="43.26407" lon="2.47784">
        <ele>177.1</ele>
        <time>2019-06-23T07:32:46.000Z</time>
      </trkpt>
      <trkpt lat="43.26407" lon="2.47783">
        <ele>177.1</ele>
        <time>2019-06-23T07:32:47.000Z</time>
      </trkpt>
      <trkpt lat="43.26407" lon="2.47783">
        <ele>177.1</ele>
        <time>2019-06-23T07:32:48.000Z</time>
      </trkpt>
      <trkpt lat="43.26407" lon="2.47783">
        <ele>177.1</ele>
        <time>2019-06-23T07:32:49.000Z</time>
      </trkpt>
      <trkpt lat="43.26408" lon="2.47783">
        <ele>177.1</ele>
        <time>2019-06-23T07:32:50.000Z</time>
      </trkpt>
      <trkpt lat="43.26408" lon="2.47783">
        <ele>177.1</ele>
        <time>2019-06-23T07:32:51.000Z</time>
      </trkpt>
      <trkpt lat="43.26408" lon="2.47783">
        <ele>177.1</ele>
        <time>2019-06-23T07:32:52.000Z</time>
      </trkpt>
      <trkpt lat="43.26407" lon="2.47783">
        <ele>177.1</ele>
        <time>2019-06-23T07:32:53.000Z</time>
      </trkpt>
      <trkpt lat="43.26407" lon="2.47783">
        <ele>177.1</ele>
        <time>2019-06-23T07:32:54.000Z</time>
      </trkpt>
      <trkpt lat="43.26407" lon="2.47783">
        <ele>177.1</ele>
        <time>2019-06-23T07:32:55.000Z</time>
      </trkpt>
      <trkpt lat="43.26407" lon="2.47783">
        <ele>177.1</ele>
        <time>2019-06-23T07:32:56.000Z</time>
      </trkpt>
      <trkpt lat="43.26407" lon="2.47783">
        <ele>177.1</ele>
        <time>2019-06-23T07:32:57.000Z</time>
      </trkpt>
      <trkpt lat="43.26408" lon="2.47783">
        <ele>177.1</ele>
        <time>2019-06-23T07:32:58.000Z</time>
      </trkpt>
      <trkpt lat="43.26407" lon="2.47783">
        <ele>177.1</ele>
        <time>2019-06-23T07:32:59.000Z</time>
      </trkpt>
      <trkpt lat="43.26407" lon="2.47783">
        <ele>177.1</ele>
        <time>2019-06-23T07:33:00.000Z</time>
      </trkpt>
      <trkpt lat="43.26407" lon="2.47783">
        <ele>177.1</ele>
        <time>2019-06-23T07:33:01.000Z</time>
      </trkpt>
      <trkpt lat="43.26407" lon="2.47782">
        <ele>177.1</ele>
        <time>2019-06-23T07:33:02.000Z</time>
      </trkpt>
      <trkpt lat="43.26407" lon="2.47781">
        <ele>177.1</ele>
        <time>2019-06-23T07:33:03.000Z</time>
      </trkpt>
      <trkpt lat="43.26407" lon="2.47779">
        <ele>177</ele>
        <time>2019-06-23T07:33:04.000Z</time>
      </trkpt>
      <trkpt lat="43.26408" lon="2.47778">
        <ele>177</ele>
        <time>2019-06-23T07:33:05.000Z</time>
      </trkpt>
      <trkpt lat="43.26408" lon="2.47776">
        <ele>176.9</ele>
        <time>2019-06-23T07:33:06.000Z</time>
      </trkpt>
      <trkpt lat="43.26408" lon="2.47774">
        <ele>176.9</ele>
        <time>2019-06-23T07:33:07.000Z</time>
      </trkpt>
      <trkpt lat="43.26409" lon="2.47772">
        <ele>176.9</ele>
        <time>2019-06-23T07:33:08.000Z</time>
      </trkpt>
      <trkpt lat="43.26409" lon="2.47769">
        <ele>176.9</ele>
        <time>2019-06-23T07:33:09.000Z</time>
      </trkpt>
      <trkpt lat="43.2641" lon="2.47767">
        <ele>176.9</ele>
        <time>2019-06-23T07:33:10.000Z</time>
      </trkpt>
      <trkpt lat="43.26411" lon="2.47764">
        <ele>176.9</ele>
        <time>2019-06-23T07:33:11.000Z</time>
      </trkpt>
      <trkpt lat="43.26413" lon="2.47762">
        <ele>177</ele>
        <time>2019-06-23T07:33:12.000Z</time>
      </trkpt>
      <trkpt lat="43.26414" lon="2.47759">
        <ele>177</ele>
        <time>2019-06-23T07:33:13.000Z</time>
      </trkpt>
      <trkpt lat="43.26415" lon="2.47756">
        <ele>177.1</ele>
        <time>2019-06-23T07:33:14.000Z</time>
      </trkpt>
      <trkpt lat="43.26417" lon="2.47753">
        <ele>177.1</ele>
        <time>2019-06-23T07:33:15.000Z</time>
      </trkpt>
      <trkpt lat="43.26418" lon="2.4775">
        <ele>177.2</ele>
        <time>2019-06-23T07:33:16.000Z</time>
      </trkpt>
      <trkpt lat="43.2642" lon="2.47747">
        <ele>177.2</ele>
        <time>2019-06-23T07:33:17.000Z</time>
      </trkpt>
      <trkpt lat="43.26421" lon="2.47744">
        <ele>177.2</ele>
        <time>2019-06-23T07:33:18.000Z</time>
      </trkpt>
      <trkpt lat="43.26422" lon="2.47741">
        <ele>177.3</ele>
        <time>2019-06-23T07:33:19.000Z</time>
      </trkpt>
      <trkpt lat="43.26424" lon="2.47738">
        <ele>177.3</ele>
        <time>2019-06-23T07:33:20.000Z</time>
      </trkpt>
      <trkpt lat="43.26425" lon="2.47735">
        <ele>177.3</ele>
        <time>2019-06-23T07:33:21.000Z</time>
      </trkpt>
      <trkpt lat="43.26427" lon="2.47732">
        <ele>177.3</ele>
        <time>2019-06-23T07:33:22.000Z</time>
      </trkpt>
      <trkpt lat="43.26428" lon="2.47729">
        <ele>177.4</ele>
        <time>2019-06-23T07:33:23.000Z</time>
      </trkpt>
      <trkpt lat="43.26429" lon="2.47726">
        <ele>177.4</ele>
        <time>2019-06-23T07:33:24.000Z</time>
      </trkpt>
      <trkpt lat="43.26431" lon="2.47723">
        <ele>177.4</ele>
        <time>2019-06-23T07:33:25.000Z</time>
      </trkpt>
      <trkpt lat="43.26432" lon="2.4772">
        <ele>177.4</ele>
        <time>2019-06-23T07:33:26.000Z</time>
      </trkpt>
      <trkpt lat="43.26434" lon="2.47717">
        <ele>177.5</ele>
        <time>2019-06-23T07:33:27.000Z</time>
      </trkpt>
      <trkpt lat="43.26435" lon="2.47714">
        <ele>177.5</ele>
        <time>2019-06-23T07:33:28.000Z</time>
      </trkpt>
      <trkpt lat="43.26437" lon="2.47711">
        <ele>177.5</ele>
        <time>2019-06-23T07:33:29.000Z</time>
      </trkpt>
      <trkpt lat="43.26438" lon="2.47709">
        <ele>177.6</ele>
        <time>2019-06-23T07:33:30.000Z</time>
      </trkpt>
      <trkpt lat="43.2644" lon="2.47706">
        <ele>177.6</ele>
        <time>2019-06-23T07:33:31.000Z</time>
      </trkpt>
      <trkpt lat="43.26442" lon="2.47703">
        <ele>177.7</ele>
        <time>2019-06-23T07:33:32.000Z</time>
      </trkpt>
      <trkpt lat="43.26443" lon="2.47701">
        <ele>177.8</ele>
        <time>2019-06-23T07:33:33.000Z</time>
      </trkpt>
      <trkpt lat="43.26445" lon="2.47698">
        <ele>177.9</ele>
        <time>2019-06-23T07:33:34.000Z</time>
      </trkpt>
      <trkpt lat="43.26447" lon="2.47696">
        <ele>178</ele>
        <time>2019-06-23T07:33:35.000Z</time>
      </trkpt>
      <trkpt lat="43.26448" lon="2.47694">
        <ele>178.1</ele>
        <time>2019-06-23T07:33:36.000Z</time>
      </trkpt>
      <trkpt lat="43.2645" lon="2.47691">
        <ele>178.2</ele>
        <time>2019-06-23T07:33:37.000Z</time>
      </trkpt>
      <trkpt lat="43.26452" lon="2.47689">
        <ele>178.3</ele>
        <time>2019-06-23T07:33:38.000Z</time>
      </trkpt>
      <trkpt lat="43.26454" lon="2.47687">
        <ele>178.4</ele>
        <time>2019-06-23T07:33:39.000Z</time>
      </trkpt>
      <trkpt lat="43.26455" lon="2.47685">
        <ele>178.5</ele>
        <time>2019-06-23T07:33:40.000Z</time>
      </trkpt>
      <trkpt lat="43.26457" lon="2.47682">
        <ele>178.6</ele>
        <time>2019-06-23T07:33:41.000Z</time>
      </trkpt>
      <trkpt lat="43.26459" lon="2.4768">
        <ele>178.7</ele>
        <time>2019-06-23T07:33:42.000Z</time>
      </trkpt>
      <trkpt lat="43.2646" lon="2.47677">
        <ele>178.7</ele>
        <time>2019-06-23T07:33:43.000Z</time>
      </trkpt>
      <trkpt lat="43.26462" lon="2.47674">
        <ele>178.8</ele>
        <time>2019-06-23T07:33:44.000Z</time>
      </trkpt>
      <trkpt lat="43.26464" lon="2.47672">
        <ele>178.9</ele>
        <time>2019-06-23T07:33:45.000Z</time>
      </trkpt>
      <trkpt lat="43.26465" lon="2.47669">
        <ele>178.9</ele>
        <time>2019-06-23T07:33:46.000Z</time>
      </trkpt>
      <trkpt lat="43.26467" lon="2.47666">
        <ele>179</ele>
        <time>2019-06-23T07:33:47.000Z</time>
      </trkpt>
      <trkpt lat="43.26469" lon="2.47663">
        <ele>179.2</ele>
        <time>2019-06-23T07:33:48.000Z</time>
      </trkpt>
      <trkpt lat="43.2647" lon="2.4766">
        <ele>179.4</ele>
        <time>2019-06-23T07:33:49.000Z</time>
      </trkpt>
      <trkpt lat="43.26472" lon="2.47658">
        <ele>179.6</ele>
        <time>2019-06-23T07:33:50.000Z</time>
      </trkpt>
      <trkpt lat="43.26473" lon="2.47655">
        <ele>179.8</ele>
        <time>2019-06-23T07:33:51.000Z</time>
      </trkpt>
      <trkpt lat="43.26475" lon="2.47652">
        <ele>179.9</ele>
        <time>2019-06-23T07:33:52.000Z</time>
      </trkpt>
      <trkpt lat="43.26476" lon="2.47649">
        <ele>180.1</ele>
        <time>2019-06-23T07:33:53.000Z</time>
      </trkpt>
      <trkpt lat="43.26477" lon="2.47646">
        <ele>180.2</ele>
        <time>2019-06-23T07:33:54.000Z</time>
      </trkpt>
      <trkpt lat="43.26479" lon="2.47643">
        <ele>180.3</ele>
        <time>2019-06-23T07:33:55.000Z</time>
      </trkpt>
      <trkpt lat="43.2648" lon="2.4764">
        <ele>180.4</ele>
        <time>2019-06-23T07:33:56.000Z</time>
      </trkpt>
      <trkpt lat="43.26481" lon="2.47637">
        <ele>180.5</ele>
        <time>2019-06-23T07:33:57.000Z</time>
      </trkpt>
      <trkpt lat="43.26483" lon="2.47635">
        <ele>180.6</ele>
        <time>2019-06-23T07:33:58.000Z</time>
      </trkpt>
      <trkpt lat="43.26484" lon="2.47632">
        <ele>180.7</ele>
        <time>2019-06-23T07:33:59.000Z</time>
      </trkpt>
      <trkpt lat="43.26485" lon="2.47629">
        <ele>180.8</ele>
        <time>2019-06-23T07:34:00.000Z</time>
      </trkpt>
      <trkpt lat="43.26487" lon="2.47626">
        <ele>180.9</ele>
        <time>2019-06-23T07:34:01.000Z</time>
      </trkpt>
      <trkpt lat="43.26488" lon="2.47623">
        <ele>180.9</ele>
        <time>2019-06-23T07:34:02.000Z</time>
      </trkpt>
      <trkpt lat="43.26489" lon="2.47621">
        <ele>181</ele>
        <time>2019-06-23T07:34:03.000Z</time>
      </trkpt>
      <trkpt lat="43.2649" lon="2.47618">
        <ele>181.1</ele>
        <time>2019-06-23T07:34:04.000Z</time>
      </trkpt>
      <trkpt lat="43.26491" lon="2.47615">
        <ele>181.1</ele>
        <time>2019-06-23T07:34:05.000Z</time>
      </trkpt>
      <trkpt lat="43.26492" lon="2.47612">
        <ele>181.1</ele>
        <time>2019-06-23T07:34:06.000Z</time>
      </trkpt>
      <trkpt lat="43.26494" lon="2.47609">
        <ele>181.2</ele>
        <time>2019-06-23T07:34:07.000Z</time>
      </trkpt>
      <trkpt lat="43.26495" lon="2.47606">
        <ele>181.2</ele>
        <time>2019-06-23T07:34:08.000Z</time>
      </trkpt>
      <trkpt lat="43.26496" lon="2.47602">
        <ele>181.2</ele>
        <time>2019-06-23T07:34:09.000Z</time>
      </trkpt>
      <trkpt lat="43.26497" lon="2.47599">
        <ele>181.2</ele>
        <time>2019-06-23T07:34:10.000Z</time>
      </trkpt>
      <trkpt lat="43.26498" lon="2.47596">
        <ele>181.2</ele>
        <time>2019-06-23T07:34:11.000Z</time>
      </trkpt>
      <trkpt lat="43.26499" lon="2.47593">
        <ele>181.2</ele>
        <time>2019-06-23T07:34:12.000Z</time>
      </trkpt>
      <trkpt lat="43.265" lon="2.4759">
        <ele>181.1</ele>
        <time>2019-06-23T07:34:13.000Z</time>
      </trkpt>
      <trkpt lat="43.26501" lon="2.47586">
        <ele>181.1</ele>
        <time>2019-06-23T07:34:14.000Z</time>
      </trkpt>
      <trkpt lat="43.26502" lon="2.47583">
        <ele>181.1</ele>
        <time>2019-06-23T07:34:15.000Z</time>
      </trkpt>
      <trkpt lat="43.26503" lon="2.4758">
        <ele>181.3</ele>
        <time>2019-06-23T07:34:16.000Z</time>
      </trkpt>
      <trkpt lat="43.26503" lon="2.47577">
        <ele>181.5</ele>
        <time>2019-06-23T07:34:17.000Z</time>
      </trkpt>
      <trkpt lat="43.26504" lon="2.47574">
        <ele>181.7</ele>
        <time>2019-06-23T07:34:18.000Z</time>
      </trkpt>
      <trkpt lat="43.26505" lon="2.47571">
        <ele>181.9</ele>
        <time>2019-06-23T07:34:19.000Z</time>
      </trkpt>
      <trkpt lat="43.26505" lon="2.47568">
        <ele>182.1</ele>
        <time>2019-06-23T07:34:20.000Z</time>
      </trkpt>
      <trkpt lat="43.26506" lon="2.47565">
        <ele>182.3</ele>
        <time>2019-06-23T07:34:21.000Z</time>
      </trkpt>
      <trkpt lat="43.26507" lon="2.47563">
        <ele>182.4</ele>
        <time>2019-06-23T07:34:22.000Z</time>
      </trkpt>
      <trkpt lat="43.26507" lon="2.4756">
        <ele>182.6</ele>
        <time>2019-06-23T07:34:23.000Z</time>
      </trkpt>
      <trkpt lat="43.26507" lon="2.47557">
        <ele>182.7</ele>
        <time>2019-06-23T07:34:24.000Z</time>
      </trkpt>
      <trkpt lat="43.26508" lon="2.47555">
        <ele>182.9</ele>
        <time>2019-06-23T07:34:25.000Z</time>
      </trkpt>
      <trkpt lat="43.26508" lon="2.47552">
        <ele>183</ele>
        <time>2019-06-23T07:34:26.000Z</time>
      </trkpt>
      <trkpt lat="43.26509" lon="2.4755">
        <ele>183.2</ele>
        <time>2019-06-23T07:34:27.000Z</time>
      </trkpt>
      <trkpt lat="43.26509" lon="2.47547">
        <ele>183.3</ele>
        <time>2019-06-23T07:34:28.000Z</time>
      </trkpt>
      <trkpt lat="43.2651" lon="2.47544">
        <ele>183.5</ele>
        <time>2019-06-23T07:34:29.000Z</time>
      </trkpt>
      <trkpt lat="43.2651" lon="2.47542">
        <ele>183.6</ele>
        <time>2019-06-23T07:34:30.000Z</time>
      </trkpt>
      <trkpt lat="43.26511" lon="2.47539">
        <ele>183.7</ele>
        <time>2019-06-23T07:34:31.000Z</time>
      </trkpt>
      <trkpt lat="43.26511" lon="2.47537">
        <ele>183.9</ele>
        <time>2019-06-23T07:34:32.000Z</time>
      </trkpt>
      <trkpt lat="43.26511" lon="2.47534">
        <ele>184</ele>
        <time>2019-06-23T07:34:33.000Z</time>
      </trkpt>
      <trkpt lat="43.26512" lon="2.47531">
        <ele>184.2</ele>
        <time>2019-06-23T07:34:34.000Z</time>
      </trkpt>
      <trkpt lat="43.26512" lon="2.47529">
        <ele>184.3</ele>
        <time>2019-06-23T07:34:35.000Z</time>
      </trkpt>
      <trkpt lat="43.26513" lon="2.47526">
        <ele>184.5</ele>
        <time>2019-06-23T07:34:36.000Z</time>
      </trkpt>
      <trkpt lat="43.26513" lon="2.47524">
        <ele>184.6</ele>
        <time>2019-06-23T07:34:37.000Z</time>
      </trkpt>
      <trkpt lat="43.26514" lon="2.47521">
        <ele>184.7</ele>
        <time>2019-06-23T07:34:38.000Z</time>
      </trkpt>
      <trkpt lat="43.26514" lon="2.47518">
        <ele>184.9</ele>
        <time>2019-06-23T07:34:39.000Z</time>
      </trkpt>
      <trkpt lat="43.26515" lon="2.47516">
        <ele>185</ele>
        <time>2019-06-23T07:34:40.000Z</time>
      </trkpt>
      <trkpt lat="43.26515" lon="2.47513">
        <ele>185.2</ele>
        <time>2019-06-23T07:34:41.000Z</time>
      </trkpt>
      <trkpt lat="43.26515" lon="2.4751">
        <ele>185.3</ele>
        <time>2019-06-23T07:34:42.000Z</time>
      </trkpt>
      <trkpt lat="43.26516" lon="2.47508">
        <ele>185.4</ele>
        <time>2019-06-23T07:34:43.000Z</time>
      </trkpt>
      <trkpt lat="43.26516" lon="2.47505">
        <ele>185.6</ele>
        <time>2019-06-23T07:34:44.000Z</time>
      </trkpt>
      <trkpt lat="43.26516" lon="2.47502">
        <ele>185.7</ele>
        <time>2019-06-23T07:34:45.000Z</time>
      </trkpt>
      <trkpt lat="43.26517" lon="2.47499">
        <ele>185.8</ele>
        <time>2019-06-23T07:34:46.000Z</time>
      </trkpt>
      <trkpt lat="43.26517" lon="2.47496">
        <ele>185.9</ele>
        <time>2019-06-23T07:34:47.000Z</time>
      </trkpt>
      <trkpt lat="43.26517" lon="2.47493">
        <ele>186</ele>
        <time>2019-06-23T07:34:48.000Z</time>
      </trkpt>
      <trkpt lat="43.26517" lon="2.47491">
        <ele>186.1</ele>
        <time>2019-06-23T07:34:49.000Z</time>
      </trkpt>
      <trkpt lat="43.26518" lon="2.47488">
        <ele>186.2</ele>
        <time>2019-06-23T07:34:50.000Z</time>
      </trkpt>
      <trkpt lat="43.26518" lon="2.47485">
        <ele>186.3</ele>
        <time>2019-06-23T07:34:51.000Z</time>
      </trkpt>
      <trkpt lat="43.26518" lon="2.47482">
        <ele>186.4</ele>
        <time>2019-06-23T07:34:52.000Z</time>
      </trkpt>
      <trkpt lat="43.26518" lon="2.47479">
        <ele>186.4</ele>
        <time>2019-06-23T07:34:53.000Z</time>
      </trkpt>
      <trkpt lat="43.26519" lon="2.47476">
        <ele>186.5</ele>
        <time>2019-06-23T07:34:54.000Z</time>
      </trkpt>
      <trkpt lat="43.26519" lon="2.47472">
        <ele>186.6</ele>
        <time>2019-06-23T07:34:55.000Z</time>
      </trkpt>
      <trkpt lat="43.26519" lon="2.47469">
        <ele>186.7</ele>
        <time>2019-06-23T07:34:56.000Z</time>
      </trkpt>
      <trkpt lat="43.2652" lon="2.47466">
        <ele>186.8</ele>
        <time>2019-06-23T07:34:57.000Z</time>
      </trkpt>
      <trkpt lat="43.2652" lon="2.47463">
        <ele>186.9</ele>
        <time>2019-06-23T07:34:58.000Z</time>
      </trkpt>
      <trkpt lat="43.2652" lon="2.4746">
        <ele>187.1</ele>
        <time>2019-06-23T07:34:59.000Z</time>
      </trkpt>
      <trkpt lat="43.26521" lon="2.47456">
        <ele>187.2</ele>
        <time>2019-06-23T07:35:00.000Z</time>
      </trkpt>
      <trkpt lat="43.26521" lon="2.47453">
        <ele>187.3</ele>
        <time>2019-06-23T07:35:01.000Z</time>
      </trkpt>
      <trkpt lat="43.26521" lon="2.4745">
        <ele>187.4</ele>
        <time>2019-06-23T07:35:02.000Z</time>
      </trkpt>
      <trkpt lat="43.26522" lon="2.47446">
        <ele>187.5</ele>
        <time>2019-06-23T07:35:03.000Z</time>
      </trkpt>
      <trkpt lat="43.26522" lon="2.47443">
        <ele>187.6</ele>
        <time>2019-06-23T07:35:04.000Z</time>
      </trkpt>
      <trkpt lat="43.26523" lon="2.47439">
        <ele>187.7</ele>
        <time>2019-06-23T07:35:05.000Z</time>
      </trkpt>
      <trkpt lat="43.26523" lon="2.47436">
        <ele>187.8</ele>
        <time>2019-06-23T07:35:06.000Z</time>
      </trkpt>
      <trkpt lat="43.26523" lon="2.47433">
        <ele>188</ele>
        <time>2019-06-23T07:35:07.000Z</time>
      </trkpt>
      <trkpt lat="43.26524" lon="2.47429">
        <ele>188.1</ele>
        <time>2019-06-23T07:35:08.000Z</time>
      </trkpt>
      <trkpt lat="43.26524" lon="2.47426">
        <ele>188.2</ele>
        <time>2019-06-23T07:35:09.000Z</time>
      </trkpt>
      <trkpt lat="43.26525" lon="2.47423">
        <ele>188.3</ele>
        <time>2019-06-23T07:35:10.000Z</time>
      </trkpt>
      <trkpt lat="43.26526" lon="2.47419">
        <ele>188.5</ele>
        <time>2019-06-23T07:35:11.000Z</time>
      </trkpt>
      <trkpt lat="43.26526" lon="2.47416">
        <ele>188.6</ele>
        <time>2019-06-23T07:35:12.000Z</time>
      </trkpt>
      <trkpt lat="43.26527" lon="2.47413">
        <ele>188.7</ele>
        <time>2019-06-23T07:35:13.000Z</time>
      </trkpt>
      <trkpt lat="43.26527" lon="2.4741">
        <ele>188.9</ele>
        <time>2019-06-23T07:35:14.000Z</time>
      </trkpt>
      <trkpt lat="43.26528" lon="2.47406">
        <ele>189</ele>
        <time>2019-06-23T07:35:15.000Z</time>
      </trkpt>
      <trkpt lat="43.26529" lon="2.47403">
        <ele>189.1</ele>
        <time>2019-06-23T07:35:16.000Z</time>
      </trkpt>
      <trkpt lat="43.26529" lon="2.474">
        <ele>189.3</ele>
        <time>2019-06-23T07:35:17.000Z</time>
      </trkpt>
      <trkpt lat="43.2653" lon="2.47397">
        <ele>189.4</ele>
        <time>2019-06-23T07:35:18.000Z</time>
      </trkpt>
      <trkpt lat="43.26531" lon="2.47394">
        <ele>189.5</ele>
        <time>2019-06-23T07:35:19.000Z</time>
      </trkpt>
      <trkpt lat="43.26531" lon="2.47391">
        <ele>189.6</ele>
        <time>2019-06-23T07:35:20.000Z</time>
      </trkpt>
      <trkpt lat="43.26532" lon="2.47388">
        <ele>189.8</ele>
        <time>2019-06-23T07:35:21.000Z</time>
      </trkpt>
      <trkpt lat="43.26533" lon="2.47386">
        <ele>189.9</ele>
        <time>2019-06-23T07:35:22.000Z</time>
      </trkpt>
      <trkpt lat="43.26533" lon="2.47383">
        <ele>190</ele>
        <time>2019-06-23T07:35:23.000Z</time>
      </trkpt>
      <trkpt lat="43.26534" lon="2.4738">
        <ele>190.1</ele>
        <time>2019-06-23T07:35:24.000Z</time>
      </trkpt>
      <trkpt lat="43.26535" lon="2.47377">
        <ele>190.2</ele>
        <time>2019-06-23T07:35:25.000Z</time>
      </trkpt>
      <trkpt lat="43.26535" lon="2.47374">
        <ele>190.3</ele>
        <time>2019-06-23T07:35:26.000Z</time>
      </trkpt>
      <trkpt lat="43.26536" lon="2.47371">
        <ele>190.4</ele>
        <time>2019-06-23T07:35:27.000Z</time>
      </trkpt>
      <trkpt lat="43.26537" lon="2.47369">
        <ele>190.5</ele>
        <time>2019-06-23T07:35:28.000Z</time>
      </trkpt>
      <trkpt lat="43.26537" lon="2.47366">
        <ele>190.6</ele>
        <time>2019-06-23T07:35:29.000Z</time>
      </trkpt>
      <trkpt lat="43.26538" lon="2.47363">
        <ele>190.7</ele>
        <time>2019-06-23T07:35:30.000Z</time>
      </trkpt>
      <trkpt lat="43.26538" lon="2.4736">
        <ele>190.8</ele>
        <time>2019-06-23T07:35:31.000Z</time>
      </trkpt>
      <trkpt lat="43.26539" lon="2.47358">
        <ele>190.8</ele>
        <time>2019-06-23T07:35:32.000Z</time>
      </trkpt>
      <trkpt lat="43.2654" lon="2.47355">
        <ele>190.9</ele>
        <time>2019-06-23T07:35:33.000Z</time>
      </trkpt>
      <trkpt lat="43.2654" lon="2.47352">
        <ele>191</ele>
        <time>2019-06-23T07:35:34.000Z</time>
      </trkpt>
      <trkpt lat="43.26541" lon="2.47349">
        <ele>191.1</ele>
        <time>2019-06-23T07:35:35.000Z</time>
      </trkpt>
      <trkpt lat="43.26541" lon="2.47347">
        <ele>191.2</ele>
        <time>2019-06-23T07:35:36.000Z</time>
      </trkpt>
      <trkpt lat="43.26542" lon="2.47344">
        <ele>191.2</ele>
        <time>2019-06-23T07:35:37.000Z</time>
      </trkpt>
      <trkpt lat="43.26542" lon="2.47341">
        <ele>191.3</ele>
        <time>2019-06-23T07:35:38.000Z</time>
      </trkpt>
      <trkpt lat="43.26543" lon="2.47338">
        <ele>191.4</ele>
        <time>2019-06-23T07:35:39.000Z</time>
      </trkpt>
      <trkpt lat="43.26543" lon="2.47336">
        <ele>191.5</ele>
        <time>2019-06-23T07:35:40.000Z</time>
      </trkpt>
      <trkpt lat="43.26544" lon="2.47333">
        <ele>191.5</ele>
        <time>2019-06-23T07:35:41.000Z</time>
      </trkpt>
      <trkpt lat="43.26544" lon="2.4733">
        <ele>191.6</ele>
        <time>2019-06-23T07:35:42.000Z</time>
      </trkpt>
      <trkpt lat="43.26544" lon="2.47327">
        <ele>191.7</ele>
        <time>2019-06-23T07:35:43.000Z</time>
      </trkpt>
      <trkpt lat="43.26545" lon="2.47324">
        <ele>191.8</ele>
        <time>2019-06-23T07:35:44.000Z</time>
      </trkpt>
      <trkpt lat="43.26545" lon="2.47321">
        <ele>191.9</ele>
        <time>2019-06-23T07:35:45.000Z</time>
      </trkpt>
      <trkpt lat="43.26545" lon="2.47318">
        <ele>192</ele>
        <time>2019-06-23T07:35:46.000Z</time>
      </trkpt>
      <trkpt lat="43.26546" lon="2.47315">
        <ele>192.1</ele>
        <time>2019-06-23T07:35:47.000Z</time>
      </trkpt>
      <trkpt lat="43.26546" lon="2.47311">
        <ele>192.2</ele>
        <time>2019-06-23T07:35:48.000Z</time>
      </trkpt>
      <trkpt lat="43.26546" lon="2.47308">
        <ele>192.3</ele>
        <time>2019-06-23T07:35:49.000Z</time>
      </trkpt>
      <trkpt lat="43.26546" lon="2.47305">
        <ele>192.4</ele>
        <time>2019-06-23T07:35:50.000Z</time>
      </trkpt>
      <trkpt lat="43.26546" lon="2.47302">
        <ele>192.5</ele>
        <time>2019-06-23T07:35:51.000Z</time>
      </trkpt>
      <trkpt lat="43.26547" lon="2.47299">
        <ele>192.6</ele>
        <time>2019-06-23T07:35:52.000Z</time>
      </trkpt>
      <trkpt lat="43.26547" lon="2.47296">
        <ele>192.7</ele>
        <time>2019-06-23T07:35:53.000Z</time>
      </trkpt>
      <trkpt lat="43.26547" lon="2.47293">
        <ele>192.7</ele>
        <time>2019-06-23T07:35:54.000Z</time>
      </trkpt>
      <trkpt lat="43.26547" lon="2.4729">
        <ele>192.8</ele>
        <time>2019-06-23T07:35:55.000Z</time>
      </trkpt>
      <trkpt lat="43.26547" lon="2.47288">
        <ele>192.9</ele>
        <time>2019-06-23T07:35:56.000Z</time>
      </trkpt>
      <trkpt lat="43.26547" lon="2.47285">
        <ele>193</ele>
        <time>2019-06-23T07:35:57.000Z</time>
      </trkpt>
      <trkpt lat="43.26546" lon="2.47283">
        <ele>193</ele>
        <time>2019-06-23T07:35:58.000Z</time>
      </trkpt>
      <trkpt lat="43.26545" lon="2.47281">
        <ele>193.1</ele>
        <time>2019-06-23T07:35:59.000Z</time>
      </trkpt>
      <trkpt lat="43.26545" lon="2.47279">
        <ele>193.1</ele>
        <time>2019-06-23T07:36:00.000Z</time>
      </trkpt>
      <trkpt lat="43.26543" lon="2.47277">
        <ele>193.2</ele>
        <time>2019-06-23T07:36:01.000Z</time>
      </trkpt>
      <trkpt lat="43.26542" lon="2.47275">
        <ele>193.3</ele>
        <time>2019-06-23T07:36:02.000Z</time>
      </trkpt>
      <trkpt lat="43.26541" lon="2.47273">
        <ele>193.3</ele>
        <time>2019-06-23T07:36:03.000Z</time>
      </trkpt>
      <trkpt lat="43.2654" lon="2.47271">
        <ele>193.4</ele>
        <time>2019-06-23T07:36:04.000Z</time>
      </trkpt>
      <trkpt lat="43.26539" lon="2.4727">
        <ele>193.4</ele>
        <time>2019-06-23T07:36:05.000Z</time>
      </trkpt>
      <trkpt lat="43.26538" lon="2.47268">
        <ele>193.4</ele>
        <time>2019-06-23T07:36:06.000Z</time>
      </trkpt>
      <trkpt lat="43.26537" lon="2.47267">
        <ele>193.5</ele>
        <time>2019-06-23T07:36:07.000Z</time>
      </trkpt>
      <trkpt lat="43.26537" lon="2.47265">
        <ele>193.5</ele>
        <time>2019-06-23T07:36:08.000Z</time>
      </trkpt>
      <trkpt lat="43.26536" lon="2.47264">
        <ele>193.6</ele>
        <time>2019-06-23T07:36:09.000Z</time>
      </trkpt>
      <trkpt lat="43.26536" lon="2.47263">
        <ele>193.6</ele>
        <time>2019-06-23T07:36:10.000Z</time>
      </trkpt>
      <trkpt lat="43.26536" lon="2.47262">
        <ele>193.6</ele>
        <time>2019-06-23T07:36:11.000Z</time>
      </trkpt>
      <trkpt lat="43.26536" lon="2.4726">
        <ele>193.7</ele>
        <time>2019-06-23T07:36:12.000Z</time>
      </trkpt>
      <trkpt lat="43.26537" lon="2.47259">
        <ele>193.7</ele>
        <time>2019-06-23T07:36:13.000Z</time>
      </trkpt>
      <trkpt lat="43.26537" lon="2.47258">
        <ele>193.8</ele>
        <time>2019-06-23T07:36:14.000Z</time>
      </trkpt>
      <trkpt lat="43.26537" lon="2.47256">
        <ele>193.8</ele>
        <time>2019-06-23T07:36:15.000Z</time>
      </trkpt>
      <trkpt lat="43.26536" lon="2.47255">
        <ele>193.9</ele>
        <time>2019-06-23T07:36:16.000Z</time>
      </trkpt>
      <trkpt lat="43.26536" lon="2.47253">
        <ele>193.9</ele>
        <time>2019-06-23T07:36:17.000Z</time>
      </trkpt>
      <trkpt lat="43.26536" lon="2.47251">
        <ele>194</ele>
        <time>2019-06-23T07:36:18.000Z</time>
      </trkpt>
      <trkpt lat="43.26536" lon="2.4725">
        <ele>194</ele>
        <time>2019-06-23T07:36:19.000Z</time>
      </trkpt>
      <trkpt lat="43.26535" lon="2.47248">
        <ele>194</ele>
        <time>2019-06-23T07:36:20.000Z</time>
      </trkpt>
      <trkpt lat="43.26535" lon="2.47247">
        <ele>194.1</ele>
        <time>2019-06-23T07:36:21.000Z</time>
      </trkpt>
      <trkpt lat="43.26535" lon="2.47246">
        <ele>194.1</ele>
        <time>2019-06-23T07:36:22.000Z</time>
      </trkpt>
      <trkpt lat="43.26535" lon="2.47245">
        <ele>194.1</ele>
        <time>2019-06-23T07:36:23.000Z</time>
      </trkpt>
      <trkpt lat="43.26534" lon="2.47244">
        <ele>194.1</ele>
        <time>2019-06-23T07:36:24.000Z</time>
      </trkpt>
      <trkpt lat="43.26534" lon="2.47244">
        <ele>194.1</ele>
        <time>2019-06-23T07:36:25.000Z</time>
      </trkpt>
      <trkpt lat="43.26534" lon="2.47243">
        <ele>194.2</ele>
        <time>2019-06-23T07:36:26.000Z</time>
      </trkpt>
      <trkpt lat="43.26534" lon="2.47243">
        <ele>194.2</ele>
        <time>2019-06-23T07:36:27.000Z</time>
      </trkpt>
      <trkpt lat="43.26534" lon="2.47243">
        <ele>194.2</ele>
        <time>2019-06-23T07:36:28.000Z</time>
      </trkpt>
      <trkpt lat="43.26534" lon="2.47243">
        <ele>194.2</ele>
        <time>2019-06-23T07:36:29.000Z</time>
      </trkpt>
      <trkpt lat="43.26534" lon="2.47243">
        <ele>194.2</ele>
        <time>2019-06-23T07:36:30.000Z</time>
      </trkpt>
      <trkpt lat="43.26534" lon="2.47243">
        <ele>194.2</ele>
        <time>2019-06-23T07:36:31.000Z</time>
      </trkpt>
      <trkpt lat="43.26534" lon="2.47243">
        <ele>194.2</ele>
        <time>2019-06-23T07:36:32.000Z</time>
      </trkpt>
      <trkpt lat="43.26534" lon="2.47243">
        <ele>194.2</ele>
        <time>2019-06-23T07:36:33.000Z</time>
      </trkpt>
      <trkpt lat="43.26534" lon="2.47243">
        <ele>194.2</ele>
        <time>2019-06-23T07:36:34.000Z</time>
      </trkpt>
      <trkpt lat="43.26534" lon="2.47243">
        <ele>194.2</ele>
        <time>2019-06-23T07:36:35.000Z</time>
      </trkpt>
      <trkpt lat="43.26534" lon="2.47243">
        <ele>194.2</ele>
        <time>2019-06-23T07:36:36.000Z</time>
      </trkpt>
      <trkpt lat="43.26534" lon="2.47243">
        <ele>194.2</ele>
        <time>2019-06-23T07:36:37.000Z</time>
      </trkpt>
      <trkpt lat="43.26534" lon="2.47243">
        <ele>194.2</ele>
        <time>2019-06-23T07:36:38.000Z</time>
      </trkpt>
      <trkpt lat="43.26534" lon="2.47243">
        <ele>194.2</ele>
        <time>2019-06-23T07:36:39.000Z</time>
      </trkpt>
      <trkpt lat="43.26534" lon="2.47243">
        <ele>194.2</ele>
        <time>2019-06-23T07:36:40.000Z</time>
      </trkpt>
      <trkpt lat="43.26534" lon="2.47243">
        <ele>194.2</ele>
        <time>2019-06-23T07:36:41.000Z</time>
      </trkpt>
      <trkpt lat="43.26534" lon="2.47243">
        <ele>194.2</ele>
        <time>2019-06-23T07:36:42.000Z</time>
      </trkpt>
      <trkpt lat="43.26534" lon="2.47242">
        <ele>194.2</ele>
        <time>2019-06-23T07:36:43.000Z</time>
      </trkpt>
      <trkpt lat="43.26534" lon="2.47242">
        <ele>194.2</ele>
        <time>2019-06-23T07:36:44.000Z</time>
      </trkpt>
      <trkpt lat="43.26534" lon="2.47242">
        <ele>194.2</ele>
        <time>2019-06-23T07:36:45.000Z</time>
      </trkpt>
      <trkpt lat="43.26534" lon="2.47242">
        <ele>194.2</ele>
        <time>2019-06-23T07:36:46.000Z</time>
      </trkpt>
      <trkpt lat="43.26534" lon="2.47242">
        <ele>194.2</ele>
        <time>2019-06-23T07:36:47.000Z</time>
      </trkpt>
      <trkpt lat="43.26533" lon="2.47242">
        <ele>194.2</ele>
        <time>2019-06-23T07:36:48.000Z</time>
      </trkpt>
      <trkpt lat="43.26533" lon="2.47242">
        <ele>194.2</ele>
        <time>2019-06-23T07:36:49.000Z</time>
      </trkpt>
      <trkpt lat="43.26533" lon="2.47242">
        <ele>194.2</ele>
        <time>2019-06-23T07:36:50.000Z</time>
      </trkpt>
      <trkpt lat="43.26533" lon="2.47241">
        <ele>194.2</ele>
        <time>2019-06-23T07:36:51.000Z</time>
      </trkpt>
      <trkpt lat="43.26533" lon="2.47241">
        <ele>194.2</ele>
        <time>2019-06-23T07:36:52.000Z</time>
      </trkpt>
      <trkpt lat="43.26533" lon="2.47241">
        <ele>194.2</ele>
        <time>2019-06-23T07:36:53.000Z</time>
      </trkpt>
      <trkpt lat="43.26533" lon="2.47241">
        <ele>194.2</ele>
        <time>2019-06-23T07:36:54.000Z</time>
      </trkpt>
      <trkpt lat="43.26533" lon="2.47241">
        <ele>194.2</ele>
        <time>2019-06-23T07:36:55.000Z</time>
      </trkpt>
      <trkpt lat="43.26533" lon="2.47241">
        <ele>194.2</ele>
        <time>2019-06-23T07:36:56.000Z</time>
      </trkpt>
      <trkpt lat="43.26533" lon="2.4724">
        <ele>194.2</ele>
        <time>2019-06-23T07:36:57.000Z</time>
      </trkpt>
      <trkpt lat="43.26533" lon="2.4724">
        <ele>194.2</ele>
        <time>2019-06-23T07:36:58.000Z</time>
      </trkpt>
      <trkpt lat="43.26533" lon="2.4724">
        <ele>194.2</ele>
        <time>2019-06-23T07:36:59.000Z</time>
      </trkpt>
      <trkpt lat="43.26533" lon="2.4724">
        <ele>194.2</ele>
        <time>2019-06-23T07:37:00.000Z</time>
      </trkpt>
      <trkpt lat="43.26533" lon="2.4724">
        <ele>194.2</ele>
        <time>2019-06-23T07:37:01.000Z</time>
      </trkpt>
      <trkpt lat="43.26533" lon="2.4724">
        <ele>194.2</ele>
        <time>2019-06-23T07:37:02.000Z</time>
      </trkpt>
      <trkpt lat="43.26533" lon="2.4724">
        <ele>194.2</ele>
        <time>2019-06-23T07:37:03.000Z</time>
      </trkpt>
      <trkpt lat="43.26533" lon="2.4724">
        <ele>194.2</ele>
        <time>2019-06-23T07:37:04.000Z</time>
      </trkpt>
      <trkpt lat="43.26533" lon="2.4724">
        <ele>194.2</ele>
        <time>2019-06-23T07:37:05.000Z</time>
      </trkpt>
      <trkpt lat="43.26533" lon="2.4724">
        <ele>194.2</ele>
        <time>2019-06-23T07:37:06.000Z</time>
      </trkpt>
      <trkpt lat="43.26533" lon="2.4724">
        <ele>194.2</ele>
        <time>2019-06-23T07:37:07.000Z</time>
      </trkpt>
      <trkpt lat="43.26533" lon="2.4724">
        <ele>194.2</ele>
        <time>2019-06-23T07:37:08.000Z</time>
      </trkpt>
      <trkpt lat="43.26533" lon="2.4724">
        <ele>194.2</ele>
        <time>2019-06-23T07:37:09.000Z</time>
      </trkpt>
      <trkpt lat="43.26533" lon="2.4724">
        <ele>194.2</ele>
        <time>2019-06-23T07:37:10.000Z</time>
      </trkpt>
      <trkpt lat="43.26533" lon="2.4724">
        <ele>194.2</ele>
        <time>2019-06-23T07:37:11.000Z</time>
      </trkpt>
      <trkpt lat="43.26533" lon="2.4724">
        <ele>194.2</ele>
        <time>2019-06-23T07:37:12.000Z</time>
      </trkpt>
      <trkpt lat="43.26532" lon="2.4724">
        <ele>194.2</ele>
        <time>2019-06-23T07:37:13.000Z</time>
      </trkpt>
      <trkpt lat="43.26532" lon="2.47239">
        <ele>194.2</ele>
        <time>2019-06-23T07:37:14.000Z</time>
      </trkpt>
      <trkpt lat="43.26532" lon="2.47239">
        <ele>194.2</ele>
        <time>2019-06-23T07:37:15.000Z</time>
      </trkpt>
      <trkpt lat="43.26532" lon="2.47238">
        <ele>194.2</ele>
        <time>2019-06-23T07:37:16.000Z</time>
      </trkpt>
      <trkpt lat="43.26532" lon="2.47238">
        <ele>194.3</ele>
        <time>2019-06-23T07:37:17.000Z</time>
      </trkpt>
      <trkpt lat="43.26532" lon="2.47237">
        <ele>194.3</ele>
        <time>2019-06-23T07:37:18.000Z</time>
      </trkpt>
      <trkpt lat="43.26532" lon="2.47237">
        <ele>194.3</ele>
        <time>2019-06-23T07:37:19.000Z</time>
      </trkpt>
      <trkpt lat="43.26532" lon="2.47236">
        <ele>194.3</ele>
        <time>2019-06-23T07:37:20.000Z</time>
      </trkpt>
      <trkpt lat="43.26532" lon="2.47236">
        <ele>194.3</ele>
        <time>2019-06-23T07:37:21.000Z</time>
      </trkpt>
      <trkpt lat="43.26532" lon="2.47235">
        <ele>194.3</ele>
        <time>2019-06-23T07:37:22.000Z</time>
      </trkpt>
      <trkpt lat="43.26532" lon="2.47235">
        <ele>194.3</ele>
        <time>2019-06-23T07:37:23.000Z</time>
      </trkpt>
      <trkpt lat="43.26532" lon="2.47235">
        <ele>194.3</ele>
        <time>2019-06-23T07:37:24.000Z</time>
      </trkpt>
      <trkpt lat="43.26532" lon="2.47235">
        <ele>194.3</ele>
        <time>2019-06-23T07:37:25.000Z</time>
      </trkpt>
      <trkpt lat="43.26532" lon="2.47235">
        <ele>194.3</ele>
        <time>2019-06-23T07:37:26.000Z</time>
      </trkpt>
      <trkpt lat="43.26532" lon="2.47235">
        <ele>194.3</ele>
        <time>2019-06-23T07:37:27.000Z</time>
      </trkpt>
      <trkpt lat="43.26532" lon="2.47235">
        <ele>194.3</ele>
        <time>2019-06-23T07:37:28.000Z</time>
      </trkpt>
      <trkpt lat="43.26532" lon="2.47235">
        <ele>194.3</ele>
        <time>2019-06-23T07:37:29.000Z</time>
      </trkpt>
      <trkpt lat="43.26532" lon="2.47235">
        <ele>194.3</ele>
        <time>2019-06-23T07:37:30.000Z</time>
      </trkpt>
      <trkpt lat="43.26532" lon="2.47234">
        <ele>194.3</ele>
        <time>2019-06-23T07:37:31.000Z</time>
      </trkpt>
      <trkpt lat="43.26532" lon="2.47233">
        <ele>194.4</ele>
        <time>2019-06-23T07:37:32.000Z</time>
      </trkpt>
      <trkpt lat="43.26532" lon="2.47232">
        <ele>194.4</ele>
        <time>2019-06-23T07:37:33.000Z</time>
      </trkpt>
      <trkpt lat="43.26531" lon="2.47231">
        <ele>194.4</ele>
        <time>2019-06-23T07:37:34.000Z</time>
      </trkpt>
      <trkpt lat="43.26531" lon="2.47229">
        <ele>194.4</ele>
        <time>2019-06-23T07:37:35.000Z</time>
      </trkpt>
      <trkpt lat="43.26531" lon="2.47228">
        <ele>194.5</ele>
        <time>2019-06-23T07:37:36.000Z</time>
      </trkpt>
      <trkpt lat="43.2653" lon="2.47226">
        <ele>194.5</ele>
        <time>2019-06-23T07:37:37.000Z</time>
      </trkpt>
      <trkpt lat="43.2653" lon="2.47224">
        <ele>194.5</ele>
        <time>2019-06-23T07:37:38.000Z</time>
      </trkpt>
      <trkpt lat="43.26529" lon="2.47221">
        <ele>194.6</ele>
        <time>2019-06-23T07:37:39.000Z</time>
      </trkpt>
      <trkpt lat="43.26528" lon="2.47219">
        <ele>194.6</ele>
        <time>2019-06-23T07:37:40.000Z</time>
      </trkpt>
      <trkpt lat="43.26527" lon="2.47217">
        <ele>194.7</ele>
        <time>2019-06-23T07:37:41.000Z</time>
      </trkpt>
      <trkpt lat="43.26526" lon="2.47215">
        <ele>194.7</ele>
        <time>2019-06-23T07:37:42.000Z</time>
      </trkpt>
      <trkpt lat="43.26525" lon="2.47212">
        <ele>194.7</ele>
        <time>2019-06-23T07:37:43.000Z</time>
      </trkpt>
      <trkpt lat="43.26524" lon="2.4721">
        <ele>194.8</ele>
        <time>2019-06-23T07:37:44.000Z</time>
      </trkpt>
      <trkpt lat="43.26524" lon="2.47208">
        <ele>194.8</ele>
        <time>2019-06-23T07:37:45.000Z</time>
      </trkpt>
      <trkpt lat="43.26523" lon="2.47205">
        <ele>194.8</ele>
        <time>2019-06-23T07:37:46.000Z</time>
      </trkpt>
      <trkpt lat="43.26522" lon="2.47202">
        <ele>194.9</ele>
        <time>2019-06-23T07:37:47.000Z</time>
      </trkpt>
      <trkpt lat="43.26522" lon="2.472">
        <ele>194.9</ele>
        <time>2019-06-23T07:37:48.000Z</time>
      </trkpt>
      <trkpt lat="43.26522" lon="2.47197">
        <ele>195</ele>
        <time>2019-06-23T07:37:49.000Z</time>
      </trkpt>
      <trkpt lat="43.26522" lon="2.47194">
        <ele>195</ele>
        <time>2019-06-23T07:37:50.000Z</time>
      </trkpt>
      <trkpt lat="43.26522" lon="2.47191">
        <ele>195.1</ele>
        <time>2019-06-23T07:37:51.000Z</time>
      </trkpt>
      <trkpt lat="43.26522" lon="2.47188">
        <ele>195.1</ele>
        <time>2019-06-23T07:37:52.000Z</time>
      </trkpt>
      <trkpt lat="43.26522" lon="2.47186">
        <ele>195.2</ele>
        <time>2019-06-23T07:37:53.000Z</time>
      </trkpt>
      <trkpt lat="43.26522" lon="2.47183">
        <ele>195.2</ele>
        <time>2019-06-23T07:37:54.000Z</time>
      </trkpt>
      <trkpt lat="43.26522" lon="2.4718">
        <ele>195.3</ele>
        <time>2019-06-23T07:37:55.000Z</time>
      </trkpt>
      <trkpt lat="43.26522" lon="2.47177">
        <ele>195.3</ele>
        <time>2019-06-23T07:37:56.000Z</time>
      </trkpt>
      <trkpt lat="43.26522" lon="2.47174">
        <ele>195.4</ele>
        <time>2019-06-23T07:37:57.000Z</time>
      </trkpt>
      <trkpt lat="43.26522" lon="2.47172">
        <ele>195.4</ele>
        <time>2019-06-23T07:37:58.000Z</time>
      </trkpt>
      <trkpt lat="43.26522" lon="2.47169">
        <ele>195.5</ele>
        <time>2019-06-23T07:37:59.000Z</time>
      </trkpt>
      <trkpt lat="43.26522" lon="2.47166">
        <ele>195.6</ele>
        <time>2019-06-23T07:38:00.000Z</time>
      </trkpt>
      <trkpt lat="43.26523" lon="2.47163">
        <ele>195.7</ele>
        <time>2019-06-23T07:38:01.000Z</time>
      </trkpt>
      <trkpt lat="43.26523" lon="2.4716">
        <ele>195.8</ele>
        <time>2019-06-23T07:38:02.000Z</time>
      </trkpt>
      <trkpt lat="43.26523" lon="2.47157">
        <ele>195.9</ele>
        <time>2019-06-23T07:38:03.000Z</time>
      </trkpt>
      <trkpt lat="43.26523" lon="2.47153">
        <ele>196.1</ele>
        <time>2019-06-23T07:38:04.000Z</time>
      </trkpt>
      <trkpt lat="43.26523" lon="2.4715">
        <ele>196.2</ele>
        <time>2019-06-23T07:38:05.000Z</time>
      </trkpt>
      <trkpt lat="43.26523" lon="2.47147">
        <ele>196.3</ele>
        <time>2019-06-23T07:38:06.000Z</time>
      </trkpt>
      <trkpt lat="43.26523" lon="2.47143">
        <ele>196.5</ele>
        <time>2019-06-23T07:38:07.000Z</time>
      </trkpt>
      <trkpt lat="43.26523" lon="2.4714">
        <ele>196.6</ele>
        <time>2019-06-23T07:38:08.000Z</time>
      </trkpt>
      <trkpt lat="43.26522" lon="2.47136">
        <ele>196.7</ele>
        <time>2019-06-23T07:38:09.000Z</time>
      </trkpt>
      <trkpt lat="43.26522" lon="2.47132">
        <ele>196.9</ele>
        <time>2019-06-23T07:38:10.000Z</time>
      </trkpt>
      <trkpt lat="43.26521" lon="2.47129">
        <ele>197</ele>
        <time>2019-06-23T07:38:11.000Z</time>
      </trkpt>
      <trkpt lat="43.2652" lon="2.47125">
        <ele>197.1</ele>
        <time>2019-06-23T07:38:12.000Z</time>
      </trkpt>
      <trkpt lat="43.26519" lon="2.47122">
        <ele>197.2</ele>
        <time>2019-06-23T07:38:13.000Z</time>
      </trkpt>
      <trkpt lat="43.26519" lon="2.47118">
        <ele>197.3</ele>
        <time>2019-06-23T07:38:14.000Z</time>
      </trkpt>
      <trkpt lat="43.26518" lon="2.47114">
        <ele>197.4</ele>
        <time>2019-06-23T07:38:15.000Z</time>
      </trkpt>
      <trkpt lat="43.26517" lon="2.47111">
        <ele>197.6</ele>
        <time>2019-06-23T07:38:16.000Z</time>
      </trkpt>
      <trkpt lat="43.26516" lon="2.47107">
        <ele>197.7</ele>
        <time>2019-06-23T07:38:17.000Z</time>
      </trkpt>
      <trkpt lat="43.26516" lon="2.47103">
        <ele>197.8</ele>
        <time>2019-06-23T07:38:18.000Z</time>
      </trkpt>
      <trkpt lat="43.26515" lon="2.471">
        <ele>197.9</ele>
        <time>2019-06-23T07:38:19.000Z</time>
      </trkpt>
      <trkpt lat="43.26515" lon="2.47097">
        <ele>198</ele>
        <time>2019-06-23T07:38:20.000Z</time>
      </trkpt>
      <trkpt lat="43.26515" lon="2.47093">
        <ele>198.2</ele>
        <time>2019-06-23T07:38:21.000Z</time>
      </trkpt>
      <trkpt lat="43.26515" lon="2.4709">
        <ele>198.3</ele>
        <time>2019-06-23T07:38:22.000Z</time>
      </trkpt>
      <trkpt lat="43.26515" lon="2.47087">
        <ele>198.4</ele>
        <time>2019-06-23T07:38:23.000Z</time>
      </trkpt>
      <trkpt lat="43.26515" lon="2.47084">
        <ele>198.5</ele>
        <time>2019-06-23T07:38:24.000Z</time>
      </trkpt>
      <trkpt lat="43.26515" lon="2.47081">
        <ele>198.7</ele>
        <time>2019-06-23T07:38:25.000Z</time>
      </trkpt>
      <trkpt lat="43.26516" lon="2.47078">
        <ele>198.8</ele>
        <time>2019-06-23T07:38:26.000Z</time>
      </trkpt>
      <trkpt lat="43.26516" lon="2.47076">
        <ele>198.9</ele>
        <time>2019-06-23T07:38:27.000Z</time>
      </trkpt>
      <trkpt lat="43.26516" lon="2.47073">
        <ele>199</ele>
        <time>2019-06-23T07:38:28.000Z</time>
      </trkpt>
      <trkpt lat="43.26515" lon="2.47071">
        <ele>199.1</ele>
        <time>2019-06-23T07:38:29.000Z</time>
      </trkpt>
      <trkpt lat="43.26514" lon="2.47069">
        <ele>199.1</ele>
        <time>2019-06-23T07:38:30.000Z</time>
      </trkpt>
      <trkpt lat="43.26512" lon="2.47068">
        <ele>199.2</ele>
        <time>2019-06-23T07:38:31.000Z</time>
      </trkpt>
      <trkpt lat="43.2651" lon="2.47066">
        <ele>199.2</ele>
        <time>2019-06-23T07:38:32.000Z</time>
      </trkpt>
      <trkpt lat="43.26508" lon="2.47065">
        <ele>199.2</ele>
        <time>2019-06-23T07:38:33.000Z</time>
      </trkpt>
      <trkpt lat="43.26507" lon="2.47064">
        <ele>199.1</ele>
        <time>2019-06-23T07:38:34.000Z</time>
      </trkpt>
      <trkpt lat="43.26505" lon="2.47063">
        <ele>199.1</ele>
        <time>2019-06-23T07:38:35.000Z</time>
      </trkpt>
      <trkpt lat="43.26503" lon="2.47062">
        <ele>199.1</ele>
        <time>2019-06-23T07:38:36.000Z</time>
      </trkpt>
      <trkpt lat="43.26501" lon="2.47061">
        <ele>199.1</ele>
        <time>2019-06-23T07:38:37.000Z</time>
      </trkpt>
      <trkpt lat="43.26499" lon="2.4706">
        <ele>199.1</ele>
        <time>2019-06-23T07:38:38.000Z</time>
      </trkpt>
      <trkpt lat="43.26497" lon="2.4706">
        <ele>199.1</ele>
        <time>2019-06-23T07:38:39.000Z</time>
      </trkpt>
      <trkpt lat="43.26495" lon="2.47059">
        <ele>199.1</ele>
        <time>2019-06-23T07:38:40.000Z</time>
      </trkpt>
      <trkpt lat="43.26493" lon="2.47058">
        <ele>199.1</ele>
        <time>2019-06-23T07:38:41.000Z</time>
      </trkpt>
      <trkpt lat="43.26491" lon="2.47057">
        <ele>199.2</ele>
        <time>2019-06-23T07:38:42.000Z</time>
      </trkpt>
      <trkpt lat="43.26489" lon="2.47056">
        <ele>199.2</ele>
        <time>2019-06-23T07:38:43.000Z</time>
      </trkpt>
      <trkpt lat="43.26487" lon="2.47055">
        <ele>199.2</ele>
        <time>2019-06-23T07:38:44.000Z</time>
      </trkpt>
      <trkpt lat="43.26485" lon="2.47054">
        <ele>199.3</ele>
        <time>2019-06-23T07:38:45.000Z</time>
      </trkpt>
      <trkpt lat="43.26483" lon="2.47052">
        <ele>199.3</ele>
        <time>2019-06-23T07:38:46.000Z</time>
      </trkpt>
      <trkpt lat="43.26481" lon="2.47051">
        <ele>199.3</ele>
        <time>2019-06-23T07:38:47.000Z</time>
      </trkpt>
      <trkpt lat="43.26478" lon="2.4705">
        <ele>199.3</ele>
        <time>2019-06-23T07:38:48.000Z</time>
      </trkpt>
      <trkpt lat="43.26476" lon="2.47049">
        <ele>199.4</ele>
        <time>2019-06-23T07:38:49.000Z</time>
      </trkpt>
      <trkpt lat="43.26474" lon="2.47048">
        <ele>199.4</ele>
        <time>2019-06-23T07:38:50.000Z</time>
      </trkpt>
      <trkpt lat="43.26472" lon="2.47047">
        <ele>199.4</ele>
        <time>2019-06-23T07:38:51.000Z</time>
      </trkpt>
      <trkpt lat="43.26469" lon="2.47046">
        <ele>199.4</ele>
        <time>2019-06-23T07:38:52.000Z</time>
      </trkpt>
      <trkpt lat="43.26467" lon="2.47045">
        <ele>199.4</ele>
        <time>2019-06-23T07:38:53.000Z</time>
      </trkpt>
      <trkpt lat="43.26465" lon="2.47044">
        <ele>199.4</ele>
        <time>2019-06-23T07:38:54.000Z</time>
      </trkpt>
      <trkpt lat="43.26463" lon="2.47044">
        <ele>199.5</ele>
        <time>2019-06-23T07:38:55.000Z</time>
      </trkpt>
      <trkpt lat="43.2646" lon="2.47043">
        <ele>199.5</ele>
        <time>2019-06-23T07:38:56.000Z</time>
      </trkpt>
      <trkpt lat="43.26458" lon="2.47042">
        <ele>199.5</ele>
        <time>2019-06-23T07:38:57.000Z</time>
      </trkpt>
      <trkpt lat="43.26456" lon="2.47041">
        <ele>199.5</ele>
        <time>2019-06-23T07:38:58.000Z</time>
      </trkpt>
      <trkpt lat="43.26453" lon="2.4704">
        <ele>199.5</ele>
        <time>2019-06-23T07:38:59.000Z</time>
      </trkpt>
      <trkpt lat="43.26451" lon="2.47039">
        <ele>199.5</ele>
        <time>2019-06-23T07:39:00.000Z</time>
      </trkpt>
      <trkpt lat="43.26449" lon="2.47038">
        <ele>199.5</ele>
        <time>2019-06-23T07:39:01.000Z</time>
      </trkpt>
      <trkpt lat="43.26446" lon="2.47038">
        <ele>199.5</ele>
        <time>2019-06-23T07:39:02.000Z</time>
      </trkpt>
      <trkpt lat="43.26444" lon="2.47037">
        <ele>199.6</ele>
        <time>2019-06-23T07:39:03.000Z</time>
      </trkpt>
      <trkpt lat="43.26442" lon="2.47036">
        <ele>199.6</ele>
        <time>2019-06-23T07:39:04.000Z</time>
      </trkpt>
      <trkpt lat="43.26439" lon="2.47035">
        <ele>199.6</ele>
        <time>2019-06-23T07:39:05.000Z</time>
      </trkpt>
      <trkpt lat="43.26437" lon="2.47034">
        <ele>199.6</ele>
        <time>2019-06-23T07:39:06.000Z</time>
      </trkpt>
      <trkpt lat="43.26435" lon="2.47033">
        <ele>199.6</ele>
        <time>2019-06-23T07:39:07.000Z</time>
      </trkpt>
      <trkpt lat="43.26432" lon="2.47032">
        <ele>199.6</ele>
        <time>2019-06-23T07:39:08.000Z</time>
      </trkpt>
      <trkpt lat="43.2643" lon="2.47031">
        <ele>199.7</ele>
        <time>2019-06-23T07:39:09.000Z</time>
      </trkpt>
      <trkpt lat="43.26428" lon="2.4703">
        <ele>199.7</ele>
        <time>2019-06-23T07:39:10.000Z</time>
      </trkpt>
      <trkpt lat="43.26425" lon="2.47028">
        <ele>199.8</ele>
        <time>2019-06-23T07:39:11.000Z</time>
      </trkpt>
      <trkpt lat="43.26423" lon="2.47026">
        <ele>199.8</ele>
        <time>2019-06-23T07:39:12.000Z</time>
      </trkpt>
      <trkpt lat="43.26421" lon="2.47024">
        <ele>199.9</ele>
        <time>2019-06-23T07:39:13.000Z</time>
      </trkpt>
      <trkpt lat="43.26418" lon="2.47022">
        <ele>200</ele>
        <time>2019-06-23T07:39:14.000Z</time>
      </trkpt>
      <trkpt lat="43.26416" lon="2.4702">
        <ele>200.1</ele>
        <time>2019-06-23T07:39:15.000Z</time>
      </trkpt>
      <trkpt lat="43.26414" lon="2.47018">
        <ele>200.2</ele>
        <time>2019-06-23T07:39:16.000Z</time>
      </trkpt>
      <trkpt lat="43.26412" lon="2.47015">
        <ele>200.4</ele>
        <time>2019-06-23T07:39:17.000Z</time>
      </trkpt>
      <trkpt lat="43.26411" lon="2.47012">
        <ele>200.6</ele>
        <time>2019-06-23T07:39:18.000Z</time>
      </trkpt>
      <trkpt lat="43.2641" lon="2.4701">
        <ele>200.8</ele>
        <time>2019-06-23T07:39:19.000Z</time>
      </trkpt>
      <trkpt lat="43.26409" lon="2.47007">
        <ele>200.9</ele>
        <time>2019-06-23T07:39:20.000Z</time>
      </trkpt>
      <trkpt lat="43.26408" lon="2.47004">
        <ele>201.1</ele>
        <time>2019-06-23T07:39:21.000Z</time>
      </trkpt>
      <trkpt lat="43.26408" lon="2.47001">
        <ele>201.3</ele>
        <time>2019-06-23T07:39:22.000Z</time>
      </trkpt>
      <trkpt lat="43.26407" lon="2.46998">
        <ele>201.4</ele>
        <time>2019-06-23T07:39:23.000Z</time>
      </trkpt>
      <trkpt lat="43.26407" lon="2.46995">
        <ele>201.5</ele>
        <time>2019-06-23T07:39:24.000Z</time>
      </trkpt>
      <trkpt lat="43.26407" lon="2.46992">
        <ele>201.6</ele>
        <time>2019-06-23T07:39:25.000Z</time>
      </trkpt>
      <trkpt lat="43.26408" lon="2.46989">
        <ele>201.7</ele>
        <time>2019-06-23T07:39:26.000Z</time>
      </trkpt>
      <trkpt lat="43.26408" lon="2.46985">
        <ele>201.8</ele>
        <time>2019-06-23T07:39:27.000Z</time>
      </trkpt>
      <trkpt lat="43.26409" lon="2.46982">
        <ele>201.9</ele>
        <time>2019-06-23T07:39:28.000Z</time>
      </trkpt>
      <trkpt lat="43.26409" lon="2.46979">
        <ele>202</ele>
        <time>2019-06-23T07:39:29.000Z</time>
      </trkpt>
      <trkpt lat="43.2641" lon="2.46976">
        <ele>202.1</ele>
        <time>2019-06-23T07:39:30.000Z</time>
      </trkpt>
      <trkpt lat="43.26411" lon="2.46972">
        <ele>202.2</ele>
        <time>2019-06-23T07:39:31.000Z</time>
      </trkpt>
      <trkpt lat="43.26411" lon="2.46969">
        <ele>202.3</ele>
        <time>2019-06-23T07:39:32.000Z</time>
      </trkpt>
      <trkpt lat="43.26412" lon="2.46965">
        <ele>202.4</ele>
        <time>2019-06-23T07:39:33.000Z</time>
      </trkpt>
      <trkpt lat="43.26413" lon="2.46962">
        <ele>202.5</ele>
        <time>2019-06-23T07:39:34.000Z</time>
      </trkpt>
      <trkpt lat="43.26413" lon="2.46958">
        <ele>202.6</ele>
        <time>2019-06-23T07:39:35.000Z</time>
      </trkpt>
      <trkpt lat="43.26413" lon="2.46955">
        <ele>202.7</ele>
        <time>2019-06-23T07:39:36.000Z</time>
      </trkpt>
      <trkpt lat="43.26414" lon="2.46951">
        <ele>202.8</ele>
        <time>2019-06-23T07:39:37.000Z</time>
      </trkpt>
      <trkpt lat="43.26414" lon="2.46948">
        <ele>203</ele>
        <time>2019-06-23T07:39:38.000Z</time>
      </trkpt>
      <trkpt lat="43.26414" lon="2.46944">
        <ele>203.1</ele>
        <time>2019-06-23T07:39:39.000Z</time>
      </trkpt>
      <trkpt lat="43.26415" lon="2.4694">
        <ele>203.2</ele>
        <time>2019-06-23T07:39:40.000Z</time>
      </trkpt>
      <trkpt lat="43.26415" lon="2.46937">
        <ele>203.3</ele>
        <time>2019-06-23T07:39:41.000Z</time>
      </trkpt>
      <trkpt lat="43.26415" lon="2.46933">
        <ele>203.5</ele>
        <time>2019-06-23T07:39:42.000Z</time>
      </trkpt>
      <trkpt lat="43.26415" lon="2.4693">
        <ele>203.6</ele>
        <time>2019-06-23T07:39:43.000Z</time>
      </trkpt>
      <trkpt lat="43.26415" lon="2.46926">
        <ele>203.7</ele>
        <time>2019-06-23T07:39:44.000Z</time>
      </trkpt>
      <trkpt lat="43.26416" lon="2.46922">
        <ele>203.8</ele>
        <time>2019-06-23T07:39:45.000Z</time>
      </trkpt>
      <trkpt lat="43.26416" lon="2.46919">
        <ele>203.9</ele>
        <time>2019-06-23T07:39:46.000Z</time>
      </trkpt>
      <trkpt lat="43.26417" lon="2.46915">
        <ele>204.1</ele>
        <time>2019-06-23T07:39:47.000Z</time>
      </trkpt>
      <trkpt lat="43.26417" lon="2.46912">
        <ele>204.3</ele>
        <time>2019-06-23T07:39:48.000Z</time>
      </trkpt>
      <trkpt lat="43.26418" lon="2.46908">
        <ele>204.5</ele>
        <time>2019-06-23T07:39:49.000Z</time>
      </trkpt>
      <trkpt lat="43.26418" lon="2.46905">
        <ele>204.8</ele>
        <time>2019-06-23T07:39:50.000Z</time>
      </trkpt>
      <trkpt lat="43.26419" lon="2.46902">
        <ele>205</ele>
        <time>2019-06-23T07:39:51.000Z</time>
      </trkpt>
      <trkpt lat="43.2642" lon="2.46898">
        <ele>205.3</ele>
        <time>2019-06-23T07:39:52.000Z</time>
      </trkpt>
      <trkpt lat="43.26421" lon="2.46895">
        <ele>205.5</ele>
        <time>2019-06-23T07:39:53.000Z</time>
      </trkpt>
      <trkpt lat="43.26421" lon="2.46892">
        <ele>205.8</ele>
        <time>2019-06-23T07:39:54.000Z</time>
      </trkpt>
      <trkpt lat="43.26422" lon="2.46888">
        <ele>206</ele>
        <time>2019-06-23T07:39:55.000Z</time>
      </trkpt>
      <trkpt lat="43.26422" lon="2.46885">
        <ele>206.3</ele>
        <time>2019-06-23T07:39:56.000Z</time>
      </trkpt>
      <trkpt lat="43.26423" lon="2.46881">
        <ele>206.5</ele>
        <time>2019-06-23T07:39:57.000Z</time>
      </trkpt>
      <trkpt lat="43.26423" lon="2.46878">
        <ele>206.8</ele>
        <time>2019-06-23T07:39:58.000Z</time>
      </trkpt>
      <trkpt lat="43.26424" lon="2.46875">
        <ele>207</ele>
        <time>2019-06-23T07:39:59.000Z</time>
      </trkpt>
      <trkpt lat="43.26425" lon="2.46872">
        <ele>207.2</ele>
        <time>2019-06-23T07:40:00.000Z</time>
      </trkpt>
      <trkpt lat="43.26425" lon="2.46869">
        <ele>207.4</ele>
        <time>2019-06-23T07:40:01.000Z</time>
      </trkpt>
      <trkpt lat="43.26425" lon="2.46866">
        <ele>207.6</ele>
        <time>2019-06-23T07:40:02.000Z</time>
      </trkpt>
      <trkpt lat="43.26424" lon="2.46864">
        <ele>207.7</ele>
        <time>2019-06-23T07:40:03.000Z</time>
      </trkpt>
      <trkpt lat="43.26424" lon="2.46862">
        <ele>207.8</ele>
        <time>2019-06-23T07:40:04.000Z</time>
      </trkpt>
      <trkpt lat="43.26423" lon="2.4686">
        <ele>207.9</ele>
        <time>2019-06-23T07:40:05.000Z</time>
      </trkpt>
      <trkpt lat="43.26423" lon="2.46859">
        <ele>207.9</ele>
        <time>2019-06-23T07:40:06.000Z</time>
      </trkpt>
      <trkpt lat="43.26422" lon="2.46857">
        <ele>208</ele>
        <time>2019-06-23T07:40:07.000Z</time>
      </trkpt>
      <trkpt lat="43.26422" lon="2.46856">
        <ele>208</ele>
        <time>2019-06-23T07:40:08.000Z</time>
      </trkpt>
      <trkpt lat="43.26421" lon="2.46856">
        <ele>208</ele>
        <time>2019-06-23T07:40:09.000Z</time>
      </trkpt>
      <trkpt lat="43.26421" lon="2.46855">
        <ele>208</ele>
        <time>2019-06-23T07:40:10.000Z</time>
      </trkpt>
      <trkpt lat="43.26421" lon="2.46855">
        <ele>208</ele>
        <time>2019-06-23T07:40:11.000Z</time>
      </trkpt>
      <trkpt lat="43.26421" lon="2.46855">
        <ele>208</ele>
        <time>2019-06-23T07:40:12.000Z</time>
      </trkpt>
      <trkpt lat="43.26421" lon="2.46855">
        <ele>208</ele>
        <time>2019-06-23T07:40:13.000Z</time>
      </trkpt>
      <trkpt lat="43.2642" lon="2.46855">
        <ele>208</ele>
        <time>2019-06-23T07:40:14.000Z</time>
      </trkpt>
      <trkpt lat="43.2642" lon="2.46854">
        <ele>208</ele>
        <time>2019-06-23T07:40:15.000Z</time>
      </trkpt>
      <trkpt lat="43.2642" lon="2.46854">
        <ele>208</ele>
        <time>2019-06-23T07:40:16.000Z</time>
      </trkpt>
      <trkpt lat="43.2642" lon="2.46854">
        <ele>208</ele>
        <time>2019-06-23T07:40:17.000Z</time>
      </trkpt>
      <trkpt lat="43.2642" lon="2.46854">
        <ele>208</ele>
        <time>2019-06-23T07:40:18.000Z</time>
      </trkpt>
      <trkpt lat="43.2642" lon="2.46854">
        <ele>208</ele>
        <time>2019-06-23T07:40:19.000Z</time>
      </trkpt>
      <trkpt lat="43.2642" lon="2.46854">
        <ele>208</ele>
        <time>2019-06-23T07:40:20.000Z</time>
      </trkpt>
      <trkpt lat="43.2642" lon="2.46854">
        <ele>208</ele>
        <time>2019-06-23T07:40:21.000Z</time>
      </trkpt>
      <trkpt lat="43.2642" lon="2.46854">
        <ele>208</ele>
        <time>2019-06-23T07:40:22.000Z</time>
      </trkpt>
      <trkpt lat="43.2642" lon="2.46854">
        <ele>208</ele>
        <time>2019-06-23T07:40:23.000Z</time>
      </trkpt>
      <trkpt lat="43.2642" lon="2.46854">
        <ele>208</ele>
        <time>2019-06-23T07:40:24.000Z</time>
      </trkpt>
      <trkpt lat="43.2642" lon="2.46854">
        <ele>208</ele>
        <time>2019-06-23T07:40:25.000Z</time>
      </trkpt>
      <trkpt lat="43.2642" lon="2.46854">
        <ele>208</ele>
        <time>2019-06-23T07:40:26.000Z</time>
      </trkpt>
      <trkpt lat="43.2642" lon="2.46854">
        <ele>208</ele>
        <time>2019-06-23T07:40:27.000Z</time>
      </trkpt>
      <trkpt lat="43.2642" lon="2.46854">
        <ele>208</ele>
        <time>2019-06-23T07:40:28.000Z</time>
      </trkpt>
      <trkpt lat="43.2642" lon="2.46854">
        <ele>208</ele>
        <time>2019-06-23T07:40:29.000Z</time>
      </trkpt>
      <trkpt lat="43.2642" lon="2.46854">
        <ele>208</ele>
        <time>2019-06-23T07:40:30.000Z</time>
      </trkpt>
      <trkpt lat="43.2642" lon="2.46854">
        <ele>208</ele>
        <time>2019-06-23T07:40:31.000Z</time>
      </trkpt>
      <trkpt lat="43.2642" lon="2.46854">
        <ele>208</ele>
        <time>2019-06-23T07:40:32.000Z</time>
      </trkpt>
      <trkpt lat="43.2642" lon="2.46854">
        <ele>208</ele>
        <time>2019-06-23T07:40:33.000Z</time>
      </trkpt>
      <trkpt lat="43.2642" lon="2.46854">
        <ele>208</ele>
        <time>2019-06-23T07:40:34.000Z</time>
      </trkpt>
      <trkpt lat="43.2642" lon="2.46854">
        <ele>208</ele>
        <time>2019-06-23T07:40:35.000Z</time>
      </trkpt>
      <trkpt lat="43.2642" lon="2.46854">
        <ele>208</ele>
        <time>2019-06-23T07:40:36.000Z</time>
      </trkpt>
      <trkpt lat="43.2642" lon="2.46854">
        <ele>208</ele>
        <time>2019-06-23T07:40:37.000Z</time>
      </trkpt>
      <trkpt lat="43.2642" lon="2.46854">
        <ele>208</ele>
        <time>2019-06-23T07:40:38.000Z</time>
      </trkpt>
      <trkpt lat="43.2642" lon="2.46854">
        <ele>208</ele>
        <time>2019-06-23T07:40:39.000Z</time>
      </trkpt>
      <trkpt lat="43.2642" lon="2.46854">
        <ele>208</ele>
        <time>2019-06-23T07:40:40.000Z</time>
      </trkpt>
      <trkpt lat="43.2642" lon="2.46854">
        <ele>208</ele>
        <time>2019-06-23T07:40:41.000Z</time>
      </trkpt>
      <trkpt lat="43.2642" lon="2.46854">
        <ele>208</ele>
        <time>2019-06-23T07:40:42.000Z</time>
      </trkpt>
      <trkpt lat="43.2642" lon="2.46854">
        <ele>208</ele>
        <time>2019-06-23T07:40:43.000Z</time>
      </trkpt>
      <trkpt lat="43.2642" lon="2.46854">
        <ele>208</ele>
        <time>2019-06-23T07:40:44.000Z</time>
      </trkpt>
      <trkpt lat="43.2642" lon="2.46854">
        <ele>208</ele>
        <time>2019-06-23T07:40:45.000Z</time>
      </trkpt>
      <trkpt lat="43.2642" lon="2.46854">
        <ele>208</ele>
        <time>2019-06-23T07:40:46.000Z</time>
      </trkpt>
      <trkpt lat="43.2642" lon="2.46854">
        <ele>208</ele>
        <time>2019-06-23T07:40:47.000Z</time>
      </trkpt>
      <trkpt lat="43.2642" lon="2.46854">
        <ele>208</ele>
        <time>2019-06-23T07:40:48.000Z</time>
      </trkpt>
      <trkpt lat="43.2642" lon="2.46854">
        <ele>208</ele>
        <time>2019-06-23T07:40:49.000Z</time>
      </trkpt>
      <trkpt lat="43.2642" lon="2.46854">
        <ele>208</ele>
        <time>2019-06-23T07:40:50.000Z</time>
      </trkpt>
      <trkpt lat="43.2642" lon="2.46854">
        <ele>208</ele>
        <time>2019-06-23T07:40:51.000Z</time>
      </trkpt>
      <trkpt lat="43.2642" lon="2.46854">
        <ele>208</ele>
        <time>2019-06-23T07:40:52.000Z</time>
      </trkpt>
      <trkpt lat="43.2642" lon="2.46854">
        <ele>208</ele>
        <time>2019-06-23T07:40:53.000Z</time>
      </trkpt>
      <trkpt lat="43.2642" lon="2.46854">
        <ele>208</ele>
        <time>2019-06-23T07:40:54.000Z</time>
      </trkpt>
      <trkpt lat="43.2642" lon="2.46854">
        <ele>208</ele>
        <time>2019-06-23T07:40:55.000Z</time>
      </trkpt>
      <trkpt lat="43.2642" lon="2.46854">
        <ele>208</ele>
        <time>2019-06-23T07:40:56.000Z</time>
      </trkpt>
      <trkpt lat="43.2642" lon="2.46854">
        <ele>208</ele>
        <time>2019-06-23T07:40:57.000Z</time>
      </trkpt>
      <trkpt lat="43.2642" lon="2.46854">
        <ele>208</ele>
        <time>2019-06-23T07:40:58.000Z</time>
      </trkpt>
      <trkpt lat="43.2642" lon="2.46854">
        <ele>208</ele>
        <time>2019-06-23T07:40:59.000Z</time>
      </trkpt>
      <trkpt lat="43.2642" lon="2.46854">
        <ele>208</ele>
        <time>2019-06-23T07:41:00.000Z</time>
      </trkpt>
      <trkpt lat="43.2642" lon="2.46854">
        <ele>208</ele>
        <time>2019-06-23T07:41:01.000Z</time>
      </trkpt>
      <trkpt lat="43.2642" lon="2.46854">
        <ele>208</ele>
        <time>2019-06-23T07:41:02.000Z</time>
      </trkpt>
      <trkpt lat="43.2642" lon="2.46854">
        <ele>208</ele>
        <time>2019-06-23T07:41:03.000Z</time>
      </trkpt>
      <trkpt lat="43.2642" lon="2.46854">
        <ele>208</ele>
        <time>2019-06-23T07:41:04.000Z</time>
      </trkpt>
      <trkpt lat="43.2642" lon="2.46854">
        <ele>208</ele>
        <time>2019-06-23T07:41:05.000Z</time>
      </trkpt>
      <trkpt lat="43.2642" lon="2.46854">
        <ele>208</ele>
        <time>2019-06-23T07:41:06.000Z</time>
      </trkpt>
      <trkpt lat="43.2642" lon="2.46854">
        <ele>208</ele>
        <time>2019-06-23T07:41:07.000Z</time>
      </trkpt>
      <trkpt lat="43.2642" lon="2.46854">
        <ele>208</ele>
        <time>2019-06-23T07:41:08.000Z</time>
      </trkpt>
      <trkpt lat="43.2642" lon="2.46854">
        <ele>208</ele>
        <time>2019-06-23T07:41:09.000Z</time>
      </trkpt>
      <trkpt lat="43.2642" lon="2.46854">
        <ele>208</ele>
        <time>2019-06-23T07:41:10.000Z</time>
      </trkpt>
      <trkpt lat="43.2642" lon="2.46854">
        <ele>208</ele>
        <time>2019-06-23T07:41:11.000Z</time>
      </trkpt>
      <trkpt lat="43.2642" lon="2.46854">
        <ele>208</ele>
        <time>2019-06-23T07:41:12.000Z</time>
      </trkpt>
      <trkpt lat="43.2642" lon="2.46854">
        <ele>208</ele>
        <time>2019-06-23T07:41:13.000Z</time>
      </trkpt>
      <trkpt lat="43.2642" lon="2.46854">
        <ele>208</ele>
        <time>2019-06-23T07:41:14.000Z</time>
      </trkpt>
      <trkpt lat="43.2642" lon="2.46854">
        <ele>208</ele>
        <time>2019-06-23T07:41:15.000Z</time>
      </trkpt>
      <trkpt lat="43.2642" lon="2.46854">
        <ele>208</ele>
        <time>2019-06-23T07:41:16.000Z</time>
      </trkpt>
      <trkpt lat="43.2642" lon="2.46854">
        <ele>208</ele>
        <time>2019-06-23T07:41:17.000Z</time>
      </trkpt>
      <trkpt lat="43.2642" lon="2.46854">
        <ele>208</ele>
        <time>2019-06-23T07:41:18.000Z</time>
      </trkpt>
      <trkpt lat="43.2642" lon="2.46854">
        <ele>208</ele>
        <time>2019-06-23T07:41:19.000Z</time>
      </trkpt>
      <trkpt lat="43.2642" lon="2.46854">
        <ele>208</ele>
        <time>2019-06-23T07:41:20.000Z</time>
      </trkpt>
      <trkpt lat="43.2642" lon="2.46854">
        <ele>208</ele>
        <time>2019-06-23T07:41:21.000Z</time>
      </trkpt>
      <trkpt lat="43.2642" lon="2.46854">
        <ele>208</ele>
        <time>2019-06-23T07:41:22.000Z</time>
      </trkpt>
      <trkpt lat="43.2642" lon="2.46854">
        <ele>208</ele>
        <time>2019-06-23T07:41:23.000Z</time>
      </trkpt>
      <trkpt lat="43.2642" lon="2.46854">
        <ele>208</ele>
        <time>2019-06-23T07:41:24.000Z</time>
      </trkpt>
      <trkpt lat="43.2642" lon="2.46854">
        <ele>208</ele>
        <time>2019-06-23T07:41:25.000Z</time>
      </trkpt>
      <trkpt lat="43.2642" lon="2.46854">
        <ele>208</ele>
        <time>2019-06-23T07:41:26.000Z</time>
      </trkpt>
      <trkpt lat="43.2642" lon="2.46854">
        <ele>208</ele>
        <time>2019-06-23T07:41:27.000Z</time>
      </trkpt>
      <trkpt lat="43.2642" lon="2.46854">
        <ele>208</ele>
        <time>2019-06-23T07:41:28.000Z</time>
      </trkpt>
      <trkpt lat="43.2642" lon="2.46854">
        <ele>208</ele>
        <time>2019-06-23T07:41:29.000Z</time>
      </trkpt>
      <trkpt lat="43.2642" lon="2.46854">
        <ele>208</ele>
        <time>2019-06-23T07:41:30.000Z</time>
      </trkpt>
      <trkpt lat="43.2642" lon="2.46854">
        <ele>208</ele>
        <time>2019-06-23T07:41:31.000Z</time>
      </trkpt>
      <trkpt lat="43.2642" lon="2.46854">
        <ele>208</ele>
        <time>2019-06-23T07:41:32.000Z</time>
      </trkpt>
      <trkpt lat="43.2642" lon="2.46854">
        <ele>208</ele>
        <time>2019-06-23T07:41:33.000Z</time>
      </trkpt>
      <trkpt lat="43.2642" lon="2.46854">
        <ele>208</ele>
        <time>2019-06-23T07:41:34.000Z</time>
      </trkpt>
      <trkpt lat="43.2642" lon="2.46854">
        <ele>208</ele>
        <time>2019-06-23T07:41:35.000Z</time>
      </trkpt>
      <trkpt lat="43.2642" lon="2.46854">
        <ele>208</ele>
        <time>2019-06-23T07:41:36.000Z</time>
      </trkpt>
      <trkpt lat="43.2642" lon="2.46854">
        <ele>208</ele>
        <time>2019-06-23T07:41:37.000Z</time>
      </trkpt>
      <trkpt lat="43.2642" lon="2.46854">
        <ele>208</ele>
        <time>2019-06-23T07:41:38.000Z</time>
      </trkpt>
      <trkpt lat="43.2642" lon="2.46854">
        <ele>208</ele>
        <time>2019-06-23T07:41:39.000Z</time>
      </trkpt>
      <trkpt lat="43.2642" lon="2.46854">
        <ele>208</ele>
        <time>2019-06-23T07:41:40.000Z</time>
      </trkpt>
      <trkpt lat="43.2642" lon="2.46854">
        <ele>208</ele>
        <time>2019-06-23T07:41:41.000Z</time>
      </trkpt>
      <trkpt lat="43.2642" lon="2.46854">
        <ele>208</ele>
        <time>2019-06-23T07:41:42.000Z</time>
      </trkpt>
      <trkpt lat="43.2642" lon="2.46854">
        <ele>208</ele>
        <time>2019-06-23T07:41:43.000Z</time>
      </trkpt>
      <trkpt lat="43.2642" lon="2.46854">
        <ele>208.1</ele>
        <time>2019-06-23T07:41:44.000Z</time>
      </trkpt>
      <trkpt lat="43.2642" lon="2.46853">
        <ele>208.1</ele>
        <time>2019-06-23T07:41:45.000Z</time>
      </trkpt>
      <trkpt lat="43.2642" lon="2.46853">
        <ele>208.1</ele>
        <time>2019-06-23T07:41:46.000Z</time>
      </trkpt>
      <trkpt lat="43.2642" lon="2.46853">
        <ele>208.1</ele>
        <time>2019-06-23T07:41:47.000Z</time>
      </trkpt>
      <trkpt lat="43.26419" lon="2.46853">
        <ele>208</ele>
        <time>2019-06-23T07:41:48.000Z</time>
      </trkpt>
      <trkpt lat="43.26419" lon="2.46853">
        <ele>208</ele>
        <time>2019-06-23T07:41:49.000Z</time>
      </trkpt>
      <trkpt lat="43.26418" lon="2.46853">
        <ele>207.9</ele>
        <time>2019-06-23T07:41:50.000Z</time>
      </trkpt>
      <trkpt lat="43.26417" lon="2.46853">
        <ele>207.9</ele>
        <time>2019-06-23T07:41:51.000Z</time>
      </trkpt>
      <trkpt lat="43.26416" lon="2.46853">
        <ele>207.8</ele>
        <time>2019-06-23T07:41:52.000Z</time>
      </trkpt>
      <trkpt lat="43.26415" lon="2.46853">
        <ele>207.9</ele>
        <time>2019-06-23T07:41:53.000Z</time>
      </trkpt>
      <trkpt lat="43.26414" lon="2.46852">
        <ele>207.9</ele>
        <time>2019-06-23T07:41:54.000Z</time>
      </trkpt>
      <trkpt lat="43.26413" lon="2.46852">
        <ele>207.9</ele>
        <time>2019-06-23T07:41:55.000Z</time>
      </trkpt>
      <trkpt lat="43.26411" lon="2.46852">
        <ele>208</ele>
        <time>2019-06-23T07:41:56.000Z</time>
      </trkpt>
      <trkpt lat="43.2641" lon="2.46851">
        <ele>208</ele>
        <time>2019-06-23T07:41:57.000Z</time>
      </trkpt>
      <trkpt lat="43.26408" lon="2.4685">
        <ele>208.1</ele>
        <time>2019-06-23T07:41:58.000Z</time>
      </trkpt>
      <trkpt lat="43.26406" lon="2.4685">
        <ele>208.2</ele>
        <time>2019-06-23T07:41:59.000Z</time>
      </trkpt>
      <trkpt lat="43.26405" lon="2.46849">
        <ele>208.2</ele>
        <time>2019-06-23T07:42:00.000Z</time>
      </trkpt>
      <trkpt lat="43.26403" lon="2.46848">
        <ele>208.3</ele>
        <time>2019-06-23T07:42:01.000Z</time>
      </trkpt>
      <trkpt lat="43.26401" lon="2.46847">
        <ele>208.4</ele>
        <time>2019-06-23T07:42:02.000Z</time>
      </trkpt>
      <trkpt lat="43.26399" lon="2.46847">
        <ele>208.4</ele>
        <time>2019-06-23T07:42:03.000Z</time>
      </trkpt>
      <trkpt lat="43.26397" lon="2.46846">
        <ele>208.5</ele>
        <time>2019-06-23T07:42:04.000Z</time>
      </trkpt>
      <trkpt lat="43.26396" lon="2.46845">
        <ele>208.6</ele>
        <time>2019-06-23T07:42:05.000Z</time>
      </trkpt>
      <trkpt lat="43.26394" lon="2.46845">
        <ele>208.6</ele>
        <time>2019-06-23T07:42:06.000Z</time>
      </trkpt>
      <trkpt lat="43.26392" lon="2.46844">
        <ele>208.7</ele>
        <time>2019-06-23T07:42:07.000Z</time>
      </trkpt>
      <trkpt lat="43.2639" lon="2.46843">
        <ele>208.8</ele>
        <time>2019-06-23T07:42:08.000Z</time>
      </trkpt>
      <trkpt lat="43.26389" lon="2.46843">
        <ele>208.8</ele>
        <time>2019-06-23T07:42:09.000Z</time>
      </trkpt>
      <trkpt lat="43.26388" lon="2.46843">
        <ele>208.8</ele>
        <time>2019-06-23T07:42:10.000Z</time>
      </trkpt>
      <trkpt lat="43.26387" lon="2.46842">
        <ele>208.9</ele>
        <time>2019-06-23T07:42:11.000Z</time>
      </trkpt>
      <trkpt lat="43.26386" lon="2.46842">
        <ele>208.9</ele>
        <time>2019-06-23T07:42:12.000Z</time>
      </trkpt>
      <trkpt lat="43.26385" lon="2.46842">
        <ele>208.9</ele>
        <time>2019-06-23T07:42:13.000Z</time>
      </trkpt>
      <trkpt lat="43.26385" lon="2.46842">
        <ele>208.9</ele>
        <time>2019-06-23T07:42:14.000Z</time>
      </trkpt>
      <trkpt lat="43.26385" lon="2.46842">
        <ele>208.9</ele>
        <time>2019-06-23T07:42:15.000Z</time>
      </trkpt>
      <trkpt lat="43.26385" lon="2.46842">
        <ele>208.9</ele>
        <time>2019-06-23T07:42:16.000Z</time>
      </trkpt>
      <trkpt lat="43.26385" lon="2.46842">
        <ele>208.9</ele>
        <time>2019-06-23T07:42:17.000Z</time>
      </trkpt>
      <trkpt lat="43.26384" lon="2.46842">
        <ele>208.9</ele>
        <time>2019-06-23T07:42:18.000Z</time>
      </trkpt>
      <trkpt lat="43.26383" lon="2.46842">
        <ele>209</ele>
        <time>2019-06-23T07:42:19.000Z</time>
      </trkpt>
      <trkpt lat="43.26382" lon="2.46841">
        <ele>209</ele>
        <time>2019-06-23T07:42:20.000Z</time>
      </trkpt>
      <trkpt lat="43.2638" lon="2.4684">
        <ele>209.1</ele>
        <time>2019-06-23T07:42:21.000Z</time>
      </trkpt>
      <trkpt lat="43.26378" lon="2.4684">
        <ele>209.1</ele>
        <time>2019-06-23T07:42:22.000Z</time>
      </trkpt>
      <trkpt lat="43.26376" lon="2.46839">
        <ele>209.2</ele>
        <time>2019-06-23T07:42:23.000Z</time>
      </trkpt>
      <trkpt lat="43.26374" lon="2.46838">
        <ele>209.3</ele>
        <time>2019-06-23T07:42:24.000Z</time>
      </trkpt>
      <trkpt lat="43.26372" lon="2.46837">
        <ele>209.3</ele>
        <time>2019-06-23T07:42:25.000Z</time>
      </trkpt>
      <trkpt lat="43.26369" lon="2.46837">
        <ele>209.4</ele>
        <time>2019-06-23T07:42:26.000Z</time>
      </trkpt>
      <trkpt lat="43.26367" lon="2.46836">
        <ele>209.5</ele>
        <time>2019-06-23T07:42:27.000Z</time>
      </trkpt>
      <trkpt lat="43.26365" lon="2.46835">
        <ele>209.5</ele>
        <time>2019-06-23T07:42:28.000Z</time>
      </trkpt>
      <trkpt lat="43.26363" lon="2.46834">
        <ele>209.6</ele>
        <time>2019-06-23T07:42:29.000Z</time>
      </trkpt>
      <trkpt lat="43.26361" lon="2.46834">
        <ele>209.7</ele>
        <time>2019-06-23T07:42:30.000Z</time>
      </trkpt>
      <trkpt lat="43.26359" lon="2.46833">
        <ele>209.7</ele>
        <time>2019-06-23T07:42:31.000Z</time>
      </trkpt>
      <trkpt lat="43.26357" lon="2.46832">
        <ele>209.7</ele>
        <time>2019-06-23T07:42:32.000Z</time>
      </trkpt>
      <trkpt lat="43.26355" lon="2.46831">
        <ele>209.8</ele>
        <time>2019-06-23T07:42:33.000Z</time>
      </trkpt>
      <trkpt lat="43.26353" lon="2.4683">
        <ele>209.8</ele>
        <time>2019-06-23T07:42:34.000Z</time>
      </trkpt>
      <trkpt lat="43.26351" lon="2.46829">
        <ele>209.8</ele>
        <time>2019-06-23T07:42:35.000Z</time>
      </trkpt>
      <trkpt lat="43.26349" lon="2.46828">
        <ele>209.8</ele>
        <time>2019-06-23T07:42:36.000Z</time>
      </trkpt>
      <trkpt lat="43.26347" lon="2.46827">
        <ele>209.9</ele>
        <time>2019-06-23T07:42:37.000Z</time>
      </trkpt>
      <trkpt lat="43.26345" lon="2.46826">
        <ele>209.9</ele>
        <time>2019-06-23T07:42:38.000Z</time>
      </trkpt>
      <trkpt lat="43.26343" lon="2.46825">
        <ele>209.9</ele>
        <time>2019-06-23T07:42:39.000Z</time>
      </trkpt>
      <trkpt lat="43.26342" lon="2.46825">
        <ele>209.9</ele>
        <time>2019-06-23T07:42:40.000Z</time>
      </trkpt>
      <trkpt lat="43.2634" lon="2.46825">
        <ele>209.9</ele>
        <time>2019-06-23T07:42:41.000Z</time>
      </trkpt>
      <trkpt lat="43.26338" lon="2.46825">
        <ele>210</ele>
        <time>2019-06-23T07:42:42.000Z</time>
      </trkpt>
      <trkpt lat="43.26336" lon="2.46825">
        <ele>210</ele>
        <time>2019-06-23T07:42:43.000Z</time>
      </trkpt>
      <trkpt lat="43.26334" lon="2.46826">
        <ele>210</ele>
        <time>2019-06-23T07:42:44.000Z</time>
      </trkpt>
      <trkpt lat="43.26332" lon="2.46827">
        <ele>210</ele>
        <time>2019-06-23T07:42:45.000Z</time>
      </trkpt>
      <trkpt lat="43.2633" lon="2.46829">
        <ele>210</ele>
        <time>2019-06-23T07:42:46.000Z</time>
      </trkpt>
      <trkpt lat="43.26328" lon="2.4683">
        <ele>209.9</ele>
        <time>2019-06-23T07:42:47.000Z</time>
      </trkpt>
      <trkpt lat="43.26327" lon="2.46833">
        <ele>209.9</ele>
        <time>2019-06-23T07:42:48.000Z</time>
      </trkpt>
      <trkpt lat="43.26325" lon="2.46835">
        <ele>209.8</ele>
        <time>2019-06-23T07:42:49.000Z</time>
      </trkpt>
      <trkpt lat="43.26323" lon="2.46838">
        <ele>209.7</ele>
        <time>2019-06-23T07:42:50.000Z</time>
      </trkpt>
      <trkpt lat="43.26322" lon="2.46842">
        <ele>209.5</ele>
        <time>2019-06-23T07:42:51.000Z</time>
      </trkpt>
      <trkpt lat="43.2632" lon="2.46845">
        <ele>209.4</ele>
        <time>2019-06-23T07:42:52.000Z</time>
      </trkpt>
      <trkpt lat="43.26319" lon="2.46849">
        <ele>209.2</ele>
        <time>2019-06-23T07:42:53.000Z</time>
      </trkpt>
      <trkpt lat="43.26318" lon="2.46853">
        <ele>209.1</ele>
        <time>2019-06-23T07:42:54.000Z</time>
      </trkpt>
      <trkpt lat="43.26318" lon="2.46857">
        <ele>209</ele>
        <time>2019-06-23T07:42:55.000Z</time>
      </trkpt>
      <trkpt lat="43.26317" lon="2.46861">
        <ele>208.8</ele>
        <time>2019-06-23T07:42:56.000Z</time>
      </trkpt>
      <trkpt lat="43.26317" lon="2.46865">
        <ele>208.7</ele>
        <time>2019-06-23T07:42:57.000Z</time>
      </trkpt>
      <trkpt lat="43.26317" lon="2.46869">
        <ele>208.5</ele>
        <time>2019-06-23T07:42:58.000Z</time>
      </trkpt>
      <trkpt lat="43.26317" lon="2.46872">
        <ele>208.4</ele>
        <time>2019-06-23T07:42:59.000Z</time>
      </trkpt>
      <trkpt lat="43.26318" lon="2.46876">
        <ele>208.2</ele>
        <time>2019-06-23T07:43:00.000Z</time>
      </trkpt>
      <trkpt lat="43.26318" lon="2.4688">
        <ele>208.1</ele>
        <time>2019-06-23T07:43:01.000Z</time>
      </trkpt>
      <trkpt lat="43.26318" lon="2.46883">
        <ele>208</ele>
        <time>2019-06-23T07:43:02.000Z</time>
      </trkpt>
      <trkpt lat="43.26318" lon="2.46887">
        <ele>207.8</ele>
        <time>2019-06-23T07:43:03.000Z</time>
      </trkpt>
      <trkpt lat="43.26318" lon="2.4689">
        <ele>207.7</ele>
        <time>2019-06-23T07:43:04.000Z</time>
      </trkpt>
      <trkpt lat="43.26317" lon="2.46893">
        <ele>207.6</ele>
        <time>2019-06-23T07:43:05.000Z</time>
      </trkpt>
      <trkpt lat="43.26317" lon="2.46897">
        <ele>207.5</ele>
        <time>2019-06-23T07:43:06.000Z</time>
      </trkpt>
      <trkpt lat="43.26316" lon="2.469">
        <ele>207.4</ele>
        <time>2019-06-23T07:43:07.000Z</time>
      </trkpt>
      <trkpt lat="43.26316" lon="2.46903">
        <ele>207.4</ele>
        <time>2019-06-23T07:43:08.000Z</time>
      </trkpt>
      <trkpt lat="43.26315" lon="2.46906">
        <ele>207.3</ele>
        <time>2019-06-23T07:43:09.000Z</time>
      </trkpt>
      <trkpt lat="43.26314" lon="2.46909">
        <ele>207.2</ele>
        <time>2019-06-23T07:43:10.000Z</time>
      </trkpt>
      <trkpt lat="43.26313" lon="2.46911">
        <ele>207.1</ele>
        <time>2019-06-23T07:43:11.000Z</time>
      </trkpt>
      <trkpt lat="43.26313" lon="2.46914">
        <ele>207.1</ele>
        <time>2019-06-23T07:43:12.000Z</time>
      </trkpt>
      <trkpt lat="43.26312" lon="2.46917">
        <ele>207</ele>
        <time>2019-06-23T07:43:13.000Z</time>
      </trkpt>
      <trkpt lat="43.26311" lon="2.4692">
        <ele>207</ele>
        <time>2019-06-23T07:43:14.000Z</time>
      </trkpt>
      <trkpt lat="43.26311" lon="2.46924">
        <ele>207</ele>
        <time>2019-06-23T07:43:15.000Z</time>
      </trkpt>
      <trkpt lat="43.2631" lon="2.46927">
        <ele>207</ele>
        <time>2019-06-23T07:43:16.000Z</time>
      </trkpt>
      <trkpt lat="43.26309" lon="2.4693">
        <ele>206.9</ele>
        <time>2019-06-23T07:43:17.000Z</time>
      </trkpt>
      <trkpt lat="43.26308" lon="2.46933">
        <ele>206.9</ele>
        <time>2019-06-23T07:43:18.000Z</time>
      </trkpt>
      <trkpt lat="43.26308" lon="2.46936">
        <ele>206.9</ele>
        <time>2019-06-23T07:43:19.000Z</time>
      </trkpt>
      <trkpt lat="43.26307" lon="2.46939">
        <ele>206.9</ele>
        <time>2019-06-23T07:43:20.000Z</time>
      </trkpt>
      <trkpt lat="43.26306" lon="2.46942">
        <ele>206.9</ele>
        <time>2019-06-23T07:43:21.000Z</time>
      </trkpt>
      <trkpt lat="43.26305" lon="2.46945">
        <ele>206.9</ele>
        <time>2019-06-23T07:43:22.000Z</time>
      </trkpt>
      <trkpt lat="43.26304" lon="2.46948">
        <ele>206.9</ele>
        <time>2019-06-23T07:43:23.000Z</time>
      </trkpt>
      <trkpt lat="43.26304" lon="2.46951">
        <ele>206.9</ele>
        <time>2019-06-23T07:43:24.000Z</time>
      </trkpt>
      <trkpt lat="43.26303" lon="2.46955">
        <ele>206.9</ele>
        <time>2019-06-23T07:43:25.000Z</time>
      </trkpt>
      <trkpt lat="43.26302" lon="2.46958">
        <ele>206.9</ele>
        <time>2019-06-23T07:43:26.000Z</time>
      </trkpt>
      <trkpt lat="43.26301" lon="2.46961">
        <ele>206.9</ele>
        <time>2019-06-23T07:43:27.000Z</time>
      </trkpt>
      <trkpt lat="43.263" lon="2.46964">
        <ele>206.9</ele>
        <time>2019-06-23T07:43:28.000Z</time>
      </trkpt>
      <trkpt lat="43.26299" lon="2.46967">
        <ele>206.9</ele>
        <time>2019-06-23T07:43:29.000Z</time>
      </trkpt>
      <trkpt lat="43.26298" lon="2.46971">
        <ele>207</ele>
        <time>2019-06-23T07:43:30.000Z</time>
      </trkpt>
      <trkpt lat="43.26297" lon="2.46974">
        <ele>207</ele>
        <time>2019-06-23T07:43:31.000Z</time>
      </trkpt>
      <trkpt lat="43.26296" lon="2.46977">
        <ele>207</ele>
        <time>2019-06-23T07:43:32.000Z</time>
      </trkpt>
      <trkpt lat="43.26295" lon="2.4698">
        <ele>207.1</ele>
        <time>2019-06-23T07:43:33.000Z</time>
      </trkpt>
      <trkpt lat="43.26293" lon="2.46983">
        <ele>207.1</ele>
        <time>2019-06-23T07:43:34.000Z</time>
      </trkpt>
      <trkpt lat="43.26292" lon="2.46986">
        <ele>207.1</ele>
        <time>2019-06-23T07:43:35.000Z</time>
      </trkpt>
      <trkpt lat="43.26291" lon="2.46989">
        <ele>207.2</ele>
        <time>2019-06-23T07:43:36.000Z</time>
      </trkpt>
      <trkpt lat="43.2629" lon="2.46993">
        <ele>207.2</ele>
        <time>2019-06-23T07:43:37.000Z</time>
      </trkpt>
      <trkpt lat="43.26288" lon="2.46996">
        <ele>207.3</ele>
        <time>2019-06-23T07:43:38.000Z</time>
      </trkpt>
      <trkpt lat="43.26287" lon="2.46999">
        <ele>207.3</ele>
        <time>2019-06-23T07:43:39.000Z</time>
      </trkpt>
      <trkpt lat="43.26286" lon="2.47002">
        <ele>207.3</ele>
        <time>2019-06-23T07:43:40.000Z</time>
      </trkpt>
      <trkpt lat="43.26285" lon="2.47005">
        <ele>207.3</ele>
        <time>2019-06-23T07:43:41.000Z</time>
      </trkpt>
      <trkpt lat="43.26284" lon="2.47008">
        <ele>207.2</ele>
        <time>2019-06-23T07:43:42.000Z</time>
      </trkpt>
      <trkpt lat="43.26282" lon="2.47011">
        <ele>207.2</ele>
        <time>2019-06-23T07:43:43.000Z</time>
      </trkpt>
      <trkpt lat="43.26281" lon="2.47015">
        <ele>207.1</ele>
        <time>2019-06-23T07:43:44.000Z</time>
      </trkpt>
      <trkpt lat="43.2628" lon="2.47017">
        <ele>207.1</ele>
        <time>2019-06-23T07:43:45.000Z</time>
      </trkpt>
      <trkpt lat="43.26279" lon="2.4702">
        <ele>207.1</ele>
        <time>2019-06-23T07:43:46.000Z</time>
      </trkpt>
      <trkpt lat="43.26277" lon="2.47023">
        <ele>207.1</ele>
        <time>2019-06-23T07:43:47.000Z</time>
      </trkpt>
      <trkpt lat="43.26276" lon="2.47025">
        <ele>207.2</ele>
        <time>2019-06-23T07:43:48.000Z</time>
      </trkpt>
      <trkpt lat="43.26274" lon="2.47027">
        <ele>207.3</ele>
        <time>2019-06-23T07:43:49.000Z</time>
      </trkpt>
      <trkpt lat="43.26272" lon="2.47028">
        <ele>207.4</ele>
        <time>2019-06-23T07:43:50.000Z</time>
      </trkpt>
      <trkpt lat="43.26269" lon="2.47029">
        <ele>207.6</ele>
        <time>2019-06-23T07:43:51.000Z</time>
      </trkpt>
      <trkpt lat="43.26267" lon="2.4703">
        <ele>207.8</ele>
        <time>2019-06-23T07:43:52.000Z</time>
      </trkpt>
      <trkpt lat="43.26264" lon="2.47031">
        <ele>208</ele>
        <time>2019-06-23T07:43:53.000Z</time>
      </trkpt>
      <trkpt lat="43.26261" lon="2.47031">
        <ele>208.3</ele>
        <time>2019-06-23T07:43:54.000Z</time>
      </trkpt>
      <trkpt lat="43.26258" lon="2.47031">
        <ele>208.5</ele>
        <time>2019-06-23T07:43:55.000Z</time>
      </trkpt>
      <trkpt lat="43.26255" lon="2.47031">
        <ele>208.8</ele>
        <time>2019-06-23T07:43:56.000Z</time>
      </trkpt>
      <trkpt lat="43.26253" lon="2.47031">
        <ele>209</ele>
        <time>2019-06-23T07:43:57.000Z</time>
      </trkpt>
      <trkpt lat="43.2625" lon="2.47031">
        <ele>209.3</ele>
        <time>2019-06-23T07:43:58.000Z</time>
      </trkpt>
      <trkpt lat="43.26247" lon="2.47031">
        <ele>209.1</ele>
        <time>2019-06-23T07:43:59.000Z</time>
      </trkpt>
      <trkpt lat="43.26245" lon="2.47031">
        <ele>209</ele>
        <time>2019-06-23T07:44:00.000Z</time>
      </trkpt>
      <trkpt lat="43.26242" lon="2.47031">
        <ele>208.9</ele>
        <time>2019-06-23T07:44:01.000Z</time>
      </trkpt>
      <trkpt lat="43.26239" lon="2.47031">
        <ele>208.8</ele>
        <time>2019-06-23T07:44:02.000Z</time>
      </trkpt>
      <trkpt lat="43.26237" lon="2.47031">
        <ele>208.7</ele>
        <time>2019-06-23T07:44:03.000Z</time>
      </trkpt>
      <trkpt lat="43.26234" lon="2.47031">
        <ele>208.6</ele>
        <time>2019-06-23T07:44:04.000Z</time>
      </trkpt>
      <trkpt lat="43.26231" lon="2.47031">
        <ele>208.4</ele>
        <time>2019-06-23T07:44:05.000Z</time>
      </trkpt>
      <trkpt lat="43.26229" lon="2.47031">
        <ele>208.3</ele>
        <time>2019-06-23T07:44:06.000Z</time>
      </trkpt>
      <trkpt lat="43.26226" lon="2.47032">
        <ele>208.2</ele>
        <time>2019-06-23T07:44:07.000Z</time>
      </trkpt>
      <trkpt lat="43.26223" lon="2.47032">
        <ele>208.1</ele>
        <time>2019-06-23T07:44:08.000Z</time>
      </trkpt>
      <trkpt lat="43.2622" lon="2.47033">
        <ele>207.9</ele>
        <time>2019-06-23T07:44:09.000Z</time>
      </trkpt>
      <trkpt lat="43.26218" lon="2.47033">
        <ele>207.8</ele>
        <time>2019-06-23T07:44:10.000Z</time>
      </trkpt>
      <trkpt lat="43.26215" lon="2.47034">
        <ele>207.7</ele>
        <time>2019-06-23T07:44:11.000Z</time>
      </trkpt>
      <trkpt lat="43.26212" lon="2.47034">
        <ele>207.5</ele>
        <time>2019-06-23T07:44:12.000Z</time>
      </trkpt>
      <trkpt lat="43.26209" lon="2.47035">
        <ele>207.4</ele>
        <time>2019-06-23T07:44:13.000Z</time>
      </trkpt>
      <trkpt lat="43.26206" lon="2.47035">
        <ele>207.3</ele>
        <time>2019-06-23T07:44:14.000Z</time>
      </trkpt>
      <trkpt lat="43.26204" lon="2.47036">
        <ele>207.1</ele>
        <time>2019-06-23T07:44:15.000Z</time>
      </trkpt>
      <trkpt lat="43.26201" lon="2.47036">
        <ele>207</ele>
        <time>2019-06-23T07:44:16.000Z</time>
      </trkpt>
      <trkpt lat="43.26198" lon="2.47037">
        <ele>206.9</ele>
        <time>2019-06-23T07:44:17.000Z</time>
      </trkpt>
      <trkpt lat="43.26195" lon="2.47038">
        <ele>206.8</ele>
        <time>2019-06-23T07:44:18.000Z</time>
      </trkpt>
      <trkpt lat="43.26192" lon="2.47038">
        <ele>206.6</ele>
        <time>2019-06-23T07:44:19.000Z</time>
      </trkpt>
      <trkpt lat="43.26189" lon="2.47039">
        <ele>206.5</ele>
        <time>2019-06-23T07:44:20.000Z</time>
      </trkpt>
      <trkpt lat="43.26187" lon="2.4704">
        <ele>206.4</ele>
        <time>2019-06-23T07:44:21.000Z</time>
      </trkpt>
      <trkpt lat="43.26184" lon="2.4704">
        <ele>206.2</ele>
        <time>2019-06-23T07:44:22.000Z</time>
      </trkpt>
      <trkpt lat="43.26181" lon="2.47041">
        <ele>206.1</ele>
        <time>2019-06-23T07:44:23.000Z</time>
      </trkpt>
      <trkpt lat="43.26178" lon="2.47041">
        <ele>206</ele>
        <time>2019-06-23T07:44:24.000Z</time>
      </trkpt>
      <trkpt lat="43.26176" lon="2.47042">
        <ele>205.9</ele>
        <time>2019-06-23T07:44:25.000Z</time>
      </trkpt>
      <trkpt lat="43.26173" lon="2.47042">
        <ele>205.8</ele>
        <time>2019-06-23T07:44:26.000Z</time>
      </trkpt>
      <trkpt lat="43.2617" lon="2.47043">
        <ele>205.6</ele>
        <time>2019-06-23T07:44:27.000Z</time>
      </trkpt>
      <trkpt lat="43.26168" lon="2.47043">
        <ele>205.5</ele>
        <time>2019-06-23T07:44:28.000Z</time>
      </trkpt>
      <trkpt lat="43.26165" lon="2.47044">
        <ele>205.4</ele>
        <time>2019-06-23T07:44:29.000Z</time>
      </trkpt>
      <trkpt lat="43.26162" lon="2.47045">
        <ele>205.3</ele>
        <time>2019-06-23T07:44:30.000Z</time>
      </trkpt>
      <trkpt lat="43.2616" lon="2.47046">
        <ele>205.1</ele>
        <time>2019-06-23T07:44:31.000Z</time>
      </trkpt>
      <trkpt lat="43.26157" lon="2.47047">
        <ele>205</ele>
        <time>2019-06-23T07:44:32.000Z</time>
      </trkpt>
      <trkpt lat="43.26155" lon="2.47048">
        <ele>204.9</ele>
        <time>2019-06-23T07:44:33.000Z</time>
      </trkpt>
      <trkpt lat="43.26152" lon="2.4705">
        <ele>204.7</ele>
        <time>2019-06-23T07:44:34.000Z</time>
      </trkpt>
      <trkpt lat="43.2615" lon="2.47051">
        <ele>204.6</ele>
        <time>2019-06-23T07:44:35.000Z</time>
      </trkpt>
      <trkpt lat="43.26147" lon="2.47052">
        <ele>204.4</ele>
        <time>2019-06-23T07:44:36.000Z</time>
      </trkpt>
      <trkpt lat="43.26144" lon="2.47053">
        <ele>204.3</ele>
        <time>2019-06-23T07:44:37.000Z</time>
      </trkpt>
      <trkpt lat="43.26142" lon="2.47054">
        <ele>204.2</ele>
        <time>2019-06-23T07:44:38.000Z</time>
      </trkpt>
      <trkpt lat="43.26139" lon="2.47055">
        <ele>204</ele>
        <time>2019-06-23T07:44:39.000Z</time>
      </trkpt>
      <trkpt lat="43.26136" lon="2.47055">
        <ele>203.9</ele>
        <time>2019-06-23T07:44:40.000Z</time>
      </trkpt>
      <trkpt lat="43.26133" lon="2.47056">
        <ele>203.7</ele>
        <time>2019-06-23T07:44:41.000Z</time>
      </trkpt>
      <trkpt lat="43.2613" lon="2.47056">
        <ele>203.6</ele>
        <time>2019-06-23T07:44:42.000Z</time>
      </trkpt>
      <trkpt lat="43.26127" lon="2.47057">
        <ele>203.4</ele>
        <time>2019-06-23T07:44:43.000Z</time>
      </trkpt>
      <trkpt lat="43.26124" lon="2.47057">
        <ele>203.3</ele>
        <time>2019-06-23T07:44:44.000Z</time>
      </trkpt>
      <trkpt lat="43.26121" lon="2.47057">
        <ele>203.1</ele>
        <time>2019-06-23T07:44:45.000Z</time>
      </trkpt>
      <trkpt lat="43.26118" lon="2.47058">
        <ele>203</ele>
        <time>2019-06-23T07:44:46.000Z</time>
      </trkpt>
      <trkpt lat="43.26115" lon="2.47058">
        <ele>202.8</ele>
        <time>2019-06-23T07:44:47.000Z</time>
      </trkpt>
      <trkpt lat="43.26112" lon="2.47058">
        <ele>202.7</ele>
        <time>2019-06-23T07:44:48.000Z</time>
      </trkpt>
      <trkpt lat="43.26109" lon="2.47059">
        <ele>202.5</ele>
        <time>2019-06-23T07:44:49.000Z</time>
      </trkpt>
      <trkpt lat="43.26106" lon="2.47059">
        <ele>202.4</ele>
        <time>2019-06-23T07:44:50.000Z</time>
      </trkpt>
      <trkpt lat="43.26103" lon="2.4706">
        <ele>202.2</ele>
        <time>2019-06-23T07:44:51.000Z</time>
      </trkpt>
      <trkpt lat="43.26101" lon="2.4706">
        <ele>202.1</ele>
        <time>2019-06-23T07:44:52.000Z</time>
      </trkpt>
      <trkpt lat="43.26098" lon="2.4706">
        <ele>202</ele>
        <time>2019-06-23T07:44:53.000Z</time>
      </trkpt>
      <trkpt lat="43.26095" lon="2.47061">
        <ele>201.8</ele>
        <time>2019-06-23T07:44:54.000Z</time>
      </trkpt>
      <trkpt lat="43.26092" lon="2.47061">
        <ele>201.7</ele>
        <time>2019-06-23T07:44:55.000Z</time>
      </trkpt>
      <trkpt lat="43.26089" lon="2.47062">
        <ele>201.5</ele>
        <time>2019-06-23T07:44:56.000Z</time>
      </trkpt>
      <trkpt lat="43.26086" lon="2.47062">
        <ele>201.4</ele>
        <time>2019-06-23T07:44:57.000Z</time>
      </trkpt>
      <trkpt lat="43.26083" lon="2.47062">
        <ele>201.2</ele>
        <time>2019-06-23T07:44:58.000Z</time>
      </trkpt>
      <trkpt lat="43.2608" lon="2.47063">
        <ele>201.1</ele>
        <time>2019-06-23T07:44:59.000Z</time>
      </trkpt>
      <trkpt lat="43.26077" lon="2.47063">
        <ele>200.9</ele>
        <time>2019-06-23T07:45:00.000Z</time>
      </trkpt>
      <trkpt lat="43.26074" lon="2.47064">
        <ele>200.7</ele>
        <time>2019-06-23T07:45:01.000Z</time>
      </trkpt>
      <trkpt lat="43.26071" lon="2.47064">
        <ele>200.5</ele>
        <time>2019-06-23T07:45:02.000Z</time>
      </trkpt>
      <trkpt lat="43.26068" lon="2.47064">
        <ele>200.3</ele>
        <time>2019-06-23T07:45:03.000Z</time>
      </trkpt>
      <trkpt lat="43.26065" lon="2.47065">
        <ele>200.1</ele>
        <time>2019-06-23T07:45:04.000Z</time>
      </trkpt>
      <trkpt lat="43.26063" lon="2.47066">
        <ele>200</ele>
        <time>2019-06-23T07:45:05.000Z</time>
      </trkpt>
      <trkpt lat="43.2606" lon="2.47066">
        <ele>199.8</ele>
        <time>2019-06-23T07:45:06.000Z</time>
      </trkpt>
      <trkpt lat="43.26057" lon="2.47067">
        <ele>199.6</ele>
        <time>2019-06-23T07:45:07.000Z</time>
      </trkpt>
      <trkpt lat="43.26054" lon="2.47067">
        <ele>199.4</ele>
        <time>2019-06-23T07:45:08.000Z</time>
      </trkpt>
      <trkpt lat="43.26051" lon="2.47068">
        <ele>199.2</ele>
        <time>2019-06-23T07:45:09.000Z</time>
      </trkpt>
      <trkpt lat="43.26048" lon="2.47068">
        <ele>199</ele>
        <time>2019-06-23T07:45:10.000Z</time>
      </trkpt>
      <trkpt lat="43.26045" lon="2.47069">
        <ele>198.9</ele>
        <time>2019-06-23T07:45:11.000Z</time>
      </trkpt>
      <trkpt lat="43.26042" lon="2.47069">
        <ele>198.7</ele>
        <time>2019-06-23T07:45:12.000Z</time>
      </trkpt>
      <trkpt lat="43.26039" lon="2.4707">
        <ele>198.5</ele>
        <time>2019-06-23T07:45:13.000Z</time>
      </trkpt>
      <trkpt lat="43.26036" lon="2.4707">
        <ele>198.3</ele>
        <time>2019-06-23T07:45:14.000Z</time>
      </trkpt>
      <trkpt lat="43.26033" lon="2.47071">
        <ele>198.1</ele>
        <time>2019-06-23T07:45:15.000Z</time>
      </trkpt>
      <trkpt lat="43.2603" lon="2.47071">
        <ele>197.9</ele>
        <time>2019-06-23T07:45:16.000Z</time>
      </trkpt>
      <trkpt lat="43.26026" lon="2.47072">
        <ele>197.7</ele>
        <time>2019-06-23T07:45:17.000Z</time>
      </trkpt>
      <trkpt lat="43.26023" lon="2.47072">
        <ele>197.5</ele>
        <time>2019-06-23T07:45:18.000Z</time>
      </trkpt>
      <trkpt lat="43.2602" lon="2.47072">
        <ele>197.3</ele>
        <time>2019-06-23T07:45:19.000Z</time>
      </trkpt>
      <trkpt lat="43.26017" lon="2.47073">
        <ele>197.1</ele>
        <time>2019-06-23T07:45:20.000Z</time>
      </trkpt>
      <trkpt lat="43.26014" lon="2.47073">
        <ele>196.9</ele>
        <time>2019-06-23T07:45:21.000Z</time>
      </trkpt>
      <trkpt lat="43.26011" lon="2.47074">
        <ele>196.7</ele>
        <time>2019-06-23T07:45:22.000Z</time>
      </trkpt>
      <trkpt lat="43.26007" lon="2.47074">
        <ele>196.6</ele>
        <time>2019-06-23T07:45:23.000Z</time>
      </trkpt>
      <trkpt lat="43.26004" lon="2.47075">
        <ele>196.4</ele>
        <time>2019-06-23T07:45:24.000Z</time>
      </trkpt>
      <trkpt lat="43.26001" lon="2.47075">
        <ele>196.2</ele>
        <time>2019-06-23T07:45:25.000Z</time>
      </trkpt>
      <trkpt lat="43.25998" lon="2.47076">
        <ele>196</ele>
        <time>2019-06-23T07:45:26.000Z</time>
      </trkpt>
      <trkpt lat="43.25995" lon="2.47077">
        <ele>195.8</ele>
        <time>2019-06-23T07:45:27.000Z</time>
      </trkpt>
      <trkpt lat="43.25992" lon="2.47077">
        <ele>195.7</ele>
        <time>2019-06-23T07:45:28.000Z</time>
      </trkpt>
      <trkpt lat="43.25989" lon="2.47078">
        <ele>195.5</ele>
        <time>2019-06-23T07:45:29.000Z</time>
      </trkpt>
      <trkpt lat="43.25985" lon="2.47079">
        <ele>195.3</ele>
        <time>2019-06-23T07:45:30.000Z</time>
      </trkpt>
      <trkpt lat="43.25982" lon="2.4708">
        <ele>195.2</ele>
        <time>2019-06-23T07:45:31.000Z</time>
      </trkpt>
      <trkpt lat="43.25979" lon="2.47081">
        <ele>195</ele>
        <time>2019-06-23T07:45:32.000Z</time>
      </trkpt>
      <trkpt lat="43.25976" lon="2.47081">
        <ele>194.9</ele>
        <time>2019-06-23T07:45:33.000Z</time>
      </trkpt>
      <trkpt lat="43.25973" lon="2.47082">
        <ele>194.7</ele>
        <time>2019-06-23T07:45:34.000Z</time>
      </trkpt>
      <trkpt lat="43.2597" lon="2.47083">
        <ele>194.6</ele>
        <time>2019-06-23T07:45:35.000Z</time>
      </trkpt>
      <trkpt lat="43.25967" lon="2.47084">
        <ele>194.4</ele>
        <time>2019-06-23T07:45:36.000Z</time>
      </trkpt>
      <trkpt lat="43.25964" lon="2.47086">
        <ele>194.3</ele>
        <time>2019-06-23T07:45:37.000Z</time>
      </trkpt>
      <trkpt lat="43.25961" lon="2.47087">
        <ele>194.1</ele>
        <time>2019-06-23T07:45:38.000Z</time>
      </trkpt>
      <trkpt lat="43.25958" lon="2.47088">
        <ele>194</ele>
        <time>2019-06-23T07:45:39.000Z</time>
      </trkpt>
      <trkpt lat="43.25955" lon="2.47089">
        <ele>193.8</ele>
        <time>2019-06-23T07:45:40.000Z</time>
      </trkpt>
      <trkpt lat="43.25951" lon="2.47091">
        <ele>193.7</ele>
        <time>2019-06-23T07:45:41.000Z</time>
      </trkpt>
      <trkpt lat="43.25948" lon="2.47092">
        <ele>193.5</ele>
        <time>2019-06-23T07:45:42.000Z</time>
      </trkpt>
      <trkpt lat="43.25945" lon="2.47093">
        <ele>193.4</ele>
        <time>2019-06-23T07:45:43.000Z</time>
      </trkpt>
      <trkpt lat="43.25942" lon="2.47095">
        <ele>193.3</ele>
        <time>2019-06-23T07:45:44.000Z</time>
      </trkpt>
      <trkpt lat="43.25939" lon="2.47096">
        <ele>193.1</ele>
        <time>2019-06-23T07:45:45.000Z</time>
      </trkpt>
      <trkpt lat="43.25936" lon="2.47098">
        <ele>193</ele>
        <time>2019-06-23T07:45:46.000Z</time>
      </trkpt>
      <trkpt lat="43.25933" lon="2.47099">
        <ele>192.9</ele>
        <time>2019-06-23T07:45:47.000Z</time>
      </trkpt>
      <trkpt lat="43.25931" lon="2.471">
        <ele>192.8</ele>
        <time>2019-06-23T07:45:48.000Z</time>
      </trkpt>
      <trkpt lat="43.25929" lon="2.47102">
        <ele>192.7</ele>
        <time>2019-06-23T07:45:49.000Z</time>
      </trkpt>
      <trkpt lat="43.25927" lon="2.47104">
        <ele>192.7</ele>
        <time>2019-06-23T07:45:50.000Z</time>
      </trkpt>
      <trkpt lat="43.25926" lon="2.47105">
        <ele>192.6</ele>
        <time>2019-06-23T07:45:51.000Z</time>
      </trkpt>
      <trkpt lat="43.25924" lon="2.47107">
        <ele>192.6</ele>
        <time>2019-06-23T07:45:52.000Z</time>
      </trkpt>
      <trkpt lat="43.25922" lon="2.47108">
        <ele>192.5</ele>
        <time>2019-06-23T07:45:53.000Z</time>
      </trkpt>
      <trkpt lat="43.25919" lon="2.47109">
        <ele>192.4</ele>
        <time>2019-06-23T07:45:54.000Z</time>
      </trkpt>
      <trkpt lat="43.25917" lon="2.47111">
        <ele>192.3</ele>
        <time>2019-06-23T07:45:55.000Z</time>
      </trkpt>
      <trkpt lat="43.25915" lon="2.47112">
        <ele>192.3</ele>
        <time>2019-06-23T07:45:56.000Z</time>
      </trkpt>
      <trkpt lat="43.25912" lon="2.47112">
        <ele>192.3</ele>
        <time>2019-06-23T07:45:57.000Z</time>
      </trkpt>
      <trkpt lat="43.2591" lon="2.47113">
        <ele>192.2</ele>
        <time>2019-06-23T07:45:58.000Z</time>
      </trkpt>
      <trkpt lat="43.25908" lon="2.47113">
        <ele>192.2</ele>
        <time>2019-06-23T07:45:59.000Z</time>
      </trkpt>
      <trkpt lat="43.25906" lon="2.47114">
        <ele>192.2</ele>
        <time>2019-06-23T07:46:00.000Z</time>
      </trkpt>
      <trkpt lat="43.25904" lon="2.47114">
        <ele>192.2</ele>
        <time>2019-06-23T07:46:01.000Z</time>
      </trkpt>
      <trkpt lat="43.25902" lon="2.47115">
        <ele>192.1</ele>
        <time>2019-06-23T07:46:02.000Z</time>
      </trkpt>
      <trkpt lat="43.259" lon="2.47116">
        <ele>192.1</ele>
        <time>2019-06-23T07:46:03.000Z</time>
      </trkpt>
      <trkpt lat="43.25898" lon="2.47118">
        <ele>192.1</ele>
        <time>2019-06-23T07:46:04.000Z</time>
      </trkpt>
      <trkpt lat="43.25897" lon="2.4712">
        <ele>192.1</ele>
        <time>2019-06-23T07:46:05.000Z</time>
      </trkpt>
      <trkpt lat="43.25895" lon="2.47122">
        <ele>192.1</ele>
        <time>2019-06-23T07:46:06.000Z</time>
      </trkpt>
      <trkpt lat="43.25893" lon="2.47124">
        <ele>192.1</ele>
        <time>2019-06-23T07:46:07.000Z</time>
      </trkpt>
      <trkpt lat="43.25891" lon="2.47127">
        <ele>192</ele>
        <time>2019-06-23T07:46:08.000Z</time>
      </trkpt>
      <trkpt lat="43.25889" lon="2.47129">
        <ele>192</ele>
        <time>2019-06-23T07:46:09.000Z</time>
      </trkpt>
      <trkpt lat="43.25887" lon="2.47131">
        <ele>192</ele>
        <time>2019-06-23T07:46:10.000Z</time>
      </trkpt>
      <trkpt lat="43.25885" lon="2.47133">
        <ele>192</ele>
        <time>2019-06-23T07:46:11.000Z</time>
      </trkpt>
      <trkpt lat="43.25883" lon="2.47135">
        <ele>192</ele>
        <time>2019-06-23T07:46:12.000Z</time>
      </trkpt>
      <trkpt lat="43.25882" lon="2.47137">
        <ele>191.9</ele>
        <time>2019-06-23T07:46:13.000Z</time>
      </trkpt>
      <trkpt lat="43.25879" lon="2.47139">
        <ele>191.9</ele>
        <time>2019-06-23T07:46:14.000Z</time>
      </trkpt>
      <trkpt lat="43.25877" lon="2.47141">
        <ele>191.9</ele>
        <time>2019-06-23T07:46:15.000Z</time>
      </trkpt>
      <trkpt lat="43.25875" lon="2.47143">
        <ele>191.9</ele>
        <time>2019-06-23T07:46:16.000Z</time>
      </trkpt>
      <trkpt lat="43.25873" lon="2.47145">
        <ele>191.8</ele>
        <time>2019-06-23T07:46:17.000Z</time>
      </trkpt>
      <trkpt lat="43.2587" lon="2.47146">
        <ele>191.8</ele>
        <time>2019-06-23T07:46:18.000Z</time>
      </trkpt>
      <trkpt lat="43.25868" lon="2.47148">
        <ele>191.7</ele>
        <time>2019-06-23T07:46:19.000Z</time>
      </trkpt>
      <trkpt lat="43.25865" lon="2.4715">
        <ele>191.7</ele>
        <time>2019-06-23T07:46:20.000Z</time>
      </trkpt>
      <trkpt lat="43.25863" lon="2.47151">
        <ele>191.6</ele>
        <time>2019-06-23T07:46:21.000Z</time>
      </trkpt>
      <trkpt lat="43.2586" lon="2.47153">
        <ele>191.6</ele>
        <time>2019-06-23T07:46:22.000Z</time>
      </trkpt>
      <trkpt lat="43.25858" lon="2.47154">
        <ele>191.5</ele>
        <time>2019-06-23T07:46:23.000Z</time>
      </trkpt>
      <trkpt lat="43.25855" lon="2.47155">
        <ele>191.5</ele>
        <time>2019-06-23T07:46:24.000Z</time>
      </trkpt>
      <trkpt lat="43.25852" lon="2.47155">
        <ele>191.4</ele>
        <time>2019-06-23T07:46:25.000Z</time>
      </trkpt>
      <trkpt lat="43.25849" lon="2.47156">
        <ele>191.4</ele>
        <time>2019-06-23T07:46:26.000Z</time>
      </trkpt>
      <trkpt lat="43.25846" lon="2.47157">
        <ele>191.3</ele>
        <time>2019-06-23T07:46:27.000Z</time>
      </trkpt>
      <trkpt lat="43.25843" lon="2.47157">
        <ele>191.2</ele>
        <time>2019-06-23T07:46:28.000Z</time>
      </trkpt>
      <trkpt lat="43.25841" lon="2.47158">
        <ele>191.2</ele>
        <time>2019-06-23T07:46:29.000Z</time>
      </trkpt>
      <trkpt lat="43.25838" lon="2.47158">
        <ele>191.1</ele>
        <time>2019-06-23T07:46:30.000Z</time>
      </trkpt>
      <trkpt lat="43.25835" lon="2.47159">
        <ele>191</ele>
        <time>2019-06-23T07:46:31.000Z</time>
      </trkpt>
      <trkpt lat="43.25832" lon="2.47159">
        <ele>191</ele>
        <time>2019-06-23T07:46:32.000Z</time>
      </trkpt>
      <trkpt lat="43.25829" lon="2.4716">
        <ele>190.9</ele>
        <time>2019-06-23T07:46:33.000Z</time>
      </trkpt>
      <trkpt lat="43.25827" lon="2.47161">
        <ele>190.9</ele>
        <time>2019-06-23T07:46:34.000Z</time>
      </trkpt>
      <trkpt lat="43.25824" lon="2.47162">
        <ele>190.9</ele>
        <time>2019-06-23T07:46:35.000Z</time>
      </trkpt>
      <trkpt lat="43.25821" lon="2.47163">
        <ele>190.8</ele>
        <time>2019-06-23T07:46:36.000Z</time>
      </trkpt>
      <trkpt lat="43.25819" lon="2.47164">
        <ele>190.8</ele>
        <time>2019-06-23T07:46:37.000Z</time>
      </trkpt>
      <trkpt lat="43.25817" lon="2.47165">
        <ele>190.8</ele>
        <time>2019-06-23T07:46:38.000Z</time>
      </trkpt>
      <trkpt lat="43.25814" lon="2.47166">
        <ele>190.8</ele>
        <time>2019-06-23T07:46:39.000Z</time>
      </trkpt>
      <trkpt lat="43.25812" lon="2.47167">
        <ele>190.7</ele>
        <time>2019-06-23T07:46:40.000Z</time>
      </trkpt>
      <trkpt lat="43.2581" lon="2.47168">
        <ele>190.6</ele>
        <time>2019-06-23T07:46:41.000Z</time>
      </trkpt>
      <trkpt lat="43.25809" lon="2.47169">
        <ele>190.5</ele>
        <time>2019-06-23T07:46:42.000Z</time>
      </trkpt>
      <trkpt lat="43.25807" lon="2.4717">
        <ele>190.4</ele>
        <time>2019-06-23T07:46:43.000Z</time>
      </trkpt>
      <trkpt lat="43.25806" lon="2.47172">
        <ele>190.3</ele>
        <time>2019-06-23T07:46:44.000Z</time>
      </trkpt>
      <trkpt lat="43.25805" lon="2.47173">
        <ele>190.2</ele>
        <time>2019-06-23T07:46:45.000Z</time>
      </trkpt>
      <trkpt lat="43.25804" lon="2.47174">
        <ele>190.1</ele>
        <time>2019-06-23T07:46:46.000Z</time>
      </trkpt>
      <trkpt lat="43.25803" lon="2.47175">
        <ele>190</ele>
        <time>2019-06-23T07:46:47.000Z</time>
      </trkpt>
      <trkpt lat="43.25802" lon="2.47177">
        <ele>189.9</ele>
        <time>2019-06-23T07:46:48.000Z</time>
      </trkpt>
      <trkpt lat="43.25802" lon="2.47178">
        <ele>189.8</ele>
        <time>2019-06-23T07:46:49.000Z</time>
      </trkpt>
      <trkpt lat="43.25801" lon="2.47179">
        <ele>189.7</ele>
        <time>2019-06-23T07:46:50.000Z</time>
      </trkpt>
      <trkpt lat="43.25801" lon="2.47181">
        <ele>189.6</ele>
        <time>2019-06-23T07:46:51.000Z</time>
      </trkpt>
      <trkpt lat="43.25801" lon="2.47182">
        <ele>189.5</ele>
        <time>2019-06-23T07:46:52.000Z</time>
      </trkpt>
      <trkpt lat="43.25801" lon="2.47184">
        <ele>189.4</ele>
        <time>2019-06-23T07:46:53.000Z</time>
      </trkpt>
      <trkpt lat="43.258" lon="2.47186">
        <ele>189.3</ele>
        <time>2019-06-23T07:46:54.000Z</time>
      </trkpt>
      <trkpt lat="43.258" lon="2.47187">
        <ele>189.2</ele>
        <time>2019-06-23T07:46:55.000Z</time>
      </trkpt>
      <trkpt lat="43.258" lon="2.47189">
        <ele>189.1</ele>
        <time>2019-06-23T07:46:56.000Z</time>
      </trkpt>
      <trkpt lat="43.25799" lon="2.4719">
        <ele>189</ele>
        <time>2019-06-23T07:46:57.000Z</time>
      </trkpt>
      <trkpt lat="43.25799" lon="2.47192">
        <ele>188.9</ele>
        <time>2019-06-23T07:46:58.000Z</time>
      </trkpt>
      <trkpt lat="43.25798" lon="2.47193">
        <ele>188.9</ele>
        <time>2019-06-23T07:46:59.000Z</time>
      </trkpt>
      <trkpt lat="43.25797" lon="2.47194">
        <ele>188.8</ele>
        <time>2019-06-23T07:47:00.000Z</time>
      </trkpt>
      <trkpt lat="43.25796" lon="2.47194">
        <ele>188.8</ele>
        <time>2019-06-23T07:47:01.000Z</time>
      </trkpt>
      <trkpt lat="43.25795" lon="2.47195">
        <ele>188.8</ele>
        <time>2019-06-23T07:47:02.000Z</time>
      </trkpt>
      <trkpt lat="43.25794" lon="2.47195">
        <ele>188.8</ele>
        <time>2019-06-23T07:47:03.000Z</time>
      </trkpt>
      <trkpt lat="43.25793" lon="2.47194">
        <ele>188.8</ele>
        <time>2019-06-23T07:47:04.000Z</time>
      </trkpt>
      <trkpt lat="43.25792" lon="2.47194">
        <ele>188.9</ele>
        <time>2019-06-23T07:47:05.000Z</time>
      </trkpt>
      <trkpt lat="43.25792" lon="2.47193">
        <ele>188.9</ele>
        <time>2019-06-23T07:47:06.000Z</time>
      </trkpt>
      <trkpt lat="43.25791" lon="2.47192">
        <ele>189</ele>
        <time>2019-06-23T07:47:07.000Z</time>
      </trkpt>
      <trkpt lat="43.25792" lon="2.47191">
        <ele>189</ele>
        <time>2019-06-23T07:47:08.000Z</time>
      </trkpt>
      <trkpt lat="43.25792" lon="2.4719">
        <ele>189.1</ele>
        <time>2019-06-23T07:47:09.000Z</time>
      </trkpt>
      <trkpt lat="43.25792" lon="2.4719">
        <ele>189.1</ele>
        <time>2019-06-23T07:47:10.000Z</time>
      </trkpt>
      <trkpt lat="43.25792" lon="2.47189">
        <ele>189.1</ele>
        <time>2019-06-23T07:47:11.000Z</time>
      </trkpt>
      <trkpt lat="43.25792" lon="2.47189">
        <ele>189.1</ele>
        <time>2019-06-23T07:47:12.000Z</time>
      </trkpt>
      <trkpt lat="43.25792" lon="2.47189">
        <ele>189.1</ele>
        <time>2019-06-23T07:47:13.000Z</time>
      </trkpt>
      <trkpt lat="43.25793" lon="2.4719">
        <ele>189.1</ele>
        <time>2019-06-23T07:47:14.000Z</time>
      </trkpt>
      <trkpt lat="43.25793" lon="2.4719">
        <ele>189.1</ele>
        <time>2019-06-23T07:47:15.000Z</time>
      </trkpt>
      <trkpt lat="43.25793" lon="2.4719">
        <ele>189.1</ele>
        <time>2019-06-23T07:47:16.000Z</time>
      </trkpt>
      <trkpt lat="43.25793" lon="2.4719">
        <ele>189.1</ele>
        <time>2019-06-23T07:47:17.000Z</time>
      </trkpt>
      <trkpt lat="43.25793" lon="2.4719">
        <ele>189.1</ele>
        <time>2019-06-23T07:47:18.000Z</time>
      </trkpt>
      <trkpt lat="43.25793" lon="2.4719">
        <ele>189.1</ele>
        <time>2019-06-23T07:47:19.000Z</time>
      </trkpt>
      <trkpt lat="43.25793" lon="2.4719">
        <ele>189.1</ele>
        <time>2019-06-23T07:47:20.000Z</time>
      </trkpt>
      <trkpt lat="43.25793" lon="2.4719">
        <ele>189.1</ele>
        <time>2019-06-23T07:47:21.000Z</time>
      </trkpt>
      <trkpt lat="43.25793" lon="2.4719">
        <ele>189.1</ele>
        <time>2019-06-23T07:47:22.000Z</time>
      </trkpt>
      <trkpt lat="43.25793" lon="2.4719">
        <ele>189.1</ele>
        <time>2019-06-23T07:47:23.000Z</time>
      </trkpt>
      <trkpt lat="43.25793" lon="2.4719">
        <ele>189.1</ele>
        <time>2019-06-23T07:47:24.000Z</time>
      </trkpt>
      <trkpt lat="43.25793" lon="2.4719">
        <ele>189.1</ele>
        <time>2019-06-23T07:47:25.000Z</time>
      </trkpt>
      <trkpt lat="43.25792" lon="2.4719">
        <ele>189.1</ele>
        <time>2019-06-23T07:47:26.000Z</time>
      </trkpt>
      <trkpt lat="43.25792" lon="2.4719">
        <ele>189.1</ele>
        <time>2019-06-23T07:47:27.000Z</time>
      </trkpt>
      <trkpt lat="43.25792" lon="2.4719">
        <ele>189.1</ele>
        <time>2019-06-23T07:47:28.000Z</time>
      </trkpt>
      <trkpt lat="43.25792" lon="2.47189">
        <ele>189.1</ele>
        <time>2019-06-23T07:47:29.000Z</time>
      </trkpt>
      <trkpt lat="43.25791" lon="2.47189">
        <ele>189.2</ele>
        <time>2019-06-23T07:47:30.000Z</time>
      </trkpt>
      <trkpt lat="43.25791" lon="2.47189">
        <ele>189.2</ele>
        <time>2019-06-23T07:47:31.000Z</time>
      </trkpt>
      <trkpt lat="43.25791" lon="2.47189">
        <ele>189.2</ele>
        <time>2019-06-23T07:47:32.000Z</time>
      </trkpt>
      <trkpt lat="43.2579" lon="2.47188">
        <ele>189.2</ele>
        <time>2019-06-23T07:47:33.000Z</time>
      </trkpt>
      <trkpt lat="43.2579" lon="2.47188">
        <ele>189.2</ele>
        <time>2019-06-23T07:47:34.000Z</time>
      </trkpt>
      <trkpt lat="43.25789" lon="2.47188">
        <ele>189.3</ele>
        <time>2019-06-23T07:47:35.000Z</time>
      </trkpt>
      <trkpt lat="43.25789" lon="2.47187">
        <ele>189.3</ele>
        <time>2019-06-23T07:47:36.000Z</time>
      </trkpt>
      <trkpt lat="43.25788" lon="2.47187">
        <ele>189.3</ele>
        <time>2019-06-23T07:47:37.000Z</time>
      </trkpt>
      <trkpt lat="43.25788" lon="2.47186">
        <ele>189.4</ele>
        <time>2019-06-23T07:47:38.000Z</time>
      </trkpt>
      <trkpt lat="43.25787" lon="2.47185">
        <ele>189.4</ele>
        <time>2019-06-23T07:47:39.000Z</time>
      </trkpt>
      <trkpt lat="43.25787" lon="2.47184">
        <ele>189.5</ele>
        <time>2019-06-23T07:47:40.000Z</time>
      </trkpt>
      <trkpt lat="43.25787" lon="2.47183">
        <ele>189.5</ele>
        <time>2019-06-23T07:47:41.000Z</time>
      </trkpt>
      <trkpt lat="43.25787" lon="2.47182">
        <ele>189.6</ele>
        <time>2019-06-23T07:47:42.000Z</time>
      </trkpt>
      <trkpt lat="43.25787" lon="2.47181">
        <ele>189.6</ele>
        <time>2019-06-23T07:47:43.000Z</time>
      </trkpt>
      <trkpt lat="43.25786" lon="2.4718">
        <ele>189.7</ele>
        <time>2019-06-23T07:47:44.000Z</time>
      </trkpt>
      <trkpt lat="43.25786" lon="2.4718">
        <ele>189.7</ele>
        <time>2019-06-23T07:47:45.000Z</time>
      </trkpt>
      <trkpt lat="43.25786" lon="2.47179">
        <ele>189.8</ele>
        <time>2019-06-23T07:47:46.000Z</time>
      </trkpt>
      <trkpt lat="43.25785" lon="2.47179">
        <ele>189.8</ele>
        <time>2019-06-23T07:47:47.000Z</time>
      </trkpt>
      <trkpt lat="43.25784" lon="2.47179">
        <ele>189.8</ele>
        <time>2019-06-23T07:47:48.000Z</time>
      </trkpt>
      <trkpt lat="43.25784" lon="2.47179">
        <ele>189.7</ele>
        <time>2019-06-23T07:47:49.000Z</time>
      </trkpt>
      <trkpt lat="43.25783" lon="2.4718">
        <ele>189.7</ele>
        <time>2019-06-23T07:47:50.000Z</time>
      </trkpt>
      <trkpt lat="43.25783" lon="2.4718">
        <ele>189.7</ele>
        <time>2019-06-23T07:47:51.000Z</time>
      </trkpt>
      <trkpt lat="43.25782" lon="2.4718">
        <ele>189.7</ele>
        <time>2019-06-23T07:47:52.000Z</time>
      </trkpt>
      <trkpt lat="43.25782" lon="2.47181">
        <ele>189.7</ele>
        <time>2019-06-23T07:47:53.000Z</time>
      </trkpt>
      <trkpt lat="43.25782" lon="2.47181">
        <ele>189.7</ele>
        <time>2019-06-23T07:47:54.000Z</time>
      </trkpt>
      <trkpt lat="43.25782" lon="2.47181">
        <ele>189.7</ele>
        <time>2019-06-23T07:47:55.000Z</time>
      </trkpt>
      <trkpt lat="43.25782" lon="2.47181">
        <ele>189.7</ele>
        <time>2019-06-23T07:47:56.000Z</time>
      </trkpt>
      <trkpt lat="43.25782" lon="2.47181">
        <ele>189.7</ele>
        <time>2019-06-23T07:47:57.000Z</time>
      </trkpt>
      <trkpt lat="43.25782" lon="2.47181">
        <ele>189.6</ele>
        <time>2019-06-23T07:47:58.000Z</time>
      </trkpt>
      <trkpt lat="43.25782" lon="2.47181">
        <ele>189.6</ele>
        <time>2019-06-23T07:47:59.000Z</time>
      </trkpt>
      <trkpt lat="43.25782" lon="2.47181">
        <ele>189.6</ele>
        <time>2019-06-23T07:48:00.000Z</time>
      </trkpt>
      <trkpt lat="43.25782" lon="2.47181">
        <ele>189.6</ele>
        <time>2019-06-23T07:48:01.000Z</time>
      </trkpt>
      <trkpt lat="43.25782" lon="2.47181">
        <ele>189.6</ele>
        <time>2019-06-23T07:48:02.000Z</time>
      </trkpt>
      <trkpt lat="43.25782" lon="2.47181">
        <ele>189.6</ele>
        <time>2019-06-23T07:48:03.000Z</time>
      </trkpt>
      <trkpt lat="43.25782" lon="2.47181">
        <ele>189.6</ele>
        <time>2019-06-23T07:48:04.000Z</time>
      </trkpt>
      <trkpt lat="43.25782" lon="2.47181">
        <ele>189.6</ele>
        <time>2019-06-23T07:48:05.000Z</time>
      </trkpt>
      <trkpt lat="43.25782" lon="2.47181">
        <ele>189.6</ele>
        <time>2019-06-23T07:48:06.000Z</time>
      </trkpt>
      <trkpt lat="43.25782" lon="2.47181">
        <ele>189.7</ele>
        <time>2019-06-23T07:48:07.000Z</time>
      </trkpt>
      <trkpt lat="43.25782" lon="2.47181">
        <ele>189.6</ele>
        <time>2019-06-23T07:48:08.000Z</time>
      </trkpt>
      <trkpt lat="43.25782" lon="2.47181">
        <ele>189.6</ele>
        <time>2019-06-23T07:48:09.000Z</time>
      </trkpt>
      <trkpt lat="43.25782" lon="2.47181">
        <ele>189.6</ele>
        <time>2019-06-23T07:48:10.000Z</time>
      </trkpt>
      <trkpt lat="43.25782" lon="2.47181">
        <ele>189.6</ele>
        <time>2019-06-23T07:48:11.000Z</time>
      </trkpt>
      <trkpt lat="43.25782" lon="2.47181">
        <ele>189.6</ele>
        <time>2019-06-23T07:48:12.000Z</time>
      </trkpt>
      <trkpt lat="43.25782" lon="2.47181">
        <ele>189.6</ele>
        <time>2019-06-23T07:48:13.000Z</time>
      </trkpt>
      <trkpt lat="43.25782" lon="2.47181">
        <ele>189.6</ele>
        <time>2019-06-23T07:48:14.000Z</time>
      </trkpt>
      <trkpt lat="43.25782" lon="2.47181">
        <ele>189.6</ele>
        <time>2019-06-23T07:48:15.000Z</time>
      </trkpt>
      <trkpt lat="43.25782" lon="2.47181">
        <ele>189.6</ele>
        <time>2019-06-23T07:48:16.000Z</time>
      </trkpt>
      <trkpt lat="43.25782" lon="2.47181">
        <ele>189.6</ele>
        <time>2019-06-23T07:48:17.000Z</time>
      </trkpt>
      <trkpt lat="43.25782" lon="2.47181">
        <ele>189.6</ele>
        <time>2019-06-23T07:48:18.000Z</time>
      </trkpt>
      <trkpt lat="43.25782" lon="2.47181">
        <ele>189.6</ele>
        <time>2019-06-23T07:48:19.000Z</time>
      </trkpt>
      <trkpt lat="43.25781" lon="2.47181">
        <ele>189.6</ele>
        <time>2019-06-23T07:48:20.000Z</time>
      </trkpt>
      <trkpt lat="43.25781" lon="2.47181">
        <ele>189.6</ele>
        <time>2019-06-23T07:48:21.000Z</time>
      </trkpt>
      <trkpt lat="43.25781" lon="2.47181">
        <ele>189.6</ele>
        <time>2019-06-23T07:48:22.000Z</time>
      </trkpt>
      <trkpt lat="43.25781" lon="2.47181">
        <ele>189.6</ele>
        <time>2019-06-23T07:48:23.000Z</time>
      </trkpt>
      <trkpt lat="43.25781" lon="2.47181">
        <ele>189.6</ele>
        <time>2019-06-23T07:48:24.000Z</time>
      </trkpt>
      <trkpt lat="43.25781" lon="2.47181">
        <ele>189.6</ele>
        <time>2019-06-23T07:48:25.000Z</time>
      </trkpt>
      <trkpt lat="43.25781" lon="2.47181">
        <ele>189.6</ele>
        <time>2019-06-23T07:48:26.000Z</time>
      </trkpt>
      <trkpt lat="43.2578" lon="2.47181">
        <ele>189.6</ele>
        <time>2019-06-23T07:48:27.000Z</time>
      </trkpt>
      <trkpt lat="43.2578" lon="2.47181">
        <ele>189.7</ele>
        <time>2019-06-23T07:48:28.000Z</time>
      </trkpt>
      <trkpt lat="43.2578" lon="2.47181">
        <ele>189.7</ele>
        <time>2019-06-23T07:48:29.000Z</time>
      </trkpt>
      <trkpt lat="43.2578" lon="2.47181">
        <ele>189.7</ele>
        <time>2019-06-23T07:48:30.000Z</time>
      </trkpt>
      <trkpt lat="43.2578" lon="2.4718">
        <ele>189.7</ele>
        <time>2019-06-23T07:48:31.000Z</time>
      </trkpt>
      <trkpt lat="43.2578" lon="2.4718">
        <ele>189.7</ele>
        <time>2019-06-23T07:48:32.000Z</time>
      </trkpt>
      <trkpt lat="43.2578" lon="2.4718">
        <ele>189.7</ele>
        <time>2019-06-23T07:48:33.000Z</time>
      </trkpt>
      <trkpt lat="43.2578" lon="2.4718">
        <ele>189.7</ele>
        <time>2019-06-23T07:48:34.000Z</time>
      </trkpt>
      <trkpt lat="43.2578" lon="2.4718">
        <ele>189.7</ele>
        <time>2019-06-23T07:48:35.000Z</time>
      </trkpt>
      <trkpt lat="43.2578" lon="2.4718">
        <ele>189.7</ele>
        <time>2019-06-23T07:48:36.000Z</time>
      </trkpt>
      <trkpt lat="43.2578" lon="2.4718">
        <ele>189.7</ele>
        <time>2019-06-23T07:48:37.000Z</time>
      </trkpt>
      <trkpt lat="43.2578" lon="2.4718">
        <ele>189.7</ele>
        <time>2019-06-23T07:48:38.000Z</time>
      </trkpt>
      <trkpt lat="43.2578" lon="2.4718">
        <ele>189.7</ele>
        <time>2019-06-23T07:48:39.000Z</time>
      </trkpt>
      <trkpt lat="43.2578" lon="2.4718">
        <ele>189.7</ele>
        <time>2019-06-23T07:48:40.000Z</time>
      </trkpt>
      <trkpt lat="43.25779" lon="2.47181">
        <ele>189.7</ele>
        <time>2019-06-23T07:48:41.000Z</time>
      </trkpt>
      <trkpt lat="43.25779" lon="2.47181">
        <ele>189.6</ele>
        <time>2019-06-23T07:48:42.000Z</time>
      </trkpt>
      <trkpt lat="43.25779" lon="2.47181">
        <ele>189.6</ele>
        <time>2019-06-23T07:48:43.000Z</time>
      </trkpt>
      <trkpt lat="43.25779" lon="2.47182">
        <ele>189.6</ele>
        <time>2019-06-23T07:48:44.000Z</time>
      </trkpt>
      <trkpt lat="43.25778" lon="2.47182">
        <ele>189.6</ele>
        <time>2019-06-23T07:48:45.000Z</time>
      </trkpt>
      <trkpt lat="43.25778" lon="2.47182">
        <ele>189.6</ele>
        <time>2019-06-23T07:48:46.000Z</time>
      </trkpt>
      <trkpt lat="43.25777" lon="2.47183">
        <ele>189.6</ele>
        <time>2019-06-23T07:48:47.000Z</time>
      </trkpt>
      <trkpt lat="43.25776" lon="2.47183">
        <ele>189.6</ele>
        <time>2019-06-23T07:48:48.000Z</time>
      </trkpt>
      <trkpt lat="43.25775" lon="2.47182">
        <ele>189.6</ele>
        <time>2019-06-23T07:48:49.000Z</time>
      </trkpt>
      <trkpt lat="43.25773" lon="2.47182">
        <ele>189.6</ele>
        <time>2019-06-23T07:48:50.000Z</time>
      </trkpt>
      <trkpt lat="43.25772" lon="2.47181">
        <ele>189.6</ele>
        <time>2019-06-23T07:48:51.000Z</time>
      </trkpt>
      <trkpt lat="43.2577" lon="2.47181">
        <ele>189.7</ele>
        <time>2019-06-23T07:48:52.000Z</time>
      </trkpt>
      <trkpt lat="43.25768" lon="2.4718">
        <ele>189.7</ele>
        <time>2019-06-23T07:48:53.000Z</time>
      </trkpt>
      <trkpt lat="43.25765" lon="2.47179">
        <ele>189.7</ele>
        <time>2019-06-23T07:48:54.000Z</time>
      </trkpt>
      <trkpt lat="43.25763" lon="2.47179">
        <ele>189.7</ele>
        <time>2019-06-23T07:48:55.000Z</time>
      </trkpt>
      <trkpt lat="43.25761" lon="2.47178">
        <ele>189.7</ele>
        <time>2019-06-23T07:48:56.000Z</time>
      </trkpt>
      <trkpt lat="43.25758" lon="2.47178">
        <ele>189.7</ele>
        <time>2019-06-23T07:48:57.000Z</time>
      </trkpt>
      <trkpt lat="43.25755" lon="2.47179">
        <ele>189.7</ele>
        <time>2019-06-23T07:48:58.000Z</time>
      </trkpt>
      <trkpt lat="43.25753" lon="2.47179">
        <ele>189.7</ele>
        <time>2019-06-23T07:48:59.000Z</time>
      </trkpt>
      <trkpt lat="43.2575" lon="2.4718">
        <ele>189.7</ele>
        <time>2019-06-23T07:49:00.000Z</time>
      </trkpt>
      <trkpt lat="43.25748" lon="2.47181">
        <ele>189.5</ele>
        <time>2019-06-23T07:49:01.000Z</time>
      </trkpt>
      <trkpt lat="43.25745" lon="2.47182">
        <ele>189.3</ele>
        <time>2019-06-23T07:49:02.000Z</time>
      </trkpt>
      <trkpt lat="43.25742" lon="2.47183">
        <ele>189.1</ele>
        <time>2019-06-23T07:49:03.000Z</time>
      </trkpt>
      <trkpt lat="43.2574" lon="2.47184">
        <ele>188.9</ele>
        <time>2019-06-23T07:49:04.000Z</time>
      </trkpt>
      <trkpt lat="43.25737" lon="2.47184">
        <ele>188.7</ele>
        <time>2019-06-23T07:49:05.000Z</time>
      </trkpt>
      <trkpt lat="43.25735" lon="2.47184">
        <ele>188.6</ele>
        <time>2019-06-23T07:49:06.000Z</time>
      </trkpt>
      <trkpt lat="43.25732" lon="2.47184">
        <ele>188.4</ele>
        <time>2019-06-23T07:49:07.000Z</time>
      </trkpt>
      <trkpt lat="43.2573" lon="2.47184">
        <ele>188.2</ele>
        <time>2019-06-23T07:49:08.000Z</time>
      </trkpt>
      <trkpt lat="43.25727" lon="2.47184">
        <ele>188</ele>
        <time>2019-06-23T07:49:09.000Z</time>
      </trkpt>
      <trkpt lat="43.25725" lon="2.47183">
        <ele>187.9</ele>
        <time>2019-06-23T07:49:10.000Z</time>
      </trkpt>
      <trkpt lat="43.25722" lon="2.47182">
        <ele>187.7</ele>
        <time>2019-06-23T07:49:11.000Z</time>
      </trkpt>
      <trkpt lat="43.2572" lon="2.47181">
        <ele>187.6</ele>
        <time>2019-06-23T07:49:12.000Z</time>
      </trkpt>
      <trkpt lat="43.25717" lon="2.47179">
        <ele>187.4</ele>
        <time>2019-06-23T07:49:13.000Z</time>
      </trkpt>
      <trkpt lat="43.25715" lon="2.47177">
        <ele>187.3</ele>
        <time>2019-06-23T07:49:14.000Z</time>
      </trkpt>
      <trkpt lat="43.25712" lon="2.47175">
        <ele>187.2</ele>
        <time>2019-06-23T07:49:15.000Z</time>
      </trkpt>
      <trkpt lat="43.2571" lon="2.47173">
        <ele>187</ele>
        <time>2019-06-23T07:49:16.000Z</time>
      </trkpt>
      <trkpt lat="43.25707" lon="2.47171">
        <ele>186.9</ele>
        <time>2019-06-23T07:49:17.000Z</time>
      </trkpt>
      <trkpt lat="43.25705" lon="2.47169">
        <ele>186.7</ele>
        <time>2019-06-23T07:49:18.000Z</time>
      </trkpt>
      <trkpt lat="43.25703" lon="2.47167">
        <ele>186.6</ele>
        <time>2019-06-23T07:49:19.000Z</time>
      </trkpt>
      <trkpt lat="43.257" lon="2.47165">
        <ele>186.4</ele>
        <time>2019-06-23T07:49:20.000Z</time>
      </trkpt>
      <trkpt lat="43.25698" lon="2.47163">
        <ele>186.2</ele>
        <time>2019-06-23T07:49:21.000Z</time>
      </trkpt>
      <trkpt lat="43.25696" lon="2.47161">
        <ele>186</ele>
        <time>2019-06-23T07:49:22.000Z</time>
      </trkpt>
      <trkpt lat="43.25693" lon="2.47159">
        <ele>185.8</ele>
        <time>2019-06-23T07:49:23.000Z</time>
      </trkpt>
      <trkpt lat="43.25691" lon="2.47157">
        <ele>185.6</ele>
        <time>2019-06-23T07:49:24.000Z</time>
      </trkpt>
      <trkpt lat="43.25689" lon="2.47155">
        <ele>185.5</ele>
        <time>2019-06-23T07:49:25.000Z</time>
      </trkpt>
      <trkpt lat="43.25687" lon="2.47153">
        <ele>185.3</ele>
        <time>2019-06-23T07:49:26.000Z</time>
      </trkpt>
      <trkpt lat="43.25684" lon="2.47152">
        <ele>185.1</ele>
        <time>2019-06-23T07:49:27.000Z</time>
      </trkpt>
      <trkpt lat="43.25682" lon="2.4715">
        <ele>184.9</ele>
        <time>2019-06-23T07:49:28.000Z</time>
      </trkpt>
      <trkpt lat="43.2568" lon="2.47148">
        <ele>184.7</ele>
        <time>2019-06-23T07:49:29.000Z</time>
      </trkpt>
      <trkpt lat="43.25678" lon="2.47146">
        <ele>184.5</ele>
        <time>2019-06-23T07:49:30.000Z</time>
      </trkpt>
      <trkpt lat="43.25675" lon="2.47145">
        <ele>184.4</ele>
        <time>2019-06-23T07:49:31.000Z</time>
      </trkpt>
      <trkpt lat="43.25673" lon="2.47143">
        <ele>184.2</ele>
        <time>2019-06-23T07:49:32.000Z</time>
      </trkpt>
      <trkpt lat="43.25671" lon="2.47141">
        <ele>184</ele>
        <time>2019-06-23T07:49:33.000Z</time>
      </trkpt>
      <trkpt lat="43.25669" lon="2.4714">
        <ele>183.8</ele>
        <time>2019-06-23T07:49:34.000Z</time>
      </trkpt>
      <trkpt lat="43.25667" lon="2.47138">
        <ele>183.6</ele>
        <time>2019-06-23T07:49:35.000Z</time>
      </trkpt>
      <trkpt lat="43.25664" lon="2.47137">
        <ele>183.5</ele>
        <time>2019-06-23T07:49:36.000Z</time>
      </trkpt>
      <trkpt lat="43.25662" lon="2.47135">
        <ele>183.3</ele>
        <time>2019-06-23T07:49:37.000Z</time>
      </trkpt>
      <trkpt lat="43.2566" lon="2.47134">
        <ele>183.2</ele>
        <time>2019-06-23T07:49:38.000Z</time>
      </trkpt>
      <trkpt lat="43.25657" lon="2.47133">
        <ele>183</ele>
        <time>2019-06-23T07:49:39.000Z</time>
      </trkpt>
      <trkpt lat="43.25655" lon="2.47131">
        <ele>182.8</ele>
        <time>2019-06-23T07:49:40.000Z</time>
      </trkpt>
      <trkpt lat="43.25653" lon="2.4713">
        <ele>182.7</ele>
        <time>2019-06-23T07:49:41.000Z</time>
      </trkpt>
      <trkpt lat="43.25651" lon="2.47128">
        <ele>182.5</ele>
        <time>2019-06-23T07:49:42.000Z</time>
      </trkpt>
      <trkpt lat="43.25648" lon="2.47127">
        <ele>182.4</ele>
        <time>2019-06-23T07:49:43.000Z</time>
      </trkpt>
      <trkpt lat="43.25646" lon="2.47126">
        <ele>182.2</ele>
        <time>2019-06-23T07:49:44.000Z</time>
      </trkpt>
      <trkpt lat="43.25643" lon="2.47124">
        <ele>182.1</ele>
        <time>2019-06-23T07:49:45.000Z</time>
      </trkpt>
      <trkpt lat="43.25641" lon="2.47123">
        <ele>182</ele>
        <time>2019-06-23T07:49:46.000Z</time>
      </trkpt>
      <trkpt lat="43.25638" lon="2.47122">
        <ele>181.8</ele>
        <time>2019-06-23T07:49:47.000Z</time>
      </trkpt>
      <trkpt lat="43.25636" lon="2.4712">
        <ele>181.7</ele>
        <time>2019-06-23T07:49:48.000Z</time>
      </trkpt>
      <trkpt lat="43.25633" lon="2.47119">
        <ele>181.5</ele>
        <time>2019-06-23T07:49:49.000Z</time>
      </trkpt>
      <trkpt lat="43.25631" lon="2.47118">
        <ele>181.4</ele>
        <time>2019-06-23T07:49:50.000Z</time>
      </trkpt>
      <trkpt lat="43.25628" lon="2.47117">
        <ele>181.3</ele>
        <time>2019-06-23T07:49:51.000Z</time>
      </trkpt>
      <trkpt lat="43.25626" lon="2.47115">
        <ele>181.1</ele>
        <time>2019-06-23T07:49:52.000Z</time>
      </trkpt>
      <trkpt lat="43.25623" lon="2.47114">
        <ele>181</ele>
        <time>2019-06-23T07:49:53.000Z</time>
      </trkpt>
      <trkpt lat="43.2562" lon="2.47113">
        <ele>180.9</ele>
        <time>2019-06-23T07:49:54.000Z</time>
      </trkpt>
      <trkpt lat="43.25618" lon="2.47111">
        <ele>180.8</ele>
        <time>2019-06-23T07:49:55.000Z</time>
      </trkpt>
      <trkpt lat="43.25615" lon="2.4711">
        <ele>180.7</ele>
        <time>2019-06-23T07:49:56.000Z</time>
      </trkpt>
      <trkpt lat="43.25612" lon="2.47109">
        <ele>180.6</ele>
        <time>2019-06-23T07:49:57.000Z</time>
      </trkpt>
      <trkpt lat="43.2561" lon="2.47107">
        <ele>180.4</ele>
        <time>2019-06-23T07:49:58.000Z</time>
      </trkpt>
      <trkpt lat="43.25607" lon="2.47106">
        <ele>180.3</ele>
        <time>2019-06-23T07:49:59.000Z</time>
      </trkpt>
      <trkpt lat="43.25604" lon="2.47104">
        <ele>180.3</ele>
        <time>2019-06-23T07:50:00.000Z</time>
      </trkpt>
      <trkpt lat="43.25602" lon="2.47103">
        <ele>180.2</ele>
        <time>2019-06-23T07:50:01.000Z</time>
      </trkpt>
      <trkpt lat="43.25599" lon="2.47101">
        <ele>180.1</ele>
        <time>2019-06-23T07:50:02.000Z</time>
      </trkpt>
      <trkpt lat="43.25597" lon="2.471">
        <ele>180</ele>
        <time>2019-06-23T07:50:03.000Z</time>
      </trkpt>
      <trkpt lat="43.25594" lon="2.47098">
        <ele>180</ele>
        <time>2019-06-23T07:50:04.000Z</time>
      </trkpt>
      <trkpt lat="43.25592" lon="2.47096">
        <ele>179.9</ele>
        <time>2019-06-23T07:50:05.000Z</time>
      </trkpt>
      <trkpt lat="43.25589" lon="2.47094">
        <ele>179.9</ele>
        <time>2019-06-23T07:50:06.000Z</time>
      </trkpt>
      <trkpt lat="43.25587" lon="2.47093">
        <ele>179.8</ele>
        <time>2019-06-23T07:50:07.000Z</time>
      </trkpt>
      <trkpt lat="43.25585" lon="2.47091">
        <ele>179.8</ele>
        <time>2019-06-23T07:50:08.000Z</time>
      </trkpt>
      <trkpt lat="43.25582" lon="2.47089">
        <ele>179.8</ele>
        <time>2019-06-23T07:50:09.000Z</time>
      </trkpt>
      <trkpt lat="43.2558" lon="2.47087">
        <ele>179.9</ele>
        <time>2019-06-23T07:50:10.000Z</time>
      </trkpt>
      <trkpt lat="43.25578" lon="2.47085">
        <ele>179.9</ele>
        <time>2019-06-23T07:50:11.000Z</time>
      </trkpt>
      <trkpt lat="43.25576" lon="2.47083">
        <ele>179.9</ele>
        <time>2019-06-23T07:50:12.000Z</time>
      </trkpt>
      <trkpt lat="43.25574" lon="2.4708">
        <ele>180</ele>
        <time>2019-06-23T07:50:13.000Z</time>
      </trkpt>
      <trkpt lat="43.25573" lon="2.47078">
        <ele>180</ele>
        <time>2019-06-23T07:50:14.000Z</time>
      </trkpt>
      <trkpt lat="43.25572" lon="2.47076">
        <ele>180</ele>
        <time>2019-06-23T07:50:15.000Z</time>
      </trkpt>
      <trkpt lat="43.2557" lon="2.47073">
        <ele>180.1</ele>
        <time>2019-06-23T07:50:16.000Z</time>
      </trkpt>
      <trkpt lat="43.25569" lon="2.47071">
        <ele>180.1</ele>
        <time>2019-06-23T07:50:17.000Z</time>
      </trkpt>
      <trkpt lat="43.25567" lon="2.47069">
        <ele>180.1</ele>
        <time>2019-06-23T07:50:18.000Z</time>
      </trkpt>
      <trkpt lat="43.25564" lon="2.47067">
        <ele>180.1</ele>
        <time>2019-06-23T07:50:19.000Z</time>
      </trkpt>
      <trkpt lat="43.25562" lon="2.47065">
        <ele>180.1</ele>
        <time>2019-06-23T07:50:20.000Z</time>
      </trkpt>
      <trkpt lat="43.2556" lon="2.47063">
        <ele>180.1</ele>
        <time>2019-06-23T07:50:21.000Z</time>
      </trkpt>
      <trkpt lat="43.25558" lon="2.4706">
        <ele>180.2</ele>
        <time>2019-06-23T07:50:22.000Z</time>
      </trkpt>
      <trkpt lat="43.25555" lon="2.47058">
        <ele>180.2</ele>
        <time>2019-06-23T07:50:23.000Z</time>
      </trkpt>
      <trkpt lat="43.25553" lon="2.47056">
        <ele>180.2</ele>
        <time>2019-06-23T07:50:24.000Z</time>
      </trkpt>
      <trkpt lat="43.25552" lon="2.47053">
        <ele>180.2</ele>
        <time>2019-06-23T07:50:25.000Z</time>
      </trkpt>
      <trkpt lat="43.2555" lon="2.4705">
        <ele>180.2</ele>
        <time>2019-06-23T07:50:26.000Z</time>
      </trkpt>
      <trkpt lat="43.25548" lon="2.47047">
        <ele>180.3</ele>
        <time>2019-06-23T07:50:27.000Z</time>
      </trkpt>
      <trkpt lat="43.25547" lon="2.47044">
        <ele>180.3</ele>
        <time>2019-06-23T07:50:28.000Z</time>
      </trkpt>
      <trkpt lat="43.25546" lon="2.47041">
        <ele>180.3</ele>
        <time>2019-06-23T07:50:29.000Z</time>
      </trkpt>
      <trkpt lat="43.25545" lon="2.47038">
        <ele>180.4</ele>
        <time>2019-06-23T07:50:30.000Z</time>
      </trkpt>
      <trkpt lat="43.25544" lon="2.47034">
        <ele>180.4</ele>
        <time>2019-06-23T07:50:31.000Z</time>
      </trkpt>
      <trkpt lat="43.25543" lon="2.4703">
        <ele>180.5</ele>
        <time>2019-06-23T07:50:32.000Z</time>
      </trkpt>
      <trkpt lat="43.25543" lon="2.47026">
        <ele>180.5</ele>
        <time>2019-06-23T07:50:33.000Z</time>
      </trkpt>
      <trkpt lat="43.25542" lon="2.47023">
        <ele>180.6</ele>
        <time>2019-06-23T07:50:34.000Z</time>
      </trkpt>
      <trkpt lat="43.25542" lon="2.47019">
        <ele>180.7</ele>
        <time>2019-06-23T07:50:35.000Z</time>
      </trkpt>
      <trkpt lat="43.25541" lon="2.47015">
        <ele>180.7</ele>
        <time>2019-06-23T07:50:36.000Z</time>
      </trkpt>
      <trkpt lat="43.25541" lon="2.47011">
        <ele>180.8</ele>
        <time>2019-06-23T07:50:37.000Z</time>
      </trkpt>
      <trkpt lat="43.25541" lon="2.47007">
        <ele>180.9</ele>
        <time>2019-06-23T07:50:38.000Z</time>
      </trkpt>
      <trkpt lat="43.25541" lon="2.47003">
        <ele>180.9</ele>
        <time>2019-06-23T07:50:39.000Z</time>
      </trkpt>
      <trkpt lat="43.25541" lon="2.47">
        <ele>181</ele>
        <time>2019-06-23T07:50:40.000Z</time>
      </trkpt>
      <trkpt lat="43.2554" lon="2.46996">
        <ele>180.9</ele>
        <time>2019-06-23T07:50:41.000Z</time>
      </trkpt>
      <trkpt lat="43.2554" lon="2.46993">
        <ele>180.9</ele>
        <time>2019-06-23T07:50:42.000Z</time>
      </trkpt>
      <trkpt lat="43.2554" lon="2.4699">
        <ele>180.9</ele>
        <time>2019-06-23T07:50:43.000Z</time>
      </trkpt>
      <trkpt lat="43.25539" lon="2.46987">
        <ele>180.9</ele>
        <time>2019-06-23T07:50:44.000Z</time>
      </trkpt>
      <trkpt lat="43.25538" lon="2.46984">
        <ele>180.8</ele>
        <time>2019-06-23T07:50:45.000Z</time>
      </trkpt>
      <trkpt lat="43.25538" lon="2.46981">
        <ele>180.8</ele>
        <time>2019-06-23T07:50:46.000Z</time>
      </trkpt>
      <trkpt lat="43.25537" lon="2.46978">
        <ele>180.7</ele>
        <time>2019-06-23T07:50:47.000Z</time>
      </trkpt>
      <trkpt lat="43.25535" lon="2.46976">
        <ele>180.7</ele>
        <time>2019-06-23T07:50:48.000Z</time>
      </trkpt>
      <trkpt lat="43.25534" lon="2.46973">
        <ele>180.6</ele>
        <time>2019-06-23T07:50:49.000Z</time>
      </trkpt>
      <trkpt lat="43.25533" lon="2.46971">
        <ele>180.6</ele>
        <time>2019-06-23T07:50:50.000Z</time>
      </trkpt>
      <trkpt lat="43.25531" lon="2.46968">
        <ele>180.5</ele>
        <time>2019-06-23T07:50:51.000Z</time>
      </trkpt>
      <trkpt lat="43.25529" lon="2.46966">
        <ele>180.4</ele>
        <time>2019-06-23T07:50:52.000Z</time>
      </trkpt>
      <trkpt lat="43.25527" lon="2.46963">
        <ele>180.4</ele>
        <time>2019-06-23T07:50:53.000Z</time>
      </trkpt>
      <trkpt lat="43.25525" lon="2.46961">
        <ele>180.3</ele>
        <time>2019-06-23T07:50:54.000Z</time>
      </trkpt>
      <trkpt lat="43.25523" lon="2.46958">
        <ele>180.2</ele>
        <time>2019-06-23T07:50:55.000Z</time>
      </trkpt>
      <trkpt lat="43.2552" lon="2.46956">
        <ele>180.1</ele>
        <time>2019-06-23T07:50:56.000Z</time>
      </trkpt>
      <trkpt lat="43.25518" lon="2.46953">
        <ele>180</ele>
        <time>2019-06-23T07:50:57.000Z</time>
      </trkpt>
      <trkpt lat="43.25516" lon="2.46951">
        <ele>179.9</ele>
        <time>2019-06-23T07:50:58.000Z</time>
      </trkpt>
      <trkpt lat="43.25513" lon="2.46948">
        <ele>179.8</ele>
        <time>2019-06-23T07:50:59.000Z</time>
      </trkpt>
      <trkpt lat="43.25511" lon="2.46946">
        <ele>179.7</ele>
        <time>2019-06-23T07:51:00.000Z</time>
      </trkpt>
      <trkpt lat="43.25508" lon="2.46944">
        <ele>179.6</ele>
        <time>2019-06-23T07:51:01.000Z</time>
      </trkpt>
      <trkpt lat="43.25506" lon="2.46941">
        <ele>179.5</ele>
        <time>2019-06-23T07:51:02.000Z</time>
      </trkpt>
      <trkpt lat="43.25504" lon="2.46939">
        <ele>179.4</ele>
        <time>2019-06-23T07:51:03.000Z</time>
      </trkpt>
      <trkpt lat="43.25502" lon="2.46936">
        <ele>179.3</ele>
        <time>2019-06-23T07:51:04.000Z</time>
      </trkpt>
      <trkpt lat="43.25499" lon="2.46934">
        <ele>179.2</ele>
        <time>2019-06-23T07:51:05.000Z</time>
      </trkpt>
      <trkpt lat="43.25497" lon="2.46931">
        <ele>179.2</ele>
        <time>2019-06-23T07:51:06.000Z</time>
      </trkpt>
      <trkpt lat="43.25495" lon="2.46929">
        <ele>179.1</ele>
        <time>2019-06-23T07:51:07.000Z</time>
      </trkpt>
      <trkpt lat="43.25493" lon="2.46926">
        <ele>179.1</ele>
        <time>2019-06-23T07:51:08.000Z</time>
      </trkpt>
      <trkpt lat="43.25491" lon="2.46923">
        <ele>179.1</ele>
        <time>2019-06-23T07:51:09.000Z</time>
      </trkpt>
      <trkpt lat="43.2549" lon="2.46919">
        <ele>179</ele>
        <time>2019-06-23T07:51:10.000Z</time>
      </trkpt>
      <trkpt lat="43.25488" lon="2.46916">
        <ele>179</ele>
        <time>2019-06-23T07:51:11.000Z</time>
      </trkpt>
      <trkpt lat="43.25486" lon="2.46912">
        <ele>178.9</ele>
        <time>2019-06-23T07:51:12.000Z</time>
      </trkpt>
      <trkpt lat="43.25485" lon="2.46909">
        <ele>178.9</ele>
        <time>2019-06-23T07:51:13.000Z</time>
      </trkpt>
      <trkpt lat="43.25484" lon="2.46905">
        <ele>178.9</ele>
        <time>2019-06-23T07:51:14.000Z</time>
      </trkpt>
      <trkpt lat="43.25483" lon="2.46901">
        <ele>178.8</ele>
        <time>2019-06-23T07:51:15.000Z</time>
      </trkpt>
      <trkpt lat="43.25482" lon="2.46898">
        <ele>178.8</ele>
        <time>2019-06-23T07:51:16.000Z</time>
      </trkpt>
      <trkpt lat="43.25482" lon="2.46894">
        <ele>178.7</ele>
        <time>2019-06-23T07:51:17.000Z</time>
      </trkpt>
      <trkpt lat="43.25482" lon="2.4689">
        <ele>178.7</ele>
        <time>2019-06-23T07:51:18.000Z</time>
      </trkpt>
      <trkpt lat="43.25481" lon="2.46886">
        <ele>178.6</ele>
        <time>2019-06-23T07:51:19.000Z</time>
      </trkpt>
      <trkpt lat="43.25481" lon="2.46882">
        <ele>178.6</ele>
        <time>2019-06-23T07:51:20.000Z</time>
      </trkpt>
      <trkpt lat="43.25481" lon="2.46879">
        <ele>178.5</ele>
        <time>2019-06-23T07:51:21.000Z</time>
      </trkpt>
      <trkpt lat="43.25481" lon="2.46875">
        <ele>178.5</ele>
        <time>2019-06-23T07:51:22.000Z</time>
      </trkpt>
      <trkpt lat="43.25482" lon="2.46871">
        <ele>178.5</ele>
        <time>2019-06-23T07:51:23.000Z</time>
      </trkpt>
      <trkpt lat="43.25482" lon="2.46867">
        <ele>178.4</ele>
        <time>2019-06-23T07:51:24.000Z</time>
      </trkpt>
      <trkpt lat="43.25482" lon="2.46863">
        <ele>178.4</ele>
        <time>2019-06-23T07:51:25.000Z</time>
      </trkpt>
      <trkpt lat="43.25482" lon="2.4686">
        <ele>178.3</ele>
        <time>2019-06-23T07:51:26.000Z</time>
      </trkpt>
      <trkpt lat="43.25482" lon="2.46856">
        <ele>178.3</ele>
        <time>2019-06-23T07:51:27.000Z</time>
      </trkpt>
      <trkpt lat="43.25482" lon="2.46852">
        <ele>178.2</ele>
        <time>2019-06-23T07:51:28.000Z</time>
      </trkpt>
      <trkpt lat="43.25482" lon="2.46849">
        <ele>178.2</ele>
        <time>2019-06-23T07:51:29.000Z</time>
      </trkpt>
      <trkpt lat="43.25483" lon="2.46845">
        <ele>178.1</ele>
        <time>2019-06-23T07:51:30.000Z</time>
      </trkpt>
      <trkpt lat="43.25483" lon="2.46841">
        <ele>178.1</ele>
        <time>2019-06-23T07:51:31.000Z</time>
      </trkpt>
      <trkpt lat="43.25483" lon="2.46837">
        <ele>178</ele>
        <time>2019-06-23T07:51:32.000Z</time>
      </trkpt>
      <trkpt lat="43.25483" lon="2.46834">
        <ele>178</ele>
        <time>2019-06-23T07:51:33.000Z</time>
      </trkpt>
      <trkpt lat="43.25483" lon="2.4683">
        <ele>178</ele>
        <time>2019-06-23T07:51:34.000Z</time>
      </trkpt>
      <trkpt lat="43.25483" lon="2.46826">
        <ele>178</ele>
        <time>2019-06-23T07:51:35.000Z</time>
      </trkpt>
      <trkpt lat="43.25483" lon="2.46822">
        <ele>178</ele>
        <time>2019-06-23T07:51:36.000Z</time>
      </trkpt>
      <trkpt lat="43.25483" lon="2.46818">
        <ele>178</ele>
        <time>2019-06-23T07:51:37.000Z</time>
      </trkpt>
      <trkpt lat="43.25483" lon="2.46815">
        <ele>178</ele>
        <time>2019-06-23T07:51:38.000Z</time>
      </trkpt>
      <trkpt lat="43.25483" lon="2.46811">
        <ele>177.9</ele>
        <time>2019-06-23T07:51:39.000Z</time>
      </trkpt>
      <trkpt lat="43.25482" lon="2.46807">
        <ele>177.9</ele>
        <time>2019-06-23T07:51:40.000Z</time>
      </trkpt>
      <trkpt lat="43.25482" lon="2.46803">
        <ele>177.9</ele>
        <time>2019-06-23T07:51:41.000Z</time>
      </trkpt>
      <trkpt lat="43.25482" lon="2.46799">
        <ele>177.9</ele>
        <time>2019-06-23T07:51:42.000Z</time>
      </trkpt>
      <trkpt lat="43.25482" lon="2.46794">
        <ele>177.9</ele>
        <time>2019-06-23T07:51:43.000Z</time>
      </trkpt>
      <trkpt lat="43.25482" lon="2.4679">
        <ele>177.9</ele>
        <time>2019-06-23T07:51:44.000Z</time>
      </trkpt>
      <trkpt lat="43.25481" lon="2.46786">
        <ele>177.9</ele>
        <time>2019-06-23T07:51:45.000Z</time>
      </trkpt>
      <trkpt lat="43.25481" lon="2.46782">
        <ele>177.9</ele>
        <time>2019-06-23T07:51:46.000Z</time>
      </trkpt>
      <trkpt lat="43.25481" lon="2.46778">
        <ele>177.8</ele>
        <time>2019-06-23T07:51:47.000Z</time>
      </trkpt>
      <trkpt lat="43.25481" lon="2.46774">
        <ele>177.8</ele>
        <time>2019-06-23T07:51:48.000Z</time>
      </trkpt>
      <trkpt lat="43.25481" lon="2.4677">
        <ele>177.8</ele>
        <time>2019-06-23T07:51:49.000Z</time>
      </trkpt>
      <trkpt lat="43.25481" lon="2.46766">
        <ele>177.8</ele>
        <time>2019-06-23T07:51:50.000Z</time>
      </trkpt>
      <trkpt lat="43.2548" lon="2.46762">
        <ele>177.8</ele>
        <time>2019-06-23T07:51:51.000Z</time>
      </trkpt>
      <trkpt lat="43.2548" lon="2.46758">
        <ele>177.8</ele>
        <time>2019-06-23T07:51:52.000Z</time>
      </trkpt>
      <trkpt lat="43.2548" lon="2.46754">
        <ele>177.8</ele>
        <time>2019-06-23T07:51:53.000Z</time>
      </trkpt>
      <trkpt lat="43.2548" lon="2.46749">
        <ele>177.8</ele>
        <time>2019-06-23T07:51:54.000Z</time>
      </trkpt>
      <trkpt lat="43.2548" lon="2.46745">
        <ele>177.7</ele>
        <time>2019-06-23T07:51:55.000Z</time>
      </trkpt>
      <trkpt lat="43.2548" lon="2.46741">
        <ele>177.6</ele>
        <time>2019-06-23T07:51:56.000Z</time>
      </trkpt>
      <trkpt lat="43.25481" lon="2.46737">
        <ele>177.5</ele>
        <time>2019-06-23T07:51:57.000Z</time>
      </trkpt>
      <trkpt lat="43.25481" lon="2.46733">
        <ele>177.4</ele>
        <time>2019-06-23T07:51:58.000Z</time>
      </trkpt>
      <trkpt lat="43.25481" lon="2.46729">
        <ele>177.3</ele>
        <time>2019-06-23T07:51:59.000Z</time>
      </trkpt>
      <trkpt lat="43.25481" lon="2.46725">
        <ele>177.2</ele>
        <time>2019-06-23T07:52:00.000Z</time>
      </trkpt>
      <trkpt lat="43.25481" lon="2.46721">
        <ele>177.2</ele>
        <time>2019-06-23T07:52:01.000Z</time>
      </trkpt>
      <trkpt lat="43.25482" lon="2.46717">
        <ele>177.1</ele>
        <time>2019-06-23T07:52:02.000Z</time>
      </trkpt>
      <trkpt lat="43.25482" lon="2.46713">
        <ele>177</ele>
        <time>2019-06-23T07:52:03.000Z</time>
      </trkpt>
      <trkpt lat="43.25482" lon="2.46709">
        <ele>176.9</ele>
        <time>2019-06-23T07:52:04.000Z</time>
      </trkpt>
      <trkpt lat="43.25483" lon="2.46705">
        <ele>176.8</ele>
        <time>2019-06-23T07:52:05.000Z</time>
      </trkpt>
      <trkpt lat="43.25483" lon="2.46701">
        <ele>176.7</ele>
        <time>2019-06-23T07:52:06.000Z</time>
      </trkpt>
      <trkpt lat="43.25484" lon="2.46697">
        <ele>176.7</ele>
        <time>2019-06-23T07:52:07.000Z</time>
      </trkpt>
      <trkpt lat="43.25484" lon="2.46693">
        <ele>176.6</ele>
        <time>2019-06-23T07:52:08.000Z</time>
      </trkpt>
      <trkpt lat="43.25485" lon="2.4669">
        <ele>176.5</ele>
        <time>2019-06-23T07:52:09.000Z</time>
      </trkpt>
      <trkpt lat="43.25485" lon="2.46686">
        <ele>176.4</ele>
        <time>2019-06-23T07:52:10.000Z</time>
      </trkpt>
      <trkpt lat="43.25486" lon="2.46682">
        <ele>176.3</ele>
        <time>2019-06-23T07:52:11.000Z</time>
      </trkpt>
      <trkpt lat="43.25487" lon="2.46678">
        <ele>176.3</ele>
        <time>2019-06-23T07:52:12.000Z</time>
      </trkpt>
      <trkpt lat="43.25487" lon="2.46674">
        <ele>176.2</ele>
        <time>2019-06-23T07:52:13.000Z</time>
      </trkpt>
      <trkpt lat="43.25488" lon="2.46671">
        <ele>176.1</ele>
        <time>2019-06-23T07:52:14.000Z</time>
      </trkpt>
      <trkpt lat="43.25488" lon="2.46667">
        <ele>176</ele>
        <time>2019-06-23T07:52:15.000Z</time>
      </trkpt>
      <trkpt lat="43.25489" lon="2.46663">
        <ele>175.9</ele>
        <time>2019-06-23T07:52:16.000Z</time>
      </trkpt>
      <trkpt lat="43.25489" lon="2.46659">
        <ele>175.8</ele>
        <time>2019-06-23T07:52:17.000Z</time>
      </trkpt>
      <trkpt lat="43.2549" lon="2.46655">
        <ele>175.7</ele>
        <time>2019-06-23T07:52:18.000Z</time>
      </trkpt>
      <trkpt lat="43.2549" lon="2.46652">
        <ele>175.6</ele>
        <time>2019-06-23T07:52:19.000Z</time>
      </trkpt>
      <trkpt lat="43.2549" lon="2.46648">
        <ele>175.5</ele>
        <time>2019-06-23T07:52:20.000Z</time>
      </trkpt>
      <trkpt lat="43.2549" lon="2.46644">
        <ele>175.5</ele>
        <time>2019-06-23T07:52:21.000Z</time>
      </trkpt>
      <trkpt lat="43.25489" lon="2.4664">
        <ele>175.4</ele>
        <time>2019-06-23T07:52:22.000Z</time>
      </trkpt>
      <trkpt lat="43.25489" lon="2.46636">
        <ele>175.3</ele>
        <time>2019-06-23T07:52:23.000Z</time>
      </trkpt>
      <trkpt lat="43.25489" lon="2.46633">
        <ele>175.2</ele>
        <time>2019-06-23T07:52:24.000Z</time>
      </trkpt>
      <trkpt lat="43.25488" lon="2.46629">
        <ele>175.1</ele>
        <time>2019-06-23T07:52:25.000Z</time>
      </trkpt>
      <trkpt lat="43.25487" lon="2.46625">
        <ele>175</ele>
        <time>2019-06-23T07:52:26.000Z</time>
      </trkpt>
      <trkpt lat="43.25486" lon="2.46621">
        <ele>174.9</ele>
        <time>2019-06-23T07:52:27.000Z</time>
      </trkpt>
      <trkpt lat="43.25485" lon="2.46617">
        <ele>174.8</ele>
        <time>2019-06-23T07:52:28.000Z</time>
      </trkpt>
      <trkpt lat="43.25483" lon="2.46613">
        <ele>174.7</ele>
        <time>2019-06-23T07:52:29.000Z</time>
      </trkpt>
      <trkpt lat="43.25482" lon="2.46609">
        <ele>174.6</ele>
        <time>2019-06-23T07:52:30.000Z</time>
      </trkpt>
      <trkpt lat="43.25481" lon="2.46605">
        <ele>174.5</ele>
        <time>2019-06-23T07:52:31.000Z</time>
      </trkpt>
      <trkpt lat="43.25479" lon="2.46602">
        <ele>174.4</ele>
        <time>2019-06-23T07:52:32.000Z</time>
      </trkpt>
      <trkpt lat="43.25478" lon="2.46598">
        <ele>174.4</ele>
        <time>2019-06-23T07:52:33.000Z</time>
      </trkpt>
      <trkpt lat="43.25477" lon="2.46594">
        <ele>174.3</ele>
        <time>2019-06-23T07:52:34.000Z</time>
      </trkpt>
      <trkpt lat="43.25475" lon="2.46591">
        <ele>174.2</ele>
        <time>2019-06-23T07:52:35.000Z</time>
      </trkpt>
      <trkpt lat="43.25474" lon="2.46587">
        <ele>174.1</ele>
        <time>2019-06-23T07:52:36.000Z</time>
      </trkpt>
      <trkpt lat="43.25473" lon="2.46584">
        <ele>174</ele>
        <time>2019-06-23T07:52:37.000Z</time>
      </trkpt>
      <trkpt lat="43.25471" lon="2.46581">
        <ele>174</ele>
        <time>2019-06-23T07:52:38.000Z</time>
      </trkpt>
      <trkpt lat="43.2547" lon="2.46577">
        <ele>174</ele>
        <time>2019-06-23T07:52:39.000Z</time>
      </trkpt>
      <trkpt lat="43.25469" lon="2.46574">
        <ele>174.1</ele>
        <time>2019-06-23T07:52:40.000Z</time>
      </trkpt>
      <trkpt lat="43.25468" lon="2.46571">
        <ele>174.1</ele>
        <time>2019-06-23T07:52:41.000Z</time>
      </trkpt>
      <trkpt lat="43.25467" lon="2.46567">
        <ele>174.1</ele>
        <time>2019-06-23T07:52:42.000Z</time>
      </trkpt>
      <trkpt lat="43.25466" lon="2.46564">
        <ele>174.1</ele>
        <time>2019-06-23T07:52:43.000Z</time>
      </trkpt>
      <trkpt lat="43.25465" lon="2.46561">
        <ele>174.1</ele>
        <time>2019-06-23T07:52:44.000Z</time>
      </trkpt>
      <trkpt lat="43.25464" lon="2.46557">
        <ele>174.1</ele>
        <time>2019-06-23T07:52:45.000Z</time>
      </trkpt>
      <trkpt lat="43.25463" lon="2.46554">
        <ele>174.1</ele>
        <time>2019-06-23T07:52:46.000Z</time>
      </trkpt>
      <trkpt lat="43.25462" lon="2.46551">
        <ele>174.1</ele>
        <time>2019-06-23T07:52:47.000Z</time>
      </trkpt>
      <trkpt lat="43.25461" lon="2.46547">
        <ele>174.1</ele>
        <time>2019-06-23T07:52:48.000Z</time>
      </trkpt>
      <trkpt lat="43.2546" lon="2.46543">
        <ele>174</ele>
        <time>2019-06-23T07:52:49.000Z</time>
      </trkpt>
      <trkpt lat="43.25459" lon="2.4654">
        <ele>174</ele>
        <time>2019-06-23T07:52:50.000Z</time>
      </trkpt>
      <trkpt lat="43.25458" lon="2.46536">
        <ele>174</ele>
        <time>2019-06-23T07:52:51.000Z</time>
      </trkpt>
      <trkpt lat="43.25457" lon="2.46532">
        <ele>174</ele>
        <time>2019-06-23T07:52:52.000Z</time>
      </trkpt>
      <trkpt lat="43.25456" lon="2.46528">
        <ele>173.9</ele>
        <time>2019-06-23T07:52:53.000Z</time>
      </trkpt>
      <trkpt lat="43.25455" lon="2.46525">
        <ele>173.9</ele>
        <time>2019-06-23T07:52:54.000Z</time>
      </trkpt>
      <trkpt lat="43.25455" lon="2.46521">
        <ele>173.9</ele>
        <time>2019-06-23T07:52:55.000Z</time>
      </trkpt>
      <trkpt lat="43.25454" lon="2.46517">
        <ele>173.8</ele>
        <time>2019-06-23T07:52:56.000Z</time>
      </trkpt>
      <trkpt lat="43.25454" lon="2.46513">
        <ele>173.8</ele>
        <time>2019-06-23T07:52:57.000Z</time>
      </trkpt>
      <trkpt lat="43.25453" lon="2.46509">
        <ele>173.8</ele>
        <time>2019-06-23T07:52:58.000Z</time>
      </trkpt>
      <trkpt lat="43.25453" lon="2.46506">
        <ele>173.8</ele>
        <time>2019-06-23T07:52:59.000Z</time>
      </trkpt>
      <trkpt lat="43.25453" lon="2.46502">
        <ele>173.7</ele>
        <time>2019-06-23T07:53:00.000Z</time>
      </trkpt>
      <trkpt lat="43.25453" lon="2.46498">
        <ele>173.7</ele>
        <time>2019-06-23T07:53:01.000Z</time>
      </trkpt>
      <trkpt lat="43.25453" lon="2.46494">
        <ele>173.8</ele>
        <time>2019-06-23T07:53:02.000Z</time>
      </trkpt>
      <trkpt lat="43.25452" lon="2.4649">
        <ele>173.8</ele>
        <time>2019-06-23T07:53:03.000Z</time>
      </trkpt>
      <trkpt lat="43.25452" lon="2.46486">
        <ele>173.8</ele>
        <time>2019-06-23T07:53:04.000Z</time>
      </trkpt>
      <trkpt lat="43.25452" lon="2.46483">
        <ele>173.8</ele>
        <time>2019-06-23T07:53:05.000Z</time>
      </trkpt>
      <trkpt lat="43.25453" lon="2.4648">
        <ele>173.8</ele>
        <time>2019-06-23T07:53:06.000Z</time>
      </trkpt>
      <trkpt lat="43.25453" lon="2.46477">
        <ele>173.9</ele>
        <time>2019-06-23T07:53:07.000Z</time>
      </trkpt>
      <trkpt lat="43.25454" lon="2.46475">
        <ele>173.9</ele>
        <time>2019-06-23T07:53:08.000Z</time>
      </trkpt>
      <trkpt lat="43.25455" lon="2.46474">
        <ele>174</ele>
        <time>2019-06-23T07:53:09.000Z</time>
      </trkpt>
      <trkpt lat="43.25456" lon="2.46474">
        <ele>174</ele>
        <time>2019-06-23T07:53:10.000Z</time>
      </trkpt>
      <trkpt lat="43.25457" lon="2.46474">
        <ele>174.1</ele>
        <time>2019-06-23T07:53:11.000Z</time>
      </trkpt>
      <trkpt lat="43.25458" lon="2.46474">
        <ele>174.1</ele>
        <time>2019-06-23T07:53:12.000Z</time>
      </trkpt>
      <trkpt lat="43.25459" lon="2.46474">
        <ele>174.2</ele>
        <time>2019-06-23T07:53:13.000Z</time>
      </trkpt>
      <trkpt lat="43.2546" lon="2.46474">
        <ele>174.2</ele>
        <time>2019-06-23T07:53:14.000Z</time>
      </trkpt>
      <trkpt lat="43.25461" lon="2.46474">
        <ele>174.3</ele>
        <time>2019-06-23T07:53:15.000Z</time>
      </trkpt>
      <trkpt lat="43.25462" lon="2.46474">
        <ele>174.3</ele>
        <time>2019-06-23T07:53:16.000Z</time>
      </trkpt>
      <trkpt lat="43.25463" lon="2.46475">
        <ele>174.4</ele>
        <time>2019-06-23T07:53:17.000Z</time>
      </trkpt>
      <trkpt lat="43.25465" lon="2.46475">
        <ele>174.5</ele>
        <time>2019-06-23T07:53:18.000Z</time>
      </trkpt>
      <trkpt lat="43.25466" lon="2.46475">
        <ele>174.6</ele>
        <time>2019-06-23T07:53:19.000Z</time>
      </trkpt>
      <trkpt lat="43.25468" lon="2.46475">
        <ele>174.6</ele>
        <time>2019-06-23T07:53:20.000Z</time>
      </trkpt>
      <trkpt lat="43.2547" lon="2.46475">
        <ele>174.7</ele>
        <time>2019-06-23T07:53:21.000Z</time>
      </trkpt>
      <trkpt lat="43.25471" lon="2.46475">
        <ele>174.8</ele>
        <time>2019-06-23T07:53:22.000Z</time>
      </trkpt>
      <trkpt lat="43.25473" lon="2.46474">
        <ele>174.9</ele>
        <time>2019-06-23T07:53:23.000Z</time>
      </trkpt>
      <trkpt lat="43.25475" lon="2.46474">
        <ele>175</ele>
        <time>2019-06-23T07:53:24.000Z</time>
      </trkpt>
      <trkpt lat="43.25478" lon="2.46474">
        <ele>175.2</ele>
        <time>2019-06-23T07:53:25.000Z</time>
      </trkpt>
      <trkpt lat="43.2548" lon="2.46474">
        <ele>175.3</ele>
        <time>2019-06-23T07:53:26.000Z</time>
      </trkpt>
      <trkpt lat="43.25482" lon="2.46474">
        <ele>175.4</ele>
        <time>2019-06-23T07:53:27.000Z</time>
      </trkpt>
      <trkpt lat="43.25485" lon="2.46474">
        <ele>175.5</ele>
        <time>2019-06-23T07:53:28.000Z</time>
      </trkpt>
      <trkpt lat="43.25487" lon="2.46474">
        <ele>175.6</ele>
        <time>2019-06-23T07:53:29.000Z</time>
      </trkpt>
      <trkpt lat="43.25489" lon="2.46473">
        <ele>175.8</ele>
        <time>2019-06-23T07:53:30.000Z</time>
      </trkpt>
      <trkpt lat="43.25492" lon="2.46473">
        <ele>175.9</ele>
        <time>2019-06-23T07:53:31.000Z</time>
      </trkpt>
      <trkpt lat="43.25494" lon="2.46473">
        <ele>176</ele>
        <time>2019-06-23T07:53:32.000Z</time>
      </trkpt>
      <trkpt lat="43.25497" lon="2.46473">
        <ele>176.2</ele>
        <time>2019-06-23T07:53:33.000Z</time>
      </trkpt>
      <trkpt lat="43.25499" lon="2.46473">
        <ele>176.3</ele>
        <time>2019-06-23T07:53:34.000Z</time>
      </trkpt>
      <trkpt lat="43.25502" lon="2.46473">
        <ele>176.4</ele>
        <time>2019-06-23T07:53:35.000Z</time>
      </trkpt>
      <trkpt lat="43.25505" lon="2.46473">
        <ele>176.4</ele>
        <time>2019-06-23T07:53:36.000Z</time>
      </trkpt>
      <trkpt lat="43.25507" lon="2.46473">
        <ele>176.4</ele>
        <time>2019-06-23T07:53:37.000Z</time>
      </trkpt>
      <trkpt lat="43.2551" lon="2.46474">
        <ele>176.5</ele>
        <time>2019-06-23T07:53:38.000Z</time>
      </trkpt>
      <trkpt lat="43.25512" lon="2.46474">
        <ele>176.5</ele>
        <time>2019-06-23T07:53:39.000Z</time>
      </trkpt>
      <trkpt lat="43.25515" lon="2.46474">
        <ele>176.5</ele>
        <time>2019-06-23T07:53:40.000Z</time>
      </trkpt>
      <trkpt lat="43.25517" lon="2.46474">
        <ele>176.6</ele>
        <time>2019-06-23T07:53:41.000Z</time>
      </trkpt>
      <trkpt lat="43.2552" lon="2.46474">
        <ele>176.6</ele>
        <time>2019-06-23T07:53:42.000Z</time>
      </trkpt>
      <trkpt lat="43.25522" lon="2.46474">
        <ele>176.7</ele>
        <time>2019-06-23T07:53:43.000Z</time>
      </trkpt>
      <trkpt lat="43.25525" lon="2.46474">
        <ele>176.7</ele>
        <time>2019-06-23T07:53:44.000Z</time>
      </trkpt>
      <trkpt lat="43.25527" lon="2.46474">
        <ele>176.7</ele>
        <time>2019-06-23T07:53:45.000Z</time>
      </trkpt>
      <trkpt lat="43.25529" lon="2.46474">
        <ele>176.8</ele>
        <time>2019-06-23T07:53:46.000Z</time>
      </trkpt>
      <trkpt lat="43.25532" lon="2.46475">
        <ele>176.8</ele>
        <time>2019-06-23T07:53:47.000Z</time>
      </trkpt>
      <trkpt lat="43.25534" lon="2.46475">
        <ele>176.8</ele>
        <time>2019-06-23T07:53:48.000Z</time>
      </trkpt>
      <trkpt lat="43.25537" lon="2.46475">
        <ele>176.9</ele>
        <time>2019-06-23T07:53:49.000Z</time>
      </trkpt>
      <trkpt lat="43.25539" lon="2.46475">
        <ele>176.9</ele>
        <time>2019-06-23T07:53:50.000Z</time>
      </trkpt>
      <trkpt lat="43.25541" lon="2.46475">
        <ele>176.9</ele>
        <time>2019-06-23T07:53:51.000Z</time>
      </trkpt>
      <trkpt lat="43.25544" lon="2.46475">
        <ele>177</ele>
        <time>2019-06-23T07:53:52.000Z</time>
      </trkpt>
      <trkpt lat="43.25546" lon="2.46475">
        <ele>177</ele>
        <time>2019-06-23T07:53:53.000Z</time>
      </trkpt>
      <trkpt lat="43.25548" lon="2.46475">
        <ele>177.1</ele>
        <time>2019-06-23T07:53:54.000Z</time>
      </trkpt>
      <trkpt lat="43.25551" lon="2.46475">
        <ele>177.1</ele>
        <time>2019-06-23T07:53:55.000Z</time>
      </trkpt>
      <trkpt lat="43.25553" lon="2.46475">
        <ele>177.1</ele>
        <time>2019-06-23T07:53:56.000Z</time>
      </trkpt>
      <trkpt lat="43.25555" lon="2.46475">
        <ele>177.2</ele>
        <time>2019-06-23T07:53:57.000Z</time>
      </trkpt>
      <trkpt lat="43.25558" lon="2.46475">
        <ele>177.2</ele>
        <time>2019-06-23T07:53:58.000Z</time>
      </trkpt>
      <trkpt lat="43.2556" lon="2.46475">
        <ele>177.2</ele>
        <time>2019-06-23T07:53:59.000Z</time>
      </trkpt>
      <trkpt lat="43.25563" lon="2.46475">
        <ele>177.3</ele>
        <time>2019-06-23T07:54:00.000Z</time>
      </trkpt>
      <trkpt lat="43.25565" lon="2.46475">
        <ele>177.3</ele>
        <time>2019-06-23T07:54:01.000Z</time>
      </trkpt>
      <trkpt lat="43.25567" lon="2.46474">
        <ele>177.4</ele>
        <time>2019-06-23T07:54:02.000Z</time>
      </trkpt>
      <trkpt lat="43.2557" lon="2.46474">
        <ele>177.4</ele>
        <time>2019-06-23T07:54:03.000Z</time>
      </trkpt>
      <trkpt lat="43.25572" lon="2.46473">
        <ele>177.5</ele>
        <time>2019-06-23T07:54:04.000Z</time>
      </trkpt>
      <trkpt lat="43.25575" lon="2.46473">
        <ele>177.5</ele>
        <time>2019-06-23T07:54:05.000Z</time>
      </trkpt>
      <trkpt lat="43.25577" lon="2.46472">
        <ele>177.6</ele>
        <time>2019-06-23T07:54:06.000Z</time>
      </trkpt>
      <trkpt lat="43.25579" lon="2.46471">
        <ele>177.6</ele>
        <time>2019-06-23T07:54:07.000Z</time>
      </trkpt>
      <trkpt lat="43.25582" lon="2.46471">
        <ele>177.7</ele>
        <time>2019-06-23T07:54:08.000Z</time>
      </trkpt>
      <trkpt lat="43.25584" lon="2.4647">
        <ele>177.7</ele>
        <time>2019-06-23T07:54:09.000Z</time>
      </trkpt>
      <trkpt lat="43.25586" lon="2.46469">
        <ele>177.6</ele>
        <time>2019-06-23T07:54:10.000Z</time>
      </trkpt>
      <trkpt lat="43.25588" lon="2.46467">
        <ele>177.6</ele>
        <time>2019-06-23T07:54:11.000Z</time>
      </trkpt>
      <trkpt lat="43.2559" lon="2.46466">
        <ele>177.5</ele>
        <time>2019-06-23T07:54:12.000Z</time>
      </trkpt>
      <trkpt lat="43.25593" lon="2.46464">
        <ele>177.5</ele>
        <time>2019-06-23T07:54:13.000Z</time>
      </trkpt>
      <trkpt lat="43.25595" lon="2.46463">
        <ele>177.4</ele>
        <time>2019-06-23T07:54:14.000Z</time>
      </trkpt>
      <trkpt lat="43.25597" lon="2.46461">
        <ele>177.4</ele>
        <time>2019-06-23T07:54:15.000Z</time>
      </trkpt>
      <trkpt lat="43.25599" lon="2.46459">
        <ele>177.4</ele>
        <time>2019-06-23T07:54:16.000Z</time>
      </trkpt>
      <trkpt lat="43.256" lon="2.46457">
        <ele>177.3</ele>
        <time>2019-06-23T07:54:17.000Z</time>
      </trkpt>
      <trkpt lat="43.25602" lon="2.46455">
        <ele>177.3</ele>
        <time>2019-06-23T07:54:18.000Z</time>
      </trkpt>
      <trkpt lat="43.25604" lon="2.46452">
        <ele>177.3</ele>
        <time>2019-06-23T07:54:19.000Z</time>
      </trkpt>
      <trkpt lat="43.25606" lon="2.4645">
        <ele>177.2</ele>
        <time>2019-06-23T07:54:20.000Z</time>
      </trkpt>
      <trkpt lat="43.25607" lon="2.46447">
        <ele>177.2</ele>
        <time>2019-06-23T07:54:21.000Z</time>
      </trkpt>
      <trkpt lat="43.25609" lon="2.46445">
        <ele>177.2</ele>
        <time>2019-06-23T07:54:22.000Z</time>
      </trkpt>
      <trkpt lat="43.2561" lon="2.46442">
        <ele>177.2</ele>
        <time>2019-06-23T07:54:23.000Z</time>
      </trkpt>
      <trkpt lat="43.25611" lon="2.46439">
        <ele>177.2</ele>
        <time>2019-06-23T07:54:24.000Z</time>
      </trkpt>
      <trkpt lat="43.25612" lon="2.46435">
        <ele>177.3</ele>
        <time>2019-06-23T07:54:25.000Z</time>
      </trkpt>
      <trkpt lat="43.25613" lon="2.46432">
        <ele>177.3</ele>
        <time>2019-06-23T07:54:26.000Z</time>
      </trkpt>
      <trkpt lat="43.25614" lon="2.46429">
        <ele>177.3</ele>
        <time>2019-06-23T07:54:27.000Z</time>
      </trkpt>
      <trkpt lat="43.25614" lon="2.46427">
        <ele>177.3</ele>
        <time>2019-06-23T07:54:28.000Z</time>
      </trkpt>
      <trkpt lat="43.25615" lon="2.46425">
        <ele>177.3</ele>
        <time>2019-06-23T07:54:29.000Z</time>
      </trkpt>
      <trkpt lat="43.25615" lon="2.46423">
        <ele>177.4</ele>
        <time>2019-06-23T07:54:30.000Z</time>
      </trkpt>
      <trkpt lat="43.25615" lon="2.46421">
        <ele>177.4</ele>
        <time>2019-06-23T07:54:31.000Z</time>
      </trkpt>
      <trkpt lat="43.25616" lon="2.46419">
        <ele>177.4</ele>
        <time>2019-06-23T07:54:32.000Z</time>
      </trkpt>
      <trkpt lat="43.25616" lon="2.46417">
        <ele>177.4</ele>
        <time>2019-06-23T07:54:33.000Z</time>
      </trkpt>
      <trkpt lat="43.25616" lon="2.46416">
        <ele>177.5</ele>
        <time>2019-06-23T07:54:34.000Z</time>
      </trkpt>
      <trkpt lat="43.25616" lon="2.46414">
        <ele>177.5</ele>
        <time>2019-06-23T07:54:35.000Z</time>
      </trkpt>
      <trkpt lat="43.25617" lon="2.46413">
        <ele>177.6</ele>
        <time>2019-06-23T07:54:36.000Z</time>
      </trkpt>
      <trkpt lat="43.25617" lon="2.46411">
        <ele>177.6</ele>
        <time>2019-06-23T07:54:37.000Z</time>
      </trkpt>
      <trkpt lat="43.25617" lon="2.46409">
        <ele>177.7</ele>
        <time>2019-06-23T07:54:38.000Z</time>
      </trkpt>
      <trkpt lat="43.25618" lon="2.46407">
        <ele>177.7</ele>
        <time>2019-06-23T07:54:39.000Z</time>
      </trkpt>
      <trkpt lat="43.25618" lon="2.46406">
        <ele>177.8</ele>
        <time>2019-06-23T07:54:40.000Z</time>
      </trkpt>
      <trkpt lat="43.25618" lon="2.46404">
        <ele>177.9</ele>
        <time>2019-06-23T07:54:41.000Z</time>
      </trkpt>
      <trkpt lat="43.25619" lon="2.46402">
        <ele>177.9</ele>
        <time>2019-06-23T07:54:42.000Z</time>
      </trkpt>
      <trkpt lat="43.25619" lon="2.464">
        <ele>178</ele>
        <time>2019-06-23T07:54:43.000Z</time>
      </trkpt>
      <trkpt lat="43.25619" lon="2.46398">
        <ele>178</ele>
        <time>2019-06-23T07:54:44.000Z</time>
      </trkpt>
      <trkpt lat="43.2562" lon="2.46396">
        <ele>178.1</ele>
        <time>2019-06-23T07:54:45.000Z</time>
      </trkpt>
      <trkpt lat="43.2562" lon="2.46395">
        <ele>178.1</ele>
        <time>2019-06-23T07:54:46.000Z</time>
      </trkpt>
      <trkpt lat="43.25621" lon="2.46393">
        <ele>178.2</ele>
        <time>2019-06-23T07:54:47.000Z</time>
      </trkpt>
      <trkpt lat="43.25621" lon="2.46391">
        <ele>178.2</ele>
        <time>2019-06-23T07:54:48.000Z</time>
      </trkpt>
      <trkpt lat="43.25622" lon="2.46389">
        <ele>178.3</ele>
        <time>2019-06-23T07:54:49.000Z</time>
      </trkpt>
      <trkpt lat="43.25622" lon="2.46388">
        <ele>178.4</ele>
        <time>2019-06-23T07:54:50.000Z</time>
      </trkpt>
      <trkpt lat="43.25622" lon="2.46386">
        <ele>178.4</ele>
        <time>2019-06-23T07:54:51.000Z</time>
      </trkpt>
      <trkpt lat="43.25623" lon="2.46384">
        <ele>178.5</ele>
        <time>2019-06-23T07:54:52.000Z</time>
      </trkpt>
      <trkpt lat="43.25623" lon="2.46383">
        <ele>178.5</ele>
        <time>2019-06-23T07:54:53.000Z</time>
      </trkpt>
      <trkpt lat="43.25624" lon="2.46381">
        <ele>178.6</ele>
        <time>2019-06-23T07:54:54.000Z</time>
      </trkpt>
      <trkpt lat="43.25624" lon="2.46379">
        <ele>178.6</ele>
        <time>2019-06-23T07:54:55.000Z</time>
      </trkpt>
      <trkpt lat="43.25624" lon="2.46378">
        <ele>178.7</ele>
        <time>2019-06-23T07:54:56.000Z</time>
      </trkpt>
      <trkpt lat="43.25625" lon="2.46377">
        <ele>178.7</ele>
        <time>2019-06-23T07:54:57.000Z</time>
      </trkpt>
      <trkpt lat="43.25625" lon="2.46375">
        <ele>178.7</ele>
        <time>2019-06-23T07:54:58.000Z</time>
      </trkpt>
      <trkpt lat="43.25625" lon="2.46374">
        <ele>178.8</ele>
        <time>2019-06-23T07:54:59.000Z</time>
      </trkpt>
      <trkpt lat="43.25626" lon="2.46372">
        <ele>178.8</ele>
        <time>2019-06-23T07:55:00.000Z</time>
      </trkpt>
      <trkpt lat="43.25626" lon="2.46371">
        <ele>178.9</ele>
        <time>2019-06-23T07:55:01.000Z</time>
      </trkpt>
      <trkpt lat="43.25626" lon="2.4637">
        <ele>178.9</ele>
        <time>2019-06-23T07:55:02.000Z</time>
      </trkpt>
      <trkpt lat="43.25627" lon="2.46369">
        <ele>179</ele>
        <time>2019-06-23T07:55:03.000Z</time>
      </trkpt>
      <trkpt lat="43.25627" lon="2.46367">
        <ele>179</ele>
        <time>2019-06-23T07:55:04.000Z</time>
      </trkpt>
      <trkpt lat="43.25627" lon="2.46366">
        <ele>179</ele>
        <time>2019-06-23T07:55:05.000Z</time>
      </trkpt>
      <trkpt lat="43.25628" lon="2.46364">
        <ele>179.1</ele>
        <time>2019-06-23T07:55:06.000Z</time>
      </trkpt>
      <trkpt lat="43.25628" lon="2.46363">
        <ele>179.1</ele>
        <time>2019-06-23T07:55:07.000Z</time>
      </trkpt>
      <trkpt lat="43.25628" lon="2.46361">
        <ele>179.2</ele>
        <time>2019-06-23T07:55:08.000Z</time>
      </trkpt>
      <trkpt lat="43.25628" lon="2.4636">
        <ele>179.3</ele>
        <time>2019-06-23T07:55:09.000Z</time>
      </trkpt>
      <trkpt lat="43.25629" lon="2.46358">
        <ele>179.3</ele>
        <time>2019-06-23T07:55:10.000Z</time>
      </trkpt>
      <trkpt lat="43.25629" lon="2.46357">
        <ele>179.4</ele>
        <time>2019-06-23T07:55:11.000Z</time>
      </trkpt>
      <trkpt lat="43.25629" lon="2.46355">
        <ele>179.4</ele>
        <time>2019-06-23T07:55:12.000Z</time>
      </trkpt>
      <trkpt lat="43.2563" lon="2.46353">
        <ele>179.5</ele>
        <time>2019-06-23T07:55:13.000Z</time>
      </trkpt>
      <trkpt lat="43.2563" lon="2.46352">
        <ele>179.5</ele>
        <time>2019-06-23T07:55:14.000Z</time>
      </trkpt>
      <trkpt lat="43.25631" lon="2.4635">
        <ele>179.6</ele>
        <time>2019-06-23T07:55:15.000Z</time>
      </trkpt>
      <trkpt lat="43.25631" lon="2.46349">
        <ele>179.6</ele>
        <time>2019-06-23T07:55:16.000Z</time>
      </trkpt>
      <trkpt lat="43.25631" lon="2.46347">
        <ele>179.7</ele>
        <time>2019-06-23T07:55:17.000Z</time>
      </trkpt>
      <trkpt lat="43.25632" lon="2.46346">
        <ele>179.7</ele>
        <time>2019-06-23T07:55:18.000Z</time>
      </trkpt>
      <trkpt lat="43.25632" lon="2.46344">
        <ele>179.8</ele>
        <time>2019-06-23T07:55:19.000Z</time>
      </trkpt>
      <trkpt lat="43.25632" lon="2.46343">
        <ele>179.8</ele>
        <time>2019-06-23T07:55:20.000Z</time>
      </trkpt>
      <trkpt lat="43.25633" lon="2.46342">
        <ele>179.9</ele>
        <time>2019-06-23T07:55:21.000Z</time>
      </trkpt>
      <trkpt lat="43.25633" lon="2.46341">
        <ele>179.9</ele>
        <time>2019-06-23T07:55:22.000Z</time>
      </trkpt>
      <trkpt lat="43.25633" lon="2.4634">
        <ele>179.9</ele>
        <time>2019-06-23T07:55:23.000Z</time>
      </trkpt>
      <trkpt lat="43.25633" lon="2.46339">
        <ele>180</ele>
        <time>2019-06-23T07:55:24.000Z</time>
      </trkpt>
      <trkpt lat="43.25633" lon="2.46337">
        <ele>180</ele>
        <time>2019-06-23T07:55:25.000Z</time>
      </trkpt>
      <trkpt lat="43.25634" lon="2.46336">
        <ele>180.1</ele>
        <time>2019-06-23T07:55:26.000Z</time>
      </trkpt>
      <trkpt lat="43.25634" lon="2.46335">
        <ele>180.1</ele>
        <time>2019-06-23T07:55:27.000Z</time>
      </trkpt>
      <trkpt lat="43.25635" lon="2.46333">
        <ele>180.2</ele>
        <time>2019-06-23T07:55:28.000Z</time>
      </trkpt>
      <trkpt lat="43.25635" lon="2.46331">
        <ele>180.2</ele>
        <time>2019-06-23T07:55:29.000Z</time>
      </trkpt>
      <trkpt lat="43.25636" lon="2.46329">
        <ele>180.2</ele>
        <time>2019-06-23T07:55:30.000Z</time>
      </trkpt>
      <trkpt lat="43.25636" lon="2.46327">
        <ele>180.3</ele>
        <time>2019-06-23T07:55:31.000Z</time>
      </trkpt>
      <trkpt lat="43.25637" lon="2.46325">
        <ele>180.3</ele>
        <time>2019-06-23T07:55:32.000Z</time>
      </trkpt>
      <trkpt lat="43.25637" lon="2.46323">
        <ele>180.4</ele>
        <time>2019-06-23T07:55:33.000Z</time>
      </trkpt>
      <trkpt lat="43.25638" lon="2.46321">
        <ele>180.4</ele>
        <time>2019-06-23T07:55:34.000Z</time>
      </trkpt>
      <trkpt lat="43.25638" lon="2.46318">
        <ele>180.5</ele>
        <time>2019-06-23T07:55:35.000Z</time>
      </trkpt>
      <trkpt lat="43.25639" lon="2.46316">
        <ele>180.5</ele>
        <time>2019-06-23T07:55:36.000Z</time>
      </trkpt>
      <trkpt lat="43.25639" lon="2.46314">
        <ele>180.6</ele>
        <time>2019-06-23T07:55:37.000Z</time>
      </trkpt>
      <trkpt lat="43.2564" lon="2.46312">
        <ele>180.7</ele>
        <time>2019-06-23T07:55:38.000Z</time>
      </trkpt>
      <trkpt lat="43.2564" lon="2.4631">
        <ele>180.7</ele>
        <time>2019-06-23T07:55:39.000Z</time>
      </trkpt>
      <trkpt lat="43.25641" lon="2.46308">
        <ele>180.8</ele>
        <time>2019-06-23T07:55:40.000Z</time>
      </trkpt>
      <trkpt lat="43.25641" lon="2.46306">
        <ele>180.8</ele>
        <time>2019-06-23T07:55:41.000Z</time>
      </trkpt>
      <trkpt lat="43.25642" lon="2.46304">
        <ele>180.9</ele>
        <time>2019-06-23T07:55:42.000Z</time>
      </trkpt>
      <trkpt lat="43.25642" lon="2.46302">
        <ele>180.9</ele>
        <time>2019-06-23T07:55:43.000Z</time>
      </trkpt>
      <trkpt lat="43.25643" lon="2.463">
        <ele>181</ele>
        <time>2019-06-23T07:55:44.000Z</time>
      </trkpt>
      <trkpt lat="43.25644" lon="2.46298">
        <ele>181.1</ele>
        <time>2019-06-23T07:55:45.000Z</time>
      </trkpt>
      <trkpt lat="43.25645" lon="2.46296">
        <ele>181.1</ele>
        <time>2019-06-23T07:55:46.000Z</time>
      </trkpt>
      <trkpt lat="43.25646" lon="2.46293">
        <ele>181.2</ele>
        <time>2019-06-23T07:55:47.000Z</time>
      </trkpt>
      <trkpt lat="43.25647" lon="2.46291">
        <ele>181.3</ele>
        <time>2019-06-23T07:55:48.000Z</time>
      </trkpt>
      <trkpt lat="43.25647" lon="2.46288">
        <ele>181.4</ele>
        <time>2019-06-23T07:55:49.000Z</time>
      </trkpt>
      <trkpt lat="43.25648" lon="2.46286">
        <ele>181.5</ele>
        <time>2019-06-23T07:55:50.000Z</time>
      </trkpt>
      <trkpt lat="43.25649" lon="2.46283">
        <ele>181.6</ele>
        <time>2019-06-23T07:55:51.000Z</time>
      </trkpt>
      <trkpt lat="43.2565" lon="2.4628">
        <ele>181.7</ele>
        <time>2019-06-23T07:55:52.000Z</time>
      </trkpt>
      <trkpt lat="43.2565" lon="2.46277">
        <ele>181.8</ele>
        <time>2019-06-23T07:55:53.000Z</time>
      </trkpt>
      <trkpt lat="43.25651" lon="2.46273">
        <ele>181.9</ele>
        <time>2019-06-23T07:55:54.000Z</time>
      </trkpt>
      <trkpt lat="43.25651" lon="2.4627">
        <ele>182</ele>
        <time>2019-06-23T07:55:55.000Z</time>
      </trkpt>
      <trkpt lat="43.25651" lon="2.46267">
        <ele>182.2</ele>
        <time>2019-06-23T07:55:56.000Z</time>
      </trkpt>
      <trkpt lat="43.25652" lon="2.46263">
        <ele>182.3</ele>
        <time>2019-06-23T07:55:57.000Z</time>
      </trkpt>
      <trkpt lat="43.25652" lon="2.4626">
        <ele>182.4</ele>
        <time>2019-06-23T07:55:58.000Z</time>
      </trkpt>
      <trkpt lat="43.25652" lon="2.46257">
        <ele>182.6</ele>
        <time>2019-06-23T07:55:59.000Z</time>
      </trkpt>
      <trkpt lat="43.25653" lon="2.46253">
        <ele>182.7</ele>
        <time>2019-06-23T07:56:00.000Z</time>
      </trkpt>
      <trkpt lat="43.25653" lon="2.4625">
        <ele>182.8</ele>
        <time>2019-06-23T07:56:01.000Z</time>
      </trkpt>
      <trkpt lat="43.25653" lon="2.46247">
        <ele>183</ele>
        <time>2019-06-23T07:56:02.000Z</time>
      </trkpt>
      <trkpt lat="43.25654" lon="2.46244">
        <ele>183.1</ele>
        <time>2019-06-23T07:56:03.000Z</time>
      </trkpt>
      <trkpt lat="43.25654" lon="2.46241">
        <ele>183.2</ele>
        <time>2019-06-23T07:56:04.000Z</time>
      </trkpt>
      <trkpt lat="43.25655" lon="2.46238">
        <ele>183.3</ele>
        <time>2019-06-23T07:56:05.000Z</time>
      </trkpt>
      <trkpt lat="43.25656" lon="2.46234">
        <ele>183.4</ele>
        <time>2019-06-23T07:56:06.000Z</time>
      </trkpt>
      <trkpt lat="43.25656" lon="2.46231">
        <ele>183.5</ele>
        <time>2019-06-23T07:56:07.000Z</time>
      </trkpt>
      <trkpt lat="43.25657" lon="2.46228">
        <ele>183.7</ele>
        <time>2019-06-23T07:56:08.000Z</time>
      </trkpt>
      <trkpt lat="43.25657" lon="2.46225">
        <ele>183.8</ele>
        <time>2019-06-23T07:56:09.000Z</time>
      </trkpt>
      <trkpt lat="43.25658" lon="2.46222">
        <ele>183.9</ele>
        <time>2019-06-23T07:56:10.000Z</time>
      </trkpt>
      <trkpt lat="43.25659" lon="2.46219">
        <ele>184</ele>
        <time>2019-06-23T07:56:11.000Z</time>
      </trkpt>
      <trkpt lat="43.2566" lon="2.46216">
        <ele>184.1</ele>
        <time>2019-06-23T07:56:12.000Z</time>
      </trkpt>
      <trkpt lat="43.2566" lon="2.46213">
        <ele>184.2</ele>
        <time>2019-06-23T07:56:13.000Z</time>
      </trkpt>
      <trkpt lat="43.25661" lon="2.4621">
        <ele>184.4</ele>
        <time>2019-06-23T07:56:14.000Z</time>
      </trkpt>
      <trkpt lat="43.25662" lon="2.46207">
        <ele>184.5</ele>
        <time>2019-06-23T07:56:15.000Z</time>
      </trkpt>
      <trkpt lat="43.25663" lon="2.46204">
        <ele>184.6</ele>
        <time>2019-06-23T07:56:16.000Z</time>
      </trkpt>
      <trkpt lat="43.25664" lon="2.46201">
        <ele>184.7</ele>
        <time>2019-06-23T07:56:17.000Z</time>
      </trkpt>
      <trkpt lat="43.25665" lon="2.46198">
        <ele>184.8</ele>
        <time>2019-06-23T07:56:18.000Z</time>
      </trkpt>
      <trkpt lat="43.25665" lon="2.46195">
        <ele>185</ele>
        <time>2019-06-23T07:56:19.000Z</time>
      </trkpt>
      <trkpt lat="43.25666" lon="2.46192">
        <ele>185.1</ele>
        <time>2019-06-23T07:56:20.000Z</time>
      </trkpt>
      <trkpt lat="43.25667" lon="2.46189">
        <ele>185.1</ele>
        <time>2019-06-23T07:56:21.000Z</time>
      </trkpt>
      <trkpt lat="43.25668" lon="2.46186">
        <ele>185.1</ele>
        <time>2019-06-23T07:56:22.000Z</time>
      </trkpt>
      <trkpt lat="43.25669" lon="2.46183">
        <ele>185.1</ele>
        <time>2019-06-23T07:56:23.000Z</time>
      </trkpt>
      <trkpt lat="43.2567" lon="2.46179">
        <ele>185</ele>
        <time>2019-06-23T07:56:24.000Z</time>
      </trkpt>
      <trkpt lat="43.2567" lon="2.46176">
        <ele>185</ele>
        <time>2019-06-23T07:56:25.000Z</time>
      </trkpt>
      <trkpt lat="43.25671" lon="2.46173">
        <ele>185</ele>
        <time>2019-06-23T07:56:26.000Z</time>
      </trkpt>
      <trkpt lat="43.25672" lon="2.46169">
        <ele>185</ele>
        <time>2019-06-23T07:56:27.000Z</time>
      </trkpt>
      <trkpt lat="43.25673" lon="2.46166">
        <ele>185</ele>
        <time>2019-06-23T07:56:28.000Z</time>
      </trkpt>
      <trkpt lat="43.25673" lon="2.46162">
        <ele>185</ele>
        <time>2019-06-23T07:56:29.000Z</time>
      </trkpt>
      <trkpt lat="43.25674" lon="2.46159">
        <ele>185</ele>
        <time>2019-06-23T07:56:30.000Z</time>
      </trkpt>
      <trkpt lat="43.25674" lon="2.46156">
        <ele>185</ele>
        <time>2019-06-23T07:56:31.000Z</time>
      </trkpt>
      <trkpt lat="43.25675" lon="2.46153">
        <ele>185</ele>
        <time>2019-06-23T07:56:32.000Z</time>
      </trkpt>
      <trkpt lat="43.25676" lon="2.46149">
        <ele>185</ele>
        <time>2019-06-23T07:56:33.000Z</time>
      </trkpt>
      <trkpt lat="43.25676" lon="2.46146">
        <ele>185</ele>
        <time>2019-06-23T07:56:34.000Z</time>
      </trkpt>
      <trkpt lat="43.25677" lon="2.46143">
        <ele>185</ele>
        <time>2019-06-23T07:56:35.000Z</time>
      </trkpt>
      <trkpt lat="43.25677" lon="2.4614">
        <ele>185</ele>
        <time>2019-06-23T07:56:36.000Z</time>
      </trkpt>
      <trkpt lat="43.25678" lon="2.46137">
        <ele>185</ele>
        <time>2019-06-23T07:56:37.000Z</time>
      </trkpt>
      <trkpt lat="43.25679" lon="2.46134">
        <ele>185</ele>
        <time>2019-06-23T07:56:38.000Z</time>
      </trkpt>
      <trkpt lat="43.2568" lon="2.46131">
        <ele>185</ele>
        <time>2019-06-23T07:56:39.000Z</time>
      </trkpt>
      <trkpt lat="43.25681" lon="2.46128">
        <ele>184.9</ele>
        <time>2019-06-23T07:56:40.000Z</time>
      </trkpt>
      <trkpt lat="43.25681" lon="2.46124">
        <ele>184.9</ele>
        <time>2019-06-23T07:56:41.000Z</time>
      </trkpt>
      <trkpt lat="43.25682" lon="2.46121">
        <ele>184.8</ele>
        <time>2019-06-23T07:56:42.000Z</time>
      </trkpt>
      <trkpt lat="43.25683" lon="2.46118">
        <ele>184.8</ele>
        <time>2019-06-23T07:56:43.000Z</time>
      </trkpt>
      <trkpt lat="43.25684" lon="2.46115">
        <ele>184.8</ele>
        <time>2019-06-23T07:56:44.000Z</time>
      </trkpt>
      <trkpt lat="43.25685" lon="2.46112">
        <ele>184.8</ele>
        <time>2019-06-23T07:56:45.000Z</time>
      </trkpt>
      <trkpt lat="43.25685" lon="2.46108">
        <ele>184.8</ele>
        <time>2019-06-23T07:56:46.000Z</time>
      </trkpt>
      <trkpt lat="43.25686" lon="2.46105">
        <ele>184.8</ele>
        <time>2019-06-23T07:56:47.000Z</time>
      </trkpt>
      <trkpt lat="43.25686" lon="2.46101">
        <ele>184.9</ele>
        <time>2019-06-23T07:56:48.000Z</time>
      </trkpt>
      <trkpt lat="43.25686" lon="2.46098">
        <ele>185</ele>
        <time>2019-06-23T07:56:49.000Z</time>
      </trkpt>
      <trkpt lat="43.25686" lon="2.46094">
        <ele>185.1</ele>
        <time>2019-06-23T07:56:50.000Z</time>
      </trkpt>
      <trkpt lat="43.25686" lon="2.4609">
        <ele>185.3</ele>
        <time>2019-06-23T07:56:51.000Z</time>
      </trkpt>
      <trkpt lat="43.25686" lon="2.46087">
        <ele>185.4</ele>
        <time>2019-06-23T07:56:52.000Z</time>
      </trkpt>
      <trkpt lat="43.25686" lon="2.46083">
        <ele>185.6</ele>
        <time>2019-06-23T07:56:53.000Z</time>
      </trkpt>
      <trkpt lat="43.25686" lon="2.46079">
        <ele>185.6</ele>
        <time>2019-06-23T07:56:54.000Z</time>
      </trkpt>
      <trkpt lat="43.25685" lon="2.46076">
        <ele>185.7</ele>
        <time>2019-06-23T07:56:55.000Z</time>
      </trkpt>
      <trkpt lat="43.25685" lon="2.46072">
        <ele>185.8</ele>
        <time>2019-06-23T07:56:56.000Z</time>
      </trkpt>
      <trkpt lat="43.25685" lon="2.46068">
        <ele>185.8</ele>
        <time>2019-06-23T07:56:57.000Z</time>
      </trkpt>
      <trkpt lat="43.25685" lon="2.46065">
        <ele>185.9</ele>
        <time>2019-06-23T07:56:58.000Z</time>
      </trkpt>
      <trkpt lat="43.25684" lon="2.46061">
        <ele>186</ele>
        <time>2019-06-23T07:56:59.000Z</time>
      </trkpt>
      <trkpt lat="43.25684" lon="2.46057">
        <ele>186.1</ele>
        <time>2019-06-23T07:57:00.000Z</time>
      </trkpt>
      <trkpt lat="43.25684" lon="2.46054">
        <ele>186.2</ele>
        <time>2019-06-23T07:57:01.000Z</time>
      </trkpt>
      <trkpt lat="43.25683" lon="2.4605">
        <ele>186.2</ele>
        <time>2019-06-23T07:57:02.000Z</time>
      </trkpt>
      <trkpt lat="43.25683" lon="2.46046">
        <ele>186.3</ele>
        <time>2019-06-23T07:57:03.000Z</time>
      </trkpt>
      <trkpt lat="43.25683" lon="2.46043">
        <ele>186.3</ele>
        <time>2019-06-23T07:57:04.000Z</time>
      </trkpt>
      <trkpt lat="43.25683" lon="2.46039">
        <ele>186.4</ele>
        <time>2019-06-23T07:57:05.000Z</time>
      </trkpt>
      <trkpt lat="43.25683" lon="2.46036">
        <ele>186.5</ele>
        <time>2019-06-23T07:57:06.000Z</time>
      </trkpt>
      <trkpt lat="43.25683" lon="2.46032">
        <ele>186.5</ele>
        <time>2019-06-23T07:57:07.000Z</time>
      </trkpt>
      <trkpt lat="43.25682" lon="2.46029">
        <ele>186.5</ele>
        <time>2019-06-23T07:57:08.000Z</time>
      </trkpt>
      <trkpt lat="43.25682" lon="2.46025">
        <ele>186.6</ele>
        <time>2019-06-23T07:57:09.000Z</time>
      </trkpt>
      <trkpt lat="43.25682" lon="2.46022">
        <ele>186.6</ele>
        <time>2019-06-23T07:57:10.000Z</time>
      </trkpt>
      <trkpt lat="43.25682" lon="2.46019">
        <ele>186.7</ele>
        <time>2019-06-23T07:57:11.000Z</time>
      </trkpt>
      <trkpt lat="43.25682" lon="2.46015">
        <ele>186.7</ele>
        <time>2019-06-23T07:57:12.000Z</time>
      </trkpt>
      <trkpt lat="43.25682" lon="2.46012">
        <ele>186.7</ele>
        <time>2019-06-23T07:57:13.000Z</time>
      </trkpt>
      <trkpt lat="43.25682" lon="2.46008">
        <ele>186.7</ele>
        <time>2019-06-23T07:57:14.000Z</time>
      </trkpt>
      <trkpt lat="43.25682" lon="2.46005">
        <ele>186.8</ele>
        <time>2019-06-23T07:57:15.000Z</time>
      </trkpt>
      <trkpt lat="43.25682" lon="2.46001">
        <ele>186.8</ele>
        <time>2019-06-23T07:57:16.000Z</time>
      </trkpt>
      <trkpt lat="43.25682" lon="2.45998">
        <ele>186.8</ele>
        <time>2019-06-23T07:57:17.000Z</time>
      </trkpt>
      <trkpt lat="43.25682" lon="2.45994">
        <ele>186.9</ele>
        <time>2019-06-23T07:57:18.000Z</time>
      </trkpt>
      <trkpt lat="43.25682" lon="2.4599">
        <ele>187</ele>
        <time>2019-06-23T07:57:19.000Z</time>
      </trkpt>
      <trkpt lat="43.25682" lon="2.45987">
        <ele>187.1</ele>
        <time>2019-06-23T07:57:20.000Z</time>
      </trkpt>
      <trkpt lat="43.25682" lon="2.45983">
        <ele>187.2</ele>
        <time>2019-06-23T07:57:21.000Z</time>
      </trkpt>
      <trkpt lat="43.25683" lon="2.4598">
        <ele>187.2</ele>
        <time>2019-06-23T07:57:22.000Z</time>
      </trkpt>
      <trkpt lat="43.25683" lon="2.45976">
        <ele>187.3</ele>
        <time>2019-06-23T07:57:23.000Z</time>
      </trkpt>
      <trkpt lat="43.25683" lon="2.45972">
        <ele>187.4</ele>
        <time>2019-06-23T07:57:24.000Z</time>
      </trkpt>
      <trkpt lat="43.25683" lon="2.45969">
        <ele>187.5</ele>
        <time>2019-06-23T07:57:25.000Z</time>
      </trkpt>
      <trkpt lat="43.25683" lon="2.45965">
        <ele>187.6</ele>
        <time>2019-06-23T07:57:26.000Z</time>
      </trkpt>
      <trkpt lat="43.25683" lon="2.45961">
        <ele>187.6</ele>
        <time>2019-06-23T07:57:27.000Z</time>
      </trkpt>
      <trkpt lat="43.25684" lon="2.45958">
        <ele>187.7</ele>
        <time>2019-06-23T07:57:28.000Z</time>
      </trkpt>
      <trkpt lat="43.25684" lon="2.45954">
        <ele>187.8</ele>
        <time>2019-06-23T07:57:29.000Z</time>
      </trkpt>
      <trkpt lat="43.25684" lon="2.45951">
        <ele>187.8</ele>
        <time>2019-06-23T07:57:30.000Z</time>
      </trkpt>
      <trkpt lat="43.25684" lon="2.45947">
        <ele>187.9</ele>
        <time>2019-06-23T07:57:31.000Z</time>
      </trkpt>
      <trkpt lat="43.25685" lon="2.45943">
        <ele>188</ele>
        <time>2019-06-23T07:57:32.000Z</time>
      </trkpt>
      <trkpt lat="43.25685" lon="2.4594">
        <ele>188</ele>
        <time>2019-06-23T07:57:33.000Z</time>
      </trkpt>
      <trkpt lat="43.25685" lon="2.45936">
        <ele>188.1</ele>
        <time>2019-06-23T07:57:34.000Z</time>
      </trkpt>
      <trkpt lat="43.25686" lon="2.45933">
        <ele>188.2</ele>
        <time>2019-06-23T07:57:35.000Z</time>
      </trkpt>
      <trkpt lat="43.25686" lon="2.45929">
        <ele>188.2</ele>
        <time>2019-06-23T07:57:36.000Z</time>
      </trkpt>
      <trkpt lat="43.25687" lon="2.45926">
        <ele>188.3</ele>
        <time>2019-06-23T07:57:37.000Z</time>
      </trkpt>
      <trkpt lat="43.25687" lon="2.45922">
        <ele>188.4</ele>
        <time>2019-06-23T07:57:38.000Z</time>
      </trkpt>
      <trkpt lat="43.25687" lon="2.45919">
        <ele>188.5</ele>
        <time>2019-06-23T07:57:39.000Z</time>
      </trkpt>
      <trkpt lat="43.25688" lon="2.45915">
        <ele>188.5</ele>
        <time>2019-06-23T07:57:40.000Z</time>
      </trkpt>
      <trkpt lat="43.25688" lon="2.45912">
        <ele>188.5</ele>
        <time>2019-06-23T07:57:41.000Z</time>
      </trkpt>
      <trkpt lat="43.25688" lon="2.45908">
        <ele>188.5</ele>
        <time>2019-06-23T07:57:42.000Z</time>
      </trkpt>
      <trkpt lat="43.25689" lon="2.45905">
        <ele>188.5</ele>
        <time>2019-06-23T07:57:43.000Z</time>
      </trkpt>
      <trkpt lat="43.25689" lon="2.45901">
        <ele>188.6</ele>
        <time>2019-06-23T07:57:44.000Z</time>
      </trkpt>
      <trkpt lat="43.25689" lon="2.45898">
        <ele>188.6</ele>
        <time>2019-06-23T07:57:45.000Z</time>
      </trkpt>
      <trkpt lat="43.25689" lon="2.45894">
        <ele>188.6</ele>
        <time>2019-06-23T07:57:46.000Z</time>
      </trkpt>
      <trkpt lat="43.25689" lon="2.4589">
        <ele>188.6</ele>
        <time>2019-06-23T07:57:47.000Z</time>
      </trkpt>
      <trkpt lat="43.2569" lon="2.45887">
        <ele>188.7</ele>
        <time>2019-06-23T07:57:48.000Z</time>
      </trkpt>
      <trkpt lat="43.2569" lon="2.45883">
        <ele>188.7</ele>
        <time>2019-06-23T07:57:49.000Z</time>
      </trkpt>
      <trkpt lat="43.2569" lon="2.45879">
        <ele>188.7</ele>
        <time>2019-06-23T07:57:50.000Z</time>
      </trkpt>
      <trkpt lat="43.2569" lon="2.45876">
        <ele>188.8</ele>
        <time>2019-06-23T07:57:51.000Z</time>
      </trkpt>
      <trkpt lat="43.2569" lon="2.45872">
        <ele>188.8</ele>
        <time>2019-06-23T07:57:52.000Z</time>
      </trkpt>
      <trkpt lat="43.25689" lon="2.45868">
        <ele>188.8</ele>
        <time>2019-06-23T07:57:53.000Z</time>
      </trkpt>
      <trkpt lat="43.25689" lon="2.45864">
        <ele>188.9</ele>
        <time>2019-06-23T07:57:54.000Z</time>
      </trkpt>
      <trkpt lat="43.25689" lon="2.45861">
        <ele>188.9</ele>
        <time>2019-06-23T07:57:55.000Z</time>
      </trkpt>
      <trkpt lat="43.25689" lon="2.45857">
        <ele>189</ele>
        <time>2019-06-23T07:57:56.000Z</time>
      </trkpt>
      <trkpt lat="43.25689" lon="2.45853">
        <ele>189</ele>
        <time>2019-06-23T07:57:57.000Z</time>
      </trkpt>
      <trkpt lat="43.25689" lon="2.45849">
        <ele>189</ele>
        <time>2019-06-23T07:57:58.000Z</time>
      </trkpt>
      <trkpt lat="43.25689" lon="2.45846">
        <ele>189.1</ele>
        <time>2019-06-23T07:57:59.000Z</time>
      </trkpt>
      <trkpt lat="43.25689" lon="2.45842">
        <ele>189.1</ele>
        <time>2019-06-23T07:58:00.000Z</time>
      </trkpt>
      <trkpt lat="43.25689" lon="2.45838">
        <ele>189.2</ele>
        <time>2019-06-23T07:58:01.000Z</time>
      </trkpt>
      <trkpt lat="43.25688" lon="2.45835">
        <ele>189.2</ele>
        <time>2019-06-23T07:58:02.000Z</time>
      </trkpt>
      <trkpt lat="43.25688" lon="2.45831">
        <ele>189.1</ele>
        <time>2019-06-23T07:58:03.000Z</time>
      </trkpt>
      <trkpt lat="43.25688" lon="2.45827">
        <ele>189</ele>
        <time>2019-06-23T07:58:04.000Z</time>
      </trkpt>
      <trkpt lat="43.25688" lon="2.45824">
        <ele>188.9</ele>
        <time>2019-06-23T07:58:05.000Z</time>
      </trkpt>
      <trkpt lat="43.25688" lon="2.4582">
        <ele>188.7</ele>
        <time>2019-06-23T07:58:06.000Z</time>
      </trkpt>
      <trkpt lat="43.25688" lon="2.45817">
        <ele>188.6</ele>
        <time>2019-06-23T07:58:07.000Z</time>
      </trkpt>
      <trkpt lat="43.25688" lon="2.45813">
        <ele>188.4</ele>
        <time>2019-06-23T07:58:08.000Z</time>
      </trkpt>
      <trkpt lat="43.25689" lon="2.4581">
        <ele>188.3</ele>
        <time>2019-06-23T07:58:09.000Z</time>
      </trkpt>
      <trkpt lat="43.25689" lon="2.45807">
        <ele>188.2</ele>
        <time>2019-06-23T07:58:10.000Z</time>
      </trkpt>
      <trkpt lat="43.25689" lon="2.45803">
        <ele>188</ele>
        <time>2019-06-23T07:58:11.000Z</time>
      </trkpt>
      <trkpt lat="43.25689" lon="2.458">
        <ele>187.9</ele>
        <time>2019-06-23T07:58:12.000Z</time>
      </trkpt>
      <trkpt lat="43.25689" lon="2.45797">
        <ele>187.8</ele>
        <time>2019-06-23T07:58:13.000Z</time>
      </trkpt>
      <trkpt lat="43.25689" lon="2.45794">
        <ele>187.7</ele>
        <time>2019-06-23T07:58:14.000Z</time>
      </trkpt>
      <trkpt lat="43.25687" lon="2.45791">
        <ele>187.6</ele>
        <time>2019-06-23T07:58:15.000Z</time>
      </trkpt>
      <trkpt lat="43.25686" lon="2.45789">
        <ele>187.6</ele>
        <time>2019-06-23T07:58:16.000Z</time>
      </trkpt>
      <trkpt lat="43.25684" lon="2.45787">
        <ele>187.6</ele>
        <time>2019-06-23T07:58:17.000Z</time>
      </trkpt>
      <trkpt lat="43.25682" lon="2.45786">
        <ele>187.7</ele>
        <time>2019-06-23T07:58:18.000Z</time>
      </trkpt>
      <trkpt lat="43.2568" lon="2.45786">
        <ele>187.7</ele>
        <time>2019-06-23T07:58:19.000Z</time>
      </trkpt>
      <trkpt lat="43.25679" lon="2.45786">
        <ele>187.8</ele>
        <time>2019-06-23T07:58:20.000Z</time>
      </trkpt>
      <trkpt lat="43.25678" lon="2.45786">
        <ele>187.8</ele>
        <time>2019-06-23T07:58:21.000Z</time>
      </trkpt>
      <trkpt lat="43.25676" lon="2.45786">
        <ele>187.9</ele>
        <time>2019-06-23T07:58:22.000Z</time>
      </trkpt>
      <trkpt lat="43.25675" lon="2.45786">
        <ele>187.9</ele>
        <time>2019-06-23T07:58:23.000Z</time>
      </trkpt>
      <trkpt lat="43.25674" lon="2.45787">
        <ele>188</ele>
        <time>2019-06-23T07:58:24.000Z</time>
      </trkpt>
      <trkpt lat="43.25673" lon="2.45787">
        <ele>188</ele>
        <time>2019-06-23T07:58:25.000Z</time>
      </trkpt>
      <trkpt lat="43.25672" lon="2.45786">
        <ele>188.1</ele>
        <time>2019-06-23T07:58:26.000Z</time>
      </trkpt>
      <trkpt lat="43.25671" lon="2.45786">
        <ele>188.1</ele>
        <time>2019-06-23T07:58:27.000Z</time>
      </trkpt>
      <trkpt lat="43.2567" lon="2.45785">
        <ele>188.1</ele>
        <time>2019-06-23T07:58:28.000Z</time>
      </trkpt>
      <trkpt lat="43.25669" lon="2.45784">
        <ele>188.1</ele>
        <time>2019-06-23T07:58:29.000Z</time>
      </trkpt>
      <trkpt lat="43.25668" lon="2.45783">
        <ele>188.1</ele>
        <time>2019-06-23T07:58:30.000Z</time>
      </trkpt>
      <trkpt lat="43.25667" lon="2.45782">
        <ele>188.1</ele>
        <time>2019-06-23T07:58:31.000Z</time>
      </trkpt>
      <trkpt lat="43.25667" lon="2.45781">
        <ele>188.1</ele>
        <time>2019-06-23T07:58:32.000Z</time>
      </trkpt>
      <trkpt lat="43.25666" lon="2.4578">
        <ele>188.1</ele>
        <time>2019-06-23T07:58:33.000Z</time>
      </trkpt>
      <trkpt lat="43.25665" lon="2.45779">
        <ele>188</ele>
        <time>2019-06-23T07:58:34.000Z</time>
      </trkpt>
      <trkpt lat="43.25665" lon="2.45779">
        <ele>188</ele>
        <time>2019-06-23T07:58:35.000Z</time>
      </trkpt>
      <trkpt lat="43.25664" lon="2.45779">
        <ele>188</ele>
        <time>2019-06-23T07:58:36.000Z</time>
      </trkpt>
      <trkpt lat="43.25664" lon="2.45779">
        <ele>188</ele>
        <time>2019-06-23T07:58:37.000Z</time>
      </trkpt>
      <trkpt lat="43.25664" lon="2.45779">
        <ele>188</ele>
        <time>2019-06-23T07:58:38.000Z</time>
      </trkpt>
      <trkpt lat="43.25664" lon="2.45779">
        <ele>188</ele>
        <time>2019-06-23T07:58:39.000Z</time>
      </trkpt>
      <trkpt lat="43.25663" lon="2.45779">
        <ele>188</ele>
        <time>2019-06-23T07:58:40.000Z</time>
      </trkpt>
      <trkpt lat="43.25663" lon="2.45779">
        <ele>188</ele>
        <time>2019-06-23T07:58:41.000Z</time>
      </trkpt>
      <trkpt lat="43.25663" lon="2.45779">
        <ele>188</ele>
        <time>2019-06-23T07:58:42.000Z</time>
      </trkpt>
      <trkpt lat="43.25663" lon="2.45779">
        <ele>188</ele>
        <time>2019-06-23T07:58:43.000Z</time>
      </trkpt>
      <trkpt lat="43.25663" lon="2.45779">
        <ele>188</ele>
        <time>2019-06-23T07:58:44.000Z</time>
      </trkpt>
      <trkpt lat="43.25663" lon="2.45779">
        <ele>188</ele>
        <time>2019-06-23T07:58:45.000Z</time>
      </trkpt>
      <trkpt lat="43.25663" lon="2.45779">
        <ele>188</ele>
        <time>2019-06-23T07:58:46.000Z</time>
      </trkpt>
      <trkpt lat="43.25663" lon="2.45779">
        <ele>188</ele>
        <time>2019-06-23T07:58:47.000Z</time>
      </trkpt>
      <trkpt lat="43.25663" lon="2.45779">
        <ele>188</ele>
        <time>2019-06-23T07:58:48.000Z</time>
      </trkpt>
      <trkpt lat="43.25663" lon="2.45779">
        <ele>188</ele>
        <time>2019-06-23T07:58:49.000Z</time>
      </trkpt>
      <trkpt lat="43.25663" lon="2.45779">
        <ele>188</ele>
        <time>2019-06-23T07:58:50.000Z</time>
      </trkpt>
      <trkpt lat="43.25663" lon="2.45779">
        <ele>188</ele>
        <time>2019-06-23T07:58:51.000Z</time>
      </trkpt>
      <trkpt lat="43.25663" lon="2.45779">
        <ele>188</ele>
        <time>2019-06-23T07:58:52.000Z</time>
      </trkpt>
      <trkpt lat="43.25663" lon="2.45779">
        <ele>188</ele>
        <time>2019-06-23T07:58:53.000Z</time>
      </trkpt>
      <trkpt lat="43.25663" lon="2.45779">
        <ele>188</ele>
        <time>2019-06-23T07:58:54.000Z</time>
      </trkpt>
      <trkpt lat="43.25663" lon="2.45779">
        <ele>188</ele>
        <time>2019-06-23T07:58:55.000Z</time>
      </trkpt>
      <trkpt lat="43.25663" lon="2.45779">
        <ele>188</ele>
        <time>2019-06-23T07:58:56.000Z</time>
      </trkpt>
      <trkpt lat="43.25663" lon="2.45779">
        <ele>188</ele>
        <time>2019-06-23T07:58:57.000Z</time>
      </trkpt>
      <trkpt lat="43.25663" lon="2.45779">
        <ele>188</ele>
        <time>2019-06-23T07:58:58.000Z</time>
      </trkpt>
      <trkpt lat="43.25663" lon="2.45779">
        <ele>188</ele>
        <time>2019-06-23T07:58:59.000Z</time>
      </trkpt>
      <trkpt lat="43.25663" lon="2.45779">
        <ele>188</ele>
        <time>2019-06-23T07:59:00.000Z</time>
      </trkpt>
      <trkpt lat="43.25662" lon="2.45778">
        <ele>188</ele>
        <time>2019-06-23T07:59:01.000Z</time>
      </trkpt>
      <trkpt lat="43.25662" lon="2.45778">
        <ele>188</ele>
        <time>2019-06-23T07:59:02.000Z</time>
      </trkpt>
      <trkpt lat="43.25661" lon="2.45778">
        <ele>188</ele>
        <time>2019-06-23T07:59:03.000Z</time>
      </trkpt>
      <trkpt lat="43.25661" lon="2.45777">
        <ele>187.9</ele>
        <time>2019-06-23T07:59:04.000Z</time>
      </trkpt>
      <trkpt lat="43.25661" lon="2.45777">
        <ele>187.9</ele>
        <time>2019-06-23T07:59:05.000Z</time>
      </trkpt>
      <trkpt lat="43.2566" lon="2.45776">
        <ele>187.9</ele>
        <time>2019-06-23T07:59:06.000Z</time>
      </trkpt>
      <trkpt lat="43.2566" lon="2.45776">
        <ele>187.9</ele>
        <time>2019-06-23T07:59:07.000Z</time>
      </trkpt>
      <trkpt lat="43.25659" lon="2.45775">
        <ele>187.9</ele>
        <time>2019-06-23T07:59:08.000Z</time>
      </trkpt>
      <trkpt lat="43.25659" lon="2.45775">
        <ele>187.8</ele>
        <time>2019-06-23T07:59:09.000Z</time>
      </trkpt>
      <trkpt lat="43.25658" lon="2.45774">
        <ele>187.8</ele>
        <time>2019-06-23T07:59:10.000Z</time>
      </trkpt>
      <trkpt lat="43.25658" lon="2.45773">
        <ele>187.8</ele>
        <time>2019-06-23T07:59:11.000Z</time>
      </trkpt>
      <trkpt lat="43.25657" lon="2.45773">
        <ele>187.8</ele>
        <time>2019-06-23T07:59:12.000Z</time>
      </trkpt>
      <trkpt lat="43.25656" lon="2.45772">
        <ele>187.7</ele>
        <time>2019-06-23T07:59:13.000Z</time>
      </trkpt>
      <trkpt lat="43.25656" lon="2.45771">
        <ele>187.7</ele>
        <time>2019-06-23T07:59:14.000Z</time>
      </trkpt>
      <trkpt lat="43.25655" lon="2.4577">
        <ele>187.7</ele>
        <time>2019-06-23T07:59:15.000Z</time>
      </trkpt>
      <trkpt lat="43.25654" lon="2.45769">
        <ele>187.7</ele>
        <time>2019-06-23T07:59:16.000Z</time>
      </trkpt>
      <trkpt lat="43.25654" lon="2.45768">
        <ele>187.6</ele>
        <time>2019-06-23T07:59:17.000Z</time>
      </trkpt>
      <trkpt lat="43.25653" lon="2.45767">
        <ele>187.6</ele>
        <time>2019-06-23T07:59:18.000Z</time>
      </trkpt>
      <trkpt lat="43.25652" lon="2.45766">
        <ele>187.6</ele>
        <time>2019-06-23T07:59:19.000Z</time>
      </trkpt>
      <trkpt lat="43.25651" lon="2.45765">
        <ele>187.6</ele>
        <time>2019-06-23T07:59:20.000Z</time>
      </trkpt>
      <trkpt lat="43.25651" lon="2.45764">
        <ele>187.5</ele>
        <time>2019-06-23T07:59:21.000Z</time>
      </trkpt>
      <trkpt lat="43.2565" lon="2.45763">
        <ele>187.5</ele>
        <time>2019-06-23T07:59:22.000Z</time>
      </trkpt>
      <trkpt lat="43.25649" lon="2.45762">
        <ele>187.5</ele>
        <time>2019-06-23T07:59:23.000Z</time>
      </trkpt>
      <trkpt lat="43.25649" lon="2.45761">
        <ele>187.5</ele>
        <time>2019-06-23T07:59:24.000Z</time>
      </trkpt>
      <trkpt lat="43.25648" lon="2.4576">
        <ele>187.4</ele>
        <time>2019-06-23T07:59:25.000Z</time>
      </trkpt>
      <trkpt lat="43.25647" lon="2.45759">
        <ele>187.4</ele>
        <time>2019-06-23T07:59:26.000Z</time>
      </trkpt>
      <trkpt lat="43.25646" lon="2.45758">
        <ele>187.4</ele>
        <time>2019-06-23T07:59:27.000Z</time>
      </trkpt>
      <trkpt lat="43.25645" lon="2.45757">
        <ele>187.4</ele>
        <time>2019-06-23T07:59:28.000Z</time>
      </trkpt>
      <trkpt lat="43.25645" lon="2.45755">
        <ele>187.4</ele>
        <time>2019-06-23T07:59:29.000Z</time>
      </trkpt>
      <trkpt lat="43.25644" lon="2.45754">
        <ele>187.4</ele>
        <time>2019-06-23T07:59:30.000Z</time>
      </trkpt>
      <trkpt lat="43.25643" lon="2.45753">
        <ele>187.3</ele>
        <time>2019-06-23T07:59:31.000Z</time>
      </trkpt>
      <trkpt lat="43.25642" lon="2.45752">
        <ele>187.3</ele>
        <time>2019-06-23T07:59:32.000Z</time>
      </trkpt>
      <trkpt lat="43.25641" lon="2.45751">
        <ele>187.3</ele>
        <time>2019-06-23T07:59:33.000Z</time>
      </trkpt>
      <trkpt lat="43.25641" lon="2.4575">
        <ele>187.3</ele>
        <time>2019-06-23T07:59:34.000Z</time>
      </trkpt>
      <trkpt lat="43.2564" lon="2.45749">
        <ele>187.2</ele>
        <time>2019-06-23T07:59:35.000Z</time>
      </trkpt>
      <trkpt lat="43.25639" lon="2.45748">
        <ele>187.1</ele>
        <time>2019-06-23T07:59:36.000Z</time>
      </trkpt>
      <trkpt lat="43.25638" lon="2.45747">
        <ele>187.1</ele>
        <time>2019-06-23T07:59:37.000Z</time>
      </trkpt>
      <trkpt lat="43.25637" lon="2.45746">
        <ele>187</ele>
        <time>2019-06-23T07:59:38.000Z</time>
      </trkpt>
      <trkpt lat="43.25636" lon="2.45745">
        <ele>186.9</ele>
        <time>2019-06-23T07:59:39.000Z</time>
      </trkpt>
      <trkpt lat="43.25635" lon="2.45744">
        <ele>186.9</ele>
        <time>2019-06-23T07:59:40.000Z</time>
      </trkpt>
      <trkpt lat="43.25634" lon="2.45743">
        <ele>186.8</ele>
        <time>2019-06-23T07:59:41.000Z</time>
      </trkpt>
      <trkpt lat="43.25633" lon="2.45742">
        <ele>186.7</ele>
        <time>2019-06-23T07:59:42.000Z</time>
      </trkpt>
      <trkpt lat="43.25632" lon="2.45741">
        <ele>186.7</ele>
        <time>2019-06-23T07:59:43.000Z</time>
      </trkpt>
      <trkpt lat="43.25631" lon="2.4574">
        <ele>186.6</ele>
        <time>2019-06-23T07:59:44.000Z</time>
      </trkpt>
      <trkpt lat="43.2563" lon="2.45739">
        <ele>186.6</ele>
        <time>2019-06-23T07:59:45.000Z</time>
      </trkpt>
      <trkpt lat="43.25629" lon="2.45738">
        <ele>186.5</ele>
        <time>2019-06-23T07:59:46.000Z</time>
      </trkpt>
      <trkpt lat="43.25628" lon="2.45737">
        <ele>186.5</ele>
        <time>2019-06-23T07:59:47.000Z</time>
      </trkpt>
      <trkpt lat="43.25627" lon="2.45736">
        <ele>186.4</ele>
        <time>2019-06-23T07:59:48.000Z</time>
      </trkpt>
      <trkpt lat="43.25626" lon="2.45735">
        <ele>186.4</ele>
        <time>2019-06-23T07:59:49.000Z</time>
      </trkpt>
      <trkpt lat="43.25625" lon="2.45734">
        <ele>186.4</ele>
        <time>2019-06-23T07:59:50.000Z</time>
      </trkpt>
      <trkpt lat="43.25624" lon="2.45733">
        <ele>186.3</ele>
        <time>2019-06-23T07:59:51.000Z</time>
      </trkpt>
      <trkpt lat="43.25623" lon="2.45733">
        <ele>186.3</ele>
        <time>2019-06-23T07:59:52.000Z</time>
      </trkpt>
      <trkpt lat="43.25622" lon="2.45732">
        <ele>186.3</ele>
        <time>2019-06-23T07:59:53.000Z</time>
      </trkpt>
      <trkpt lat="43.25621" lon="2.45731">
        <ele>186.3</ele>
        <time>2019-06-23T07:59:54.000Z</time>
      </trkpt>
      <trkpt lat="43.2562" lon="2.4573">
        <ele>186.2</ele>
        <time>2019-06-23T07:59:55.000Z</time>
      </trkpt>
      <trkpt lat="43.25618" lon="2.45729">
        <ele>186.2</ele>
        <time>2019-06-23T07:59:56.000Z</time>
      </trkpt>
      <trkpt lat="43.25617" lon="2.45728">
        <ele>186.2</ele>
        <time>2019-06-23T07:59:57.000Z</time>
      </trkpt>
      <trkpt lat="43.25616" lon="2.45727">
        <ele>186.2</ele>
        <time>2019-06-23T07:59:58.000Z</time>
      </trkpt>
      <trkpt lat="43.25615" lon="2.45726">
        <ele>186.2</ele>
        <time>2019-06-23T07:59:59.000Z</time>
      </trkpt>
      <trkpt lat="43.25614" lon="2.45725">
        <ele>186.1</ele>
        <time>2019-06-23T08:00:00.000Z</time>
      </trkpt>
      <trkpt lat="43.25613" lon="2.45724">
        <ele>186.1</ele>
        <time>2019-06-23T08:00:01.000Z</time>
      </trkpt>
      <trkpt lat="43.25612" lon="2.45723">
        <ele>186.1</ele>
        <time>2019-06-23T08:00:02.000Z</time>
      </trkpt>
      <trkpt lat="43.25611" lon="2.45722">
        <ele>186.1</ele>
        <time>2019-06-23T08:00:03.000Z</time>
      </trkpt>
      <trkpt lat="43.2561" lon="2.45721">
        <ele>186.1</ele>
        <time>2019-06-23T08:00:04.000Z</time>
      </trkpt>
      <trkpt lat="43.2561" lon="2.45719">
        <ele>186</ele>
        <time>2019-06-23T08:00:05.000Z</time>
      </trkpt>
      <trkpt lat="43.25609" lon="2.45718">
        <ele>186</ele>
        <time>2019-06-23T08:00:06.000Z</time>
      </trkpt>
      <trkpt lat="43.25608" lon="2.45717">
        <ele>186</ele>
        <time>2019-06-23T08:00:07.000Z</time>
      </trkpt>
      <trkpt lat="43.25607" lon="2.45715">
        <ele>185.9</ele>
        <time>2019-06-23T08:00:08.000Z</time>
      </trkpt>
      <trkpt lat="43.25606" lon="2.45714">
        <ele>185.9</ele>
        <time>2019-06-23T08:00:09.000Z</time>
      </trkpt>
      <trkpt lat="43.25606" lon="2.45712">
        <ele>185.9</ele>
        <time>2019-06-23T08:00:10.000Z</time>
      </trkpt>
      <trkpt lat="43.25605" lon="2.45711">
        <ele>185.8</ele>
        <time>2019-06-23T08:00:11.000Z</time>
      </trkpt>
      <trkpt lat="43.25604" lon="2.4571">
        <ele>185.8</ele>
        <time>2019-06-23T08:00:12.000Z</time>
      </trkpt>
      <trkpt lat="43.25603" lon="2.45708">
        <ele>185.8</ele>
        <time>2019-06-23T08:00:13.000Z</time>
      </trkpt>
      <trkpt lat="43.25602" lon="2.45707">
        <ele>185.8</ele>
        <time>2019-06-23T08:00:14.000Z</time>
      </trkpt>
      <trkpt lat="43.25601" lon="2.45705">
        <ele>185.8</ele>
        <time>2019-06-23T08:00:15.000Z</time>
      </trkpt>
      <trkpt lat="43.25601" lon="2.45704">
        <ele>185.8</ele>
        <time>2019-06-23T08:00:16.000Z</time>
      </trkpt>
      <trkpt lat="43.256" lon="2.45703">
        <ele>185.8</ele>
        <time>2019-06-23T08:00:17.000Z</time>
      </trkpt>
      <trkpt lat="43.25599" lon="2.45702">
        <ele>185.8</ele>
        <time>2019-06-23T08:00:18.000Z</time>
      </trkpt>
      <trkpt lat="43.25598" lon="2.457">
        <ele>185.8</ele>
        <time>2019-06-23T08:00:19.000Z</time>
      </trkpt>
      <trkpt lat="43.25597" lon="2.45699">
        <ele>185.8</ele>
        <time>2019-06-23T08:00:20.000Z</time>
      </trkpt>
      <trkpt lat="43.25597" lon="2.45697">
        <ele>185.7</ele>
        <time>2019-06-23T08:00:21.000Z</time>
      </trkpt>
      <trkpt lat="43.25596" lon="2.45695">
        <ele>185.7</ele>
        <time>2019-06-23T08:00:22.000Z</time>
      </trkpt>
      <trkpt lat="43.25596" lon="2.45694">
        <ele>185.7</ele>
        <time>2019-06-23T08:00:23.000Z</time>
      </trkpt>
      <trkpt lat="43.25595" lon="2.45692">
        <ele>185.7</ele>
        <time>2019-06-23T08:00:24.000Z</time>
      </trkpt>
      <trkpt lat="43.25595" lon="2.4569">
        <ele>185.6</ele>
        <time>2019-06-23T08:00:25.000Z</time>
      </trkpt>
      <trkpt lat="43.25594" lon="2.45688">
        <ele>185.6</ele>
        <time>2019-06-23T08:00:26.000Z</time>
      </trkpt>
      <trkpt lat="43.25594" lon="2.45686">
        <ele>185.5</ele>
        <time>2019-06-23T08:00:27.000Z</time>
      </trkpt>
      <trkpt lat="43.25594" lon="2.45684">
        <ele>185.5</ele>
        <time>2019-06-23T08:00:28.000Z</time>
      </trkpt>
      <trkpt lat="43.25594" lon="2.45682">
        <ele>185.4</ele>
        <time>2019-06-23T08:00:29.000Z</time>
      </trkpt>
      <trkpt lat="43.25593" lon="2.4568">
        <ele>185.4</ele>
        <time>2019-06-23T08:00:30.000Z</time>
      </trkpt>
      <trkpt lat="43.25593" lon="2.45678">
        <ele>185.3</ele>
        <time>2019-06-23T08:00:31.000Z</time>
      </trkpt>
      <trkpt lat="43.25593" lon="2.45676">
        <ele>185.3</ele>
        <time>2019-06-23T08:00:32.000Z</time>
      </trkpt>
      <trkpt lat="43.25593" lon="2.45674">
        <ele>185.2</ele>
        <time>2019-06-23T08:00:33.000Z</time>
      </trkpt>
      <trkpt lat="43.25592" lon="2.45672">
        <ele>185.2</ele>
        <time>2019-06-23T08:00:34.000Z</time>
      </trkpt>
      <trkpt lat="43.25592" lon="2.4567">
        <ele>185.2</ele>
        <time>2019-06-23T08:00:35.000Z</time>
      </trkpt>
      <trkpt lat="43.25592" lon="2.45668">
        <ele>185.1</ele>
        <time>2019-06-23T08:00:36.000Z</time>
      </trkpt>
      <trkpt lat="43.25591" lon="2.45666">
        <ele>185.1</ele>
        <time>2019-06-23T08:00:37.000Z</time>
      </trkpt>
      <trkpt lat="43.25591" lon="2.45664">
        <ele>185.1</ele>
        <time>2019-06-23T08:00:38.000Z</time>
      </trkpt>
      <trkpt lat="43.25591" lon="2.45663">
        <ele>185</ele>
        <time>2019-06-23T08:00:39.000Z</time>
      </trkpt>
      <trkpt lat="43.25591" lon="2.45661">
        <ele>185</ele>
        <time>2019-06-23T08:00:40.000Z</time>
      </trkpt>
      <trkpt lat="43.2559" lon="2.45659">
        <ele>185</ele>
        <time>2019-06-23T08:00:41.000Z</time>
      </trkpt>
      <trkpt lat="43.2559" lon="2.45658">
        <ele>184.9</ele>
        <time>2019-06-23T08:00:42.000Z</time>
      </trkpt>
      <trkpt lat="43.2559" lon="2.45656">
        <ele>184.9</ele>
        <time>2019-06-23T08:00:43.000Z</time>
      </trkpt>
      <trkpt lat="43.2559" lon="2.45654">
        <ele>184.9</ele>
        <time>2019-06-23T08:00:44.000Z</time>
      </trkpt>
      <trkpt lat="43.25589" lon="2.45653">
        <ele>184.8</ele>
        <time>2019-06-23T08:00:45.000Z</time>
      </trkpt>
      <trkpt lat="43.25589" lon="2.45651">
        <ele>184.8</ele>
        <time>2019-06-23T08:00:46.000Z</time>
      </trkpt>
      <trkpt lat="43.25589" lon="2.45649">
        <ele>184.7</ele>
        <time>2019-06-23T08:00:47.000Z</time>
      </trkpt>
      <trkpt lat="43.25589" lon="2.45647">
        <ele>184.7</ele>
        <time>2019-06-23T08:00:48.000Z</time>
      </trkpt>
      <trkpt lat="43.25589" lon="2.45645">
        <ele>184.6</ele>
        <time>2019-06-23T08:00:49.000Z</time>
      </trkpt>
      <trkpt lat="43.25589" lon="2.45643">
        <ele>184.6</ele>
        <time>2019-06-23T08:00:50.000Z</time>
      </trkpt>
      <trkpt lat="43.25589" lon="2.45642">
        <ele>184.5</ele>
        <time>2019-06-23T08:00:51.000Z</time>
      </trkpt>
      <trkpt lat="43.25588" lon="2.4564">
        <ele>184.5</ele>
        <time>2019-06-23T08:00:52.000Z</time>
      </trkpt>
      <trkpt lat="43.25588" lon="2.45638">
        <ele>184.5</ele>
        <time>2019-06-23T08:00:53.000Z</time>
      </trkpt>
      <trkpt lat="43.25588" lon="2.45637">
        <ele>184.4</ele>
        <time>2019-06-23T08:00:54.000Z</time>
      </trkpt>
      <trkpt lat="43.25587" lon="2.45635">
        <ele>184.4</ele>
        <time>2019-06-23T08:00:55.000Z</time>
      </trkpt>
      <trkpt lat="43.25587" lon="2.45633">
        <ele>184.4</ele>
        <time>2019-06-23T08:00:56.000Z</time>
      </trkpt>
      <trkpt lat="43.25586" lon="2.45632">
        <ele>184.4</ele>
        <time>2019-06-23T08:00:57.000Z</time>
      </trkpt>
      <trkpt lat="43.25586" lon="2.4563">
        <ele>184.4</ele>
        <time>2019-06-23T08:00:58.000Z</time>
      </trkpt>
      <trkpt lat="43.25585" lon="2.45629">
        <ele>184.5</ele>
        <time>2019-06-23T08:00:59.000Z</time>
      </trkpt>
      <trkpt lat="43.25584" lon="2.45627">
        <ele>184.5</ele>
        <time>2019-06-23T08:01:00.000Z</time>
      </trkpt>
      <trkpt lat="43.25584" lon="2.45626">
        <ele>184.5</ele>
        <time>2019-06-23T08:01:01.000Z</time>
      </trkpt>
      <trkpt lat="43.25583" lon="2.45625">
        <ele>184.5</ele>
        <time>2019-06-23T08:01:02.000Z</time>
      </trkpt>
      <trkpt lat="43.25583" lon="2.45623">
        <ele>184.4</ele>
        <time>2019-06-23T08:01:03.000Z</time>
      </trkpt>
      <trkpt lat="43.25583" lon="2.45622">
        <ele>184.4</ele>
        <time>2019-06-23T08:01:04.000Z</time>
      </trkpt>
      <trkpt lat="43.25582" lon="2.45621">
        <ele>184.3</ele>
        <time>2019-06-23T08:01:05.000Z</time>
      </trkpt>
      <trkpt lat="43.25582" lon="2.45619">
        <ele>184.3</ele>
        <time>2019-06-23T08:01:06.000Z</time>
      </trkpt>
      <trkpt lat="43.25582" lon="2.45618">
        <ele>184.2</ele>
        <time>2019-06-23T08:01:07.000Z</time>
      </trkpt>
      <trkpt lat="43.25581" lon="2.45617">
        <ele>184.2</ele>
        <time>2019-06-23T08:01:08.000Z</time>
      </trkpt>
      <trkpt lat="43.25581" lon="2.45615">
        <ele>184.2</ele>
        <time>2019-06-23T08:01:09.000Z</time>
      </trkpt>
      <trkpt lat="43.25581" lon="2.45614">
        <ele>184.1</ele>
        <time>2019-06-23T08:01:10.000Z</time>
      </trkpt>
      <trkpt lat="43.25581" lon="2.45613">
        <ele>184.1</ele>
        <time>2019-06-23T08:01:11.000Z</time>
      </trkpt>
      <trkpt lat="43.25581" lon="2.45611">
        <ele>184</ele>
        <time>2019-06-23T08:01:12.000Z</time>
      </trkpt>
      <trkpt lat="43.25581" lon="2.4561">
        <ele>184</ele>
        <time>2019-06-23T08:01:13.000Z</time>
      </trkpt>
      <trkpt lat="43.25581" lon="2.45609">
        <ele>183.9</ele>
        <time>2019-06-23T08:01:14.000Z</time>
      </trkpt>
      <trkpt lat="43.25581" lon="2.45607">
        <ele>183.9</ele>
        <time>2019-06-23T08:01:15.000Z</time>
      </trkpt>
      <trkpt lat="43.25581" lon="2.45605">
        <ele>183.8</ele>
        <time>2019-06-23T08:01:16.000Z</time>
      </trkpt>
      <trkpt lat="43.2558" lon="2.45604">
        <ele>183.7</ele>
        <time>2019-06-23T08:01:17.000Z</time>
      </trkpt>
      <trkpt lat="43.2558" lon="2.45602">
        <ele>183.7</ele>
        <time>2019-06-23T08:01:18.000Z</time>
      </trkpt>
      <trkpt lat="43.2558" lon="2.456">
        <ele>183.6</ele>
        <time>2019-06-23T08:01:19.000Z</time>
      </trkpt>
      <trkpt lat="43.2558" lon="2.45599">
        <ele>183.6</ele>
        <time>2019-06-23T08:01:20.000Z</time>
      </trkpt>
      <trkpt lat="43.25579" lon="2.45597">
        <ele>183.5</ele>
        <time>2019-06-23T08:01:21.000Z</time>
      </trkpt>
      <trkpt lat="43.25579" lon="2.45596">
        <ele>183.5</ele>
        <time>2019-06-23T08:01:22.000Z</time>
      </trkpt>
      <trkpt lat="43.25579" lon="2.45594">
        <ele>183.4</ele>
        <time>2019-06-23T08:01:23.000Z</time>
      </trkpt>
      <trkpt lat="43.25579" lon="2.45593">
        <ele>183.4</ele>
        <time>2019-06-23T08:01:24.000Z</time>
      </trkpt>
      <trkpt lat="43.25579" lon="2.45592">
        <ele>183.4</ele>
        <time>2019-06-23T08:01:25.000Z</time>
      </trkpt>
      <trkpt lat="43.25579" lon="2.45591">
        <ele>183.3</ele>
        <time>2019-06-23T08:01:26.000Z</time>
      </trkpt>
      <trkpt lat="43.2558" lon="2.45591">
        <ele>183.3</ele>
        <time>2019-06-23T08:01:27.000Z</time>
      </trkpt>
      <trkpt lat="43.2558" lon="2.4559">
        <ele>183.3</ele>
        <time>2019-06-23T08:01:28.000Z</time>
      </trkpt>
      <trkpt lat="43.2558" lon="2.4559">
        <ele>183.3</ele>
        <time>2019-06-23T08:01:29.000Z</time>
      </trkpt>
      <trkpt lat="43.2558" lon="2.4559">
        <ele>183.3</ele>
        <time>2019-06-23T08:01:30.000Z</time>
      </trkpt>
      <trkpt lat="43.2558" lon="2.4559">
        <ele>183.3</ele>
        <time>2019-06-23T08:01:31.000Z</time>
      </trkpt>
      <trkpt lat="43.2558" lon="2.4559">
        <ele>183.3</ele>
        <time>2019-06-23T08:01:32.000Z</time>
      </trkpt>
      <trkpt lat="43.2558" lon="2.4559">
        <ele>183.3</ele>
        <time>2019-06-23T08:01:33.000Z</time>
      </trkpt>
      <trkpt lat="43.2558" lon="2.4559">
        <ele>183.3</ele>
        <time>2019-06-23T08:01:34.000Z</time>
      </trkpt>
      <trkpt lat="43.2558" lon="2.4559">
        <ele>183.3</ele>
        <time>2019-06-23T08:01:35.000Z</time>
      </trkpt>
      <trkpt lat="43.2558" lon="2.4559">
        <ele>183.3</ele>
        <time>2019-06-23T08:01:36.000Z</time>
      </trkpt>
      <trkpt lat="43.2558" lon="2.4559">
        <ele>183.3</ele>
        <time>2019-06-23T08:01:37.000Z</time>
      </trkpt>
      <trkpt lat="43.2558" lon="2.45589">
        <ele>183.2</ele>
        <time>2019-06-23T08:01:38.000Z</time>
      </trkpt>
      <trkpt lat="43.2558" lon="2.45588">
        <ele>183.2</ele>
        <time>2019-06-23T08:01:39.000Z</time>
      </trkpt>
      <trkpt lat="43.2558" lon="2.45587">
        <ele>183.2</ele>
        <time>2019-06-23T08:01:40.000Z</time>
      </trkpt>
      <trkpt lat="43.25581" lon="2.45586">
        <ele>183.1</ele>
        <time>2019-06-23T08:01:41.000Z</time>
      </trkpt>
      <trkpt lat="43.25581" lon="2.45585">
        <ele>183.1</ele>
        <time>2019-06-23T08:01:42.000Z</time>
      </trkpt>
      <trkpt lat="43.25581" lon="2.45583">
        <ele>183</ele>
        <time>2019-06-23T08:01:43.000Z</time>
      </trkpt>
      <trkpt lat="43.25582" lon="2.45582">
        <ele>183</ele>
        <time>2019-06-23T08:01:44.000Z</time>
      </trkpt>
      <trkpt lat="43.25582" lon="2.45581">
        <ele>183.1</ele>
        <time>2019-06-23T08:01:45.000Z</time>
      </trkpt>
      <trkpt lat="43.25582" lon="2.45579">
        <ele>183.1</ele>
        <time>2019-06-23T08:01:46.000Z</time>
      </trkpt>
      <trkpt lat="43.25583" lon="2.45578">
        <ele>183.1</ele>
        <time>2019-06-23T08:01:47.000Z</time>
      </trkpt>
      <trkpt lat="43.25583" lon="2.45576">
        <ele>183.1</ele>
        <time>2019-06-23T08:01:48.000Z</time>
      </trkpt>
      <trkpt lat="43.25583" lon="2.45575">
        <ele>183.1</ele>
        <time>2019-06-23T08:01:49.000Z</time>
      </trkpt>
      <trkpt lat="43.25584" lon="2.45574">
        <ele>183.1</ele>
        <time>2019-06-23T08:01:50.000Z</time>
      </trkpt>
      <trkpt lat="43.25584" lon="2.45572">
        <ele>183.1</ele>
        <time>2019-06-23T08:01:51.000Z</time>
      </trkpt>
      <trkpt lat="43.25584" lon="2.45571">
        <ele>183.1</ele>
        <time>2019-06-23T08:01:52.000Z</time>
      </trkpt>
      <trkpt lat="43.25584" lon="2.45569">
        <ele>183.1</ele>
        <time>2019-06-23T08:01:53.000Z</time>
      </trkpt>
      <trkpt lat="43.25584" lon="2.45568">
        <ele>183</ele>
        <time>2019-06-23T08:01:54.000Z</time>
      </trkpt>
      <trkpt lat="43.25585" lon="2.45566">
        <ele>183.1</ele>
        <time>2019-06-23T08:01:55.000Z</time>
      </trkpt>
      <trkpt lat="43.25585" lon="2.45564">
        <ele>183.1</ele>
        <time>2019-06-23T08:01:56.000Z</time>
      </trkpt>
      <trkpt lat="43.25585" lon="2.45563">
        <ele>183.1</ele>
        <time>2019-06-23T08:01:57.000Z</time>
      </trkpt>
      <trkpt lat="43.25585" lon="2.45561">
        <ele>183.1</ele>
        <time>2019-06-23T08:01:58.000Z</time>
      </trkpt>
      <trkpt lat="43.25584" lon="2.4556">
        <ele>183.1</ele>
        <time>2019-06-23T08:01:59.000Z</time>
      </trkpt>
      <trkpt lat="43.25584" lon="2.45559">
        <ele>183.2</ele>
        <time>2019-06-23T08:02:00.000Z</time>
      </trkpt>
      <trkpt lat="43.25584" lon="2.45558">
        <ele>183.2</ele>
        <time>2019-06-23T08:02:01.000Z</time>
      </trkpt>
      <trkpt lat="43.25584" lon="2.45557">
        <ele>183.2</ele>
        <time>2019-06-23T08:02:02.000Z</time>
      </trkpt>
      <trkpt lat="43.25584" lon="2.45556">
        <ele>183.2</ele>
        <time>2019-06-23T08:02:03.000Z</time>
      </trkpt>
      <trkpt lat="43.25584" lon="2.45555">
        <ele>183.3</ele>
        <time>2019-06-23T08:02:04.000Z</time>
      </trkpt>
      <trkpt lat="43.25584" lon="2.45555">
        <ele>183.3</ele>
        <time>2019-06-23T08:02:05.000Z</time>
      </trkpt>
      <trkpt lat="43.25584" lon="2.45554">
        <ele>183.3</ele>
        <time>2019-06-23T08:02:06.000Z</time>
      </trkpt>
      <trkpt lat="43.25583" lon="2.45554">
        <ele>183.3</ele>
        <time>2019-06-23T08:02:07.000Z</time>
      </trkpt>
      <trkpt lat="43.25583" lon="2.45553">
        <ele>183.4</ele>
        <time>2019-06-23T08:02:08.000Z</time>
      </trkpt>
      <trkpt lat="43.25583" lon="2.45553">
        <ele>183.4</ele>
        <time>2019-06-23T08:02:09.000Z</time>
      </trkpt>
      <trkpt lat="43.25583" lon="2.45552">
        <ele>183.4</ele>
        <time>2019-06-23T08:02:10.000Z</time>
      </trkpt>
      <trkpt lat="43.25584" lon="2.45552">
        <ele>183.4</ele>
        <time>2019-06-23T08:02:11.000Z</time>
      </trkpt>
      <trkpt lat="43.25584" lon="2.45551">
        <ele>183.3</ele>
        <time>2019-06-23T08:02:12.000Z</time>
      </trkpt>
      <trkpt lat="43.25584" lon="2.45551">
        <ele>183.3</ele>
        <time>2019-06-23T08:02:13.000Z</time>
      </trkpt>
      <trkpt lat="43.25585" lon="2.4555">
        <ele>183.2</ele>
        <time>2019-06-23T08:02:14.000Z</time>
      </trkpt>
      <trkpt lat="43.25585" lon="2.45549">
        <ele>183.1</ele>
        <time>2019-06-23T08:02:15.000Z</time>
      </trkpt>
      <trkpt lat="43.25586" lon="2.45548">
        <ele>183.1</ele>
        <time>2019-06-23T08:02:16.000Z</time>
      </trkpt>
      <trkpt lat="43.25587" lon="2.45546">
        <ele>182.9</ele>
        <time>2019-06-23T08:02:17.000Z</time>
      </trkpt>
      <trkpt lat="43.25588" lon="2.45545">
        <ele>182.8</ele>
        <time>2019-06-23T08:02:18.000Z</time>
      </trkpt>
      <trkpt lat="43.25589" lon="2.45543">
        <ele>182.7</ele>
        <time>2019-06-23T08:02:19.000Z</time>
      </trkpt>
      <trkpt lat="43.2559" lon="2.45542">
        <ele>182.5</ele>
        <time>2019-06-23T08:02:20.000Z</time>
      </trkpt>
      <trkpt lat="43.25591" lon="2.4554">
        <ele>182.3</ele>
        <time>2019-06-23T08:02:21.000Z</time>
      </trkpt>
      <trkpt lat="43.25592" lon="2.45537">
        <ele>182.2</ele>
        <time>2019-06-23T08:02:22.000Z</time>
      </trkpt>
      <trkpt lat="43.25593" lon="2.45535">
        <ele>182.1</ele>
        <time>2019-06-23T08:02:23.000Z</time>
      </trkpt>
      <trkpt lat="43.25594" lon="2.45533">
        <ele>181.9</ele>
        <time>2019-06-23T08:02:24.000Z</time>
      </trkpt>
      <trkpt lat="43.25595" lon="2.4553">
        <ele>181.8</ele>
        <time>2019-06-23T08:02:25.000Z</time>
      </trkpt>
      <trkpt lat="43.25595" lon="2.45528">
        <ele>181.8</ele>
        <time>2019-06-23T08:02:26.000Z</time>
      </trkpt>
      <trkpt lat="43.25596" lon="2.45525">
        <ele>181.7</ele>
        <time>2019-06-23T08:02:27.000Z</time>
      </trkpt>
      <trkpt lat="43.25596" lon="2.45523">
        <ele>181.6</ele>
        <time>2019-06-23T08:02:28.000Z</time>
      </trkpt>
      <trkpt lat="43.25597" lon="2.4552">
        <ele>181.6</ele>
        <time>2019-06-23T08:02:29.000Z</time>
      </trkpt>
      <trkpt lat="43.25597" lon="2.45517">
        <ele>181.6</ele>
        <time>2019-06-23T08:02:30.000Z</time>
      </trkpt>
      <trkpt lat="43.25597" lon="2.45514">
        <ele>181.5</ele>
        <time>2019-06-23T08:02:31.000Z</time>
      </trkpt>
      <trkpt lat="43.25597" lon="2.45511">
        <ele>181.5</ele>
        <time>2019-06-23T08:02:32.000Z</time>
      </trkpt>
      <trkpt lat="43.25597" lon="2.45508">
        <ele>181.5</ele>
        <time>2019-06-23T08:02:33.000Z</time>
      </trkpt>
      <trkpt lat="43.25597" lon="2.45505">
        <ele>181.5</ele>
        <time>2019-06-23T08:02:34.000Z</time>
      </trkpt>
      <trkpt lat="43.25597" lon="2.45501">
        <ele>181.5</ele>
        <time>2019-06-23T08:02:35.000Z</time>
      </trkpt>
      <trkpt lat="43.25597" lon="2.45498">
        <ele>181.5</ele>
        <time>2019-06-23T08:02:36.000Z</time>
      </trkpt>
      <trkpt lat="43.25597" lon="2.45495">
        <ele>181.3</ele>
        <time>2019-06-23T08:02:37.000Z</time>
      </trkpt>
      <trkpt lat="43.25597" lon="2.45492">
        <ele>181.2</ele>
        <time>2019-06-23T08:02:38.000Z</time>
      </trkpt>
      <trkpt lat="43.25597" lon="2.45488">
        <ele>181</ele>
        <time>2019-06-23T08:02:39.000Z</time>
      </trkpt>
      <trkpt lat="43.25597" lon="2.45485">
        <ele>180.9</ele>
        <time>2019-06-23T08:02:40.000Z</time>
      </trkpt>
      <trkpt lat="43.25597" lon="2.45481">
        <ele>180.7</ele>
        <time>2019-06-23T08:02:41.000Z</time>
      </trkpt>
      <trkpt lat="43.25597" lon="2.45478">
        <ele>180.5</ele>
        <time>2019-06-23T08:02:42.000Z</time>
      </trkpt>
      <trkpt lat="43.25597" lon="2.45474">
        <ele>180.4</ele>
        <time>2019-06-23T08:02:43.000Z</time>
      </trkpt>
      <trkpt lat="43.25597" lon="2.45471">
        <ele>180.2</ele>
        <time>2019-06-23T08:02:44.000Z</time>
      </trkpt>
      <trkpt lat="43.25597" lon="2.45467">
        <ele>180.1</ele>
        <time>2019-06-23T08:02:45.000Z</time>
      </trkpt>
      <trkpt lat="43.25597" lon="2.45464">
        <ele>179.9</ele>
        <time>2019-06-23T08:02:46.000Z</time>
      </trkpt>
      <trkpt lat="43.25597" lon="2.4546">
        <ele>179.8</ele>
        <time>2019-06-23T08:02:47.000Z</time>
      </trkpt>
      <trkpt lat="43.25597" lon="2.45457">
        <ele>179.7</ele>
        <time>2019-06-23T08:02:48.000Z</time>
      </trkpt>
      <trkpt lat="43.25597" lon="2.45453">
        <ele>179.5</ele>
        <time>2019-06-23T08:02:49.000Z</time>
      </trkpt>
      <trkpt lat="43.25597" lon="2.4545">
        <ele>179.4</ele>
        <time>2019-06-23T08:02:50.000Z</time>
      </trkpt>
      <trkpt lat="43.25596" lon="2.45446">
        <ele>179.3</ele>
        <time>2019-06-23T08:02:51.000Z</time>
      </trkpt>
      <trkpt lat="43.25596" lon="2.45442">
        <ele>179.2</ele>
        <time>2019-06-23T08:02:52.000Z</time>
      </trkpt>
      <trkpt lat="43.25595" lon="2.45439">
        <ele>179.1</ele>
        <time>2019-06-23T08:02:53.000Z</time>
      </trkpt>
      <trkpt lat="43.25595" lon="2.45435">
        <ele>179.1</ele>
        <time>2019-06-23T08:02:54.000Z</time>
      </trkpt>
      <trkpt lat="43.25594" lon="2.45432">
        <ele>179</ele>
        <time>2019-06-23T08:02:55.000Z</time>
      </trkpt>
      <trkpt lat="43.25593" lon="2.45428">
        <ele>179</ele>
        <time>2019-06-23T08:02:56.000Z</time>
      </trkpt>
      <trkpt lat="43.25592" lon="2.45424">
        <ele>179</ele>
        <time>2019-06-23T08:02:57.000Z</time>
      </trkpt>
      <trkpt lat="43.25591" lon="2.45421">
        <ele>179</ele>
        <time>2019-06-23T08:02:58.000Z</time>
      </trkpt>
      <trkpt lat="43.2559" lon="2.45417">
        <ele>179</ele>
        <time>2019-06-23T08:02:59.000Z</time>
      </trkpt>
      <trkpt lat="43.25589" lon="2.45414">
        <ele>179</ele>
        <time>2019-06-23T08:03:00.000Z</time>
      </trkpt>
      <trkpt lat="43.25588" lon="2.4541">
        <ele>178.9</ele>
        <time>2019-06-23T08:03:01.000Z</time>
      </trkpt>
      <trkpt lat="43.25586" lon="2.45407">
        <ele>178.8</ele>
        <time>2019-06-23T08:03:02.000Z</time>
      </trkpt>
      <trkpt lat="43.25585" lon="2.45404">
        <ele>178.8</ele>
        <time>2019-06-23T08:03:03.000Z</time>
      </trkpt>
      <trkpt lat="43.25584" lon="2.45401">
        <ele>178.7</ele>
        <time>2019-06-23T08:03:04.000Z</time>
      </trkpt>
      <trkpt lat="43.25583" lon="2.45398">
        <ele>178.6</ele>
        <time>2019-06-23T08:03:05.000Z</time>
      </trkpt>
      <trkpt lat="43.25582" lon="2.45395">
        <ele>178.4</ele>
        <time>2019-06-23T08:03:06.000Z</time>
      </trkpt>
      <trkpt lat="43.2558" lon="2.45392">
        <ele>178.2</ele>
        <time>2019-06-23T08:03:07.000Z</time>
      </trkpt>
      <trkpt lat="43.25579" lon="2.45389">
        <ele>178</ele>
        <time>2019-06-23T08:03:08.000Z</time>
      </trkpt>
      <trkpt lat="43.25577" lon="2.45387">
        <ele>177.8</ele>
        <time>2019-06-23T08:03:09.000Z</time>
      </trkpt>
      <trkpt lat="43.25576" lon="2.45384">
        <ele>177.6</ele>
        <time>2019-06-23T08:03:10.000Z</time>
      </trkpt>
      <trkpt lat="43.25574" lon="2.45381">
        <ele>177.4</ele>
        <time>2019-06-23T08:03:11.000Z</time>
      </trkpt>
      <trkpt lat="43.25572" lon="2.45379">
        <ele>177.2</ele>
        <time>2019-06-23T08:03:12.000Z</time>
      </trkpt>
      <trkpt lat="43.2557" lon="2.45376">
        <ele>177</ele>
        <time>2019-06-23T08:03:13.000Z</time>
      </trkpt>
      <trkpt lat="43.25568" lon="2.45374">
        <ele>176.8</ele>
        <time>2019-06-23T08:03:14.000Z</time>
      </trkpt>
      <trkpt lat="43.25566" lon="2.45371">
        <ele>176.6</ele>
        <time>2019-06-23T08:03:15.000Z</time>
      </trkpt>
      <trkpt lat="43.25565" lon="2.45368">
        <ele>176.4</ele>
        <time>2019-06-23T08:03:16.000Z</time>
      </trkpt>
      <trkpt lat="43.25564" lon="2.45365">
        <ele>176.2</ele>
        <time>2019-06-23T08:03:17.000Z</time>
      </trkpt>
      <trkpt lat="43.25562" lon="2.45362">
        <ele>175.9</ele>
        <time>2019-06-23T08:03:18.000Z</time>
      </trkpt>
      <trkpt lat="43.25561" lon="2.45359">
        <ele>175.7</ele>
        <time>2019-06-23T08:03:19.000Z</time>
      </trkpt>
      <trkpt lat="43.2556" lon="2.45356">
        <ele>175.4</ele>
        <time>2019-06-23T08:03:20.000Z</time>
      </trkpt>
      <trkpt lat="43.25559" lon="2.45353">
        <ele>175.2</ele>
        <time>2019-06-23T08:03:21.000Z</time>
      </trkpt>
      <trkpt lat="43.25557" lon="2.4535">
        <ele>175</ele>
        <time>2019-06-23T08:03:22.000Z</time>
      </trkpt>
      <trkpt lat="43.25556" lon="2.45348">
        <ele>174.7</ele>
        <time>2019-06-23T08:03:23.000Z</time>
      </trkpt>
      <trkpt lat="43.25555" lon="2.45345">
        <ele>174.6</ele>
        <time>2019-06-23T08:03:24.000Z</time>
      </trkpt>
      <trkpt lat="43.25554" lon="2.45343">
        <ele>174.4</ele>
        <time>2019-06-23T08:03:25.000Z</time>
      </trkpt>
      <trkpt lat="43.25553" lon="2.4534">
        <ele>174.1</ele>
        <time>2019-06-23T08:03:26.000Z</time>
      </trkpt>
      <trkpt lat="43.25552" lon="2.45337">
        <ele>173.9</ele>
        <time>2019-06-23T08:03:27.000Z</time>
      </trkpt>
      <trkpt lat="43.25551" lon="2.45334">
        <ele>173.7</ele>
        <time>2019-06-23T08:03:28.000Z</time>
      </trkpt>
      <trkpt lat="43.25551" lon="2.45331">
        <ele>173.6</ele>
        <time>2019-06-23T08:03:29.000Z</time>
      </trkpt>
      <trkpt lat="43.2555" lon="2.45328">
        <ele>173.6</ele>
        <time>2019-06-23T08:03:30.000Z</time>
      </trkpt>
      <trkpt lat="43.25549" lon="2.45325">
        <ele>173.5</ele>
        <time>2019-06-23T08:03:31.000Z</time>
      </trkpt>
      <trkpt lat="43.25548" lon="2.45321">
        <ele>173.5</ele>
        <time>2019-06-23T08:03:32.000Z</time>
      </trkpt>
      <trkpt lat="43.25547" lon="2.45318">
        <ele>173.4</ele>
        <time>2019-06-23T08:03:33.000Z</time>
      </trkpt>
      <trkpt lat="43.25546" lon="2.45315">
        <ele>173.4</ele>
        <time>2019-06-23T08:03:34.000Z</time>
      </trkpt>
      <trkpt lat="43.25545" lon="2.45311">
        <ele>173.3</ele>
        <time>2019-06-23T08:03:35.000Z</time>
      </trkpt>
      <trkpt lat="43.25544" lon="2.45308">
        <ele>173.3</ele>
        <time>2019-06-23T08:03:36.000Z</time>
      </trkpt>
      <trkpt lat="43.25543" lon="2.45305">
        <ele>173.2</ele>
        <time>2019-06-23T08:03:37.000Z</time>
      </trkpt>
      <trkpt lat="43.25542" lon="2.45301">
        <ele>173.1</ele>
        <time>2019-06-23T08:03:38.000Z</time>
      </trkpt>
      <trkpt lat="43.25541" lon="2.45298">
        <ele>173</ele>
        <time>2019-06-23T08:03:39.000Z</time>
      </trkpt>
      <trkpt lat="43.2554" lon="2.45294">
        <ele>173</ele>
        <time>2019-06-23T08:03:40.000Z</time>
      </trkpt>
      <trkpt lat="43.25539" lon="2.45291">
        <ele>172.9</ele>
        <time>2019-06-23T08:03:41.000Z</time>
      </trkpt>
      <trkpt lat="43.25538" lon="2.45288">
        <ele>172.8</ele>
        <time>2019-06-23T08:03:42.000Z</time>
      </trkpt>
      <trkpt lat="43.25537" lon="2.45284">
        <ele>172.7</ele>
        <time>2019-06-23T08:03:43.000Z</time>
      </trkpt>
      <trkpt lat="43.25535" lon="2.45281">
        <ele>172.6</ele>
        <time>2019-06-23T08:03:44.000Z</time>
      </trkpt>
      <trkpt lat="43.25534" lon="2.45278">
        <ele>172.5</ele>
        <time>2019-06-23T08:03:45.000Z</time>
      </trkpt>
      <trkpt lat="43.25533" lon="2.45274">
        <ele>172.4</ele>
        <time>2019-06-23T08:03:46.000Z</time>
      </trkpt>
      <trkpt lat="43.25532" lon="2.45271">
        <ele>172.3</ele>
        <time>2019-06-23T08:03:47.000Z</time>
      </trkpt>
      <trkpt lat="43.25531" lon="2.45268">
        <ele>172.2</ele>
        <time>2019-06-23T08:03:48.000Z</time>
      </trkpt>
      <trkpt lat="43.2553" lon="2.45265">
        <ele>172.1</ele>
        <time>2019-06-23T08:03:49.000Z</time>
      </trkpt>
      <trkpt lat="43.25529" lon="2.45261">
        <ele>172</ele>
        <time>2019-06-23T08:03:50.000Z</time>
      </trkpt>
      <trkpt lat="43.25528" lon="2.45258">
        <ele>171.8</ele>
        <time>2019-06-23T08:03:51.000Z</time>
      </trkpt>
      <trkpt lat="43.25527" lon="2.45255">
        <ele>171.7</ele>
        <time>2019-06-23T08:03:52.000Z</time>
      </trkpt>
      <trkpt lat="43.25525" lon="2.45252">
        <ele>171.6</ele>
        <time>2019-06-23T08:03:53.000Z</time>
      </trkpt>
      <trkpt lat="43.25524" lon="2.45248">
        <ele>171.4</ele>
        <time>2019-06-23T08:03:54.000Z</time>
      </trkpt>
      <trkpt lat="43.25523" lon="2.45245">
        <ele>171.4</ele>
        <time>2019-06-23T08:03:55.000Z</time>
      </trkpt>
      <trkpt lat="43.25521" lon="2.45242">
        <ele>171.3</ele>
        <time>2019-06-23T08:03:56.000Z</time>
      </trkpt>
      <trkpt lat="43.2552" lon="2.45239">
        <ele>171.2</ele>
        <time>2019-06-23T08:03:57.000Z</time>
      </trkpt>
      <trkpt lat="43.25518" lon="2.45236">
        <ele>171.1</ele>
        <time>2019-06-23T08:03:58.000Z</time>
      </trkpt>
      <trkpt lat="43.25517" lon="2.45233">
        <ele>171</ele>
        <time>2019-06-23T08:03:59.000Z</time>
      </trkpt>
      <trkpt lat="43.25515" lon="2.45229">
        <ele>170.9</ele>
        <time>2019-06-23T08:04:00.000Z</time>
      </trkpt>
      <trkpt lat="43.25514" lon="2.45226">
        <ele>170.7</ele>
        <time>2019-06-23T08:04:01.000Z</time>
      </trkpt>
      <trkpt lat="43.25513" lon="2.45223">
        <ele>170.6</ele>
        <time>2019-06-23T08:04:02.000Z</time>
      </trkpt>
      <trkpt lat="43.25511" lon="2.45219">
        <ele>170.5</ele>
        <time>2019-06-23T08:04:03.000Z</time>
      </trkpt>
      <trkpt lat="43.2551" lon="2.45216">
        <ele>170.4</ele>
        <time>2019-06-23T08:04:04.000Z</time>
      </trkpt>
      <trkpt lat="43.25509" lon="2.45213">
        <ele>170.3</ele>
        <time>2019-06-23T08:04:05.000Z</time>
      </trkpt>
      <trkpt lat="43.25508" lon="2.45209">
        <ele>170.1</ele>
        <time>2019-06-23T08:04:06.000Z</time>
      </trkpt>
      <trkpt lat="43.25507" lon="2.45206">
        <ele>170</ele>
        <time>2019-06-23T08:04:07.000Z</time>
      </trkpt>
      <trkpt lat="43.25506" lon="2.45203">
        <ele>169.9</ele>
        <time>2019-06-23T08:04:08.000Z</time>
      </trkpt>
      <trkpt lat="43.25505" lon="2.452">
        <ele>169.8</ele>
        <time>2019-06-23T08:04:09.000Z</time>
      </trkpt>
      <trkpt lat="43.25504" lon="2.45197">
        <ele>169.8</ele>
        <time>2019-06-23T08:04:10.000Z</time>
      </trkpt>
      <trkpt lat="43.25504" lon="2.45194">
        <ele>169.7</ele>
        <time>2019-06-23T08:04:11.000Z</time>
      </trkpt>
      <trkpt lat="43.25504" lon="2.45192">
        <ele>169.7</ele>
        <time>2019-06-23T08:04:12.000Z</time>
      </trkpt>
      <trkpt lat="43.25504" lon="2.4519">
        <ele>169.6</ele>
        <time>2019-06-23T08:04:13.000Z</time>
      </trkpt>
      <trkpt lat="43.25504" lon="2.45189">
        <ele>169.6</ele>
        <time>2019-06-23T08:04:14.000Z</time>
      </trkpt>
      <trkpt lat="43.25504" lon="2.45187">
        <ele>169.6</ele>
        <time>2019-06-23T08:04:15.000Z</time>
      </trkpt>
      <trkpt lat="43.25504" lon="2.45186">
        <ele>169.6</ele>
        <time>2019-06-23T08:04:16.000Z</time>
      </trkpt>
      <trkpt lat="43.25504" lon="2.45185">
        <ele>169.6</ele>
        <time>2019-06-23T08:04:17.000Z</time>
      </trkpt>
      <trkpt lat="43.25504" lon="2.45184">
        <ele>169.6</ele>
        <time>2019-06-23T08:04:18.000Z</time>
      </trkpt>
      <trkpt lat="43.25504" lon="2.45183">
        <ele>169.6</ele>
        <time>2019-06-23T08:04:19.000Z</time>
      </trkpt>
      <trkpt lat="43.25503" lon="2.45181">
        <ele>169.5</ele>
        <time>2019-06-23T08:04:20.000Z</time>
      </trkpt>
      <trkpt lat="43.25503" lon="2.4518">
        <ele>169.4</ele>
        <time>2019-06-23T08:04:21.000Z</time>
      </trkpt>
      <trkpt lat="43.25502" lon="2.45179">
        <ele>169.4</ele>
        <time>2019-06-23T08:04:22.000Z</time>
      </trkpt>
      <trkpt lat="43.25502" lon="2.45177">
        <ele>169.3</ele>
        <time>2019-06-23T08:04:23.000Z</time>
      </trkpt>
      <trkpt lat="43.25501" lon="2.45176">
        <ele>169.2</ele>
        <time>2019-06-23T08:04:24.000Z</time>
      </trkpt>
      <trkpt lat="43.25501" lon="2.45174">
        <ele>169.2</ele>
        <time>2019-06-23T08:04:25.000Z</time>
      </trkpt>
      <trkpt lat="43.255" lon="2.45172">
        <ele>169.1</ele>
        <time>2019-06-23T08:04:26.000Z</time>
      </trkpt>
      <trkpt lat="43.255" lon="2.4517">
        <ele>169</ele>
        <time>2019-06-23T08:04:27.000Z</time>
      </trkpt>
      <trkpt lat="43.255" lon="2.45168">
        <ele>169</ele>
        <time>2019-06-23T08:04:28.000Z</time>
      </trkpt>
      <trkpt lat="43.255" lon="2.45166">
        <ele>169</ele>
        <time>2019-06-23T08:04:29.000Z</time>
      </trkpt>
      <trkpt lat="43.255" lon="2.45163">
        <ele>168.9</ele>
        <time>2019-06-23T08:04:30.000Z</time>
      </trkpt>
      <trkpt lat="43.25501" lon="2.45161">
        <ele>168.8</ele>
        <time>2019-06-23T08:04:31.000Z</time>
      </trkpt>
      <trkpt lat="43.25501" lon="2.45158">
        <ele>168.8</ele>
        <time>2019-06-23T08:04:32.000Z</time>
      </trkpt>
      <trkpt lat="43.25501" lon="2.45155">
        <ele>168.7</ele>
        <time>2019-06-23T08:04:33.000Z</time>
      </trkpt>
      <trkpt lat="43.25501" lon="2.45152">
        <ele>168.6</ele>
        <time>2019-06-23T08:04:34.000Z</time>
      </trkpt>
      <trkpt lat="43.25501" lon="2.45149">
        <ele>168.5</ele>
        <time>2019-06-23T08:04:35.000Z</time>
      </trkpt>
      <trkpt lat="43.25501" lon="2.45146">
        <ele>168.4</ele>
        <time>2019-06-23T08:04:36.000Z</time>
      </trkpt>
      <trkpt lat="43.25501" lon="2.45143">
        <ele>168.3</ele>
        <time>2019-06-23T08:04:37.000Z</time>
      </trkpt>
      <trkpt lat="43.25501" lon="2.45139">
        <ele>168.1</ele>
        <time>2019-06-23T08:04:38.000Z</time>
      </trkpt>
      <trkpt lat="43.25501" lon="2.45136">
        <ele>168</ele>
        <time>2019-06-23T08:04:39.000Z</time>
      </trkpt>
      <trkpt lat="43.25501" lon="2.45133">
        <ele>167.9</ele>
        <time>2019-06-23T08:04:40.000Z</time>
      </trkpt>
      <trkpt lat="43.25501" lon="2.45129">
        <ele>167.8</ele>
        <time>2019-06-23T08:04:41.000Z</time>
      </trkpt>
      <trkpt lat="43.25501" lon="2.45126">
        <ele>167.6</ele>
        <time>2019-06-23T08:04:42.000Z</time>
      </trkpt>
      <trkpt lat="43.25501" lon="2.45122">
        <ele>167.5</ele>
        <time>2019-06-23T08:04:43.000Z</time>
      </trkpt>
      <trkpt lat="43.25501" lon="2.45119">
        <ele>167.4</ele>
        <time>2019-06-23T08:04:44.000Z</time>
      </trkpt>
      <trkpt lat="43.25502" lon="2.45115">
        <ele>167.3</ele>
        <time>2019-06-23T08:04:45.000Z</time>
      </trkpt>
      <trkpt lat="43.25502" lon="2.45111">
        <ele>167.2</ele>
        <time>2019-06-23T08:04:46.000Z</time>
      </trkpt>
      <trkpt lat="43.25502" lon="2.45108">
        <ele>167.1</ele>
        <time>2019-06-23T08:04:47.000Z</time>
      </trkpt>
      <trkpt lat="43.25503" lon="2.45104">
        <ele>167</ele>
        <time>2019-06-23T08:04:48.000Z</time>
      </trkpt>
      <trkpt lat="43.25503" lon="2.451">
        <ele>166.9</ele>
        <time>2019-06-23T08:04:49.000Z</time>
      </trkpt>
      <trkpt lat="43.25504" lon="2.45097">
        <ele>166.9</ele>
        <time>2019-06-23T08:04:50.000Z</time>
      </trkpt>
      <trkpt lat="43.25504" lon="2.45093">
        <ele>166.8</ele>
        <time>2019-06-23T08:04:51.000Z</time>
      </trkpt>
      <trkpt lat="43.25504" lon="2.4509">
        <ele>166.7</ele>
        <time>2019-06-23T08:04:52.000Z</time>
      </trkpt>
      <trkpt lat="43.25505" lon="2.45086">
        <ele>166.6</ele>
        <time>2019-06-23T08:04:53.000Z</time>
      </trkpt>
      <trkpt lat="43.25505" lon="2.45082">
        <ele>166.5</ele>
        <time>2019-06-23T08:04:54.000Z</time>
      </trkpt>
      <trkpt lat="43.25506" lon="2.45079">
        <ele>166.4</ele>
        <time>2019-06-23T08:04:55.000Z</time>
      </trkpt>
      <trkpt lat="43.25506" lon="2.45075">
        <ele>166.3</ele>
        <time>2019-06-23T08:04:56.000Z</time>
      </trkpt>
      <trkpt lat="43.25506" lon="2.45072">
        <ele>166.2</ele>
        <time>2019-06-23T08:04:57.000Z</time>
      </trkpt>
      <trkpt lat="43.25507" lon="2.45069">
        <ele>166.1</ele>
        <time>2019-06-23T08:04:58.000Z</time>
      </trkpt>
      <trkpt lat="43.25507" lon="2.45065">
        <ele>166</ele>
        <time>2019-06-23T08:04:59.000Z</time>
      </trkpt>
      <trkpt lat="43.25507" lon="2.45062">
        <ele>165.9</ele>
        <time>2019-06-23T08:05:00.000Z</time>
      </trkpt>
      <trkpt lat="43.25507" lon="2.45059">
        <ele>165.8</ele>
        <time>2019-06-23T08:05:01.000Z</time>
      </trkpt>
      <trkpt lat="43.25507" lon="2.45055">
        <ele>165.7</ele>
        <time>2019-06-23T08:05:02.000Z</time>
      </trkpt>
      <trkpt lat="43.25507" lon="2.45052">
        <ele>165.5</ele>
        <time>2019-06-23T08:05:03.000Z</time>
      </trkpt>
      <trkpt lat="43.25507" lon="2.45048">
        <ele>165.4</ele>
        <time>2019-06-23T08:05:04.000Z</time>
      </trkpt>
      <trkpt lat="43.25507" lon="2.45045">
        <ele>165.2</ele>
        <time>2019-06-23T08:05:05.000Z</time>
      </trkpt>
      <trkpt lat="43.25507" lon="2.45041">
        <ele>165</ele>
        <time>2019-06-23T08:05:06.000Z</time>
      </trkpt>
      <trkpt lat="43.25506" lon="2.45037">
        <ele>164.9</ele>
        <time>2019-06-23T08:05:07.000Z</time>
      </trkpt>
      <trkpt lat="43.25506" lon="2.45034">
        <ele>164.7</ele>
        <time>2019-06-23T08:05:08.000Z</time>
      </trkpt>
      <trkpt lat="43.25505" lon="2.4503">
        <ele>164.5</ele>
        <time>2019-06-23T08:05:09.000Z</time>
      </trkpt>
      <trkpt lat="43.25505" lon="2.45027">
        <ele>164.3</ele>
        <time>2019-06-23T08:05:10.000Z</time>
      </trkpt>
      <trkpt lat="43.25504" lon="2.45023">
        <ele>164.1</ele>
        <time>2019-06-23T08:05:11.000Z</time>
      </trkpt>
      <trkpt lat="43.25504" lon="2.4502">
        <ele>164</ele>
        <time>2019-06-23T08:05:12.000Z</time>
      </trkpt>
      <trkpt lat="43.25503" lon="2.45017">
        <ele>163.8</ele>
        <time>2019-06-23T08:05:13.000Z</time>
      </trkpt>
      <trkpt lat="43.25503" lon="2.45015">
        <ele>163.7</ele>
        <time>2019-06-23T08:05:14.000Z</time>
      </trkpt>
      <trkpt lat="43.25502" lon="2.45012">
        <ele>163.6</ele>
        <time>2019-06-23T08:05:15.000Z</time>
      </trkpt>
      <trkpt lat="43.25502" lon="2.4501">
        <ele>163.5</ele>
        <time>2019-06-23T08:05:16.000Z</time>
      </trkpt>
      <trkpt lat="43.25502" lon="2.45008">
        <ele>163.4</ele>
        <time>2019-06-23T08:05:17.000Z</time>
      </trkpt>
      <trkpt lat="43.25502" lon="2.45006">
        <ele>163.3</ele>
        <time>2019-06-23T08:05:18.000Z</time>
      </trkpt>
      <trkpt lat="43.25502" lon="2.45004">
        <ele>163.2</ele>
        <time>2019-06-23T08:05:19.000Z</time>
      </trkpt>
      <trkpt lat="43.25502" lon="2.45002">
        <ele>163.2</ele>
        <time>2019-06-23T08:05:20.000Z</time>
      </trkpt>
      <trkpt lat="43.25502" lon="2.44999">
        <ele>163.1</ele>
        <time>2019-06-23T08:05:21.000Z</time>
      </trkpt>
      <trkpt lat="43.25502" lon="2.44997">
        <ele>163</ele>
        <time>2019-06-23T08:05:22.000Z</time>
      </trkpt>
      <trkpt lat="43.25502" lon="2.44994">
        <ele>162.9</ele>
        <time>2019-06-23T08:05:23.000Z</time>
      </trkpt>
      <trkpt lat="43.25503" lon="2.4499">
        <ele>162.8</ele>
        <time>2019-06-23T08:05:24.000Z</time>
      </trkpt>
      <trkpt lat="43.25503" lon="2.44987">
        <ele>162.7</ele>
        <time>2019-06-23T08:05:25.000Z</time>
      </trkpt>
      <trkpt lat="43.25504" lon="2.44984">
        <ele>162.6</ele>
        <time>2019-06-23T08:05:26.000Z</time>
      </trkpt>
      <trkpt lat="43.25504" lon="2.4498">
        <ele>162.4</ele>
        <time>2019-06-23T08:05:27.000Z</time>
      </trkpt>
      <trkpt lat="43.25505" lon="2.44977">
        <ele>162.3</ele>
        <time>2019-06-23T08:05:28.000Z</time>
      </trkpt>
      <trkpt lat="43.25505" lon="2.44973">
        <ele>162.2</ele>
        <time>2019-06-23T08:05:29.000Z</time>
      </trkpt>
      <trkpt lat="43.25506" lon="2.4497">
        <ele>162.1</ele>
        <time>2019-06-23T08:05:30.000Z</time>
      </trkpt>
      <trkpt lat="43.25506" lon="2.44967">
        <ele>162</ele>
        <time>2019-06-23T08:05:31.000Z</time>
      </trkpt>
      <trkpt lat="43.25507" lon="2.44963">
        <ele>161.8</ele>
        <time>2019-06-23T08:05:32.000Z</time>
      </trkpt>
      <trkpt lat="43.25507" lon="2.4496">
        <ele>161.7</ele>
        <time>2019-06-23T08:05:33.000Z</time>
      </trkpt>
      <trkpt lat="43.25508" lon="2.44957">
        <ele>161.6</ele>
        <time>2019-06-23T08:05:34.000Z</time>
      </trkpt>
      <trkpt lat="43.25508" lon="2.44953">
        <ele>161.4</ele>
        <time>2019-06-23T08:05:35.000Z</time>
      </trkpt>
      <trkpt lat="43.25509" lon="2.4495">
        <ele>161.3</ele>
        <time>2019-06-23T08:05:36.000Z</time>
      </trkpt>
      <trkpt lat="43.25509" lon="2.44947">
        <ele>161.1</ele>
        <time>2019-06-23T08:05:37.000Z</time>
      </trkpt>
      <trkpt lat="43.2551" lon="2.44943">
        <ele>161</ele>
        <time>2019-06-23T08:05:38.000Z</time>
      </trkpt>
      <trkpt lat="43.2551" lon="2.4494">
        <ele>160.8</ele>
        <time>2019-06-23T08:05:39.000Z</time>
      </trkpt>
      <trkpt lat="43.25511" lon="2.44937">
        <ele>160.7</ele>
        <time>2019-06-23T08:05:40.000Z</time>
      </trkpt>
      <trkpt lat="43.25511" lon="2.44933">
        <ele>160.5</ele>
        <time>2019-06-23T08:05:41.000Z</time>
      </trkpt>
      <trkpt lat="43.25511" lon="2.4493">
        <ele>160.4</ele>
        <time>2019-06-23T08:05:42.000Z</time>
      </trkpt>
      <trkpt lat="43.25511" lon="2.44926">
        <ele>160.2</ele>
        <time>2019-06-23T08:05:43.000Z</time>
      </trkpt>
      <trkpt lat="43.25511" lon="2.44923">
        <ele>160</ele>
        <time>2019-06-23T08:05:44.000Z</time>
      </trkpt>
      <trkpt lat="43.25511" lon="2.44919">
        <ele>159.8</ele>
        <time>2019-06-23T08:05:45.000Z</time>
      </trkpt>
      <trkpt lat="43.25511" lon="2.44915">
        <ele>159.6</ele>
        <time>2019-06-23T08:05:46.000Z</time>
      </trkpt>
      <trkpt lat="43.25511" lon="2.44912">
        <ele>159.4</ele>
        <time>2019-06-23T08:05:47.000Z</time>
      </trkpt>
      <trkpt lat="43.25511" lon="2.44908">
        <ele>159.1</ele>
        <time>2019-06-23T08:05:48.000Z</time>
      </trkpt>
      <trkpt lat="43.25511" lon="2.44904">
        <ele>158.9</ele>
        <time>2019-06-23T08:05:49.000Z</time>
      </trkpt>
      <trkpt lat="43.25511" lon="2.449">
        <ele>158.6</ele>
        <time>2019-06-23T08:05:50.000Z</time>
      </trkpt>
      <trkpt lat="43.25511" lon="2.44896">
        <ele>158.4</ele>
        <time>2019-06-23T08:05:51.000Z</time>
      </trkpt>
      <trkpt lat="43.25511" lon="2.44892">
        <ele>158.1</ele>
        <time>2019-06-23T08:05:52.000Z</time>
      </trkpt>
      <trkpt lat="43.25511" lon="2.44888">
        <ele>157.8</ele>
        <time>2019-06-23T08:05:53.000Z</time>
      </trkpt>
      <trkpt lat="43.25511" lon="2.44884">
        <ele>157.5</ele>
        <time>2019-06-23T08:05:54.000Z</time>
      </trkpt>
      <trkpt lat="43.25511" lon="2.4488">
        <ele>157.3</ele>
        <time>2019-06-23T08:05:55.000Z</time>
      </trkpt>
      <trkpt lat="43.25511" lon="2.44876">
        <ele>157</ele>
        <time>2019-06-23T08:05:56.000Z</time>
      </trkpt>
      <trkpt lat="43.25511" lon="2.44872">
        <ele>156.7</ele>
        <time>2019-06-23T08:05:57.000Z</time>
      </trkpt>
      <trkpt lat="43.25511" lon="2.44868">
        <ele>156.5</ele>
        <time>2019-06-23T08:05:58.000Z</time>
      </trkpt>
      <trkpt lat="43.25511" lon="2.44864">
        <ele>156.2</ele>
        <time>2019-06-23T08:05:59.000Z</time>
      </trkpt>
      <trkpt lat="43.25511" lon="2.44861">
        <ele>155.9</ele>
        <time>2019-06-23T08:06:00.000Z</time>
      </trkpt>
      <trkpt lat="43.25511" lon="2.44857">
        <ele>155.7</ele>
        <time>2019-06-23T08:06:01.000Z</time>
      </trkpt>
      <trkpt lat="43.25511" lon="2.44853">
        <ele>155.4</ele>
        <time>2019-06-23T08:06:02.000Z</time>
      </trkpt>
      <trkpt lat="43.25511" lon="2.44849">
        <ele>155.2</ele>
        <time>2019-06-23T08:06:03.000Z</time>
      </trkpt>
      <trkpt lat="43.2551" lon="2.44845">
        <ele>154.9</ele>
        <time>2019-06-23T08:06:04.000Z</time>
      </trkpt>
      <trkpt lat="43.2551" lon="2.44841">
        <ele>154.7</ele>
        <time>2019-06-23T08:06:05.000Z</time>
      </trkpt>
      <trkpt lat="43.2551" lon="2.44838">
        <ele>154.4</ele>
        <time>2019-06-23T08:06:06.000Z</time>
      </trkpt>
      <trkpt lat="43.2551" lon="2.44834">
        <ele>154.2</ele>
        <time>2019-06-23T08:06:07.000Z</time>
      </trkpt>
      <trkpt lat="43.2551" lon="2.4483">
        <ele>154</ele>
        <time>2019-06-23T08:06:08.000Z</time>
      </trkpt>
      <trkpt lat="43.2551" lon="2.44826">
        <ele>153.8</ele>
        <time>2019-06-23T08:06:09.000Z</time>
      </trkpt>
      <trkpt lat="43.25509" lon="2.44823">
        <ele>153.6</ele>
        <time>2019-06-23T08:06:10.000Z</time>
      </trkpt>
      <trkpt lat="43.25509" lon="2.44819">
        <ele>153.5</ele>
        <time>2019-06-23T08:06:11.000Z</time>
      </trkpt>
      <trkpt lat="43.25509" lon="2.44815">
        <ele>153.3</ele>
        <time>2019-06-23T08:06:12.000Z</time>
      </trkpt>
      <trkpt lat="43.25509" lon="2.44811">
        <ele>153.1</ele>
        <time>2019-06-23T08:06:13.000Z</time>
      </trkpt>
      <trkpt lat="43.25509" lon="2.44807">
        <ele>152.9</ele>
        <time>2019-06-23T08:06:14.000Z</time>
      </trkpt>
      <trkpt lat="43.25509" lon="2.44804">
        <ele>152.7</ele>
        <time>2019-06-23T08:06:15.000Z</time>
      </trkpt>
      <trkpt lat="43.25509" lon="2.448">
        <ele>152.5</ele>
        <time>2019-06-23T08:06:16.000Z</time>
      </trkpt>
      <trkpt lat="43.25509" lon="2.44796">
        <ele>152.3</ele>
        <time>2019-06-23T08:06:17.000Z</time>
      </trkpt>
      <trkpt lat="43.25509" lon="2.44792">
        <ele>152.1</ele>
        <time>2019-06-23T08:06:18.000Z</time>
      </trkpt>
      <trkpt lat="43.25509" lon="2.44788">
        <ele>151.9</ele>
        <time>2019-06-23T08:06:19.000Z</time>
      </trkpt>
      <trkpt lat="43.25509" lon="2.44784">
        <ele>151.7</ele>
        <time>2019-06-23T08:06:20.000Z</time>
      </trkpt>
      <trkpt lat="43.25509" lon="2.44781">
        <ele>151.5</ele>
        <time>2019-06-23T08:06:21.000Z</time>
      </trkpt>
      <trkpt lat="43.25509" lon="2.44777">
        <ele>151.3</ele>
        <time>2019-06-23T08:06:22.000Z</time>
      </trkpt>
      <trkpt lat="43.25509" lon="2.44773">
        <ele>151.1</ele>
        <time>2019-06-23T08:06:23.000Z</time>
      </trkpt>
      <trkpt lat="43.25509" lon="2.44769">
        <ele>151</ele>
        <time>2019-06-23T08:06:24.000Z</time>
      </trkpt>
      <trkpt lat="43.25508" lon="2.44765">
        <ele>150.8</ele>
        <time>2019-06-23T08:06:25.000Z</time>
      </trkpt>
      <trkpt lat="43.25508" lon="2.44761">
        <ele>150.6</ele>
        <time>2019-06-23T08:06:26.000Z</time>
      </trkpt>
      <trkpt lat="43.25508" lon="2.44757">
        <ele>150.4</ele>
        <time>2019-06-23T08:06:27.000Z</time>
      </trkpt>
      <trkpt lat="43.25507" lon="2.44753">
        <ele>150.3</ele>
        <time>2019-06-23T08:06:28.000Z</time>
      </trkpt>
      <trkpt lat="43.25507" lon="2.44749">
        <ele>150.1</ele>
        <time>2019-06-23T08:06:29.000Z</time>
      </trkpt>
      <trkpt lat="43.25506" lon="2.44745">
        <ele>150.1</ele>
        <time>2019-06-23T08:06:30.000Z</time>
      </trkpt>
      <trkpt lat="43.25506" lon="2.44742">
        <ele>150</ele>
        <time>2019-06-23T08:06:31.000Z</time>
      </trkpt>
      <trkpt lat="43.25505" lon="2.44738">
        <ele>149.9</ele>
        <time>2019-06-23T08:06:32.000Z</time>
      </trkpt>
      <trkpt lat="43.25504" lon="2.44734">
        <ele>149.9</ele>
        <time>2019-06-23T08:06:33.000Z</time>
      </trkpt>
      <trkpt lat="43.25504" lon="2.4473">
        <ele>149.8</ele>
        <time>2019-06-23T08:06:34.000Z</time>
      </trkpt>
      <trkpt lat="43.25503" lon="2.44726">
        <ele>149.8</ele>
        <time>2019-06-23T08:06:35.000Z</time>
      </trkpt>
      <trkpt lat="43.25502" lon="2.44722">
        <ele>149.7</ele>
        <time>2019-06-23T08:06:36.000Z</time>
      </trkpt>
      <trkpt lat="43.25502" lon="2.44719">
        <ele>149.7</ele>
        <time>2019-06-23T08:06:37.000Z</time>
      </trkpt>
      <trkpt lat="43.25501" lon="2.44715">
        <ele>149.6</ele>
        <time>2019-06-23T08:06:38.000Z</time>
      </trkpt>
      <trkpt lat="43.255" lon="2.44711">
        <ele>149.6</ele>
        <time>2019-06-23T08:06:39.000Z</time>
      </trkpt>
      <trkpt lat="43.255" lon="2.44708">
        <ele>149.5</ele>
        <time>2019-06-23T08:06:40.000Z</time>
      </trkpt>
      <trkpt lat="43.25499" lon="2.44704">
        <ele>149.4</ele>
        <time>2019-06-23T08:06:41.000Z</time>
      </trkpt>
      <trkpt lat="43.25499" lon="2.447">
        <ele>149.3</ele>
        <time>2019-06-23T08:06:42.000Z</time>
      </trkpt>
      <trkpt lat="43.25498" lon="2.44696">
        <ele>149.2</ele>
        <time>2019-06-23T08:06:43.000Z</time>
      </trkpt>
      <trkpt lat="43.25498" lon="2.44693">
        <ele>149</ele>
        <time>2019-06-23T08:06:44.000Z</time>
      </trkpt>
      <trkpt lat="43.25497" lon="2.44689">
        <ele>148.9</ele>
        <time>2019-06-23T08:06:45.000Z</time>
      </trkpt>
      <trkpt lat="43.25497" lon="2.44685">
        <ele>148.8</ele>
        <time>2019-06-23T08:06:46.000Z</time>
      </trkpt>
      <trkpt lat="43.25496" lon="2.44681">
        <ele>148.7</ele>
        <time>2019-06-23T08:06:47.000Z</time>
      </trkpt>
      <trkpt lat="43.25496" lon="2.44678">
        <ele>148.6</ele>
        <time>2019-06-23T08:06:48.000Z</time>
      </trkpt>
      <trkpt lat="43.25495" lon="2.44674">
        <ele>148.4</ele>
        <time>2019-06-23T08:06:49.000Z</time>
      </trkpt>
      <trkpt lat="43.25495" lon="2.4467">
        <ele>148.3</ele>
        <time>2019-06-23T08:06:50.000Z</time>
      </trkpt>
      <trkpt lat="43.25494" lon="2.44666">
        <ele>148.2</ele>
        <time>2019-06-23T08:06:51.000Z</time>
      </trkpt>
      <trkpt lat="43.25493" lon="2.44662">
        <ele>147.9</ele>
        <time>2019-06-23T08:06:52.000Z</time>
      </trkpt>
      <trkpt lat="43.25493" lon="2.44659">
        <ele>147.7</ele>
        <time>2019-06-23T08:06:53.000Z</time>
      </trkpt>
      <trkpt lat="43.25492" lon="2.44655">
        <ele>147.4</ele>
        <time>2019-06-23T08:06:54.000Z</time>
      </trkpt>
      <trkpt lat="43.25491" lon="2.44651">
        <ele>147.2</ele>
        <time>2019-06-23T08:06:55.000Z</time>
      </trkpt>
      <trkpt lat="43.2549" lon="2.44648">
        <ele>147</ele>
        <time>2019-06-23T08:06:56.000Z</time>
      </trkpt>
      <trkpt lat="43.25488" lon="2.44645">
        <ele>146.8</ele>
        <time>2019-06-23T08:06:57.000Z</time>
      </trkpt>
      <trkpt lat="43.25487" lon="2.44641">
        <ele>146.5</ele>
        <time>2019-06-23T08:06:58.000Z</time>
      </trkpt>
      <trkpt lat="43.25486" lon="2.44638">
        <ele>146.4</ele>
        <time>2019-06-23T08:06:59.000Z</time>
      </trkpt>
      <trkpt lat="43.25484" lon="2.44635">
        <ele>146.2</ele>
        <time>2019-06-23T08:07:00.000Z</time>
      </trkpt>
      <trkpt lat="43.25482" lon="2.44632">
        <ele>146</ele>
        <time>2019-06-23T08:07:01.000Z</time>
      </trkpt>
      <trkpt lat="43.2548" lon="2.4463">
        <ele>145.8</ele>
        <time>2019-06-23T08:07:02.000Z</time>
      </trkpt>
      <trkpt lat="43.25478" lon="2.44627">
        <ele>145.7</ele>
        <time>2019-06-23T08:07:03.000Z</time>
      </trkpt>
      <trkpt lat="43.25476" lon="2.44625">
        <ele>145.6</ele>
        <time>2019-06-23T08:07:04.000Z</time>
      </trkpt>
      <trkpt lat="43.25474" lon="2.44623">
        <ele>145.4</ele>
        <time>2019-06-23T08:07:05.000Z</time>
      </trkpt>
      <trkpt lat="43.25471" lon="2.44621">
        <ele>145.3</ele>
        <time>2019-06-23T08:07:06.000Z</time>
      </trkpt>
      <trkpt lat="43.25469" lon="2.44619">
        <ele>145.2</ele>
        <time>2019-06-23T08:07:07.000Z</time>
      </trkpt>
      <trkpt lat="43.25466" lon="2.44617">
        <ele>145.1</ele>
        <time>2019-06-23T08:07:08.000Z</time>
      </trkpt>
      <trkpt lat="43.25464" lon="2.44615">
        <ele>145.1</ele>
        <time>2019-06-23T08:07:09.000Z</time>
      </trkpt>
      <trkpt lat="43.25461" lon="2.44614">
        <ele>145</ele>
        <time>2019-06-23T08:07:10.000Z</time>
      </trkpt>
      <trkpt lat="43.25458" lon="2.44612">
        <ele>144.9</ele>
        <time>2019-06-23T08:07:11.000Z</time>
      </trkpt>
      <trkpt lat="43.25455" lon="2.44611">
        <ele>144.9</ele>
        <time>2019-06-23T08:07:12.000Z</time>
      </trkpt>
      <trkpt lat="43.25452" lon="2.44609">
        <ele>144.8</ele>
        <time>2019-06-23T08:07:13.000Z</time>
      </trkpt>
      <trkpt lat="43.25449" lon="2.44608">
        <ele>144.8</ele>
        <time>2019-06-23T08:07:14.000Z</time>
      </trkpt>
      <trkpt lat="43.25446" lon="2.44607">
        <ele>144.7</ele>
        <time>2019-06-23T08:07:15.000Z</time>
      </trkpt>
      <trkpt lat="43.25443" lon="2.44606">
        <ele>144.7</ele>
        <time>2019-06-23T08:07:16.000Z</time>
      </trkpt>
      <trkpt lat="43.2544" lon="2.44605">
        <ele>144.6</ele>
        <time>2019-06-23T08:07:17.000Z</time>
      </trkpt>
      <trkpt lat="43.25437" lon="2.44604">
        <ele>144.6</ele>
        <time>2019-06-23T08:07:18.000Z</time>
      </trkpt>
      <trkpt lat="43.25434" lon="2.44603">
        <ele>144.6</ele>
        <time>2019-06-23T08:07:19.000Z</time>
      </trkpt>
      <trkpt lat="43.25431" lon="2.44602">
        <ele>144.5</ele>
        <time>2019-06-23T08:07:20.000Z</time>
      </trkpt>
      <trkpt lat="43.25428" lon="2.44601">
        <ele>144.5</ele>
        <time>2019-06-23T08:07:21.000Z</time>
      </trkpt>
      <trkpt lat="43.25426" lon="2.446">
        <ele>144.4</ele>
        <time>2019-06-23T08:07:22.000Z</time>
      </trkpt>
      <trkpt lat="43.25423" lon="2.44598">
        <ele>144.3</ele>
        <time>2019-06-23T08:07:23.000Z</time>
      </trkpt>
      <trkpt lat="43.2542" lon="2.44597">
        <ele>144.2</ele>
        <time>2019-06-23T08:07:24.000Z</time>
      </trkpt>
      <trkpt lat="43.25417" lon="2.44595">
        <ele>144.1</ele>
        <time>2019-06-23T08:07:25.000Z</time>
      </trkpt>
      <trkpt lat="43.25415" lon="2.44593">
        <ele>143.9</ele>
        <time>2019-06-23T08:07:26.000Z</time>
      </trkpt>
      <trkpt lat="43.25412" lon="2.4459">
        <ele>143.7</ele>
        <time>2019-06-23T08:07:27.000Z</time>
      </trkpt>
      <trkpt lat="43.2541" lon="2.44588">
        <ele>143.6</ele>
        <time>2019-06-23T08:07:28.000Z</time>
      </trkpt>
      <trkpt lat="43.25407" lon="2.44586">
        <ele>143.4</ele>
        <time>2019-06-23T08:07:29.000Z</time>
      </trkpt>
      <trkpt lat="43.25405" lon="2.44584">
        <ele>143.2</ele>
        <time>2019-06-23T08:07:30.000Z</time>
      </trkpt>
      <trkpt lat="43.25402" lon="2.44582">
        <ele>143.1</ele>
        <time>2019-06-23T08:07:31.000Z</time>
      </trkpt>
      <trkpt lat="43.25399" lon="2.4458">
        <ele>142.9</ele>
        <time>2019-06-23T08:07:32.000Z</time>
      </trkpt>
      <trkpt lat="43.25397" lon="2.44578">
        <ele>142.8</ele>
        <time>2019-06-23T08:07:33.000Z</time>
      </trkpt>
      <trkpt lat="43.25394" lon="2.44577">
        <ele>142.8</ele>
        <time>2019-06-23T08:07:34.000Z</time>
      </trkpt>
      <trkpt lat="43.25392" lon="2.44575">
        <ele>142.7</ele>
        <time>2019-06-23T08:07:35.000Z</time>
      </trkpt>
      <trkpt lat="43.2539" lon="2.44573">
        <ele>142.6</ele>
        <time>2019-06-23T08:07:36.000Z</time>
      </trkpt>
      <trkpt lat="43.25387" lon="2.44571">
        <ele>142.5</ele>
        <time>2019-06-23T08:07:37.000Z</time>
      </trkpt>
      <trkpt lat="43.25385" lon="2.44569">
        <ele>142.4</ele>
        <time>2019-06-23T08:07:38.000Z</time>
      </trkpt>
      <trkpt lat="43.25383" lon="2.44567">
        <ele>142.3</ele>
        <time>2019-06-23T08:07:39.000Z</time>
      </trkpt>
      <trkpt lat="43.25381" lon="2.44564">
        <ele>142.1</ele>
        <time>2019-06-23T08:07:40.000Z</time>
      </trkpt>
      <trkpt lat="43.25379" lon="2.44561">
        <ele>141.9</ele>
        <time>2019-06-23T08:07:41.000Z</time>
      </trkpt>
      <trkpt lat="43.25378" lon="2.44558">
        <ele>141.7</ele>
        <time>2019-06-23T08:07:42.000Z</time>
      </trkpt>
      <trkpt lat="43.25376" lon="2.44554">
        <ele>141.5</ele>
        <time>2019-06-23T08:07:43.000Z</time>
      </trkpt>
      <trkpt lat="43.25375" lon="2.4455">
        <ele>141.3</ele>
        <time>2019-06-23T08:07:44.000Z</time>
      </trkpt>
      <trkpt lat="43.25374" lon="2.44547">
        <ele>141.1</ele>
        <time>2019-06-23T08:07:45.000Z</time>
      </trkpt>
      <trkpt lat="43.25373" lon="2.44543">
        <ele>140.9</ele>
        <time>2019-06-23T08:07:46.000Z</time>
      </trkpt>
      <trkpt lat="43.25373" lon="2.44539">
        <ele>140.6</ele>
        <time>2019-06-23T08:07:47.000Z</time>
      </trkpt>
      <trkpt lat="43.25373" lon="2.44535">
        <ele>140.4</ele>
        <time>2019-06-23T08:07:48.000Z</time>
      </trkpt>
      <trkpt lat="43.25373" lon="2.44531">
        <ele>140.1</ele>
        <time>2019-06-23T08:07:49.000Z</time>
      </trkpt>
      <trkpt lat="43.25373" lon="2.44527">
        <ele>139.9</ele>
        <time>2019-06-23T08:07:50.000Z</time>
      </trkpt>
      <trkpt lat="43.25373" lon="2.44524">
        <ele>139.7</ele>
        <time>2019-06-23T08:07:51.000Z</time>
      </trkpt>
      <trkpt lat="43.25373" lon="2.4452">
        <ele>139.4</ele>
        <time>2019-06-23T08:07:52.000Z</time>
      </trkpt>
      <trkpt lat="43.25373" lon="2.44517">
        <ele>139.2</ele>
        <time>2019-06-23T08:07:53.000Z</time>
      </trkpt>
      <trkpt lat="43.25373" lon="2.44514">
        <ele>139</ele>
        <time>2019-06-23T08:07:54.000Z</time>
      </trkpt>
      <trkpt lat="43.25374" lon="2.44511">
        <ele>138.8</ele>
        <time>2019-06-23T08:07:55.000Z</time>
      </trkpt>
      <trkpt lat="43.25374" lon="2.44508">
        <ele>138.6</ele>
        <time>2019-06-23T08:07:56.000Z</time>
      </trkpt>
      <trkpt lat="43.25374" lon="2.44506">
        <ele>138.5</ele>
        <time>2019-06-23T08:07:57.000Z</time>
      </trkpt>
      <trkpt lat="43.25374" lon="2.44504">
        <ele>138.3</ele>
        <time>2019-06-23T08:07:58.000Z</time>
      </trkpt>
      <trkpt lat="43.25374" lon="2.44502">
        <ele>138.2</ele>
        <time>2019-06-23T08:07:59.000Z</time>
      </trkpt>
      <trkpt lat="43.25374" lon="2.445">
        <ele>138.1</ele>
        <time>2019-06-23T08:08:00.000Z</time>
      </trkpt>
      <trkpt lat="43.25374" lon="2.44499">
        <ele>138</ele>
        <time>2019-06-23T08:08:01.000Z</time>
      </trkpt>
      <trkpt lat="43.25375" lon="2.44498">
        <ele>138</ele>
        <time>2019-06-23T08:08:02.000Z</time>
      </trkpt>
      <trkpt lat="43.25375" lon="2.44498">
        <ele>137.9</ele>
        <time>2019-06-23T08:08:03.000Z</time>
      </trkpt>
      <trkpt lat="43.25376" lon="2.44497">
        <ele>137.9</ele>
        <time>2019-06-23T08:08:04.000Z</time>
      </trkpt>
      <trkpt lat="43.25377" lon="2.44497">
        <ele>137.8</ele>
        <time>2019-06-23T08:08:05.000Z</time>
      </trkpt>
      <trkpt lat="43.25377" lon="2.44497">
        <ele>137.8</ele>
        <time>2019-06-23T08:08:06.000Z</time>
      </trkpt>
      <trkpt lat="43.25378" lon="2.44497">
        <ele>137.8</ele>
        <time>2019-06-23T08:08:07.000Z</time>
      </trkpt>
      <trkpt lat="43.25379" lon="2.44498">
        <ele>137.7</ele>
        <time>2019-06-23T08:08:08.000Z</time>
      </trkpt>
      <trkpt lat="43.2538" lon="2.44498">
        <ele>137.7</ele>
        <time>2019-06-23T08:08:09.000Z</time>
      </trkpt>
      <trkpt lat="43.25381" lon="2.44499">
        <ele>137.7</ele>
        <time>2019-06-23T08:08:10.000Z</time>
      </trkpt>
      <trkpt lat="43.25382" lon="2.44499">
        <ele>137.6</ele>
        <time>2019-06-23T08:08:11.000Z</time>
      </trkpt>
      <trkpt lat="43.25383" lon="2.445">
        <ele>137.6</ele>
        <time>2019-06-23T08:08:12.000Z</time>
      </trkpt>
      <trkpt lat="43.25385" lon="2.445">
        <ele>137.5</ele>
        <time>2019-06-23T08:08:13.000Z</time>
      </trkpt>
      <trkpt lat="43.25386" lon="2.44501">
        <ele>137.5</ele>
        <time>2019-06-23T08:08:14.000Z</time>
      </trkpt>
      <trkpt lat="43.25387" lon="2.44501">
        <ele>137.5</ele>
        <time>2019-06-23T08:08:15.000Z</time>
      </trkpt>
      <trkpt lat="43.25388" lon="2.44501">
        <ele>137.5</ele>
        <time>2019-06-23T08:08:16.000Z</time>
      </trkpt>
      <trkpt lat="43.25389" lon="2.44502">
        <ele>137.4</ele>
        <time>2019-06-23T08:08:17.000Z</time>
      </trkpt>
      <trkpt lat="43.2539" lon="2.44502">
        <ele>137.4</ele>
        <time>2019-06-23T08:08:18.000Z</time>
      </trkpt>
      <trkpt lat="43.25391" lon="2.44502">
        <ele>137.4</ele>
        <time>2019-06-23T08:08:19.000Z</time>
      </trkpt>
      <trkpt lat="43.25392" lon="2.44502">
        <ele>137.3</ele>
        <time>2019-06-23T08:08:20.000Z</time>
      </trkpt>
      <trkpt lat="43.25393" lon="2.44502">
        <ele>137.3</ele>
        <time>2019-06-23T08:08:21.000Z</time>
      </trkpt>
      <trkpt lat="43.25394" lon="2.44502">
        <ele>137.2</ele>
        <time>2019-06-23T08:08:22.000Z</time>
      </trkpt>
      <trkpt lat="43.25395" lon="2.44502">
        <ele>137.2</ele>
        <time>2019-06-23T08:08:23.000Z</time>
      </trkpt>
      <trkpt lat="43.25396" lon="2.44502">
        <ele>137.2</ele>
        <time>2019-06-23T08:08:24.000Z</time>
      </trkpt>
      <trkpt lat="43.25396" lon="2.44502">
        <ele>137.2</ele>
        <time>2019-06-23T08:08:25.000Z</time>
      </trkpt>
      <trkpt lat="43.25396" lon="2.44502">
        <ele>137.2</ele>
        <time>2019-06-23T08:08:26.000Z</time>
      </trkpt>
      <trkpt lat="43.25396" lon="2.44502">
        <ele>137.2</ele>
        <time>2019-06-23T08:08:27.000Z</time>
      </trkpt>
      <trkpt lat="43.25396" lon="2.44502">
        <ele>137.2</ele>
        <time>2019-06-23T08:08:28.000Z</time>
      </trkpt>
      <trkpt lat="43.25395" lon="2.44503">
        <ele>137.2</ele>
        <time>2019-06-23T08:08:29.000Z</time>
      </trkpt>
      <trkpt lat="43.25395" lon="2.44503">
        <ele>137.2</ele>
        <time>2019-06-23T08:08:30.000Z</time>
      </trkpt>
      <trkpt lat="43.25394" lon="2.44503">
        <ele>137.3</ele>
        <time>2019-06-23T08:08:31.000Z</time>
      </trkpt>
      <trkpt lat="43.25394" lon="2.44502">
        <ele>137.3</ele>
        <time>2019-06-23T08:08:32.000Z</time>
      </trkpt>
      <trkpt lat="43.25393" lon="2.44502">
        <ele>137.3</ele>
        <time>2019-06-23T08:08:33.000Z</time>
      </trkpt>
      <trkpt lat="43.25393" lon="2.44502">
        <ele>137.3</ele>
        <time>2019-06-23T08:08:34.000Z</time>
      </trkpt>
      <trkpt lat="43.25392" lon="2.44502">
        <ele>137.4</ele>
        <time>2019-06-23T08:08:35.000Z</time>
      </trkpt>
      <trkpt lat="43.25391" lon="2.44502">
        <ele>137.4</ele>
        <time>2019-06-23T08:08:36.000Z</time>
      </trkpt>
      <trkpt lat="43.2539" lon="2.44502">
        <ele>137.4</ele>
        <time>2019-06-23T08:08:37.000Z</time>
      </trkpt>
      <trkpt lat="43.2539" lon="2.44502">
        <ele>137.4</ele>
        <time>2019-06-23T08:08:38.000Z</time>
      </trkpt>
      <trkpt lat="43.25389" lon="2.44502">
        <ele>137.5</ele>
        <time>2019-06-23T08:08:39.000Z</time>
      </trkpt>
      <trkpt lat="43.25388" lon="2.44502">
        <ele>137.5</ele>
        <time>2019-06-23T08:08:40.000Z</time>
      </trkpt>
      <trkpt lat="43.25387" lon="2.44501">
        <ele>137.5</ele>
        <time>2019-06-23T08:08:41.000Z</time>
      </trkpt>
      <trkpt lat="43.25386" lon="2.44501">
        <ele>137.5</ele>
        <time>2019-06-23T08:08:42.000Z</time>
      </trkpt>
      <trkpt lat="43.25385" lon="2.44501">
        <ele>137.6</ele>
        <time>2019-06-23T08:08:43.000Z</time>
      </trkpt>
      <trkpt lat="43.25384" lon="2.445">
        <ele>137.6</ele>
        <time>2019-06-23T08:08:44.000Z</time>
      </trkpt>
      <trkpt lat="43.25384" lon="2.445">
        <ele>137.6</ele>
        <time>2019-06-23T08:08:45.000Z</time>
      </trkpt>
      <trkpt lat="43.25383" lon="2.445">
        <ele>137.6</ele>
        <time>2019-06-23T08:08:46.000Z</time>
      </trkpt>
      <trkpt lat="43.25382" lon="2.445">
        <ele>137.6</ele>
        <time>2019-06-23T08:08:47.000Z</time>
      </trkpt>
      <trkpt lat="43.25382" lon="2.44499">
        <ele>137.7</ele>
        <time>2019-06-23T08:08:48.000Z</time>
      </trkpt>
      <trkpt lat="43.25381" lon="2.44499">
        <ele>137.7</ele>
        <time>2019-06-23T08:08:49.000Z</time>
      </trkpt>
      <trkpt lat="43.25381" lon="2.44499">
        <ele>137.7</ele>
        <time>2019-06-23T08:08:50.000Z</time>
      </trkpt>
      <trkpt lat="43.25381" lon="2.44499">
        <ele>137.7</ele>
        <time>2019-06-23T08:08:51.000Z</time>
      </trkpt>
      <trkpt lat="43.25381" lon="2.44499">
        <ele>137.7</ele>
        <time>2019-06-23T08:08:52.000Z</time>
      </trkpt>
      <trkpt lat="43.25381" lon="2.44499">
        <ele>137.7</ele>
        <time>2019-06-23T08:08:53.000Z</time>
      </trkpt>
      <trkpt lat="43.25381" lon="2.44499">
        <ele>137.7</ele>
        <time>2019-06-23T08:08:54.000Z</time>
      </trkpt>
      <trkpt lat="43.25381" lon="2.44499">
        <ele>137.7</ele>
        <time>2019-06-23T08:08:55.000Z</time>
      </trkpt>
      <trkpt lat="43.25381" lon="2.44499">
        <ele>137.7</ele>
        <time>2019-06-23T08:08:56.000Z</time>
      </trkpt>
      <trkpt lat="43.25381" lon="2.445">
        <ele>137.7</ele>
        <time>2019-06-23T08:08:57.000Z</time>
      </trkpt>
      <trkpt lat="43.25381" lon="2.445">
        <ele>137.7</ele>
        <time>2019-06-23T08:08:58.000Z</time>
      </trkpt>
      <trkpt lat="43.25381" lon="2.445">
        <ele>137.7</ele>
        <time>2019-06-23T08:08:59.000Z</time>
      </trkpt>
      <trkpt lat="43.25381" lon="2.44499">
        <ele>137.7</ele>
        <time>2019-06-23T08:09:00.000Z</time>
      </trkpt>
      <trkpt lat="43.25381" lon="2.44499">
        <ele>137.7</ele>
        <time>2019-06-23T08:09:01.000Z</time>
      </trkpt>
      <trkpt lat="43.25381" lon="2.44499">
        <ele>137.7</ele>
        <time>2019-06-23T08:09:02.000Z</time>
      </trkpt>
      <trkpt lat="43.25381" lon="2.44499">
        <ele>137.7</ele>
        <time>2019-06-23T08:09:03.000Z</time>
      </trkpt>
      <trkpt lat="43.25381" lon="2.445">
        <ele>137.7</ele>
        <time>2019-06-23T08:09:04.000Z</time>
      </trkpt>
      <trkpt lat="43.25381" lon="2.445">
        <ele>137.7</ele>
        <time>2019-06-23T08:09:05.000Z</time>
      </trkpt>
      <trkpt lat="43.25381" lon="2.445">
        <ele>137.7</ele>
        <time>2019-06-23T08:09:06.000Z</time>
      </trkpt>
      <trkpt lat="43.25382" lon="2.445">
        <ele>137.7</ele>
        <time>2019-06-23T08:09:07.000Z</time>
      </trkpt>
      <trkpt lat="43.25382" lon="2.445">
        <ele>137.6</ele>
        <time>2019-06-23T08:09:08.000Z</time>
      </trkpt>
      <trkpt lat="43.25383" lon="2.445">
        <ele>137.6</ele>
        <time>2019-06-23T08:09:09.000Z</time>
      </trkpt>
      <trkpt lat="43.25384" lon="2.445">
        <ele>137.6</ele>
        <time>2019-06-23T08:09:10.000Z</time>
      </trkpt>
      <trkpt lat="43.25385" lon="2.445">
        <ele>137.5</ele>
        <time>2019-06-23T08:09:11.000Z</time>
      </trkpt>
      <trkpt lat="43.25387" lon="2.445">
        <ele>137.4</ele>
        <time>2019-06-23T08:09:12.000Z</time>
      </trkpt>
      <trkpt lat="43.25388" lon="2.445">
        <ele>137.4</ele>
        <time>2019-06-23T08:09:13.000Z</time>
      </trkpt>
      <trkpt lat="43.2539" lon="2.445">
        <ele>137.3</ele>
        <time>2019-06-23T08:09:14.000Z</time>
      </trkpt>
      <trkpt lat="43.25392" lon="2.445">
        <ele>137.2</ele>
        <time>2019-06-23T08:09:15.000Z</time>
      </trkpt>
      <trkpt lat="43.25394" lon="2.445">
        <ele>137.1</ele>
        <time>2019-06-23T08:09:16.000Z</time>
      </trkpt>
      <trkpt lat="43.25395" lon="2.44501">
        <ele>137.1</ele>
        <time>2019-06-23T08:09:17.000Z</time>
      </trkpt>
      <trkpt lat="43.25397" lon="2.44501">
        <ele>137</ele>
        <time>2019-06-23T08:09:18.000Z</time>
      </trkpt>
      <trkpt lat="43.25398" lon="2.44501">
        <ele>137</ele>
        <time>2019-06-23T08:09:19.000Z</time>
      </trkpt>
      <trkpt lat="43.254" lon="2.44501">
        <ele>136.9</ele>
        <time>2019-06-23T08:09:20.000Z</time>
      </trkpt>
      <trkpt lat="43.25401" lon="2.445">
        <ele>136.7</ele>
        <time>2019-06-23T08:09:21.000Z</time>
      </trkpt>
      <trkpt lat="43.25403" lon="2.44499">
        <ele>136.6</ele>
        <time>2019-06-23T08:09:22.000Z</time>
      </trkpt>
      <trkpt lat="43.25404" lon="2.44498">
        <ele>136.6</ele>
        <time>2019-06-23T08:09:23.000Z</time>
      </trkpt>
      <trkpt lat="43.25406" lon="2.44496">
        <ele>136.5</ele>
        <time>2019-06-23T08:09:24.000Z</time>
      </trkpt>
      <trkpt lat="43.25407" lon="2.44495">
        <ele>136.4</ele>
        <time>2019-06-23T08:09:25.000Z</time>
      </trkpt>
      <trkpt lat="43.25409" lon="2.44493">
        <ele>136.3</ele>
        <time>2019-06-23T08:09:26.000Z</time>
      </trkpt>
      <trkpt lat="43.2541" lon="2.4449">
        <ele>136.2</ele>
        <time>2019-06-23T08:09:27.000Z</time>
      </trkpt>
      <trkpt lat="43.25411" lon="2.44488">
        <ele>136.1</ele>
        <time>2019-06-23T08:09:28.000Z</time>
      </trkpt>
      <trkpt lat="43.25412" lon="2.44485">
        <ele>136</ele>
        <time>2019-06-23T08:09:29.000Z</time>
      </trkpt>
      <trkpt lat="43.25413" lon="2.44482">
        <ele>135.9</ele>
        <time>2019-06-23T08:09:30.000Z</time>
      </trkpt>
      <trkpt lat="43.25414" lon="2.44479">
        <ele>135.9</ele>
        <time>2019-06-23T08:09:31.000Z</time>
      </trkpt>
      <trkpt lat="43.25415" lon="2.44476">
        <ele>135.8</ele>
        <time>2019-06-23T08:09:32.000Z</time>
      </trkpt>
      <trkpt lat="43.25416" lon="2.44472">
        <ele>135.7</ele>
        <time>2019-06-23T08:09:33.000Z</time>
      </trkpt>
      <trkpt lat="43.25416" lon="2.44469">
        <ele>135.6</ele>
        <time>2019-06-23T08:09:34.000Z</time>
      </trkpt>
      <trkpt lat="43.25417" lon="2.44466">
        <ele>135.6</ele>
        <time>2019-06-23T08:09:35.000Z</time>
      </trkpt>
      <trkpt lat="43.25418" lon="2.44463">
        <ele>135.5</ele>
        <time>2019-06-23T08:09:36.000Z</time>
      </trkpt>
      <trkpt lat="43.25419" lon="2.4446">
        <ele>135.5</ele>
        <time>2019-06-23T08:09:37.000Z</time>
      </trkpt>
      <trkpt lat="43.25419" lon="2.44457">
        <ele>135.4</ele>
        <time>2019-06-23T08:09:38.000Z</time>
      </trkpt>
      <trkpt lat="43.2542" lon="2.44454">
        <ele>135.3</ele>
        <time>2019-06-23T08:09:39.000Z</time>
      </trkpt>
      <trkpt lat="43.25421" lon="2.44451">
        <ele>135.3</ele>
        <time>2019-06-23T08:09:40.000Z</time>
      </trkpt>
      <trkpt lat="43.25421" lon="2.44448">
        <ele>135.2</ele>
        <time>2019-06-23T08:09:41.000Z</time>
      </trkpt>
      <trkpt lat="43.25422" lon="2.44445">
        <ele>135.1</ele>
        <time>2019-06-23T08:09:42.000Z</time>
      </trkpt>
      <trkpt lat="43.25422" lon="2.44442">
        <ele>135</ele>
        <time>2019-06-23T08:09:43.000Z</time>
      </trkpt>
      <trkpt lat="43.25423" lon="2.44439">
        <ele>134.9</ele>
        <time>2019-06-23T08:09:44.000Z</time>
      </trkpt>
      <trkpt lat="43.25423" lon="2.44436">
        <ele>134.9</ele>
        <time>2019-06-23T08:09:45.000Z</time>
      </trkpt>
      <trkpt lat="43.25424" lon="2.44433">
        <ele>134.8</ele>
        <time>2019-06-23T08:09:46.000Z</time>
      </trkpt>
      <trkpt lat="43.25424" lon="2.4443">
        <ele>134.7</ele>
        <time>2019-06-23T08:09:47.000Z</time>
      </trkpt>
      <trkpt lat="43.25424" lon="2.44427">
        <ele>134.6</ele>
        <time>2019-06-23T08:09:48.000Z</time>
      </trkpt>
      <trkpt lat="43.25424" lon="2.44423">
        <ele>134.6</ele>
        <time>2019-06-23T08:09:49.000Z</time>
      </trkpt>
      <trkpt lat="43.25424" lon="2.4442">
        <ele>134.5</ele>
        <time>2019-06-23T08:09:50.000Z</time>
      </trkpt>
      <trkpt lat="43.25424" lon="2.44416">
        <ele>134.4</ele>
        <time>2019-06-23T08:09:51.000Z</time>
      </trkpt>
      <trkpt lat="43.25425" lon="2.44412">
        <ele>134.3</ele>
        <time>2019-06-23T08:09:52.000Z</time>
      </trkpt>
      <trkpt lat="43.25425" lon="2.44409">
        <ele>134.2</ele>
        <time>2019-06-23T08:09:53.000Z</time>
      </trkpt>
      <trkpt lat="43.25426" lon="2.44406">
        <ele>134</ele>
        <time>2019-06-23T08:09:54.000Z</time>
      </trkpt>
      <trkpt lat="43.25426" lon="2.44402">
        <ele>133.9</ele>
        <time>2019-06-23T08:09:55.000Z</time>
      </trkpt>
      <trkpt lat="43.25427" lon="2.44399">
        <ele>133.7</ele>
        <time>2019-06-23T08:09:56.000Z</time>
      </trkpt>
      <trkpt lat="43.25428" lon="2.44396">
        <ele>133.6</ele>
        <time>2019-06-23T08:09:57.000Z</time>
      </trkpt>
      <trkpt lat="43.25428" lon="2.44393">
        <ele>133.4</ele>
        <time>2019-06-23T08:09:58.000Z</time>
      </trkpt>
      <trkpt lat="43.25428" lon="2.44389">
        <ele>133.3</ele>
        <time>2019-06-23T08:09:59.000Z</time>
      </trkpt>
      <trkpt lat="43.25428" lon="2.44386">
        <ele>133.2</ele>
        <time>2019-06-23T08:10:00.000Z</time>
      </trkpt>
      <trkpt lat="43.25428" lon="2.44382">
        <ele>133.1</ele>
        <time>2019-06-23T08:10:01.000Z</time>
      </trkpt>
      <trkpt lat="43.25428" lon="2.44379">
        <ele>133</ele>
        <time>2019-06-23T08:10:02.000Z</time>
      </trkpt>
      <trkpt lat="43.25428" lon="2.44375">
        <ele>132.9</ele>
        <time>2019-06-23T08:10:03.000Z</time>
      </trkpt>
      <trkpt lat="43.25428" lon="2.44371">
        <ele>132.8</ele>
        <time>2019-06-23T08:10:04.000Z</time>
      </trkpt>
      <trkpt lat="43.25428" lon="2.44368">
        <ele>132.7</ele>
        <time>2019-06-23T08:10:05.000Z</time>
      </trkpt>
      <trkpt lat="43.25428" lon="2.44364">
        <ele>132.6</ele>
        <time>2019-06-23T08:10:06.000Z</time>
      </trkpt>
      <trkpt lat="43.25428" lon="2.4436">
        <ele>132.4</ele>
        <time>2019-06-23T08:10:07.000Z</time>
      </trkpt>
      <trkpt lat="43.25429" lon="2.44357">
        <ele>132.3</ele>
        <time>2019-06-23T08:10:08.000Z</time>
      </trkpt>
      <trkpt lat="43.25429" lon="2.44353">
        <ele>132.1</ele>
        <time>2019-06-23T08:10:09.000Z</time>
      </trkpt>
      <trkpt lat="43.2543" lon="2.44349">
        <ele>132</ele>
        <time>2019-06-23T08:10:10.000Z</time>
      </trkpt>
      <trkpt lat="43.2543" lon="2.44346">
        <ele>131.8</ele>
        <time>2019-06-23T08:10:11.000Z</time>
      </trkpt>
      <trkpt lat="43.25431" lon="2.44342">
        <ele>131.6</ele>
        <time>2019-06-23T08:10:12.000Z</time>
      </trkpt>
      <trkpt lat="43.25432" lon="2.44338">
        <ele>131.4</ele>
        <time>2019-06-23T08:10:13.000Z</time>
      </trkpt>
      <trkpt lat="43.25432" lon="2.44335">
        <ele>131.2</ele>
        <time>2019-06-23T08:10:14.000Z</time>
      </trkpt>
      <trkpt lat="43.25433" lon="2.44331">
        <ele>130.9</ele>
        <time>2019-06-23T08:10:15.000Z</time>
      </trkpt>
      <trkpt lat="43.25434" lon="2.44327">
        <ele>130.6</ele>
        <time>2019-06-23T08:10:16.000Z</time>
      </trkpt>
      <trkpt lat="43.25435" lon="2.44324">
        <ele>130.3</ele>
        <time>2019-06-23T08:10:17.000Z</time>
      </trkpt>
      <trkpt lat="43.25436" lon="2.4432">
        <ele>130</ele>
        <time>2019-06-23T08:10:18.000Z</time>
      </trkpt>
      <trkpt lat="43.25437" lon="2.44317">
        <ele>129.7</ele>
        <time>2019-06-23T08:10:19.000Z</time>
      </trkpt>
      <trkpt lat="43.25438" lon="2.44313">
        <ele>129.4</ele>
        <time>2019-06-23T08:10:20.000Z</time>
      </trkpt>
      <trkpt lat="43.25439" lon="2.4431">
        <ele>129.1</ele>
        <time>2019-06-23T08:10:21.000Z</time>
      </trkpt>
      <trkpt lat="43.2544" lon="2.44306">
        <ele>128.8</ele>
        <time>2019-06-23T08:10:22.000Z</time>
      </trkpt>
      <trkpt lat="43.25441" lon="2.44303">
        <ele>128.5</ele>
        <time>2019-06-23T08:10:23.000Z</time>
      </trkpt>
      <trkpt lat="43.25442" lon="2.443">
        <ele>128.2</ele>
        <time>2019-06-23T08:10:24.000Z</time>
      </trkpt>
      <trkpt lat="43.25443" lon="2.44296">
        <ele>127.9</ele>
        <time>2019-06-23T08:10:25.000Z</time>
      </trkpt>
      <trkpt lat="43.25444" lon="2.44293">
        <ele>127.6</ele>
        <time>2019-06-23T08:10:26.000Z</time>
      </trkpt>
      <trkpt lat="43.25446" lon="2.4429">
        <ele>127.3</ele>
        <time>2019-06-23T08:10:27.000Z</time>
      </trkpt>
      <trkpt lat="43.25447" lon="2.44286">
        <ele>127</ele>
        <time>2019-06-23T08:10:28.000Z</time>
      </trkpt>
      <trkpt lat="43.25448" lon="2.44283">
        <ele>126.7</ele>
        <time>2019-06-23T08:10:29.000Z</time>
      </trkpt>
      <trkpt lat="43.25449" lon="2.4428">
        <ele>126.3</ele>
        <time>2019-06-23T08:10:30.000Z</time>
      </trkpt>
      <trkpt lat="43.2545" lon="2.44277">
        <ele>126</ele>
        <time>2019-06-23T08:10:31.000Z</time>
      </trkpt>
      <trkpt lat="43.25451" lon="2.44273">
        <ele>125.7</ele>
        <time>2019-06-23T08:10:32.000Z</time>
      </trkpt>
      <trkpt lat="43.25452" lon="2.4427">
        <ele>125.4</ele>
        <time>2019-06-23T08:10:33.000Z</time>
      </trkpt>
      <trkpt lat="43.25453" lon="2.44267">
        <ele>125.1</ele>
        <time>2019-06-23T08:10:34.000Z</time>
      </trkpt>
      <trkpt lat="43.25454" lon="2.44264">
        <ele>124.8</ele>
        <time>2019-06-23T08:10:35.000Z</time>
      </trkpt>
      <trkpt lat="43.25455" lon="2.44261">
        <ele>124.6</ele>
        <time>2019-06-23T08:10:36.000Z</time>
      </trkpt>
      <trkpt lat="43.25456" lon="2.44257">
        <ele>124.3</ele>
        <time>2019-06-23T08:10:37.000Z</time>
      </trkpt>
      <trkpt lat="43.25456" lon="2.44254">
        <ele>124</ele>
        <time>2019-06-23T08:10:38.000Z</time>
      </trkpt>
      <trkpt lat="43.25457" lon="2.44251">
        <ele>123.7</ele>
        <time>2019-06-23T08:10:39.000Z</time>
      </trkpt>
      <trkpt lat="43.25458" lon="2.44248">
        <ele>123.4</ele>
        <time>2019-06-23T08:10:40.000Z</time>
      </trkpt>
      <trkpt lat="43.25458" lon="2.44244">
        <ele>123.2</ele>
        <time>2019-06-23T08:10:41.000Z</time>
      </trkpt>
      <trkpt lat="43.25459" lon="2.44241">
        <ele>122.9</ele>
        <time>2019-06-23T08:10:42.000Z</time>
      </trkpt>
      <trkpt lat="43.25459" lon="2.44238">
        <ele>122.7</ele>
        <time>2019-06-23T08:10:43.000Z</time>
      </trkpt>
      <trkpt lat="43.25459" lon="2.44235">
        <ele>122.5</ele>
        <time>2019-06-23T08:10:44.000Z</time>
      </trkpt>
      <trkpt lat="43.25459" lon="2.44232">
        <ele>122.3</ele>
        <time>2019-06-23T08:10:45.000Z</time>
      </trkpt>
      <trkpt lat="43.25459" lon="2.44229">
        <ele>122.2</ele>
        <time>2019-06-23T08:10:46.000Z</time>
      </trkpt>
      <trkpt lat="43.25459" lon="2.44226">
        <ele>122</ele>
        <time>2019-06-23T08:10:47.000Z</time>
      </trkpt>
      <trkpt lat="43.25458" lon="2.44223">
        <ele>121.9</ele>
        <time>2019-06-23T08:10:48.000Z</time>
      </trkpt>
      <trkpt lat="43.25458" lon="2.4422">
        <ele>121.8</ele>
        <time>2019-06-23T08:10:49.000Z</time>
      </trkpt>
      <trkpt lat="43.25457" lon="2.44217">
        <ele>121.7</ele>
        <time>2019-06-23T08:10:50.000Z</time>
      </trkpt>
      <trkpt lat="43.25456" lon="2.44213">
        <ele>121.6</ele>
        <time>2019-06-23T08:10:51.000Z</time>
      </trkpt>
      <trkpt lat="43.25455" lon="2.4421">
        <ele>121.5</ele>
        <time>2019-06-23T08:10:52.000Z</time>
      </trkpt>
      <trkpt lat="43.25454" lon="2.44206">
        <ele>121.4</ele>
        <time>2019-06-23T08:10:53.000Z</time>
      </trkpt>
      <trkpt lat="43.25452" lon="2.44203">
        <ele>121.3</ele>
        <time>2019-06-23T08:10:54.000Z</time>
      </trkpt>
      <trkpt lat="43.25451" lon="2.44199">
        <ele>121.2</ele>
        <time>2019-06-23T08:10:55.000Z</time>
      </trkpt>
      <trkpt lat="43.25449" lon="2.44196">
        <ele>121.1</ele>
        <time>2019-06-23T08:10:56.000Z</time>
      </trkpt>
      <trkpt lat="43.25448" lon="2.44192">
        <ele>121</ele>
        <time>2019-06-23T08:10:57.000Z</time>
      </trkpt>
      <trkpt lat="43.25447" lon="2.44188">
        <ele>120.9</ele>
        <time>2019-06-23T08:10:58.000Z</time>
      </trkpt>
      <trkpt lat="43.25445" lon="2.44185">
        <ele>120.8</ele>
        <time>2019-06-23T08:10:59.000Z</time>
      </trkpt>
      <trkpt lat="43.25444" lon="2.44181">
        <ele>120.7</ele>
        <time>2019-06-23T08:11:00.000Z</time>
      </trkpt>
      <trkpt lat="43.25443" lon="2.44178">
        <ele>120.5</ele>
        <time>2019-06-23T08:11:01.000Z</time>
      </trkpt>
      <trkpt lat="43.25442" lon="2.44174">
        <ele>120.4</ele>
        <time>2019-06-23T08:11:02.000Z</time>
      </trkpt>
      <trkpt lat="43.25442" lon="2.44171">
        <ele>120.2</ele>
        <time>2019-06-23T08:11:03.000Z</time>
      </trkpt>
      <trkpt lat="43.25441" lon="2.44168">
        <ele>120</ele>
        <time>2019-06-23T08:11:04.000Z</time>
      </trkpt>
      <trkpt lat="43.25441" lon="2.44164">
        <ele>119.9</ele>
        <time>2019-06-23T08:11:05.000Z</time>
      </trkpt>
      <trkpt lat="43.2544" lon="2.44161">
        <ele>119.8</ele>
        <time>2019-06-23T08:11:06.000Z</time>
      </trkpt>
      <trkpt lat="43.2544" lon="2.44157">
        <ele>119.6</ele>
        <time>2019-06-23T08:11:07.000Z</time>
      </trkpt>
      <trkpt lat="43.2544" lon="2.44154">
        <ele>119.5</ele>
        <time>2019-06-23T08:11:08.000Z</time>
      </trkpt>
      <trkpt lat="43.25441" lon="2.4415">
        <ele>119.3</ele>
        <time>2019-06-23T08:11:09.000Z</time>
      </trkpt>
      <trkpt lat="43.25441" lon="2.44146">
        <ele>119.2</ele>
        <time>2019-06-23T08:11:10.000Z</time>
      </trkpt>
      <trkpt lat="43.25441" lon="2.44143">
        <ele>119</ele>
        <time>2019-06-23T08:11:11.000Z</time>
      </trkpt>
      <trkpt lat="43.25441" lon="2.44139">
        <ele>118.9</ele>
        <time>2019-06-23T08:11:12.000Z</time>
      </trkpt>
      <trkpt lat="43.25441" lon="2.44136">
        <ele>118.7</ele>
        <time>2019-06-23T08:11:13.000Z</time>
      </trkpt>
      <trkpt lat="43.2544" lon="2.44132">
        <ele>118.6</ele>
        <time>2019-06-23T08:11:14.000Z</time>
      </trkpt>
      <trkpt lat="43.2544" lon="2.44128">
        <ele>118.5</ele>
        <time>2019-06-23T08:11:15.000Z</time>
      </trkpt>
      <trkpt lat="43.25439" lon="2.44125">
        <ele>118.4</ele>
        <time>2019-06-23T08:11:16.000Z</time>
      </trkpt>
      <trkpt lat="43.25438" lon="2.44122">
        <ele>118.3</ele>
        <time>2019-06-23T08:11:17.000Z</time>
      </trkpt>
      <trkpt lat="43.25436" lon="2.44118">
        <ele>118.3</ele>
        <time>2019-06-23T08:11:18.000Z</time>
      </trkpt>
      <trkpt lat="43.25435" lon="2.44115">
        <ele>118.3</ele>
        <time>2019-06-23T08:11:19.000Z</time>
      </trkpt>
      <trkpt lat="43.25433" lon="2.44112">
        <ele>118.2</ele>
        <time>2019-06-23T08:11:20.000Z</time>
      </trkpt>
      <trkpt lat="43.25432" lon="2.4411">
        <ele>118.2</ele>
        <time>2019-06-23T08:11:21.000Z</time>
      </trkpt>
      <trkpt lat="43.2543" lon="2.44107">
        <ele>118.3</ele>
        <time>2019-06-23T08:11:22.000Z</time>
      </trkpt>
      <trkpt lat="43.25428" lon="2.44105">
        <ele>118.3</ele>
        <time>2019-06-23T08:11:23.000Z</time>
      </trkpt>
      <trkpt lat="43.25426" lon="2.44103">
        <ele>118.4</ele>
        <time>2019-06-23T08:11:24.000Z</time>
      </trkpt>
      <trkpt lat="43.25423" lon="2.44101">
        <ele>118.4</ele>
        <time>2019-06-23T08:11:25.000Z</time>
      </trkpt>
      <trkpt lat="43.25421" lon="2.441">
        <ele>118.5</ele>
        <time>2019-06-23T08:11:26.000Z</time>
      </trkpt>
      <trkpt lat="43.25419" lon="2.44098">
        <ele>118.6</ele>
        <time>2019-06-23T08:11:27.000Z</time>
      </trkpt>
      <trkpt lat="43.25416" lon="2.44097">
        <ele>118.7</ele>
        <time>2019-06-23T08:11:28.000Z</time>
      </trkpt>
      <trkpt lat="43.25414" lon="2.44096">
        <ele>118.8</ele>
        <time>2019-06-23T08:11:29.000Z</time>
      </trkpt>
      <trkpt lat="43.25411" lon="2.44095">
        <ele>118.9</ele>
        <time>2019-06-23T08:11:30.000Z</time>
      </trkpt>
      <trkpt lat="43.25408" lon="2.44095">
        <ele>119</ele>
        <time>2019-06-23T08:11:31.000Z</time>
      </trkpt>
      <trkpt lat="43.25406" lon="2.44094">
        <ele>119.1</ele>
        <time>2019-06-23T08:11:32.000Z</time>
      </trkpt>
      <trkpt lat="43.25403" lon="2.44093">
        <ele>119.2</ele>
        <time>2019-06-23T08:11:33.000Z</time>
      </trkpt>
      <trkpt lat="43.254" lon="2.44093">
        <ele>119.3</ele>
        <time>2019-06-23T08:11:34.000Z</time>
      </trkpt>
      <trkpt lat="43.25397" lon="2.44092">
        <ele>119.4</ele>
        <time>2019-06-23T08:11:35.000Z</time>
      </trkpt>
      <trkpt lat="43.25395" lon="2.44091">
        <ele>119.5</ele>
        <time>2019-06-23T08:11:36.000Z</time>
      </trkpt>
      <trkpt lat="43.25392" lon="2.44091">
        <ele>119.5</ele>
        <time>2019-06-23T08:11:37.000Z</time>
      </trkpt>
      <trkpt lat="43.25389" lon="2.4409">
        <ele>119.6</ele>
        <time>2019-06-23T08:11:38.000Z</time>
      </trkpt>
      <trkpt lat="43.25387" lon="2.44089">
        <ele>119.7</ele>
        <time>2019-06-23T08:11:39.000Z</time>
      </trkpt>
      <trkpt lat="43.25384" lon="2.44088">
        <ele>119.8</ele>
        <time>2019-06-23T08:11:40.000Z</time>
      </trkpt>
      <trkpt lat="43.25382" lon="2.44087">
        <ele>119.9</ele>
        <time>2019-06-23T08:11:41.000Z</time>
      </trkpt>
      <trkpt lat="43.25379" lon="2.44086">
        <ele>119.9</ele>
        <time>2019-06-23T08:11:42.000Z</time>
      </trkpt>
      <trkpt lat="43.25377" lon="2.44085">
        <ele>120</ele>
        <time>2019-06-23T08:11:43.000Z</time>
      </trkpt>
      <trkpt lat="43.25374" lon="2.44084">
        <ele>120.1</ele>
        <time>2019-06-23T08:11:44.000Z</time>
      </trkpt>
      <trkpt lat="43.25372" lon="2.44083">
        <ele>120.1</ele>
        <time>2019-06-23T08:11:45.000Z</time>
      </trkpt>
      <trkpt lat="43.25369" lon="2.44082">
        <ele>120.2</ele>
        <time>2019-06-23T08:11:46.000Z</time>
      </trkpt>
      <trkpt lat="43.25367" lon="2.44081">
        <ele>120.2</ele>
        <time>2019-06-23T08:11:47.000Z</time>
      </trkpt>
      <trkpt lat="43.25365" lon="2.4408">
        <ele>120.3</ele>
        <time>2019-06-23T08:11:48.000Z</time>
      </trkpt>
      <trkpt lat="43.25363" lon="2.44079">
        <ele>120.3</ele>
        <time>2019-06-23T08:11:49.000Z</time>
      </trkpt>
      <trkpt lat="43.2536" lon="2.44078">
        <ele>120.3</ele>
        <time>2019-06-23T08:11:50.000Z</time>
      </trkpt>
      <trkpt lat="43.25358" lon="2.44078">
        <ele>120.4</ele>
        <time>2019-06-23T08:11:51.000Z</time>
      </trkpt>
      <trkpt lat="43.25356" lon="2.44077">
        <ele>120.4</ele>
        <time>2019-06-23T08:11:52.000Z</time>
      </trkpt>
      <trkpt lat="43.25354" lon="2.44076">
        <ele>120.5</ele>
        <time>2019-06-23T08:11:53.000Z</time>
      </trkpt>
      <trkpt lat="43.25352" lon="2.44076">
        <ele>120.5</ele>
        <time>2019-06-23T08:11:54.000Z</time>
      </trkpt>
      <trkpt lat="43.2535" lon="2.44076">
        <ele>120.6</ele>
        <time>2019-06-23T08:11:55.000Z</time>
      </trkpt>
      <trkpt lat="43.25348" lon="2.44076">
        <ele>120.7</ele>
        <time>2019-06-23T08:11:56.000Z</time>
      </trkpt>
      <trkpt lat="43.25347" lon="2.44078">
        <ele>120.9</ele>
        <time>2019-06-23T08:11:57.000Z</time>
      </trkpt>
      <trkpt lat="43.25345" lon="2.4408">
        <ele>121.1</ele>
        <time>2019-06-23T08:11:58.000Z</time>
      </trkpt>
      <trkpt lat="43.25344" lon="2.44082">
        <ele>121.4</ele>
        <time>2019-06-23T08:11:59.000Z</time>
      </trkpt>
      <trkpt lat="43.25343" lon="2.44085">
        <ele>121.6</ele>
        <time>2019-06-23T08:12:00.000Z</time>
      </trkpt>
      <trkpt lat="43.25342" lon="2.44088">
        <ele>121.9</ele>
        <time>2019-06-23T08:12:01.000Z</time>
      </trkpt>
      <trkpt lat="43.25341" lon="2.44091">
        <ele>122.1</ele>
        <time>2019-06-23T08:12:02.000Z</time>
      </trkpt>
      <trkpt lat="43.2534" lon="2.44094">
        <ele>122.3</ele>
        <time>2019-06-23T08:12:03.000Z</time>
      </trkpt>
      <trkpt lat="43.25339" lon="2.44097">
        <ele>122.5</ele>
        <time>2019-06-23T08:12:04.000Z</time>
      </trkpt>
      <trkpt lat="43.25338" lon="2.44099">
        <ele>122.7</ele>
        <time>2019-06-23T08:12:05.000Z</time>
      </trkpt>
      <trkpt lat="43.25337" lon="2.44101">
        <ele>122.9</ele>
        <time>2019-06-23T08:12:06.000Z</time>
      </trkpt>
      <trkpt lat="43.25337" lon="2.44103">
        <ele>123</ele>
        <time>2019-06-23T08:12:07.000Z</time>
      </trkpt>
    </trkseg>
  </trk>
</gpx>